<?xml version="1.0" encoding="UTF-8" standalone="no" ?>
<gpx xmlns="http://www.topografix.com/GPX/1/1" xmlns:xsi="http://www.w3.org/2001/XMLSchema-instance" xsi:schemaLocation="http://www.topografix.com/GPX/1/1 http://www.topografix.com/GPX/1/1/gpx.xsd" version="1.1" creator="VisuGPX - https://www.visugpx.com">
  <metadata>
    <name>Louhossoa - Aborreguina </name>
    <desc><![CDATA[Deuxième étape PE
Températures caniculaires]]></desc>
  </metadata>
  <trk>
    <name><![CDATA[Road ride]]></name>
    <trkseg>
      <trkpt lat="43.31627" lon="-1.33677">
        <ele>119.543197</ele>
        <time>2026-05-22T06:04:50.000Z</time>
      </trkpt>
      <trkpt lat="43.31627" lon="-1.33677">
        <ele>119.543197</ele>
        <time>2026-05-22T06:04:51.000Z</time>
      </trkpt>
      <trkpt lat="43.31627" lon="-1.33681">
        <ele>119.543197</ele>
        <time>2026-05-22T06:04:52.000Z</time>
      </trkpt>
      <trkpt lat="43.31627" lon="-1.33686">
        <ele>119.543197</ele>
        <time>2026-05-22T06:04:53.000Z</time>
      </trkpt>
      <trkpt lat="43.31629" lon="-1.33691">
        <ele>119.543197</ele>
        <time>2026-05-22T06:04:54.000Z</time>
      </trkpt>
      <trkpt lat="43.3163" lon="-1.33695">
        <ele>119.543197</ele>
        <time>2026-05-22T06:04:55.000Z</time>
      </trkpt>
      <trkpt lat="43.31633" lon="-1.33698">
        <ele>119.543197</ele>
        <time>2026-05-22T06:04:56.000Z</time>
      </trkpt>
      <trkpt lat="43.31636" lon="-1.33702">
        <ele>119.543197</ele>
        <time>2026-05-22T06:04:57.000Z</time>
      </trkpt>
      <trkpt lat="43.3164" lon="-1.33707">
        <ele>119.543197</ele>
        <time>2026-05-22T06:04:58.000Z</time>
      </trkpt>
      <trkpt lat="43.31643" lon="-1.33712">
        <ele>119.543197</ele>
        <time>2026-05-22T06:04:59.000Z</time>
      </trkpt>
      <trkpt lat="43.31647" lon="-1.33717">
        <ele>119.543197</ele>
        <time>2026-05-22T06:05:00.000Z</time>
      </trkpt>
      <trkpt lat="43.31651" lon="-1.33722">
        <ele>119.543197</ele>
        <time>2026-05-22T06:05:01.000Z</time>
      </trkpt>
      <trkpt lat="43.31655" lon="-1.33727">
        <ele>119.543197</ele>
        <time>2026-05-22T06:05:02.000Z</time>
      </trkpt>
      <trkpt lat="43.31659" lon="-1.33733">
        <ele>119.543197</ele>
        <time>2026-05-22T06:05:03.000Z</time>
      </trkpt>
      <trkpt lat="43.31662" lon="-1.33739">
        <ele>119.543197</ele>
        <time>2026-05-22T06:05:04.000Z</time>
      </trkpt>
      <trkpt lat="43.31666" lon="-1.33746">
        <ele>119.543197</ele>
        <time>2026-05-22T06:05:05.000Z</time>
      </trkpt>
      <trkpt lat="43.31669" lon="-1.33753">
        <ele>119.543197</ele>
        <time>2026-05-22T06:05:06.000Z</time>
      </trkpt>
      <trkpt lat="43.31672" lon="-1.3376">
        <ele>119.543197</ele>
        <time>2026-05-22T06:05:07.000Z</time>
      </trkpt>
      <trkpt lat="43.31675" lon="-1.33767">
        <ele>119.543197</ele>
        <time>2026-05-22T06:05:08.000Z</time>
      </trkpt>
      <trkpt lat="43.31678" lon="-1.33774">
        <ele>119.543197</ele>
        <time>2026-05-22T06:05:09.000Z</time>
      </trkpt>
      <trkpt lat="43.3168" lon="-1.3378">
        <ele>119.420276</ele>
        <time>2026-05-22T06:05:10.000Z</time>
      </trkpt>
      <trkpt lat="43.31683" lon="-1.33786">
        <ele>119.26177</ele>
        <time>2026-05-22T06:05:11.000Z</time>
      </trkpt>
      <trkpt lat="43.31685" lon="-1.33792">
        <ele>119.09877</ele>
        <time>2026-05-22T06:05:12.000Z</time>
      </trkpt>
      <trkpt lat="43.31687" lon="-1.33799">
        <ele>118.936415</ele>
        <time>2026-05-22T06:05:13.000Z</time>
      </trkpt>
      <trkpt lat="43.3169" lon="-1.33805">
        <ele>118.775087</ele>
        <time>2026-05-22T06:05:14.000Z</time>
      </trkpt>
      <trkpt lat="43.31692" lon="-1.33811">
        <ele>118.626059</ele>
        <time>2026-05-22T06:05:15.000Z</time>
      </trkpt>
      <trkpt lat="43.31694" lon="-1.33818">
        <ele>118.467648</ele>
        <time>2026-05-22T06:05:16.000Z</time>
      </trkpt>
      <trkpt lat="43.31696" lon="-1.33824">
        <ele>118.307199</ele>
        <time>2026-05-22T06:05:17.000Z</time>
      </trkpt>
      <trkpt lat="43.31699" lon="-1.33831">
        <ele>118.142854</ele>
        <time>2026-05-22T06:05:18.000Z</time>
      </trkpt>
      <trkpt lat="43.31701" lon="-1.33837">
        <ele>117.989214</ele>
        <time>2026-05-22T06:05:19.000Z</time>
      </trkpt>
      <trkpt lat="43.31703" lon="-1.33843">
        <ele>117.834302</ele>
        <time>2026-05-22T06:05:20.000Z</time>
      </trkpt>
      <trkpt lat="43.31705" lon="-1.3385">
        <ele>117.685275</ele>
        <time>2026-05-22T06:05:21.000Z</time>
      </trkpt>
      <trkpt lat="43.31706" lon="-1.33855">
        <ele>117.550341</ele>
        <time>2026-05-22T06:05:22.000Z</time>
      </trkpt>
      <trkpt lat="43.31705" lon="-1.33861">
        <ele>117.423781</ele>
        <time>2026-05-22T06:05:23.000Z</time>
      </trkpt>
      <trkpt lat="43.31702" lon="-1.33867">
        <ele>117.270593</ele>
        <time>2026-05-22T06:05:24.000Z</time>
      </trkpt>
      <trkpt lat="43.31699" lon="-1.33871">
        <ele>117.126878</ele>
        <time>2026-05-22T06:05:25.000Z</time>
      </trkpt>
      <trkpt lat="43.31695" lon="-1.33874">
        <ele>116.981121</ele>
        <time>2026-05-22T06:05:26.000Z</time>
      </trkpt>
      <trkpt lat="43.3169" lon="-1.33875">
        <ele>116.829915</ele>
        <time>2026-05-22T06:05:27.000Z</time>
      </trkpt>
      <trkpt lat="43.31685" lon="-1.33876">
        <ele>116.669466</ele>
        <time>2026-05-22T06:05:28.000Z</time>
      </trkpt>
      <trkpt lat="43.31679" lon="-1.33875">
        <ele>116.493551</ele>
        <time>2026-05-22T06:05:29.000Z</time>
      </trkpt>
      <trkpt lat="43.31673" lon="-1.33874">
        <ele>116.312875</ele>
        <time>2026-05-22T06:05:30.000Z</time>
      </trkpt>
      <trkpt lat="43.31667" lon="-1.33872">
        <ele>116.134315</ele>
        <time>2026-05-22T06:05:31.000Z</time>
      </trkpt>
      <trkpt lat="43.31662" lon="-1.3387">
        <ele>115.955755</ele>
        <time>2026-05-22T06:05:32.000Z</time>
      </trkpt>
      <trkpt lat="43.31656" lon="-1.33868">
        <ele>115.764755</ele>
        <time>2026-05-22T06:05:33.000Z</time>
      </trkpt>
      <trkpt lat="43.31649" lon="-1.33867">
        <ele>115.566361</ele>
        <time>2026-05-22T06:05:34.000Z</time>
      </trkpt>
      <trkpt lat="43.31643" lon="-1.33867">
        <ele>115.376555</ele>
        <time>2026-05-22T06:05:35.000Z</time>
      </trkpt>
      <trkpt lat="43.31637" lon="-1.33869">
        <ele>115.195454</ele>
        <time>2026-05-22T06:05:36.000Z</time>
      </trkpt>
      <trkpt lat="43.31632" lon="-1.33871">
        <ele>115.020701</ele>
        <time>2026-05-22T06:05:37.000Z</time>
      </trkpt>
      <trkpt lat="43.31627" lon="-1.33874">
        <ele>114.859128</ele>
        <time>2026-05-22T06:05:38.000Z</time>
      </trkpt>
      <trkpt lat="43.31622" lon="-1.33878">
        <ele>114.699729</ele>
        <time>2026-05-22T06:05:39.000Z</time>
      </trkpt>
      <trkpt lat="43.31618" lon="-1.33881">
        <ele>114.542967</ele>
        <time>2026-05-22T06:05:40.000Z</time>
      </trkpt>
      <trkpt lat="43.31613" lon="-1.33885">
        <ele>114.383072</ele>
        <time>2026-05-22T06:05:41.000Z</time>
      </trkpt>
      <trkpt lat="43.31609" lon="-1.33888">
        <ele>114.228933</ele>
        <time>2026-05-22T06:05:42.000Z</time>
      </trkpt>
      <trkpt lat="43.31605" lon="-1.33892">
        <ele>114.075941</ele>
        <time>2026-05-22T06:05:43.000Z</time>
      </trkpt>
      <trkpt lat="43.31601" lon="-1.33895">
        <ele>114.052917</ele>
        <time>2026-05-22T06:05:44.000Z</time>
      </trkpt>
      <trkpt lat="43.31596" lon="-1.33899">
        <ele>114.074617</ele>
        <time>2026-05-22T06:05:45.000Z</time>
      </trkpt>
      <trkpt lat="43.31592" lon="-1.33903">
        <ele>114.095958</ele>
        <time>2026-05-22T06:05:46.000Z</time>
      </trkpt>
      <trkpt lat="43.31588" lon="-1.33907">
        <ele>114.118373</ele>
        <time>2026-05-22T06:05:47.000Z</time>
      </trkpt>
      <trkpt lat="43.31584" lon="-1.33912">
        <ele>114.140684</ele>
        <time>2026-05-22T06:05:48.000Z</time>
      </trkpt>
      <trkpt lat="43.31582" lon="-1.33918">
        <ele>114.16333</ele>
        <time>2026-05-22T06:05:49.000Z</time>
      </trkpt>
      <trkpt lat="43.31578" lon="-1.33924">
        <ele>114.185197</ele>
        <time>2026-05-22T06:05:50.000Z</time>
      </trkpt>
      <trkpt lat="43.31575" lon="-1.33929">
        <ele>114.207384</ele>
        <time>2026-05-22T06:05:51.000Z</time>
      </trkpt>
      <trkpt lat="43.31572" lon="-1.33934">
        <ele>114.228944</ele>
        <time>2026-05-22T06:05:52.000Z</time>
      </trkpt>
      <trkpt lat="43.31568" lon="-1.33938">
        <ele>114.248863</ele>
        <time>2026-05-22T06:05:53.000Z</time>
      </trkpt>
      <trkpt lat="43.31566" lon="-1.33943">
        <ele>114.267504</ele>
        <time>2026-05-22T06:05:54.000Z</time>
      </trkpt>
      <trkpt lat="43.31563" lon="-1.33947">
        <ele>114.283882</ele>
        <time>2026-05-22T06:05:55.000Z</time>
      </trkpt>
      <trkpt lat="43.3156" lon="-1.3395">
        <ele>114.300116</ele>
        <time>2026-05-22T06:05:56.000Z</time>
      </trkpt>
      <trkpt lat="43.31557" lon="-1.33954">
        <ele>114.316771</ele>
        <time>2026-05-22T06:05:57.000Z</time>
      </trkpt>
      <trkpt lat="43.31554" lon="-1.33958">
        <ele>114.336216</ele>
        <time>2026-05-22T06:05:58.000Z</time>
      </trkpt>
      <trkpt lat="43.3155" lon="-1.33962">
        <ele>114.356531</ele>
        <time>2026-05-22T06:05:59.000Z</time>
      </trkpt>
      <trkpt lat="43.31546" lon="-1.33966">
        <ele>114.377379</ele>
        <time>2026-05-22T06:06:00.000Z</time>
      </trkpt>
      <trkpt lat="43.31543" lon="-1.3397">
        <ele>114.398062</ele>
        <time>2026-05-22T06:06:01.000Z</time>
      </trkpt>
      <trkpt lat="43.3154" lon="-1.33975">
        <ele>114.417819</ele>
        <time>2026-05-22T06:06:02.000Z</time>
      </trkpt>
      <trkpt lat="43.31537" lon="-1.33979">
        <ele>114.43705</ele>
        <time>2026-05-22T06:06:03.000Z</time>
      </trkpt>
      <trkpt lat="43.31534" lon="-1.33983">
        <ele>114.454884</ele>
        <time>2026-05-22T06:06:04.000Z</time>
      </trkpt>
      <trkpt lat="43.31531" lon="-1.33988">
        <ele>114.471901</ele>
        <time>2026-05-22T06:06:05.000Z</time>
      </trkpt>
      <trkpt lat="43.31529" lon="-1.33992">
        <ele>114.487421</ele>
        <time>2026-05-22T06:06:06.000Z</time>
      </trkpt>
      <trkpt lat="43.31527" lon="-1.33995">
        <ele>114.502985</ele>
        <time>2026-05-22T06:06:07.000Z</time>
      </trkpt>
      <trkpt lat="43.31524" lon="-1.33999">
        <ele>114.518473</ele>
        <time>2026-05-22T06:06:08.000Z</time>
      </trkpt>
      <trkpt lat="43.31522" lon="-1.34002">
        <ele>114.533432</ele>
        <time>2026-05-22T06:06:09.000Z</time>
      </trkpt>
      <trkpt lat="43.31519" lon="-1.34005">
        <ele>114.54861</ele>
        <time>2026-05-22T06:06:10.000Z</time>
      </trkpt>
      <trkpt lat="43.31517" lon="-1.34008">
        <ele>114.561994</ele>
        <time>2026-05-22T06:06:11.000Z</time>
      </trkpt>
      <trkpt lat="43.31514" lon="-1.3401">
        <ele>114.576818</ele>
        <time>2026-05-22T06:06:12.000Z</time>
      </trkpt>
      <trkpt lat="43.31511" lon="-1.34012">
        <ele>114.591989</ele>
        <time>2026-05-22T06:06:13.000Z</time>
      </trkpt>
      <trkpt lat="43.31507" lon="-1.34014">
        <ele>114.606392</ele>
        <time>2026-05-22T06:06:14.000Z</time>
      </trkpt>
      <trkpt lat="43.31504" lon="-1.34015">
        <ele>114.620793</ele>
        <time>2026-05-22T06:06:15.000Z</time>
      </trkpt>
      <trkpt lat="43.31501" lon="-1.34016">
        <ele>114.635549</ele>
        <time>2026-05-22T06:06:16.000Z</time>
      </trkpt>
      <trkpt lat="43.31497" lon="-1.34016">
        <ele>114.651544</ele>
        <time>2026-05-22T06:06:17.000Z</time>
      </trkpt>
      <trkpt lat="43.31494" lon="-1.34017">
        <ele>114.66673</ele>
        <time>2026-05-22T06:06:18.000Z</time>
      </trkpt>
      <trkpt lat="43.3149" lon="-1.34017">
        <ele>114.681486</ele>
        <time>2026-05-22T06:06:19.000Z</time>
      </trkpt>
      <trkpt lat="43.31487" lon="-1.34019">
        <ele>114.696181</ele>
        <time>2026-05-22T06:06:20.000Z</time>
      </trkpt>
      <trkpt lat="43.31484" lon="-1.34021">
        <ele>114.712596</ele>
        <time>2026-05-22T06:06:21.000Z</time>
      </trkpt>
      <trkpt lat="43.31481" lon="-1.34025">
        <ele>114.727639</ele>
        <time>2026-05-22T06:06:22.000Z</time>
      </trkpt>
      <trkpt lat="43.31479" lon="-1.34029">
        <ele>114.744907</ele>
        <time>2026-05-22T06:06:23.000Z</time>
      </trkpt>
      <trkpt lat="43.31477" lon="-1.34034">
        <ele>114.761107</ele>
        <time>2026-05-22T06:06:24.000Z</time>
      </trkpt>
      <trkpt lat="43.31476" lon="-1.34038">
        <ele>114.77608</ele>
        <time>2026-05-22T06:06:25.000Z</time>
      </trkpt>
      <trkpt lat="43.31474" lon="-1.34044">
        <ele>114.794161</ele>
        <time>2026-05-22T06:06:26.000Z</time>
      </trkpt>
      <trkpt lat="43.31472" lon="-1.34048">
        <ele>114.810924</ele>
        <time>2026-05-22T06:06:27.000Z</time>
      </trkpt>
      <trkpt lat="43.31471" lon="-1.34054">
        <ele>114.895272</ele>
        <time>2026-05-22T06:06:28.000Z</time>
      </trkpt>
      <trkpt lat="43.31469" lon="-1.34059">
        <ele>114.987654</ele>
        <time>2026-05-22T06:06:29.000Z</time>
      </trkpt>
      <trkpt lat="43.31466" lon="-1.34063">
        <ele>115.081762</ele>
        <time>2026-05-22T06:06:30.000Z</time>
      </trkpt>
      <trkpt lat="43.31465" lon="-1.34068">
        <ele>115.169191</ele>
        <time>2026-05-22T06:06:31.000Z</time>
      </trkpt>
      <trkpt lat="43.31463" lon="-1.34073">
        <ele>115.258682</ele>
        <time>2026-05-22T06:06:32.000Z</time>
      </trkpt>
      <trkpt lat="43.31461" lon="-1.34078">
        <ele>115.356461</ele>
        <time>2026-05-22T06:06:33.000Z</time>
      </trkpt>
      <trkpt lat="43.31459" lon="-1.34083">
        <ele>115.451321</ele>
        <time>2026-05-22T06:06:34.000Z</time>
      </trkpt>
      <trkpt lat="43.31457" lon="-1.34089">
        <ele>115.54681</ele>
        <time>2026-05-22T06:06:35.000Z</time>
      </trkpt>
      <trkpt lat="43.31456" lon="-1.34094">
        <ele>115.642299</ele>
        <time>2026-05-22T06:06:36.000Z</time>
      </trkpt>
      <trkpt lat="43.31454" lon="-1.341">
        <ele>115.738494</ele>
        <time>2026-05-22T06:06:37.000Z</time>
      </trkpt>
      <trkpt lat="43.31453" lon="-1.34105">
        <ele>115.830093</ele>
        <time>2026-05-22T06:06:38.000Z</time>
      </trkpt>
      <trkpt lat="43.31452" lon="-1.3411">
        <ele>115.919764</ele>
        <time>2026-05-22T06:06:39.000Z</time>
      </trkpt>
      <trkpt lat="43.31451" lon="-1.34116">
        <ele>116.012609</ele>
        <time>2026-05-22T06:06:40.000Z</time>
      </trkpt>
      <trkpt lat="43.3145" lon="-1.34121">
        <ele>116.10176</ele>
        <time>2026-05-22T06:06:41.000Z</time>
      </trkpt>
      <trkpt lat="43.3145" lon="-1.34126">
        <ele>116.185148</ele>
        <time>2026-05-22T06:06:42.000Z</time>
      </trkpt>
      <trkpt lat="43.31449" lon="-1.34131">
        <ele>116.271051</ele>
        <time>2026-05-22T06:06:43.000Z</time>
      </trkpt>
      <trkpt lat="43.31449" lon="-1.34137">
        <ele>116.361827</ele>
        <time>2026-05-22T06:06:44.000Z</time>
      </trkpt>
      <trkpt lat="43.31449" lon="-1.34142">
        <ele>116.455286</ele>
        <time>2026-05-22T06:06:45.000Z</time>
      </trkpt>
      <trkpt lat="43.31448" lon="-1.34148">
        <ele>116.5507</ele>
        <time>2026-05-22T06:06:46.000Z</time>
      </trkpt>
      <trkpt lat="43.31448" lon="-1.34154">
        <ele>116.641224</ele>
        <time>2026-05-22T06:06:47.000Z</time>
      </trkpt>
      <trkpt lat="43.31447" lon="-1.34159">
        <ele>116.732</ele>
        <time>2026-05-22T06:06:48.000Z</time>
      </trkpt>
      <trkpt lat="43.31447" lon="-1.34165">
        <ele>116.820894</ele>
        <time>2026-05-22T06:06:49.000Z</time>
      </trkpt>
      <trkpt lat="43.31447" lon="-1.3417">
        <ele>116.906175</ele>
        <time>2026-05-22T06:06:50.000Z</time>
      </trkpt>
      <trkpt lat="43.31447" lon="-1.34175">
        <ele>116.98973</ele>
        <time>2026-05-22T06:06:51.000Z</time>
      </trkpt>
      <trkpt lat="43.31447" lon="-1.3418">
        <ele>117.073255</ele>
        <time>2026-05-22T06:06:52.000Z</time>
      </trkpt>
      <trkpt lat="43.31446" lon="-1.34185">
        <ele>117.155172</ele>
        <time>2026-05-22T06:06:53.000Z</time>
      </trkpt>
      <trkpt lat="43.31446" lon="-1.3419">
        <ele>117.230642</ele>
        <time>2026-05-22T06:06:54.000Z</time>
      </trkpt>
      <trkpt lat="43.31446" lon="-1.34194">
        <ele>117.303018</ele>
        <time>2026-05-22T06:06:55.000Z</time>
      </trkpt>
      <trkpt lat="43.31446" lon="-1.34198">
        <ele>117.375078</ele>
        <time>2026-05-22T06:06:56.000Z</time>
      </trkpt>
      <trkpt lat="43.31446" lon="-1.34203">
        <ele>117.448811</ele>
        <time>2026-05-22T06:06:57.000Z</time>
      </trkpt>
      <trkpt lat="43.31446" lon="-1.34207">
        <ele>117.517743</ele>
        <time>2026-05-22T06:06:58.000Z</time>
      </trkpt>
      <trkpt lat="43.31446" lon="-1.34211">
        <ele>117.588201</ele>
        <time>2026-05-22T06:06:59.000Z</time>
      </trkpt>
      <trkpt lat="43.31446" lon="-1.34216">
        <ele>117.660822</ele>
        <time>2026-05-22T06:07:00.000Z</time>
      </trkpt>
      <trkpt lat="43.31445" lon="-1.3422">
        <ele>117.734828</ele>
        <time>2026-05-22T06:07:01.000Z</time>
      </trkpt>
      <trkpt lat="43.31445" lon="-1.34224">
        <ele>117.7987</ele>
        <time>2026-05-22T06:07:02.000Z</time>
      </trkpt>
      <trkpt lat="43.31446" lon="-1.34228">
        <ele>117.862382</ele>
        <time>2026-05-22T06:07:03.000Z</time>
      </trkpt>
      <trkpt lat="43.31446" lon="-1.34232">
        <ele>117.924015</ele>
        <time>2026-05-22T06:07:04.000Z</time>
      </trkpt>
      <trkpt lat="43.31447" lon="-1.34236">
        <ele>117.999485</ele>
        <time>2026-05-22T06:07:05.000Z</time>
      </trkpt>
      <trkpt lat="43.31446" lon="-1.34241">
        <ele>118.068306</ele>
        <time>2026-05-22T06:07:06.000Z</time>
      </trkpt>
      <trkpt lat="43.31446" lon="-1.34243">
        <ele>118.112978</ele>
        <time>2026-05-22T06:07:07.000Z</time>
      </trkpt>
      <trkpt lat="43.31446" lon="-1.34245">
        <ele>118.139565</ele>
        <time>2026-05-22T06:07:08.000Z</time>
      </trkpt>
      <trkpt lat="43.31446" lon="-1.34245">
        <ele>118.147514</ele>
        <time>2026-05-22T06:07:09.000Z</time>
      </trkpt>
      <trkpt lat="43.31442" lon="-1.34249">
        <ele>118.246904</ele>
        <time>2026-05-22T06:07:26.000Z</time>
      </trkpt>
      <trkpt lat="43.3144" lon="-1.34249">
        <ele>118.289795</ele>
        <time>2026-05-22T06:07:27.000Z</time>
      </trkpt>
      <trkpt lat="43.3144" lon="-1.34247">
        <ele>118.324339</ele>
        <time>2026-05-22T06:07:28.000Z</time>
      </trkpt>
      <trkpt lat="43.31439" lon="-1.34245">
        <ele>118.356469</ele>
        <time>2026-05-22T06:07:29.000Z</time>
      </trkpt>
      <trkpt lat="43.31437" lon="-1.34244">
        <ele>118.390862</ele>
        <time>2026-05-22T06:07:30.000Z</time>
      </trkpt>
      <trkpt lat="43.31436" lon="-1.34242">
        <ele>118.42812</ele>
        <time>2026-05-22T06:07:31.000Z</time>
      </trkpt>
      <trkpt lat="43.31435" lon="-1.34241">
        <ele>118.474036</ele>
        <time>2026-05-22T06:07:32.000Z</time>
      </trkpt>
      <trkpt lat="43.31433" lon="-1.34239">
        <ele>118.521417</ele>
        <time>2026-05-22T06:07:33.000Z</time>
      </trkpt>
      <trkpt lat="43.31431" lon="-1.34237">
        <ele>118.577338</ele>
        <time>2026-05-22T06:07:34.000Z</time>
      </trkpt>
      <trkpt lat="43.31429" lon="-1.34235">
        <ele>118.631207</ele>
        <time>2026-05-22T06:07:35.000Z</time>
      </trkpt>
      <trkpt lat="43.31428" lon="-1.34233">
        <ele>118.673662</ele>
        <time>2026-05-22T06:07:36.000Z</time>
      </trkpt>
      <trkpt lat="43.31427" lon="-1.3423">
        <ele>118.720116</ele>
        <time>2026-05-22T06:07:37.000Z</time>
      </trkpt>
      <trkpt lat="43.31426" lon="-1.34228">
        <ele>118.77314</ele>
        <time>2026-05-22T06:07:38.000Z</time>
      </trkpt>
      <trkpt lat="43.31425" lon="-1.34226">
        <ele>118.811961</ele>
        <time>2026-05-22T06:07:39.000Z</time>
      </trkpt>
      <trkpt lat="43.31424" lon="-1.34224">
        <ele>118.853021</ele>
        <time>2026-05-22T06:07:40.000Z</time>
      </trkpt>
      <trkpt lat="43.31422" lon="-1.34221">
        <ele>118.894007</ele>
        <time>2026-05-22T06:07:41.000Z</time>
      </trkpt>
      <trkpt lat="43.31421" lon="-1.34219">
        <ele>118.93258</ele>
        <time>2026-05-22T06:07:42.000Z</time>
      </trkpt>
      <trkpt lat="43.3142" lon="-1.34217">
        <ele>118.971153</ele>
        <time>2026-05-22T06:07:43.000Z</time>
      </trkpt>
      <trkpt lat="43.31419" lon="-1.34214">
        <ele>119.01775</ele>
        <time>2026-05-22T06:07:44.000Z</time>
      </trkpt>
      <trkpt lat="43.31418" lon="-1.34211">
        <ele>119.068254</ele>
        <time>2026-05-22T06:07:45.000Z</time>
      </trkpt>
      <trkpt lat="43.31416" lon="-1.34208">
        <ele>119.120454</ele>
        <time>2026-05-22T06:07:46.000Z</time>
      </trkpt>
      <trkpt lat="43.31415" lon="-1.34204">
        <ele>119.176486</ele>
        <time>2026-05-22T06:07:47.000Z</time>
      </trkpt>
      <trkpt lat="43.31414" lon="-1.34201">
        <ele>119.231292</ele>
        <time>2026-05-22T06:07:48.000Z</time>
      </trkpt>
      <trkpt lat="43.31412" lon="-1.34197">
        <ele>119.286099</ele>
        <time>2026-05-22T06:07:49.000Z</time>
      </trkpt>
      <trkpt lat="43.31411" lon="-1.34194">
        <ele>119.336248</ele>
        <time>2026-05-22T06:07:50.000Z</time>
      </trkpt>
      <trkpt lat="43.3141" lon="-1.34191">
        <ele>119.386378</ele>
        <time>2026-05-22T06:07:51.000Z</time>
      </trkpt>
      <trkpt lat="43.3141" lon="-1.34187">
        <ele>119.437135</ele>
        <time>2026-05-22T06:07:52.000Z</time>
      </trkpt>
      <trkpt lat="43.31409" lon="-1.34184">
        <ele>119.487891</ele>
        <time>2026-05-22T06:07:53.000Z</time>
      </trkpt>
      <trkpt lat="43.31408" lon="-1.3418">
        <ele>119.549195</ele>
        <time>2026-05-22T06:07:54.000Z</time>
      </trkpt>
      <trkpt lat="43.31407" lon="-1.34176">
        <ele>119.609859</ele>
        <time>2026-05-22T06:07:55.000Z</time>
      </trkpt>
      <trkpt lat="43.31405" lon="-1.34172">
        <ele>119.671318</ele>
        <time>2026-05-22T06:07:56.000Z</time>
      </trkpt>
      <trkpt lat="43.31404" lon="-1.34168">
        <ele>119.731968</ele>
        <time>2026-05-22T06:07:57.000Z</time>
      </trkpt>
      <trkpt lat="43.31402" lon="-1.34164">
        <ele>119.793854</ele>
        <time>2026-05-22T06:07:58.000Z</time>
      </trkpt>
      <trkpt lat="43.31401" lon="-1.3416">
        <ele>119.860362</ele>
        <time>2026-05-22T06:07:59.000Z</time>
      </trkpt>
      <trkpt lat="43.31399" lon="-1.34156">
        <ele>119.928556</ele>
        <time>2026-05-22T06:08:00.000Z</time>
      </trkpt>
      <trkpt lat="43.31397" lon="-1.34151">
        <ele>119.99882</ele>
        <time>2026-05-22T06:08:01.000Z</time>
      </trkpt>
      <trkpt lat="43.31396" lon="-1.34146">
        <ele>120.072107</ele>
        <time>2026-05-22T06:08:02.000Z</time>
      </trkpt>
      <trkpt lat="43.31394" lon="-1.34142">
        <ele>120.140031</ele>
        <time>2026-05-22T06:08:03.000Z</time>
      </trkpt>
      <trkpt lat="43.31393" lon="-1.34137">
        <ele>120.20869</ele>
        <time>2026-05-22T06:08:04.000Z</time>
      </trkpt>
      <trkpt lat="43.31392" lon="-1.34133">
        <ele>120.277387</ele>
        <time>2026-05-22T06:08:05.000Z</time>
      </trkpt>
      <trkpt lat="43.31391" lon="-1.34128">
        <ele>120.343395</ele>
        <time>2026-05-22T06:08:06.000Z</time>
      </trkpt>
      <trkpt lat="43.3139" lon="-1.34123">
        <ele>120.413273</ele>
        <time>2026-05-22T06:08:07.000Z</time>
      </trkpt>
      <trkpt lat="43.31388" lon="-1.34119">
        <ele>120.481197</ele>
        <time>2026-05-22T06:08:08.000Z</time>
      </trkpt>
      <trkpt lat="43.31387" lon="-1.34114">
        <ele>120.551914</ele>
        <time>2026-05-22T06:08:09.000Z</time>
      </trkpt>
      <trkpt lat="43.31385" lon="-1.3411">
        <ele>120.622178</ele>
        <time>2026-05-22T06:08:10.000Z</time>
      </trkpt>
      <trkpt lat="43.31384" lon="-1.34105">
        <ele>120.691408</ele>
        <time>2026-05-22T06:08:11.000Z</time>
      </trkpt>
      <trkpt lat="43.31383" lon="-1.34101">
        <ele>120.761285</ele>
        <time>2026-05-22T06:08:12.000Z</time>
      </trkpt>
      <trkpt lat="43.31382" lon="-1.34096">
        <ele>120.831825</ele>
        <time>2026-05-22T06:08:13.000Z</time>
      </trkpt>
      <trkpt lat="43.3138" lon="-1.34091">
        <ele>120.900484</ele>
        <time>2026-05-22T06:08:14.000Z</time>
      </trkpt>
      <trkpt lat="43.31379" lon="-1.34089">
        <ele>120.949335</ele>
        <time>2026-05-22T06:08:15.000Z</time>
      </trkpt>
      <trkpt lat="43.31377" lon="-1.34085">
        <ele>121.002925</ele>
        <time>2026-05-22T06:08:16.000Z</time>
      </trkpt>
      <trkpt lat="43.31376" lon="-1.34081">
        <ele>121.066055</ele>
        <time>2026-05-22T06:08:17.000Z</time>
      </trkpt>
      <trkpt lat="43.31374" lon="-1.34077">
        <ele>121.13348</ele>
        <time>2026-05-22T06:08:18.000Z</time>
      </trkpt>
      <trkpt lat="43.31372" lon="-1.34073">
        <ele>121.20337</ele>
        <time>2026-05-22T06:08:19.000Z</time>
      </trkpt>
      <trkpt lat="43.31371" lon="-1.34069">
        <ele>121.270795</ele>
        <time>2026-05-22T06:08:20.000Z</time>
      </trkpt>
      <trkpt lat="43.31369" lon="-1.34064">
        <ele>121.342836</ele>
        <time>2026-05-22T06:08:21.000Z</time>
      </trkpt>
      <trkpt lat="43.31367" lon="-1.3406">
        <ele>121.412217</ele>
        <time>2026-05-22T06:08:22.000Z</time>
      </trkpt>
      <trkpt lat="43.31365" lon="-1.34056">
        <ele>121.479395</ele>
        <time>2026-05-22T06:08:23.000Z</time>
      </trkpt>
      <trkpt lat="43.31363" lon="-1.34051">
        <ele>121.55021</ele>
        <time>2026-05-22T06:08:24.000Z</time>
      </trkpt>
      <trkpt lat="43.31361" lon="-1.34047">
        <ele>121.621025</ele>
        <time>2026-05-22T06:08:25.000Z</time>
      </trkpt>
      <trkpt lat="43.3136" lon="-1.34043">
        <ele>121.684804</ele>
        <time>2026-05-22T06:08:26.000Z</time>
      </trkpt>
      <trkpt lat="43.31358" lon="-1.34039">
        <ele>121.750636</ele>
        <time>2026-05-22T06:08:27.000Z</time>
      </trkpt>
      <trkpt lat="43.31356" lon="-1.34036">
        <ele>121.814168</ele>
        <time>2026-05-22T06:08:28.000Z</time>
      </trkpt>
      <trkpt lat="43.31354" lon="-1.34032">
        <ele>121.87543</ele>
        <time>2026-05-22T06:08:29.000Z</time>
      </trkpt>
      <trkpt lat="43.31352" lon="-1.34028">
        <ele>121.939042</ele>
        <time>2026-05-22T06:08:30.000Z</time>
      </trkpt>
      <trkpt lat="43.3135" lon="-1.34024">
        <ele>122.005978</ele>
        <time>2026-05-22T06:08:31.000Z</time>
      </trkpt>
      <trkpt lat="43.31348" lon="-1.34021">
        <ele>122.071823</ele>
        <time>2026-05-22T06:08:32.000Z</time>
      </trkpt>
      <trkpt lat="43.31346" lon="-1.34017">
        <ele>122.139911</ele>
        <time>2026-05-22T06:08:33.000Z</time>
      </trkpt>
      <trkpt lat="43.31344" lon="-1.34013">
        <ele>122.205706</ele>
        <time>2026-05-22T06:08:34.000Z</time>
      </trkpt>
      <trkpt lat="43.31342" lon="-1.34009">
        <ele>122.271551</ele>
        <time>2026-05-22T06:08:35.000Z</time>
      </trkpt>
      <trkpt lat="43.3134" lon="-1.34005">
        <ele>122.331431</ele>
        <time>2026-05-22T06:08:36.000Z</time>
      </trkpt>
      <trkpt lat="43.31338" lon="-1.34002">
        <ele>122.364951</ele>
        <time>2026-05-22T06:08:37.000Z</time>
      </trkpt>
      <trkpt lat="43.31336" lon="-1.33999">
        <ele>122.400401</ele>
        <time>2026-05-22T06:08:38.000Z</time>
      </trkpt>
      <trkpt lat="43.31334" lon="-1.33995">
        <ele>122.436801</ele>
        <time>2026-05-22T06:08:39.000Z</time>
      </trkpt>
      <trkpt lat="43.31332" lon="-1.33992">
        <ele>122.47425</ele>
        <time>2026-05-22T06:08:40.000Z</time>
      </trkpt>
      <trkpt lat="43.3133" lon="-1.33988">
        <ele>122.511636</ele>
        <time>2026-05-22T06:08:41.000Z</time>
      </trkpt>
      <trkpt lat="43.31328" lon="-1.33984">
        <ele>122.547754</ele>
        <time>2026-05-22T06:08:42.000Z</time>
      </trkpt>
      <trkpt lat="43.31326" lon="-1.3398">
        <ele>122.587074</ele>
        <time>2026-05-22T06:08:43.000Z</time>
      </trkpt>
      <trkpt lat="43.31324" lon="-1.33976">
        <ele>122.627667</ele>
        <time>2026-05-22T06:08:44.000Z</time>
      </trkpt>
      <trkpt lat="43.31322" lon="-1.33971">
        <ele>122.671601</ele>
        <time>2026-05-22T06:08:45.000Z</time>
      </trkpt>
      <trkpt lat="43.3132" lon="-1.33967">
        <ele>122.712357</ele>
        <time>2026-05-22T06:08:46.000Z</time>
      </trkpt>
      <trkpt lat="43.31318" lon="-1.33962">
        <ele>122.754883</ele>
        <time>2026-05-22T06:08:47.000Z</time>
      </trkpt>
      <trkpt lat="43.31315" lon="-1.33958">
        <ele>122.798052</ele>
        <time>2026-05-22T06:08:48.000Z</time>
      </trkpt>
      <trkpt lat="43.31313" lon="-1.33953">
        <ele>122.842495</ele>
        <time>2026-05-22T06:08:49.000Z</time>
      </trkpt>
      <trkpt lat="43.31311" lon="-1.33949">
        <ele>122.888359</ele>
        <time>2026-05-22T06:08:50.000Z</time>
      </trkpt>
      <trkpt lat="43.31309" lon="-1.33944">
        <ele>122.934346</ele>
        <time>2026-05-22T06:08:51.000Z</time>
      </trkpt>
      <trkpt lat="43.31306" lon="-1.33939">
        <ele>122.980739</ele>
        <time>2026-05-22T06:08:52.000Z</time>
      </trkpt>
      <trkpt lat="43.31304" lon="-1.33934">
        <ele>123.029047</ele>
        <time>2026-05-22T06:08:53.000Z</time>
      </trkpt>
      <trkpt lat="43.31301" lon="-1.33929">
        <ele>123.075439</ele>
        <time>2026-05-22T06:08:54.000Z</time>
      </trkpt>
      <trkpt lat="43.31299" lon="-1.33924">
        <ele>123.121887</ele>
        <time>2026-05-22T06:08:55.000Z</time>
      </trkpt>
      <trkpt lat="43.31297" lon="-1.3392">
        <ele>123.165736</ele>
        <time>2026-05-22T06:08:56.000Z</time>
      </trkpt>
      <trkpt lat="43.31295" lon="-1.33915">
        <ele>123.20967</ele>
        <time>2026-05-22T06:08:57.000Z</time>
      </trkpt>
      <trkpt lat="43.31293" lon="-1.3391">
        <ele>123.254284</ele>
        <time>2026-05-22T06:08:58.000Z</time>
      </trkpt>
      <trkpt lat="43.31291" lon="-1.33905">
        <ele>123.296592</ele>
        <time>2026-05-22T06:08:59.000Z</time>
      </trkpt>
      <trkpt lat="43.31289" lon="-1.339">
        <ele>123.341277</ele>
        <time>2026-05-22T06:09:00.000Z</time>
      </trkpt>
      <trkpt lat="43.31287" lon="-1.33895">
        <ele>123.384519</ele>
        <time>2026-05-22T06:09:01.000Z</time>
      </trkpt>
      <trkpt lat="43.31286" lon="-1.33891">
        <ele>123.427043</ele>
        <time>2026-05-22T06:09:02.000Z</time>
      </trkpt>
      <trkpt lat="43.31284" lon="-1.33886">
        <ele>123.471479</ele>
        <time>2026-05-22T06:09:03.000Z</time>
      </trkpt>
      <trkpt lat="43.31282" lon="-1.33881">
        <ele>123.516412</ele>
        <time>2026-05-22T06:09:04.000Z</time>
      </trkpt>
      <trkpt lat="43.31281" lon="-1.33876">
        <ele>123.558757</ele>
        <time>2026-05-22T06:09:05.000Z</time>
      </trkpt>
      <trkpt lat="43.31279" lon="-1.3387">
        <ele>123.602212</ele>
        <time>2026-05-22T06:09:06.000Z</time>
      </trkpt>
      <trkpt lat="43.31278" lon="-1.33865">
        <ele>123.646427</ele>
        <time>2026-05-22T06:09:07.000Z</time>
      </trkpt>
      <trkpt lat="43.31277" lon="-1.3386">
        <ele>123.690642</ele>
        <time>2026-05-22T06:09:08.000Z</time>
      </trkpt>
      <trkpt lat="43.31276" lon="-1.33855">
        <ele>123.735555</ele>
        <time>2026-05-22T06:09:09.000Z</time>
      </trkpt>
      <trkpt lat="43.31273" lon="-1.3385">
        <ele>123.782004</ele>
        <time>2026-05-22T06:09:10.000Z</time>
      </trkpt>
      <trkpt lat="43.31271" lon="-1.33845">
        <ele>123.825019</ele>
        <time>2026-05-22T06:09:11.000Z</time>
      </trkpt>
      <trkpt lat="43.31271" lon="-1.3384">
        <ele>123.861426</ele>
        <time>2026-05-22T06:09:12.000Z</time>
      </trkpt>
      <trkpt lat="43.3127" lon="-1.33835">
        <ele>123.904663</ele>
        <time>2026-05-22T06:09:13.000Z</time>
      </trkpt>
      <trkpt lat="43.3127" lon="-1.33829">
        <ele>123.950396</ele>
        <time>2026-05-22T06:09:14.000Z</time>
      </trkpt>
      <trkpt lat="43.3127" lon="-1.33823">
        <ele>123.999036</ele>
        <time>2026-05-22T06:09:15.000Z</time>
      </trkpt>
      <trkpt lat="43.3127" lon="-1.33817">
        <ele>124.045444</ele>
        <time>2026-05-22T06:09:16.000Z</time>
      </trkpt>
      <trkpt lat="43.3127" lon="-1.33812">
        <ele>124.092493</ele>
        <time>2026-05-22T06:09:17.000Z</time>
      </trkpt>
      <trkpt lat="43.31271" lon="-1.33806">
        <ele>124.137315</ele>
        <time>2026-05-22T06:09:18.000Z</time>
      </trkpt>
      <trkpt lat="43.31272" lon="-1.338">
        <ele>124.185719</ele>
        <time>2026-05-22T06:09:19.000Z</time>
      </trkpt>
      <trkpt lat="43.31273" lon="-1.33793">
        <ele>124.239137</ele>
        <time>2026-05-22T06:09:20.000Z</time>
      </trkpt>
      <trkpt lat="43.31274" lon="-1.33787">
        <ele>124.28851</ele>
        <time>2026-05-22T06:09:21.000Z</time>
      </trkpt>
      <trkpt lat="43.31274" lon="-1.33781">
        <ele>124.284734</ele>
        <time>2026-05-22T06:09:22.000Z</time>
      </trkpt>
      <trkpt lat="43.31274" lon="-1.33775">
        <ele>124.266903</ele>
        <time>2026-05-22T06:09:23.000Z</time>
      </trkpt>
      <trkpt lat="43.31274" lon="-1.33769">
        <ele>124.248608</ele>
        <time>2026-05-22T06:09:24.000Z</time>
      </trkpt>
      <trkpt lat="43.31274" lon="-1.33762">
        <ele>124.230595</ele>
        <time>2026-05-22T06:09:25.000Z</time>
      </trkpt>
      <trkpt lat="43.31274" lon="-1.33756">
        <ele>124.212547</ele>
        <time>2026-05-22T06:09:26.000Z</time>
      </trkpt>
      <trkpt lat="43.31274" lon="-1.3375">
        <ele>124.195609</ele>
        <time>2026-05-22T06:09:27.000Z</time>
      </trkpt>
      <trkpt lat="43.31273" lon="-1.33744">
        <ele>124.178955</ele>
        <time>2026-05-22T06:09:28.000Z</time>
      </trkpt>
      <trkpt lat="43.31273" lon="-1.33739">
        <ele>124.162642</ele>
        <time>2026-05-22T06:09:29.000Z</time>
      </trkpt>
      <trkpt lat="43.31272" lon="-1.33733">
        <ele>124.145969</ele>
        <time>2026-05-22T06:09:30.000Z</time>
      </trkpt>
      <trkpt lat="43.3127" lon="-1.33727">
        <ele>124.129281</ele>
        <time>2026-05-22T06:09:31.000Z</time>
      </trkpt>
      <trkpt lat="43.31269" lon="-1.33722">
        <ele>124.113699</ele>
        <time>2026-05-22T06:09:32.000Z</time>
      </trkpt>
      <trkpt lat="43.31268" lon="-1.33717">
        <ele>124.09744</ele>
        <time>2026-05-22T06:09:33.000Z</time>
      </trkpt>
      <trkpt lat="43.31267" lon="-1.33711">
        <ele>124.081027</ele>
        <time>2026-05-22T06:09:34.000Z</time>
      </trkpt>
      <trkpt lat="43.31265" lon="-1.33706">
        <ele>124.064496</ele>
        <time>2026-05-22T06:09:35.000Z</time>
      </trkpt>
      <trkpt lat="43.31264" lon="-1.33701">
        <ele>124.048356</ele>
        <time>2026-05-22T06:09:36.000Z</time>
      </trkpt>
      <trkpt lat="43.31263" lon="-1.33695">
        <ele>124.031668</ele>
        <time>2026-05-22T06:09:37.000Z</time>
      </trkpt>
      <trkpt lat="43.31262" lon="-1.33689">
        <ele>124.013236</ele>
        <time>2026-05-22T06:09:38.000Z</time>
      </trkpt>
      <trkpt lat="43.31261" lon="-1.33682">
        <ele>123.994343</ele>
        <time>2026-05-22T06:09:39.000Z</time>
      </trkpt>
      <trkpt lat="43.31259" lon="-1.33676">
        <ele>123.975451</ele>
        <time>2026-05-22T06:09:40.000Z</time>
      </trkpt>
      <trkpt lat="43.31258" lon="-1.3367">
        <ele>123.957298</ele>
        <time>2026-05-22T06:09:41.000Z</time>
      </trkpt>
      <trkpt lat="43.31258" lon="-1.33663">
        <ele>123.938103</ele>
        <time>2026-05-22T06:09:42.000Z</time>
      </trkpt>
      <trkpt lat="43.31257" lon="-1.33657">
        <ele>123.91932</ele>
        <time>2026-05-22T06:09:43.000Z</time>
      </trkpt>
      <trkpt lat="43.31256" lon="-1.3365">
        <ele>123.900023</ele>
        <time>2026-05-22T06:09:44.000Z</time>
      </trkpt>
      <trkpt lat="43.31256" lon="-1.33643">
        <ele>123.880674</ele>
        <time>2026-05-22T06:09:45.000Z</time>
      </trkpt>
      <trkpt lat="43.31255" lon="-1.33636">
        <ele>123.860193</ele>
        <time>2026-05-22T06:09:46.000Z</time>
      </trkpt>
      <trkpt lat="43.31254" lon="-1.33629">
        <ele>123.839028</ele>
        <time>2026-05-22T06:09:47.000Z</time>
      </trkpt>
      <trkpt lat="43.31253" lon="-1.33621">
        <ele>123.816279</ele>
        <time>2026-05-22T06:09:48.000Z</time>
      </trkpt>
      <trkpt lat="43.31253" lon="-1.33613">
        <ele>123.793289</ele>
        <time>2026-05-22T06:09:49.000Z</time>
      </trkpt>
      <trkpt lat="43.31252" lon="-1.33605">
        <ele>123.770621</ele>
        <time>2026-05-22T06:09:50.000Z</time>
      </trkpt>
      <trkpt lat="43.31252" lon="-1.33597">
        <ele>123.7482</ele>
        <time>2026-05-22T06:09:51.000Z</time>
      </trkpt>
      <trkpt lat="43.31251" lon="-1.33589">
        <ele>123.725211</ele>
        <time>2026-05-22T06:09:52.000Z</time>
      </trkpt>
      <trkpt lat="43.31251" lon="-1.33581">
        <ele>123.702573</ele>
        <time>2026-05-22T06:09:53.000Z</time>
      </trkpt>
      <trkpt lat="43.31251" lon="-1.33573">
        <ele>123.679991</ele>
        <time>2026-05-22T06:09:54.000Z</time>
      </trkpt>
      <trkpt lat="43.31251" lon="-1.33565">
        <ele>123.657038</ele>
        <time>2026-05-22T06:09:55.000Z</time>
      </trkpt>
      <trkpt lat="43.31252" lon="-1.33557">
        <ele>123.634238</ele>
        <time>2026-05-22T06:09:56.000Z</time>
      </trkpt>
      <trkpt lat="43.31253" lon="-1.3355">
        <ele>123.610797</ele>
        <time>2026-05-22T06:09:57.000Z</time>
      </trkpt>
      <trkpt lat="43.31255" lon="-1.33542">
        <ele>123.604046</ele>
        <time>2026-05-22T06:09:58.000Z</time>
      </trkpt>
      <trkpt lat="43.31258" lon="-1.33535">
        <ele>123.661902</ele>
        <time>2026-05-22T06:09:59.000Z</time>
      </trkpt>
      <trkpt lat="43.31261" lon="-1.33528">
        <ele>123.716388</ele>
        <time>2026-05-22T06:10:00.000Z</time>
      </trkpt>
      <trkpt lat="43.31265" lon="-1.33522">
        <ele>123.772612</ele>
        <time>2026-05-22T06:10:01.000Z</time>
      </trkpt>
      <trkpt lat="43.31268" lon="-1.33515">
        <ele>123.828972</ele>
        <time>2026-05-22T06:10:02.000Z</time>
      </trkpt>
      <trkpt lat="43.3127" lon="-1.33509">
        <ele>123.884208</ele>
        <time>2026-05-22T06:10:03.000Z</time>
      </trkpt>
      <trkpt lat="43.31274" lon="-1.33502">
        <ele>123.940404</ele>
        <time>2026-05-22T06:10:04.000Z</time>
      </trkpt>
      <trkpt lat="43.31277" lon="-1.33496">
        <ele>123.997775</ele>
        <time>2026-05-22T06:10:05.000Z</time>
      </trkpt>
      <trkpt lat="43.3128" lon="-1.33489">
        <ele>124.056884</ele>
        <time>2026-05-22T06:10:06.000Z</time>
      </trkpt>
      <trkpt lat="43.31284" lon="-1.33482">
        <ele>124.115993</ele>
        <time>2026-05-22T06:10:07.000Z</time>
      </trkpt>
      <trkpt lat="43.31287" lon="-1.33475">
        <ele>124.175748</ele>
        <time>2026-05-22T06:10:08.000Z</time>
      </trkpt>
      <trkpt lat="43.31291" lon="-1.33468">
        <ele>124.236641</ele>
        <time>2026-05-22T06:10:09.000Z</time>
      </trkpt>
      <trkpt lat="43.31294" lon="-1.33461">
        <ele>124.29808</ele>
        <time>2026-05-22T06:10:10.000Z</time>
      </trkpt>
      <trkpt lat="43.31297" lon="-1.33454">
        <ele>124.356699</ele>
        <time>2026-05-22T06:10:11.000Z</time>
      </trkpt>
      <trkpt lat="43.313" lon="-1.33447">
        <ele>124.415319</ele>
        <time>2026-05-22T06:10:12.000Z</time>
      </trkpt>
      <trkpt lat="43.31304" lon="-1.3344">
        <ele>124.47502</ele>
        <time>2026-05-22T06:10:13.000Z</time>
      </trkpt>
      <trkpt lat="43.31307" lon="-1.33433">
        <ele>124.534852</ele>
        <time>2026-05-22T06:10:14.000Z</time>
      </trkpt>
      <trkpt lat="43.3131" lon="-1.33426">
        <ele>124.59256</ele>
        <time>2026-05-22T06:10:15.000Z</time>
      </trkpt>
      <trkpt lat="43.31313" lon="-1.33419">
        <ele>124.649504</ele>
        <time>2026-05-22T06:10:16.000Z</time>
      </trkpt>
      <trkpt lat="43.31315" lon="-1.33411">
        <ele>124.706772</ele>
        <time>2026-05-22T06:10:17.000Z</time>
      </trkpt>
      <trkpt lat="43.31317" lon="-1.33404">
        <ele>124.76335</ele>
        <time>2026-05-22T06:10:18.000Z</time>
      </trkpt>
      <trkpt lat="43.31318" lon="-1.33397">
        <ele>124.816599</ele>
        <time>2026-05-22T06:10:19.000Z</time>
      </trkpt>
      <trkpt lat="43.3132" lon="-1.3339">
        <ele>124.868607</ele>
        <time>2026-05-22T06:10:20.000Z</time>
      </trkpt>
      <trkpt lat="43.3132" lon="-1.33383">
        <ele>124.917418</ele>
        <time>2026-05-22T06:10:21.000Z</time>
      </trkpt>
      <trkpt lat="43.31321" lon="-1.33377">
        <ele>124.964956</ele>
        <time>2026-05-22T06:10:22.000Z</time>
      </trkpt>
      <trkpt lat="43.31321" lon="-1.3337">
        <ele>125.010901</ele>
        <time>2026-05-22T06:10:23.000Z</time>
      </trkpt>
      <trkpt lat="43.31321" lon="-1.33364">
        <ele>125.056762</ele>
        <time>2026-05-22T06:10:24.000Z</time>
      </trkpt>
      <trkpt lat="43.31322" lon="-1.33358">
        <ele>125.101277</ele>
        <time>2026-05-22T06:10:25.000Z</time>
      </trkpt>
      <trkpt lat="43.31322" lon="-1.33351">
        <ele>125.145738</ele>
        <time>2026-05-22T06:10:26.000Z</time>
      </trkpt>
      <trkpt lat="43.31322" lon="-1.33345">
        <ele>125.190166</ele>
        <time>2026-05-22T06:10:27.000Z</time>
      </trkpt>
      <trkpt lat="43.31322" lon="-1.33339">
        <ele>125.23315</ele>
        <time>2026-05-22T06:10:28.000Z</time>
      </trkpt>
      <trkpt lat="43.31322" lon="-1.33333">
        <ele>125.274033</ele>
        <time>2026-05-22T06:10:29.000Z</time>
      </trkpt>
      <trkpt lat="43.31322" lon="-1.33328">
        <ele>125.31488</ele>
        <time>2026-05-22T06:10:30.000Z</time>
      </trkpt>
      <trkpt lat="43.31322" lon="-1.33322">
        <ele>125.355763</ele>
        <time>2026-05-22T06:10:31.000Z</time>
      </trkpt>
      <trkpt lat="43.31322" lon="-1.33316">
        <ele>125.476714</ele>
        <time>2026-05-22T06:10:32.000Z</time>
      </trkpt>
      <trkpt lat="43.31322" lon="-1.33311">
        <ele>125.610219</ele>
        <time>2026-05-22T06:10:33.000Z</time>
      </trkpt>
      <trkpt lat="43.31322" lon="-1.33306">
        <ele>125.738658</ele>
        <time>2026-05-22T06:10:34.000Z</time>
      </trkpt>
      <trkpt lat="43.31323" lon="-1.33301">
        <ele>125.864766</ele>
        <time>2026-05-22T06:10:35.000Z</time>
      </trkpt>
      <trkpt lat="43.31323" lon="-1.33296">
        <ele>125.984059</ele>
        <time>2026-05-22T06:10:36.000Z</time>
      </trkpt>
      <trkpt lat="43.31323" lon="-1.33291">
        <ele>126.100899</ele>
        <time>2026-05-22T06:10:37.000Z</time>
      </trkpt>
      <trkpt lat="43.31324" lon="-1.33287">
        <ele>126.210016</ele>
        <time>2026-05-22T06:10:38.000Z</time>
      </trkpt>
      <trkpt lat="43.31324" lon="-1.33282">
        <ele>126.327299</ele>
        <time>2026-05-22T06:10:39.000Z</time>
      </trkpt>
      <trkpt lat="43.31325" lon="-1.33277">
        <ele>126.457298</ele>
        <time>2026-05-22T06:10:40.000Z</time>
      </trkpt>
      <trkpt lat="43.31327" lon="-1.33273">
        <ele>126.577957</ele>
        <time>2026-05-22T06:10:41.000Z</time>
      </trkpt>
      <trkpt lat="43.31328" lon="-1.33268">
        <ele>126.705642</ele>
        <time>2026-05-22T06:10:42.000Z</time>
      </trkpt>
      <trkpt lat="43.31329" lon="-1.33263">
        <ele>126.829899</ele>
        <time>2026-05-22T06:10:43.000Z</time>
      </trkpt>
      <trkpt lat="43.3133" lon="-1.33259">
        <ele>126.948474</ele>
        <time>2026-05-22T06:10:44.000Z</time>
      </trkpt>
      <trkpt lat="43.31333" lon="-1.33254">
        <ele>127.074259</ele>
        <time>2026-05-22T06:10:45.000Z</time>
      </trkpt>
      <trkpt lat="43.31335" lon="-1.3325">
        <ele>127.198065</ele>
        <time>2026-05-22T06:10:46.000Z</time>
      </trkpt>
      <trkpt lat="43.31337" lon="-1.33246">
        <ele>127.317901</ele>
        <time>2026-05-22T06:10:47.000Z</time>
      </trkpt>
      <trkpt lat="43.31339" lon="-1.33242">
        <ele>127.439691</ele>
        <time>2026-05-22T06:10:48.000Z</time>
      </trkpt>
      <trkpt lat="43.31341" lon="-1.33239">
        <ele>127.563934</ele>
        <time>2026-05-22T06:10:49.000Z</time>
      </trkpt>
      <trkpt lat="43.31344" lon="-1.33235">
        <ele>127.686323</ele>
        <time>2026-05-22T06:10:50.000Z</time>
      </trkpt>
      <trkpt lat="43.31346" lon="-1.33231">
        <ele>127.800524</ele>
        <time>2026-05-22T06:10:51.000Z</time>
      </trkpt>
      <trkpt lat="43.31348" lon="-1.33228">
        <ele>127.906376</ele>
        <time>2026-05-22T06:10:52.000Z</time>
      </trkpt>
      <trkpt lat="43.3135" lon="-1.33225">
        <ele>128.014328</ele>
        <time>2026-05-22T06:10:53.000Z</time>
      </trkpt>
      <trkpt lat="43.31352" lon="-1.33222">
        <ele>128.114408</ele>
        <time>2026-05-22T06:10:54.000Z</time>
      </trkpt>
      <trkpt lat="43.31354" lon="-1.33218">
        <ele>128.218566</ele>
        <time>2026-05-22T06:10:55.000Z</time>
      </trkpt>
      <trkpt lat="43.31356" lon="-1.33215">
        <ele>128.325488</ele>
        <time>2026-05-22T06:10:56.000Z</time>
      </trkpt>
      <trkpt lat="43.31358" lon="-1.33212">
        <ele>128.435999</ele>
        <time>2026-05-22T06:10:57.000Z</time>
      </trkpt>
      <trkpt lat="43.31361" lon="-1.33209">
        <ele>128.552962</ele>
        <time>2026-05-22T06:10:58.000Z</time>
      </trkpt>
      <trkpt lat="43.31363" lon="-1.33205">
        <ele>128.669409</ele>
        <time>2026-05-22T06:10:59.000Z</time>
      </trkpt>
      <trkpt lat="43.31365" lon="-1.33202">
        <ele>128.781753</ele>
        <time>2026-05-22T06:11:00.000Z</time>
      </trkpt>
      <trkpt lat="43.31367" lon="-1.33198">
        <ele>128.887605</ele>
        <time>2026-05-22T06:11:01.000Z</time>
      </trkpt>
      <trkpt lat="43.31369" lon="-1.33195">
        <ele>128.991425</ele>
        <time>2026-05-22T06:11:02.000Z</time>
      </trkpt>
      <trkpt lat="43.31371" lon="-1.33191">
        <ele>129.109406</ele>
        <time>2026-05-22T06:11:03.000Z</time>
      </trkpt>
      <trkpt lat="43.31373" lon="-1.33187">
        <ele>129.231451</ele>
        <time>2026-05-22T06:11:04.000Z</time>
      </trkpt>
      <trkpt lat="43.31375" lon="-1.33184">
        <ele>129.349271</ele>
        <time>2026-05-22T06:11:05.000Z</time>
      </trkpt>
      <trkpt lat="43.31377" lon="-1.3318">
        <ele>129.460381</ele>
        <time>2026-05-22T06:11:06.000Z</time>
      </trkpt>
      <trkpt lat="43.31378" lon="-1.33176">
        <ele>129.567758</ele>
        <time>2026-05-22T06:11:07.000Z</time>
      </trkpt>
      <trkpt lat="43.31379" lon="-1.33172">
        <ele>129.672309</ele>
        <time>2026-05-22T06:11:08.000Z</time>
      </trkpt>
      <trkpt lat="43.31381" lon="-1.33168">
        <ele>129.777892</ele>
        <time>2026-05-22T06:11:09.000Z</time>
      </trkpt>
      <trkpt lat="43.31381" lon="-1.33163">
        <ele>129.888368</ele>
        <time>2026-05-22T06:11:10.000Z</time>
      </trkpt>
      <trkpt lat="43.31382" lon="-1.33159">
        <ele>130.005146</ele>
        <time>2026-05-22T06:11:11.000Z</time>
      </trkpt>
      <trkpt lat="43.31383" lon="-1.33154">
        <ele>130.121182</ele>
        <time>2026-05-22T06:11:12.000Z</time>
      </trkpt>
      <trkpt lat="43.31383" lon="-1.3315">
        <ele>130.233118</ele>
        <time>2026-05-22T06:11:13.000Z</time>
      </trkpt>
      <trkpt lat="43.31384" lon="-1.33145">
        <ele>130.351829</ele>
        <time>2026-05-22T06:11:14.000Z</time>
      </trkpt>
      <trkpt lat="43.31384" lon="-1.3314">
        <ele>130.473242</ele>
        <time>2026-05-22T06:11:15.000Z</time>
      </trkpt>
      <trkpt lat="43.31384" lon="-1.33135">
        <ele>130.600304</ele>
        <time>2026-05-22T06:11:16.000Z</time>
      </trkpt>
      <trkpt lat="43.31385" lon="-1.3313">
        <ele>130.734024</ele>
        <time>2026-05-22T06:11:17.000Z</time>
      </trkpt>
      <trkpt lat="43.31384" lon="-1.33124">
        <ele>130.865062</ele>
        <time>2026-05-22T06:11:18.000Z</time>
      </trkpt>
      <trkpt lat="43.31384" lon="-1.33119">
        <ele>130.993634</ele>
        <time>2026-05-22T06:11:19.000Z</time>
      </trkpt>
      <trkpt lat="43.31384" lon="-1.33114">
        <ele>131.12243</ele>
        <time>2026-05-22T06:11:20.000Z</time>
      </trkpt>
      <trkpt lat="43.31384" lon="-1.33108">
        <ele>131.255805</ele>
        <time>2026-05-22T06:11:21.000Z</time>
      </trkpt>
      <trkpt lat="43.31384" lon="-1.33103">
        <ele>131.384198</ele>
        <time>2026-05-22T06:11:22.000Z</time>
      </trkpt>
      <trkpt lat="43.31384" lon="-1.33098">
        <ele>131.48293</ele>
        <time>2026-05-22T06:11:23.000Z</time>
      </trkpt>
      <trkpt lat="43.31384" lon="-1.33092">
        <ele>131.526476</ele>
        <time>2026-05-22T06:11:24.000Z</time>
      </trkpt>
      <trkpt lat="43.31384" lon="-1.33087">
        <ele>131.569245</ele>
        <time>2026-05-22T06:11:25.000Z</time>
      </trkpt>
      <trkpt lat="43.31384" lon="-1.33082">
        <ele>131.612123</ele>
        <time>2026-05-22T06:11:26.000Z</time>
      </trkpt>
      <trkpt lat="43.31384" lon="-1.33076">
        <ele>131.656515</ele>
        <time>2026-05-22T06:11:27.000Z</time>
      </trkpt>
      <trkpt lat="43.31385" lon="-1.3307">
        <ele>131.700278</ele>
        <time>2026-05-22T06:11:28.000Z</time>
      </trkpt>
      <trkpt lat="43.31386" lon="-1.33065">
        <ele>131.744911</ele>
        <time>2026-05-22T06:11:29.000Z</time>
      </trkpt>
      <trkpt lat="43.31387" lon="-1.33059">
        <ele>131.790565</ele>
        <time>2026-05-22T06:11:30.000Z</time>
      </trkpt>
      <trkpt lat="43.31388" lon="-1.33054">
        <ele>131.836988</ele>
        <time>2026-05-22T06:11:31.000Z</time>
      </trkpt>
      <trkpt lat="43.31388" lon="-1.33048">
        <ele>131.881621</ele>
        <time>2026-05-22T06:11:32.000Z</time>
      </trkpt>
      <trkpt lat="43.3139" lon="-1.33043">
        <ele>131.928161</ele>
        <time>2026-05-22T06:11:33.000Z</time>
      </trkpt>
      <trkpt lat="43.31391" lon="-1.33037">
        <ele>131.973815</ele>
        <time>2026-05-22T06:11:34.000Z</time>
      </trkpt>
      <trkpt lat="43.31392" lon="-1.33031">
        <ele>132.020238</ele>
        <time>2026-05-22T06:11:35.000Z</time>
      </trkpt>
      <trkpt lat="43.31393" lon="-1.33026">
        <ele>132.066777</ele>
        <time>2026-05-22T06:11:36.000Z</time>
      </trkpt>
      <trkpt lat="43.31395" lon="-1.3302">
        <ele>132.114768</ele>
        <time>2026-05-22T06:11:37.000Z</time>
      </trkpt>
      <trkpt lat="43.31396" lon="-1.33014">
        <ele>132.160902</ele>
        <time>2026-05-22T06:11:38.000Z</time>
      </trkpt>
      <trkpt lat="43.31397" lon="-1.33009">
        <ele>132.205605</ele>
        <time>2026-05-22T06:11:39.000Z</time>
      </trkpt>
      <trkpt lat="43.31398" lon="-1.33004">
        <ele>132.251391</ele>
        <time>2026-05-22T06:11:40.000Z</time>
      </trkpt>
      <trkpt lat="43.314" lon="-1.32998">
        <ele>132.300898</ele>
        <time>2026-05-22T06:11:41.000Z</time>
      </trkpt>
      <trkpt lat="43.31402" lon="-1.32992">
        <ele>132.35075</ele>
        <time>2026-05-22T06:11:42.000Z</time>
      </trkpt>
      <trkpt lat="43.31403" lon="-1.32986">
        <ele>132.398741</ele>
        <time>2026-05-22T06:11:43.000Z</time>
      </trkpt>
      <trkpt lat="43.31404" lon="-1.32981">
        <ele>132.443445</ele>
        <time>2026-05-22T06:11:44.000Z</time>
      </trkpt>
      <trkpt lat="43.31406" lon="-1.32975">
        <ele>132.489231</ele>
        <time>2026-05-22T06:11:45.000Z</time>
      </trkpt>
      <trkpt lat="43.31407" lon="-1.32969">
        <ele>132.537281</ele>
        <time>2026-05-22T06:11:46.000Z</time>
      </trkpt>
      <trkpt lat="43.31408" lon="-1.32964">
        <ele>132.584912</ele>
        <time>2026-05-22T06:11:47.000Z</time>
      </trkpt>
      <trkpt lat="43.3141" lon="-1.32958">
        <ele>132.632963</ele>
        <time>2026-05-22T06:11:48.000Z</time>
      </trkpt>
      <trkpt lat="43.31411" lon="-1.32952">
        <ele>132.679503</ele>
        <time>2026-05-22T06:11:49.000Z</time>
      </trkpt>
      <trkpt lat="43.31412" lon="-1.32947">
        <ele>132.727244</ele>
        <time>2026-05-22T06:11:50.000Z</time>
      </trkpt>
      <trkpt lat="43.31413" lon="-1.32941">
        <ele>132.774437</ele>
        <time>2026-05-22T06:11:51.000Z</time>
      </trkpt>
      <trkpt lat="43.31414" lon="-1.32935">
        <ele>132.822659</ele>
        <time>2026-05-22T06:11:52.000Z</time>
      </trkpt>
      <trkpt lat="43.31415" lon="-1.32929">
        <ele>132.871394</ele>
        <time>2026-05-22T06:11:53.000Z</time>
      </trkpt>
      <trkpt lat="43.31416" lon="-1.32923">
        <ele>132.919897</ele>
        <time>2026-05-22T06:11:54.000Z</time>
      </trkpt>
      <trkpt lat="43.31417" lon="-1.32917">
        <ele>132.968791</ele>
        <time>2026-05-22T06:11:55.000Z</time>
      </trkpt>
      <trkpt lat="43.31417" lon="-1.32911">
        <ele>133.018071</ele>
        <time>2026-05-22T06:11:56.000Z</time>
      </trkpt>
      <trkpt lat="43.31418" lon="-1.32904">
        <ele>133.067998</ele>
        <time>2026-05-22T06:11:57.000Z</time>
      </trkpt>
      <trkpt lat="43.31418" lon="-1.32898">
        <ele>133.117086</ele>
        <time>2026-05-22T06:11:58.000Z</time>
      </trkpt>
      <trkpt lat="43.31417" lon="-1.32892">
        <ele>133.166186</ele>
        <time>2026-05-22T06:11:59.000Z</time>
      </trkpt>
      <trkpt lat="43.31417" lon="-1.32886">
        <ele>133.212912</ele>
        <time>2026-05-22T06:12:00.000Z</time>
      </trkpt>
      <trkpt lat="43.31417" lon="-1.3288">
        <ele>133.258949</ele>
        <time>2026-05-22T06:12:01.000Z</time>
      </trkpt>
      <trkpt lat="43.31417" lon="-1.32874">
        <ele>133.304131</ele>
        <time>2026-05-22T06:12:02.000Z</time>
      </trkpt>
      <trkpt lat="43.31416" lon="-1.32869">
        <ele>133.350258</ele>
        <time>2026-05-22T06:12:03.000Z</time>
      </trkpt>
      <trkpt lat="43.31416" lon="-1.32863">
        <ele>133.395596</ele>
        <time>2026-05-22T06:12:04.000Z</time>
      </trkpt>
      <trkpt lat="43.31416" lon="-1.32857">
        <ele>133.456595</ele>
        <time>2026-05-22T06:12:05.000Z</time>
      </trkpt>
      <trkpt lat="43.31415" lon="-1.32851">
        <ele>133.54225</ele>
        <time>2026-05-22T06:12:06.000Z</time>
      </trkpt>
      <trkpt lat="43.31415" lon="-1.32845">
        <ele>133.629344</ele>
        <time>2026-05-22T06:12:07.000Z</time>
      </trkpt>
      <trkpt lat="43.31415" lon="-1.32839">
        <ele>133.717722</ele>
        <time>2026-05-22T06:12:08.000Z</time>
      </trkpt>
      <trkpt lat="43.31414" lon="-1.32833">
        <ele>133.804545</ele>
        <time>2026-05-22T06:12:09.000Z</time>
      </trkpt>
      <trkpt lat="43.31414" lon="-1.32827">
        <ele>133.891299</ele>
        <time>2026-05-22T06:12:10.000Z</time>
      </trkpt>
      <trkpt lat="43.31414" lon="-1.32821">
        <ele>133.979565</ele>
        <time>2026-05-22T06:12:11.000Z</time>
      </trkpt>
      <trkpt lat="43.31414" lon="-1.32815">
        <ele>134.066296</ele>
        <time>2026-05-22T06:12:12.000Z</time>
      </trkpt>
      <trkpt lat="43.31414" lon="-1.32809">
        <ele>134.151951</ele>
        <time>2026-05-22T06:12:13.000Z</time>
      </trkpt>
      <trkpt lat="43.31415" lon="-1.32803">
        <ele>134.236635</ele>
        <time>2026-05-22T06:12:14.000Z</time>
      </trkpt>
      <trkpt lat="43.31416" lon="-1.32798">
        <ele>134.321318</ele>
        <time>2026-05-22T06:12:15.000Z</time>
      </trkpt>
      <trkpt lat="43.31416" lon="-1.32792">
        <ele>134.404571</ele>
        <time>2026-05-22T06:12:16.000Z</time>
      </trkpt>
      <trkpt lat="43.31417" lon="-1.32786">
        <ele>134.490983</ele>
        <time>2026-05-22T06:12:17.000Z</time>
      </trkpt>
      <trkpt lat="43.31418" lon="-1.3278">
        <ele>134.575666</ele>
        <time>2026-05-22T06:12:18.000Z</time>
      </trkpt>
      <trkpt lat="43.31418" lon="-1.32774">
        <ele>134.659226</ele>
        <time>2026-05-22T06:12:19.000Z</time>
      </trkpt>
      <trkpt lat="43.31419" lon="-1.32769">
        <ele>134.742127</ele>
        <time>2026-05-22T06:12:20.000Z</time>
      </trkpt>
      <trkpt lat="43.3142" lon="-1.32764">
        <ele>134.821273</ele>
        <time>2026-05-22T06:12:21.000Z</time>
      </trkpt>
      <trkpt lat="43.31421" lon="-1.32759">
        <ele>134.894837</ele>
        <time>2026-05-22T06:12:22.000Z</time>
      </trkpt>
      <trkpt lat="43.31422" lon="-1.32754">
        <ele>134.968873</ele>
        <time>2026-05-22T06:12:23.000Z</time>
      </trkpt>
      <trkpt lat="43.31424" lon="-1.32749">
        <ele>135.043625</ele>
        <time>2026-05-22T06:12:24.000Z</time>
      </trkpt>
      <trkpt lat="43.31425" lon="-1.32744">
        <ele>135.121904</ele>
        <time>2026-05-22T06:12:25.000Z</time>
      </trkpt>
      <trkpt lat="43.31426" lon="-1.32739">
        <ele>135.195468</ele>
        <time>2026-05-22T06:12:26.000Z</time>
      </trkpt>
      <trkpt lat="43.31427" lon="-1.32734">
        <ele>135.27182</ele>
        <time>2026-05-22T06:12:27.000Z</time>
      </trkpt>
      <trkpt lat="43.31428" lon="-1.32728">
        <ele>135.355171</ele>
        <time>2026-05-22T06:12:28.000Z</time>
      </trkpt>
      <trkpt lat="43.31429" lon="-1.32723">
        <ele>135.435407</ele>
        <time>2026-05-22T06:12:29.000Z</time>
      </trkpt>
      <trkpt lat="43.31431" lon="-1.32718">
        <ele>135.51285</ele>
        <time>2026-05-22T06:12:30.000Z</time>
      </trkpt>
      <trkpt lat="43.31432" lon="-1.32713">
        <ele>135.592367</ele>
        <time>2026-05-22T06:12:31.000Z</time>
      </trkpt>
      <trkpt lat="43.31433" lon="-1.32708">
        <ele>135.667323</ele>
        <time>2026-05-22T06:12:32.000Z</time>
      </trkpt>
      <trkpt lat="43.31434" lon="-1.32703">
        <ele>135.744215</ele>
        <time>2026-05-22T06:12:33.000Z</time>
      </trkpt>
      <trkpt lat="43.31435" lon="-1.32697">
        <ele>135.825705</ele>
        <time>2026-05-22T06:12:34.000Z</time>
      </trkpt>
      <trkpt lat="43.31436" lon="-1.32692">
        <ele>135.904376</ele>
        <time>2026-05-22T06:12:35.000Z</time>
      </trkpt>
      <trkpt lat="43.31437" lon="-1.32687">
        <ele>135.985435</ele>
        <time>2026-05-22T06:12:36.000Z</time>
      </trkpt>
      <trkpt lat="43.31438" lon="-1.32681">
        <ele>136.068436</ele>
        <time>2026-05-22T06:12:37.000Z</time>
      </trkpt>
      <trkpt lat="43.31439" lon="-1.32676">
        <ele>136.150888</ele>
        <time>2026-05-22T06:12:38.000Z</time>
      </trkpt>
      <trkpt lat="43.3144" lon="-1.3267">
        <ele>136.232377</ele>
        <time>2026-05-22T06:12:39.000Z</time>
      </trkpt>
      <trkpt lat="43.31441" lon="-1.32665">
        <ele>136.310125</ele>
        <time>2026-05-22T06:12:40.000Z</time>
      </trkpt>
      <trkpt lat="43.31442" lon="-1.3266">
        <ele>136.379102</ele>
        <time>2026-05-22T06:12:41.000Z</time>
      </trkpt>
      <trkpt lat="43.31443" lon="-1.32655">
        <ele>136.452155</ele>
        <time>2026-05-22T06:12:42.000Z</time>
      </trkpt>
      <trkpt lat="43.31443" lon="-1.3265">
        <ele>136.527975</ele>
        <time>2026-05-22T06:12:43.000Z</time>
      </trkpt>
      <trkpt lat="43.31443" lon="-1.32645">
        <ele>136.606058</ele>
        <time>2026-05-22T06:12:44.000Z</time>
      </trkpt>
      <trkpt lat="43.31443" lon="-1.3264">
        <ele>136.68002</ele>
        <time>2026-05-22T06:12:45.000Z</time>
      </trkpt>
      <trkpt lat="43.31443" lon="-1.32635">
        <ele>136.749433</ele>
        <time>2026-05-22T06:12:46.000Z</time>
      </trkpt>
      <trkpt lat="43.31443" lon="-1.3263">
        <ele>136.818931</ele>
        <time>2026-05-22T06:12:47.000Z</time>
      </trkpt>
      <trkpt lat="43.31443" lon="-1.32625">
        <ele>136.88687</ele>
        <time>2026-05-22T06:12:48.000Z</time>
      </trkpt>
      <trkpt lat="43.31443" lon="-1.32621">
        <ele>136.953394</ele>
        <time>2026-05-22T06:12:49.000Z</time>
      </trkpt>
      <trkpt lat="43.31443" lon="-1.32616">
        <ele>137.018978</ele>
        <time>2026-05-22T06:12:50.000Z</time>
      </trkpt>
      <trkpt lat="43.31443" lon="-1.32611">
        <ele>137.080304</ele>
        <time>2026-05-22T06:12:51.000Z</time>
      </trkpt>
      <trkpt lat="43.31443" lon="-1.32606">
        <ele>137.142879</ele>
        <time>2026-05-22T06:12:52.000Z</time>
      </trkpt>
      <trkpt lat="43.31443" lon="-1.32601">
        <ele>137.206681</ele>
        <time>2026-05-22T06:12:53.000Z</time>
      </trkpt>
      <trkpt lat="43.31443" lon="-1.32596">
        <ele>137.268007</ele>
        <time>2026-05-22T06:12:54.000Z</time>
      </trkpt>
      <trkpt lat="43.31442" lon="-1.3259">
        <ele>137.33065</ele>
        <time>2026-05-22T06:12:55.000Z</time>
      </trkpt>
      <trkpt lat="43.31442" lon="-1.32585">
        <ele>137.394983</ele>
        <time>2026-05-22T06:12:56.000Z</time>
      </trkpt>
      <trkpt lat="43.31442" lon="-1.3258">
        <ele>137.458785</ele>
        <time>2026-05-22T06:12:57.000Z</time>
      </trkpt>
      <trkpt lat="43.31442" lon="-1.32575">
        <ele>137.516456</ele>
        <time>2026-05-22T06:12:58.000Z</time>
      </trkpt>
      <trkpt lat="43.31442" lon="-1.32571">
        <ele>137.566743</ele>
        <time>2026-05-22T06:12:59.000Z</time>
      </trkpt>
      <trkpt lat="43.31442" lon="-1.32567">
        <ele>137.617284</ele>
        <time>2026-05-22T06:13:00.000Z</time>
      </trkpt>
      <trkpt lat="43.31442" lon="-1.32563">
        <ele>137.6676</ele>
        <time>2026-05-22T06:13:01.000Z</time>
      </trkpt>
      <trkpt lat="43.31442" lon="-1.32558">
        <ele>137.731468</ele>
        <time>2026-05-22T06:13:02.000Z</time>
      </trkpt>
      <trkpt lat="43.31442" lon="-1.32552">
        <ele>137.805136</ele>
        <time>2026-05-22T06:13:03.000Z</time>
      </trkpt>
      <trkpt lat="43.31442" lon="-1.32546">
        <ele>137.876593</ele>
        <time>2026-05-22T06:13:04.000Z</time>
      </trkpt>
      <trkpt lat="43.31442" lon="-1.3254">
        <ele>137.951487</ele>
        <time>2026-05-22T06:13:05.000Z</time>
      </trkpt>
      <trkpt lat="43.31442" lon="-1.32534">
        <ele>138.026475</ele>
        <time>2026-05-22T06:13:06.000Z</time>
      </trkpt>
      <trkpt lat="43.31442" lon="-1.32527">
        <ele>138.106359</ele>
        <time>2026-05-22T06:13:07.000Z</time>
      </trkpt>
      <trkpt lat="43.31441" lon="-1.32521">
        <ele>138.183703</ele>
        <time>2026-05-22T06:13:08.000Z</time>
      </trkpt>
      <trkpt lat="43.31441" lon="-1.32515">
        <ele>138.258994</ele>
        <time>2026-05-22T06:13:09.000Z</time>
      </trkpt>
      <trkpt lat="43.3144" lon="-1.32508">
        <ele>138.339587</ele>
        <time>2026-05-22T06:13:10.000Z</time>
      </trkpt>
      <trkpt lat="43.3144" lon="-1.32503">
        <ele>138.411044</ele>
        <time>2026-05-22T06:13:11.000Z</time>
      </trkpt>
      <trkpt lat="43.3144" lon="-1.32497">
        <ele>138.482262</ele>
        <time>2026-05-22T06:13:12.000Z</time>
      </trkpt>
      <trkpt lat="43.31439" lon="-1.32491">
        <ele>138.553897</ele>
        <time>2026-05-22T06:13:13.000Z</time>
      </trkpt>
      <trkpt lat="43.31439" lon="-1.32485">
        <ele>138.627488</ele>
        <time>2026-05-22T06:13:14.000Z</time>
      </trkpt>
      <trkpt lat="43.3144" lon="-1.3248">
        <ele>138.695701</ele>
        <time>2026-05-22T06:13:15.000Z</time>
      </trkpt>
      <trkpt lat="43.31441" lon="-1.32474">
        <ele>138.76663</ele>
        <time>2026-05-22T06:13:16.000Z</time>
      </trkpt>
      <trkpt lat="43.31442" lon="-1.32469">
        <ele>138.83638</ele>
        <time>2026-05-22T06:13:17.000Z</time>
      </trkpt>
      <trkpt lat="43.31444" lon="-1.32464">
        <ele>138.904481</ele>
        <time>2026-05-22T06:13:18.000Z</time>
      </trkpt>
      <trkpt lat="43.31446" lon="-1.32459">
        <ele>138.971502</ele>
        <time>2026-05-22T06:13:19.000Z</time>
      </trkpt>
      <trkpt lat="43.31448" lon="-1.32454">
        <ele>139.042312</ele>
        <time>2026-05-22T06:13:20.000Z</time>
      </trkpt>
      <trkpt lat="43.3145" lon="-1.32449">
        <ele>139.113122</ele>
        <time>2026-05-22T06:13:21.000Z</time>
      </trkpt>
      <trkpt lat="43.31452" lon="-1.32444">
        <ele>139.183104</ele>
        <time>2026-05-22T06:13:22.000Z</time>
      </trkpt>
      <trkpt lat="43.31455" lon="-1.32439">
        <ele>139.257514</ele>
        <time>2026-05-22T06:13:23.000Z</time>
      </trkpt>
      <trkpt lat="43.31457" lon="-1.32434">
        <ele>139.331291</ele>
        <time>2026-05-22T06:13:24.000Z</time>
      </trkpt>
      <trkpt lat="43.3146" lon="-1.32429">
        <ele>139.405786</ele>
        <time>2026-05-22T06:13:25.000Z</time>
      </trkpt>
      <trkpt lat="43.31462" lon="-1.32424">
        <ele>139.479255</ele>
        <time>2026-05-22T06:13:26.000Z</time>
      </trkpt>
      <trkpt lat="43.31465" lon="-1.32419">
        <ele>139.555625</ele>
        <time>2026-05-22T06:13:27.000Z</time>
      </trkpt>
      <trkpt lat="43.31467" lon="-1.32414">
        <ele>139.631049</ele>
        <time>2026-05-22T06:13:28.000Z</time>
      </trkpt>
      <trkpt lat="43.3147" lon="-1.32409">
        <ele>139.702483</ele>
        <time>2026-05-22T06:13:29.000Z</time>
      </trkpt>
      <trkpt lat="43.31472" lon="-1.32404">
        <ele>139.771908</ele>
        <time>2026-05-22T06:13:30.000Z</time>
      </trkpt>
      <trkpt lat="43.31474" lon="-1.32399">
        <ele>139.844628</ele>
        <time>2026-05-22T06:13:31.000Z</time>
      </trkpt>
      <trkpt lat="43.31476" lon="-1.32394">
        <ele>139.915687</ele>
        <time>2026-05-22T06:13:32.000Z</time>
      </trkpt>
      <trkpt lat="43.31478" lon="-1.32389">
        <ele>139.984597</ele>
        <time>2026-05-22T06:13:33.000Z</time>
      </trkpt>
      <trkpt lat="43.3148" lon="-1.32384">
        <ele>140.061244</ele>
        <time>2026-05-22T06:13:34.000Z</time>
      </trkpt>
      <trkpt lat="43.31482" lon="-1.3238">
        <ele>140.147735</ele>
        <time>2026-05-22T06:13:35.000Z</time>
      </trkpt>
      <trkpt lat="43.31485" lon="-1.32376">
        <ele>140.235769</ele>
        <time>2026-05-22T06:13:36.000Z</time>
      </trkpt>
      <trkpt lat="43.31487" lon="-1.32372">
        <ele>140.31995</ele>
        <time>2026-05-22T06:13:37.000Z</time>
      </trkpt>
      <trkpt lat="43.3149" lon="-1.32367">
        <ele>140.406467</ele>
        <time>2026-05-22T06:13:38.000Z</time>
      </trkpt>
      <trkpt lat="43.31492" lon="-1.32363">
        <ele>140.491723</ele>
        <time>2026-05-22T06:13:39.000Z</time>
      </trkpt>
      <trkpt lat="43.31495" lon="-1.32359">
        <ele>140.581195</ele>
        <time>2026-05-22T06:13:40.000Z</time>
      </trkpt>
      <trkpt lat="43.31498" lon="-1.32355">
        <ele>140.669476</ele>
        <time>2026-05-22T06:13:41.000Z</time>
      </trkpt>
      <trkpt lat="43.315" lon="-1.32351">
        <ele>140.755417</ele>
        <time>2026-05-22T06:13:42.000Z</time>
      </trkpt>
      <trkpt lat="43.31503" lon="-1.32347">
        <ele>140.839423</ele>
        <time>2026-05-22T06:13:43.000Z</time>
      </trkpt>
      <trkpt lat="43.31505" lon="-1.32342">
        <ele>140.927292</ele>
        <time>2026-05-22T06:13:44.000Z</time>
      </trkpt>
      <trkpt lat="43.31508" lon="-1.32338">
        <ele>141.019181</ele>
        <time>2026-05-22T06:13:45.000Z</time>
      </trkpt>
      <trkpt lat="43.31511" lon="-1.32334">
        <ele>141.107214</ele>
        <time>2026-05-22T06:13:46.000Z</time>
      </trkpt>
      <trkpt lat="43.31513" lon="-1.3233">
        <ele>141.189983</ele>
        <time>2026-05-22T06:13:47.000Z</time>
      </trkpt>
      <trkpt lat="43.31516" lon="-1.32326">
        <ele>141.275923</ele>
        <time>2026-05-22T06:13:48.000Z</time>
      </trkpt>
      <trkpt lat="43.31518" lon="-1.32322">
        <ele>141.364204</ele>
        <time>2026-05-22T06:13:49.000Z</time>
      </trkpt>
      <trkpt lat="43.31521" lon="-1.32318">
        <ele>141.444252</ele>
        <time>2026-05-22T06:13:50.000Z</time>
      </trkpt>
      <trkpt lat="43.31523" lon="-1.32314">
        <ele>141.525795</ele>
        <time>2026-05-22T06:13:51.000Z</time>
      </trkpt>
      <trkpt lat="43.31526" lon="-1.3231">
        <ele>141.615563</ele>
        <time>2026-05-22T06:13:52.000Z</time>
      </trkpt>
      <trkpt lat="43.31528" lon="-1.32306">
        <ele>141.699569</ele>
        <time>2026-05-22T06:13:53.000Z</time>
      </trkpt>
      <trkpt lat="43.31531" lon="-1.32302">
        <ele>141.783575</ele>
        <time>2026-05-22T06:13:54.000Z</time>
      </trkpt>
      <trkpt lat="43.31533" lon="-1.32298">
        <ele>141.867581</ele>
        <time>2026-05-22T06:13:55.000Z</time>
      </trkpt>
      <trkpt lat="43.31535" lon="-1.32293">
        <ele>141.952836</ele>
        <time>2026-05-22T06:13:56.000Z</time>
      </trkpt>
      <trkpt lat="43.31538" lon="-1.3229">
        <ele>142.036109</ele>
        <time>2026-05-22T06:13:57.000Z</time>
      </trkpt>
      <trkpt lat="43.3154" lon="-1.32286">
        <ele>142.119086</ele>
        <time>2026-05-22T06:13:58.000Z</time>
      </trkpt>
      <trkpt lat="43.31543" lon="-1.32282">
        <ele>142.200475</ele>
        <time>2026-05-22T06:13:59.000Z</time>
      </trkpt>
      <trkpt lat="43.31545" lon="-1.32277">
        <ele>142.284393</ele>
        <time>2026-05-22T06:14:00.000Z</time>
      </trkpt>
      <trkpt lat="43.31547" lon="-1.32274">
        <ele>142.365936</ele>
        <time>2026-05-22T06:14:01.000Z</time>
      </trkpt>
      <trkpt lat="43.3155" lon="-1.32269">
        <ele>142.451334</ele>
        <time>2026-05-22T06:14:02.000Z</time>
      </trkpt>
      <trkpt lat="43.31553" lon="-1.32265">
        <ele>142.536961</ele>
        <time>2026-05-22T06:14:03.000Z</time>
      </trkpt>
      <trkpt lat="43.31555" lon="-1.32261">
        <ele>142.620966</ele>
        <time>2026-05-22T06:14:04.000Z</time>
      </trkpt>
      <trkpt lat="43.31557" lon="-1.32257">
        <ele>142.706222</ele>
        <time>2026-05-22T06:14:05.000Z</time>
      </trkpt>
      <trkpt lat="43.3156" lon="-1.32253">
        <ele>142.792849</ele>
        <time>2026-05-22T06:14:06.000Z</time>
      </trkpt>
      <trkpt lat="43.31562" lon="-1.32249">
        <ele>142.878048</ele>
        <time>2026-05-22T06:14:07.000Z</time>
      </trkpt>
      <trkpt lat="43.31564" lon="-1.32244">
        <ele>142.963393</ele>
        <time>2026-05-22T06:14:08.000Z</time>
      </trkpt>
      <trkpt lat="43.31566" lon="-1.32239">
        <ele>143.051442</ele>
        <time>2026-05-22T06:14:09.000Z</time>
      </trkpt>
      <trkpt lat="43.31569" lon="-1.32235">
        <ele>143.143193</ele>
        <time>2026-05-22T06:14:10.000Z</time>
      </trkpt>
      <trkpt lat="43.31571" lon="-1.3223">
        <ele>143.235682</ele>
        <time>2026-05-22T06:14:11.000Z</time>
      </trkpt>
      <trkpt lat="43.31573" lon="-1.32224">
        <ele>143.328172</ele>
        <time>2026-05-22T06:14:12.000Z</time>
      </trkpt>
      <trkpt lat="43.31574" lon="-1.32219">
        <ele>143.415988</ele>
        <time>2026-05-22T06:14:13.000Z</time>
      </trkpt>
      <trkpt lat="43.31575" lon="-1.32214">
        <ele>143.49785</ele>
        <time>2026-05-22T06:14:14.000Z</time>
      </trkpt>
      <trkpt lat="43.31576" lon="-1.32209">
        <ele>143.581137</ele>
        <time>2026-05-22T06:14:15.000Z</time>
      </trkpt>
      <trkpt lat="43.31577" lon="-1.32204">
        <ele>143.670272</ele>
        <time>2026-05-22T06:14:16.000Z</time>
      </trkpt>
      <trkpt lat="43.31577" lon="-1.32198">
        <ele>143.758757</ele>
        <time>2026-05-22T06:14:17.000Z</time>
      </trkpt>
      <trkpt lat="43.31578" lon="-1.32193">
        <ele>143.842232</ele>
        <time>2026-05-22T06:14:18.000Z</time>
      </trkpt>
      <trkpt lat="43.31578" lon="-1.32187">
        <ele>143.934849</ele>
        <time>2026-05-22T06:14:19.000Z</time>
      </trkpt>
      <trkpt lat="43.31578" lon="-1.32181">
        <ele>144.0445</ele>
        <time>2026-05-22T06:14:20.000Z</time>
      </trkpt>
      <trkpt lat="43.31577" lon="-1.32176">
        <ele>144.159837</ele>
        <time>2026-05-22T06:14:21.000Z</time>
      </trkpt>
      <trkpt lat="43.31577" lon="-1.3217">
        <ele>144.277636</ele>
        <time>2026-05-22T06:14:22.000Z</time>
      </trkpt>
      <trkpt lat="43.31577" lon="-1.32164">
        <ele>144.397249</ele>
        <time>2026-05-22T06:14:23.000Z</time>
      </trkpt>
      <trkpt lat="43.31575" lon="-1.32159">
        <ele>144.514256</ele>
        <time>2026-05-22T06:14:24.000Z</time>
      </trkpt>
      <trkpt lat="43.31574" lon="-1.32154">
        <ele>144.624464</ele>
        <time>2026-05-22T06:14:25.000Z</time>
      </trkpt>
      <trkpt lat="43.31573" lon="-1.32149">
        <ele>144.727036</ele>
        <time>2026-05-22T06:14:26.000Z</time>
      </trkpt>
      <trkpt lat="43.31571" lon="-1.32145">
        <ele>144.82207</ele>
        <time>2026-05-22T06:14:27.000Z</time>
      </trkpt>
      <trkpt lat="43.3157" lon="-1.32141">
        <ele>144.911004</ele>
        <time>2026-05-22T06:14:28.000Z</time>
      </trkpt>
      <trkpt lat="43.31568" lon="-1.32138">
        <ele>144.994565</ele>
        <time>2026-05-22T06:14:29.000Z</time>
      </trkpt>
      <trkpt lat="43.31567" lon="-1.32134">
        <ele>145.082185</ele>
        <time>2026-05-22T06:14:30.000Z</time>
      </trkpt>
      <trkpt lat="43.31565" lon="-1.32131">
        <ele>145.168753</ele>
        <time>2026-05-22T06:14:31.000Z</time>
      </trkpt>
      <trkpt lat="43.31564" lon="-1.32127">
        <ele>145.243809</ele>
        <time>2026-05-22T06:14:32.000Z</time>
      </trkpt>
      <trkpt lat="43.31562" lon="-1.32124">
        <ele>145.317413</ele>
        <time>2026-05-22T06:14:33.000Z</time>
      </trkpt>
      <trkpt lat="43.31561" lon="-1.32121">
        <ele>145.397456</ele>
        <time>2026-05-22T06:14:34.000Z</time>
      </trkpt>
      <trkpt lat="43.31559" lon="-1.32117">
        <ele>145.488944</ele>
        <time>2026-05-22T06:14:35.000Z</time>
      </trkpt>
      <trkpt lat="43.31557" lon="-1.32114">
        <ele>145.57913</ele>
        <time>2026-05-22T06:14:36.000Z</time>
      </trkpt>
      <trkpt lat="43.31554" lon="-1.32111">
        <ele>145.669481</ele>
        <time>2026-05-22T06:14:37.000Z</time>
      </trkpt>
      <trkpt lat="43.31552" lon="-1.32108">
        <ele>145.757728</ele>
        <time>2026-05-22T06:14:38.000Z</time>
      </trkpt>
      <trkpt lat="43.3155" lon="-1.32105">
        <ele>145.846078</ele>
        <time>2026-05-22T06:14:39.000Z</time>
      </trkpt>
      <trkpt lat="43.31548" lon="-1.32102">
        <ele>145.940084</ele>
        <time>2026-05-22T06:14:40.000Z</time>
      </trkpt>
      <trkpt lat="43.31546" lon="-1.32099">
        <ele>146.028732</ele>
        <time>2026-05-22T06:14:41.000Z</time>
      </trkpt>
      <trkpt lat="43.31544" lon="-1.32095">
        <ele>146.119298</ele>
        <time>2026-05-22T06:14:42.000Z</time>
      </trkpt>
      <trkpt lat="43.31541" lon="-1.32092">
        <ele>146.211043</ele>
        <time>2026-05-22T06:14:43.000Z</time>
      </trkpt>
      <trkpt lat="43.31539" lon="-1.32089">
        <ele>146.302788</ele>
        <time>2026-05-22T06:14:44.000Z</time>
      </trkpt>
      <trkpt lat="43.31537" lon="-1.32085">
        <ele>146.390978</ele>
        <time>2026-05-22T06:14:45.000Z</time>
      </trkpt>
      <trkpt lat="43.31536" lon="-1.32082">
        <ele>146.47436</ele>
        <time>2026-05-22T06:14:46.000Z</time>
      </trkpt>
      <trkpt lat="43.31534" lon="-1.32079">
        <ele>146.560928</ele>
        <time>2026-05-22T06:14:47.000Z</time>
      </trkpt>
      <trkpt lat="43.31532" lon="-1.32075">
        <ele>146.650785</ele>
        <time>2026-05-22T06:14:48.000Z</time>
      </trkpt>
      <trkpt lat="43.3153" lon="-1.32071">
        <ele>146.738954</ele>
        <time>2026-05-22T06:14:49.000Z</time>
      </trkpt>
      <trkpt lat="43.31528" lon="-1.32068">
        <ele>146.828811</ele>
        <time>2026-05-22T06:14:50.000Z</time>
      </trkpt>
      <trkpt lat="43.31527" lon="-1.32064">
        <ele>146.920371</ele>
        <time>2026-05-22T06:14:51.000Z</time>
      </trkpt>
      <trkpt lat="43.31525" lon="-1.32061">
        <ele>147.008658</ele>
        <time>2026-05-22T06:14:52.000Z</time>
      </trkpt>
      <trkpt lat="43.31523" lon="-1.32057">
        <ele>147.103507</ele>
        <time>2026-05-22T06:14:53.000Z</time>
      </trkpt>
      <trkpt lat="43.31521" lon="-1.32053">
        <ele>147.198356</ele>
        <time>2026-05-22T06:14:54.000Z</time>
      </trkpt>
      <trkpt lat="43.31519" lon="-1.32049">
        <ele>147.297225</ele>
        <time>2026-05-22T06:14:55.000Z</time>
      </trkpt>
      <trkpt lat="43.31518" lon="-1.32045">
        <ele>147.395493</ele>
        <time>2026-05-22T06:14:56.000Z</time>
      </trkpt>
      <trkpt lat="43.31516" lon="-1.32041">
        <ele>147.49376</ele>
        <time>2026-05-22T06:14:57.000Z</time>
      </trkpt>
      <trkpt lat="43.31514" lon="-1.32036">
        <ele>147.595812</ele>
        <time>2026-05-22T06:14:58.000Z</time>
      </trkpt>
      <trkpt lat="43.31512" lon="-1.32032">
        <ele>147.696483</ele>
        <time>2026-05-22T06:14:59.000Z</time>
      </trkpt>
      <trkpt lat="43.3151" lon="-1.32028">
        <ele>147.798535</ele>
        <time>2026-05-22T06:15:00.000Z</time>
      </trkpt>
      <trkpt lat="43.31509" lon="-1.32024">
        <ele>147.898808</ele>
        <time>2026-05-22T06:15:01.000Z</time>
      </trkpt>
      <trkpt lat="43.31507" lon="-1.32019">
        <ele>148.005837</ele>
        <time>2026-05-22T06:15:02.000Z</time>
      </trkpt>
      <trkpt lat="43.31505" lon="-1.32014">
        <ele>148.115098</ele>
        <time>2026-05-22T06:15:03.000Z</time>
      </trkpt>
      <trkpt lat="43.31503" lon="-1.3201">
        <ele>148.229318</ele>
        <time>2026-05-22T06:15:04.000Z</time>
      </trkpt>
      <trkpt lat="43.31501" lon="-1.32005">
        <ele>148.343538</ele>
        <time>2026-05-22T06:15:05.000Z</time>
      </trkpt>
      <trkpt lat="43.31499" lon="-1.32">
        <ele>148.459115</ele>
        <time>2026-05-22T06:15:06.000Z</time>
      </trkpt>
      <trkpt lat="43.31497" lon="-1.31995">
        <ele>148.571524</ele>
        <time>2026-05-22T06:15:07.000Z</time>
      </trkpt>
      <trkpt lat="43.31495" lon="-1.3199">
        <ele>148.682609</ele>
        <time>2026-05-22T06:15:08.000Z</time>
      </trkpt>
      <trkpt lat="43.31493" lon="-1.31985">
        <ele>148.798649</ele>
        <time>2026-05-22T06:15:09.000Z</time>
      </trkpt>
      <trkpt lat="43.31491" lon="-1.3198">
        <ele>148.916024</ele>
        <time>2026-05-22T06:15:10.000Z</time>
      </trkpt>
      <trkpt lat="43.31489" lon="-1.31975">
        <ele>149.0334</ele>
        <time>2026-05-22T06:15:11.000Z</time>
      </trkpt>
      <trkpt lat="43.31488" lon="-1.3197">
        <ele>149.137661</ele>
        <time>2026-05-22T06:15:12.000Z</time>
      </trkpt>
      <trkpt lat="43.31486" lon="-1.31965">
        <ele>149.237389</ele>
        <time>2026-05-22T06:15:13.000Z</time>
      </trkpt>
      <trkpt lat="43.31484" lon="-1.3196">
        <ele>149.335982</ele>
        <time>2026-05-22T06:15:14.000Z</time>
      </trkpt>
      <trkpt lat="43.31482" lon="-1.31955">
        <ele>149.43149</ele>
        <time>2026-05-22T06:15:15.000Z</time>
      </trkpt>
      <trkpt lat="43.3148" lon="-1.31951">
        <ele>149.521668</ele>
        <time>2026-05-22T06:15:16.000Z</time>
      </trkpt>
      <trkpt lat="43.31478" lon="-1.31946">
        <ele>149.612604</ele>
        <time>2026-05-22T06:15:17.000Z</time>
      </trkpt>
      <trkpt lat="43.31476" lon="-1.31941">
        <ele>149.705438</ele>
        <time>2026-05-22T06:15:18.000Z</time>
      </trkpt>
      <trkpt lat="43.31474" lon="-1.31937">
        <ele>149.800605</ele>
        <time>2026-05-22T06:15:19.000Z</time>
      </trkpt>
      <trkpt lat="43.31472" lon="-1.31932">
        <ele>149.894581</ele>
        <time>2026-05-22T06:15:20.000Z</time>
      </trkpt>
      <trkpt lat="43.31471" lon="-1.31927">
        <ele>149.987034</ele>
        <time>2026-05-22T06:15:21.000Z</time>
      </trkpt>
      <trkpt lat="43.31469" lon="-1.31923">
        <ele>150.079868</ele>
        <time>2026-05-22T06:15:22.000Z</time>
      </trkpt>
      <trkpt lat="43.31467" lon="-1.31918">
        <ele>150.174252</ele>
        <time>2026-05-22T06:15:23.000Z</time>
      </trkpt>
      <trkpt lat="43.31465" lon="-1.31913">
        <ele>150.265543</ele>
        <time>2026-05-22T06:15:24.000Z</time>
      </trkpt>
      <trkpt lat="43.31463" lon="-1.31909">
        <ele>150.355298</ele>
        <time>2026-05-22T06:15:25.000Z</time>
      </trkpt>
      <trkpt lat="43.31462" lon="-1.31905">
        <ele>150.442006</ele>
        <time>2026-05-22T06:15:26.000Z</time>
      </trkpt>
      <trkpt lat="43.3146" lon="-1.319">
        <ele>150.530629</ele>
        <time>2026-05-22T06:15:27.000Z</time>
      </trkpt>
      <trkpt lat="43.31458" lon="-1.31895">
        <ele>150.622369</ele>
        <time>2026-05-22T06:15:28.000Z</time>
      </trkpt>
      <trkpt lat="43.31456" lon="-1.31891">
        <ele>150.712547</ele>
        <time>2026-05-22T06:15:29.000Z</time>
      </trkpt>
      <trkpt lat="43.31455" lon="-1.31886">
        <ele>150.802725</ele>
        <time>2026-05-22T06:15:30.000Z</time>
      </trkpt>
      <trkpt lat="43.31453" lon="-1.31882">
        <ele>150.888261</ele>
        <time>2026-05-22T06:15:31.000Z</time>
      </trkpt>
      <trkpt lat="43.31451" lon="-1.31877">
        <ele>150.978016</ele>
        <time>2026-05-22T06:15:32.000Z</time>
      </trkpt>
      <trkpt lat="43.3145" lon="-1.31873">
        <ele>151.067132</ele>
        <time>2026-05-22T06:15:33.000Z</time>
      </trkpt>
      <trkpt lat="43.31448" lon="-1.31868">
        <ele>151.15731</ele>
        <time>2026-05-22T06:15:34.000Z</time>
      </trkpt>
      <trkpt lat="43.31446" lon="-1.31863">
        <ele>151.249592</ele>
        <time>2026-05-22T06:15:35.000Z</time>
      </trkpt>
      <trkpt lat="43.31445" lon="-1.31859">
        <ele>151.341874</ele>
        <time>2026-05-22T06:15:36.000Z</time>
      </trkpt>
      <trkpt lat="43.31443" lon="-1.31854">
        <ele>151.434156</ele>
        <time>2026-05-22T06:15:37.000Z</time>
      </trkpt>
      <trkpt lat="43.31442" lon="-1.31849">
        <ele>151.524852</ele>
        <time>2026-05-22T06:15:38.000Z</time>
      </trkpt>
      <trkpt lat="43.3144" lon="-1.31844">
        <ele>151.612959</ele>
        <time>2026-05-22T06:15:39.000Z</time>
      </trkpt>
      <trkpt lat="43.31438" lon="-1.3184">
        <ele>151.705793</ele>
        <time>2026-05-22T06:15:40.000Z</time>
      </trkpt>
      <trkpt lat="43.31437" lon="-1.31835">
        <ele>151.798709</ele>
        <time>2026-05-22T06:15:41.000Z</time>
      </trkpt>
      <trkpt lat="43.31435" lon="-1.3183">
        <ele>151.894857</ele>
        <time>2026-05-22T06:15:42.000Z</time>
      </trkpt>
      <trkpt lat="43.31434" lon="-1.31825">
        <ele>151.989387</ele>
        <time>2026-05-22T06:15:43.000Z</time>
      </trkpt>
      <trkpt lat="43.31432" lon="-1.3182">
        <ele>152.077272</ele>
        <time>2026-05-22T06:15:44.000Z</time>
      </trkpt>
      <trkpt lat="43.31431" lon="-1.31815">
        <ele>152.172546</ele>
        <time>2026-05-22T06:15:45.000Z</time>
      </trkpt>
      <trkpt lat="43.3143" lon="-1.3181">
        <ele>152.271944</ele>
        <time>2026-05-22T06:15:46.000Z</time>
      </trkpt>
      <trkpt lat="43.31428" lon="-1.31804">
        <ele>152.368855</ele>
        <time>2026-05-22T06:15:47.000Z</time>
      </trkpt>
      <trkpt lat="43.31427" lon="-1.31799">
        <ele>152.464959</ele>
        <time>2026-05-22T06:15:48.000Z</time>
      </trkpt>
      <trkpt lat="43.31426" lon="-1.31794">
        <ele>152.556984</ele>
        <time>2026-05-22T06:15:49.000Z</time>
      </trkpt>
      <trkpt lat="43.31425" lon="-1.31789">
        <ele>152.648284</ele>
        <time>2026-05-22T06:15:50.000Z</time>
      </trkpt>
      <trkpt lat="43.31423" lon="-1.31785">
        <ele>152.737051</ele>
        <time>2026-05-22T06:15:51.000Z</time>
      </trkpt>
      <trkpt lat="43.31422" lon="-1.3178">
        <ele>152.825762</ele>
        <time>2026-05-22T06:15:52.000Z</time>
      </trkpt>
      <trkpt lat="43.31421" lon="-1.31775">
        <ele>152.916397</ele>
        <time>2026-05-22T06:15:53.000Z</time>
      </trkpt>
      <trkpt lat="43.3142" lon="-1.3177">
        <ele>153.008718</ele>
        <time>2026-05-22T06:15:54.000Z</time>
      </trkpt>
      <trkpt lat="43.31419" lon="-1.31765">
        <ele>153.09705</ele>
        <time>2026-05-22T06:15:55.000Z</time>
      </trkpt>
      <trkpt lat="43.31418" lon="-1.3176">
        <ele>153.184318</ele>
        <time>2026-05-22T06:15:56.000Z</time>
      </trkpt>
      <trkpt lat="43.31417" lon="-1.31755">
        <ele>153.270613</ele>
        <time>2026-05-22T06:15:57.000Z</time>
      </trkpt>
      <trkpt lat="43.31416" lon="-1.3175">
        <ele>153.358573</ele>
        <time>2026-05-22T06:15:58.000Z</time>
      </trkpt>
      <trkpt lat="43.31415" lon="-1.31746">
        <ele>153.492216</ele>
        <time>2026-05-22T06:15:59.000Z</time>
      </trkpt>
      <trkpt lat="43.31414" lon="-1.31742">
        <ele>153.649438</ele>
        <time>2026-05-22T06:16:00.000Z</time>
      </trkpt>
      <trkpt lat="43.31413" lon="-1.31737">
        <ele>153.80666</ele>
        <time>2026-05-22T06:16:01.000Z</time>
      </trkpt>
      <trkpt lat="43.31412" lon="-1.31733">
        <ele>153.963882</ele>
        <time>2026-05-22T06:16:02.000Z</time>
      </trkpt>
      <trkpt lat="43.31411" lon="-1.31729">
        <ele>154.111959</ele>
        <time>2026-05-22T06:16:03.000Z</time>
      </trkpt>
      <trkpt lat="43.3141" lon="-1.31725">
        <ele>154.254762</ele>
        <time>2026-05-22T06:16:04.000Z</time>
      </trkpt>
      <trkpt lat="43.31409" lon="-1.31721">
        <ele>154.401722</ele>
        <time>2026-05-22T06:16:05.000Z</time>
      </trkpt>
      <trkpt lat="43.31409" lon="-1.31716">
        <ele>154.546502</ele>
        <time>2026-05-22T06:16:06.000Z</time>
      </trkpt>
      <trkpt lat="43.31408" lon="-1.31712">
        <ele>154.697882</ele>
        <time>2026-05-22T06:16:07.000Z</time>
      </trkpt>
      <trkpt lat="43.31407" lon="-1.31708">
        <ele>154.842662</ele>
        <time>2026-05-22T06:16:08.000Z</time>
      </trkpt>
      <trkpt lat="43.31406" lon="-1.31704">
        <ele>154.988727</ele>
        <time>2026-05-22T06:16:09.000Z</time>
      </trkpt>
      <trkpt lat="43.31405" lon="-1.317">
        <ele>155.121351</ele>
        <time>2026-05-22T06:16:10.000Z</time>
      </trkpt>
      <trkpt lat="43.31405" lon="-1.31697">
        <ele>155.245153</ele>
        <time>2026-05-22T06:16:11.000Z</time>
      </trkpt>
      <trkpt lat="43.31404" lon="-1.31693">
        <ele>155.374446</ele>
        <time>2026-05-22T06:16:12.000Z</time>
      </trkpt>
      <trkpt lat="43.31404" lon="-1.31689">
        <ele>155.510405</ele>
        <time>2026-05-22T06:16:13.000Z</time>
      </trkpt>
      <trkpt lat="43.31403" lon="-1.31685">
        <ele>155.645472</ele>
        <time>2026-05-22T06:16:14.000Z</time>
      </trkpt>
      <trkpt lat="43.31402" lon="-1.31681">
        <ele>155.788112</ele>
        <time>2026-05-22T06:16:15.000Z</time>
      </trkpt>
      <trkpt lat="43.31402" lon="-1.31677">
        <ele>155.926539</ele>
        <time>2026-05-22T06:16:16.000Z</time>
      </trkpt>
      <trkpt lat="43.31402" lon="-1.31673">
        <ele>156.060299</ele>
        <time>2026-05-22T06:16:17.000Z</time>
      </trkpt>
      <trkpt lat="43.31401" lon="-1.31669">
        <ele>156.194632</ele>
        <time>2026-05-22T06:16:18.000Z</time>
      </trkpt>
      <trkpt lat="43.31401" lon="-1.31666">
        <ele>156.312941</ele>
        <time>2026-05-22T06:16:19.000Z</time>
      </trkpt>
      <trkpt lat="43.314" lon="-1.31663">
        <ele>156.429954</ele>
        <time>2026-05-22T06:16:20.000Z</time>
      </trkpt>
      <trkpt lat="43.31399" lon="-1.3166">
        <ele>156.54214</ele>
        <time>2026-05-22T06:16:21.000Z</time>
      </trkpt>
      <trkpt lat="43.31398" lon="-1.31656">
        <ele>156.664065</ele>
        <time>2026-05-22T06:16:22.000Z</time>
      </trkpt>
      <trkpt lat="43.31397" lon="-1.31653">
        <ele>156.789192</ele>
        <time>2026-05-22T06:16:23.000Z</time>
      </trkpt>
      <trkpt lat="43.31397" lon="-1.31649">
        <ele>156.921816</ele>
        <time>2026-05-22T06:16:24.000Z</time>
      </trkpt>
      <trkpt lat="43.31396" lon="-1.31645">
        <ele>157.046819</ele>
        <time>2026-05-22T06:16:25.000Z</time>
      </trkpt>
      <trkpt lat="43.31396" lon="-1.31642">
        <ele>157.179443</ele>
        <time>2026-05-22T06:16:26.000Z</time>
      </trkpt>
      <trkpt lat="43.31395" lon="-1.31638">
        <ele>157.318741</ele>
        <time>2026-05-22T06:16:27.000Z</time>
      </trkpt>
      <trkpt lat="43.31394" lon="-1.31633">
        <ele>157.463521</ele>
        <time>2026-05-22T06:16:28.000Z</time>
      </trkpt>
      <trkpt lat="43.31393" lon="-1.3163">
        <ele>157.601725</ele>
        <time>2026-05-22T06:16:29.000Z</time>
      </trkpt>
      <trkpt lat="43.31393" lon="-1.31626">
        <ele>157.736649</ele>
        <time>2026-05-22T06:16:30.000Z</time>
      </trkpt>
      <trkpt lat="43.31392" lon="-1.31622">
        <ele>157.874473</ele>
        <time>2026-05-22T06:16:31.000Z</time>
      </trkpt>
      <trkpt lat="43.31391" lon="-1.31618">
        <ele>158.014021</ele>
        <time>2026-05-22T06:16:32.000Z</time>
      </trkpt>
      <trkpt lat="43.3139" lon="-1.31614">
        <ele>158.156824</ele>
        <time>2026-05-22T06:16:33.000Z</time>
      </trkpt>
      <trkpt lat="43.31389" lon="-1.3161">
        <ele>158.29383</ele>
        <time>2026-05-22T06:16:34.000Z</time>
      </trkpt>
      <trkpt lat="43.31388" lon="-1.31606">
        <ele>158.430131</ele>
        <time>2026-05-22T06:16:35.000Z</time>
      </trkpt>
      <trkpt lat="43.31387" lon="-1.31602">
        <ele>158.569679</ele>
        <time>2026-05-22T06:16:36.000Z</time>
      </trkpt>
      <trkpt lat="43.31386" lon="-1.31599">
        <ele>158.707883</ele>
        <time>2026-05-22T06:16:37.000Z</time>
      </trkpt>
      <trkpt lat="43.31386" lon="-1.31595">
        <ele>158.839534</ele>
        <time>2026-05-22T06:16:38.000Z</time>
      </trkpt>
      <trkpt lat="43.31385" lon="-1.31591">
        <ele>158.972596</ele>
        <time>2026-05-22T06:16:39.000Z</time>
      </trkpt>
      <trkpt lat="43.31384" lon="-1.31587">
        <ele>159.109602</ele>
        <time>2026-05-22T06:16:40.000Z</time>
      </trkpt>
      <trkpt lat="43.31383" lon="-1.31583">
        <ele>159.244526</ele>
        <time>2026-05-22T06:16:41.000Z</time>
      </trkpt>
      <trkpt lat="43.31382" lon="-1.3158">
        <ele>159.379449</ele>
        <time>2026-05-22T06:16:42.000Z</time>
      </trkpt>
      <trkpt lat="43.31382" lon="-1.31576">
        <ele>159.514373</ele>
        <time>2026-05-22T06:16:43.000Z</time>
      </trkpt>
      <trkpt lat="43.31381" lon="-1.31572">
        <ele>159.646024</ele>
        <time>2026-05-22T06:16:44.000Z</time>
      </trkpt>
      <trkpt lat="43.3138" lon="-1.31569">
        <ele>159.777454</ele>
        <time>2026-05-22T06:16:45.000Z</time>
      </trkpt>
      <trkpt lat="43.31379" lon="-1.31565">
        <ele>159.910079</ele>
        <time>2026-05-22T06:16:46.000Z</time>
      </trkpt>
      <trkpt lat="43.31379" lon="-1.31561">
        <ele>160.038434</ele>
        <time>2026-05-22T06:16:47.000Z</time>
      </trkpt>
      <trkpt lat="43.31378" lon="-1.31557">
        <ele>160.1644</ele>
        <time>2026-05-22T06:16:48.000Z</time>
      </trkpt>
      <trkpt lat="43.31377" lon="-1.31554">
        <ele>160.287801</ele>
        <time>2026-05-22T06:16:49.000Z</time>
      </trkpt>
      <trkpt lat="43.31376" lon="-1.31551">
        <ele>160.403207</ele>
        <time>2026-05-22T06:16:50.000Z</time>
      </trkpt>
      <trkpt lat="43.31376" lon="-1.31547">
        <ele>160.522534</ele>
        <time>2026-05-22T06:16:51.000Z</time>
      </trkpt>
      <trkpt lat="43.31375" lon="-1.31544">
        <ele>160.636503</ele>
        <time>2026-05-22T06:16:52.000Z</time>
      </trkpt>
      <trkpt lat="43.31374" lon="-1.31541">
        <ele>160.753743</ele>
        <time>2026-05-22T06:16:53.000Z</time>
      </trkpt>
      <trkpt lat="43.31374" lon="-1.31538">
        <ele>160.867713</ele>
        <time>2026-05-22T06:16:54.000Z</time>
      </trkpt>
      <trkpt lat="43.31373" lon="-1.31535">
        <ele>160.977122</ele>
        <time>2026-05-22T06:16:55.000Z</time>
      </trkpt>
      <trkpt lat="43.31373" lon="-1.31531">
        <ele>161.095432</ele>
        <time>2026-05-22T06:16:56.000Z</time>
      </trkpt>
      <trkpt lat="43.31372" lon="-1.31528">
        <ele>161.215633</ele>
        <time>2026-05-22T06:16:57.000Z</time>
      </trkpt>
      <trkpt lat="43.31372" lon="-1.31524">
        <ele>161.335377</ele>
        <time>2026-05-22T06:16:58.000Z</time>
      </trkpt>
      <trkpt lat="43.31372" lon="-1.31521">
        <ele>161.459586</ele>
        <time>2026-05-22T06:16:59.000Z</time>
      </trkpt>
      <trkpt lat="43.31372" lon="-1.31517">
        <ele>161.57933</ele>
        <time>2026-05-22T06:17:00.000Z</time>
      </trkpt>
      <trkpt lat="43.31371" lon="-1.31514">
        <ele>161.699073</ele>
        <time>2026-05-22T06:17:01.000Z</time>
      </trkpt>
      <trkpt lat="43.31371" lon="-1.3151">
        <ele>161.813834</ele>
        <time>2026-05-22T06:17:02.000Z</time>
      </trkpt>
      <trkpt lat="43.31371" lon="-1.31507">
        <ele>161.867718</ele>
        <time>2026-05-22T06:17:03.000Z</time>
      </trkpt>
      <trkpt lat="43.31371" lon="-1.31503">
        <ele>161.921602</ele>
        <time>2026-05-22T06:17:04.000Z</time>
      </trkpt>
      <trkpt lat="43.31371" lon="-1.315">
        <ele>161.972511</ele>
        <time>2026-05-22T06:17:05.000Z</time>
      </trkpt>
      <trkpt lat="43.3137" lon="-1.31496">
        <ele>162.022144</ele>
        <time>2026-05-22T06:17:06.000Z</time>
      </trkpt>
      <trkpt lat="43.3137" lon="-1.31493">
        <ele>162.074741</ele>
        <time>2026-05-22T06:17:07.000Z</time>
      </trkpt>
      <trkpt lat="43.3137" lon="-1.31489">
        <ele>162.127137</ele>
        <time>2026-05-22T06:17:08.000Z</time>
      </trkpt>
      <trkpt lat="43.3137" lon="-1.31486">
        <ele>162.18251</ele>
        <time>2026-05-22T06:17:09.000Z</time>
      </trkpt>
      <trkpt lat="43.31369" lon="-1.31482">
        <ele>162.236394</ele>
        <time>2026-05-22T06:17:10.000Z</time>
      </trkpt>
      <trkpt lat="43.31369" lon="-1.31479">
        <ele>162.285688</ele>
        <time>2026-05-22T06:17:11.000Z</time>
      </trkpt>
      <trkpt lat="43.31369" lon="-1.31475">
        <ele>162.338084</ele>
        <time>2026-05-22T06:17:12.000Z</time>
      </trkpt>
      <trkpt lat="43.31369" lon="-1.31472">
        <ele>162.391968</ele>
        <time>2026-05-22T06:17:13.000Z</time>
      </trkpt>
      <trkpt lat="43.31369" lon="-1.31468">
        <ele>162.447531</ele>
        <time>2026-05-22T06:17:14.000Z</time>
      </trkpt>
      <trkpt lat="43.31368" lon="-1.31464">
        <ele>162.501882</ele>
        <time>2026-05-22T06:17:15.000Z</time>
      </trkpt>
      <trkpt lat="43.31368" lon="-1.31461">
        <ele>162.555961</ele>
        <time>2026-05-22T06:17:16.000Z</time>
      </trkpt>
      <trkpt lat="43.31368" lon="-1.31457">
        <ele>162.612674</ele>
        <time>2026-05-22T06:17:17.000Z</time>
      </trkpt>
      <trkpt lat="43.31368" lon="-1.31453">
        <ele>162.667932</ele>
        <time>2026-05-22T06:17:18.000Z</time>
      </trkpt>
      <trkpt lat="43.31368" lon="-1.3145">
        <ele>162.720529</ele>
        <time>2026-05-22T06:17:19.000Z</time>
      </trkpt>
      <trkpt lat="43.31367" lon="-1.31446">
        <ele>162.772925</ele>
        <time>2026-05-22T06:17:20.000Z</time>
      </trkpt>
      <trkpt lat="43.31367" lon="-1.31443">
        <ele>162.825322</ele>
        <time>2026-05-22T06:17:21.000Z</time>
      </trkpt>
      <trkpt lat="43.31367" lon="-1.31439">
        <ele>162.877718</ele>
        <time>2026-05-22T06:17:22.000Z</time>
      </trkpt>
      <trkpt lat="43.31367" lon="-1.31436">
        <ele>162.928627</ele>
        <time>2026-05-22T06:17:23.000Z</time>
      </trkpt>
      <trkpt lat="43.31367" lon="-1.31432">
        <ele>162.982394</ele>
        <time>2026-05-22T06:17:24.000Z</time>
      </trkpt>
      <trkpt lat="43.31367" lon="-1.31428">
        <ele>163.039255</ele>
        <time>2026-05-22T06:17:25.000Z</time>
      </trkpt>
      <trkpt lat="43.31367" lon="-1.31424">
        <ele>163.100445</ele>
        <time>2026-05-22T06:17:26.000Z</time>
      </trkpt>
      <trkpt lat="43.31367" lon="-1.3142">
        <ele>163.15865</ele>
        <time>2026-05-22T06:17:27.000Z</time>
      </trkpt>
      <trkpt lat="43.31367" lon="-1.31417">
        <ele>163.217</ele>
        <time>2026-05-22T06:17:28.000Z</time>
      </trkpt>
      <trkpt lat="43.31367" lon="-1.31413">
        <ele>163.27553</ele>
        <time>2026-05-22T06:17:29.000Z</time>
      </trkpt>
      <trkpt lat="43.31368" lon="-1.31409">
        <ele>163.334059</ele>
        <time>2026-05-22T06:17:30.000Z</time>
      </trkpt>
      <trkpt lat="43.31368" lon="-1.31405">
        <ele>163.390635</ele>
        <time>2026-05-22T06:17:31.000Z</time>
      </trkpt>
      <trkpt lat="43.31369" lon="-1.31401">
        <ele>163.456813</ele>
        <time>2026-05-22T06:17:32.000Z</time>
      </trkpt>
      <trkpt lat="43.31369" lon="-1.31396">
        <ele>163.524032</ele>
        <time>2026-05-22T06:17:33.000Z</time>
      </trkpt>
      <trkpt lat="43.3137" lon="-1.31391">
        <ele>163.598548</ele>
        <time>2026-05-22T06:17:34.000Z</time>
      </trkpt>
      <trkpt lat="43.31372" lon="-1.31386">
        <ele>163.680608</ele>
        <time>2026-05-22T06:17:35.000Z</time>
      </trkpt>
      <trkpt lat="43.31373" lon="-1.31381">
        <ele>163.77107</ele>
        <time>2026-05-22T06:17:36.000Z</time>
      </trkpt>
      <trkpt lat="43.31375" lon="-1.31375">
        <ele>163.865755</ele>
        <time>2026-05-22T06:17:37.000Z</time>
      </trkpt>
      <trkpt lat="43.31376" lon="-1.31368">
        <ele>163.964685</ele>
        <time>2026-05-22T06:17:38.000Z</time>
      </trkpt>
      <trkpt lat="43.31378" lon="-1.31362">
        <ele>164.067879</ele>
        <time>2026-05-22T06:17:39.000Z</time>
      </trkpt>
      <trkpt lat="43.31379" lon="-1.31355">
        <ele>164.177665</ele>
        <time>2026-05-22T06:17:40.000Z</time>
      </trkpt>
      <trkpt lat="43.3138" lon="-1.31348">
        <ele>164.281153</ele>
        <time>2026-05-22T06:17:41.000Z</time>
      </trkpt>
      <trkpt lat="43.31382" lon="-1.31342">
        <ele>164.380739</ele>
        <time>2026-05-22T06:17:42.000Z</time>
      </trkpt>
      <trkpt lat="43.31383" lon="-1.31335">
        <ele>164.479051</ele>
        <time>2026-05-22T06:17:43.000Z</time>
      </trkpt>
      <trkpt lat="43.31385" lon="-1.31329">
        <ele>164.57879</ele>
        <time>2026-05-22T06:17:44.000Z</time>
      </trkpt>
      <trkpt lat="43.31387" lon="-1.31322">
        <ele>164.681194</ele>
        <time>2026-05-22T06:17:45.000Z</time>
      </trkpt>
      <trkpt lat="43.31388" lon="-1.31316">
        <ele>164.786387</ele>
        <time>2026-05-22T06:17:46.000Z</time>
      </trkpt>
      <trkpt lat="43.3139" lon="-1.3131">
        <ele>164.886668</ele>
        <time>2026-05-22T06:17:47.000Z</time>
      </trkpt>
      <trkpt lat="43.31392" lon="-1.31303">
        <ele>164.99326</ele>
        <time>2026-05-22T06:17:48.000Z</time>
      </trkpt>
      <trkpt lat="43.31394" lon="-1.31296">
        <ele>165.096345</ele>
        <time>2026-05-22T06:17:49.000Z</time>
      </trkpt>
      <trkpt lat="43.31395" lon="-1.3129">
        <ele>165.202244</ele>
        <time>2026-05-22T06:17:50.000Z</time>
      </trkpt>
      <trkpt lat="43.31397" lon="-1.31283">
        <ele>165.304845</ele>
        <time>2026-05-22T06:17:51.000Z</time>
      </trkpt>
      <trkpt lat="43.31398" lon="-1.31277">
        <ele>165.398277</ele>
        <time>2026-05-22T06:17:52.000Z</time>
      </trkpt>
      <trkpt lat="43.31399" lon="-1.31271">
        <ele>165.492585</ele>
        <time>2026-05-22T06:17:53.000Z</time>
      </trkpt>
      <trkpt lat="43.314" lon="-1.31265">
        <ele>165.651394</ele>
        <time>2026-05-22T06:17:54.000Z</time>
      </trkpt>
      <trkpt lat="43.31401" lon="-1.31258">
        <ele>165.821391</ele>
        <time>2026-05-22T06:17:55.000Z</time>
      </trkpt>
      <trkpt lat="43.314" lon="-1.31252">
        <ele>165.99247</ele>
        <time>2026-05-22T06:17:56.000Z</time>
      </trkpt>
      <trkpt lat="43.314" lon="-1.31246">
        <ele>166.151102</ele>
        <time>2026-05-22T06:17:57.000Z</time>
      </trkpt>
      <trkpt lat="43.31399" lon="-1.3124">
        <ele>166.318062</ele>
        <time>2026-05-22T06:17:58.000Z</time>
      </trkpt>
      <trkpt lat="43.31397" lon="-1.31234">
        <ele>166.486109</ele>
        <time>2026-05-22T06:17:59.000Z</time>
      </trkpt>
      <trkpt lat="43.31395" lon="-1.31228">
        <ele>166.650969</ele>
        <time>2026-05-22T06:18:00.000Z</time>
      </trkpt>
      <trkpt lat="43.31392" lon="-1.31223">
        <ele>166.80897</ele>
        <time>2026-05-22T06:18:01.000Z</time>
      </trkpt>
      <trkpt lat="43.3139" lon="-1.31218">
        <ele>166.96115</ele>
        <time>2026-05-22T06:18:02.000Z</time>
      </trkpt>
      <trkpt lat="43.31388" lon="-1.31213">
        <ele>167.115076</ele>
        <time>2026-05-22T06:18:03.000Z</time>
      </trkpt>
      <trkpt lat="43.31386" lon="-1.31208">
        <ele>167.263243</ele>
        <time>2026-05-22T06:18:04.000Z</time>
      </trkpt>
      <trkpt lat="43.31385" lon="-1.31203">
        <ele>167.412134</ele>
        <time>2026-05-22T06:18:05.000Z</time>
      </trkpt>
      <trkpt lat="43.31383" lon="-1.31199">
        <ele>167.548165</ele>
        <time>2026-05-22T06:18:06.000Z</time>
      </trkpt>
      <trkpt lat="43.31381" lon="-1.31194">
        <ele>167.678071</ele>
        <time>2026-05-22T06:18:07.000Z</time>
      </trkpt>
      <trkpt lat="43.31378" lon="-1.3119">
        <ele>167.811885</ele>
        <time>2026-05-22T06:18:08.000Z</time>
      </trkpt>
      <trkpt lat="43.31376" lon="-1.31186">
        <ele>167.941448</ele>
        <time>2026-05-22T06:18:09.000Z</time>
      </trkpt>
      <trkpt lat="43.31374" lon="-1.31182">
        <ele>168.079669</ele>
        <time>2026-05-22T06:18:10.000Z</time>
      </trkpt>
      <trkpt lat="43.31372" lon="-1.31179">
        <ele>168.205997</ele>
        <time>2026-05-22T06:18:11.000Z</time>
      </trkpt>
      <trkpt lat="43.3137" lon="-1.31175">
        <ele>168.327069</ele>
        <time>2026-05-22T06:18:12.000Z</time>
      </trkpt>
      <trkpt lat="43.31367" lon="-1.31172">
        <ele>168.446584</ele>
        <time>2026-05-22T06:18:13.000Z</time>
      </trkpt>
      <trkpt lat="43.31365" lon="-1.31168">
        <ele>168.559396</ele>
        <time>2026-05-22T06:18:14.000Z</time>
      </trkpt>
      <trkpt lat="43.31363" lon="-1.31165">
        <ele>168.676294</ele>
        <time>2026-05-22T06:18:15.000Z</time>
      </trkpt>
      <trkpt lat="43.31362" lon="-1.31161">
        <ele>168.788875</ele>
        <time>2026-05-22T06:18:16.000Z</time>
      </trkpt>
      <trkpt lat="43.3136" lon="-1.31158">
        <ele>168.903578</ele>
        <time>2026-05-22T06:18:17.000Z</time>
      </trkpt>
      <trkpt lat="43.31358" lon="-1.31155">
        <ele>169.012926</ele>
        <time>2026-05-22T06:18:18.000Z</time>
      </trkpt>
      <trkpt lat="43.31356" lon="-1.31152">
        <ele>169.117399</ele>
        <time>2026-05-22T06:18:19.000Z</time>
      </trkpt>
      <trkpt lat="43.31354" lon="-1.31149">
        <ele>169.223642</ele>
        <time>2026-05-22T06:18:20.000Z</time>
      </trkpt>
      <trkpt lat="43.31352" lon="-1.31145">
        <ele>169.332132</ele>
        <time>2026-05-22T06:18:21.000Z</time>
      </trkpt>
      <trkpt lat="43.3135" lon="-1.31142">
        <ele>169.43834</ele>
        <time>2026-05-22T06:18:22.000Z</time>
      </trkpt>
      <trkpt lat="43.31349" lon="-1.31138">
        <ele>169.55102</ele>
        <time>2026-05-22T06:18:23.000Z</time>
      </trkpt>
      <trkpt lat="43.31348" lon="-1.31134">
        <ele>169.667102</ele>
        <time>2026-05-22T06:18:24.000Z</time>
      </trkpt>
      <trkpt lat="43.31347" lon="-1.3113">
        <ele>169.776972</ele>
        <time>2026-05-22T06:18:25.000Z</time>
      </trkpt>
      <trkpt lat="43.31346" lon="-1.31126">
        <ele>169.888473</ele>
        <time>2026-05-22T06:18:26.000Z</time>
      </trkpt>
      <trkpt lat="43.31345" lon="-1.31122">
        <ele>169.989907</ele>
        <time>2026-05-22T06:18:27.000Z</time>
      </trkpt>
      <trkpt lat="43.31345" lon="-1.31118">
        <ele>170.090761</ele>
        <time>2026-05-22T06:18:28.000Z</time>
      </trkpt>
      <trkpt lat="43.31344" lon="-1.31115">
        <ele>170.192196</ele>
        <time>2026-05-22T06:18:29.000Z</time>
      </trkpt>
      <trkpt lat="43.31344" lon="-1.31111">
        <ele>170.297512</ele>
        <time>2026-05-22T06:18:30.000Z</time>
      </trkpt>
      <trkpt lat="43.31344" lon="-1.31107">
        <ele>170.397914</ele>
        <time>2026-05-22T06:18:31.000Z</time>
      </trkpt>
      <trkpt lat="43.31344" lon="-1.31103">
        <ele>170.50061</ele>
        <time>2026-05-22T06:18:32.000Z</time>
      </trkpt>
      <trkpt lat="43.31344" lon="-1.31099">
        <ele>170.611168</ele>
        <time>2026-05-22T06:18:33.000Z</time>
      </trkpt>
      <trkpt lat="43.31344" lon="-1.31095">
        <ele>170.72155</ele>
        <time>2026-05-22T06:18:34.000Z</time>
      </trkpt>
      <trkpt lat="43.31343" lon="-1.3109">
        <ele>170.833339</ele>
        <time>2026-05-22T06:18:35.000Z</time>
      </trkpt>
      <trkpt lat="43.31343" lon="-1.31086">
        <ele>170.949813</ele>
        <time>2026-05-22T06:18:36.000Z</time>
      </trkpt>
      <trkpt lat="43.31342" lon="-1.31081">
        <ele>171.074046</ele>
        <time>2026-05-22T06:18:37.000Z</time>
      </trkpt>
      <trkpt lat="43.31341" lon="-1.31077">
        <ele>171.19492</ele>
        <time>2026-05-22T06:18:38.000Z</time>
      </trkpt>
      <trkpt lat="43.3134" lon="-1.31072">
        <ele>171.316599</ele>
        <time>2026-05-22T06:18:39.000Z</time>
      </trkpt>
      <trkpt lat="43.3134" lon="-1.31068">
        <ele>171.435729</ele>
        <time>2026-05-22T06:18:40.000Z</time>
      </trkpt>
      <trkpt lat="43.31338" lon="-1.31063">
        <ele>171.56162</ele>
        <time>2026-05-22T06:18:41.000Z</time>
      </trkpt>
      <trkpt lat="43.31337" lon="-1.31059">
        <ele>171.686879</ele>
        <time>2026-05-22T06:18:42.000Z</time>
      </trkpt>
      <trkpt lat="43.31335" lon="-1.31055">
        <ele>171.814562</ele>
        <time>2026-05-22T06:18:43.000Z</time>
      </trkpt>
      <trkpt lat="43.31333" lon="-1.31051">
        <ele>171.942048</ele>
        <time>2026-05-22T06:18:44.000Z</time>
      </trkpt>
      <trkpt lat="43.31331" lon="-1.31047">
        <ele>172.110789</ele>
        <time>2026-05-22T06:18:45.000Z</time>
      </trkpt>
      <trkpt lat="43.31329" lon="-1.31044">
        <ele>172.332557</ele>
        <time>2026-05-22T06:18:46.000Z</time>
      </trkpt>
      <trkpt lat="43.31326" lon="-1.3104">
        <ele>172.557729</ele>
        <time>2026-05-22T06:18:47.000Z</time>
      </trkpt>
      <trkpt lat="43.31323" lon="-1.31037">
        <ele>172.776954</ele>
        <time>2026-05-22T06:18:48.000Z</time>
      </trkpt>
      <trkpt lat="43.31321" lon="-1.31034">
        <ele>172.98006</ele>
        <time>2026-05-22T06:18:49.000Z</time>
      </trkpt>
      <trkpt lat="43.31318" lon="-1.31031">
        <ele>173.20819</ele>
        <time>2026-05-22T06:18:50.000Z</time>
      </trkpt>
      <trkpt lat="43.31315" lon="-1.31028">
        <ele>173.436286</ele>
        <time>2026-05-22T06:18:51.000Z</time>
      </trkpt>
      <trkpt lat="43.31311" lon="-1.31026">
        <ele>173.671311</ele>
        <time>2026-05-22T06:18:52.000Z</time>
      </trkpt>
      <trkpt lat="43.31308" lon="-1.31024">
        <ele>173.896995</ele>
        <time>2026-05-22T06:18:53.000Z</time>
      </trkpt>
      <trkpt lat="43.31304" lon="-1.31022">
        <ele>174.131057</ele>
        <time>2026-05-22T06:18:54.000Z</time>
      </trkpt>
      <trkpt lat="43.31301" lon="-1.31021">
        <ele>174.357862</ele>
        <time>2026-05-22T06:18:55.000Z</time>
      </trkpt>
      <trkpt lat="43.31297" lon="-1.31019">
        <ele>174.576172</ele>
        <time>2026-05-22T06:18:56.000Z</time>
      </trkpt>
      <trkpt lat="43.31294" lon="-1.31017">
        <ele>174.792872</ele>
        <time>2026-05-22T06:18:57.000Z</time>
      </trkpt>
      <trkpt lat="43.31291" lon="-1.31016">
        <ele>175.01534</ele>
        <time>2026-05-22T06:18:58.000Z</time>
      </trkpt>
      <trkpt lat="43.31288" lon="-1.31014">
        <ele>175.211635</ele>
        <time>2026-05-22T06:18:59.000Z</time>
      </trkpt>
      <trkpt lat="43.31285" lon="-1.31012">
        <ele>175.411167</ele>
        <time>2026-05-22T06:19:00.000Z</time>
      </trkpt>
      <trkpt lat="43.31282" lon="-1.31011">
        <ele>175.605029</ele>
        <time>2026-05-22T06:19:01.000Z</time>
      </trkpt>
      <trkpt lat="43.31279" lon="-1.31009">
        <ele>175.784038</ele>
        <time>2026-05-22T06:19:02.000Z</time>
      </trkpt>
      <trkpt lat="43.31277" lon="-1.31007">
        <ele>175.959699</ele>
        <time>2026-05-22T06:19:03.000Z</time>
      </trkpt>
      <trkpt lat="43.31274" lon="-1.31005">
        <ele>176.142908</ele>
        <time>2026-05-22T06:19:04.000Z</time>
      </trkpt>
      <trkpt lat="43.31272" lon="-1.31003">
        <ele>176.310204</ele>
        <time>2026-05-22T06:19:05.000Z</time>
      </trkpt>
      <trkpt lat="43.3127" lon="-1.31001">
        <ele>176.464965</ele>
        <time>2026-05-22T06:19:06.000Z</time>
      </trkpt>
      <trkpt lat="43.31268" lon="-1.30998">
        <ele>176.63008</ele>
        <time>2026-05-22T06:19:07.000Z</time>
      </trkpt>
      <trkpt lat="43.31266" lon="-1.30996">
        <ele>176.800915</ele>
        <time>2026-05-22T06:19:08.000Z</time>
      </trkpt>
      <trkpt lat="43.31263" lon="-1.30993">
        <ele>176.984034</ele>
        <time>2026-05-22T06:19:09.000Z</time>
      </trkpt>
      <trkpt lat="43.31261" lon="-1.30991">
        <ele>177.151973</ele>
        <time>2026-05-22T06:19:10.000Z</time>
      </trkpt>
      <trkpt lat="43.3126" lon="-1.30988">
        <ele>177.325688</ele>
        <time>2026-05-22T06:19:11.000Z</time>
      </trkpt>
      <trkpt lat="43.31258" lon="-1.30984">
        <ele>177.517702</ele>
        <time>2026-05-22T06:19:12.000Z</time>
      </trkpt>
      <trkpt lat="43.31256" lon="-1.30981">
        <ele>177.705978</ele>
        <time>2026-05-22T06:19:13.000Z</time>
      </trkpt>
      <trkpt lat="43.31254" lon="-1.30978">
        <ele>177.890766</ele>
        <time>2026-05-22T06:19:14.000Z</time>
      </trkpt>
      <trkpt lat="43.31253" lon="-1.30974">
        <ele>178.068186</ele>
        <time>2026-05-22T06:19:15.000Z</time>
      </trkpt>
      <trkpt lat="43.31251" lon="-1.30971">
        <ele>178.249089</ele>
        <time>2026-05-22T06:19:16.000Z</time>
      </trkpt>
      <trkpt lat="43.31249" lon="-1.30968">
        <ele>178.433661</ele>
        <time>2026-05-22T06:19:17.000Z</time>
      </trkpt>
      <trkpt lat="43.31247" lon="-1.30964">
        <ele>178.614624</ele>
        <time>2026-05-22T06:19:18.000Z</time>
      </trkpt>
      <trkpt lat="43.31246" lon="-1.30962">
        <ele>178.77019</ele>
        <time>2026-05-22T06:19:19.000Z</time>
      </trkpt>
      <trkpt lat="43.31245" lon="-1.30959">
        <ele>178.915043</ele>
        <time>2026-05-22T06:19:20.000Z</time>
      </trkpt>
      <trkpt lat="43.31243" lon="-1.30957">
        <ele>179.049206</ele>
        <time>2026-05-22T06:19:21.000Z</time>
      </trkpt>
      <trkpt lat="43.31242" lon="-1.30954">
        <ele>179.190349</ele>
        <time>2026-05-22T06:19:22.000Z</time>
      </trkpt>
      <trkpt lat="43.3124" lon="-1.30951">
        <ele>179.349638</ele>
        <time>2026-05-22T06:19:23.000Z</time>
      </trkpt>
      <trkpt lat="43.31238" lon="-1.30949">
        <ele>179.512795</ele>
        <time>2026-05-22T06:19:24.000Z</time>
      </trkpt>
      <trkpt lat="43.31237" lon="-1.30946">
        <ele>179.658429</ele>
        <time>2026-05-22T06:19:25.000Z</time>
      </trkpt>
      <trkpt lat="43.31235" lon="-1.30943">
        <ele>179.806764</ele>
        <time>2026-05-22T06:19:26.000Z</time>
      </trkpt>
      <trkpt lat="43.31234" lon="-1.30941">
        <ele>179.937527</ele>
        <time>2026-05-22T06:19:27.000Z</time>
      </trkpt>
      <trkpt lat="43.31233" lon="-1.30938">
        <ele>180.089528</ele>
        <time>2026-05-22T06:19:28.000Z</time>
      </trkpt>
      <trkpt lat="43.31231" lon="-1.30936">
        <ele>180.23108</ele>
        <time>2026-05-22T06:19:29.000Z</time>
      </trkpt>
      <trkpt lat="43.3123" lon="-1.30934">
        <ele>180.346764</ele>
        <time>2026-05-22T06:19:30.000Z</time>
      </trkpt>
      <trkpt lat="43.3123" lon="-1.30931">
        <ele>180.479637</ele>
        <time>2026-05-22T06:19:31.000Z</time>
      </trkpt>
      <trkpt lat="43.31229" lon="-1.30929">
        <ele>180.593694</ele>
        <time>2026-05-22T06:19:32.000Z</time>
      </trkpt>
      <trkpt lat="43.31228" lon="-1.30926">
        <ele>180.723981</ele>
        <time>2026-05-22T06:19:33.000Z</time>
      </trkpt>
      <trkpt lat="43.31226" lon="-1.30924">
        <ele>180.850886</ele>
        <time>2026-05-22T06:19:34.000Z</time>
      </trkpt>
      <trkpt lat="43.31226" lon="-1.30921">
        <ele>181.008561</ele>
        <time>2026-05-22T06:19:35.000Z</time>
      </trkpt>
      <trkpt lat="43.31225" lon="-1.30918">
        <ele>181.143148</ele>
        <time>2026-05-22T06:19:36.000Z</time>
      </trkpt>
      <trkpt lat="43.31224" lon="-1.30915">
        <ele>181.260928</ele>
        <time>2026-05-22T06:19:37.000Z</time>
      </trkpt>
      <trkpt lat="43.31224" lon="-1.30913">
        <ele>181.379037</ele>
        <time>2026-05-22T06:19:38.000Z</time>
      </trkpt>
      <trkpt lat="43.31223" lon="-1.3091">
        <ele>181.516736</ele>
        <time>2026-05-22T06:19:39.000Z</time>
      </trkpt>
      <trkpt lat="43.31222" lon="-1.30907">
        <ele>181.634846</ele>
        <time>2026-05-22T06:19:40.000Z</time>
      </trkpt>
      <trkpt lat="43.31222" lon="-1.30905">
        <ele>181.763086</ele>
        <time>2026-05-22T06:19:41.000Z</time>
      </trkpt>
      <trkpt lat="43.3122" lon="-1.30902">
        <ele>181.897084</ele>
        <time>2026-05-22T06:19:42.000Z</time>
      </trkpt>
      <trkpt lat="43.31219" lon="-1.30899">
        <ele>182.036635</ele>
        <time>2026-05-22T06:19:43.000Z</time>
      </trkpt>
      <trkpt lat="43.31219" lon="-1.30897">
        <ele>182.16067</ele>
        <time>2026-05-22T06:19:44.000Z</time>
      </trkpt>
      <trkpt lat="43.31218" lon="-1.30894">
        <ele>182.297623</ele>
        <time>2026-05-22T06:19:45.000Z</time>
      </trkpt>
      <trkpt lat="43.31217" lon="-1.30891">
        <ele>182.44526</ele>
        <time>2026-05-22T06:19:46.000Z</time>
      </trkpt>
      <trkpt lat="43.31216" lon="-1.30888">
        <ele>182.590444</ele>
        <time>2026-05-22T06:19:47.000Z</time>
      </trkpt>
      <trkpt lat="43.31215" lon="-1.30885">
        <ele>182.728143</ele>
        <time>2026-05-22T06:19:48.000Z</time>
      </trkpt>
      <trkpt lat="43.31215" lon="-1.30882">
        <ele>182.847992</ele>
        <time>2026-05-22T06:19:49.000Z</time>
      </trkpt>
      <trkpt lat="43.31214" lon="-1.3088">
        <ele>182.98905</ele>
        <time>2026-05-22T06:19:50.000Z</time>
      </trkpt>
      <trkpt lat="43.31213" lon="-1.30877">
        <ele>183.165497</ele>
        <time>2026-05-22T06:19:51.000Z</time>
      </trkpt>
      <trkpt lat="43.31212" lon="-1.30873">
        <ele>183.373892</ele>
        <time>2026-05-22T06:19:52.000Z</time>
      </trkpt>
      <trkpt lat="43.31212" lon="-1.30871">
        <ele>183.563397</ele>
        <time>2026-05-22T06:19:53.000Z</time>
      </trkpt>
      <trkpt lat="43.31212" lon="-1.30868">
        <ele>183.727741</ele>
        <time>2026-05-22T06:19:54.000Z</time>
      </trkpt>
      <trkpt lat="43.31211" lon="-1.30865">
        <ele>183.908994</ele>
        <time>2026-05-22T06:19:55.000Z</time>
      </trkpt>
      <trkpt lat="43.3121" lon="-1.30863">
        <ele>184.096398</ele>
        <time>2026-05-22T06:19:56.000Z</time>
      </trkpt>
      <trkpt lat="43.3121" lon="-1.3086">
        <ele>184.277651</ele>
        <time>2026-05-22T06:19:57.000Z</time>
      </trkpt>
      <trkpt lat="43.31209" lon="-1.30857">
        <ele>184.456527</ele>
        <time>2026-05-22T06:19:58.000Z</time>
      </trkpt>
      <trkpt lat="43.31209" lon="-1.30855">
        <ele>184.624386</ele>
        <time>2026-05-22T06:19:59.000Z</time>
      </trkpt>
      <trkpt lat="43.31209" lon="-1.30852">
        <ele>184.79796</ele>
        <time>2026-05-22T06:20:00.000Z</time>
      </trkpt>
      <trkpt lat="43.31209" lon="-1.30849">
        <ele>184.960637</ele>
        <time>2026-05-22T06:20:01.000Z</time>
      </trkpt>
      <trkpt lat="43.31208" lon="-1.30847">
        <ele>185.139512</ele>
        <time>2026-05-22T06:20:02.000Z</time>
      </trkpt>
      <trkpt lat="43.31208" lon="-1.30844">
        <ele>185.339324</ele>
        <time>2026-05-22T06:20:03.000Z</time>
      </trkpt>
      <trkpt lat="43.31208" lon="-1.30841">
        <ele>185.514683</ele>
        <time>2026-05-22T06:20:04.000Z</time>
      </trkpt>
      <trkpt lat="43.31208" lon="-1.30838">
        <ele>185.720324</ele>
        <time>2026-05-22T06:20:05.000Z</time>
      </trkpt>
      <trkpt lat="43.31207" lon="-1.30835">
        <ele>185.910408</ele>
        <time>2026-05-22T06:20:06.000Z</time>
      </trkpt>
      <trkpt lat="43.31206" lon="-1.30832">
        <ele>186.108007</ele>
        <time>2026-05-22T06:20:07.000Z</time>
      </trkpt>
      <trkpt lat="43.31206" lon="-1.30829">
        <ele>186.266086</ele>
        <time>2026-05-22T06:20:08.000Z</time>
      </trkpt>
      <trkpt lat="43.31206" lon="-1.30827">
        <ele>186.421182</ele>
        <time>2026-05-22T06:20:09.000Z</time>
      </trkpt>
      <trkpt lat="43.31206" lon="-1.30825">
        <ele>186.577527</ele>
        <time>2026-05-22T06:20:10.000Z</time>
      </trkpt>
      <trkpt lat="43.31206" lon="-1.30822">
        <ele>186.726246</ele>
        <time>2026-05-22T06:20:11.000Z</time>
      </trkpt>
      <trkpt lat="43.31206" lon="-1.3082">
        <ele>186.880587</ele>
        <time>2026-05-22T06:20:12.000Z</time>
      </trkpt>
      <trkpt lat="43.31206" lon="-1.30818">
        <ele>187.035683</ele>
        <time>2026-05-22T06:20:13.000Z</time>
      </trkpt>
      <trkpt lat="43.31206" lon="-1.30815">
        <ele>187.19836</ele>
        <time>2026-05-22T06:20:14.000Z</time>
      </trkpt>
      <trkpt lat="43.31205" lon="-1.30813">
        <ele>187.364367</ele>
        <time>2026-05-22T06:20:15.000Z</time>
      </trkpt>
      <trkpt lat="43.31205" lon="-1.3081">
        <ele>187.537027</ele>
        <time>2026-05-22T06:20:16.000Z</time>
      </trkpt>
      <trkpt lat="43.31204" lon="-1.30807">
        <ele>187.707647</ele>
        <time>2026-05-22T06:20:17.000Z</time>
      </trkpt>
      <trkpt lat="43.31204" lon="-1.30805">
        <ele>187.875507</ele>
        <time>2026-05-22T06:20:18.000Z</time>
      </trkpt>
      <trkpt lat="43.31204" lon="-1.30803">
        <ele>188.010622</ele>
        <time>2026-05-22T06:20:19.000Z</time>
      </trkpt>
      <trkpt lat="43.31204" lon="-1.308">
        <ele>188.158554</ele>
        <time>2026-05-22T06:20:20.000Z</time>
      </trkpt>
      <trkpt lat="43.31204" lon="-1.30798">
        <ele>188.308576</ele>
        <time>2026-05-22T06:20:21.000Z</time>
      </trkpt>
      <trkpt lat="43.31204" lon="-1.30796">
        <ele>188.476435</ele>
        <time>2026-05-22T06:20:22.000Z</time>
      </trkpt>
      <trkpt lat="43.31204" lon="-1.30793">
        <ele>188.656422</ele>
        <time>2026-05-22T06:20:23.000Z</time>
      </trkpt>
      <trkpt lat="43.31204" lon="-1.30791">
        <ele>188.797945</ele>
        <time>2026-05-22T06:20:24.000Z</time>
      </trkpt>
      <trkpt lat="43.31204" lon="-1.30788">
        <ele>188.932772</ele>
        <time>2026-05-22T06:20:25.000Z</time>
      </trkpt>
      <trkpt lat="43.31204" lon="-1.30786">
        <ele>189.07402</ele>
        <time>2026-05-22T06:20:26.000Z</time>
      </trkpt>
      <trkpt lat="43.31204" lon="-1.30784">
        <ele>189.232099</ele>
        <time>2026-05-22T06:20:27.000Z</time>
      </trkpt>
      <trkpt lat="43.31205" lon="-1.30781">
        <ele>189.413353</ele>
        <time>2026-05-22T06:20:28.000Z</time>
      </trkpt>
      <trkpt lat="43.31205" lon="-1.30779">
        <ele>189.585336</ele>
        <time>2026-05-22T06:20:29.000Z</time>
      </trkpt>
      <trkpt lat="43.31206" lon="-1.30776">
        <ele>189.749008</ele>
        <time>2026-05-22T06:20:30.000Z</time>
      </trkpt>
      <trkpt lat="43.31207" lon="-1.30774">
        <ele>189.887901</ele>
        <time>2026-05-22T06:20:31.000Z</time>
      </trkpt>
      <trkpt lat="43.31207" lon="-1.30772">
        <ele>190.019008</ele>
        <time>2026-05-22T06:20:32.000Z</time>
      </trkpt>
      <trkpt lat="43.31207" lon="-1.3077">
        <ele>190.147718</ele>
        <time>2026-05-22T06:20:33.000Z</time>
      </trkpt>
      <trkpt lat="43.31208" lon="-1.30768">
        <ele>190.30459</ele>
        <time>2026-05-22T06:20:34.000Z</time>
      </trkpt>
      <trkpt lat="43.31209" lon="-1.30766">
        <ele>190.479935</ele>
        <time>2026-05-22T06:20:35.000Z</time>
      </trkpt>
      <trkpt lat="43.31209" lon="-1.30763">
        <ele>190.677534</ele>
        <time>2026-05-22T06:20:36.000Z</time>
      </trkpt>
      <trkpt lat="43.31209" lon="-1.3076">
        <ele>190.84021</ele>
        <time>2026-05-22T06:20:37.000Z</time>
      </trkpt>
      <trkpt lat="43.31209" lon="-1.30758">
        <ele>190.968617</ele>
        <time>2026-05-22T06:20:38.000Z</time>
      </trkpt>
      <trkpt lat="43.3121" lon="-1.30756">
        <ele>191.10751</ele>
        <time>2026-05-22T06:20:39.000Z</time>
      </trkpt>
      <trkpt lat="43.31211" lon="-1.30754">
        <ele>191.273517</ele>
        <time>2026-05-22T06:20:40.000Z</time>
      </trkpt>
      <trkpt lat="43.31211" lon="-1.30751">
        <ele>191.419107</ele>
        <time>2026-05-22T06:20:41.000Z</time>
      </trkpt>
      <trkpt lat="43.31211" lon="-1.30749">
        <ele>191.561453</ele>
        <time>2026-05-22T06:20:42.000Z</time>
      </trkpt>
      <trkpt lat="43.31211" lon="-1.30746">
        <ele>191.741223</ele>
        <time>2026-05-22T06:20:43.000Z</time>
      </trkpt>
      <trkpt lat="43.31212" lon="-1.30744">
        <ele>191.897568</ele>
        <time>2026-05-22T06:20:44.000Z</time>
      </trkpt>
      <trkpt lat="43.31212" lon="-1.30742">
        <ele>192.046287</ele>
        <time>2026-05-22T06:20:45.000Z</time>
      </trkpt>
      <trkpt lat="43.31212" lon="-1.30739">
        <ele>192.227995</ele>
        <time>2026-05-22T06:20:46.000Z</time>
      </trkpt>
      <trkpt lat="43.31213" lon="-1.30736">
        <ele>192.409249</ele>
        <time>2026-05-22T06:20:47.000Z</time>
      </trkpt>
      <trkpt lat="43.31213" lon="-1.30734">
        <ele>192.563337</ele>
        <time>2026-05-22T06:20:48.000Z</time>
      </trkpt>
      <trkpt lat="43.31212" lon="-1.30731">
        <ele>192.732352</ele>
        <time>2026-05-22T06:20:49.000Z</time>
      </trkpt>
      <trkpt lat="43.31212" lon="-1.30729">
        <ele>192.901367</ele>
        <time>2026-05-22T06:20:50.000Z</time>
      </trkpt>
      <trkpt lat="43.31213" lon="-1.30726">
        <ele>193.080242</ele>
        <time>2026-05-22T06:20:51.000Z</time>
      </trkpt>
      <trkpt lat="43.31213" lon="-1.30723">
        <ele>193.26195</ele>
        <time>2026-05-22T06:20:52.000Z</time>
      </trkpt>
      <trkpt lat="43.31213" lon="-1.30721">
        <ele>193.403198</ele>
        <time>2026-05-22T06:20:53.000Z</time>
      </trkpt>
      <trkpt lat="43.31213" lon="-1.30719">
        <ele>193.540599</ele>
        <time>2026-05-22T06:20:54.000Z</time>
      </trkpt>
      <trkpt lat="43.31213" lon="-1.30717">
        <ele>193.682945</ele>
        <time>2026-05-22T06:20:55.000Z</time>
      </trkpt>
      <trkpt lat="43.31213" lon="-1.30715">
        <ele>193.812559</ele>
        <time>2026-05-22T06:20:56.000Z</time>
      </trkpt>
      <trkpt lat="43.31212" lon="-1.30712">
        <ele>193.976231</ele>
        <time>2026-05-22T06:20:57.000Z</time>
      </trkpt>
      <trkpt lat="43.31212" lon="-1.3071">
        <ele>194.112006</ele>
        <time>2026-05-22T06:20:58.000Z</time>
      </trkpt>
      <trkpt lat="43.31212" lon="-1.30708">
        <ele>194.273482</ele>
        <time>2026-05-22T06:20:59.000Z</time>
      </trkpt>
      <trkpt lat="43.31212" lon="-1.30705">
        <ele>194.436159</ele>
        <time>2026-05-22T06:21:00.000Z</time>
      </trkpt>
      <trkpt lat="43.31212" lon="-1.30703">
        <ele>194.609508</ele>
        <time>2026-05-22T06:21:01.000Z</time>
      </trkpt>
      <trkpt lat="43.31212" lon="-1.307">
        <ele>194.795907</ele>
        <time>2026-05-22T06:21:02.000Z</time>
      </trkpt>
      <trkpt lat="43.31212" lon="-1.30697">
        <ele>194.964921</ele>
        <time>2026-05-22T06:21:03.000Z</time>
      </trkpt>
      <trkpt lat="43.31212" lon="-1.30695">
        <ele>195.132083</ele>
        <time>2026-05-22T06:21:04.000Z</time>
      </trkpt>
      <trkpt lat="43.31212" lon="-1.30692">
        <ele>195.305657</ele>
        <time>2026-05-22T06:21:05.000Z</time>
      </trkpt>
      <trkpt lat="43.31212" lon="-1.30689">
        <ele>195.466408</ele>
        <time>2026-05-22T06:21:06.000Z</time>
      </trkpt>
      <trkpt lat="43.31212" lon="-1.30687">
        <ele>195.614339</ele>
        <time>2026-05-22T06:21:07.000Z</time>
      </trkpt>
      <trkpt lat="43.31212" lon="-1.30685">
        <ele>195.762271</ele>
        <time>2026-05-22T06:21:08.000Z</time>
      </trkpt>
      <trkpt lat="43.31212" lon="-1.30682">
        <ele>195.918616</ele>
        <time>2026-05-22T06:21:09.000Z</time>
      </trkpt>
      <trkpt lat="43.31213" lon="-1.3068">
        <ele>196.112187</ele>
        <time>2026-05-22T06:21:10.000Z</time>
      </trkpt>
      <trkpt lat="43.31213" lon="-1.30677">
        <ele>196.297043</ele>
        <time>2026-05-22T06:21:11.000Z</time>
      </trkpt>
      <trkpt lat="43.31214" lon="-1.30674">
        <ele>196.463504</ele>
        <time>2026-05-22T06:21:12.000Z</time>
      </trkpt>
      <trkpt lat="43.31214" lon="-1.30672">
        <ele>196.605366</ele>
        <time>2026-05-22T06:21:13.000Z</time>
      </trkpt>
      <trkpt lat="43.31215" lon="-1.3067">
        <ele>196.753344</ele>
        <time>2026-05-22T06:21:14.000Z</time>
      </trkpt>
      <trkpt lat="43.31215" lon="-1.30668">
        <ele>196.914819</ele>
        <time>2026-05-22T06:21:15.000Z</time>
      </trkpt>
      <trkpt lat="43.31216" lon="-1.30665">
        <ele>197.140263</ele>
        <time>2026-05-22T06:21:16.000Z</time>
      </trkpt>
      <trkpt lat="43.31216" lon="-1.30661">
        <ele>197.339293</ele>
        <time>2026-05-22T06:21:17.000Z</time>
      </trkpt>
      <trkpt lat="43.31216" lon="-1.30658">
        <ele>197.539105</ele>
        <time>2026-05-22T06:21:18.000Z</time>
      </trkpt>
      <trkpt lat="43.31216" lon="-1.30655">
        <ele>197.746254</ele>
        <time>2026-05-22T06:21:19.000Z</time>
      </trkpt>
      <trkpt lat="43.31217" lon="-1.30652">
        <ele>197.92624</ele>
        <time>2026-05-22T06:21:20.000Z</time>
      </trkpt>
      <trkpt lat="43.31217" lon="-1.30649">
        <ele>198.117585</ele>
        <time>2026-05-22T06:21:21.000Z</time>
      </trkpt>
      <trkpt lat="43.31218" lon="-1.30648">
        <ele>198.268503</ele>
        <time>2026-05-22T06:21:22.000Z</time>
      </trkpt>
      <trkpt lat="43.31219" lon="-1.30646">
        <ele>198.424979</ele>
        <time>2026-05-22T06:21:23.000Z</time>
      </trkpt>
      <trkpt lat="43.3122" lon="-1.30644">
        <ele>198.563872</ele>
        <time>2026-05-22T06:21:24.000Z</time>
      </trkpt>
      <trkpt lat="43.3122" lon="-1.30642">
        <ele>198.692582</ele>
        <time>2026-05-22T06:21:25.000Z</time>
      </trkpt>
      <trkpt lat="43.3122" lon="-1.30639">
        <ele>198.848927</ele>
        <time>2026-05-22T06:21:26.000Z</time>
      </trkpt>
      <trkpt lat="43.3122" lon="-1.30637">
        <ele>199.001387</ele>
        <time>2026-05-22T06:21:27.000Z</time>
      </trkpt>
      <trkpt lat="43.3122" lon="-1.30634">
        <ele>199.177969</ele>
        <time>2026-05-22T06:21:28.000Z</time>
      </trkpt>
      <trkpt lat="43.3122" lon="-1.30632">
        <ele>199.340065</ele>
        <time>2026-05-22T06:21:29.000Z</time>
      </trkpt>
      <trkpt lat="43.3122" lon="-1.30629">
        <ele>199.522658</ele>
        <time>2026-05-22T06:21:30.000Z</time>
      </trkpt>
      <trkpt lat="43.3122" lon="-1.30627">
        <ele>199.691763</ele>
        <time>2026-05-22T06:21:31.000Z</time>
      </trkpt>
      <trkpt lat="43.3122" lon="-1.30624">
        <ele>199.897756</ele>
        <time>2026-05-22T06:21:32.000Z</time>
      </trkpt>
      <trkpt lat="43.3122" lon="-1.30621">
        <ele>200.094499</ele>
        <time>2026-05-22T06:21:33.000Z</time>
      </trkpt>
      <trkpt lat="43.3122" lon="-1.30618">
        <ele>200.290365</ele>
        <time>2026-05-22T06:21:34.000Z</time>
      </trkpt>
      <trkpt lat="43.31219" lon="-1.30615">
        <ele>200.507288</ele>
        <time>2026-05-22T06:21:35.000Z</time>
      </trkpt>
      <trkpt lat="43.3122" lon="-1.30611">
        <ele>200.723614</ele>
        <time>2026-05-22T06:21:36.000Z</time>
      </trkpt>
      <trkpt lat="43.31219" lon="-1.30608">
        <ele>200.933809</ele>
        <time>2026-05-22T06:21:37.000Z</time>
      </trkpt>
      <trkpt lat="43.31219" lon="-1.30604">
        <ele>201.201272</ele>
        <time>2026-05-22T06:21:38.000Z</time>
      </trkpt>
      <trkpt lat="43.31219" lon="-1.30601">
        <ele>201.403891</ele>
        <time>2026-05-22T06:21:39.000Z</time>
      </trkpt>
      <trkpt lat="43.31219" lon="-1.30599">
        <ele>201.575022</ele>
        <time>2026-05-22T06:21:40.000Z</time>
      </trkpt>
      <trkpt lat="43.31218" lon="-1.30597">
        <ele>201.732839</ele>
        <time>2026-05-22T06:21:41.000Z</time>
      </trkpt>
      <trkpt lat="43.31218" lon="-1.30594">
        <ele>201.915433</ele>
        <time>2026-05-22T06:21:42.000Z</time>
      </trkpt>
      <trkpt lat="43.31218" lon="-1.30591">
        <ele>202.111518</ele>
        <time>2026-05-22T06:21:43.000Z</time>
      </trkpt>
      <trkpt lat="43.31218" lon="-1.30589">
        <ele>202.275988</ele>
        <time>2026-05-22T06:21:44.000Z</time>
      </trkpt>
      <trkpt lat="43.31218" lon="-1.30586">
        <ele>202.43133</ele>
        <time>2026-05-22T06:21:45.000Z</time>
      </trkpt>
      <trkpt lat="43.31218" lon="-1.30584">
        <ele>202.594485</ele>
        <time>2026-05-22T06:21:46.000Z</time>
      </trkpt>
      <trkpt lat="43.31218" lon="-1.30582">
        <ele>202.709677</ele>
        <time>2026-05-22T06:21:47.000Z</time>
      </trkpt>
      <trkpt lat="43.31217" lon="-1.30581">
        <ele>202.811261</ele>
        <time>2026-05-22T06:21:48.000Z</time>
      </trkpt>
      <trkpt lat="43.31217" lon="-1.30579">
        <ele>202.939587</ele>
        <time>2026-05-22T06:21:49.000Z</time>
      </trkpt>
      <trkpt lat="43.31217" lon="-1.30577">
        <ele>203.081724</ele>
        <time>2026-05-22T06:21:50.000Z</time>
      </trkpt>
      <trkpt lat="43.31217" lon="-1.30575">
        <ele>203.223558</ele>
        <time>2026-05-22T06:21:51.000Z</time>
      </trkpt>
      <trkpt lat="43.31217" lon="-1.30573">
        <ele>203.352219</ele>
        <time>2026-05-22T06:21:52.000Z</time>
      </trkpt>
      <trkpt lat="43.31217" lon="-1.30571">
        <ele>203.494052</ele>
        <time>2026-05-22T06:21:53.000Z</time>
      </trkpt>
      <trkpt lat="43.31217" lon="-1.30568">
        <ele>203.657208</ele>
        <time>2026-05-22T06:21:54.000Z</time>
      </trkpt>
      <trkpt lat="43.31217" lon="-1.30566">
        <ele>203.785533</ele>
        <time>2026-05-22T06:21:55.000Z</time>
      </trkpt>
      <trkpt lat="43.31217" lon="-1.30565">
        <ele>203.908514</ele>
        <time>2026-05-22T06:21:56.000Z</time>
      </trkpt>
      <trkpt lat="43.31218" lon="-1.30562">
        <ele>204.094613</ele>
        <time>2026-05-22T06:21:57.000Z</time>
      </trkpt>
      <trkpt lat="43.31218" lon="-1.3056">
        <ele>204.23675</ele>
        <time>2026-05-22T06:21:58.000Z</time>
      </trkpt>
      <trkpt lat="43.31218" lon="-1.30557">
        <ele>204.422849</ele>
        <time>2026-05-22T06:21:59.000Z</time>
      </trkpt>
      <trkpt lat="43.31219" lon="-1.30554">
        <ele>204.61102</ele>
        <time>2026-05-22T06:22:00.000Z</time>
      </trkpt>
      <trkpt lat="43.31219" lon="-1.30552">
        <ele>204.793613</ele>
        <time>2026-05-22T06:22:01.000Z</time>
      </trkpt>
      <trkpt lat="43.31219" lon="-1.3055">
        <ele>204.93575</ele>
        <time>2026-05-22T06:22:02.000Z</time>
      </trkpt>
      <trkpt lat="43.31219" lon="-1.30548">
        <ele>205.0721</ele>
        <time>2026-05-22T06:22:03.000Z</time>
      </trkpt>
      <trkpt lat="43.31218" lon="-1.30546">
        <ele>205.216641</ele>
        <time>2026-05-22T06:22:04.000Z</time>
      </trkpt>
      <trkpt lat="43.31218" lon="-1.30544">
        <ele>205.345302</ele>
        <time>2026-05-22T06:22:05.000Z</time>
      </trkpt>
      <trkpt lat="43.31218" lon="-1.30541">
        <ele>205.507398</ele>
        <time>2026-05-22T06:22:06.000Z</time>
      </trkpt>
      <trkpt lat="43.31218" lon="-1.30539">
        <ele>205.670553</ele>
        <time>2026-05-22T06:22:07.000Z</time>
      </trkpt>
      <trkpt lat="43.31218" lon="-1.30537">
        <ele>205.822929</ele>
        <time>2026-05-22T06:22:08.000Z</time>
      </trkpt>
      <trkpt lat="43.31218" lon="-1.30535">
        <ele>205.965066</ele>
        <time>2026-05-22T06:22:09.000Z</time>
      </trkpt>
      <trkpt lat="43.31218" lon="-1.30533">
        <ele>206.080258</ele>
        <time>2026-05-22T06:22:10.000Z</time>
      </trkpt>
      <trkpt lat="43.31218" lon="-1.30531">
        <ele>206.204978</ele>
        <time>2026-05-22T06:22:11.000Z</time>
      </trkpt>
      <trkpt lat="43.31217" lon="-1.30528">
        <ele>206.424202</ele>
        <time>2026-05-22T06:22:12.000Z</time>
      </trkpt>
      <trkpt lat="43.31217" lon="-1.30526">
        <ele>206.542348</ele>
        <time>2026-05-22T06:22:13.000Z</time>
      </trkpt>
      <trkpt lat="43.31217" lon="-1.30525">
        <ele>206.66392</ele>
        <time>2026-05-22T06:22:14.000Z</time>
      </trkpt>
      <trkpt lat="43.31218" lon="-1.30522">
        <ele>206.828943</ele>
        <time>2026-05-22T06:22:15.000Z</time>
      </trkpt>
      <trkpt lat="43.31218" lon="-1.3052">
        <ele>207.011537</ele>
        <time>2026-05-22T06:22:16.000Z</time>
      </trkpt>
      <trkpt lat="43.31218" lon="-1.30517">
        <ele>207.194131</ele>
        <time>2026-05-22T06:22:17.000Z</time>
      </trkpt>
      <trkpt lat="43.31218" lon="-1.30514">
        <ele>207.376724</ele>
        <time>2026-05-22T06:22:18.000Z</time>
      </trkpt>
      <trkpt lat="43.31218" lon="-1.30512">
        <ele>207.55621</ele>
        <time>2026-05-22T06:22:19.000Z</time>
      </trkpt>
      <trkpt lat="43.31219" lon="-1.30509">
        <ele>207.72068</ele>
        <time>2026-05-22T06:22:20.000Z</time>
      </trkpt>
      <trkpt lat="43.31218" lon="-1.30507">
        <ele>207.889784</ele>
        <time>2026-05-22T06:22:21.000Z</time>
      </trkpt>
      <trkpt lat="43.31218" lon="-1.30504">
        <ele>208.056078</ele>
        <time>2026-05-22T06:22:22.000Z</time>
      </trkpt>
      <trkpt lat="43.31218" lon="-1.30502">
        <ele>208.235564</ele>
        <time>2026-05-22T06:22:23.000Z</time>
      </trkpt>
      <trkpt lat="43.31217" lon="-1.30499">
        <ele>208.412146</ele>
        <time>2026-05-22T06:22:24.000Z</time>
      </trkpt>
      <trkpt lat="43.31217" lon="-1.30497">
        <ele>208.580755</ele>
        <time>2026-05-22T06:22:25.000Z</time>
      </trkpt>
      <trkpt lat="43.31216" lon="-1.30494">
        <ele>208.752151</ele>
        <time>2026-05-22T06:22:26.000Z</time>
      </trkpt>
      <trkpt lat="43.31215" lon="-1.30491">
        <ele>208.967066</ele>
        <time>2026-05-22T06:22:27.000Z</time>
      </trkpt>
      <trkpt lat="43.31214" lon="-1.30489">
        <ele>209.165693</ele>
        <time>2026-05-22T06:22:28.000Z</time>
      </trkpt>
      <trkpt lat="43.31213" lon="-1.30486">
        <ele>209.390023</ele>
        <time>2026-05-22T06:22:29.000Z</time>
      </trkpt>
      <trkpt lat="43.31212" lon="-1.30484">
        <ele>209.55012</ele>
        <time>2026-05-22T06:22:30.000Z</time>
      </trkpt>
      <trkpt lat="43.31211" lon="-1.30482">
        <ele>209.728415</ele>
        <time>2026-05-22T06:22:31.000Z</time>
      </trkpt>
      <trkpt lat="43.3121" lon="-1.30479">
        <ele>209.897923</ele>
        <time>2026-05-22T06:22:32.000Z</time>
      </trkpt>
      <trkpt lat="43.3121" lon="-1.30478">
        <ele>210.034383</ele>
        <time>2026-05-22T06:22:33.000Z</time>
      </trkpt>
      <trkpt lat="43.31209" lon="-1.30476">
        <ele>210.174273</ele>
        <time>2026-05-22T06:22:34.000Z</time>
      </trkpt>
      <trkpt lat="43.31209" lon="-1.30474">
        <ele>210.307995</ele>
        <time>2026-05-22T06:22:35.000Z</time>
      </trkpt>
      <trkpt lat="43.31208" lon="-1.30472">
        <ele>210.435607</ele>
        <time>2026-05-22T06:22:36.000Z</time>
      </trkpt>
      <trkpt lat="43.31207" lon="-1.3047">
        <ele>210.594433</ele>
        <time>2026-05-22T06:22:37.000Z</time>
      </trkpt>
      <trkpt lat="43.31206" lon="-1.30468">
        <ele>210.764357</ele>
        <time>2026-05-22T06:22:38.000Z</time>
      </trkpt>
      <trkpt lat="43.31205" lon="-1.30467">
        <ele>210.895476</ele>
        <time>2026-05-22T06:22:39.000Z</time>
      </trkpt>
      <trkpt lat="43.31204" lon="-1.30465">
        <ele>211.071625</ele>
        <time>2026-05-22T06:22:40.000Z</time>
      </trkpt>
      <trkpt lat="43.31203" lon="-1.30463">
        <ele>211.230386</ele>
        <time>2026-05-22T06:22:41.000Z</time>
      </trkpt>
      <trkpt lat="43.31202" lon="-1.30461">
        <ele>211.389147</ele>
        <time>2026-05-22T06:22:42.000Z</time>
      </trkpt>
      <trkpt lat="43.31201" lon="-1.3046">
        <ele>211.520458</ele>
        <time>2026-05-22T06:22:43.000Z</time>
      </trkpt>
      <trkpt lat="43.312" lon="-1.30458">
        <ele>211.669129</ele>
        <time>2026-05-22T06:22:44.000Z</time>
      </trkpt>
      <trkpt lat="43.31198" lon="-1.30456">
        <ele>211.84042</ele>
        <time>2026-05-22T06:22:45.000Z</time>
      </trkpt>
      <trkpt lat="43.31197" lon="-1.30455">
        <ele>211.982251</ele>
        <time>2026-05-22T06:22:46.000Z</time>
      </trkpt>
      <trkpt lat="43.31196" lon="-1.30453">
        <ele>212.119655</ele>
        <time>2026-05-22T06:22:47.000Z</time>
      </trkpt>
      <trkpt lat="43.31195" lon="-1.30452">
        <ele>212.268326</ele>
        <time>2026-05-22T06:22:48.000Z</time>
      </trkpt>
      <trkpt lat="43.31194" lon="-1.30451">
        <ele>212.396096</ele>
        <time>2026-05-22T06:22:49.000Z</time>
      </trkpt>
      <trkpt lat="43.31193" lon="-1.30449">
        <ele>212.542205</ele>
        <time>2026-05-22T06:22:50.000Z</time>
      </trkpt>
      <trkpt lat="43.31192" lon="-1.30448">
        <ele>212.668378</ele>
        <time>2026-05-22T06:22:51.000Z</time>
      </trkpt>
      <trkpt lat="43.31191" lon="-1.30446">
        <ele>212.788734</ele>
        <time>2026-05-22T06:22:52.000Z</time>
      </trkpt>
      <trkpt lat="43.3119" lon="-1.30444">
        <ele>212.941691</ele>
        <time>2026-05-22T06:22:53.000Z</time>
      </trkpt>
      <trkpt lat="43.31189" lon="-1.30443">
        <ele>213.10166</ele>
        <time>2026-05-22T06:22:54.000Z</time>
      </trkpt>
      <trkpt lat="43.31188" lon="-1.30441">
        <ele>213.250892</ele>
        <time>2026-05-22T06:22:55.000Z</time>
      </trkpt>
      <trkpt lat="43.31187" lon="-1.3044">
        <ele>213.392723</ele>
        <time>2026-05-22T06:22:56.000Z</time>
      </trkpt>
      <trkpt lat="43.31186" lon="-1.30439">
        <ele>213.503678</ele>
        <time>2026-05-22T06:22:57.000Z</time>
      </trkpt>
      <trkpt lat="43.31185" lon="-1.30438">
        <ele>213.611081</ele>
        <time>2026-05-22T06:22:58.000Z</time>
      </trkpt>
      <trkpt lat="43.31183" lon="-1.30438">
        <ele>213.7266</ele>
        <time>2026-05-22T06:22:59.000Z</time>
      </trkpt>
      <trkpt lat="43.31182" lon="-1.30437">
        <ele>213.856864</ele>
        <time>2026-05-22T06:23:00.000Z</time>
      </trkpt>
      <trkpt lat="43.31181" lon="-1.30435">
        <ele>214.017575</ele>
        <time>2026-05-22T06:23:01.000Z</time>
      </trkpt>
      <trkpt lat="43.3118" lon="-1.30434">
        <ele>214.162936</ele>
        <time>2026-05-22T06:23:02.000Z</time>
      </trkpt>
      <trkpt lat="43.31178" lon="-1.30433">
        <ele>214.2976</ele>
        <time>2026-05-22T06:23:03.000Z</time>
      </trkpt>
      <trkpt lat="43.31177" lon="-1.30431">
        <ele>214.443709</ele>
        <time>2026-05-22T06:23:04.000Z</time>
      </trkpt>
      <trkpt lat="43.31176" lon="-1.3043">
        <ele>214.582872</ele>
        <time>2026-05-22T06:23:05.000Z</time>
      </trkpt>
      <trkpt lat="43.31175" lon="-1.30428">
        <ele>214.731543</ele>
        <time>2026-05-22T06:23:06.000Z</time>
      </trkpt>
      <trkpt lat="43.31174" lon="-1.30427">
        <ele>214.880215</ele>
        <time>2026-05-22T06:23:07.000Z</time>
      </trkpt>
      <trkpt lat="43.31173" lon="-1.30425">
        <ele>215.030783</ele>
        <time>2026-05-22T06:23:08.000Z</time>
      </trkpt>
      <trkpt lat="43.31172" lon="-1.30424">
        <ele>215.17462</ele>
        <time>2026-05-22T06:23:09.000Z</time>
      </trkpt>
      <trkpt lat="43.3117" lon="-1.30422">
        <ele>215.325188</ele>
        <time>2026-05-22T06:23:10.000Z</time>
      </trkpt>
      <trkpt lat="43.31169" lon="-1.30421">
        <ele>215.467645</ele>
        <time>2026-05-22T06:23:11.000Z</time>
      </trkpt>
      <trkpt lat="43.31168" lon="-1.30419">
        <ele>215.616877</ele>
        <time>2026-05-22T06:23:12.000Z</time>
      </trkpt>
      <trkpt lat="43.31167" lon="-1.30418">
        <ele>215.780699</ele>
        <time>2026-05-22T06:23:13.000Z</time>
      </trkpt>
      <trkpt lat="43.31166" lon="-1.30417">
        <ele>215.931827</ele>
        <time>2026-05-22T06:23:14.000Z</time>
      </trkpt>
      <trkpt lat="43.31165" lon="-1.30416">
        <ele>216.057767</ele>
        <time>2026-05-22T06:23:15.000Z</time>
      </trkpt>
      <trkpt lat="43.31163" lon="-1.30415">
        <ele>216.230625</ele>
        <time>2026-05-22T06:23:16.000Z</time>
      </trkpt>
      <trkpt lat="43.31162" lon="-1.30413">
        <ele>216.369159</ele>
        <time>2026-05-22T06:23:17.000Z</time>
      </trkpt>
      <trkpt lat="43.31161" lon="-1.30412">
        <ele>216.534347</ele>
        <time>2026-05-22T06:23:18.000Z</time>
      </trkpt>
      <trkpt lat="43.3116" lon="-1.3041">
        <ele>216.699535</ele>
        <time>2026-05-22T06:23:19.000Z</time>
      </trkpt>
      <trkpt lat="43.31159" lon="-1.30409">
        <ele>216.85221</ele>
        <time>2026-05-22T06:23:20.000Z</time>
      </trkpt>
      <trkpt lat="43.31158" lon="-1.30408">
        <ele>217.002955</ele>
        <time>2026-05-22T06:23:21.000Z</time>
      </trkpt>
      <trkpt lat="43.31157" lon="-1.30406">
        <ele>217.166062</ele>
        <time>2026-05-22T06:23:22.000Z</time>
      </trkpt>
      <trkpt lat="43.31155" lon="-1.30404">
        <ele>217.32917</ele>
        <time>2026-05-22T06:23:23.000Z</time>
      </trkpt>
      <trkpt lat="43.31154" lon="-1.30403">
        <ele>217.491152</ele>
        <time>2026-05-22T06:23:24.000Z</time>
      </trkpt>
      <trkpt lat="43.31154" lon="-1.30401">
        <ele>217.659143</ele>
        <time>2026-05-22T06:23:25.000Z</time>
      </trkpt>
      <trkpt lat="43.31153" lon="-1.30399">
        <ele>217.815433</ele>
        <time>2026-05-22T06:23:26.000Z</time>
      </trkpt>
      <trkpt lat="43.31152" lon="-1.30397">
        <ele>217.98961</ele>
        <time>2026-05-22T06:23:27.000Z</time>
      </trkpt>
      <trkpt lat="43.31151" lon="-1.30396">
        <ele>218.145899</ele>
        <time>2026-05-22T06:23:28.000Z</time>
      </trkpt>
      <trkpt lat="43.3115" lon="-1.30394">
        <ele>218.302188</ele>
        <time>2026-05-22T06:23:29.000Z</time>
      </trkpt>
      <trkpt lat="43.31149" lon="-1.30392">
        <ele>218.47018</ele>
        <time>2026-05-22T06:23:30.000Z</time>
      </trkpt>
      <trkpt lat="43.31148" lon="-1.3039">
        <ele>218.632011</ele>
        <time>2026-05-22T06:23:31.000Z</time>
      </trkpt>
      <trkpt lat="43.31147" lon="-1.30388">
        <ele>218.787793</ele>
        <time>2026-05-22T06:23:32.000Z</time>
      </trkpt>
      <trkpt lat="43.31146" lon="-1.30387">
        <ele>218.943574</ele>
        <time>2026-05-22T06:23:33.000Z</time>
      </trkpt>
      <trkpt lat="43.31145" lon="-1.30385">
        <ele>219.093427</ele>
        <time>2026-05-22T06:23:34.000Z</time>
      </trkpt>
      <trkpt lat="43.31145" lon="-1.30384">
        <ele>219.22547</ele>
        <time>2026-05-22T06:23:35.000Z</time>
      </trkpt>
      <trkpt lat="43.31144" lon="-1.30382">
        <ele>219.36932</ele>
        <time>2026-05-22T06:23:36.000Z</time>
      </trkpt>
      <trkpt lat="43.31143" lon="-1.3038">
        <ele>219.516027</ele>
        <time>2026-05-22T06:23:37.000Z</time>
      </trkpt>
      <trkpt lat="43.31143" lon="-1.30378">
        <ele>219.669721</ele>
        <time>2026-05-22T06:23:38.000Z</time>
      </trkpt>
      <trkpt lat="43.31143" lon="-1.30376">
        <ele>219.828299</ele>
        <time>2026-05-22T06:23:39.000Z</time>
      </trkpt>
      <trkpt lat="43.31142" lon="-1.30374">
        <ele>219.99903</ele>
        <time>2026-05-22T06:23:40.000Z</time>
      </trkpt>
      <trkpt lat="43.31142" lon="-1.30372">
        <ele>220.15988</ele>
        <time>2026-05-22T06:23:41.000Z</time>
      </trkpt>
      <trkpt lat="43.31142" lon="-1.3037">
        <ele>220.323606</ele>
        <time>2026-05-22T06:23:42.000Z</time>
      </trkpt>
      <trkpt lat="43.31141" lon="-1.30367">
        <ele>220.501527</ele>
        <time>2026-05-22T06:23:43.000Z</time>
      </trkpt>
      <trkpt lat="43.3114" lon="-1.30366">
        <ele>220.648234</ele>
        <time>2026-05-22T06:23:44.000Z</time>
      </trkpt>
      <trkpt lat="43.3114" lon="-1.30364">
        <ele>220.801928</ele>
        <time>2026-05-22T06:23:45.000Z</time>
      </trkpt>
      <trkpt lat="43.31139" lon="-1.30361">
        <ele>220.969101</ele>
        <time>2026-05-22T06:23:46.000Z</time>
      </trkpt>
      <trkpt lat="43.31139" lon="-1.30359">
        <ele>221.126036</ele>
        <time>2026-05-22T06:23:47.000Z</time>
      </trkpt>
      <trkpt lat="43.31139" lon="-1.30357">
        <ele>221.305035</ele>
        <time>2026-05-22T06:23:48.000Z</time>
      </trkpt>
      <trkpt lat="43.31139" lon="-1.30355">
        <ele>221.476675</ele>
        <time>2026-05-22T06:23:49.000Z</time>
      </trkpt>
      <trkpt lat="43.31139" lon="-1.30352">
        <ele>221.647406</ele>
        <time>2026-05-22T06:23:50.000Z</time>
      </trkpt>
      <trkpt lat="43.31139" lon="-1.3035">
        <ele>221.8011</ele>
        <time>2026-05-22T06:23:51.000Z</time>
      </trkpt>
      <trkpt lat="43.31138" lon="-1.30348">
        <ele>221.97897</ele>
        <time>2026-05-22T06:23:52.000Z</time>
      </trkpt>
      <trkpt lat="43.31138" lon="-1.30346">
        <ele>222.159412</ele>
        <time>2026-05-22T06:23:53.000Z</time>
      </trkpt>
      <trkpt lat="43.31138" lon="-1.30343">
        <ele>222.338412</ele>
        <time>2026-05-22T06:23:54.000Z</time>
      </trkpt>
      <trkpt lat="43.31138" lon="-1.30341">
        <ele>222.494352</ele>
        <time>2026-05-22T06:23:55.000Z</time>
      </trkpt>
      <trkpt lat="43.31139" lon="-1.30339">
        <ele>222.657687</ele>
        <time>2026-05-22T06:23:56.000Z</time>
      </trkpt>
      <trkpt lat="43.31138" lon="-1.30337">
        <ele>222.821971</ele>
        <time>2026-05-22T06:23:57.000Z</time>
      </trkpt>
      <trkpt lat="43.31138" lon="-1.30335">
        <ele>222.962759</ele>
        <time>2026-05-22T06:23:58.000Z</time>
      </trkpt>
      <trkpt lat="43.31138" lon="-1.30333">
        <ele>223.118366</ele>
        <time>2026-05-22T06:23:59.000Z</time>
      </trkpt>
      <trkpt lat="43.31138" lon="-1.30331">
        <ele>223.273973</ele>
        <time>2026-05-22T06:24:00.000Z</time>
      </trkpt>
      <trkpt lat="43.31138" lon="-1.30329">
        <ele>223.415129</ele>
        <time>2026-05-22T06:24:01.000Z</time>
      </trkpt>
      <trkpt lat="43.31138" lon="-1.30327">
        <ele>223.570736</ele>
        <time>2026-05-22T06:24:02.000Z</time>
      </trkpt>
      <trkpt lat="43.31138" lon="-1.30324">
        <ele>223.734071</ele>
        <time>2026-05-22T06:24:03.000Z</time>
      </trkpt>
      <trkpt lat="43.31139" lon="-1.30322">
        <ele>223.894922</ele>
        <time>2026-05-22T06:24:04.000Z</time>
      </trkpt>
      <trkpt lat="43.31139" lon="-1.3032">
        <ele>224.075364</ele>
        <time>2026-05-22T06:24:05.000Z</time>
      </trkpt>
      <trkpt lat="43.31139" lon="-1.30318">
        <ele>224.233942</ele>
        <time>2026-05-22T06:24:06.000Z</time>
      </trkpt>
      <trkpt lat="43.3114" lon="-1.30316">
        <ele>224.392519</ele>
        <time>2026-05-22T06:24:07.000Z</time>
      </trkpt>
      <trkpt lat="43.3114" lon="-1.30314">
        <ele>224.555854</ele>
        <time>2026-05-22T06:24:08.000Z</time>
      </trkpt>
      <trkpt lat="43.3114" lon="-1.30312">
        <ele>224.705445</ele>
        <time>2026-05-22T06:24:09.000Z</time>
      </trkpt>
      <trkpt lat="43.3114" lon="-1.30309">
        <ele>224.869729</ele>
        <time>2026-05-22T06:24:10.000Z</time>
      </trkpt>
      <trkpt lat="43.3114" lon="-1.30307">
        <ele>225.03058</ele>
        <time>2026-05-22T06:24:11.000Z</time>
      </trkpt>
      <trkpt lat="43.31141" lon="-1.30305">
        <ele>225.190879</ele>
        <time>2026-05-22T06:24:12.000Z</time>
      </trkpt>
      <trkpt lat="43.31141" lon="-1.30303">
        <ele>225.344353</ele>
        <time>2026-05-22T06:24:13.000Z</time>
      </trkpt>
      <trkpt lat="43.31142" lon="-1.30301">
        <ele>225.494065</ele>
        <time>2026-05-22T06:24:14.000Z</time>
      </trkpt>
      <trkpt lat="43.31142" lon="-1.30299">
        <ele>225.661239</ele>
        <time>2026-05-22T06:24:15.000Z</time>
      </trkpt>
      <trkpt lat="43.31143" lon="-1.30297">
        <ele>225.819817</ele>
        <time>2026-05-22T06:24:16.000Z</time>
      </trkpt>
      <trkpt lat="43.31143" lon="-1.30295">
        <ele>225.984101</ele>
        <time>2026-05-22T06:24:17.000Z</time>
      </trkpt>
      <trkpt lat="43.31143" lon="-1.30293">
        <ele>226.148386</ele>
        <time>2026-05-22T06:24:18.000Z</time>
      </trkpt>
      <trkpt lat="43.31143" lon="-1.30291">
        <ele>226.306963</ele>
        <time>2026-05-22T06:24:19.000Z</time>
      </trkpt>
      <trkpt lat="43.31144" lon="-1.30289">
        <ele>226.467814</ele>
        <time>2026-05-22T06:24:20.000Z</time>
      </trkpt>
      <trkpt lat="43.31144" lon="-1.30286">
        <ele>226.645684</ele>
        <time>2026-05-22T06:24:21.000Z</time>
      </trkpt>
      <trkpt lat="43.31145" lon="-1.30284">
        <ele>226.813713</ele>
        <time>2026-05-22T06:24:22.000Z</time>
      </trkpt>
      <trkpt lat="43.31145" lon="-1.30282">
        <ele>226.972291</ele>
        <time>2026-05-22T06:24:23.000Z</time>
      </trkpt>
      <trkpt lat="43.31145" lon="-1.3028">
        <ele>227.136576</ele>
        <time>2026-05-22T06:24:24.000Z</time>
      </trkpt>
      <trkpt lat="43.31146" lon="-1.30278">
        <ele>227.302431</ele>
        <time>2026-05-22T06:24:25.000Z</time>
      </trkpt>
      <trkpt lat="43.31146" lon="-1.30275">
        <ele>227.47046</ele>
        <time>2026-05-22T06:24:26.000Z</time>
      </trkpt>
      <trkpt lat="43.31146" lon="-1.30273">
        <ele>227.621773</ele>
        <time>2026-05-22T06:24:27.000Z</time>
      </trkpt>
      <trkpt lat="43.31147" lon="-1.30272">
        <ele>227.768335</ele>
        <time>2026-05-22T06:24:28.000Z</time>
      </trkpt>
      <trkpt lat="43.31147" lon="-1.30269">
        <ele>227.932061</ele>
        <time>2026-05-22T06:24:29.000Z</time>
      </trkpt>
      <trkpt lat="43.31148" lon="-1.30267">
        <ele>228.092911</ele>
        <time>2026-05-22T06:24:30.000Z</time>
      </trkpt>
      <trkpt lat="43.31148" lon="-1.30265">
        <ele>228.266054</ele>
        <time>2026-05-22T06:24:31.000Z</time>
      </trkpt>
      <trkpt lat="43.31148" lon="-1.30263">
        <ele>228.422989</ele>
        <time>2026-05-22T06:24:32.000Z</time>
      </trkpt>
      <trkpt lat="43.31148" lon="-1.30261">
        <ele>228.572579</ele>
        <time>2026-05-22T06:24:33.000Z</time>
      </trkpt>
      <trkpt lat="43.31149" lon="-1.30259">
        <ele>228.733429</ele>
        <time>2026-05-22T06:24:34.000Z</time>
      </trkpt>
      <trkpt lat="43.31149" lon="-1.30257">
        <ele>228.894279</ele>
        <time>2026-05-22T06:24:35.000Z</time>
      </trkpt>
      <trkpt lat="43.31149" lon="-1.30255">
        <ele>229.042826</ele>
        <time>2026-05-22T06:24:36.000Z</time>
      </trkpt>
      <trkpt lat="43.3115" lon="-1.30253">
        <ele>229.203676</ele>
        <time>2026-05-22T06:24:37.000Z</time>
      </trkpt>
      <trkpt lat="43.3115" lon="-1.30251">
        <ele>229.35499</ele>
        <time>2026-05-22T06:24:38.000Z</time>
      </trkpt>
      <trkpt lat="43.3115" lon="-1.30249">
        <ele>229.522163</ele>
        <time>2026-05-22T06:24:39.000Z</time>
      </trkpt>
      <trkpt lat="43.31151" lon="-1.30246">
        <ele>229.689336</ele>
        <time>2026-05-22T06:24:40.000Z</time>
      </trkpt>
      <trkpt lat="43.31151" lon="-1.30244">
        <ele>229.857365</ele>
        <time>2026-05-22T06:24:41.000Z</time>
      </trkpt>
      <trkpt lat="43.31152" lon="-1.30242">
        <ele>230.025394</ele>
        <time>2026-05-22T06:24:42.000Z</time>
      </trkpt>
      <trkpt lat="43.31152" lon="-1.3024">
        <ele>230.189678</ele>
        <time>2026-05-22T06:24:43.000Z</time>
      </trkpt>
      <trkpt lat="43.31153" lon="-1.30238">
        <ele>230.356851</ele>
        <time>2026-05-22T06:24:44.000Z</time>
      </trkpt>
      <trkpt lat="43.31153" lon="-1.30236">
        <ele>230.51715</ele>
        <time>2026-05-22T06:24:45.000Z</time>
      </trkpt>
      <trkpt lat="43.31154" lon="-1.30234">
        <ele>230.67385</ele>
        <time>2026-05-22T06:24:46.000Z</time>
      </trkpt>
      <trkpt lat="43.31154" lon="-1.30232">
        <ele>230.841023</ele>
        <time>2026-05-22T06:24:47.000Z</time>
      </trkpt>
      <trkpt lat="43.31155" lon="-1.30229">
        <ele>231.006878</ele>
        <time>2026-05-22T06:24:48.000Z</time>
      </trkpt>
      <trkpt lat="43.31155" lon="-1.30227">
        <ele>231.162485</ele>
        <time>2026-05-22T06:24:49.000Z</time>
      </trkpt>
      <trkpt lat="43.31155" lon="-1.30225">
        <ele>231.332911</ele>
        <time>2026-05-22T06:24:50.000Z</time>
      </trkpt>
      <trkpt lat="43.31155" lon="-1.30223">
        <ele>231.496246</ele>
        <time>2026-05-22T06:24:51.000Z</time>
      </trkpt>
      <trkpt lat="43.31155" lon="-1.30221">
        <ele>231.654824</ele>
        <time>2026-05-22T06:24:52.000Z</time>
      </trkpt>
      <trkpt lat="43.31155" lon="-1.30219">
        <ele>231.813401</ele>
        <time>2026-05-22T06:24:53.000Z</time>
      </trkpt>
      <trkpt lat="43.31156" lon="-1.30217">
        <ele>231.971979</ele>
        <time>2026-05-22T06:24:54.000Z</time>
      </trkpt>
      <trkpt lat="43.31156" lon="-1.30214">
        <ele>232.140007</ele>
        <time>2026-05-22T06:24:55.000Z</time>
      </trkpt>
      <trkpt lat="43.31157" lon="-1.30212">
        <ele>232.303733</ele>
        <time>2026-05-22T06:24:56.000Z</time>
      </trkpt>
      <trkpt lat="43.31157" lon="-1.3021">
        <ele>232.455046</ele>
        <time>2026-05-22T06:24:57.000Z</time>
      </trkpt>
      <trkpt lat="43.31157" lon="-1.30208">
        <ele>232.604636</ele>
        <time>2026-05-22T06:24:58.000Z</time>
      </trkpt>
      <trkpt lat="43.31157" lon="-1.30206">
        <ele>232.765486</ele>
        <time>2026-05-22T06:24:59.000Z</time>
      </trkpt>
      <trkpt lat="43.31158" lon="-1.30204">
        <ele>232.92977</ele>
        <time>2026-05-22T06:25:00.000Z</time>
      </trkpt>
      <trkpt lat="43.31158" lon="-1.30202">
        <ele>233.081084</ele>
        <time>2026-05-22T06:25:01.000Z</time>
      </trkpt>
      <trkpt lat="43.31158" lon="-1.302">
        <ele>233.234777</ele>
        <time>2026-05-22T06:25:02.000Z</time>
      </trkpt>
      <trkpt lat="43.31159" lon="-1.30198">
        <ele>233.381338</ele>
        <time>2026-05-22T06:25:03.000Z</time>
      </trkpt>
      <trkpt lat="43.31159" lon="-1.30196">
        <ele>233.5279</ele>
        <time>2026-05-22T06:25:04.000Z</time>
      </trkpt>
      <trkpt lat="43.3116" lon="-1.30194">
        <ele>233.705821</ele>
        <time>2026-05-22T06:25:05.000Z</time>
      </trkpt>
      <trkpt lat="43.3116" lon="-1.30192">
        <ele>233.859514</ele>
        <time>2026-05-22T06:25:06.000Z</time>
      </trkpt>
      <trkpt lat="43.31161" lon="-1.3019">
        <ele>234.017997</ele>
        <time>2026-05-22T06:25:07.000Z</time>
      </trkpt>
      <trkpt lat="43.31161" lon="-1.30188">
        <ele>234.173714</ele>
        <time>2026-05-22T06:25:08.000Z</time>
      </trkpt>
      <trkpt lat="43.31161" lon="-1.30186">
        <ele>234.308973</ele>
        <time>2026-05-22T06:25:09.000Z</time>
      </trkpt>
      <trkpt lat="43.31162" lon="-1.30184">
        <ele>234.464691</ele>
        <time>2026-05-22T06:25:10.000Z</time>
      </trkpt>
      <trkpt lat="43.31162" lon="-1.30181">
        <ele>234.624987</ele>
        <time>2026-05-22T06:25:11.000Z</time>
      </trkpt>
      <trkpt lat="43.31162" lon="-1.30179">
        <ele>234.778706</ele>
        <time>2026-05-22T06:25:12.000Z</time>
      </trkpt>
      <trkpt lat="43.31163" lon="-1.30177">
        <ele>234.933105</ele>
        <time>2026-05-22T06:25:13.000Z</time>
      </trkpt>
      <trkpt lat="43.31164" lon="-1.30175">
        <ele>235.093802</ele>
        <time>2026-05-22T06:25:14.000Z</time>
      </trkpt>
      <trkpt lat="43.31164" lon="-1.30173">
        <ele>235.250758</ele>
        <time>2026-05-22T06:25:15.000Z</time>
      </trkpt>
      <trkpt lat="43.31165" lon="-1.30171">
        <ele>235.404477</ele>
        <time>2026-05-22T06:25:16.000Z</time>
      </trkpt>
      <trkpt lat="43.31165" lon="-1.30169">
        <ele>235.562236</ele>
        <time>2026-05-22T06:25:17.000Z</time>
      </trkpt>
      <trkpt lat="43.31165" lon="-1.30166">
        <ele>235.723385</ele>
        <time>2026-05-22T06:25:18.000Z</time>
      </trkpt>
      <trkpt lat="43.31166" lon="-1.30164">
        <ele>235.88373</ele>
        <time>2026-05-22T06:25:19.000Z</time>
      </trkpt>
      <trkpt lat="43.31166" lon="-1.30162">
        <ele>236.040686</ele>
        <time>2026-05-22T06:25:20.000Z</time>
      </trkpt>
      <trkpt lat="43.31167" lon="-1.3016">
        <ele>236.204137</ele>
        <time>2026-05-22T06:25:21.000Z</time>
      </trkpt>
      <trkpt lat="43.31167" lon="-1.30158">
        <ele>236.361896</ele>
        <time>2026-05-22T06:25:22.000Z</time>
      </trkpt>
      <trkpt lat="43.31168" lon="-1.30156">
        <ele>236.506195</ele>
        <time>2026-05-22T06:25:23.000Z</time>
      </trkpt>
      <trkpt lat="43.31168" lon="-1.30154">
        <ele>236.657214</ele>
        <time>2026-05-22T06:25:24.000Z</time>
      </trkpt>
      <trkpt lat="43.31169" lon="-1.30151">
        <ele>236.81756</ele>
        <time>2026-05-22T06:25:25.000Z</time>
      </trkpt>
      <trkpt lat="43.31169" lon="-1.30149">
        <ele>236.974515</ele>
        <time>2026-05-22T06:25:26.000Z</time>
      </trkpt>
      <trkpt lat="43.3117" lon="-1.30147">
        <ele>237.125017</ele>
        <time>2026-05-22T06:25:27.000Z</time>
      </trkpt>
      <trkpt lat="43.31171" lon="-1.30145">
        <ele>237.295</ele>
        <time>2026-05-22T06:25:28.000Z</time>
      </trkpt>
      <trkpt lat="43.31171" lon="-1.30143">
        <ele>237.448718</ele>
        <time>2026-05-22T06:25:29.000Z</time>
      </trkpt>
      <trkpt lat="43.31172" lon="-1.30141">
        <ele>237.605674</ele>
        <time>2026-05-22T06:25:30.000Z</time>
      </trkpt>
      <trkpt lat="43.31172" lon="-1.30139">
        <ele>237.766019</ele>
        <time>2026-05-22T06:25:31.000Z</time>
      </trkpt>
      <trkpt lat="43.31173" lon="-1.30137">
        <ele>237.920418</ele>
        <time>2026-05-22T06:25:32.000Z</time>
      </trkpt>
      <trkpt lat="43.31174" lon="-1.30134">
        <ele>238.081115</ele>
        <time>2026-05-22T06:25:33.000Z</time>
      </trkpt>
      <trkpt lat="43.31174" lon="-1.30132">
        <ele>238.248161</ele>
        <time>2026-05-22T06:25:34.000Z</time>
      </trkpt>
      <trkpt lat="43.31175" lon="-1.3013">
        <ele>238.395284</ele>
        <time>2026-05-22T06:25:35.000Z</time>
      </trkpt>
      <trkpt lat="43.31175" lon="-1.30128">
        <ele>238.552239</ele>
        <time>2026-05-22T06:25:36.000Z</time>
      </trkpt>
      <trkpt lat="43.31176" lon="-1.30126">
        <ele>238.709195</ele>
        <time>2026-05-22T06:25:37.000Z</time>
      </trkpt>
      <trkpt lat="43.31177" lon="-1.30124">
        <ele>238.863594</ele>
        <time>2026-05-22T06:25:38.000Z</time>
      </trkpt>
      <trkpt lat="43.31177" lon="-1.30122">
        <ele>239.011754</ele>
        <time>2026-05-22T06:25:39.000Z</time>
      </trkpt>
      <trkpt lat="43.31178" lon="-1.3012">
        <ele>239.180576</ele>
        <time>2026-05-22T06:25:40.000Z</time>
      </trkpt>
      <trkpt lat="43.31179" lon="-1.30118">
        <ele>239.339354</ele>
        <time>2026-05-22T06:25:41.000Z</time>
      </trkpt>
      <trkpt lat="43.3118" lon="-1.30116">
        <ele>239.496309</ele>
        <time>2026-05-22T06:25:42.000Z</time>
      </trkpt>
      <trkpt lat="43.3118" lon="-1.30114">
        <ele>239.653264</ele>
        <time>2026-05-22T06:25:43.000Z</time>
      </trkpt>
      <trkpt lat="43.31181" lon="-1.30112">
        <ele>239.797358</ele>
        <time>2026-05-22T06:25:44.000Z</time>
      </trkpt>
      <trkpt lat="43.31182" lon="-1.3011">
        <ele>239.955081</ele>
        <time>2026-05-22T06:25:45.000Z</time>
      </trkpt>
      <trkpt lat="43.31183" lon="-1.30108">
        <ele>240.118679</ele>
        <time>2026-05-22T06:25:46.000Z</time>
      </trkpt>
      <trkpt lat="43.31184" lon="-1.30106">
        <ele>240.283587</ele>
        <time>2026-05-22T06:25:47.000Z</time>
      </trkpt>
      <trkpt lat="43.31184" lon="-1.30104">
        <ele>240.431747</ele>
        <time>2026-05-22T06:25:48.000Z</time>
      </trkpt>
      <trkpt lat="43.31185" lon="-1.30102">
        <ele>240.579907</ele>
        <time>2026-05-22T06:25:49.000Z</time>
      </trkpt>
      <trkpt lat="43.31186" lon="-1.301">
        <ele>240.732624</ele>
        <time>2026-05-22T06:25:50.000Z</time>
      </trkpt>
      <trkpt lat="43.31187" lon="-1.30099">
        <ele>240.884706</ele>
        <time>2026-05-22T06:25:51.000Z</time>
      </trkpt>
      <trkpt lat="43.31188" lon="-1.30097">
        <ele>241.025553</ele>
        <time>2026-05-22T06:25:52.000Z</time>
      </trkpt>
      <trkpt lat="43.31189" lon="-1.30095">
        <ele>241.177634</ele>
        <time>2026-05-22T06:25:53.000Z</time>
      </trkpt>
      <trkpt lat="43.3119" lon="-1.30093">
        <ele>241.346457</ele>
        <time>2026-05-22T06:25:54.000Z</time>
      </trkpt>
      <trkpt lat="43.3119" lon="-1.30091">
        <ele>241.494617</ele>
        <time>2026-05-22T06:25:55.000Z</time>
      </trkpt>
      <trkpt lat="43.31191" lon="-1.3009">
        <ele>241.640876</ele>
        <time>2026-05-22T06:25:56.000Z</time>
      </trkpt>
      <trkpt lat="43.31192" lon="-1.30088">
        <ele>241.787136</ele>
        <time>2026-05-22T06:25:57.000Z</time>
      </trkpt>
      <trkpt lat="43.31193" lon="-1.30086">
        <ele>241.939853</ele>
        <time>2026-05-22T06:25:58.000Z</time>
      </trkpt>
      <trkpt lat="43.31194" lon="-1.30084">
        <ele>242.097406</ele>
        <time>2026-05-22T06:25:59.000Z</time>
      </trkpt>
      <trkpt lat="43.31195" lon="-1.30083">
        <ele>242.238937</ele>
        <time>2026-05-22T06:26:00.000Z</time>
      </trkpt>
      <trkpt lat="43.31196" lon="-1.30081">
        <ele>242.387096</ele>
        <time>2026-05-22T06:26:01.000Z</time>
      </trkpt>
      <trkpt lat="43.31197" lon="-1.3008">
        <ele>242.540234</ele>
        <time>2026-05-22T06:26:02.000Z</time>
      </trkpt>
      <trkpt lat="43.31198" lon="-1.30078">
        <ele>242.697786</ele>
        <time>2026-05-22T06:26:03.000Z</time>
      </trkpt>
      <trkpt lat="43.31199" lon="-1.30076">
        <ele>242.850924</ele>
        <time>2026-05-22T06:26:04.000Z</time>
      </trkpt>
      <trkpt lat="43.312" lon="-1.30075">
        <ele>243.009191</ele>
        <time>2026-05-22T06:26:05.000Z</time>
      </trkpt>
      <trkpt lat="43.31201" lon="-1.30073">
        <ele>243.166743</ele>
        <time>2026-05-22T06:26:06.000Z</time>
      </trkpt>
      <trkpt lat="43.31202" lon="-1.30071">
        <ele>243.314901</ele>
        <time>2026-05-22T06:26:07.000Z</time>
      </trkpt>
      <trkpt lat="43.31204" lon="-1.3007">
        <ele>243.476446</ele>
        <time>2026-05-22T06:26:08.000Z</time>
      </trkpt>
      <trkpt lat="43.31205" lon="-1.30068">
        <ele>243.65381</ele>
        <time>2026-05-22T06:26:09.000Z</time>
      </trkpt>
      <trkpt lat="43.31206" lon="-1.30067">
        <ele>243.806948</ele>
        <time>2026-05-22T06:26:10.000Z</time>
      </trkpt>
      <trkpt lat="43.31208" lon="-1.30065">
        <ele>243.966803</ele>
        <time>2026-05-22T06:26:11.000Z</time>
      </trkpt>
      <trkpt lat="43.31209" lon="-1.30063">
        <ele>244.124355</ele>
        <time>2026-05-22T06:26:12.000Z</time>
      </trkpt>
      <trkpt lat="43.3121" lon="-1.30062">
        <ele>244.284211</ele>
        <time>2026-05-22T06:26:13.000Z</time>
      </trkpt>
      <trkpt lat="43.31211" lon="-1.30061">
        <ele>244.426102</ele>
        <time>2026-05-22T06:26:14.000Z</time>
      </trkpt>
      <trkpt lat="43.31212" lon="-1.30059">
        <ele>244.569445</ele>
        <time>2026-05-22T06:26:15.000Z</time>
      </trkpt>
      <trkpt lat="43.31213" lon="-1.30058">
        <ele>244.739171</ele>
        <time>2026-05-22T06:26:16.000Z</time>
      </trkpt>
      <trkpt lat="43.31215" lon="-1.30056">
        <ele>244.89708</ele>
        <time>2026-05-22T06:26:17.000Z</time>
      </trkpt>
      <trkpt lat="43.31216" lon="-1.30055">
        <ele>245.045238</ele>
        <time>2026-05-22T06:26:18.000Z</time>
      </trkpt>
      <trkpt lat="43.31217" lon="-1.30053">
        <ele>245.188581</ele>
        <time>2026-05-22T06:26:19.000Z</time>
      </trkpt>
      <trkpt lat="43.31218" lon="-1.30052">
        <ele>245.34649</ele>
        <time>2026-05-22T06:26:20.000Z</time>
      </trkpt>
      <trkpt lat="43.31219" lon="-1.30051">
        <ele>245.482973</ele>
        <time>2026-05-22T06:26:21.000Z</time>
      </trkpt>
      <trkpt lat="43.3122" lon="-1.30049">
        <ele>245.629709</ele>
        <time>2026-05-22T06:26:22.000Z</time>
      </trkpt>
      <trkpt lat="43.31221" lon="-1.30048">
        <ele>245.784801</ele>
        <time>2026-05-22T06:26:23.000Z</time>
      </trkpt>
      <trkpt lat="43.31223" lon="-1.30046">
        <ele>245.934528</ele>
        <time>2026-05-22T06:26:24.000Z</time>
      </trkpt>
      <trkpt lat="43.31224" lon="-1.30045">
        <ele>246.092283</ele>
        <time>2026-05-22T06:26:25.000Z</time>
      </trkpt>
      <trkpt lat="43.31225" lon="-1.30044">
        <ele>246.230994</ele>
        <time>2026-05-22T06:26:26.000Z</time>
      </trkpt>
      <trkpt lat="43.31226" lon="-1.30042">
        <ele>246.374337</ele>
        <time>2026-05-22T06:26:27.000Z</time>
      </trkpt>
      <trkpt lat="43.31227" lon="-1.30041">
        <ele>246.51768</ele>
        <time>2026-05-22T06:26:28.000Z</time>
      </trkpt>
      <trkpt lat="43.31229" lon="-1.3004">
        <ele>246.671395</ele>
        <time>2026-05-22T06:26:29.000Z</time>
      </trkpt>
      <trkpt lat="43.3123" lon="-1.30038">
        <ele>246.826486</ele>
        <time>2026-05-22T06:26:30.000Z</time>
      </trkpt>
      <trkpt lat="43.31231" lon="-1.30037">
        <ele>246.991261</ele>
        <time>2026-05-22T06:26:31.000Z</time>
      </trkpt>
      <trkpt lat="43.31232" lon="-1.30035">
        <ele>247.132793</ele>
        <time>2026-05-22T06:26:32.000Z</time>
      </trkpt>
      <trkpt lat="43.31234" lon="-1.30034">
        <ele>247.302518</ele>
        <time>2026-05-22T06:26:33.000Z</time>
      </trkpt>
      <trkpt lat="43.31235" lon="-1.30032">
        <ele>247.46481</ele>
        <time>2026-05-22T06:26:34.000Z</time>
      </trkpt>
      <trkpt lat="43.31236" lon="-1.30031">
        <ele>247.612968</ele>
        <time>2026-05-22T06:26:35.000Z</time>
      </trkpt>
      <trkpt lat="43.31237" lon="-1.30029">
        <ele>247.771235</ele>
        <time>2026-05-22T06:26:36.000Z</time>
      </trkpt>
      <trkpt lat="43.31238" lon="-1.30027">
        <ele>247.923315</ele>
        <time>2026-05-22T06:26:37.000Z</time>
      </trkpt>
      <trkpt lat="43.31239" lon="-1.30026">
        <ele>248.076453</ele>
        <time>2026-05-22T06:26:38.000Z</time>
      </trkpt>
      <trkpt lat="43.3124" lon="-1.30024">
        <ele>248.248023</ele>
        <time>2026-05-22T06:26:39.000Z</time>
      </trkpt>
      <trkpt lat="43.31242" lon="-1.30022">
        <ele>248.428364</ele>
        <time>2026-05-22T06:26:40.000Z</time>
      </trkpt>
      <trkpt lat="43.31243" lon="-1.3002">
        <ele>248.597281</ele>
        <time>2026-05-22T06:26:41.000Z</time>
      </trkpt>
      <trkpt lat="43.31244" lon="-1.30018">
        <ele>248.773718</ele>
        <time>2026-05-22T06:26:42.000Z</time>
      </trkpt>
      <trkpt lat="43.31245" lon="-1.30017">
        <ele>248.926855</ele>
        <time>2026-05-22T06:26:43.000Z</time>
      </trkpt>
      <trkpt lat="43.31246" lon="-1.30015">
        <ele>249.078795</ele>
        <time>2026-05-22T06:26:44.000Z</time>
      </trkpt>
      <trkpt lat="43.31247" lon="-1.30013">
        <ele>249.248347</ele>
        <time>2026-05-22T06:26:45.000Z</time>
      </trkpt>
      <trkpt lat="43.31248" lon="-1.30011">
        <ele>249.40607</ele>
        <time>2026-05-22T06:26:46.000Z</time>
      </trkpt>
      <trkpt lat="43.31249" lon="-1.30009">
        <ele>249.575622</ele>
        <time>2026-05-22T06:26:47.000Z</time>
      </trkpt>
      <trkpt lat="43.3125" lon="-1.30007">
        <ele>249.734398</ele>
        <time>2026-05-22T06:26:48.000Z</time>
      </trkpt>
      <trkpt lat="43.3125" lon="-1.30005">
        <ele>249.882557</ele>
        <time>2026-05-22T06:26:49.000Z</time>
      </trkpt>
      <trkpt lat="43.31251" lon="-1.30003">
        <ele>250.039511</ele>
        <time>2026-05-22T06:26:50.000Z</time>
      </trkpt>
      <trkpt lat="43.31251" lon="-1.3">
        <ele>250.204026</ele>
        <time>2026-05-22T06:26:51.000Z</time>
      </trkpt>
      <trkpt lat="43.31252" lon="-1.29998">
        <ele>250.364369</ele>
        <time>2026-05-22T06:26:52.000Z</time>
      </trkpt>
      <trkpt lat="43.31252" lon="-1.29996">
        <ele>250.518086</ele>
        <time>2026-05-22T06:26:53.000Z</time>
      </trkpt>
      <trkpt lat="43.31253" lon="-1.29994">
        <ele>250.678429</ele>
        <time>2026-05-22T06:26:54.000Z</time>
      </trkpt>
      <trkpt lat="43.31253" lon="-1.29992">
        <ele>250.839576</ele>
        <time>2026-05-22T06:26:55.000Z</time>
      </trkpt>
      <trkpt lat="43.31253" lon="-1.29989">
        <ele>250.992627</ele>
        <time>2026-05-22T06:26:56.000Z</time>
      </trkpt>
      <trkpt lat="43.31253" lon="-1.29987">
        <ele>251.142563</ele>
        <time>2026-05-22T06:26:57.000Z</time>
      </trkpt>
      <trkpt lat="43.31253" lon="-1.29985">
        <ele>251.255975</ele>
        <time>2026-05-22T06:26:58.000Z</time>
      </trkpt>
      <trkpt lat="43.31254" lon="-1.29983">
        <ele>251.365566</ele>
        <time>2026-05-22T06:26:59.000Z</time>
      </trkpt>
      <trkpt lat="43.31254" lon="-1.29981">
        <ele>251.469262</ele>
        <time>2026-05-22T06:27:00.000Z</time>
      </trkpt>
      <trkpt lat="43.31254" lon="-1.29978">
        <ele>251.572081</ele>
        <time>2026-05-22T06:27:01.000Z</time>
      </trkpt>
      <trkpt lat="43.31253" lon="-1.29976">
        <ele>251.676863</ele>
        <time>2026-05-22T06:27:02.000Z</time>
      </trkpt>
      <trkpt lat="43.31253" lon="-1.29974">
        <ele>251.779901</ele>
        <time>2026-05-22T06:27:03.000Z</time>
      </trkpt>
      <trkpt lat="43.31253" lon="-1.29972">
        <ele>251.884683</ele>
        <time>2026-05-22T06:27:04.000Z</time>
      </trkpt>
      <trkpt lat="43.31253" lon="-1.2997">
        <ele>251.986238</ele>
        <time>2026-05-22T06:27:05.000Z</time>
      </trkpt>
      <trkpt lat="43.31252" lon="-1.29968">
        <ele>252.092522</ele>
        <time>2026-05-22T06:27:06.000Z</time>
      </trkpt>
      <trkpt lat="43.31252" lon="-1.29966">
        <ele>252.201074</ele>
        <time>2026-05-22T06:27:07.000Z</time>
      </trkpt>
      <trkpt lat="43.31252" lon="-1.29964">
        <ele>252.305856</ele>
        <time>2026-05-22T06:27:08.000Z</time>
      </trkpt>
      <trkpt lat="43.31252" lon="-1.29962">
        <ele>252.409552</ele>
        <time>2026-05-22T06:27:09.000Z</time>
      </trkpt>
      <trkpt lat="43.31251" lon="-1.29959">
        <ele>252.518105</ele>
        <time>2026-05-22T06:27:10.000Z</time>
      </trkpt>
      <trkpt lat="43.31251" lon="-1.29957">
        <ele>252.629132</ele>
        <time>2026-05-22T06:27:11.000Z</time>
      </trkpt>
      <trkpt lat="43.3125" lon="-1.29955">
        <ele>252.732673</ele>
        <time>2026-05-22T06:27:12.000Z</time>
      </trkpt>
      <trkpt lat="43.3125" lon="-1.29953">
        <ele>252.836945</ele>
        <time>2026-05-22T06:27:13.000Z</time>
      </trkpt>
      <trkpt lat="43.31249" lon="-1.29951">
        <ele>252.935869</ele>
        <time>2026-05-22T06:27:14.000Z</time>
      </trkpt>
      <trkpt lat="43.31249" lon="-1.29949">
        <ele>253.048964</ele>
        <time>2026-05-22T06:27:15.000Z</time>
      </trkpt>
      <trkpt lat="43.31248" lon="-1.29947">
        <ele>253.161811</ele>
        <time>2026-05-22T06:27:16.000Z</time>
      </trkpt>
      <trkpt lat="43.31247" lon="-1.29945">
        <ele>253.286061</ele>
        <time>2026-05-22T06:27:17.000Z</time>
      </trkpt>
      <trkpt lat="43.31247" lon="-1.29942">
        <ele>253.403591</ele>
        <time>2026-05-22T06:27:18.000Z</time>
      </trkpt>
      <trkpt lat="43.31246" lon="-1.2994">
        <ele>253.518624</ele>
        <time>2026-05-22T06:27:19.000Z</time>
      </trkpt>
      <trkpt lat="43.31246" lon="-1.29938">
        <ele>253.633657</ele>
        <time>2026-05-22T06:27:20.000Z</time>
      </trkpt>
      <trkpt lat="43.31245" lon="-1.29936">
        <ele>253.74466</ele>
        <time>2026-05-22T06:27:21.000Z</time>
      </trkpt>
      <trkpt lat="43.31244" lon="-1.29934">
        <ele>253.848932</ele>
        <time>2026-05-22T06:27:22.000Z</time>
      </trkpt>
      <trkpt lat="43.31243" lon="-1.29932">
        <ele>253.955864</ele>
        <time>2026-05-22T06:27:23.000Z</time>
      </trkpt>
      <trkpt lat="43.31242" lon="-1.29931">
        <ele>254.054882</ele>
        <time>2026-05-22T06:27:24.000Z</time>
      </trkpt>
      <trkpt lat="43.31242" lon="-1.29929">
        <ele>254.166626</ele>
        <time>2026-05-22T06:27:25.000Z</time>
      </trkpt>
      <trkpt lat="43.31241" lon="-1.29927">
        <ele>254.274106</ele>
        <time>2026-05-22T06:27:26.000Z</time>
      </trkpt>
      <trkpt lat="43.3124" lon="-1.29925">
        <ele>254.385108</ele>
        <time>2026-05-22T06:27:27.000Z</time>
      </trkpt>
      <trkpt lat="43.31239" lon="-1.29923">
        <ele>254.492041</ele>
        <time>2026-05-22T06:27:28.000Z</time>
      </trkpt>
      <trkpt lat="43.31238" lon="-1.29922">
        <ele>254.599073</ele>
        <time>2026-05-22T06:27:29.000Z</time>
      </trkpt>
      <trkpt lat="43.31237" lon="-1.2992">
        <ele>254.708224</ele>
        <time>2026-05-22T06:27:30.000Z</time>
      </trkpt>
      <trkpt lat="43.31236" lon="-1.29918">
        <ele>254.815256</ele>
        <time>2026-05-22T06:27:31.000Z</time>
      </trkpt>
      <trkpt lat="43.31235" lon="-1.29917">
        <ele>254.926642</ele>
        <time>2026-05-22T06:27:32.000Z</time>
      </trkpt>
      <trkpt lat="43.31234" lon="-1.29915">
        <ele>255.034418</ele>
        <time>2026-05-22T06:27:33.000Z</time>
      </trkpt>
      <trkpt lat="43.31233" lon="-1.29914">
        <ele>255.129609</ele>
        <time>2026-05-22T06:27:34.000Z</time>
      </trkpt>
      <trkpt lat="43.31232" lon="-1.29912">
        <ele>255.226548</ele>
        <time>2026-05-22T06:27:35.000Z</time>
      </trkpt>
      <trkpt lat="43.31232" lon="-1.2991">
        <ele>255.325472</ele>
        <time>2026-05-22T06:27:36.000Z</time>
      </trkpt>
      <trkpt lat="43.31231" lon="-1.29908">
        <ele>255.419806</ele>
        <time>2026-05-22T06:27:37.000Z</time>
      </trkpt>
      <trkpt lat="43.31231" lon="-1.29906">
        <ele>255.509584</ele>
        <time>2026-05-22T06:27:38.000Z</time>
      </trkpt>
      <trkpt lat="43.3123" lon="-1.29904">
        <ele>255.613856</ele>
        <time>2026-05-22T06:27:39.000Z</time>
      </trkpt>
      <trkpt lat="43.31229" lon="-1.29903">
        <ele>255.721336</ele>
        <time>2026-05-22T06:27:40.000Z</time>
      </trkpt>
      <trkpt lat="43.31228" lon="-1.29901">
        <ele>255.828815</ele>
        <time>2026-05-22T06:27:41.000Z</time>
      </trkpt>
      <trkpt lat="43.31227" lon="-1.29899">
        <ele>255.939698</ele>
        <time>2026-05-22T06:27:42.000Z</time>
      </trkpt>
      <trkpt lat="43.31226" lon="-1.29897">
        <ele>256.060446</ele>
        <time>2026-05-22T06:27:43.000Z</time>
      </trkpt>
      <trkpt lat="43.31225" lon="-1.29895">
        <ele>256.175259</ele>
        <time>2026-05-22T06:27:44.000Z</time>
      </trkpt>
      <trkpt lat="43.31224" lon="-1.29893">
        <ele>256.290071</ele>
        <time>2026-05-22T06:27:45.000Z</time>
      </trkpt>
      <trkpt lat="43.31223" lon="-1.29892">
        <ele>256.397004</ele>
        <time>2026-05-22T06:27:46.000Z</time>
      </trkpt>
      <trkpt lat="43.31222" lon="-1.2989">
        <ele>256.512141</ele>
        <time>2026-05-22T06:27:47.000Z</time>
      </trkpt>
      <trkpt lat="43.31221" lon="-1.29888">
        <ele>256.623024</ele>
        <time>2026-05-22T06:27:48.000Z</time>
      </trkpt>
      <trkpt lat="43.3122" lon="-1.29886">
        <ele>256.741905</ele>
        <time>2026-05-22T06:27:49.000Z</time>
      </trkpt>
      <trkpt lat="43.31219" lon="-1.29884">
        <ele>256.846178</ele>
        <time>2026-05-22T06:27:50.000Z</time>
      </trkpt>
      <trkpt lat="43.31219" lon="-1.29882">
        <ele>256.954841</ele>
        <time>2026-05-22T06:27:51.000Z</time>
      </trkpt>
      <trkpt lat="43.31218" lon="-1.2988">
        <ele>257.072371</ele>
        <time>2026-05-22T06:27:52.000Z</time>
      </trkpt>
      <trkpt lat="43.31218" lon="-1.29878">
        <ele>257.182833</ele>
        <time>2026-05-22T06:27:53.000Z</time>
      </trkpt>
      <trkpt lat="43.31217" lon="-1.29875">
        <ele>257.300398</ele>
        <time>2026-05-22T06:27:54.000Z</time>
      </trkpt>
      <trkpt lat="43.31216" lon="-1.29873">
        <ele>257.420949</ele>
        <time>2026-05-22T06:27:55.000Z</time>
      </trkpt>
      <trkpt lat="43.31216" lon="-1.29871">
        <ele>257.539225</ele>
        <time>2026-05-22T06:27:56.000Z</time>
      </trkpt>
      <trkpt lat="43.31216" lon="-1.29868">
        <ele>257.656756</ele>
        <time>2026-05-22T06:27:57.000Z</time>
      </trkpt>
      <trkpt lat="43.31215" lon="-1.29866">
        <ele>257.778822</ele>
        <time>2026-05-22T06:27:58.000Z</time>
      </trkpt>
      <trkpt lat="43.31215" lon="-1.29864">
        <ele>257.901051</ele>
        <time>2026-05-22T06:27:59.000Z</time>
      </trkpt>
      <trkpt lat="43.31214" lon="-1.29861">
        <ele>258.020281</ele>
        <time>2026-05-22T06:28:00.000Z</time>
      </trkpt>
      <trkpt lat="43.31214" lon="-1.29859">
        <ele>258.144531</ele>
        <time>2026-05-22T06:28:01.000Z</time>
      </trkpt>
      <trkpt lat="43.31213" lon="-1.29856">
        <ele>258.266761</ele>
        <time>2026-05-22T06:28:02.000Z</time>
      </trkpt>
      <trkpt lat="43.31213" lon="-1.29854">
        <ele>258.40167</ele>
        <time>2026-05-22T06:28:03.000Z</time>
      </trkpt>
      <trkpt lat="43.31212" lon="-1.29851">
        <ele>258.528267</ele>
        <time>2026-05-22T06:28:04.000Z</time>
      </trkpt>
      <trkpt lat="43.31212" lon="-1.29849">
        <ele>258.655211</ele>
        <time>2026-05-22T06:28:05.000Z</time>
      </trkpt>
      <trkpt lat="43.31211" lon="-1.29846">
        <ele>258.785326</ele>
        <time>2026-05-22T06:28:06.000Z</time>
      </trkpt>
      <trkpt lat="43.31211" lon="-1.29843">
        <ele>258.920235</ele>
        <time>2026-05-22T06:28:07.000Z</time>
      </trkpt>
      <trkpt lat="43.3121" lon="-1.29841">
        <ele>259.053964</ele>
        <time>2026-05-22T06:28:08.000Z</time>
      </trkpt>
      <trkpt lat="43.3121" lon="-1.29838">
        <ele>259.186844</ele>
        <time>2026-05-22T06:28:09.000Z</time>
      </trkpt>
      <trkpt lat="43.3121" lon="-1.29835">
        <ele>259.320574</ele>
        <time>2026-05-22T06:28:10.000Z</time>
      </trkpt>
      <trkpt lat="43.3121" lon="-1.29833">
        <ele>259.454303</ele>
        <time>2026-05-22T06:28:11.000Z</time>
      </trkpt>
      <trkpt lat="43.31209" lon="-1.2983">
        <ele>259.59772</ele>
        <time>2026-05-22T06:28:12.000Z</time>
      </trkpt>
      <trkpt lat="43.31209" lon="-1.29827">
        <ele>259.736291</ele>
        <time>2026-05-22T06:28:13.000Z</time>
      </trkpt>
      <trkpt lat="43.31209" lon="-1.29824">
        <ele>259.878916</ele>
        <time>2026-05-22T06:28:14.000Z</time>
      </trkpt>
      <trkpt lat="43.31209" lon="-1.29821">
        <ele>260.021065</ele>
        <time>2026-05-22T06:28:15.000Z</time>
      </trkpt>
      <trkpt lat="43.31209" lon="-1.29818">
        <ele>260.172995</ele>
        <time>2026-05-22T06:28:16.000Z</time>
      </trkpt>
      <trkpt lat="43.31208" lon="-1.29815">
        <ele>260.325372</ele>
        <time>2026-05-22T06:28:17.000Z</time>
      </trkpt>
      <trkpt lat="43.31208" lon="-1.29811">
        <ele>260.496871</ele>
        <time>2026-05-22T06:28:18.000Z</time>
      </trkpt>
      <trkpt lat="43.31208" lon="-1.29808">
        <ele>260.663341</ele>
        <time>2026-05-22T06:28:19.000Z</time>
      </trkpt>
      <trkpt lat="43.31208" lon="-1.29805">
        <ele>260.829811</ele>
        <time>2026-05-22T06:28:20.000Z</time>
      </trkpt>
      <trkpt lat="43.31208" lon="-1.29801">
        <ele>261.001309</ele>
        <time>2026-05-22T06:28:21.000Z</time>
      </trkpt>
      <trkpt lat="43.31208" lon="-1.29797">
        <ele>261.182592</ele>
        <time>2026-05-22T06:28:22.000Z</time>
      </trkpt>
      <trkpt lat="43.31208" lon="-1.29794">
        <ele>261.358983</ele>
        <time>2026-05-22T06:28:23.000Z</time>
      </trkpt>
      <trkpt lat="43.31208" lon="-1.2979">
        <ele>261.540142</ele>
        <time>2026-05-22T06:28:24.000Z</time>
      </trkpt>
      <trkpt lat="43.31208" lon="-1.29786">
        <ele>261.735989</ele>
        <time>2026-05-22T06:28:25.000Z</time>
      </trkpt>
      <trkpt lat="43.31209" lon="-1.29782">
        <ele>261.931951</ele>
        <time>2026-05-22T06:28:26.000Z</time>
      </trkpt>
      <trkpt lat="43.31209" lon="-1.29778">
        <ele>262.133145</ele>
        <time>2026-05-22T06:28:27.000Z</time>
      </trkpt>
      <trkpt lat="43.31209" lon="-1.29774">
        <ele>262.339224</ele>
        <time>2026-05-22T06:28:28.000Z</time>
      </trkpt>
      <trkpt lat="43.31209" lon="-1.2977">
        <ele>262.535187</ele>
        <time>2026-05-22T06:28:29.000Z</time>
      </trkpt>
      <trkpt lat="43.31209" lon="-1.29766">
        <ele>262.726612</ele>
        <time>2026-05-22T06:28:30.000Z</time>
      </trkpt>
      <trkpt lat="43.3121" lon="-1.29762">
        <ele>262.923496</ele>
        <time>2026-05-22T06:28:31.000Z</time>
      </trkpt>
      <trkpt lat="43.3121" lon="-1.29758">
        <ele>263.117388</ele>
        <time>2026-05-22T06:28:32.000Z</time>
      </trkpt>
      <trkpt lat="43.3121" lon="-1.29754">
        <ele>263.244258</ele>
        <time>2026-05-22T06:28:33.000Z</time>
      </trkpt>
      <trkpt lat="43.31209" lon="-1.29751">
        <ele>263.264298</ele>
        <time>2026-05-22T06:28:34.000Z</time>
      </trkpt>
      <trkpt lat="43.31209" lon="-1.29748">
        <ele>263.282934</ele>
        <time>2026-05-22T06:28:35.000Z</time>
      </trkpt>
      <trkpt lat="43.31209" lon="-1.29745">
        <ele>263.298966</ele>
        <time>2026-05-22T06:28:36.000Z</time>
      </trkpt>
      <trkpt lat="43.31208" lon="-1.29744">
        <ele>263.308261</ele>
        <time>2026-05-22T06:28:37.000Z</time>
      </trkpt>
      <trkpt lat="43.31208" lon="-1.29743">
        <ele>263.311581</ele>
        <time>2026-05-22T06:28:38.000Z</time>
      </trkpt>
      <trkpt lat="43.31209" lon="-1.29734">
        <ele>263.363464</ele>
        <time>2026-05-22T06:29:05.000Z</time>
      </trkpt>
      <trkpt lat="43.31209" lon="-1.2973">
        <ele>263.389115</ele>
        <time>2026-05-22T06:29:06.000Z</time>
      </trkpt>
      <trkpt lat="43.31209" lon="-1.29725">
        <ele>263.414766</ele>
        <time>2026-05-22T06:29:07.000Z</time>
      </trkpt>
      <trkpt lat="43.31209" lon="-1.29721">
        <ele>263.4399</ele>
        <time>2026-05-22T06:29:08.000Z</time>
      </trkpt>
      <trkpt lat="43.3121" lon="-1.29717">
        <ele>263.465551</ele>
        <time>2026-05-22T06:29:09.000Z</time>
      </trkpt>
      <trkpt lat="43.3121" lon="-1.29712">
        <ele>263.491165</ele>
        <time>2026-05-22T06:29:10.000Z</time>
      </trkpt>
      <trkpt lat="43.3121" lon="-1.29708">
        <ele>263.519196</ele>
        <time>2026-05-22T06:29:11.000Z</time>
      </trkpt>
      <trkpt lat="43.3121" lon="-1.29703">
        <ele>263.547807</ele>
        <time>2026-05-22T06:29:12.000Z</time>
      </trkpt>
      <trkpt lat="43.3121" lon="-1.29698">
        <ele>263.576944</ele>
        <time>2026-05-22T06:29:13.000Z</time>
      </trkpt>
      <trkpt lat="43.31211" lon="-1.29693">
        <ele>263.606886</ele>
        <time>2026-05-22T06:29:14.000Z</time>
      </trkpt>
      <trkpt lat="43.31211" lon="-1.29688">
        <ele>263.636077</ele>
        <time>2026-05-22T06:29:15.000Z</time>
      </trkpt>
      <trkpt lat="43.31211" lon="-1.29682">
        <ele>263.667537</ele>
        <time>2026-05-22T06:29:16.000Z</time>
      </trkpt>
      <trkpt lat="43.31212" lon="-1.29677">
        <ele>263.698633</ele>
        <time>2026-05-22T06:29:17.000Z</time>
      </trkpt>
      <trkpt lat="43.31212" lon="-1.29671">
        <ele>263.730306</ele>
        <time>2026-05-22T06:29:18.000Z</time>
      </trkpt>
      <trkpt lat="43.31213" lon="-1.29666">
        <ele>263.762467</ele>
        <time>2026-05-22T06:29:19.000Z</time>
      </trkpt>
      <trkpt lat="43.31213" lon="-1.29661">
        <ele>263.794251</ele>
        <time>2026-05-22T06:29:20.000Z</time>
      </trkpt>
      <trkpt lat="43.31214" lon="-1.29655">
        <ele>263.826342</ele>
        <time>2026-05-22T06:29:21.000Z</time>
      </trkpt>
      <trkpt lat="43.31214" lon="-1.29649">
        <ele>263.859082</ele>
        <time>2026-05-22T06:29:22.000Z</time>
      </trkpt>
      <trkpt lat="43.31214" lon="-1.29644">
        <ele>263.892334</ele>
        <time>2026-05-22T06:29:23.000Z</time>
      </trkpt>
      <trkpt lat="43.31215" lon="-1.29638">
        <ele>263.927472</ele>
        <time>2026-05-22T06:29:24.000Z</time>
      </trkpt>
      <trkpt lat="43.31215" lon="-1.29632">
        <ele>263.963626</ele>
        <time>2026-05-22T06:29:25.000Z</time>
      </trkpt>
      <trkpt lat="43.31216" lon="-1.29626">
        <ele>263.998683</ele>
        <time>2026-05-22T06:29:26.000Z</time>
      </trkpt>
      <trkpt lat="43.31216" lon="-1.29619">
        <ele>264.035075</ele>
        <time>2026-05-22T06:29:27.000Z</time>
      </trkpt>
      <trkpt lat="43.31217" lon="-1.29613">
        <ele>264.073106</ele>
        <time>2026-05-22T06:29:28.000Z</time>
      </trkpt>
      <trkpt lat="43.31217" lon="-1.29606">
        <ele>264.111137</ele>
        <time>2026-05-22T06:29:29.000Z</time>
      </trkpt>
      <trkpt lat="43.31218" lon="-1.296">
        <ele>264.149167</ele>
        <time>2026-05-22T06:29:30.000Z</time>
      </trkpt>
      <trkpt lat="43.31218" lon="-1.29593">
        <ele>264.18729</ele>
        <time>2026-05-22T06:29:31.000Z</time>
      </trkpt>
      <trkpt lat="43.31219" lon="-1.29587">
        <ele>264.2259</ele>
        <time>2026-05-22T06:29:32.000Z</time>
      </trkpt>
      <trkpt lat="43.31219" lon="-1.2958">
        <ele>264.264891</ele>
        <time>2026-05-22T06:29:33.000Z</time>
      </trkpt>
      <trkpt lat="43.31219" lon="-1.29573">
        <ele>264.306326</ele>
        <time>2026-05-22T06:29:34.000Z</time>
      </trkpt>
      <trkpt lat="43.31218" lon="-1.29566">
        <ele>264.348341</ele>
        <time>2026-05-22T06:29:35.000Z</time>
      </trkpt>
      <trkpt lat="43.31218" lon="-1.29558">
        <ele>264.392242</ele>
        <time>2026-05-22T06:29:36.000Z</time>
      </trkpt>
      <trkpt lat="43.31217" lon="-1.29551">
        <ele>264.436922</ele>
        <time>2026-05-22T06:29:37.000Z</time>
      </trkpt>
      <trkpt lat="43.31216" lon="-1.29543">
        <ele>264.480576</ele>
        <time>2026-05-22T06:29:38.000Z</time>
      </trkpt>
      <trkpt lat="43.31215" lon="-1.29536">
        <ele>264.52353</ele>
        <time>2026-05-22T06:29:39.000Z</time>
      </trkpt>
      <trkpt lat="43.31214" lon="-1.29529">
        <ele>264.565036</ele>
        <time>2026-05-22T06:29:40.000Z</time>
      </trkpt>
      <trkpt lat="43.31213" lon="-1.29522">
        <ele>264.605749</ele>
        <time>2026-05-22T06:29:41.000Z</time>
      </trkpt>
      <trkpt lat="43.31212" lon="-1.29516">
        <ele>264.644974</ele>
        <time>2026-05-22T06:29:42.000Z</time>
      </trkpt>
      <trkpt lat="43.31211" lon="-1.29509">
        <ele>264.669743</ele>
        <time>2026-05-22T06:29:43.000Z</time>
      </trkpt>
      <trkpt lat="43.3121" lon="-1.29503">
        <ele>264.641264</ele>
        <time>2026-05-22T06:29:44.000Z</time>
      </trkpt>
      <trkpt lat="43.31209" lon="-1.29496">
        <ele>264.61292</ele>
        <time>2026-05-22T06:29:45.000Z</time>
      </trkpt>
      <trkpt lat="43.31208" lon="-1.2949">
        <ele>264.58513</ele>
        <time>2026-05-22T06:29:46.000Z</time>
      </trkpt>
      <trkpt lat="43.31207" lon="-1.29484">
        <ele>264.557339</ele>
        <time>2026-05-22T06:29:47.000Z</time>
      </trkpt>
      <trkpt lat="43.31206" lon="-1.29478">
        <ele>264.529549</ele>
        <time>2026-05-22T06:29:48.000Z</time>
      </trkpt>
      <trkpt lat="43.31205" lon="-1.29472">
        <ele>264.50219</ele>
        <time>2026-05-22T06:29:49.000Z</time>
      </trkpt>
      <trkpt lat="43.31204" lon="-1.29465">
        <ele>264.474079</ele>
        <time>2026-05-22T06:29:50.000Z</time>
      </trkpt>
      <trkpt lat="43.31203" lon="-1.29459">
        <ele>264.445857</ele>
        <time>2026-05-22T06:29:51.000Z</time>
      </trkpt>
      <trkpt lat="43.31203" lon="-1.29453">
        <ele>264.417313</ele>
        <time>2026-05-22T06:29:52.000Z</time>
      </trkpt>
      <trkpt lat="43.31202" lon="-1.29446">
        <ele>264.388335</ele>
        <time>2026-05-22T06:29:53.000Z</time>
      </trkpt>
      <trkpt lat="43.31201" lon="-1.2944">
        <ele>264.358386</ele>
        <time>2026-05-22T06:29:54.000Z</time>
      </trkpt>
      <trkpt lat="43.312" lon="-1.29433">
        <ele>264.327763</ele>
        <time>2026-05-22T06:29:55.000Z</time>
      </trkpt>
      <trkpt lat="43.31199" lon="-1.29426">
        <ele>264.297484</ele>
        <time>2026-05-22T06:29:56.000Z</time>
      </trkpt>
      <trkpt lat="43.31199" lon="-1.29419">
        <ele>264.266238</ele>
        <time>2026-05-22T06:29:57.000Z</time>
      </trkpt>
      <trkpt lat="43.31198" lon="-1.29412">
        <ele>264.233787</ele>
        <time>2026-05-22T06:29:58.000Z</time>
      </trkpt>
      <trkpt lat="43.31197" lon="-1.29404">
        <ele>264.201241</ele>
        <time>2026-05-22T06:29:59.000Z</time>
      </trkpt>
      <trkpt lat="43.31196" lon="-1.29397">
        <ele>264.168041</ele>
        <time>2026-05-22T06:30:00.000Z</time>
      </trkpt>
      <trkpt lat="43.31195" lon="-1.29389">
        <ele>264.134195</ele>
        <time>2026-05-22T06:30:01.000Z</time>
      </trkpt>
      <trkpt lat="43.31194" lon="-1.29382">
        <ele>264.099813</ele>
        <time>2026-05-22T06:30:02.000Z</time>
      </trkpt>
      <trkpt lat="43.31193" lon="-1.29374">
        <ele>264.065098</ele>
        <time>2026-05-22T06:30:03.000Z</time>
      </trkpt>
      <trkpt lat="43.31192" lon="-1.29366">
        <ele>264.029418</ele>
        <time>2026-05-22T06:30:04.000Z</time>
      </trkpt>
      <trkpt lat="43.31191" lon="-1.29357">
        <ele>263.992179</ele>
        <time>2026-05-22T06:30:05.000Z</time>
      </trkpt>
      <trkpt lat="43.3119" lon="-1.29349">
        <ele>263.95494</ele>
        <time>2026-05-22T06:30:06.000Z</time>
      </trkpt>
      <trkpt lat="43.31189" lon="-1.29341">
        <ele>263.917619</ele>
        <time>2026-05-22T06:30:07.000Z</time>
      </trkpt>
      <trkpt lat="43.31189" lon="-1.29332">
        <ele>263.880297</ele>
        <time>2026-05-22T06:30:08.000Z</time>
      </trkpt>
      <trkpt lat="43.31188" lon="-1.29324">
        <ele>263.842014</ele>
        <time>2026-05-22T06:30:09.000Z</time>
      </trkpt>
      <trkpt lat="43.31187" lon="-1.29315">
        <ele>263.802952</ele>
        <time>2026-05-22T06:30:10.000Z</time>
      </trkpt>
      <trkpt lat="43.31186" lon="-1.29306">
        <ele>263.763969</ele>
        <time>2026-05-22T06:30:11.000Z</time>
      </trkpt>
      <trkpt lat="43.31185" lon="-1.29297">
        <ele>263.724471</ele>
        <time>2026-05-22T06:30:12.000Z</time>
      </trkpt>
      <trkpt lat="43.31184" lon="-1.29288">
        <ele>263.684356</ele>
        <time>2026-05-22T06:30:13.000Z</time>
      </trkpt>
      <trkpt lat="43.31183" lon="-1.29279">
        <ele>263.643467</ele>
        <time>2026-05-22T06:30:14.000Z</time>
      </trkpt>
      <trkpt lat="43.31182" lon="-1.2927">
        <ele>263.602815</ele>
        <time>2026-05-22T06:30:15.000Z</time>
      </trkpt>
      <trkpt lat="43.31181" lon="-1.2926">
        <ele>263.729214</ele>
        <time>2026-05-22T06:30:16.000Z</time>
      </trkpt>
      <trkpt lat="43.3118" lon="-1.29251">
        <ele>263.941125</ele>
        <time>2026-05-22T06:30:17.000Z</time>
      </trkpt>
      <trkpt lat="43.31178" lon="-1.29241">
        <ele>264.160433</ele>
        <time>2026-05-22T06:30:18.000Z</time>
      </trkpt>
      <trkpt lat="43.31177" lon="-1.29231">
        <ele>264.382703</ele>
        <time>2026-05-22T06:30:19.000Z</time>
      </trkpt>
      <trkpt lat="43.31174" lon="-1.29221">
        <ele>264.603554</ele>
        <time>2026-05-22T06:30:20.000Z</time>
      </trkpt>
      <trkpt lat="43.31172" lon="-1.29212">
        <ele>264.82235</ele>
        <time>2026-05-22T06:30:21.000Z</time>
      </trkpt>
      <trkpt lat="43.31169" lon="-1.29203">
        <ele>265.036681</ele>
        <time>2026-05-22T06:30:22.000Z</time>
      </trkpt>
      <trkpt lat="43.31165" lon="-1.29195">
        <ele>265.240004</ele>
        <time>2026-05-22T06:30:23.000Z</time>
      </trkpt>
      <trkpt lat="43.31162" lon="-1.29187">
        <ele>265.436817</ele>
        <time>2026-05-22T06:30:24.000Z</time>
      </trkpt>
      <trkpt lat="43.31159" lon="-1.2918">
        <ele>265.620611</ele>
        <time>2026-05-22T06:30:25.000Z</time>
      </trkpt>
      <trkpt lat="43.31155" lon="-1.29174">
        <ele>265.788467</ele>
        <time>2026-05-22T06:30:26.000Z</time>
      </trkpt>
      <trkpt lat="43.31152" lon="-1.29168">
        <ele>265.949265</ele>
        <time>2026-05-22T06:30:27.000Z</time>
      </trkpt>
      <trkpt lat="43.31149" lon="-1.29163">
        <ele>266.094241</ele>
        <time>2026-05-22T06:30:28.000Z</time>
      </trkpt>
      <trkpt lat="43.31147" lon="-1.29158">
        <ele>266.224999</ele>
        <time>2026-05-22T06:30:29.000Z</time>
      </trkpt>
      <trkpt lat="43.31145" lon="-1.29153">
        <ele>266.343661</ele>
        <time>2026-05-22T06:30:30.000Z</time>
      </trkpt>
      <trkpt lat="43.31142" lon="-1.29149">
        <ele>266.458525</ele>
        <time>2026-05-22T06:30:31.000Z</time>
      </trkpt>
      <trkpt lat="43.31141" lon="-1.29145">
        <ele>266.568453</ele>
        <time>2026-05-22T06:30:32.000Z</time>
      </trkpt>
      <trkpt lat="43.31139" lon="-1.2914">
        <ele>266.677896</ele>
        <time>2026-05-22T06:30:33.000Z</time>
      </trkpt>
      <trkpt lat="43.31137" lon="-1.29136">
        <ele>266.78538</ele>
        <time>2026-05-22T06:30:34.000Z</time>
      </trkpt>
      <trkpt lat="43.31136" lon="-1.29131">
        <ele>266.894823</ele>
        <time>2026-05-22T06:30:35.000Z</time>
      </trkpt>
      <trkpt lat="43.31134" lon="-1.29127">
        <ele>267.003778</ele>
        <time>2026-05-22T06:30:36.000Z</time>
      </trkpt>
      <trkpt lat="43.31134" lon="-1.29123">
        <ele>267.093022</ele>
        <time>2026-05-22T06:30:37.000Z</time>
      </trkpt>
      <trkpt lat="43.31133" lon="-1.29118">
        <ele>267.194685</ele>
        <time>2026-05-22T06:30:38.000Z</time>
      </trkpt>
      <trkpt lat="43.31131" lon="-1.29114">
        <ele>267.304556</ele>
        <time>2026-05-22T06:30:39.000Z</time>
      </trkpt>
      <trkpt lat="43.3113" lon="-1.29109">
        <ele>267.412715</ele>
        <time>2026-05-22T06:30:40.000Z</time>
      </trkpt>
      <trkpt lat="43.31129" lon="-1.29104">
        <ele>267.524767</ele>
        <time>2026-05-22T06:30:41.000Z</time>
      </trkpt>
      <trkpt lat="43.31128" lon="-1.29099">
        <ele>267.63308</ele>
        <time>2026-05-22T06:30:42.000Z</time>
      </trkpt>
      <trkpt lat="43.31127" lon="-1.29095">
        <ele>267.739279</ele>
        <time>2026-05-22T06:30:43.000Z</time>
      </trkpt>
      <trkpt lat="43.31126" lon="-1.2909">
        <ele>267.852588</ele>
        <time>2026-05-22T06:30:44.000Z</time>
      </trkpt>
      <trkpt lat="43.31125" lon="-1.29085">
        <ele>267.963018</ele>
        <time>2026-05-22T06:30:45.000Z</time>
      </trkpt>
      <trkpt lat="43.31124" lon="-1.2908">
        <ele>268.072135</ele>
        <time>2026-05-22T06:30:46.000Z</time>
      </trkpt>
      <trkpt lat="43.31123" lon="-1.29075">
        <ele>268.184685</ele>
        <time>2026-05-22T06:30:47.000Z</time>
      </trkpt>
      <trkpt lat="43.31122" lon="-1.2907">
        <ele>268.295889</ele>
        <time>2026-05-22T06:30:48.000Z</time>
      </trkpt>
      <trkpt lat="43.31121" lon="-1.29065">
        <ele>268.406794</ele>
        <time>2026-05-22T06:30:49.000Z</time>
      </trkpt>
      <trkpt lat="43.3112" lon="-1.29061">
        <ele>268.513576</ele>
        <time>2026-05-22T06:30:50.000Z</time>
      </trkpt>
      <trkpt lat="43.31119" lon="-1.29056">
        <ele>268.619382</ele>
        <time>2026-05-22T06:30:51.000Z</time>
      </trkpt>
      <trkpt lat="43.31118" lon="-1.29051">
        <ele>268.729348</ele>
        <time>2026-05-22T06:30:52.000Z</time>
      </trkpt>
      <trkpt lat="43.31117" lon="-1.29047">
        <ele>268.839219</ele>
        <time>2026-05-22T06:30:53.000Z</time>
      </trkpt>
      <trkpt lat="43.31115" lon="-1.29042">
        <ele>268.951136</ele>
        <time>2026-05-22T06:30:54.000Z</time>
      </trkpt>
      <trkpt lat="43.31114" lon="-1.29037">
        <ele>269.100208</ele>
        <time>2026-05-22T06:30:55.000Z</time>
      </trkpt>
      <trkpt lat="43.31113" lon="-1.29033">
        <ele>269.259407</ele>
        <time>2026-05-22T06:30:56.000Z</time>
      </trkpt>
      <trkpt lat="43.31112" lon="-1.29028">
        <ele>269.413795</ele>
        <time>2026-05-22T06:30:57.000Z</time>
      </trkpt>
      <trkpt lat="43.3111" lon="-1.29024">
        <ele>269.569892</ele>
        <time>2026-05-22T06:30:58.000Z</time>
      </trkpt>
      <trkpt lat="43.31109" lon="-1.2902">
        <ele>269.724281</ele>
        <time>2026-05-22T06:30:59.000Z</time>
      </trkpt>
      <trkpt lat="43.31108" lon="-1.29016">
        <ele>269.870772</ele>
        <time>2026-05-22T06:31:00.000Z</time>
      </trkpt>
      <trkpt lat="43.31107" lon="-1.29012">
        <ele>269.99551</ele>
        <time>2026-05-22T06:31:01.000Z</time>
      </trkpt>
      <trkpt lat="43.31106" lon="-1.29009">
        <ele>270.111131</ele>
        <time>2026-05-22T06:31:02.000Z</time>
      </trkpt>
      <trkpt lat="43.31105" lon="-1.29006">
        <ele>270.222969</ele>
        <time>2026-05-22T06:31:03.000Z</time>
      </trkpt>
      <trkpt lat="43.31104" lon="-1.29003">
        <ele>270.323811</ele>
        <time>2026-05-22T06:31:04.000Z</time>
      </trkpt>
      <trkpt lat="43.31103" lon="-1.29">
        <ele>270.439043</ele>
        <time>2026-05-22T06:31:05.000Z</time>
      </trkpt>
      <trkpt lat="43.31102" lon="-1.28997">
        <ele>270.561982</ele>
        <time>2026-05-22T06:31:06.000Z</time>
      </trkpt>
      <trkpt lat="43.31101" lon="-1.28994">
        <ele>270.670764</ele>
        <time>2026-05-22T06:31:07.000Z</time>
      </trkpt>
      <trkpt lat="43.311" lon="-1.28991">
        <ele>270.77338</ele>
        <time>2026-05-22T06:31:08.000Z</time>
      </trkpt>
      <trkpt lat="43.311" lon="-1.28988">
        <ele>270.878994</ele>
        <time>2026-05-22T06:31:09.000Z</time>
      </trkpt>
      <trkpt lat="43.31099" lon="-1.28985">
        <ele>270.985439</ele>
        <time>2026-05-22T06:31:10.000Z</time>
      </trkpt>
      <trkpt lat="43.31098" lon="-1.28982">
        <ele>271.089739</ele>
        <time>2026-05-22T06:31:11.000Z</time>
      </trkpt>
      <trkpt lat="43.31098" lon="-1.28979">
        <ele>271.19543</ele>
        <time>2026-05-22T06:31:12.000Z</time>
      </trkpt>
      <trkpt lat="43.31097" lon="-1.28976">
        <ele>271.301121</ele>
        <time>2026-05-22T06:31:13.000Z</time>
      </trkpt>
      <trkpt lat="43.31096" lon="-1.28973">
        <ele>271.405683</ele>
        <time>2026-05-22T06:31:14.000Z</time>
      </trkpt>
      <trkpt lat="43.31095" lon="-1.2897">
        <ele>271.518301</ele>
        <time>2026-05-22T06:31:15.000Z</time>
      </trkpt>
      <trkpt lat="43.31094" lon="-1.28967">
        <ele>271.627083</ele>
        <time>2026-05-22T06:31:16.000Z</time>
      </trkpt>
      <trkpt lat="43.31093" lon="-1.28964">
        <ele>271.736804</ele>
        <time>2026-05-22T06:31:17.000Z</time>
      </trkpt>
      <trkpt lat="43.31093" lon="-1.28961">
        <ele>271.850832</ele>
        <time>2026-05-22T06:31:18.000Z</time>
      </trkpt>
      <trkpt lat="43.31092" lon="-1.28957">
        <ele>271.964262</ele>
        <time>2026-05-22T06:31:19.000Z</time>
      </trkpt>
      <trkpt lat="43.31091" lon="-1.28954">
        <ele>272.074883</ele>
        <time>2026-05-22T06:31:20.000Z</time>
      </trkpt>
      <trkpt lat="43.3109" lon="-1.28951">
        <ele>272.185148</ele>
        <time>2026-05-22T06:31:21.000Z</time>
      </trkpt>
      <trkpt lat="43.31089" lon="-1.28948">
        <ele>272.295927</ele>
        <time>2026-05-22T06:31:22.000Z</time>
      </trkpt>
      <trkpt lat="43.31089" lon="-1.28945">
        <ele>272.404739</ele>
        <time>2026-05-22T06:31:23.000Z</time>
      </trkpt>
      <trkpt lat="43.31088" lon="-1.28942">
        <ele>272.515518</ele>
        <time>2026-05-22T06:31:24.000Z</time>
      </trkpt>
      <trkpt lat="43.31087" lon="-1.28939">
        <ele>272.617945</ele>
        <time>2026-05-22T06:31:25.000Z</time>
      </trkpt>
      <trkpt lat="43.31087" lon="-1.28936">
        <ele>272.726757</ele>
        <time>2026-05-22T06:31:26.000Z</time>
      </trkpt>
      <trkpt lat="43.31086" lon="-1.28933">
        <ele>272.832372</ele>
        <time>2026-05-22T06:31:27.000Z</time>
      </trkpt>
      <trkpt lat="43.31086" lon="-1.2893">
        <ele>272.934616</ele>
        <time>2026-05-22T06:31:28.000Z</time>
      </trkpt>
      <trkpt lat="43.31085" lon="-1.28927">
        <ele>273.042153</ele>
        <time>2026-05-22T06:31:29.000Z</time>
      </trkpt>
      <trkpt lat="43.31085" lon="-1.28923">
        <ele>273.15364</ele>
        <time>2026-05-22T06:31:30.000Z</time>
      </trkpt>
      <trkpt lat="43.31084" lon="-1.2892">
        <ele>273.264651</ele>
        <time>2026-05-22T06:31:31.000Z</time>
      </trkpt>
      <trkpt lat="43.31084" lon="-1.28917">
        <ele>273.368981</ele>
        <time>2026-05-22T06:31:32.000Z</time>
      </trkpt>
      <trkpt lat="43.31084" lon="-1.28914">
        <ele>273.479608</ele>
        <time>2026-05-22T06:31:33.000Z</time>
      </trkpt>
      <trkpt lat="43.31084" lon="-1.28911">
        <ele>273.580284</ele>
        <time>2026-05-22T06:31:34.000Z</time>
      </trkpt>
      <trkpt lat="43.31084" lon="-1.28908">
        <ele>273.685122</ele>
        <time>2026-05-22T06:31:35.000Z</time>
      </trkpt>
      <trkpt lat="43.31083" lon="-1.28904">
        <ele>273.800582</ele>
        <time>2026-05-22T06:31:36.000Z</time>
      </trkpt>
      <trkpt lat="43.31083" lon="-1.28901">
        <ele>273.916866</ele>
        <time>2026-05-22T06:31:37.000Z</time>
      </trkpt>
      <trkpt lat="43.31083" lon="-1.28897">
        <ele>274.042265</ele>
        <time>2026-05-22T06:31:38.000Z</time>
      </trkpt>
      <trkpt lat="43.31083" lon="-1.28893">
        <ele>274.169654</ele>
        <time>2026-05-22T06:31:39.000Z</time>
      </trkpt>
      <trkpt lat="43.31083" lon="-1.28889">
        <ele>274.300476</ele>
        <time>2026-05-22T06:31:40.000Z</time>
      </trkpt>
      <trkpt lat="43.31083" lon="-1.28886">
        <ele>274.41817</ele>
        <time>2026-05-22T06:31:41.000Z</time>
      </trkpt>
      <trkpt lat="43.31083" lon="-1.28882">
        <ele>274.538942</ele>
        <time>2026-05-22T06:31:42.000Z</time>
      </trkpt>
      <trkpt lat="43.31083" lon="-1.28879">
        <ele>274.656636</ele>
        <time>2026-05-22T06:31:43.000Z</time>
      </trkpt>
      <trkpt lat="43.31083" lon="-1.28875">
        <ele>274.777671</ele>
        <time>2026-05-22T06:31:44.000Z</time>
      </trkpt>
      <trkpt lat="43.31084" lon="-1.28872">
        <ele>274.898707</ele>
        <time>2026-05-22T06:31:45.000Z</time>
      </trkpt>
      <trkpt lat="43.31084" lon="-1.28868">
        <ele>275.026179</ele>
        <time>2026-05-22T06:31:46.000Z</time>
      </trkpt>
      <trkpt lat="43.31084" lon="-1.28864">
        <ele>275.143602</ele>
        <time>2026-05-22T06:31:47.000Z</time>
      </trkpt>
      <trkpt lat="43.31084" lon="-1.28861">
        <ele>275.261024</ele>
        <time>2026-05-22T06:31:48.000Z</time>
      </trkpt>
      <trkpt lat="43.31084" lon="-1.28857">
        <ele>275.385403</ele>
        <time>2026-05-22T06:31:49.000Z</time>
      </trkpt>
      <trkpt lat="43.31084" lon="-1.28853">
        <ele>275.512792</ele>
        <time>2026-05-22T06:31:50.000Z</time>
      </trkpt>
      <trkpt lat="43.31084" lon="-1.28849">
        <ele>275.643534</ele>
        <time>2026-05-22T06:31:51.000Z</time>
      </trkpt>
      <trkpt lat="43.31084" lon="-1.28845">
        <ele>275.777707</ele>
        <time>2026-05-22T06:31:52.000Z</time>
      </trkpt>
      <trkpt lat="43.31084" lon="-1.28841">
        <ele>275.915846</ele>
        <time>2026-05-22T06:31:53.000Z</time>
      </trkpt>
      <trkpt lat="43.31084" lon="-1.28837">
        <ele>276.053292</ele>
        <time>2026-05-22T06:31:54.000Z</time>
      </trkpt>
      <trkpt lat="43.31084" lon="-1.28833">
        <ele>276.197443</ele>
        <time>2026-05-22T06:31:55.000Z</time>
      </trkpt>
      <trkpt lat="43.31083" lon="-1.28829">
        <ele>276.338543</ele>
        <time>2026-05-22T06:31:56.000Z</time>
      </trkpt>
      <trkpt lat="43.31083" lon="-1.28824">
        <ele>276.487193</ele>
        <time>2026-05-22T06:31:57.000Z</time>
      </trkpt>
      <trkpt lat="43.31083" lon="-1.2882">
        <ele>276.639797</ele>
        <time>2026-05-22T06:31:58.000Z</time>
      </trkpt>
      <trkpt lat="43.31082" lon="-1.28815">
        <ele>276.791774</ele>
        <time>2026-05-22T06:31:59.000Z</time>
      </trkpt>
      <trkpt lat="43.31082" lon="-1.28811">
        <ele>276.937754</ele>
        <time>2026-05-22T06:32:00.000Z</time>
      </trkpt>
      <trkpt lat="43.31081" lon="-1.28807">
        <ele>277.092018</ele>
        <time>2026-05-22T06:32:01.000Z</time>
      </trkpt>
      <trkpt lat="43.3108" lon="-1.28802">
        <ele>277.247937</ele>
        <time>2026-05-22T06:32:02.000Z</time>
      </trkpt>
      <trkpt lat="43.3108" lon="-1.28798">
        <ele>277.378718</ele>
        <time>2026-05-22T06:32:03.000Z</time>
      </trkpt>
      <trkpt lat="43.31079" lon="-1.28793">
        <ele>277.500082</ele>
        <time>2026-05-22T06:32:04.000Z</time>
      </trkpt>
      <trkpt lat="43.31078" lon="-1.28789">
        <ele>277.629679</ele>
        <time>2026-05-22T06:32:05.000Z</time>
      </trkpt>
      <trkpt lat="43.31078" lon="-1.28785">
        <ele>277.753826</ele>
        <time>2026-05-22T06:32:06.000Z</time>
      </trkpt>
      <trkpt lat="43.31077" lon="-1.2878">
        <ele>277.882424</ele>
        <time>2026-05-22T06:32:07.000Z</time>
      </trkpt>
      <trkpt lat="43.31076" lon="-1.28776">
        <ele>278.006571</ele>
        <time>2026-05-22T06:32:08.000Z</time>
      </trkpt>
      <trkpt lat="43.31075" lon="-1.28772">
        <ele>278.137921</ele>
        <time>2026-05-22T06:32:09.000Z</time>
      </trkpt>
      <trkpt lat="43.31074" lon="-1.28767">
        <ele>278.271336</ele>
        <time>2026-05-22T06:32:10.000Z</time>
      </trkpt>
      <trkpt lat="43.31073" lon="-1.28763">
        <ele>278.403255</ele>
        <time>2026-05-22T06:32:11.000Z</time>
      </trkpt>
      <trkpt lat="43.31072" lon="-1.28758">
        <ele>278.536492</ele>
        <time>2026-05-22T06:32:12.000Z</time>
      </trkpt>
      <trkpt lat="43.31071" lon="-1.28754">
        <ele>278.676484</ele>
        <time>2026-05-22T06:32:13.000Z</time>
      </trkpt>
      <trkpt lat="43.3107" lon="-1.28749">
        <ele>278.804486</ele>
        <time>2026-05-22T06:32:14.000Z</time>
      </trkpt>
      <trkpt lat="43.31069" lon="-1.28745">
        <ele>278.933903</ele>
        <time>2026-05-22T06:32:15.000Z</time>
      </trkpt>
      <trkpt lat="43.31067" lon="-1.28741">
        <ele>279.064489</ele>
        <time>2026-05-22T06:32:16.000Z</time>
      </trkpt>
      <trkpt lat="43.31066" lon="-1.28736">
        <ele>279.204414</ele>
        <time>2026-05-22T06:32:17.000Z</time>
      </trkpt>
      <trkpt lat="43.31065" lon="-1.28732">
        <ele>279.337829</ele>
        <time>2026-05-22T06:32:18.000Z</time>
      </trkpt>
      <trkpt lat="43.31064" lon="-1.28727">
        <ele>279.473725</ele>
        <time>2026-05-22T06:32:19.000Z</time>
      </trkpt>
      <trkpt lat="43.31063" lon="-1.28723">
        <ele>279.606962</ele>
        <time>2026-05-22T06:32:20.000Z</time>
      </trkpt>
      <trkpt lat="43.31061" lon="-1.28718">
        <ele>279.741616</ele>
        <time>2026-05-22T06:32:21.000Z</time>
      </trkpt>
      <trkpt lat="43.3106" lon="-1.28714">
        <ele>279.872608</ele>
        <time>2026-05-22T06:32:22.000Z</time>
      </trkpt>
      <trkpt lat="43.31059" lon="-1.2871">
        <ele>279.996827</ele>
        <time>2026-05-22T06:32:23.000Z</time>
      </trkpt>
      <trkpt lat="43.31057" lon="-1.28706">
        <ele>280.128858</ele>
        <time>2026-05-22T06:32:24.000Z</time>
      </trkpt>
      <trkpt lat="43.31056" lon="-1.28702">
        <ele>280.258276</ele>
        <time>2026-05-22T06:32:25.000Z</time>
      </trkpt>
      <trkpt lat="43.31055" lon="-1.28697">
        <ele>280.388862</ele>
        <time>2026-05-22T06:32:26.000Z</time>
      </trkpt>
      <trkpt lat="43.31053" lon="-1.28693">
        <ele>280.518985</ele>
        <time>2026-05-22T06:32:27.000Z</time>
      </trkpt>
      <trkpt lat="43.31052" lon="-1.28689">
        <ele>280.646581</ele>
        <time>2026-05-22T06:32:28.000Z</time>
      </trkpt>
      <trkpt lat="43.31051" lon="-1.28685">
        <ele>280.772439</ele>
        <time>2026-05-22T06:32:29.000Z</time>
      </trkpt>
      <trkpt lat="43.31049" lon="-1.28681">
        <ele>280.896658</ele>
        <time>2026-05-22T06:32:30.000Z</time>
      </trkpt>
      <trkpt lat="43.31048" lon="-1.28677">
        <ele>281.025078</ele>
        <time>2026-05-22T06:32:31.000Z</time>
      </trkpt>
      <trkpt lat="43.31046" lon="-1.28673">
        <ele>281.148387</ele>
        <time>2026-05-22T06:32:32.000Z</time>
      </trkpt>
      <trkpt lat="43.31045" lon="-1.2867">
        <ele>281.266638</ele>
        <time>2026-05-22T06:32:33.000Z</time>
      </trkpt>
      <trkpt lat="43.31044" lon="-1.28666">
        <ele>281.38238</ele>
        <time>2026-05-22T06:32:34.000Z</time>
      </trkpt>
      <trkpt lat="43.31042" lon="-1.28662">
        <ele>281.499838</ele>
        <time>2026-05-22T06:32:35.000Z</time>
      </trkpt>
      <trkpt lat="43.31041" lon="-1.28658">
        <ele>281.616342</ele>
        <time>2026-05-22T06:32:36.000Z</time>
      </trkpt>
      <trkpt lat="43.3104" lon="-1.28655">
        <ele>281.729675</ele>
        <time>2026-05-22T06:32:37.000Z</time>
      </trkpt>
      <trkpt lat="43.31039" lon="-1.28651">
        <ele>281.835182</ele>
        <time>2026-05-22T06:32:38.000Z</time>
      </trkpt>
      <trkpt lat="43.31038" lon="-1.28648">
        <ele>281.940689</ele>
        <time>2026-05-22T06:32:39.000Z</time>
      </trkpt>
      <trkpt lat="43.31037" lon="-1.28645">
        <ele>282.047838</ele>
        <time>2026-05-22T06:32:40.000Z</time>
      </trkpt>
      <trkpt lat="43.31035" lon="-1.28642">
        <ele>282.144909</ele>
        <time>2026-05-22T06:32:41.000Z</time>
      </trkpt>
      <trkpt lat="43.31034" lon="-1.28638">
        <ele>282.248829</ele>
        <time>2026-05-22T06:32:42.000Z</time>
      </trkpt>
      <trkpt lat="43.31033" lon="-1.28635">
        <ele>282.34918</ele>
        <time>2026-05-22T06:32:43.000Z</time>
      </trkpt>
      <trkpt lat="43.31032" lon="-1.28632">
        <ele>282.442445</ele>
        <time>2026-05-22T06:32:44.000Z</time>
      </trkpt>
      <trkpt lat="43.31031" lon="-1.28629">
        <ele>282.541196</ele>
        <time>2026-05-22T06:32:45.000Z</time>
      </trkpt>
      <trkpt lat="43.3103" lon="-1.28626">
        <ele>282.633337</ele>
        <time>2026-05-22T06:32:46.000Z</time>
      </trkpt>
      <trkpt lat="43.31029" lon="-1.28623">
        <ele>282.721079</ele>
        <time>2026-05-22T06:32:47.000Z</time>
      </trkpt>
      <trkpt lat="43.31028" lon="-1.28621">
        <ele>282.815258</ele>
        <time>2026-05-22T06:32:48.000Z</time>
      </trkpt>
      <trkpt lat="43.31026" lon="-1.28618">
        <ele>282.902561</ele>
        <time>2026-05-22T06:32:49.000Z</time>
      </trkpt>
      <trkpt lat="43.31025" lon="-1.28615">
        <ele>282.995293</ele>
        <time>2026-05-22T06:32:50.000Z</time>
      </trkpt>
      <trkpt lat="43.31024" lon="-1.28612">
        <ele>283.088024</ele>
        <time>2026-05-22T06:32:51.000Z</time>
      </trkpt>
      <trkpt lat="43.31023" lon="-1.28609">
        <ele>283.177421</ele>
        <time>2026-05-22T06:32:52.000Z</time>
      </trkpt>
      <trkpt lat="43.31022" lon="-1.28606">
        <ele>283.264216</ele>
        <time>2026-05-22T06:32:53.000Z</time>
      </trkpt>
      <trkpt lat="43.31022" lon="-1.28603">
        <ele>283.354814</ele>
        <time>2026-05-22T06:32:54.000Z</time>
      </trkpt>
      <trkpt lat="43.31021" lon="-1.286">
        <ele>283.446825</ele>
        <time>2026-05-22T06:32:55.000Z</time>
      </trkpt>
      <trkpt lat="43.3102" lon="-1.28597">
        <ele>283.540392</ele>
        <time>2026-05-22T06:32:56.000Z</time>
      </trkpt>
      <trkpt lat="43.31019" lon="-1.28594">
        <ele>283.635647</ele>
        <time>2026-05-22T06:32:57.000Z</time>
      </trkpt>
      <trkpt lat="43.31018" lon="-1.28591">
        <ele>283.729213</ele>
        <time>2026-05-22T06:32:58.000Z</time>
      </trkpt>
      <trkpt lat="43.31017" lon="-1.28589">
        <ele>283.818609</ele>
        <time>2026-05-22T06:32:59.000Z</time>
      </trkpt>
      <trkpt lat="43.31016" lon="-1.28586">
        <ele>283.913865</ele>
        <time>2026-05-22T06:33:00.000Z</time>
      </trkpt>
      <trkpt lat="43.31015" lon="-1.28583">
        <ele>284.007431</ele>
        <time>2026-05-22T06:33:01.000Z</time>
      </trkpt>
      <trkpt lat="43.31014" lon="-1.2858">
        <ele>284.100997</ele>
        <time>2026-05-22T06:33:02.000Z</time>
      </trkpt>
      <trkpt lat="43.31013" lon="-1.28577">
        <ele>284.186903</ele>
        <time>2026-05-22T06:33:03.000Z</time>
      </trkpt>
      <trkpt lat="43.31012" lon="-1.28574">
        <ele>284.277899</ele>
        <time>2026-05-22T06:33:04.000Z</time>
      </trkpt>
      <trkpt lat="43.31011" lon="-1.28571">
        <ele>284.38446</ele>
        <time>2026-05-22T06:33:05.000Z</time>
      </trkpt>
      <trkpt lat="43.3101" lon="-1.28568">
        <ele>284.492945</ele>
        <time>2026-05-22T06:33:06.000Z</time>
      </trkpt>
      <trkpt lat="43.31009" lon="-1.28565">
        <ele>284.606452</ele>
        <time>2026-05-22T06:33:07.000Z</time>
      </trkpt>
      <trkpt lat="43.31008" lon="-1.28562">
        <ele>284.711674</ele>
        <time>2026-05-22T06:33:08.000Z</time>
      </trkpt>
      <trkpt lat="43.31007" lon="-1.28559">
        <ele>284.823928</ele>
        <time>2026-05-22T06:33:09.000Z</time>
      </trkpt>
      <trkpt lat="43.31006" lon="-1.28556">
        <ele>284.937434</ele>
        <time>2026-05-22T06:33:10.000Z</time>
      </trkpt>
      <trkpt lat="43.31006" lon="-1.28554">
        <ele>285.04431</ele>
        <time>2026-05-22T06:33:11.000Z</time>
      </trkpt>
      <trkpt lat="43.31005" lon="-1.28551">
        <ele>285.151382</ele>
        <time>2026-05-22T06:33:12.000Z</time>
      </trkpt>
      <trkpt lat="43.31004" lon="-1.28548">
        <ele>285.262687</ele>
        <time>2026-05-22T06:33:13.000Z</time>
      </trkpt>
      <trkpt lat="43.31003" lon="-1.28545">
        <ele>285.384507</ele>
        <time>2026-05-22T06:33:14.000Z</time>
      </trkpt>
      <trkpt lat="43.31002" lon="-1.28542">
        <ele>285.499932</ele>
        <time>2026-05-22T06:33:15.000Z</time>
      </trkpt>
      <trkpt lat="43.31001" lon="-1.28539">
        <ele>285.61744</ele>
        <time>2026-05-22T06:33:16.000Z</time>
      </trkpt>
      <trkpt lat="43.31" lon="-1.28536">
        <ele>285.729203</ele>
        <time>2026-05-22T06:33:17.000Z</time>
      </trkpt>
      <trkpt lat="43.30999" lon="-1.28533">
        <ele>285.840966</ele>
        <time>2026-05-22T06:33:18.000Z</time>
      </trkpt>
      <trkpt lat="43.30998" lon="-1.2853">
        <ele>285.948038</ele>
        <time>2026-05-22T06:33:19.000Z</time>
      </trkpt>
      <trkpt lat="43.30997" lon="-1.28527">
        <ele>286.057142</ele>
        <time>2026-05-22T06:33:20.000Z</time>
      </trkpt>
      <trkpt lat="43.30996" lon="-1.28524">
        <ele>286.169396</ele>
        <time>2026-05-22T06:33:21.000Z</time>
      </trkpt>
      <trkpt lat="43.30995" lon="-1.28521">
        <ele>286.281159</ele>
        <time>2026-05-22T06:33:22.000Z</time>
      </trkpt>
      <trkpt lat="43.30995" lon="-1.28518">
        <ele>286.392922</ele>
        <time>2026-05-22T06:33:23.000Z</time>
      </trkpt>
      <trkpt lat="43.30994" lon="-1.28515">
        <ele>286.504685</ele>
        <time>2026-05-22T06:33:24.000Z</time>
      </trkpt>
      <trkpt lat="43.30993" lon="-1.28512">
        <ele>286.62011</ele>
        <time>2026-05-22T06:33:25.000Z</time>
      </trkpt>
      <trkpt lat="43.30992" lon="-1.28509">
        <ele>286.725332</ele>
        <time>2026-05-22T06:33:26.000Z</time>
      </trkpt>
      <trkpt lat="43.30991" lon="-1.28507">
        <ele>286.837586</ele>
        <time>2026-05-22T06:33:27.000Z</time>
      </trkpt>
      <trkpt lat="43.3099" lon="-1.28504">
        <ele>286.946072</ele>
        <time>2026-05-22T06:33:28.000Z</time>
      </trkpt>
      <trkpt lat="43.30989" lon="-1.28501">
        <ele>287.056353</ele>
        <time>2026-05-22T06:33:29.000Z</time>
      </trkpt>
      <trkpt lat="43.30988" lon="-1.28498">
        <ele>287.174709</ele>
        <time>2026-05-22T06:33:30.000Z</time>
      </trkpt>
      <trkpt lat="43.30988" lon="-1.28494">
        <ele>287.294714</ele>
        <time>2026-05-22T06:33:31.000Z</time>
      </trkpt>
      <trkpt lat="43.30987" lon="-1.28491">
        <ele>287.416383</ele>
        <time>2026-05-22T06:33:32.000Z</time>
      </trkpt>
      <trkpt lat="43.30986" lon="-1.28488">
        <ele>287.533132</ele>
        <time>2026-05-22T06:33:33.000Z</time>
      </trkpt>
      <trkpt lat="43.30985" lon="-1.28485">
        <ele>287.641962</ele>
        <time>2026-05-22T06:33:34.000Z</time>
      </trkpt>
      <trkpt lat="43.30984" lon="-1.28482">
        <ele>287.761966</ele>
        <time>2026-05-22T06:33:35.000Z</time>
      </trkpt>
      <trkpt lat="43.30984" lon="-1.28478">
        <ele>287.883636</ele>
        <time>2026-05-22T06:33:36.000Z</time>
      </trkpt>
      <trkpt lat="43.30983" lon="-1.28475">
        <ele>288.005306</ele>
        <time>2026-05-22T06:33:37.000Z</time>
      </trkpt>
      <trkpt lat="43.30982" lon="-1.28472">
        <ele>288.123663</ele>
        <time>2026-05-22T06:33:38.000Z</time>
      </trkpt>
      <trkpt lat="43.30981" lon="-1.28469">
        <ele>288.245332</ele>
        <time>2026-05-22T06:33:39.000Z</time>
      </trkpt>
      <trkpt lat="43.3098" lon="-1.28465">
        <ele>288.370374</ele>
        <time>2026-05-22T06:33:40.000Z</time>
      </trkpt>
      <trkpt lat="43.30979" lon="-1.28462">
        <ele>288.492044</ele>
        <time>2026-05-22T06:33:41.000Z</time>
      </trkpt>
      <trkpt lat="43.30978" lon="-1.28459">
        <ele>288.615318</ele>
        <time>2026-05-22T06:33:42.000Z</time>
      </trkpt>
      <trkpt lat="43.30977" lon="-1.28456">
        <ele>288.739114</ele>
        <time>2026-05-22T06:33:43.000Z</time>
      </trkpt>
      <trkpt lat="43.30977" lon="-1.28452">
        <ele>288.854705</ele>
        <time>2026-05-22T06:33:44.000Z</time>
      </trkpt>
      <trkpt lat="43.30976" lon="-1.28449">
        <ele>288.970296</ele>
        <time>2026-05-22T06:33:45.000Z</time>
      </trkpt>
      <trkpt lat="43.30975" lon="-1.28446">
        <ele>289.091966</ele>
        <time>2026-05-22T06:33:46.000Z</time>
      </trkpt>
      <trkpt lat="43.30974" lon="-1.28443">
        <ele>289.21197</ele>
        <time>2026-05-22T06:33:47.000Z</time>
      </trkpt>
      <trkpt lat="43.30973" lon="-1.28439">
        <ele>289.333791</ele>
        <time>2026-05-22T06:33:48.000Z</time>
      </trkpt>
      <trkpt lat="43.30973" lon="-1.28436">
        <ele>289.453795</ele>
        <time>2026-05-22T06:33:49.000Z</time>
      </trkpt>
      <trkpt lat="43.30971" lon="-1.28433">
        <ele>289.577591</ele>
        <time>2026-05-22T06:33:50.000Z</time>
      </trkpt>
      <trkpt lat="43.3097" lon="-1.2843">
        <ele>289.696206</ele>
        <time>2026-05-22T06:33:51.000Z</time>
      </trkpt>
      <trkpt lat="43.3097" lon="-1.28427">
        <ele>289.81948</ele>
        <time>2026-05-22T06:33:52.000Z</time>
      </trkpt>
      <trkpt lat="43.30969" lon="-1.28423">
        <ele>289.943079</ele>
        <time>2026-05-22T06:33:53.000Z</time>
      </trkpt>
      <trkpt lat="43.30968" lon="-1.2842">
        <ele>290.061436</ele>
        <time>2026-05-22T06:33:54.000Z</time>
      </trkpt>
      <trkpt lat="43.30967" lon="-1.28417">
        <ele>290.18471</ele>
        <time>2026-05-22T06:33:55.000Z</time>
      </trkpt>
      <trkpt lat="43.30966" lon="-1.28413">
        <ele>290.314558</ele>
        <time>2026-05-22T06:33:56.000Z</time>
      </trkpt>
      <trkpt lat="43.30965" lon="-1.2841">
        <ele>290.442836</ele>
        <time>2026-05-22T06:33:57.000Z</time>
      </trkpt>
      <trkpt lat="43.30964" lon="-1.28406">
        <ele>290.571114</ele>
        <time>2026-05-22T06:33:58.000Z</time>
      </trkpt>
      <trkpt lat="43.30963" lon="-1.28403">
        <ele>290.707693</ele>
        <time>2026-05-22T06:33:59.000Z</time>
      </trkpt>
      <trkpt lat="43.30962" lon="-1.28399">
        <ele>290.840844</ele>
        <time>2026-05-22T06:34:00.000Z</time>
      </trkpt>
      <trkpt lat="43.30961" lon="-1.28396">
        <ele>290.969123</ele>
        <time>2026-05-22T06:34:01.000Z</time>
      </trkpt>
      <trkpt lat="43.3096" lon="-1.28393">
        <ele>291.089127</ele>
        <time>2026-05-22T06:34:02.000Z</time>
      </trkpt>
      <trkpt lat="43.30959" lon="-1.28389">
        <ele>291.217406</ele>
        <time>2026-05-22T06:34:03.000Z</time>
      </trkpt>
      <trkpt lat="43.30959" lon="-1.28386">
        <ele>291.345733</ele>
        <time>2026-05-22T06:34:04.000Z</time>
      </trkpt>
      <trkpt lat="43.30958" lon="-1.28382">
        <ele>291.471513</ele>
        <time>2026-05-22T06:34:05.000Z</time>
      </trkpt>
      <trkpt lat="43.30957" lon="-1.28379">
        <ele>291.593183</ele>
        <time>2026-05-22T06:34:06.000Z</time>
      </trkpt>
      <trkpt lat="43.30956" lon="-1.28376">
        <ele>291.719739</ele>
        <time>2026-05-22T06:34:07.000Z</time>
      </trkpt>
      <trkpt lat="43.30955" lon="-1.28372">
        <ele>291.854529</ele>
        <time>2026-05-22T06:34:08.000Z</time>
      </trkpt>
      <trkpt lat="43.30954" lon="-1.28368">
        <ele>291.989319</ele>
        <time>2026-05-22T06:34:09.000Z</time>
      </trkpt>
      <trkpt lat="43.30953" lon="-1.28365">
        <ele>292.127383</ele>
        <time>2026-05-22T06:34:10.000Z</time>
      </trkpt>
      <trkpt lat="43.30953" lon="-1.28361">
        <ele>292.261111</ele>
        <time>2026-05-22T06:34:11.000Z</time>
      </trkpt>
      <trkpt lat="43.30952" lon="-1.28357">
        <ele>292.397575</ele>
        <time>2026-05-22T06:34:12.000Z</time>
      </trkpt>
      <trkpt lat="43.3095" lon="-1.28354">
        <ele>292.539273</ele>
        <time>2026-05-22T06:34:13.000Z</time>
      </trkpt>
      <trkpt lat="43.30949" lon="-1.2835">
        <ele>292.679084</ele>
        <time>2026-05-22T06:34:14.000Z</time>
      </trkpt>
      <trkpt lat="43.30948" lon="-1.28346">
        <ele>292.815548</ele>
        <time>2026-05-22T06:34:15.000Z</time>
      </trkpt>
      <trkpt lat="43.30947" lon="-1.28343">
        <ele>292.940073</ele>
        <time>2026-05-22T06:34:16.000Z</time>
      </trkpt>
      <trkpt lat="43.30946" lon="-1.28339">
        <ele>293.028091</ele>
        <time>2026-05-22T06:34:17.000Z</time>
      </trkpt>
      <trkpt lat="43.30945" lon="-1.28336">
        <ele>293.120483</ele>
        <time>2026-05-22T06:34:18.000Z</time>
      </trkpt>
      <trkpt lat="43.30944" lon="-1.28332">
        <ele>293.212875</ele>
        <time>2026-05-22T06:34:19.000Z</time>
      </trkpt>
      <trkpt lat="43.30943" lon="-1.28328">
        <ele>293.298718</ele>
        <time>2026-05-22T06:34:20.000Z</time>
      </trkpt>
      <trkpt lat="43.30942" lon="-1.28325">
        <ele>293.383685</ele>
        <time>2026-05-22T06:34:21.000Z</time>
      </trkpt>
      <trkpt lat="43.30941" lon="-1.28322">
        <ele>293.468651</ele>
        <time>2026-05-22T06:34:22.000Z</time>
      </trkpt>
      <trkpt lat="43.3094" lon="-1.28319">
        <ele>293.547855</ele>
        <time>2026-05-22T06:34:23.000Z</time>
      </trkpt>
      <trkpt lat="43.30939" lon="-1.28315">
        <ele>293.635873</ele>
        <time>2026-05-22T06:34:24.000Z</time>
      </trkpt>
      <trkpt lat="43.30938" lon="-1.28312">
        <ele>293.71525</ele>
        <time>2026-05-22T06:34:25.000Z</time>
      </trkpt>
      <trkpt lat="43.30938" lon="-1.28309">
        <ele>293.792244</ele>
        <time>2026-05-22T06:34:26.000Z</time>
      </trkpt>
      <trkpt lat="43.30937" lon="-1.28306">
        <ele>293.874739</ele>
        <time>2026-05-22T06:34:27.000Z</time>
      </trkpt>
      <trkpt lat="43.30936" lon="-1.28303">
        <ele>293.951733</ele>
        <time>2026-05-22T06:34:28.000Z</time>
      </trkpt>
      <trkpt lat="43.30935" lon="-1.28299">
        <ele>294.029951</ele>
        <time>2026-05-22T06:34:29.000Z</time>
      </trkpt>
      <trkpt lat="43.30935" lon="-1.28296">
        <ele>294.108169</ele>
        <time>2026-05-22T06:34:30.000Z</time>
      </trkpt>
      <trkpt lat="43.30934" lon="-1.28293">
        <ele>294.183257</ele>
        <time>2026-05-22T06:34:31.000Z</time>
      </trkpt>
      <trkpt lat="43.30933" lon="-1.2829">
        <ele>294.261476</ele>
        <time>2026-05-22T06:34:32.000Z</time>
      </trkpt>
      <trkpt lat="43.30932" lon="-1.28287">
        <ele>294.340852</ele>
        <time>2026-05-22T06:34:33.000Z</time>
      </trkpt>
      <trkpt lat="43.30931" lon="-1.28284">
        <ele>294.41898</ele>
        <time>2026-05-22T06:34:34.000Z</time>
      </trkpt>
      <trkpt lat="43.30931" lon="-1.28281">
        <ele>294.493772</ele>
        <time>2026-05-22T06:34:35.000Z</time>
      </trkpt>
      <trkpt lat="43.3093" lon="-1.28277">
        <ele>294.572976</ele>
        <time>2026-05-22T06:34:36.000Z</time>
      </trkpt>
      <trkpt lat="43.30929" lon="-1.28274">
        <ele>294.648065</ele>
        <time>2026-05-22T06:34:37.000Z</time>
      </trkpt>
      <trkpt lat="43.30928" lon="-1.28271">
        <ele>294.727442</ele>
        <time>2026-05-22T06:34:38.000Z</time>
      </trkpt>
      <trkpt lat="43.30927" lon="-1.28268">
        <ele>294.807578</ele>
        <time>2026-05-22T06:34:39.000Z</time>
      </trkpt>
      <trkpt lat="43.30926" lon="-1.28265">
        <ele>294.88482</ele>
        <time>2026-05-22T06:34:40.000Z</time>
      </trkpt>
      <trkpt lat="43.30925" lon="-1.28262">
        <ele>294.968498</ele>
        <time>2026-05-22T06:34:41.000Z</time>
      </trkpt>
      <trkpt lat="43.30924" lon="-1.28259">
        <ele>295.047702</ele>
        <time>2026-05-22T06:34:42.000Z</time>
      </trkpt>
      <trkpt lat="43.30923" lon="-1.28256">
        <ele>295.125831</ele>
        <time>2026-05-22T06:34:43.000Z</time>
      </trkpt>
      <trkpt lat="43.30923" lon="-1.28252">
        <ele>295.203184</ele>
        <time>2026-05-22T06:34:44.000Z</time>
      </trkpt>
      <trkpt lat="43.30922" lon="-1.28249">
        <ele>295.283491</ele>
        <time>2026-05-22T06:34:45.000Z</time>
      </trkpt>
      <trkpt lat="43.30921" lon="-1.28246">
        <ele>295.361619</ele>
        <time>2026-05-22T06:34:46.000Z</time>
      </trkpt>
      <trkpt lat="43.3092" lon="-1.28243">
        <ele>295.440996</ele>
        <time>2026-05-22T06:34:47.000Z</time>
      </trkpt>
      <trkpt lat="43.30919" lon="-1.2824">
        <ele>295.519124</ele>
        <time>2026-05-22T06:34:48.000Z</time>
      </trkpt>
      <trkpt lat="43.30918" lon="-1.28237">
        <ele>295.603815</ele>
        <time>2026-05-22T06:34:49.000Z</time>
      </trkpt>
      <trkpt lat="43.30917" lon="-1.28233">
        <ele>295.681944</ele>
        <time>2026-05-22T06:34:50.000Z</time>
      </trkpt>
      <trkpt lat="43.30916" lon="-1.2823">
        <ele>295.755691</ele>
        <time>2026-05-22T06:34:51.000Z</time>
      </trkpt>
      <trkpt lat="43.30915" lon="-1.28227">
        <ele>295.835067</ele>
        <time>2026-05-22T06:34:52.000Z</time>
      </trkpt>
      <trkpt lat="43.30914" lon="-1.28224">
        <ele>295.91659</ele>
        <time>2026-05-22T06:34:53.000Z</time>
      </trkpt>
      <trkpt lat="43.30914" lon="-1.28221">
        <ele>295.991382</ele>
        <time>2026-05-22T06:34:54.000Z</time>
      </trkpt>
      <trkpt lat="43.30913" lon="-1.28218">
        <ele>296.0696</ele>
        <time>2026-05-22T06:34:55.000Z</time>
      </trkpt>
      <trkpt lat="43.30912" lon="-1.28215">
        <ele>296.154291</ele>
        <time>2026-05-22T06:34:56.000Z</time>
      </trkpt>
      <trkpt lat="43.30911" lon="-1.28211">
        <ele>296.241391</ele>
        <time>2026-05-22T06:34:57.000Z</time>
      </trkpt>
      <trkpt lat="43.3091" lon="-1.28208">
        <ele>296.32507</ele>
        <time>2026-05-22T06:34:58.000Z</time>
      </trkpt>
      <trkpt lat="43.30909" lon="-1.28205">
        <ele>296.403707</ele>
        <time>2026-05-22T06:34:59.000Z</time>
      </trkpt>
      <trkpt lat="43.30908" lon="-1.28202">
        <ele>296.487385</ele>
        <time>2026-05-22T06:35:00.000Z</time>
      </trkpt>
      <trkpt lat="43.30907" lon="-1.28198">
        <ele>296.570098</ele>
        <time>2026-05-22T06:35:01.000Z</time>
      </trkpt>
      <trkpt lat="43.30906" lon="-1.28195">
        <ele>296.656992</ele>
        <time>2026-05-22T06:35:02.000Z</time>
      </trkpt>
      <trkpt lat="43.30905" lon="-1.28191">
        <ele>296.738414</ele>
        <time>2026-05-22T06:35:03.000Z</time>
      </trkpt>
      <trkpt lat="43.30905" lon="-1.28188">
        <ele>296.819836</ele>
        <time>2026-05-22T06:35:04.000Z</time>
      </trkpt>
      <trkpt lat="43.30904" lon="-1.28185">
        <ele>296.904527</ele>
        <time>2026-05-22T06:35:05.000Z</time>
      </trkpt>
      <trkpt lat="43.30903" lon="-1.28181">
        <ele>296.990403</ele>
        <time>2026-05-22T06:35:06.000Z</time>
      </trkpt>
      <trkpt lat="43.30902" lon="-1.28178">
        <ele>297.078422</ele>
        <time>2026-05-22T06:35:07.000Z</time>
      </trkpt>
      <trkpt lat="43.30901" lon="-1.28174">
        <ele>297.172498</ele>
        <time>2026-05-22T06:35:08.000Z</time>
      </trkpt>
      <trkpt lat="43.309" lon="-1.2817">
        <ele>297.2627</ele>
        <time>2026-05-22T06:35:09.000Z</time>
      </trkpt>
      <trkpt lat="43.30899" lon="-1.28167">
        <ele>297.355092</ele>
        <time>2026-05-22T06:35:10.000Z</time>
      </trkpt>
      <trkpt lat="43.30898" lon="-1.28163">
        <ele>297.450866</ele>
        <time>2026-05-22T06:35:11.000Z</time>
      </trkpt>
      <trkpt lat="43.30897" lon="-1.28159">
        <ele>297.542188</ele>
        <time>2026-05-22T06:35:12.000Z</time>
      </trkpt>
      <trkpt lat="43.30896" lon="-1.28155">
        <ele>297.639155</ele>
        <time>2026-05-22T06:35:13.000Z</time>
      </trkpt>
      <trkpt lat="43.30894" lon="-1.28151">
        <ele>297.738274</ele>
        <time>2026-05-22T06:35:14.000Z</time>
      </trkpt>
      <trkpt lat="43.30894" lon="-1.28148">
        <ele>297.833125</ele>
        <time>2026-05-22T06:35:15.000Z</time>
      </trkpt>
      <trkpt lat="43.30893" lon="-1.28143">
        <ele>297.934753</ele>
        <time>2026-05-22T06:35:16.000Z</time>
      </trkpt>
      <trkpt lat="43.30892" lon="-1.28139">
        <ele>298.045876</ele>
        <time>2026-05-22T06:35:17.000Z</time>
      </trkpt>
      <trkpt lat="43.30891" lon="-1.28134">
        <ele>298.164683</ele>
        <time>2026-05-22T06:35:18.000Z</time>
      </trkpt>
      <trkpt lat="43.30889" lon="-1.28129">
        <ele>298.279072</ele>
        <time>2026-05-22T06:35:19.000Z</time>
      </trkpt>
      <trkpt lat="43.30888" lon="-1.28124">
        <ele>298.401347</ele>
        <time>2026-05-22T06:35:20.000Z</time>
      </trkpt>
      <trkpt lat="43.30887" lon="-1.28119">
        <ele>298.533333</ele>
        <time>2026-05-22T06:35:21.000Z</time>
      </trkpt>
      <trkpt lat="43.30885" lon="-1.28114">
        <ele>298.671941</ele>
        <time>2026-05-22T06:35:22.000Z</time>
      </trkpt>
      <trkpt lat="43.30884" lon="-1.28108">
        <ele>298.6338</ele>
        <time>2026-05-22T06:35:23.000Z</time>
      </trkpt>
      <trkpt lat="43.30883" lon="-1.28102">
        <ele>298.503074</ele>
        <time>2026-05-22T06:35:24.000Z</time>
      </trkpt>
      <trkpt lat="43.30882" lon="-1.28096">
        <ele>298.367388</ele>
        <time>2026-05-22T06:35:25.000Z</time>
      </trkpt>
      <trkpt lat="43.30881" lon="-1.2809">
        <ele>298.227275</ele>
        <time>2026-05-22T06:35:26.000Z</time>
      </trkpt>
      <trkpt lat="43.3088" lon="-1.28083">
        <ele>298.075732</ele>
        <time>2026-05-22T06:35:27.000Z</time>
      </trkpt>
      <trkpt lat="43.30878" lon="-1.28077">
        <ele>297.92075</ele>
        <time>2026-05-22T06:35:28.000Z</time>
      </trkpt>
      <trkpt lat="43.30877" lon="-1.28069">
        <ele>297.757927</ele>
        <time>2026-05-22T06:35:29.000Z</time>
      </trkpt>
      <trkpt lat="43.30876" lon="-1.28062">
        <ele>297.585643</ele>
        <time>2026-05-22T06:35:30.000Z</time>
      </trkpt>
      <trkpt lat="43.30874" lon="-1.28054">
        <ele>297.409123</ele>
        <time>2026-05-22T06:35:31.000Z</time>
      </trkpt>
      <trkpt lat="43.30872" lon="-1.28046">
        <ele>297.223292</ele>
        <time>2026-05-22T06:35:32.000Z</time>
      </trkpt>
      <trkpt lat="43.30871" lon="-1.28038">
        <ele>297.02762</ele>
        <time>2026-05-22T06:35:33.000Z</time>
      </trkpt>
      <trkpt lat="43.30869" lon="-1.28029">
        <ele>296.823394</ele>
        <time>2026-05-22T06:35:34.000Z</time>
      </trkpt>
      <trkpt lat="43.30867" lon="-1.28019">
        <ele>296.610463</ele>
        <time>2026-05-22T06:35:35.000Z</time>
      </trkpt>
      <trkpt lat="43.30865" lon="-1.2801">
        <ele>296.389029</ele>
        <time>2026-05-22T06:35:36.000Z</time>
      </trkpt>
      <trkpt lat="43.30863" lon="-1.28">
        <ele>296.161204</ele>
        <time>2026-05-22T06:35:37.000Z</time>
      </trkpt>
      <trkpt lat="43.30861" lon="-1.27989">
        <ele>295.925412</ele>
        <time>2026-05-22T06:35:38.000Z</time>
      </trkpt>
      <trkpt lat="43.30859" lon="-1.27979">
        <ele>295.683245</ele>
        <time>2026-05-22T06:35:39.000Z</time>
      </trkpt>
      <trkpt lat="43.30857" lon="-1.27968">
        <ele>295.43256</ele>
        <time>2026-05-22T06:35:40.000Z</time>
      </trkpt>
      <trkpt lat="43.30855" lon="-1.27957">
        <ele>295.180269</ele>
        <time>2026-05-22T06:35:41.000Z</time>
      </trkpt>
      <trkpt lat="43.30852" lon="-1.27946">
        <ele>294.927978</ele>
        <time>2026-05-22T06:35:42.000Z</time>
      </trkpt>
      <trkpt lat="43.3085" lon="-1.27935">
        <ele>294.679922</ele>
        <time>2026-05-22T06:35:43.000Z</time>
      </trkpt>
      <trkpt lat="43.30848" lon="-1.27924">
        <ele>294.429749</ele>
        <time>2026-05-22T06:35:44.000Z</time>
      </trkpt>
      <trkpt lat="43.30846" lon="-1.27913">
        <ele>294.183807</ele>
        <time>2026-05-22T06:35:45.000Z</time>
      </trkpt>
      <trkpt lat="43.30843" lon="-1.27903">
        <ele>293.94589</ele>
        <time>2026-05-22T06:35:46.000Z</time>
      </trkpt>
      <trkpt lat="43.30841" lon="-1.27893">
        <ele>293.713489</ele>
        <time>2026-05-22T06:35:47.000Z</time>
      </trkpt>
      <trkpt lat="43.30839" lon="-1.27883">
        <ele>293.489926</ele>
        <time>2026-05-22T06:35:48.000Z</time>
      </trkpt>
      <trkpt lat="43.30837" lon="-1.27873">
        <ele>293.270619</ele>
        <time>2026-05-22T06:35:49.000Z</time>
      </trkpt>
      <trkpt lat="43.30836" lon="-1.27864">
        <ele>293.25475</ele>
        <time>2026-05-22T06:35:50.000Z</time>
      </trkpt>
      <trkpt lat="43.30834" lon="-1.27854">
        <ele>293.239562</ele>
        <time>2026-05-22T06:35:51.000Z</time>
      </trkpt>
      <trkpt lat="43.30832" lon="-1.27845">
        <ele>293.224169</ele>
        <time>2026-05-22T06:35:52.000Z</time>
      </trkpt>
      <trkpt lat="43.3083" lon="-1.27835">
        <ele>293.208863</ele>
        <time>2026-05-22T06:35:53.000Z</time>
      </trkpt>
      <trkpt lat="43.30827" lon="-1.27826">
        <ele>293.193558</ele>
        <time>2026-05-22T06:35:54.000Z</time>
      </trkpt>
      <trkpt lat="43.30826" lon="-1.27816">
        <ele>293.178574</ele>
        <time>2026-05-22T06:35:55.000Z</time>
      </trkpt>
      <trkpt lat="43.30824" lon="-1.27807">
        <ele>293.163477</ele>
        <time>2026-05-22T06:35:56.000Z</time>
      </trkpt>
      <trkpt lat="43.30822" lon="-1.27797">
        <ele>293.147947</ele>
        <time>2026-05-22T06:35:57.000Z</time>
      </trkpt>
      <trkpt lat="43.3082" lon="-1.27787">
        <ele>293.132416</ele>
        <time>2026-05-22T06:35:58.000Z</time>
      </trkpt>
      <trkpt lat="43.30819" lon="-1.27778">
        <ele>293.117336</ele>
        <time>2026-05-22T06:35:59.000Z</time>
      </trkpt>
      <trkpt lat="43.30817" lon="-1.27768">
        <ele>293.101805</ele>
        <time>2026-05-22T06:36:00.000Z</time>
      </trkpt>
      <trkpt lat="43.30816" lon="-1.27758">
        <ele>293.086449</ele>
        <time>2026-05-22T06:36:01.000Z</time>
      </trkpt>
      <trkpt lat="43.30815" lon="-1.27749">
        <ele>293.0715</ele>
        <time>2026-05-22T06:36:02.000Z</time>
      </trkpt>
      <trkpt lat="43.30813" lon="-1.27739">
        <ele>293.056975</ele>
        <time>2026-05-22T06:36:03.000Z</time>
      </trkpt>
      <trkpt lat="43.30812" lon="-1.2773">
        <ele>293.042483</ele>
        <time>2026-05-22T06:36:04.000Z</time>
      </trkpt>
      <trkpt lat="43.30811" lon="-1.27721">
        <ele>293.028111</ele>
        <time>2026-05-22T06:36:05.000Z</time>
      </trkpt>
      <trkpt lat="43.3081" lon="-1.27711">
        <ele>293.013495</ele>
        <time>2026-05-22T06:36:06.000Z</time>
      </trkpt>
      <trkpt lat="43.3081" lon="-1.27702">
        <ele>292.999564</ele>
        <time>2026-05-22T06:36:07.000Z</time>
      </trkpt>
      <trkpt lat="43.30809" lon="-1.27694">
        <ele>292.985764</ele>
        <time>2026-05-22T06:36:08.000Z</time>
      </trkpt>
      <trkpt lat="43.30809" lon="-1.27685">
        <ele>292.972599</ele>
        <time>2026-05-22T06:36:09.000Z</time>
      </trkpt>
      <trkpt lat="43.30808" lon="-1.27677">
        <ele>292.959895</ele>
        <time>2026-05-22T06:36:10.000Z</time>
      </trkpt>
      <trkpt lat="43.30808" lon="-1.27669">
        <ele>292.947995</ele>
        <time>2026-05-22T06:36:11.000Z</time>
      </trkpt>
      <trkpt lat="43.30807" lon="-1.27662">
        <ele>292.93671</ele>
        <time>2026-05-22T06:36:12.000Z</time>
      </trkpt>
      <trkpt lat="43.30807" lon="-1.27655">
        <ele>292.925609</ele>
        <time>2026-05-22T06:36:13.000Z</time>
      </trkpt>
      <trkpt lat="43.30807" lon="-1.27648">
        <ele>292.914953</ele>
        <time>2026-05-22T06:36:14.000Z</time>
      </trkpt>
      <trkpt lat="43.30806" lon="-1.27641">
        <ele>292.904436</ele>
        <time>2026-05-22T06:36:15.000Z</time>
      </trkpt>
      <trkpt lat="43.30806" lon="-1.27634">
        <ele>292.893766</ele>
        <time>2026-05-22T06:36:16.000Z</time>
      </trkpt>
      <trkpt lat="43.30805" lon="-1.27627">
        <ele>292.862629</ele>
        <time>2026-05-22T06:36:17.000Z</time>
      </trkpt>
      <trkpt lat="43.30805" lon="-1.2762">
        <ele>292.8155</ele>
        <time>2026-05-22T06:36:18.000Z</time>
      </trkpt>
      <trkpt lat="43.30804" lon="-1.27614">
        <ele>292.770458</ele>
        <time>2026-05-22T06:36:19.000Z</time>
      </trkpt>
      <trkpt lat="43.30804" lon="-1.27608">
        <ele>292.724327</ele>
        <time>2026-05-22T06:36:20.000Z</time>
      </trkpt>
      <trkpt lat="43.30803" lon="-1.27601">
        <ele>292.680265</ele>
        <time>2026-05-22T06:36:21.000Z</time>
      </trkpt>
      <trkpt lat="43.30802" lon="-1.27595">
        <ele>292.636892</ele>
        <time>2026-05-22T06:36:22.000Z</time>
      </trkpt>
      <trkpt lat="43.30801" lon="-1.27589">
        <ele>292.593339</ele>
        <time>2026-05-22T06:36:23.000Z</time>
      </trkpt>
      <trkpt lat="43.308" lon="-1.27583">
        <ele>292.549966</ele>
        <time>2026-05-22T06:36:24.000Z</time>
      </trkpt>
      <trkpt lat="43.308" lon="-1.27577">
        <ele>292.506753</ele>
        <time>2026-05-22T06:36:25.000Z</time>
      </trkpt>
      <trkpt lat="43.30799" lon="-1.27571">
        <ele>292.46354</ele>
        <time>2026-05-22T06:36:26.000Z</time>
      </trkpt>
      <trkpt lat="43.30798" lon="-1.27565">
        <ele>292.418789</ele>
        <time>2026-05-22T06:36:27.000Z</time>
      </trkpt>
      <trkpt lat="43.30797" lon="-1.27558">
        <ele>292.370243</ele>
        <time>2026-05-22T06:36:28.000Z</time>
      </trkpt>
      <trkpt lat="43.30796" lon="-1.27551">
        <ele>292.320131</ele>
        <time>2026-05-22T06:36:29.000Z</time>
      </trkpt>
      <trkpt lat="43.30795" lon="-1.27544">
        <ele>292.270899</ele>
        <time>2026-05-22T06:36:30.000Z</time>
      </trkpt>
      <trkpt lat="43.30794" lon="-1.27536">
        <ele>292.218232</ele>
        <time>2026-05-22T06:36:31.000Z</time>
      </trkpt>
      <trkpt lat="43.30793" lon="-1.27529">
        <ele>292.164008</ele>
        <time>2026-05-22T06:36:32.000Z</time>
      </trkpt>
      <trkpt lat="43.30792" lon="-1.27521">
        <ele>292.10847</ele>
        <time>2026-05-22T06:36:33.000Z</time>
      </trkpt>
      <trkpt lat="43.3079" lon="-1.27513">
        <ele>292.052253</ele>
        <time>2026-05-22T06:36:34.000Z</time>
      </trkpt>
      <trkpt lat="43.30789" lon="-1.27505">
        <ele>291.995356</ele>
        <time>2026-05-22T06:36:35.000Z</time>
      </trkpt>
      <trkpt lat="43.30788" lon="-1.27497">
        <ele>291.936141</ele>
        <time>2026-05-22T06:36:36.000Z</time>
      </trkpt>
      <trkpt lat="43.30786" lon="-1.27489">
        <ele>291.876731</ele>
        <time>2026-05-22T06:36:37.000Z</time>
      </trkpt>
      <trkpt lat="43.30785" lon="-1.2748">
        <ele>291.816318</ele>
        <time>2026-05-22T06:36:38.000Z</time>
      </trkpt>
      <trkpt lat="43.30784" lon="-1.27472">
        <ele>291.755729</ele>
        <time>2026-05-22T06:36:39.000Z</time>
      </trkpt>
      <trkpt lat="43.30783" lon="-1.27464">
        <ele>291.697886</ele>
        <time>2026-05-22T06:36:40.000Z</time>
      </trkpt>
      <trkpt lat="43.30781" lon="-1.27455">
        <ele>291.638041</ele>
        <time>2026-05-22T06:36:41.000Z</time>
      </trkpt>
      <trkpt lat="43.3078" lon="-1.27447">
        <ele>291.576374</ele>
        <time>2026-05-22T06:36:42.000Z</time>
      </trkpt>
      <trkpt lat="43.30779" lon="-1.27438">
        <ele>291.514411</ele>
        <time>2026-05-22T06:36:43.000Z</time>
      </trkpt>
      <trkpt lat="43.30777" lon="-1.27429">
        <ele>291.451377</ele>
        <time>2026-05-22T06:36:44.000Z</time>
      </trkpt>
      <trkpt lat="43.30776" lon="-1.2742">
        <ele>291.38766</ele>
        <time>2026-05-22T06:36:45.000Z</time>
      </trkpt>
      <trkpt lat="43.30774" lon="-1.27412">
        <ele>291.323509</ele>
        <time>2026-05-22T06:36:46.000Z</time>
      </trkpt>
      <trkpt lat="43.30773" lon="-1.27403">
        <ele>291.258443</ele>
        <time>2026-05-22T06:36:47.000Z</time>
      </trkpt>
      <trkpt lat="43.30771" lon="-1.27393">
        <ele>291.192672</ele>
        <time>2026-05-22T06:36:48.000Z</time>
      </trkpt>
      <trkpt lat="43.3077" lon="-1.27384">
        <ele>290.958766</ele>
        <time>2026-05-22T06:36:49.000Z</time>
      </trkpt>
      <trkpt lat="43.30769" lon="-1.27375">
        <ele>290.553857</ele>
        <time>2026-05-22T06:36:50.000Z</time>
      </trkpt>
      <trkpt lat="43.30768" lon="-1.27366">
        <ele>290.143391</ele>
        <time>2026-05-22T06:36:51.000Z</time>
      </trkpt>
      <trkpt lat="43.30766" lon="-1.27356">
        <ele>289.723383</ele>
        <time>2026-05-22T06:36:52.000Z</time>
      </trkpt>
      <trkpt lat="43.30766" lon="-1.27346">
        <ele>289.284132</ele>
        <time>2026-05-22T06:36:53.000Z</time>
      </trkpt>
      <trkpt lat="43.30765" lon="-1.27336">
        <ele>288.838133</ele>
        <time>2026-05-22T06:36:54.000Z</time>
      </trkpt>
      <trkpt lat="43.30765" lon="-1.27326">
        <ele>288.379328</ele>
        <time>2026-05-22T06:36:55.000Z</time>
      </trkpt>
      <trkpt lat="43.30765" lon="-1.27314">
        <ele>287.894345</ele>
        <time>2026-05-22T06:36:56.000Z</time>
      </trkpt>
      <trkpt lat="43.30765" lon="-1.27303">
        <ele>287.387829</ele>
        <time>2026-05-22T06:36:57.000Z</time>
      </trkpt>
      <trkpt lat="43.30765" lon="-1.27291">
        <ele>286.868251</ele>
        <time>2026-05-22T06:36:58.000Z</time>
      </trkpt>
      <trkpt lat="43.30765" lon="-1.27279">
        <ele>286.33554</ele>
        <time>2026-05-22T06:36:59.000Z</time>
      </trkpt>
      <trkpt lat="43.30765" lon="-1.27266">
        <ele>285.794097</ele>
        <time>2026-05-22T06:37:00.000Z</time>
      </trkpt>
      <trkpt lat="43.30765" lon="-1.27254">
        <ele>285.23519</ele>
        <time>2026-05-22T06:37:01.000Z</time>
      </trkpt>
      <trkpt lat="43.30765" lon="-1.2724">
        <ele>284.65882</ele>
        <time>2026-05-22T06:37:02.000Z</time>
      </trkpt>
      <trkpt lat="43.30765" lon="-1.27227">
        <ele>284.07799</ele>
        <time>2026-05-22T06:37:03.000Z</time>
      </trkpt>
      <trkpt lat="43.30765" lon="-1.27213">
        <ele>283.483914</ele>
        <time>2026-05-22T06:37:04.000Z</time>
      </trkpt>
      <trkpt lat="43.30766" lon="-1.272">
        <ele>282.881109</ele>
        <time>2026-05-22T06:37:05.000Z</time>
      </trkpt>
      <trkpt lat="43.30766" lon="-1.27186">
        <ele>282.274176</ele>
        <time>2026-05-22T06:37:06.000Z</time>
      </trkpt>
      <trkpt lat="43.30766" lon="-1.27172">
        <ele>281.667274</ele>
        <time>2026-05-22T06:37:07.000Z</time>
      </trkpt>
      <trkpt lat="43.30766" lon="-1.27158">
        <ele>281.051376</ele>
        <time>2026-05-22T06:37:08.000Z</time>
      </trkpt>
      <trkpt lat="43.30766" lon="-1.27143">
        <ele>280.422528</ele>
        <time>2026-05-22T06:37:09.000Z</time>
      </trkpt>
      <trkpt lat="43.30766" lon="-1.27129">
        <ele>279.952241</ele>
        <time>2026-05-22T06:37:10.000Z</time>
      </trkpt>
      <trkpt lat="43.30767" lon="-1.27114">
        <ele>279.488493</ele>
        <time>2026-05-22T06:37:11.000Z</time>
      </trkpt>
      <trkpt lat="43.30767" lon="-1.27099">
        <ele>279.015179</ele>
        <time>2026-05-22T06:37:12.000Z</time>
      </trkpt>
      <trkpt lat="43.30767" lon="-1.27083">
        <ele>278.535951</ele>
        <time>2026-05-22T06:37:13.000Z</time>
      </trkpt>
      <trkpt lat="43.30767" lon="-1.27068">
        <ele>278.047369</ele>
        <time>2026-05-22T06:37:14.000Z</time>
      </trkpt>
      <trkpt lat="43.30767" lon="-1.27052">
        <ele>277.549451</ele>
        <time>2026-05-22T06:37:15.000Z</time>
      </trkpt>
      <trkpt lat="43.30767" lon="-1.27035">
        <ele>277.042054</ele>
        <time>2026-05-22T06:37:16.000Z</time>
      </trkpt>
      <trkpt lat="43.30766" lon="-1.27019">
        <ele>276.536464</ele>
        <time>2026-05-22T06:37:17.000Z</time>
      </trkpt>
      <trkpt lat="43.30764" lon="-1.27003">
        <ele>276.036968</ele>
        <time>2026-05-22T06:37:18.000Z</time>
      </trkpt>
      <trkpt lat="43.30762" lon="-1.26988">
        <ele>275.544701</ele>
        <time>2026-05-22T06:37:19.000Z</time>
      </trkpt>
      <trkpt lat="43.30759" lon="-1.26973">
        <ele>275.073746</ele>
        <time>2026-05-22T06:37:20.000Z</time>
      </trkpt>
      <trkpt lat="43.30756" lon="-1.26959">
        <ele>274.624311</ele>
        <time>2026-05-22T06:37:21.000Z</time>
      </trkpt>
      <trkpt lat="43.30753" lon="-1.26946">
        <ele>274.203139</ele>
        <time>2026-05-22T06:37:22.000Z</time>
      </trkpt>
      <trkpt lat="43.30749" lon="-1.26934">
        <ele>273.79505</ele>
        <time>2026-05-22T06:37:23.000Z</time>
      </trkpt>
      <trkpt lat="43.30745" lon="-1.26923">
        <ele>273.404848</ele>
        <time>2026-05-22T06:37:24.000Z</time>
      </trkpt>
      <trkpt lat="43.30742" lon="-1.26913">
        <ele>273.052071</ele>
        <time>2026-05-22T06:37:25.000Z</time>
      </trkpt>
      <trkpt lat="43.30738" lon="-1.26903">
        <ele>272.716762</ele>
        <time>2026-05-22T06:37:26.000Z</time>
      </trkpt>
      <trkpt lat="43.30734" lon="-1.26894">
        <ele>272.588758</ele>
        <time>2026-05-22T06:37:27.000Z</time>
      </trkpt>
      <trkpt lat="43.30731" lon="-1.26886">
        <ele>272.496881</ele>
        <time>2026-05-22T06:37:28.000Z</time>
      </trkpt>
      <trkpt lat="43.30728" lon="-1.26879">
        <ele>272.412663</ele>
        <time>2026-05-22T06:37:29.000Z</time>
      </trkpt>
      <trkpt lat="43.30724" lon="-1.26873">
        <ele>272.33578</ele>
        <time>2026-05-22T06:37:30.000Z</time>
      </trkpt>
      <trkpt lat="43.30721" lon="-1.26868">
        <ele>272.261432</ele>
        <time>2026-05-22T06:37:31.000Z</time>
      </trkpt>
      <trkpt lat="43.30717" lon="-1.26863">
        <ele>272.192765</ele>
        <time>2026-05-22T06:37:32.000Z</time>
      </trkpt>
      <trkpt lat="43.30714" lon="-1.26858">
        <ele>272.129534</ele>
        <time>2026-05-22T06:37:33.000Z</time>
      </trkpt>
      <trkpt lat="43.3071" lon="-1.26854">
        <ele>272.066336</ele>
        <time>2026-05-22T06:37:34.000Z</time>
      </trkpt>
      <trkpt lat="43.30707" lon="-1.2685">
        <ele>272.005049</ele>
        <time>2026-05-22T06:37:35.000Z</time>
      </trkpt>
      <trkpt lat="43.30703" lon="-1.26846">
        <ele>271.947743</ele>
        <time>2026-05-22T06:37:36.000Z</time>
      </trkpt>
      <trkpt lat="43.307" lon="-1.26843">
        <ele>271.890863</ele>
        <time>2026-05-22T06:37:37.000Z</time>
      </trkpt>
      <trkpt lat="43.30697" lon="-1.26839">
        <ele>271.830803</ele>
        <time>2026-05-22T06:37:38.000Z</time>
      </trkpt>
      <trkpt lat="43.30693" lon="-1.26835">
        <ele>271.766346</ele>
        <time>2026-05-22T06:37:39.000Z</time>
      </trkpt>
      <trkpt lat="43.30689" lon="-1.26832">
        <ele>271.700207</ele>
        <time>2026-05-22T06:37:40.000Z</time>
      </trkpt>
      <trkpt lat="43.30685" lon="-1.26828">
        <ele>271.629583</ele>
        <time>2026-05-22T06:37:41.000Z</time>
      </trkpt>
      <trkpt lat="43.3068" lon="-1.26823">
        <ele>271.555597</ele>
        <time>2026-05-22T06:37:42.000Z</time>
      </trkpt>
      <trkpt lat="43.30675" lon="-1.26819">
        <ele>271.474885</ele>
        <time>2026-05-22T06:37:43.000Z</time>
      </trkpt>
      <trkpt lat="43.3067" lon="-1.26814">
        <ele>271.39081</ele>
        <time>2026-05-22T06:37:44.000Z</time>
      </trkpt>
      <trkpt lat="43.30665" lon="-1.26809">
        <ele>271.303339</ele>
        <time>2026-05-22T06:37:45.000Z</time>
      </trkpt>
      <trkpt lat="43.30659" lon="-1.26805">
        <ele>271.2149</ele>
        <time>2026-05-22T06:37:46.000Z</time>
      </trkpt>
      <trkpt lat="43.30653" lon="-1.268">
        <ele>271.123818</ele>
        <time>2026-05-22T06:37:47.000Z</time>
      </trkpt>
      <trkpt lat="43.30647" lon="-1.26795">
        <ele>271.030563</ele>
        <time>2026-05-22T06:37:48.000Z</time>
      </trkpt>
      <trkpt lat="43.30641" lon="-1.2679">
        <ele>270.935231</ele>
        <time>2026-05-22T06:37:49.000Z</time>
      </trkpt>
      <trkpt lat="43.30635" lon="-1.26785">
        <ele>270.838751</ele>
        <time>2026-05-22T06:37:50.000Z</time>
      </trkpt>
      <trkpt lat="43.30629" lon="-1.2678">
        <ele>270.73952</ele>
        <time>2026-05-22T06:37:51.000Z</time>
      </trkpt>
      <trkpt lat="43.30623" lon="-1.26774">
        <ele>270.637491</ele>
        <time>2026-05-22T06:37:52.000Z</time>
      </trkpt>
      <trkpt lat="43.30617" lon="-1.26768">
        <ele>270.535479</ele>
        <time>2026-05-22T06:37:53.000Z</time>
      </trkpt>
      <trkpt lat="43.3061" lon="-1.26762">
        <ele>270.431657</ele>
        <time>2026-05-22T06:37:54.000Z</time>
      </trkpt>
      <trkpt lat="43.30604" lon="-1.26756">
        <ele>270.325104</ele>
        <time>2026-05-22T06:37:55.000Z</time>
      </trkpt>
      <trkpt lat="43.30597" lon="-1.2675">
        <ele>270.228018</ele>
        <time>2026-05-22T06:37:56.000Z</time>
      </trkpt>
      <trkpt lat="43.3059" lon="-1.26744">
        <ele>270.220425</ele>
        <time>2026-05-22T06:37:57.000Z</time>
      </trkpt>
      <trkpt lat="43.30584" lon="-1.26738">
        <ele>270.212947</ele>
        <time>2026-05-22T06:37:58.000Z</time>
      </trkpt>
      <trkpt lat="43.30578" lon="-1.26732">
        <ele>270.205778</ele>
        <time>2026-05-22T06:37:59.000Z</time>
      </trkpt>
      <trkpt lat="43.30572" lon="-1.26725">
        <ele>270.198722</ele>
        <time>2026-05-22T06:38:00.000Z</time>
      </trkpt>
      <trkpt lat="43.30566" lon="-1.26719">
        <ele>270.191953</ele>
        <time>2026-05-22T06:38:01.000Z</time>
      </trkpt>
      <trkpt lat="43.30561" lon="-1.26712">
        <ele>270.18501</ele>
        <time>2026-05-22T06:38:02.000Z</time>
      </trkpt>
      <trkpt lat="43.30556" lon="-1.26704">
        <ele>270.177987</ele>
        <time>2026-05-22T06:38:03.000Z</time>
      </trkpt>
      <trkpt lat="43.30551" lon="-1.26696">
        <ele>270.170997</ele>
        <time>2026-05-22T06:38:04.000Z</time>
      </trkpt>
      <trkpt lat="43.30548" lon="-1.26687">
        <ele>270.164112</ele>
        <time>2026-05-22T06:38:05.000Z</time>
      </trkpt>
      <trkpt lat="43.30545" lon="-1.26678">
        <ele>270.157288</ele>
        <time>2026-05-22T06:38:06.000Z</time>
      </trkpt>
      <trkpt lat="43.30542" lon="-1.26668">
        <ele>270.150413</ele>
        <time>2026-05-22T06:38:07.000Z</time>
      </trkpt>
      <trkpt lat="43.3054" lon="-1.26659">
        <ele>270.143486</ele>
        <time>2026-05-22T06:38:08.000Z</time>
      </trkpt>
      <trkpt lat="43.30539" lon="-1.26649">
        <ele>270.136907</ele>
        <time>2026-05-22T06:38:09.000Z</time>
      </trkpt>
      <trkpt lat="43.30538" lon="-1.26639">
        <ele>270.130127</ele>
        <time>2026-05-22T06:38:10.000Z</time>
      </trkpt>
      <trkpt lat="43.30538" lon="-1.26629">
        <ele>270.123373</ele>
        <time>2026-05-22T06:38:11.000Z</time>
      </trkpt>
      <trkpt lat="43.30538" lon="-1.26619">
        <ele>270.116633</ele>
        <time>2026-05-22T06:38:12.000Z</time>
      </trkpt>
      <trkpt lat="43.30537" lon="-1.2661">
        <ele>270.110028</ele>
        <time>2026-05-22T06:38:13.000Z</time>
      </trkpt>
      <trkpt lat="43.30537" lon="-1.266">
        <ele>270.10356</ele>
        <time>2026-05-22T06:38:14.000Z</time>
      </trkpt>
      <trkpt lat="43.30537" lon="-1.26591">
        <ele>270.097366</ele>
        <time>2026-05-22T06:38:15.000Z</time>
      </trkpt>
      <trkpt lat="43.30537" lon="-1.26583">
        <ele>270.091581</ele>
        <time>2026-05-22T06:38:16.000Z</time>
      </trkpt>
      <trkpt lat="43.30538" lon="-1.26575">
        <ele>270.08626</ele>
        <time>2026-05-22T06:38:17.000Z</time>
      </trkpt>
      <trkpt lat="43.30538" lon="-1.26567">
        <ele>270.081215</ele>
        <time>2026-05-22T06:38:18.000Z</time>
      </trkpt>
      <trkpt lat="43.30538" lon="-1.2656">
        <ele>270.076369</ele>
        <time>2026-05-22T06:38:19.000Z</time>
      </trkpt>
      <trkpt lat="43.30539" lon="-1.26554">
        <ele>270.071842</ele>
        <time>2026-05-22T06:38:20.000Z</time>
      </trkpt>
      <trkpt lat="43.3054" lon="-1.26548">
        <ele>270.067572</ele>
        <time>2026-05-22T06:38:21.000Z</time>
      </trkpt>
      <trkpt lat="43.3054" lon="-1.26542">
        <ele>270.063621</ele>
        <time>2026-05-22T06:38:22.000Z</time>
      </trkpt>
      <trkpt lat="43.30541" lon="-1.26536">
        <ele>270.105679</ele>
        <time>2026-05-22T06:38:23.000Z</time>
      </trkpt>
      <trkpt lat="43.30542" lon="-1.26531">
        <ele>270.289075</ele>
        <time>2026-05-22T06:38:24.000Z</time>
      </trkpt>
      <trkpt lat="43.30543" lon="-1.26527">
        <ele>270.452512</ele>
        <time>2026-05-22T06:38:25.000Z</time>
      </trkpt>
      <trkpt lat="43.30544" lon="-1.26522">
        <ele>270.612142</ele>
        <time>2026-05-22T06:38:26.000Z</time>
      </trkpt>
      <trkpt lat="43.30545" lon="-1.26518">
        <ele>270.768532</ele>
        <time>2026-05-22T06:38:27.000Z</time>
      </trkpt>
      <trkpt lat="43.30547" lon="-1.26514">
        <ele>270.921982</ele>
        <time>2026-05-22T06:38:28.000Z</time>
      </trkpt>
      <trkpt lat="43.30548" lon="-1.2651">
        <ele>271.070311</ele>
        <time>2026-05-22T06:38:29.000Z</time>
      </trkpt>
      <trkpt lat="43.30549" lon="-1.26506">
        <ele>271.217496</ele>
        <time>2026-05-22T06:38:30.000Z</time>
      </trkpt>
      <trkpt lat="43.30551" lon="-1.26502">
        <ele>271.367806</ele>
        <time>2026-05-22T06:38:31.000Z</time>
      </trkpt>
      <trkpt lat="43.30552" lon="-1.26498">
        <ele>271.522623</ele>
        <time>2026-05-22T06:38:32.000Z</time>
      </trkpt>
      <trkpt lat="43.30553" lon="-1.26494">
        <ele>271.677513</ele>
        <time>2026-05-22T06:38:33.000Z</time>
      </trkpt>
      <trkpt lat="43.30554" lon="-1.2649">
        <ele>271.829141</ele>
        <time>2026-05-22T06:38:34.000Z</time>
      </trkpt>
      <trkpt lat="43.30555" lon="-1.26486">
        <ele>271.96813</ele>
        <time>2026-05-22T06:38:35.000Z</time>
      </trkpt>
      <trkpt lat="43.30556" lon="-1.26483">
        <ele>272.09267</ele>
        <time>2026-05-22T06:38:36.000Z</time>
      </trkpt>
      <trkpt lat="43.30557" lon="-1.26479">
        <ele>272.217211</ele>
        <time>2026-05-22T06:38:37.000Z</time>
      </trkpt>
      <trkpt lat="43.30558" lon="-1.26476">
        <ele>272.338129</ele>
        <time>2026-05-22T06:38:38.000Z</time>
      </trkpt>
      <trkpt lat="43.30559" lon="-1.26473">
        <ele>272.459558</ele>
        <time>2026-05-22T06:38:39.000Z</time>
      </trkpt>
      <trkpt lat="43.30561" lon="-1.26469">
        <ele>272.590369</ele>
        <time>2026-05-22T06:38:40.000Z</time>
      </trkpt>
      <trkpt lat="43.30562" lon="-1.26466">
        <ele>272.711798</ele>
        <time>2026-05-22T06:38:41.000Z</time>
      </trkpt>
      <trkpt lat="43.30563" lon="-1.26463">
        <ele>272.833228</ele>
        <time>2026-05-22T06:38:42.000Z</time>
      </trkpt>
      <trkpt lat="43.30564" lon="-1.26459">
        <ele>272.968055</ele>
        <time>2026-05-22T06:38:43.000Z</time>
      </trkpt>
      <trkpt lat="43.30565" lon="-1.26456">
        <ele>273.100806</ele>
        <time>2026-05-22T06:38:44.000Z</time>
      </trkpt>
      <trkpt lat="43.30566" lon="-1.26452">
        <ele>273.22982</ele>
        <time>2026-05-22T06:38:45.000Z</time>
      </trkpt>
      <trkpt lat="43.30567" lon="-1.26449">
        <ele>273.355693</ele>
        <time>2026-05-22T06:38:46.000Z</time>
      </trkpt>
      <trkpt lat="43.30568" lon="-1.26446">
        <ele>273.476611</ele>
        <time>2026-05-22T06:38:47.000Z</time>
      </trkpt>
      <trkpt lat="43.30569" lon="-1.26442">
        <ele>273.595956</ele>
        <time>2026-05-22T06:38:48.000Z</time>
      </trkpt>
      <trkpt lat="43.3057" lon="-1.26439">
        <ele>273.726562</ele>
        <time>2026-05-22T06:38:49.000Z</time>
      </trkpt>
      <trkpt lat="43.3057" lon="-1.26435">
        <ele>273.855713</ele>
        <time>2026-05-22T06:38:50.000Z</time>
      </trkpt>
      <trkpt lat="43.30571" lon="-1.26431">
        <ele>273.987926</ele>
        <time>2026-05-22T06:38:51.000Z</time>
      </trkpt>
      <trkpt lat="43.30572" lon="-1.26428">
        <ele>274.11694</ele>
        <time>2026-05-22T06:38:52.000Z</time>
      </trkpt>
      <trkpt lat="43.30573" lon="-1.26425">
        <ele>274.241076</ele>
        <time>2026-05-22T06:38:53.000Z</time>
      </trkpt>
      <trkpt lat="43.30574" lon="-1.26421">
        <ele>274.371682</ele>
        <time>2026-05-22T06:38:54.000Z</time>
      </trkpt>
      <trkpt lat="43.30575" lon="-1.26418">
        <ele>274.494287</ele>
        <time>2026-05-22T06:38:55.000Z</time>
      </trkpt>
      <trkpt lat="43.30576" lon="-1.26414">
        <ele>274.614326</ele>
        <time>2026-05-22T06:38:56.000Z</time>
      </trkpt>
      <trkpt lat="43.30576" lon="-1.26411">
        <ele>274.739277</ele>
        <time>2026-05-22T06:38:57.000Z</time>
      </trkpt>
      <trkpt lat="43.30576" lon="-1.26407">
        <ele>274.864229</ele>
        <time>2026-05-22T06:38:58.000Z</time>
      </trkpt>
      <trkpt lat="43.30577" lon="-1.26404">
        <ele>274.981267</ele>
        <time>2026-05-22T06:38:59.000Z</time>
      </trkpt>
      <trkpt lat="43.30577" lon="-1.264">
        <ele>275.094494</ele>
        <time>2026-05-22T06:39:00.000Z</time>
      </trkpt>
      <trkpt lat="43.30576" lon="-1.26397">
        <ele>275.201276</ele>
        <time>2026-05-22T06:39:01.000Z</time>
      </trkpt>
      <trkpt lat="43.30577" lon="-1.26394">
        <ele>275.311173</ele>
        <time>2026-05-22T06:39:02.000Z</time>
      </trkpt>
      <trkpt lat="43.30576" lon="-1.26391">
        <ele>275.42107</ele>
        <time>2026-05-22T06:39:03.000Z</time>
      </trkpt>
      <trkpt lat="43.30576" lon="-1.26388">
        <ele>275.531773</ele>
        <time>2026-05-22T06:39:04.000Z</time>
      </trkpt>
      <trkpt lat="43.30576" lon="-1.26385">
        <ele>275.635674</ele>
        <time>2026-05-22T06:39:05.000Z</time>
      </trkpt>
      <trkpt lat="43.30575" lon="-1.26381">
        <ele>275.743697</ele>
        <time>2026-05-22T06:39:06.000Z</time>
      </trkpt>
      <trkpt lat="43.30575" lon="-1.26378">
        <ele>275.852643</ele>
        <time>2026-05-22T06:39:07.000Z</time>
      </trkpt>
      <trkpt lat="43.30574" lon="-1.26375">
        <ele>275.970582</ele>
        <time>2026-05-22T06:39:08.000Z</time>
      </trkpt>
      <trkpt lat="43.30574" lon="-1.26372">
        <ele>276.083964</ele>
        <time>2026-05-22T06:39:09.000Z</time>
      </trkpt>
      <trkpt lat="43.30573" lon="-1.26369">
        <ele>276.195332</ele>
        <time>2026-05-22T06:39:10.000Z</time>
      </trkpt>
      <trkpt lat="43.30572" lon="-1.26366">
        <ele>276.308713</ele>
        <time>2026-05-22T06:39:11.000Z</time>
      </trkpt>
      <trkpt lat="43.30572" lon="-1.26362">
        <ele>276.434587</ele>
        <time>2026-05-22T06:39:12.000Z</time>
      </trkpt>
      <trkpt lat="43.30571" lon="-1.26358">
        <ele>276.561305</ele>
        <time>2026-05-22T06:39:13.000Z</time>
      </trkpt>
      <trkpt lat="43.3057" lon="-1.26355">
        <ele>276.6958</ele>
        <time>2026-05-22T06:39:14.000Z</time>
      </trkpt>
      <trkpt lat="43.30569" lon="-1.26351">
        <ele>276.824952</ele>
        <time>2026-05-22T06:39:15.000Z</time>
      </trkpt>
      <trkpt lat="43.30569" lon="-1.26348">
        <ele>276.949494</ele>
        <time>2026-05-22T06:39:16.000Z</time>
      </trkpt>
      <trkpt lat="43.30568" lon="-1.26344">
        <ele>277.066201</ele>
        <time>2026-05-22T06:39:17.000Z</time>
      </trkpt>
      <trkpt lat="43.30568" lon="-1.26341">
        <ele>277.181857</ele>
        <time>2026-05-22T06:39:18.000Z</time>
      </trkpt>
      <trkpt lat="43.30567" lon="-1.26338">
        <ele>277.290802</ele>
        <time>2026-05-22T06:39:19.000Z</time>
      </trkpt>
      <trkpt lat="43.30566" lon="-1.26335">
        <ele>277.408742</ele>
        <time>2026-05-22T06:39:20.000Z</time>
      </trkpt>
      <trkpt lat="43.30566" lon="-1.26331">
        <ele>277.526681</ele>
        <time>2026-05-22T06:39:21.000Z</time>
      </trkpt>
      <trkpt lat="43.30565" lon="-1.26328">
        <ele>277.652555</ele>
        <time>2026-05-22T06:39:22.000Z</time>
      </trkpt>
      <trkpt lat="43.30564" lon="-1.26324">
        <ele>277.781706</ele>
        <time>2026-05-22T06:39:23.000Z</time>
      </trkpt>
      <trkpt lat="43.30563" lon="-1.26321">
        <ele>277.910858</ele>
        <time>2026-05-22T06:39:24.000Z</time>
      </trkpt>
      <trkpt lat="43.30563" lon="-1.26317">
        <ele>278.0354</ele>
        <time>2026-05-22T06:39:25.000Z</time>
      </trkpt>
      <trkpt lat="43.30562" lon="-1.26313">
        <ele>278.163254</ele>
        <time>2026-05-22T06:39:26.000Z</time>
      </trkpt>
      <trkpt lat="43.30561" lon="-1.2631">
        <ele>278.292405</ele>
        <time>2026-05-22T06:39:27.000Z</time>
      </trkpt>
      <trkpt lat="43.3056" lon="-1.26306">
        <ele>278.420259</ele>
        <time>2026-05-22T06:39:28.000Z</time>
      </trkpt>
      <trkpt lat="43.3056" lon="-1.26303">
        <ele>278.531666</ele>
        <time>2026-05-22T06:39:29.000Z</time>
      </trkpt>
      <trkpt lat="43.30559" lon="-1.26299">
        <ele>278.422013</ele>
        <time>2026-05-22T06:39:30.000Z</time>
      </trkpt>
      <trkpt lat="43.30558" lon="-1.26295">
        <ele>278.307823</ele>
        <time>2026-05-22T06:39:31.000Z</time>
      </trkpt>
      <trkpt lat="43.30558" lon="-1.26291">
        <ele>278.194548</ele>
        <time>2026-05-22T06:39:32.000Z</time>
      </trkpt>
      <trkpt lat="43.30557" lon="-1.26287">
        <ele>278.080654</ele>
        <time>2026-05-22T06:39:33.000Z</time>
      </trkpt>
      <trkpt lat="43.30557" lon="-1.26283">
        <ele>277.963855</ele>
        <time>2026-05-22T06:39:34.000Z</time>
      </trkpt>
      <trkpt lat="43.30557" lon="-1.26279">
        <ele>277.839168</ele>
        <time>2026-05-22T06:39:35.000Z</time>
      </trkpt>
      <trkpt lat="43.30556" lon="-1.26275">
        <ele>277.705895</ele>
        <time>2026-05-22T06:39:36.000Z</time>
      </trkpt>
      <trkpt lat="43.30556" lon="-1.2627">
        <ele>277.574255</ele>
        <time>2026-05-22T06:39:37.000Z</time>
      </trkpt>
      <trkpt lat="43.30556" lon="-1.26265">
        <ele>277.431456</ele>
        <time>2026-05-22T06:39:38.000Z</time>
      </trkpt>
      <trkpt lat="43.30556" lon="-1.2626">
        <ele>277.279973</ele>
        <time>2026-05-22T06:39:39.000Z</time>
      </trkpt>
      <trkpt lat="43.30556" lon="-1.26255">
        <ele>277.116789</ele>
        <time>2026-05-22T06:39:40.000Z</time>
      </trkpt>
      <trkpt lat="43.30556" lon="-1.26249">
        <ele>276.947402</ele>
        <time>2026-05-22T06:39:41.000Z</time>
      </trkpt>
      <trkpt lat="43.30557" lon="-1.26243">
        <ele>276.764627</ele>
        <time>2026-05-22T06:39:42.000Z</time>
      </trkpt>
      <trkpt lat="43.30558" lon="-1.26236">
        <ele>276.568237</ele>
        <time>2026-05-22T06:39:43.000Z</time>
      </trkpt>
      <trkpt lat="43.30559" lon="-1.26229">
        <ele>276.359618</ele>
        <time>2026-05-22T06:39:44.000Z</time>
      </trkpt>
      <trkpt lat="43.3056" lon="-1.26222">
        <ele>276.144442</ele>
        <time>2026-05-22T06:39:45.000Z</time>
      </trkpt>
      <trkpt lat="43.30561" lon="-1.26214">
        <ele>275.924523</ele>
        <time>2026-05-22T06:39:46.000Z</time>
      </trkpt>
      <trkpt lat="43.30563" lon="-1.26207">
        <ele>275.686148</ele>
        <time>2026-05-22T06:39:47.000Z</time>
      </trkpt>
      <trkpt lat="43.30565" lon="-1.26198">
        <ele>275.434964</ele>
        <time>2026-05-22T06:39:48.000Z</time>
      </trkpt>
      <trkpt lat="43.30567" lon="-1.26189">
        <ele>275.164095</ele>
        <time>2026-05-22T06:39:49.000Z</time>
      </trkpt>
      <trkpt lat="43.30568" lon="-1.2618">
        <ele>274.883756</ele>
        <time>2026-05-22T06:39:50.000Z</time>
      </trkpt>
      <trkpt lat="43.3057" lon="-1.2617">
        <ele>274.585496</ele>
        <time>2026-05-22T06:39:51.000Z</time>
      </trkpt>
      <trkpt lat="43.30572" lon="-1.2616">
        <ele>274.278777</ele>
        <time>2026-05-22T06:39:52.000Z</time>
      </trkpt>
      <trkpt lat="43.30574" lon="-1.26149">
        <ele>273.961342</ele>
        <time>2026-05-22T06:39:53.000Z</time>
      </trkpt>
      <trkpt lat="43.30575" lon="-1.26138">
        <ele>273.633166</ele>
        <time>2026-05-22T06:39:54.000Z</time>
      </trkpt>
      <trkpt lat="43.30576" lon="-1.26127">
        <ele>273.295275</ele>
        <time>2026-05-22T06:39:55.000Z</time>
      </trkpt>
      <trkpt lat="43.30577" lon="-1.26115">
        <ele>272.948037</ele>
        <time>2026-05-22T06:39:56.000Z</time>
      </trkpt>
      <trkpt lat="43.30577" lon="-1.26102">
        <ele>272.5837</ele>
        <time>2026-05-22T06:39:57.000Z</time>
      </trkpt>
      <trkpt lat="43.30576" lon="-1.2609">
        <ele>272.213193</ele>
        <time>2026-05-22T06:39:58.000Z</time>
      </trkpt>
      <trkpt lat="43.30576" lon="-1.26077">
        <ele>271.838577</ele>
        <time>2026-05-22T06:39:59.000Z</time>
      </trkpt>
      <trkpt lat="43.30575" lon="-1.26064">
        <ele>271.461423</ele>
        <time>2026-05-22T06:40:00.000Z</time>
      </trkpt>
      <trkpt lat="43.30574" lon="-1.26051">
        <ele>270.994384</ele>
        <time>2026-05-22T06:40:01.000Z</time>
      </trkpt>
      <trkpt lat="43.30572" lon="-1.26038">
        <ele>270.473672</ele>
        <time>2026-05-22T06:40:02.000Z</time>
      </trkpt>
      <trkpt lat="43.30571" lon="-1.26024">
        <ele>269.95029</ele>
        <time>2026-05-22T06:40:03.000Z</time>
      </trkpt>
      <trkpt lat="43.3057" lon="-1.26011">
        <ele>269.424261</ele>
        <time>2026-05-22T06:40:04.000Z</time>
      </trkpt>
      <trkpt lat="43.30569" lon="-1.25998">
        <ele>268.890482</ele>
        <time>2026-05-22T06:40:05.000Z</time>
      </trkpt>
      <trkpt lat="43.30567" lon="-1.25984">
        <ele>268.338682</ele>
        <time>2026-05-22T06:40:06.000Z</time>
      </trkpt>
      <trkpt lat="43.30567" lon="-1.25969">
        <ele>267.776838</ele>
        <time>2026-05-22T06:40:07.000Z</time>
      </trkpt>
      <trkpt lat="43.30566" lon="-1.25955">
        <ele>267.220347</ele>
        <time>2026-05-22T06:40:08.000Z</time>
      </trkpt>
      <trkpt lat="43.30566" lon="-1.25941">
        <ele>266.66036</ele>
        <time>2026-05-22T06:40:09.000Z</time>
      </trkpt>
      <trkpt lat="43.30566" lon="-1.25926">
        <ele>266.092675</ele>
        <time>2026-05-22T06:40:10.000Z</time>
      </trkpt>
      <trkpt lat="43.30565" lon="-1.25912">
        <ele>265.528903</ele>
        <time>2026-05-22T06:40:11.000Z</time>
      </trkpt>
      <trkpt lat="43.30566" lon="-1.25898">
        <ele>264.969045</ele>
        <time>2026-05-22T06:40:12.000Z</time>
      </trkpt>
      <trkpt lat="43.30566" lon="-1.25883">
        <ele>264.409264</ele>
        <time>2026-05-22T06:40:13.000Z</time>
      </trkpt>
      <trkpt lat="43.30566" lon="-1.25869">
        <ele>263.864928</ele>
        <time>2026-05-22T06:40:14.000Z</time>
      </trkpt>
      <trkpt lat="43.30566" lon="-1.25856">
        <ele>263.331894</ele>
        <time>2026-05-22T06:40:15.000Z</time>
      </trkpt>
      <trkpt lat="43.30567" lon="-1.25843">
        <ele>262.810589</ele>
        <time>2026-05-22T06:40:16.000Z</time>
      </trkpt>
      <trkpt lat="43.30567" lon="-1.2583">
        <ele>262.312737</ele>
        <time>2026-05-22T06:40:17.000Z</time>
      </trkpt>
      <trkpt lat="43.30568" lon="-1.25817">
        <ele>261.822378</ele>
        <time>2026-05-22T06:40:18.000Z</time>
      </trkpt>
      <trkpt lat="43.30569" lon="-1.25806">
        <ele>261.496416</ele>
        <time>2026-05-22T06:40:19.000Z</time>
      </trkpt>
      <trkpt lat="43.30569" lon="-1.25795">
        <ele>261.254232</ele>
        <time>2026-05-22T06:40:20.000Z</time>
      </trkpt>
      <trkpt lat="43.3057" lon="-1.25784">
        <ele>261.021195</ele>
        <time>2026-05-22T06:40:21.000Z</time>
      </trkpt>
      <trkpt lat="43.3057" lon="-1.25774">
        <ele>260.800899</ele>
        <time>2026-05-22T06:40:22.000Z</time>
      </trkpt>
      <trkpt lat="43.30571" lon="-1.25764">
        <ele>260.582791</ele>
        <time>2026-05-22T06:40:23.000Z</time>
      </trkpt>
      <trkpt lat="43.30571" lon="-1.25754">
        <ele>260.367103</ele>
        <time>2026-05-22T06:40:24.000Z</time>
      </trkpt>
      <trkpt lat="43.30572" lon="-1.25745">
        <ele>260.158181</ele>
        <time>2026-05-22T06:40:25.000Z</time>
      </trkpt>
      <trkpt lat="43.30572" lon="-1.25736">
        <ele>259.953798</ele>
        <time>2026-05-22T06:40:26.000Z</time>
      </trkpt>
      <trkpt lat="43.30572" lon="-1.25726">
        <ele>259.74687</ele>
        <time>2026-05-22T06:40:27.000Z</time>
      </trkpt>
      <trkpt lat="43.30573" lon="-1.25717">
        <ele>259.540139</ele>
        <time>2026-05-22T06:40:28.000Z</time>
      </trkpt>
      <trkpt lat="43.30573" lon="-1.25707">
        <ele>259.319844</ele>
        <time>2026-05-22T06:40:29.000Z</time>
      </trkpt>
      <trkpt lat="43.30574" lon="-1.25697">
        <ele>259.09897</ele>
        <time>2026-05-22T06:40:30.000Z</time>
      </trkpt>
      <trkpt lat="43.30575" lon="-1.25687">
        <ele>258.874298</ele>
        <time>2026-05-22T06:40:31.000Z</time>
      </trkpt>
      <trkpt lat="43.30575" lon="-1.25676">
        <ele>258.64306</ele>
        <time>2026-05-22T06:40:32.000Z</time>
      </trkpt>
      <trkpt lat="43.30576" lon="-1.25666">
        <ele>258.411822</ele>
        <time>2026-05-22T06:40:33.000Z</time>
      </trkpt>
      <trkpt lat="43.30577" lon="-1.25655">
        <ele>258.182514</ele>
        <time>2026-05-22T06:40:34.000Z</time>
      </trkpt>
      <trkpt lat="43.30578" lon="-1.25645">
        <ele>257.948542</ele>
        <time>2026-05-22T06:40:35.000Z</time>
      </trkpt>
      <trkpt lat="43.30578" lon="-1.25634">
        <ele>257.715116</ele>
        <time>2026-05-22T06:40:36.000Z</time>
      </trkpt>
      <trkpt lat="43.30579" lon="-1.25623">
        <ele>257.477311</ele>
        <time>2026-05-22T06:40:37.000Z</time>
      </trkpt>
      <trkpt lat="43.30579" lon="-1.25612">
        <ele>257.239717</ele>
        <time>2026-05-22T06:40:38.000Z</time>
      </trkpt>
      <trkpt lat="43.3058" lon="-1.25601">
        <ele>256.99791</ele>
        <time>2026-05-22T06:40:39.000Z</time>
      </trkpt>
      <trkpt lat="43.30581" lon="-1.2559">
        <ele>256.752701</ele>
        <time>2026-05-22T06:40:40.000Z</time>
      </trkpt>
      <trkpt lat="43.30581" lon="-1.25579">
        <ele>256.509992</ele>
        <time>2026-05-22T06:40:41.000Z</time>
      </trkpt>
      <trkpt lat="43.30582" lon="-1.25568">
        <ele>256.266965</ele>
        <time>2026-05-22T06:40:42.000Z</time>
      </trkpt>
      <trkpt lat="43.30583" lon="-1.25557">
        <ele>255.912767</ele>
        <time>2026-05-22T06:40:43.000Z</time>
      </trkpt>
      <trkpt lat="43.30584" lon="-1.25546">
        <ele>255.532022</ele>
        <time>2026-05-22T06:40:44.000Z</time>
      </trkpt>
      <trkpt lat="43.30584" lon="-1.25534">
        <ele>255.148338</ele>
        <time>2026-05-22T06:40:45.000Z</time>
      </trkpt>
      <trkpt lat="43.30585" lon="-1.25522">
        <ele>254.764948</ele>
        <time>2026-05-22T06:40:46.000Z</time>
      </trkpt>
      <trkpt lat="43.30585" lon="-1.25511">
        <ele>254.388391</ele>
        <time>2026-05-22T06:40:47.000Z</time>
      </trkpt>
      <trkpt lat="43.30585" lon="-1.255">
        <ele>254.012162</ele>
        <time>2026-05-22T06:40:48.000Z</time>
      </trkpt>
      <trkpt lat="43.30585" lon="-1.25488">
        <ele>253.638652</ele>
        <time>2026-05-22T06:40:49.000Z</time>
      </trkpt>
      <trkpt lat="43.30584" lon="-1.25477">
        <ele>253.267354</ele>
        <time>2026-05-22T06:40:50.000Z</time>
      </trkpt>
      <trkpt lat="43.30582" lon="-1.25466">
        <ele>252.896419</ele>
        <time>2026-05-22T06:40:51.000Z</time>
      </trkpt>
      <trkpt lat="43.30581" lon="-1.25455">
        <ele>252.527179</ele>
        <time>2026-05-22T06:40:52.000Z</time>
      </trkpt>
      <trkpt lat="43.30579" lon="-1.25444">
        <ele>252.159498</ele>
        <time>2026-05-22T06:40:53.000Z</time>
      </trkpt>
      <trkpt lat="43.30577" lon="-1.25434">
        <ele>251.805333</ele>
        <time>2026-05-22T06:40:54.000Z</time>
      </trkpt>
      <trkpt lat="43.30574" lon="-1.25424">
        <ele>251.457973</ele>
        <time>2026-05-22T06:40:55.000Z</time>
      </trkpt>
      <trkpt lat="43.30571" lon="-1.25415">
        <ele>251.117536</ele>
        <time>2026-05-22T06:40:56.000Z</time>
      </trkpt>
      <trkpt lat="43.30567" lon="-1.25406">
        <ele>250.782761</ele>
        <time>2026-05-22T06:40:57.000Z</time>
      </trkpt>
      <trkpt lat="43.30563" lon="-1.25398">
        <ele>250.446306</ele>
        <time>2026-05-22T06:40:58.000Z</time>
      </trkpt>
      <trkpt lat="43.30559" lon="-1.25389">
        <ele>250.125166</ele>
        <time>2026-05-22T06:40:59.000Z</time>
      </trkpt>
      <trkpt lat="43.30556" lon="-1.25381">
        <ele>249.827329</ele>
        <time>2026-05-22T06:41:00.000Z</time>
      </trkpt>
      <trkpt lat="43.30553" lon="-1.25374">
        <ele>249.548295</ele>
        <time>2026-05-22T06:41:01.000Z</time>
      </trkpt>
      <trkpt lat="43.30551" lon="-1.25367">
        <ele>249.284752</ele>
        <time>2026-05-22T06:41:02.000Z</time>
      </trkpt>
      <trkpt lat="43.30548" lon="-1.25361">
        <ele>249.049189</ele>
        <time>2026-05-22T06:41:03.000Z</time>
      </trkpt>
      <trkpt lat="43.30545" lon="-1.25356">
        <ele>248.859752</ele>
        <time>2026-05-22T06:41:04.000Z</time>
      </trkpt>
      <trkpt lat="43.30544" lon="-1.25353">
        <ele>248.723648</ele>
        <time>2026-05-22T06:41:05.000Z</time>
      </trkpt>
      <trkpt lat="43.30543" lon="-1.2535">
        <ele>248.641394</ele>
        <time>2026-05-22T06:41:06.000Z</time>
      </trkpt>
      <trkpt lat="43.30543" lon="-1.25349">
        <ele>248.597555</ele>
        <time>2026-05-22T06:41:07.000Z</time>
      </trkpt>
      <trkpt lat="43.30543" lon="-1.25345">
        <ele>248.468562</ele>
        <time>2026-05-22T06:42:49.000Z</time>
      </trkpt>
      <trkpt lat="43.30543" lon="-1.25342">
        <ele>248.366183</ele>
        <time>2026-05-22T06:42:50.000Z</time>
      </trkpt>
      <trkpt lat="43.30543" lon="-1.25338">
        <ele>248.247407</ele>
        <time>2026-05-22T06:42:51.000Z</time>
      </trkpt>
      <trkpt lat="43.30543" lon="-1.25334">
        <ele>248.113501</ele>
        <time>2026-05-22T06:42:52.000Z</time>
      </trkpt>
      <trkpt lat="43.30541" lon="-1.2533">
        <ele>247.988909</ele>
        <time>2026-05-22T06:42:53.000Z</time>
      </trkpt>
      <trkpt lat="43.30539" lon="-1.25326">
        <ele>247.858189</ele>
        <time>2026-05-22T06:42:54.000Z</time>
      </trkpt>
      <trkpt lat="43.30535" lon="-1.25322">
        <ele>247.711374</ele>
        <time>2026-05-22T06:42:55.000Z</time>
      </trkpt>
      <trkpt lat="43.30531" lon="-1.25318">
        <ele>247.543919</ele>
        <time>2026-05-22T06:42:56.000Z</time>
      </trkpt>
      <trkpt lat="43.30527" lon="-1.25314">
        <ele>247.369482</ele>
        <time>2026-05-22T06:42:57.000Z</time>
      </trkpt>
      <trkpt lat="43.30523" lon="-1.2531">
        <ele>247.185356</ele>
        <time>2026-05-22T06:42:58.000Z</time>
      </trkpt>
      <trkpt lat="43.30518" lon="-1.25306">
        <ele>246.998094</ele>
        <time>2026-05-22T06:42:59.000Z</time>
      </trkpt>
      <trkpt lat="43.30513" lon="-1.25302">
        <ele>246.794287</ele>
        <time>2026-05-22T06:43:00.000Z</time>
      </trkpt>
      <trkpt lat="43.30507" lon="-1.25297">
        <ele>246.586344</ele>
        <time>2026-05-22T06:43:01.000Z</time>
      </trkpt>
      <trkpt lat="43.30502" lon="-1.25293">
        <ele>246.376754</ele>
        <time>2026-05-22T06:43:02.000Z</time>
      </trkpt>
      <trkpt lat="43.30496" lon="-1.25288">
        <ele>246.157657</ele>
        <time>2026-05-22T06:43:03.000Z</time>
      </trkpt>
      <trkpt lat="43.30491" lon="-1.25283">
        <ele>245.92924</ele>
        <time>2026-05-22T06:43:04.000Z</time>
      </trkpt>
      <trkpt lat="43.30484" lon="-1.25278">
        <ele>245.686579</ele>
        <time>2026-05-22T06:43:05.000Z</time>
      </trkpt>
      <trkpt lat="43.30478" lon="-1.25273">
        <ele>245.434373</ele>
        <time>2026-05-22T06:43:06.000Z</time>
      </trkpt>
      <trkpt lat="43.30472" lon="-1.25267">
        <ele>245.181066</ele>
        <time>2026-05-22T06:43:07.000Z</time>
      </trkpt>
      <trkpt lat="43.30465" lon="-1.25262">
        <ele>244.927573</ele>
        <time>2026-05-22T06:43:08.000Z</time>
      </trkpt>
      <trkpt lat="43.30459" lon="-1.25256">
        <ele>244.661649</ele>
        <time>2026-05-22T06:43:09.000Z</time>
      </trkpt>
      <trkpt lat="43.30452" lon="-1.2525">
        <ele>244.394415</ele>
        <time>2026-05-22T06:43:10.000Z</time>
      </trkpt>
      <trkpt lat="43.30445" lon="-1.25244">
        <ele>244.128491</ele>
        <time>2026-05-22T06:43:11.000Z</time>
      </trkpt>
      <trkpt lat="43.30438" lon="-1.25238">
        <ele>243.859719</ele>
        <time>2026-05-22T06:43:12.000Z</time>
      </trkpt>
      <trkpt lat="43.30432" lon="-1.25232">
        <ele>243.589651</ele>
        <time>2026-05-22T06:43:13.000Z</time>
      </trkpt>
      <trkpt lat="43.30425" lon="-1.25226">
        <ele>243.323897</ele>
        <time>2026-05-22T06:43:14.000Z</time>
      </trkpt>
      <trkpt lat="43.30418" lon="-1.2522">
        <ele>243.048369</ele>
        <time>2026-05-22T06:43:15.000Z</time>
      </trkpt>
      <trkpt lat="43.30411" lon="-1.25214">
        <ele>242.777108</ele>
        <time>2026-05-22T06:43:16.000Z</time>
      </trkpt>
      <trkpt lat="43.30405" lon="-1.25208">
        <ele>242.507239</ele>
        <time>2026-05-22T06:43:17.000Z</time>
      </trkpt>
      <trkpt lat="43.30398" lon="-1.25201">
        <ele>242.241428</ele>
        <time>2026-05-22T06:43:18.000Z</time>
      </trkpt>
      <trkpt lat="43.30392" lon="-1.25195">
        <ele>242.151235</ele>
        <time>2026-05-22T06:43:19.000Z</time>
      </trkpt>
      <trkpt lat="43.30386" lon="-1.25189">
        <ele>242.551298</ele>
        <time>2026-05-22T06:43:20.000Z</time>
      </trkpt>
      <trkpt lat="43.3038" lon="-1.25182">
        <ele>242.954309</ele>
        <time>2026-05-22T06:43:21.000Z</time>
      </trkpt>
      <trkpt lat="43.30374" lon="-1.25175">
        <ele>243.350281</ele>
        <time>2026-05-22T06:43:22.000Z</time>
      </trkpt>
      <trkpt lat="43.30369" lon="-1.25169">
        <ele>243.721861</ele>
        <time>2026-05-22T06:43:23.000Z</time>
      </trkpt>
      <trkpt lat="43.30364" lon="-1.25162">
        <ele>244.071654</ele>
        <time>2026-05-22T06:43:24.000Z</time>
      </trkpt>
      <trkpt lat="43.3036" lon="-1.25156">
        <ele>244.402895</ele>
        <time>2026-05-22T06:43:25.000Z</time>
      </trkpt>
      <trkpt lat="43.30356" lon="-1.2515">
        <ele>244.716653</ele>
        <time>2026-05-22T06:43:26.000Z</time>
      </trkpt>
      <trkpt lat="43.30352" lon="-1.25144">
        <ele>245.001908</ele>
        <time>2026-05-22T06:43:27.000Z</time>
      </trkpt>
      <trkpt lat="43.3035" lon="-1.25138">
        <ele>245.254369</ele>
        <time>2026-05-22T06:43:28.000Z</time>
      </trkpt>
      <trkpt lat="43.30348" lon="-1.25132">
        <ele>245.487606</ele>
        <time>2026-05-22T06:43:29.000Z</time>
      </trkpt>
      <trkpt lat="43.30346" lon="-1.25127">
        <ele>245.698225</ele>
        <time>2026-05-22T06:43:30.000Z</time>
      </trkpt>
      <trkpt lat="43.30344" lon="-1.25123">
        <ele>245.891631</ele>
        <time>2026-05-22T06:43:31.000Z</time>
      </trkpt>
      <trkpt lat="43.30343" lon="-1.25119">
        <ele>246.064769</ele>
        <time>2026-05-22T06:43:32.000Z</time>
      </trkpt>
      <trkpt lat="43.30342" lon="-1.25114">
        <ele>246.235934</ele>
        <time>2026-05-22T06:43:33.000Z</time>
      </trkpt>
      <trkpt lat="43.30341" lon="-1.25111">
        <ele>246.392793</ele>
        <time>2026-05-22T06:43:34.000Z</time>
      </trkpt>
      <trkpt lat="43.3034" lon="-1.25107">
        <ele>246.532893</ele>
        <time>2026-05-22T06:43:35.000Z</time>
      </trkpt>
      <trkpt lat="43.3034" lon="-1.25104">
        <ele>246.665609</ele>
        <time>2026-05-22T06:43:36.000Z</time>
      </trkpt>
      <trkpt lat="43.30339" lon="-1.251">
        <ele>246.798324</ele>
        <time>2026-05-22T06:43:37.000Z</time>
      </trkpt>
      <trkpt lat="43.30338" lon="-1.25097">
        <ele>246.932364</ele>
        <time>2026-05-22T06:43:38.000Z</time>
      </trkpt>
      <trkpt lat="43.30338" lon="-1.25094">
        <ele>247.05912</ele>
        <time>2026-05-22T06:43:39.000Z</time>
      </trkpt>
      <trkpt lat="43.30337" lon="-1.2509">
        <ele>247.179571</ele>
        <time>2026-05-22T06:43:40.000Z</time>
      </trkpt>
      <trkpt lat="43.30337" lon="-1.25087">
        <ele>247.302699</ele>
        <time>2026-05-22T06:43:41.000Z</time>
      </trkpt>
      <trkpt lat="43.30336" lon="-1.25084">
        <ele>247.428054</ele>
        <time>2026-05-22T06:43:42.000Z</time>
      </trkpt>
      <trkpt lat="43.30335" lon="-1.25081">
        <ele>247.548505</ele>
        <time>2026-05-22T06:43:43.000Z</time>
      </trkpt>
      <trkpt lat="43.30335" lon="-1.25078">
        <ele>247.668956</ele>
        <time>2026-05-22T06:43:44.000Z</time>
      </trkpt>
      <trkpt lat="43.30334" lon="-1.25075">
        <ele>247.789407</ele>
        <time>2026-05-22T06:43:45.000Z</time>
      </trkpt>
      <trkpt lat="43.30334" lon="-1.25072">
        <ele>247.896769</ele>
        <time>2026-05-22T06:43:46.000Z</time>
      </trkpt>
      <trkpt lat="43.30334" lon="-1.25069">
        <ele>248.011139</ele>
        <time>2026-05-22T06:43:47.000Z</time>
      </trkpt>
      <trkpt lat="43.30333" lon="-1.25066">
        <ele>248.136313</ele>
        <time>2026-05-22T06:43:48.000Z</time>
      </trkpt>
      <trkpt lat="43.30331" lon="-1.25063">
        <ele>248.274004</ele>
        <time>2026-05-22T06:43:49.000Z</time>
      </trkpt>
      <trkpt lat="43.3033" lon="-1.2506">
        <ele>248.413029</ele>
        <time>2026-05-22T06:43:50.000Z</time>
      </trkpt>
      <trkpt lat="43.30329" lon="-1.25057">
        <ele>248.531347</ele>
        <time>2026-05-22T06:43:51.000Z</time>
      </trkpt>
      <trkpt lat="43.30328" lon="-1.25054">
        <ele>248.644004</ele>
        <time>2026-05-22T06:43:52.000Z</time>
      </trkpt>
      <trkpt lat="43.30327" lon="-1.25052">
        <ele>248.746424</ele>
        <time>2026-05-22T06:43:53.000Z</time>
      </trkpt>
      <trkpt lat="43.30326" lon="-1.25049">
        <ele>248.851334</ele>
        <time>2026-05-22T06:43:54.000Z</time>
      </trkpt>
      <trkpt lat="43.30325" lon="-1.25047">
        <ele>248.96542</ele>
        <time>2026-05-22T06:43:55.000Z</time>
      </trkpt>
      <trkpt lat="43.30324" lon="-1.25044">
        <ele>249.08198</ele>
        <time>2026-05-22T06:43:56.000Z</time>
      </trkpt>
      <trkpt lat="43.30323" lon="-1.25042">
        <ele>249.201646</ele>
        <time>2026-05-22T06:43:57.000Z</time>
      </trkpt>
      <trkpt lat="43.30321" lon="-1.25039">
        <ele>249.32434</ele>
        <time>2026-05-22T06:43:58.000Z</time>
      </trkpt>
      <trkpt lat="43.3032" lon="-1.25036">
        <ele>249.450204</ele>
        <time>2026-05-22T06:43:59.000Z</time>
      </trkpt>
      <trkpt lat="43.30318" lon="-1.25034">
        <ele>249.56987</ele>
        <time>2026-05-22T06:44:00.000Z</time>
      </trkpt>
      <trkpt lat="43.30317" lon="-1.25031">
        <ele>249.689536</ele>
        <time>2026-05-22T06:44:01.000Z</time>
      </trkpt>
      <trkpt lat="43.30316" lon="-1.25029">
        <ele>249.80633</ele>
        <time>2026-05-22T06:44:02.000Z</time>
      </trkpt>
      <trkpt lat="43.30315" lon="-1.25026">
        <ele>249.92289</ele>
        <time>2026-05-22T06:44:03.000Z</time>
      </trkpt>
      <trkpt lat="43.30313" lon="-1.25024">
        <ele>250.042555</ele>
        <time>2026-05-22T06:44:04.000Z</time>
      </trkpt>
      <trkpt lat="43.30312" lon="-1.25021">
        <ele>250.159714</ele>
        <time>2026-05-22T06:44:05.000Z</time>
      </trkpt>
      <trkpt lat="43.3031" lon="-1.25019">
        <ele>250.270578</ele>
        <time>2026-05-22T06:44:06.000Z</time>
      </trkpt>
      <trkpt lat="43.30309" lon="-1.25017">
        <ele>250.381442</ele>
        <time>2026-05-22T06:44:07.000Z</time>
      </trkpt>
      <trkpt lat="43.30307" lon="-1.25015">
        <ele>250.495804</ele>
        <time>2026-05-22T06:44:08.000Z</time>
      </trkpt>
      <trkpt lat="43.30306" lon="-1.25012">
        <ele>250.616505</ele>
        <time>2026-05-22T06:44:09.000Z</time>
      </trkpt>
      <trkpt lat="43.30304" lon="-1.2501">
        <ele>250.730867</ele>
        <time>2026-05-22T06:44:10.000Z</time>
      </trkpt>
      <trkpt lat="43.30303" lon="-1.25008">
        <ele>250.841099</ele>
        <time>2026-05-22T06:44:11.000Z</time>
      </trkpt>
      <trkpt lat="43.30301" lon="-1.25007">
        <ele>250.94425</ele>
        <time>2026-05-22T06:44:12.000Z</time>
      </trkpt>
      <trkpt lat="43.303" lon="-1.25005">
        <ele>251.045604</ele>
        <time>2026-05-22T06:44:13.000Z</time>
      </trkpt>
      <trkpt lat="43.30298" lon="-1.25003">
        <ele>251.153394</ele>
        <time>2026-05-22T06:44:14.000Z</time>
      </trkpt>
      <trkpt lat="43.30296" lon="-1.25001">
        <ele>251.263626</ele>
        <time>2026-05-22T06:44:15.000Z</time>
      </trkpt>
      <trkpt lat="43.30295" lon="-1.25">
        <ele>251.379671</ele>
        <time>2026-05-22T06:44:16.000Z</time>
      </trkpt>
      <trkpt lat="43.30293" lon="-1.24998">
        <ele>251.521378</ele>
        <time>2026-05-22T06:44:17.000Z</time>
      </trkpt>
      <trkpt lat="43.30291" lon="-1.24996">
        <ele>251.67092</ele>
        <time>2026-05-22T06:44:18.000Z</time>
      </trkpt>
      <trkpt lat="43.30289" lon="-1.24995">
        <ele>251.809171</ele>
        <time>2026-05-22T06:44:19.000Z</time>
      </trkpt>
      <trkpt lat="43.30287" lon="-1.24994">
        <ele>251.95299</ele>
        <time>2026-05-22T06:44:20.000Z</time>
      </trkpt>
      <trkpt lat="43.30285" lon="-1.24993">
        <ele>252.101048</ele>
        <time>2026-05-22T06:44:21.000Z</time>
      </trkpt>
      <trkpt lat="43.30284" lon="-1.24991">
        <ele>252.249106</ele>
        <time>2026-05-22T06:44:22.000Z</time>
      </trkpt>
      <trkpt lat="43.30282" lon="-1.2499">
        <ele>252.405677</ele>
        <time>2026-05-22T06:44:23.000Z</time>
      </trkpt>
      <trkpt lat="43.3028" lon="-1.24988">
        <ele>252.55853</ele>
        <time>2026-05-22T06:44:24.000Z</time>
      </trkpt>
      <trkpt lat="43.30278" lon="-1.24987">
        <ele>252.706588</ele>
        <time>2026-05-22T06:44:25.000Z</time>
      </trkpt>
      <trkpt lat="43.30276" lon="-1.24986">
        <ele>252.860921</ele>
        <time>2026-05-22T06:44:26.000Z</time>
      </trkpt>
      <trkpt lat="43.30274" lon="-1.24984">
        <ele>253.021588</ele>
        <time>2026-05-22T06:44:27.000Z</time>
      </trkpt>
      <trkpt lat="43.30272" lon="-1.24983">
        <ele>253.182255</ele>
        <time>2026-05-22T06:44:28.000Z</time>
      </trkpt>
      <trkpt lat="43.30269" lon="-1.24982">
        <ele>253.35387</ele>
        <time>2026-05-22T06:44:29.000Z</time>
      </trkpt>
      <trkpt lat="43.30267" lon="-1.24981">
        <ele>253.520687</ele>
        <time>2026-05-22T06:44:30.000Z</time>
      </trkpt>
      <trkpt lat="43.30265" lon="-1.2498">
        <ele>253.690566</ele>
        <time>2026-05-22T06:44:31.000Z</time>
      </trkpt>
      <trkpt lat="43.30262" lon="-1.24979">
        <ele>253.852208</ele>
        <time>2026-05-22T06:44:32.000Z</time>
      </trkpt>
      <trkpt lat="43.30261" lon="-1.24978">
        <ele>253.992398</ele>
        <time>2026-05-22T06:44:33.000Z</time>
      </trkpt>
      <trkpt lat="43.30259" lon="-1.24977">
        <ele>254.11948</ele>
        <time>2026-05-22T06:44:34.000Z</time>
      </trkpt>
      <trkpt lat="43.30257" lon="-1.24976">
        <ele>254.250555</ele>
        <time>2026-05-22T06:44:35.000Z</time>
      </trkpt>
      <trkpt lat="43.30255" lon="-1.24975">
        <ele>254.38599</ele>
        <time>2026-05-22T06:44:36.000Z</time>
      </trkpt>
      <trkpt lat="43.30254" lon="-1.24974">
        <ele>254.517955</ele>
        <time>2026-05-22T06:44:37.000Z</time>
      </trkpt>
      <trkpt lat="43.30252" lon="-1.24974">
        <ele>254.647158</ele>
        <time>2026-05-22T06:44:38.000Z</time>
      </trkpt>
      <trkpt lat="43.3025" lon="-1.24973">
        <ele>254.780772</ele>
        <time>2026-05-22T06:44:39.000Z</time>
      </trkpt>
      <trkpt lat="43.30248" lon="-1.24972">
        <ele>254.914387</ele>
        <time>2026-05-22T06:44:40.000Z</time>
      </trkpt>
      <trkpt lat="43.30246" lon="-1.24971">
        <ele>255.043382</ele>
        <time>2026-05-22T06:44:41.000Z</time>
      </trkpt>
      <trkpt lat="43.30245" lon="-1.2497">
        <ele>255.155621</ele>
        <time>2026-05-22T06:44:42.000Z</time>
      </trkpt>
      <trkpt lat="43.30243" lon="-1.24969">
        <ele>255.280967</ele>
        <time>2026-05-22T06:44:43.000Z</time>
      </trkpt>
      <trkpt lat="43.30242" lon="-1.24968">
        <ele>255.412042</ele>
        <time>2026-05-22T06:44:44.000Z</time>
      </trkpt>
      <trkpt lat="43.3024" lon="-1.24967">
        <ele>255.547477</ele>
        <time>2026-05-22T06:44:45.000Z</time>
      </trkpt>
      <trkpt lat="43.30238" lon="-1.24966">
        <ele>255.67797</ele>
        <time>2026-05-22T06:44:46.000Z</time>
      </trkpt>
      <trkpt lat="43.30236" lon="-1.24966">
        <ele>255.800404</ele>
        <time>2026-05-22T06:44:47.000Z</time>
      </trkpt>
      <trkpt lat="43.30234" lon="-1.24965">
        <ele>255.929607</ele>
        <time>2026-05-22T06:44:48.000Z</time>
      </trkpt>
      <trkpt lat="43.30233" lon="-1.24965">
        <ele>256.066824</ele>
        <time>2026-05-22T06:44:49.000Z</time>
      </trkpt>
      <trkpt lat="43.30231" lon="-1.24964">
        <ele>256.19879</ele>
        <time>2026-05-22T06:44:50.000Z</time>
      </trkpt>
      <trkpt lat="43.30229" lon="-1.24963">
        <ele>256.324136</ele>
        <time>2026-05-22T06:44:51.000Z</time>
      </trkpt>
      <trkpt lat="43.30227" lon="-1.24962">
        <ele>256.441266</ele>
        <time>2026-05-22T06:44:52.000Z</time>
      </trkpt>
      <trkpt lat="43.30226" lon="-1.24962">
        <ele>256.55177</ele>
        <time>2026-05-22T06:44:53.000Z</time>
      </trkpt>
      <trkpt lat="43.30224" lon="-1.24961">
        <ele>256.671329</ele>
        <time>2026-05-22T06:44:54.000Z</time>
      </trkpt>
      <trkpt lat="43.30222" lon="-1.24961">
        <ele>256.803963</ele>
        <time>2026-05-22T06:44:55.000Z</time>
      </trkpt>
      <trkpt lat="43.3022" lon="-1.24961">
        <ele>256.943475</ele>
        <time>2026-05-22T06:44:56.000Z</time>
      </trkpt>
      <trkpt lat="43.30219" lon="-1.24961">
        <ele>257.055546</ele>
        <time>2026-05-22T06:44:57.000Z</time>
      </trkpt>
      <trkpt lat="43.30217" lon="-1.24961">
        <ele>257.174565</ele>
        <time>2026-05-22T06:44:58.000Z</time>
      </trkpt>
      <trkpt lat="43.30215" lon="-1.24961">
        <ele>257.307101</ele>
        <time>2026-05-22T06:44:59.000Z</time>
      </trkpt>
      <trkpt lat="43.30213" lon="-1.24961">
        <ele>257.426121</ele>
        <time>2026-05-22T06:45:00.000Z</time>
      </trkpt>
      <trkpt lat="43.30212" lon="-1.24961">
        <ele>257.558754</ele>
        <time>2026-05-22T06:45:01.000Z</time>
      </trkpt>
      <trkpt lat="43.3021" lon="-1.24961">
        <ele>257.684418</ele>
        <time>2026-05-22T06:45:02.000Z</time>
      </trkpt>
      <trkpt lat="43.30208" lon="-1.24961">
        <ele>257.803437</ele>
        <time>2026-05-22T06:45:03.000Z</time>
      </trkpt>
      <trkpt lat="43.30206" lon="-1.24961">
        <ele>257.922022</ele>
        <time>2026-05-22T06:45:04.000Z</time>
      </trkpt>
      <trkpt lat="43.30204" lon="-1.24961">
        <ele>258.054656</ele>
        <time>2026-05-22T06:45:05.000Z</time>
      </trkpt>
      <trkpt lat="43.30203" lon="-1.24961">
        <ele>258.174215</ele>
        <time>2026-05-22T06:45:06.000Z</time>
      </trkpt>
      <trkpt lat="43.30201" lon="-1.24962">
        <ele>258.300696</ele>
        <time>2026-05-22T06:45:07.000Z</time>
      </trkpt>
      <trkpt lat="43.30199" lon="-1.24962">
        <ele>258.421968</ele>
        <time>2026-05-22T06:45:08.000Z</time>
      </trkpt>
      <trkpt lat="43.30198" lon="-1.24963">
        <ele>258.543239</ele>
        <time>2026-05-22T06:45:09.000Z</time>
      </trkpt>
      <trkpt lat="43.30196" lon="-1.24963">
        <ele>258.670431</ele>
        <time>2026-05-22T06:45:10.000Z</time>
      </trkpt>
      <trkpt lat="43.30194" lon="-1.24963">
        <ele>258.811413</ele>
        <time>2026-05-22T06:45:11.000Z</time>
      </trkpt>
      <trkpt lat="43.30192" lon="-1.24964">
        <ele>258.954212</ele>
        <time>2026-05-22T06:45:12.000Z</time>
      </trkpt>
      <trkpt lat="43.3019" lon="-1.24965">
        <ele>259.084704</ele>
        <time>2026-05-22T06:45:13.000Z</time>
      </trkpt>
      <trkpt lat="43.30188" lon="-1.24966">
        <ele>259.231507</ele>
        <time>2026-05-22T06:45:14.000Z</time>
      </trkpt>
      <trkpt lat="43.30186" lon="-1.24967">
        <ele>259.371698</ele>
        <time>2026-05-22T06:45:15.000Z</time>
      </trkpt>
      <trkpt lat="43.30184" lon="-1.24968">
        <ele>259.496498</ele>
        <time>2026-05-22T06:45:16.000Z</time>
      </trkpt>
      <trkpt lat="43.30183" lon="-1.24969">
        <ele>259.630113</ele>
        <time>2026-05-22T06:45:17.000Z</time>
      </trkpt>
      <trkpt lat="43.30181" lon="-1.2497">
        <ele>259.767531</ele>
        <time>2026-05-22T06:45:18.000Z</time>
      </trkpt>
      <trkpt lat="43.30179" lon="-1.24971">
        <ele>259.917804</ele>
        <time>2026-05-22T06:45:19.000Z</time>
      </trkpt>
      <trkpt lat="43.30177" lon="-1.24972">
        <ele>260.074376</ele>
        <time>2026-05-22T06:45:20.000Z</time>
      </trkpt>
      <trkpt lat="43.30175" lon="-1.24973">
        <ele>260.220242</ele>
        <time>2026-05-22T06:45:21.000Z</time>
      </trkpt>
      <trkpt lat="43.30173" lon="-1.24975">
        <ele>260.3683</ele>
        <time>2026-05-22T06:45:22.000Z</time>
      </trkpt>
      <trkpt lat="43.30171" lon="-1.24976">
        <ele>260.51869</ele>
        <time>2026-05-22T06:45:23.000Z</time>
      </trkpt>
      <trkpt lat="43.30169" lon="-1.24978">
        <ele>260.683787</ele>
        <time>2026-05-22T06:45:24.000Z</time>
      </trkpt>
      <trkpt lat="43.30167" lon="-1.24979">
        <ele>260.830634</ele>
        <time>2026-05-22T06:45:25.000Z</time>
      </trkpt>
      <trkpt lat="43.30165" lon="-1.24981">
        <ele>260.980176</ele>
        <time>2026-05-22T06:45:26.000Z</time>
      </trkpt>
      <trkpt lat="43.30163" lon="-1.24982">
        <ele>261.142995</ele>
        <time>2026-05-22T06:45:27.000Z</time>
      </trkpt>
      <trkpt lat="43.30161" lon="-1.24983">
        <ele>261.305813</ele>
        <time>2026-05-22T06:45:28.000Z</time>
      </trkpt>
      <trkpt lat="43.30159" lon="-1.24985">
        <ele>261.462385</ele>
        <time>2026-05-22T06:45:29.000Z</time>
      </trkpt>
      <trkpt lat="43.30157" lon="-1.24986">
        <ele>261.612658</ele>
        <time>2026-05-22T06:45:30.000Z</time>
      </trkpt>
      <trkpt lat="43.30155" lon="-1.24987">
        <ele>261.76923</ele>
        <time>2026-05-22T06:45:31.000Z</time>
      </trkpt>
      <trkpt lat="43.30154" lon="-1.24989">
        <ele>261.915894</ele>
        <time>2026-05-22T06:45:32.000Z</time>
      </trkpt>
      <trkpt lat="43.30152" lon="-1.24991">
        <ele>262.068748</ele>
        <time>2026-05-22T06:45:33.000Z</time>
      </trkpt>
      <trkpt lat="43.3015" lon="-1.24992">
        <ele>262.227398</ele>
        <time>2026-05-22T06:45:34.000Z</time>
      </trkpt>
      <trkpt lat="43.30148" lon="-1.24993">
        <ele>262.371218</ele>
        <time>2026-05-22T06:45:35.000Z</time>
      </trkpt>
      <trkpt lat="43.30146" lon="-1.24994">
        <ele>262.52345</ele>
        <time>2026-05-22T06:45:36.000Z</time>
      </trkpt>
      <trkpt lat="43.30144" lon="-1.24995">
        <ele>262.671911</ele>
        <time>2026-05-22T06:45:37.000Z</time>
      </trkpt>
      <trkpt lat="43.30142" lon="-1.24996">
        <ele>262.815732</ele>
        <time>2026-05-22T06:45:38.000Z</time>
      </trkpt>
      <trkpt lat="43.30139" lon="-1.24997">
        <ele>262.985611</ele>
        <time>2026-05-22T06:45:39.000Z</time>
      </trkpt>
      <trkpt lat="43.30137" lon="-1.24998">
        <ele>263.148918</ele>
        <time>2026-05-22T06:45:40.000Z</time>
      </trkpt>
      <trkpt lat="43.30135" lon="-1.25">
        <ele>263.307859</ele>
        <time>2026-05-22T06:45:41.000Z</time>
      </trkpt>
      <trkpt lat="43.30133" lon="-1.25001">
        <ele>263.481396</ele>
        <time>2026-05-22T06:45:42.000Z</time>
      </trkpt>
      <trkpt lat="43.3013" lon="-1.25001">
        <ele>263.652541</ele>
        <time>2026-05-22T06:45:43.000Z</time>
      </trkpt>
      <trkpt lat="43.30128" lon="-1.25002">
        <ele>263.823685</ele>
        <time>2026-05-22T06:45:44.000Z</time>
      </trkpt>
      <trkpt lat="43.30126" lon="-1.25003">
        <ele>263.990095</ele>
        <time>2026-05-22T06:45:45.000Z</time>
      </trkpt>
      <trkpt lat="43.30123" lon="-1.25004">
        <ele>264.133148</ele>
        <time>2026-05-22T06:45:46.000Z</time>
      </trkpt>
      <trkpt lat="43.30121" lon="-1.25004">
        <ele>264.268756</ele>
        <time>2026-05-22T06:45:47.000Z</time>
      </trkpt>
      <trkpt lat="43.30119" lon="-1.25005">
        <ele>264.397923</ele>
        <time>2026-05-22T06:45:48.000Z</time>
      </trkpt>
      <trkpt lat="43.30117" lon="-1.25006">
        <ele>264.529745</ele>
        <time>2026-05-22T06:45:49.000Z</time>
      </trkpt>
      <trkpt lat="43.30114" lon="-1.25006">
        <ele>264.657807</ele>
        <time>2026-05-22T06:45:50.000Z</time>
      </trkpt>
      <trkpt lat="43.30112" lon="-1.25006">
        <ele>264.791101</ele>
        <time>2026-05-22T06:45:51.000Z</time>
      </trkpt>
      <trkpt lat="43.3011" lon="-1.25006">
        <ele>264.936466</ele>
        <time>2026-05-22T06:45:52.000Z</time>
      </trkpt>
      <trkpt lat="43.30107" lon="-1.25007">
        <ele>265.077075</ele>
        <time>2026-05-22T06:45:53.000Z</time>
      </trkpt>
      <trkpt lat="43.30105" lon="-1.25007">
        <ele>265.21037</ele>
        <time>2026-05-22T06:45:54.000Z</time>
      </trkpt>
      <trkpt lat="43.30102" lon="-1.25007">
        <ele>265.34939</ele>
        <time>2026-05-22T06:45:55.000Z</time>
      </trkpt>
      <trkpt lat="43.301" lon="-1.25007">
        <ele>265.482685</ele>
        <time>2026-05-22T06:45:56.000Z</time>
      </trkpt>
      <trkpt lat="43.30098" lon="-1.25007">
        <ele>265.634232</ele>
        <time>2026-05-22T06:45:57.000Z</time>
      </trkpt>
      <trkpt lat="43.30095" lon="-1.25007">
        <ele>265.763399</ele>
        <time>2026-05-22T06:45:58.000Z</time>
      </trkpt>
      <trkpt lat="43.30093" lon="-1.25006">
        <ele>265.89332</ele>
        <time>2026-05-22T06:45:59.000Z</time>
      </trkpt>
      <trkpt lat="43.30091" lon="-1.25006">
        <ele>266.026815</ele>
        <time>2026-05-22T06:46:00.000Z</time>
      </trkpt>
      <trkpt lat="43.30089" lon="-1.25006">
        <ele>266.160642</ele>
        <time>2026-05-22T06:46:01.000Z</time>
      </trkpt>
      <trkpt lat="43.30086" lon="-1.25005">
        <ele>266.300681</ele>
        <time>2026-05-22T06:46:02.000Z</time>
      </trkpt>
      <trkpt lat="43.30084" lon="-1.25005">
        <ele>266.435566</ele>
        <time>2026-05-22T06:46:03.000Z</time>
      </trkpt>
      <trkpt lat="43.30081" lon="-1.25004">
        <ele>266.577684</ele>
        <time>2026-05-22T06:46:04.000Z</time>
      </trkpt>
      <trkpt lat="43.30079" lon="-1.25003">
        <ele>266.720737</ele>
        <time>2026-05-22T06:46:05.000Z</time>
      </trkpt>
      <trkpt lat="43.30077" lon="-1.25003">
        <ele>266.846968</ele>
        <time>2026-05-22T06:46:06.000Z</time>
      </trkpt>
      <trkpt lat="43.30075" lon="-1.25002">
        <ele>266.966518</ele>
        <time>2026-05-22T06:46:07.000Z</time>
      </trkpt>
      <trkpt lat="43.30073" lon="-1.25001">
        <ele>267.0898</ele>
        <time>2026-05-22T06:46:08.000Z</time>
      </trkpt>
      <trkpt lat="43.30071" lon="-1.25">
        <ele>267.22541</ele>
        <time>2026-05-22T06:46:09.000Z</time>
      </trkpt>
      <trkpt lat="43.30069" lon="-1.24999">
        <ele>267.34399</ele>
        <time>2026-05-22T06:46:10.000Z</time>
      </trkpt>
      <trkpt lat="43.30067" lon="-1.24998">
        <ele>267.4796</ele>
        <time>2026-05-22T06:46:11.000Z</time>
      </trkpt>
      <trkpt lat="43.30065" lon="-1.24997">
        <ele>267.607759</ele>
        <time>2026-05-22T06:46:12.000Z</time>
      </trkpt>
      <trkpt lat="43.30063" lon="-1.24996">
        <ele>267.732545</ele>
        <time>2026-05-22T06:46:13.000Z</time>
      </trkpt>
      <trkpt lat="43.30061" lon="-1.24994">
        <ele>267.858959</ele>
        <time>2026-05-22T06:46:14.000Z</time>
      </trkpt>
      <trkpt lat="43.30058" lon="-1.24993">
        <ele>267.989141</ele>
        <time>2026-05-22T06:46:15.000Z</time>
      </trkpt>
      <trkpt lat="43.30056" lon="-1.24992">
        <ele>268.113927</ele>
        <time>2026-05-22T06:46:16.000Z</time>
      </trkpt>
      <trkpt lat="43.30054" lon="-1.24991">
        <ele>268.251036</ele>
        <time>2026-05-22T06:46:17.000Z</time>
      </trkpt>
      <trkpt lat="43.30052" lon="-1.2499">
        <ele>268.389756</ele>
        <time>2026-05-22T06:46:18.000Z</time>
      </trkpt>
      <trkpt lat="43.3005" lon="-1.24988">
        <ele>268.511698</ele>
        <time>2026-05-22T06:46:19.000Z</time>
      </trkpt>
      <trkpt lat="43.30048" lon="-1.24987">
        <ele>268.653959</ele>
        <time>2026-05-22T06:46:20.000Z</time>
      </trkpt>
      <trkpt lat="43.30046" lon="-1.24985">
        <ele>268.803289</ele>
        <time>2026-05-22T06:46:21.000Z</time>
      </trkpt>
      <trkpt lat="43.30044" lon="-1.24983">
        <ele>268.93697</ele>
        <time>2026-05-22T06:46:22.000Z</time>
      </trkpt>
      <trkpt lat="43.30042" lon="-1.24981">
        <ele>269.087416</ele>
        <time>2026-05-22T06:46:23.000Z</time>
      </trkpt>
      <trkpt lat="43.3004" lon="-1.24979">
        <ele>269.233062</ele>
        <time>2026-05-22T06:46:24.000Z</time>
      </trkpt>
      <trkpt lat="43.30037" lon="-1.24978">
        <ele>269.377246</ele>
        <time>2026-05-22T06:46:25.000Z</time>
      </trkpt>
      <trkpt lat="43.30035" lon="-1.24976">
        <ele>269.515736</ele>
        <time>2026-05-22T06:46:26.000Z</time>
      </trkpt>
      <trkpt lat="43.30033" lon="-1.24974">
        <ele>269.661381</ele>
        <time>2026-05-22T06:46:27.000Z</time>
      </trkpt>
      <trkpt lat="43.30031" lon="-1.24972">
        <ele>269.797499</ele>
        <time>2026-05-22T06:46:28.000Z</time>
      </trkpt>
      <trkpt lat="43.30029" lon="-1.2497">
        <ele>269.940782</ele>
        <time>2026-05-22T06:46:29.000Z</time>
      </trkpt>
      <trkpt lat="43.30027" lon="-1.24968">
        <ele>270.088787</ele>
        <time>2026-05-22T06:46:30.000Z</time>
      </trkpt>
      <trkpt lat="43.30025" lon="-1.24966">
        <ele>270.230032</ele>
        <time>2026-05-22T06:46:31.000Z</time>
      </trkpt>
      <trkpt lat="43.30023" lon="-1.24964">
        <ele>270.378432</ele>
        <time>2026-05-22T06:46:32.000Z</time>
      </trkpt>
      <trkpt lat="43.30022" lon="-1.24962">
        <ele>270.519677</ele>
        <time>2026-05-22T06:46:33.000Z</time>
      </trkpt>
      <trkpt lat="43.3002" lon="-1.24959">
        <ele>270.670748</ele>
        <time>2026-05-22T06:46:34.000Z</time>
      </trkpt>
      <trkpt lat="43.30018" lon="-1.24957">
        <ele>270.811992</ele>
        <time>2026-05-22T06:46:35.000Z</time>
      </trkpt>
      <trkpt lat="43.30016" lon="-1.24955">
        <ele>270.952836</ele>
        <time>2026-05-22T06:46:36.000Z</time>
      </trkpt>
      <trkpt lat="43.30014" lon="-1.24953">
        <ele>271.100841</ele>
        <time>2026-05-22T06:46:37.000Z</time>
      </trkpt>
      <trkpt lat="43.30012" lon="-1.24952">
        <ele>271.234523</ele>
        <time>2026-05-22T06:46:38.000Z</time>
      </trkpt>
      <trkpt lat="43.3001" lon="-1.2495">
        <ele>271.365857</ele>
        <time>2026-05-22T06:46:39.000Z</time>
      </trkpt>
      <trkpt lat="43.30008" lon="-1.24948">
        <ele>271.509227</ele>
        <time>2026-05-22T06:46:40.000Z</time>
      </trkpt>
      <trkpt lat="43.30006" lon="-1.24947">
        <ele>271.631169</ele>
        <time>2026-05-22T06:46:41.000Z</time>
      </trkpt>
      <trkpt lat="43.30004" lon="-1.24945">
        <ele>271.753112</ele>
        <time>2026-05-22T06:46:42.000Z</time>
      </trkpt>
      <trkpt lat="43.30002" lon="-1.24943">
        <ele>271.880046</ele>
        <time>2026-05-22T06:46:43.000Z</time>
      </trkpt>
      <trkpt lat="43.30001" lon="-1.24941">
        <ele>272.009683</ele>
        <time>2026-05-22T06:46:44.000Z</time>
      </trkpt>
      <trkpt lat="43.29999" lon="-1.24939">
        <ele>272.145802</ele>
        <time>2026-05-22T06:46:45.000Z</time>
      </trkpt>
      <trkpt lat="43.29997" lon="-1.24937">
        <ele>272.279891</ele>
        <time>2026-05-22T06:46:46.000Z</time>
      </trkpt>
      <trkpt lat="43.29995" lon="-1.24936">
        <ele>272.41838</ele>
        <time>2026-05-22T06:46:47.000Z</time>
      </trkpt>
      <trkpt lat="43.29993" lon="-1.24934">
        <ele>272.552062</ele>
        <time>2026-05-22T06:46:48.000Z</time>
      </trkpt>
      <trkpt lat="43.29991" lon="-1.24931">
        <ele>272.710282</ele>
        <time>2026-05-22T06:46:49.000Z</time>
      </trkpt>
      <trkpt lat="43.29989" lon="-1.2493">
        <ele>272.853652</ele>
        <time>2026-05-22T06:46:50.000Z</time>
      </trkpt>
      <trkpt lat="43.29987" lon="-1.24928">
        <ele>272.982607</ele>
        <time>2026-05-22T06:46:51.000Z</time>
      </trkpt>
      <trkpt lat="43.29985" lon="-1.24926">
        <ele>273.123851</ele>
        <time>2026-05-22T06:46:52.000Z</time>
      </trkpt>
      <trkpt lat="43.29983" lon="-1.24924">
        <ele>273.262493</ele>
        <time>2026-05-22T06:46:53.000Z</time>
      </trkpt>
      <trkpt lat="43.29981" lon="-1.24921">
        <ele>273.406417</ele>
        <time>2026-05-22T06:46:54.000Z</time>
      </trkpt>
      <trkpt lat="43.29979" lon="-1.24919">
        <ele>273.554818</ele>
        <time>2026-05-22T06:46:55.000Z</time>
      </trkpt>
      <trkpt lat="43.29977" lon="-1.24917">
        <ele>273.698743</ele>
        <time>2026-05-22T06:46:56.000Z</time>
      </trkpt>
      <trkpt lat="43.29976" lon="-1.24915">
        <ele>273.827698</ele>
        <time>2026-05-22T06:46:57.000Z</time>
      </trkpt>
      <trkpt lat="43.29974" lon="-1.24913">
        <ele>273.94748</ele>
        <time>2026-05-22T06:46:58.000Z</time>
      </trkpt>
      <trkpt lat="43.29972" lon="-1.24912">
        <ele>274.081535</ele>
        <time>2026-05-22T06:46:59.000Z</time>
      </trkpt>
      <trkpt lat="43.2997" lon="-1.24911">
        <ele>274.204483</ele>
        <time>2026-05-22T06:47:00.000Z</time>
      </trkpt>
      <trkpt lat="43.29968" lon="-1.24909">
        <ele>274.336468</ele>
        <time>2026-05-22T06:47:01.000Z</time>
      </trkpt>
      <trkpt lat="43.29966" lon="-1.24907">
        <ele>274.413723</ele>
        <time>2026-05-22T06:47:02.000Z</time>
      </trkpt>
      <trkpt lat="43.29965" lon="-1.24905">
        <ele>274.456636</ele>
        <time>2026-05-22T06:47:03.000Z</time>
      </trkpt>
      <trkpt lat="43.29963" lon="-1.24903">
        <ele>274.501022</ele>
        <time>2026-05-22T06:47:04.000Z</time>
      </trkpt>
      <trkpt lat="43.29961" lon="-1.24901">
        <ele>274.54304</ele>
        <time>2026-05-22T06:47:05.000Z</time>
      </trkpt>
      <trkpt lat="43.29959" lon="-1.249">
        <ele>274.581779</ele>
        <time>2026-05-22T06:47:06.000Z</time>
      </trkpt>
      <trkpt lat="43.29958" lon="-1.24898">
        <ele>274.622144</ele>
        <time>2026-05-22T06:47:07.000Z</time>
      </trkpt>
      <trkpt lat="43.29956" lon="-1.24897">
        <ele>274.659284</ele>
        <time>2026-05-22T06:47:08.000Z</time>
      </trkpt>
      <trkpt lat="43.29955" lon="-1.24895">
        <ele>274.700345</ele>
        <time>2026-05-22T06:47:09.000Z</time>
      </trkpt>
      <trkpt lat="43.29953" lon="-1.24892">
        <ele>274.742187</ele>
        <time>2026-05-22T06:47:10.000Z</time>
      </trkpt>
      <trkpt lat="43.29951" lon="-1.2489">
        <ele>274.786574</ele>
        <time>2026-05-22T06:47:11.000Z</time>
      </trkpt>
      <trkpt lat="43.2995" lon="-1.24888">
        <ele>274.829486</ele>
        <time>2026-05-22T06:47:12.000Z</time>
      </trkpt>
      <trkpt lat="43.29948" lon="-1.24886">
        <ele>274.87826</ele>
        <time>2026-05-22T06:47:13.000Z</time>
      </trkpt>
      <trkpt lat="43.29946" lon="-1.24883">
        <ele>274.92456</ele>
        <time>2026-05-22T06:47:14.000Z</time>
      </trkpt>
      <trkpt lat="43.29945" lon="-1.24881">
        <ele>274.968393</ele>
        <time>2026-05-22T06:47:15.000Z</time>
      </trkpt>
      <trkpt lat="43.29943" lon="-1.24879">
        <ele>275.007511</ele>
        <time>2026-05-22T06:47:16.000Z</time>
      </trkpt>
      <trkpt lat="43.29942" lon="-1.24877">
        <ele>275.048572</ele>
        <time>2026-05-22T06:47:17.000Z</time>
      </trkpt>
      <trkpt lat="43.2994" lon="-1.24875">
        <ele>275.087296</ele>
        <time>2026-05-22T06:47:18.000Z</time>
      </trkpt>
      <trkpt lat="43.29939" lon="-1.24873">
        <ele>275.130393</ele>
        <time>2026-05-22T06:47:19.000Z</time>
      </trkpt>
      <trkpt lat="43.29937" lon="-1.24871">
        <ele>275.171454</ele>
        <time>2026-05-22T06:47:20.000Z</time>
      </trkpt>
      <trkpt lat="43.29936" lon="-1.24868">
        <ele>275.207651</ele>
        <time>2026-05-22T06:47:21.000Z</time>
      </trkpt>
      <trkpt lat="43.29935" lon="-1.24866">
        <ele>275.24491</ele>
        <time>2026-05-22T06:47:22.000Z</time>
      </trkpt>
      <trkpt lat="43.29934" lon="-1.24864">
        <ele>275.279893</ele>
        <time>2026-05-22T06:47:23.000Z</time>
      </trkpt>
      <trkpt lat="43.29933" lon="-1.24862">
        <ele>275.319472</ele>
        <time>2026-05-22T06:47:24.000Z</time>
      </trkpt>
      <trkpt lat="43.29932" lon="-1.2486">
        <ele>275.358964</ele>
        <time>2026-05-22T06:47:25.000Z</time>
      </trkpt>
      <trkpt lat="43.2993" lon="-1.24857">
        <ele>275.397436</ele>
        <time>2026-05-22T06:47:26.000Z</time>
      </trkpt>
      <trkpt lat="43.29929" lon="-1.24855">
        <ele>275.436982</ele>
        <time>2026-05-22T06:47:27.000Z</time>
      </trkpt>
      <trkpt lat="43.29928" lon="-1.24853">
        <ele>275.475388</ele>
        <time>2026-05-22T06:47:28.000Z</time>
      </trkpt>
      <trkpt lat="43.29927" lon="-1.24851">
        <ele>275.517137</ele>
        <time>2026-05-22T06:47:29.000Z</time>
      </trkpt>
      <trkpt lat="43.29925" lon="-1.24848">
        <ele>275.559206</ele>
        <time>2026-05-22T06:47:30.000Z</time>
      </trkpt>
      <trkpt lat="43.29924" lon="-1.24846">
        <ele>275.601048</ele>
        <time>2026-05-22T06:47:31.000Z</time>
      </trkpt>
      <trkpt lat="43.29923" lon="-1.24844">
        <ele>275.640594</ele>
        <time>2026-05-22T06:47:32.000Z</time>
      </trkpt>
      <trkpt lat="43.29921" lon="-1.24842">
        <ele>275.67896</ele>
        <time>2026-05-22T06:47:33.000Z</time>
      </trkpt>
      <trkpt lat="43.2992" lon="-1.24839">
        <ele>275.719599</ele>
        <time>2026-05-22T06:47:34.000Z</time>
      </trkpt>
      <trkpt lat="43.29919" lon="-1.24837">
        <ele>275.758071</ele>
        <time>2026-05-22T06:47:35.000Z</time>
      </trkpt>
      <trkpt lat="43.29917" lon="-1.24835">
        <ele>275.802091</ele>
        <time>2026-05-22T06:47:36.000Z</time>
      </trkpt>
      <trkpt lat="43.29916" lon="-1.24832">
        <ele>275.84611</ele>
        <time>2026-05-22T06:47:37.000Z</time>
      </trkpt>
      <trkpt lat="43.29914" lon="-1.2483">
        <ele>275.890257</ele>
        <time>2026-05-22T06:47:38.000Z</time>
      </trkpt>
      <trkpt lat="43.29913" lon="-1.24827">
        <ele>275.937771</ele>
        <time>2026-05-22T06:47:39.000Z</time>
      </trkpt>
      <trkpt lat="43.29911" lon="-1.24824">
        <ele>275.98745</ele>
        <time>2026-05-22T06:47:40.000Z</time>
      </trkpt>
      <trkpt lat="43.2991" lon="-1.24821">
        <ele>276.039352</ele>
        <time>2026-05-22T06:47:41.000Z</time>
      </trkpt>
      <trkpt lat="43.29908" lon="-1.24818">
        <ele>276.093609</ele>
        <time>2026-05-22T06:47:42.000Z</time>
      </trkpt>
      <trkpt lat="43.29906" lon="-1.24816">
        <ele>276.149362</ele>
        <time>2026-05-22T06:47:43.000Z</time>
      </trkpt>
      <trkpt lat="43.29904" lon="-1.24812">
        <ele>276.209785</ele>
        <time>2026-05-22T06:47:44.000Z</time>
      </trkpt>
      <trkpt lat="43.29901" lon="-1.24809">
        <ele>276.272546</ele>
        <time>2026-05-22T06:47:45.000Z</time>
      </trkpt>
      <trkpt lat="43.29899" lon="-1.24806">
        <ele>276.334323</ele>
        <time>2026-05-22T06:47:46.000Z</time>
      </trkpt>
      <trkpt lat="43.29897" lon="-1.24803">
        <ele>276.3991</ele>
        <time>2026-05-22T06:47:47.000Z</time>
      </trkpt>
      <trkpt lat="43.29894" lon="-1.24799">
        <ele>276.464203</ele>
        <time>2026-05-22T06:47:48.000Z</time>
      </trkpt>
      <trkpt lat="43.29892" lon="-1.24796">
        <ele>276.528773</ele>
        <time>2026-05-22T06:47:49.000Z</time>
      </trkpt>
      <trkpt lat="43.29889" lon="-1.24793">
        <ele>276.592897</ele>
        <time>2026-05-22T06:47:50.000Z</time>
      </trkpt>
      <trkpt lat="43.29887" lon="-1.2479">
        <ele>276.656057</ele>
        <time>2026-05-22T06:47:51.000Z</time>
      </trkpt>
      <trkpt lat="43.29884" lon="-1.24787">
        <ele>276.724879</ele>
        <time>2026-05-22T06:47:52.000Z</time>
      </trkpt>
      <trkpt lat="43.29882" lon="-1.24783">
        <ele>276.793315</ele>
        <time>2026-05-22T06:47:53.000Z</time>
      </trkpt>
      <trkpt lat="43.29879" lon="-1.2478">
        <ele>276.861183</ele>
        <time>2026-05-22T06:47:54.000Z</time>
      </trkpt>
      <trkpt lat="43.29877" lon="-1.24777">
        <ele>276.927189</ele>
        <time>2026-05-22T06:47:55.000Z</time>
      </trkpt>
      <trkpt lat="43.29874" lon="-1.24774">
        <ele>276.996138</ele>
        <time>2026-05-22T06:47:56.000Z</time>
      </trkpt>
      <trkpt lat="43.29871" lon="-1.24771">
        <ele>277.06337</ele>
        <time>2026-05-22T06:47:57.000Z</time>
      </trkpt>
      <trkpt lat="43.29868" lon="-1.24768">
        <ele>277.132135</ele>
        <time>2026-05-22T06:47:58.000Z</time>
      </trkpt>
      <trkpt lat="43.29865" lon="-1.24766">
        <ele>277.202718</ele>
        <time>2026-05-22T06:47:59.000Z</time>
      </trkpt>
      <trkpt lat="43.29862" lon="-1.24763">
        <ele>277.275461</ele>
        <time>2026-05-22T06:48:00.000Z</time>
      </trkpt>
      <trkpt lat="43.29858" lon="-1.2476">
        <ele>277.352805</ele>
        <time>2026-05-22T06:48:01.000Z</time>
      </trkpt>
      <trkpt lat="43.29854" lon="-1.24758">
        <ele>277.431871</ele>
        <time>2026-05-22T06:48:02.000Z</time>
      </trkpt>
      <trkpt lat="43.2985" lon="-1.24756">
        <ele>277.515563</ele>
        <time>2026-05-22T06:48:03.000Z</time>
      </trkpt>
      <trkpt lat="43.29846" lon="-1.24753">
        <ele>277.605343</ele>
        <time>2026-05-22T06:48:04.000Z</time>
      </trkpt>
      <trkpt lat="43.29841" lon="-1.24752">
        <ele>277.700746</ele>
        <time>2026-05-22T06:48:05.000Z</time>
      </trkpt>
      <trkpt lat="43.29836" lon="-1.2475">
        <ele>277.805772</ele>
        <time>2026-05-22T06:48:06.000Z</time>
      </trkpt>
      <trkpt lat="43.2983" lon="-1.24748">
        <ele>277.511537</ele>
        <time>2026-05-22T06:48:07.000Z</time>
      </trkpt>
      <trkpt lat="43.29824" lon="-1.24747">
        <ele>277.043338</ele>
        <time>2026-05-22T06:48:08.000Z</time>
      </trkpt>
      <trkpt lat="43.29817" lon="-1.24746">
        <ele>276.545599</ele>
        <time>2026-05-22T06:48:09.000Z</time>
      </trkpt>
      <trkpt lat="43.2981" lon="-1.24744">
        <ele>276.001122</ele>
        <time>2026-05-22T06:48:10.000Z</time>
      </trkpt>
      <trkpt lat="43.29803" lon="-1.24742">
        <ele>275.449274</ele>
        <time>2026-05-22T06:48:11.000Z</time>
      </trkpt>
      <trkpt lat="43.29795" lon="-1.24741">
        <ele>274.893017</ele>
        <time>2026-05-22T06:48:12.000Z</time>
      </trkpt>
      <trkpt lat="43.29788" lon="-1.2474">
        <ele>274.321284</ele>
        <time>2026-05-22T06:48:13.000Z</time>
      </trkpt>
      <trkpt lat="43.2978" lon="-1.24738">
        <ele>273.739092</ele>
        <time>2026-05-22T06:48:14.000Z</time>
      </trkpt>
      <trkpt lat="43.29773" lon="-1.24736">
        <ele>273.15814</ele>
        <time>2026-05-22T06:48:15.000Z</time>
      </trkpt>
      <trkpt lat="43.29765" lon="-1.24733">
        <ele>272.556008</ele>
        <time>2026-05-22T06:48:16.000Z</time>
      </trkpt>
      <trkpt lat="43.29757" lon="-1.24728">
        <ele>271.929207</ele>
        <time>2026-05-22T06:48:17.000Z</time>
      </trkpt>
      <trkpt lat="43.2975" lon="-1.24722">
        <ele>271.294188</ele>
        <time>2026-05-22T06:48:18.000Z</time>
      </trkpt>
      <trkpt lat="43.29743" lon="-1.24715">
        <ele>270.650656</ele>
        <time>2026-05-22T06:48:19.000Z</time>
      </trkpt>
      <trkpt lat="43.29737" lon="-1.24707">
        <ele>270.004451</ele>
        <time>2026-05-22T06:48:20.000Z</time>
      </trkpt>
      <trkpt lat="43.29731" lon="-1.24698">
        <ele>269.342896</ele>
        <time>2026-05-22T06:48:21.000Z</time>
      </trkpt>
      <trkpt lat="43.29725" lon="-1.24689">
        <ele>268.675755</ele>
        <time>2026-05-22T06:48:22.000Z</time>
      </trkpt>
      <trkpt lat="43.29719" lon="-1.24679">
        <ele>267.997222</ele>
        <time>2026-05-22T06:48:23.000Z</time>
      </trkpt>
      <trkpt lat="43.29712" lon="-1.2467">
        <ele>267.29491</ele>
        <time>2026-05-22T06:48:24.000Z</time>
      </trkpt>
      <trkpt lat="43.29706" lon="-1.2466">
        <ele>266.578526</ele>
        <time>2026-05-22T06:48:25.000Z</time>
      </trkpt>
      <trkpt lat="43.29699" lon="-1.2465">
        <ele>265.846787</ele>
        <time>2026-05-22T06:48:26.000Z</time>
      </trkpt>
      <trkpt lat="43.29692" lon="-1.24641">
        <ele>265.106958</ele>
        <time>2026-05-22T06:48:27.000Z</time>
      </trkpt>
      <trkpt lat="43.29684" lon="-1.24631">
        <ele>264.310255</ele>
        <time>2026-05-22T06:48:28.000Z</time>
      </trkpt>
      <trkpt lat="43.29676" lon="-1.24622">
        <ele>263.320758</ele>
        <time>2026-05-22T06:48:29.000Z</time>
      </trkpt>
      <trkpt lat="43.29668" lon="-1.24612">
        <ele>262.297931</ele>
        <time>2026-05-22T06:48:30.000Z</time>
      </trkpt>
      <trkpt lat="43.2966" lon="-1.24603">
        <ele>261.263418</ele>
        <time>2026-05-22T06:48:31.000Z</time>
      </trkpt>
      <trkpt lat="43.29651" lon="-1.24593">
        <ele>260.224484</ele>
        <time>2026-05-22T06:48:32.000Z</time>
      </trkpt>
      <trkpt lat="43.29643" lon="-1.24582">
        <ele>259.1442</ele>
        <time>2026-05-22T06:48:33.000Z</time>
      </trkpt>
      <trkpt lat="43.29635" lon="-1.2457">
        <ele>258.048002</ele>
        <time>2026-05-22T06:48:34.000Z</time>
      </trkpt>
      <trkpt lat="43.29629" lon="-1.24557">
        <ele>256.916839</ele>
        <time>2026-05-22T06:48:35.000Z</time>
      </trkpt>
      <trkpt lat="43.29623" lon="-1.24542">
        <ele>255.779556</ele>
        <time>2026-05-22T06:48:36.000Z</time>
      </trkpt>
      <trkpt lat="43.29618" lon="-1.24527">
        <ele>254.648749</ele>
        <time>2026-05-22T06:48:37.000Z</time>
      </trkpt>
      <trkpt lat="43.29614" lon="-1.24511">
        <ele>253.505773</ele>
        <time>2026-05-22T06:48:38.000Z</time>
      </trkpt>
      <trkpt lat="43.2961" lon="-1.24496">
        <ele>252.346411</ele>
        <time>2026-05-22T06:48:39.000Z</time>
      </trkpt>
      <trkpt lat="43.29605" lon="-1.2448">
        <ele>251.192996</ele>
        <time>2026-05-22T06:48:40.000Z</time>
      </trkpt>
      <trkpt lat="43.29599" lon="-1.24465">
        <ele>250.033005</ele>
        <time>2026-05-22T06:48:41.000Z</time>
      </trkpt>
      <trkpt lat="43.29593" lon="-1.24451">
        <ele>248.877001</ele>
        <time>2026-05-22T06:48:42.000Z</time>
      </trkpt>
      <trkpt lat="43.29585" lon="-1.24438">
        <ele>247.718077</ele>
        <time>2026-05-22T06:48:43.000Z</time>
      </trkpt>
      <trkpt lat="43.29578" lon="-1.24425">
        <ele>246.668463</ele>
        <time>2026-05-22T06:48:44.000Z</time>
      </trkpt>
      <trkpt lat="43.2957" lon="-1.24412">
        <ele>245.661141</ele>
        <time>2026-05-22T06:48:45.000Z</time>
      </trkpt>
      <trkpt lat="43.29561" lon="-1.24401">
        <ele>244.67673</ele>
        <time>2026-05-22T06:48:46.000Z</time>
      </trkpt>
      <trkpt lat="43.29552" lon="-1.2439">
        <ele>243.706056</ele>
        <time>2026-05-22T06:48:47.000Z</time>
      </trkpt>
      <trkpt lat="43.29542" lon="-1.24381">
        <ele>242.733321</ele>
        <time>2026-05-22T06:48:48.000Z</time>
      </trkpt>
      <trkpt lat="43.29533" lon="-1.24371">
        <ele>241.782884</ele>
        <time>2026-05-22T06:48:49.000Z</time>
      </trkpt>
      <trkpt lat="43.29524" lon="-1.2436">
        <ele>240.84294</ele>
        <time>2026-05-22T06:48:50.000Z</time>
      </trkpt>
      <trkpt lat="43.29517" lon="-1.24349">
        <ele>239.896172</ele>
        <time>2026-05-22T06:48:51.000Z</time>
      </trkpt>
      <trkpt lat="43.29509" lon="-1.24336">
        <ele>238.954275</ele>
        <time>2026-05-22T06:48:52.000Z</time>
      </trkpt>
      <trkpt lat="43.29502" lon="-1.24324">
        <ele>238.023343</ele>
        <time>2026-05-22T06:48:53.000Z</time>
      </trkpt>
      <trkpt lat="43.29495" lon="-1.24312">
        <ele>237.07838</ele>
        <time>2026-05-22T06:48:54.000Z</time>
      </trkpt>
      <trkpt lat="43.29488" lon="-1.243">
        <ele>236.162586</ele>
        <time>2026-05-22T06:48:55.000Z</time>
      </trkpt>
      <trkpt lat="43.29481" lon="-1.24287">
        <ele>235.237412</ele>
        <time>2026-05-22T06:48:56.000Z</time>
      </trkpt>
      <trkpt lat="43.29475" lon="-1.24275">
        <ele>234.312237</ele>
        <time>2026-05-22T06:48:57.000Z</time>
      </trkpt>
      <trkpt lat="43.29468" lon="-1.24262">
        <ele>233.387063</ele>
        <time>2026-05-22T06:48:58.000Z</time>
      </trkpt>
      <trkpt lat="43.29461" lon="-1.2425">
        <ele>232.474966</ele>
        <time>2026-05-22T06:48:59.000Z</time>
      </trkpt>
      <trkpt lat="43.29454" lon="-1.24237">
        <ele>231.61384</ele>
        <time>2026-05-22T06:49:00.000Z</time>
      </trkpt>
      <trkpt lat="43.29447" lon="-1.24226">
        <ele>230.745871</ele>
        <time>2026-05-22T06:49:01.000Z</time>
      </trkpt>
      <trkpt lat="43.29439" lon="-1.24214">
        <ele>229.865701</ele>
        <time>2026-05-22T06:49:02.000Z</time>
      </trkpt>
      <trkpt lat="43.29431" lon="-1.24203">
        <ele>228.983994</ele>
        <time>2026-05-22T06:49:03.000Z</time>
      </trkpt>
      <trkpt lat="43.29422" lon="-1.24193">
        <ele>228.099401</ele>
        <time>2026-05-22T06:49:04.000Z</time>
      </trkpt>
      <trkpt lat="43.29412" lon="-1.24185">
        <ele>227.227902</ele>
        <time>2026-05-22T06:49:05.000Z</time>
      </trkpt>
      <trkpt lat="43.294" lon="-1.24179">
        <ele>226.318721</ele>
        <time>2026-05-22T06:49:06.000Z</time>
      </trkpt>
      <trkpt lat="43.29389" lon="-1.24177">
        <ele>225.442408</ele>
        <time>2026-05-22T06:49:07.000Z</time>
      </trkpt>
      <trkpt lat="43.29377" lon="-1.24177">
        <ele>224.551708</ele>
        <time>2026-05-22T06:49:08.000Z</time>
      </trkpt>
      <trkpt lat="43.29366" lon="-1.24177">
        <ele>223.706733</ele>
        <time>2026-05-22T06:49:09.000Z</time>
      </trkpt>
      <trkpt lat="43.29355" lon="-1.24177">
        <ele>222.861702</ele>
        <time>2026-05-22T06:49:10.000Z</time>
      </trkpt>
      <trkpt lat="43.29344" lon="-1.24176">
        <ele>221.999738</ele>
        <time>2026-05-22T06:49:11.000Z</time>
      </trkpt>
      <trkpt lat="43.29333" lon="-1.24174">
        <ele>221.143647</ele>
        <time>2026-05-22T06:49:12.000Z</time>
      </trkpt>
      <trkpt lat="43.29321" lon="-1.24173">
        <ele>220.271882</ele>
        <time>2026-05-22T06:49:13.000Z</time>
      </trkpt>
      <trkpt lat="43.2931" lon="-1.24172">
        <ele>219.395354</ele>
        <time>2026-05-22T06:49:14.000Z</time>
      </trkpt>
      <trkpt lat="43.29298" lon="-1.24172">
        <ele>218.579451</ele>
        <time>2026-05-22T06:49:15.000Z</time>
      </trkpt>
      <trkpt lat="43.29286" lon="-1.24171">
        <ele>217.835569</ele>
        <time>2026-05-22T06:49:16.000Z</time>
      </trkpt>
      <trkpt lat="43.29275" lon="-1.24168">
        <ele>217.103206</ele>
        <time>2026-05-22T06:49:17.000Z</time>
      </trkpt>
      <trkpt lat="43.29264" lon="-1.24164">
        <ele>216.365628</ele>
        <time>2026-05-22T06:49:18.000Z</time>
      </trkpt>
      <trkpt lat="43.29253" lon="-1.24157">
        <ele>215.630462</ele>
        <time>2026-05-22T06:49:19.000Z</time>
      </trkpt>
      <trkpt lat="43.29243" lon="-1.24149">
        <ele>214.901122</ele>
        <time>2026-05-22T06:49:20.000Z</time>
      </trkpt>
      <trkpt lat="43.29234" lon="-1.2414">
        <ele>214.157858</ele>
        <time>2026-05-22T06:49:21.000Z</time>
      </trkpt>
      <trkpt lat="43.29224" lon="-1.2413">
        <ele>213.414094</ele>
        <time>2026-05-22T06:49:22.000Z</time>
      </trkpt>
      <trkpt lat="43.29215" lon="-1.2412">
        <ele>212.672014</ele>
        <time>2026-05-22T06:49:23.000Z</time>
      </trkpt>
      <trkpt lat="43.29206" lon="-1.2411">
        <ele>211.936993</ele>
        <time>2026-05-22T06:49:24.000Z</time>
      </trkpt>
      <trkpt lat="43.29197" lon="-1.24101">
        <ele>211.219087</ele>
        <time>2026-05-22T06:49:25.000Z</time>
      </trkpt>
      <trkpt lat="43.29187" lon="-1.24093">
        <ele>210.490446</ele>
        <time>2026-05-22T06:49:26.000Z</time>
      </trkpt>
      <trkpt lat="43.29177" lon="-1.24088">
        <ele>209.778495</ele>
        <time>2026-05-22T06:49:27.000Z</time>
      </trkpt>
      <trkpt lat="43.29166" lon="-1.24087">
        <ele>209.076992</ele>
        <time>2026-05-22T06:49:28.000Z</time>
      </trkpt>
      <trkpt lat="43.29155" lon="-1.24088">
        <ele>208.382965</ele>
        <time>2026-05-22T06:49:29.000Z</time>
      </trkpt>
      <trkpt lat="43.29144" lon="-1.24091">
        <ele>207.701938</ele>
        <time>2026-05-22T06:49:30.000Z</time>
      </trkpt>
      <trkpt lat="43.29134" lon="-1.24094">
        <ele>207.172331</ele>
        <time>2026-05-22T06:49:31.000Z</time>
      </trkpt>
      <trkpt lat="43.29124" lon="-1.24097">
        <ele>206.686868</ele>
        <time>2026-05-22T06:49:32.000Z</time>
      </trkpt>
      <trkpt lat="43.29114" lon="-1.24099">
        <ele>206.195917</ele>
        <time>2026-05-22T06:49:33.000Z</time>
      </trkpt>
      <trkpt lat="43.29103" lon="-1.24101">
        <ele>205.703158</ele>
        <time>2026-05-22T06:49:34.000Z</time>
      </trkpt>
      <trkpt lat="43.29093" lon="-1.24101">
        <ele>205.23609</ele>
        <time>2026-05-22T06:49:35.000Z</time>
      </trkpt>
      <trkpt lat="43.29083" lon="-1.241">
        <ele>204.744735</ele>
        <time>2026-05-22T06:49:36.000Z</time>
      </trkpt>
      <trkpt lat="43.29072" lon="-1.24098">
        <ele>204.250204</ele>
        <time>2026-05-22T06:49:37.000Z</time>
      </trkpt>
      <trkpt lat="43.29062" lon="-1.24096">
        <ele>203.774114</ele>
        <time>2026-05-22T06:49:38.000Z</time>
      </trkpt>
      <trkpt lat="43.29052" lon="-1.24093">
        <ele>203.280824</ele>
        <time>2026-05-22T06:49:39.000Z</time>
      </trkpt>
      <trkpt lat="43.29041" lon="-1.2409">
        <ele>202.796037</ele>
        <time>2026-05-22T06:49:40.000Z</time>
      </trkpt>
      <trkpt lat="43.29031" lon="-1.24088">
        <ele>202.319697</ele>
        <time>2026-05-22T06:49:41.000Z</time>
      </trkpt>
      <trkpt lat="43.29021" lon="-1.24084">
        <ele>201.846456</ele>
        <time>2026-05-22T06:49:42.000Z</time>
      </trkpt>
      <trkpt lat="43.29012" lon="-1.24081">
        <ele>201.377757</ele>
        <time>2026-05-22T06:49:43.000Z</time>
      </trkpt>
      <trkpt lat="43.29002" lon="-1.24078">
        <ele>200.903751</ele>
        <time>2026-05-22T06:49:44.000Z</time>
      </trkpt>
      <trkpt lat="43.28992" lon="-1.24075">
        <ele>200.435802</ele>
        <time>2026-05-22T06:49:45.000Z</time>
      </trkpt>
      <trkpt lat="43.28982" lon="-1.24072">
        <ele>199.976182</ele>
        <time>2026-05-22T06:49:46.000Z</time>
      </trkpt>
      <trkpt lat="43.28973" lon="-1.24069">
        <ele>199.522618</ele>
        <time>2026-05-22T06:49:47.000Z</time>
      </trkpt>
      <trkpt lat="43.28963" lon="-1.24066">
        <ele>199.099162</ele>
        <time>2026-05-22T06:49:48.000Z</time>
      </trkpt>
      <trkpt lat="43.28954" lon="-1.24064">
        <ele>198.792046</ele>
        <time>2026-05-22T06:49:49.000Z</time>
      </trkpt>
      <trkpt lat="43.28945" lon="-1.2406">
        <ele>198.483858</ele>
        <time>2026-05-22T06:49:50.000Z</time>
      </trkpt>
      <trkpt lat="43.28936" lon="-1.24057">
        <ele>198.181925</ele>
        <time>2026-05-22T06:49:51.000Z</time>
      </trkpt>
      <trkpt lat="43.28927" lon="-1.24055">
        <ele>197.887889</ele>
        <time>2026-05-22T06:49:52.000Z</time>
      </trkpt>
      <trkpt lat="43.28918" lon="-1.24052">
        <ele>197.607951</ele>
        <time>2026-05-22T06:49:53.000Z</time>
      </trkpt>
      <trkpt lat="43.28909" lon="-1.24049">
        <ele>197.31443</ele>
        <time>2026-05-22T06:49:54.000Z</time>
      </trkpt>
      <trkpt lat="43.28901" lon="-1.24047">
        <ele>197.032275</ele>
        <time>2026-05-22T06:49:55.000Z</time>
      </trkpt>
      <trkpt lat="43.28892" lon="-1.24045">
        <ele>196.747393</ele>
        <time>2026-05-22T06:49:56.000Z</time>
      </trkpt>
      <trkpt lat="43.28884" lon="-1.24042">
        <ele>196.464781</ele>
        <time>2026-05-22T06:49:57.000Z</time>
      </trkpt>
      <trkpt lat="43.28875" lon="-1.2404">
        <ele>196.18623</ele>
        <time>2026-05-22T06:49:58.000Z</time>
      </trkpt>
      <trkpt lat="43.28867" lon="-1.24038">
        <ele>195.909441</ele>
        <time>2026-05-22T06:49:59.000Z</time>
      </trkpt>
      <trkpt lat="43.28858" lon="-1.24035">
        <ele>195.625858</ele>
        <time>2026-05-22T06:50:00.000Z</time>
      </trkpt>
      <trkpt lat="43.2885" lon="-1.24033">
        <ele>195.353181</ele>
        <time>2026-05-22T06:50:01.000Z</time>
      </trkpt>
      <trkpt lat="43.28841" lon="-1.24031">
        <ele>195.078223</ele>
        <time>2026-05-22T06:50:02.000Z</time>
      </trkpt>
      <trkpt lat="43.28833" lon="-1.24028">
        <ele>194.798767</ele>
        <time>2026-05-22T06:50:03.000Z</time>
      </trkpt>
      <trkpt lat="43.28824" lon="-1.24026">
        <ele>194.512038</ele>
        <time>2026-05-22T06:50:04.000Z</time>
      </trkpt>
      <trkpt lat="43.28816" lon="-1.24023">
        <ele>194.234743</ele>
        <time>2026-05-22T06:50:05.000Z</time>
      </trkpt>
      <trkpt lat="43.28807" lon="-1.2402">
        <ele>193.946981</ele>
        <time>2026-05-22T06:50:06.000Z</time>
      </trkpt>
      <trkpt lat="43.28799" lon="-1.24017">
        <ele>193.664931</ele>
        <time>2026-05-22T06:50:07.000Z</time>
      </trkpt>
      <trkpt lat="43.2879" lon="-1.24014">
        <ele>193.374887</ele>
        <time>2026-05-22T06:50:08.000Z</time>
      </trkpt>
      <trkpt lat="43.28781" lon="-1.2401">
        <ele>193.094305</ele>
        <time>2026-05-22T06:50:09.000Z</time>
      </trkpt>
      <trkpt lat="43.28772" lon="-1.24006">
        <ele>192.810107</ele>
        <time>2026-05-22T06:50:10.000Z</time>
      </trkpt>
      <trkpt lat="43.28764" lon="-1.24002">
        <ele>192.529506</ele>
        <time>2026-05-22T06:50:11.000Z</time>
      </trkpt>
      <trkpt lat="43.28755" lon="-1.23998">
        <ele>192.251004</ele>
        <time>2026-05-22T06:50:12.000Z</time>
      </trkpt>
      <trkpt lat="43.28747" lon="-1.23993">
        <ele>191.976157</ele>
        <time>2026-05-22T06:50:13.000Z</time>
      </trkpt>
      <trkpt lat="43.28738" lon="-1.23989">
        <ele>191.696051</ele>
        <time>2026-05-22T06:50:14.000Z</time>
      </trkpt>
      <trkpt lat="43.2873" lon="-1.23985">
        <ele>191.418328</ele>
        <time>2026-05-22T06:50:15.000Z</time>
      </trkpt>
      <trkpt lat="43.28721" lon="-1.2398">
        <ele>191.145008</ele>
        <time>2026-05-22T06:50:16.000Z</time>
      </trkpt>
      <trkpt lat="43.28713" lon="-1.23976">
        <ele>190.875898</ele>
        <time>2026-05-22T06:50:17.000Z</time>
      </trkpt>
      <trkpt lat="43.28705" lon="-1.23972">
        <ele>190.606788</ele>
        <time>2026-05-22T06:50:18.000Z</time>
      </trkpt>
      <trkpt lat="43.28697" lon="-1.23967">
        <ele>190.334016</ele>
        <time>2026-05-22T06:50:19.000Z</time>
      </trkpt>
      <trkpt lat="43.28689" lon="-1.23963">
        <ele>190.065694</ele>
        <time>2026-05-22T06:50:20.000Z</time>
      </trkpt>
      <trkpt lat="43.2868" lon="-1.23959">
        <ele>189.799446</ele>
        <time>2026-05-22T06:50:21.000Z</time>
      </trkpt>
      <trkpt lat="43.28673" lon="-1.23954">
        <ele>189.540061</ele>
        <time>2026-05-22T06:50:22.000Z</time>
      </trkpt>
      <trkpt lat="43.28665" lon="-1.2395">
        <ele>189.276984</ele>
        <time>2026-05-22T06:50:23.000Z</time>
      </trkpt>
      <trkpt lat="43.28657" lon="-1.23945">
        <ele>189.015838</ele>
        <time>2026-05-22T06:50:24.000Z</time>
      </trkpt>
      <trkpt lat="43.28649" lon="-1.2394">
        <ele>188.758432</ele>
        <time>2026-05-22T06:50:25.000Z</time>
      </trkpt>
      <trkpt lat="43.28642" lon="-1.23935">
        <ele>188.50631</ele>
        <time>2026-05-22T06:50:26.000Z</time>
      </trkpt>
      <trkpt lat="43.28635" lon="-1.23929">
        <ele>188.252629</ele>
        <time>2026-05-22T06:50:27.000Z</time>
      </trkpt>
      <trkpt lat="43.28628" lon="-1.23924">
        <ele>188.003437</ele>
        <time>2026-05-22T06:50:28.000Z</time>
      </trkpt>
      <trkpt lat="43.28621" lon="-1.23917">
        <ele>187.832558</ele>
        <time>2026-05-22T06:50:29.000Z</time>
      </trkpt>
      <trkpt lat="43.28615" lon="-1.23911">
        <ele>187.794426</ele>
        <time>2026-05-22T06:50:30.000Z</time>
      </trkpt>
      <trkpt lat="43.28609" lon="-1.23904">
        <ele>187.756464</ele>
        <time>2026-05-22T06:50:31.000Z</time>
      </trkpt>
      <trkpt lat="43.28603" lon="-1.23897">
        <ele>187.718444</ele>
        <time>2026-05-22T06:50:32.000Z</time>
      </trkpt>
      <trkpt lat="43.28597" lon="-1.2389">
        <ele>187.679977</ele>
        <time>2026-05-22T06:50:33.000Z</time>
      </trkpt>
      <trkpt lat="43.28591" lon="-1.23883">
        <ele>187.641879</ele>
        <time>2026-05-22T06:50:34.000Z</time>
      </trkpt>
      <trkpt lat="43.28585" lon="-1.23876">
        <ele>187.603917</ele>
        <time>2026-05-22T06:50:35.000Z</time>
      </trkpt>
      <trkpt lat="43.28579" lon="-1.23869">
        <ele>187.56582</ele>
        <time>2026-05-22T06:50:36.000Z</time>
      </trkpt>
      <trkpt lat="43.28573" lon="-1.23862">
        <ele>187.527722</ele>
        <time>2026-05-22T06:50:37.000Z</time>
      </trkpt>
      <trkpt lat="43.28567" lon="-1.23855">
        <ele>187.48976</ele>
        <time>2026-05-22T06:50:38.000Z</time>
      </trkpt>
      <trkpt lat="43.28561" lon="-1.23848">
        <ele>187.452757</ele>
        <time>2026-05-22T06:50:39.000Z</time>
      </trkpt>
      <trkpt lat="43.28555" lon="-1.23841">
        <ele>187.415484</ele>
        <time>2026-05-22T06:50:40.000Z</time>
      </trkpt>
      <trkpt lat="43.2855" lon="-1.23835">
        <ele>187.380514</ele>
        <time>2026-05-22T06:50:41.000Z</time>
      </trkpt>
      <trkpt lat="43.28544" lon="-1.23829">
        <ele>187.344573</ele>
        <time>2026-05-22T06:50:42.000Z</time>
      </trkpt>
      <trkpt lat="43.28539" lon="-1.23822">
        <ele>187.309825</ele>
        <time>2026-05-22T06:50:43.000Z</time>
      </trkpt>
      <trkpt lat="43.28533" lon="-1.23816">
        <ele>187.275203</ele>
        <time>2026-05-22T06:50:44.000Z</time>
      </trkpt>
      <trkpt lat="43.28528" lon="-1.23809">
        <ele>187.242008</ele>
        <time>2026-05-22T06:50:45.000Z</time>
      </trkpt>
      <trkpt lat="43.28523" lon="-1.23803">
        <ele>187.210361</ele>
        <time>2026-05-22T06:50:46.000Z</time>
      </trkpt>
      <trkpt lat="43.28519" lon="-1.23797">
        <ele>187.179547</ele>
        <time>2026-05-22T06:50:47.000Z</time>
      </trkpt>
      <trkpt lat="43.28514" lon="-1.23792">
        <ele>187.150396</ele>
        <time>2026-05-22T06:50:48.000Z</time>
      </trkpt>
      <trkpt lat="43.2851" lon="-1.23786">
        <ele>187.122554</ele>
        <time>2026-05-22T06:50:49.000Z</time>
      </trkpt>
      <trkpt lat="43.28506" lon="-1.23781">
        <ele>187.095065</ele>
        <time>2026-05-22T06:50:50.000Z</time>
      </trkpt>
      <trkpt lat="43.28502" lon="-1.23776">
        <ele>187.069126</ele>
        <time>2026-05-22T06:50:51.000Z</time>
      </trkpt>
      <trkpt lat="43.28498" lon="-1.23771">
        <ele>187.044845</ele>
        <time>2026-05-22T06:50:52.000Z</time>
      </trkpt>
      <trkpt lat="43.28495" lon="-1.23766">
        <ele>187.02091</ele>
        <time>2026-05-22T06:50:53.000Z</time>
      </trkpt>
      <trkpt lat="43.28491" lon="-1.23762">
        <ele>186.997565</ele>
        <time>2026-05-22T06:50:54.000Z</time>
      </trkpt>
      <trkpt lat="43.28488" lon="-1.23757">
        <ele>186.9759</ele>
        <time>2026-05-22T06:50:55.000Z</time>
      </trkpt>
      <trkpt lat="43.28485" lon="-1.23753">
        <ele>186.853282</ele>
        <time>2026-05-22T06:50:56.000Z</time>
      </trkpt>
      <trkpt lat="43.28482" lon="-1.23749">
        <ele>186.730777</ele>
        <time>2026-05-22T06:50:57.000Z</time>
      </trkpt>
      <trkpt lat="43.28479" lon="-1.23745">
        <ele>186.612122</ele>
        <time>2026-05-22T06:50:58.000Z</time>
      </trkpt>
      <trkpt lat="43.28475" lon="-1.2374">
        <ele>186.490353</ele>
        <time>2026-05-22T06:50:59.000Z</time>
      </trkpt>
      <trkpt lat="43.28472" lon="-1.23736">
        <ele>186.369911</ele>
        <time>2026-05-22T06:51:00.000Z</time>
      </trkpt>
      <trkpt lat="43.28469" lon="-1.23733">
        <ele>186.252839</ele>
        <time>2026-05-22T06:51:01.000Z</time>
      </trkpt>
      <trkpt lat="43.28466" lon="-1.23729">
        <ele>186.134435</ele>
        <time>2026-05-22T06:51:02.000Z</time>
      </trkpt>
      <trkpt lat="43.28462" lon="-1.23724">
        <ele>186.007251</ele>
        <time>2026-05-22T06:51:03.000Z</time>
      </trkpt>
      <trkpt lat="43.28459" lon="-1.23721">
        <ele>185.888545</ele>
        <time>2026-05-22T06:51:04.000Z</time>
      </trkpt>
      <trkpt lat="43.28455" lon="-1.23717">
        <ele>185.770069</ele>
        <time>2026-05-22T06:51:05.000Z</time>
      </trkpt>
      <trkpt lat="43.28451" lon="-1.23714">
        <ele>185.64134</ele>
        <time>2026-05-22T06:51:06.000Z</time>
      </trkpt>
      <trkpt lat="43.28447" lon="-1.23711">
        <ele>185.506011</ele>
        <time>2026-05-22T06:51:07.000Z</time>
      </trkpt>
      <trkpt lat="43.28442" lon="-1.23708">
        <ele>185.361693</ele>
        <time>2026-05-22T06:51:08.000Z</time>
      </trkpt>
      <trkpt lat="43.28437" lon="-1.23705">
        <ele>185.216745</ele>
        <time>2026-05-22T06:51:09.000Z</time>
      </trkpt>
      <trkpt lat="43.28432" lon="-1.23703">
        <ele>185.06052</ele>
        <time>2026-05-22T06:51:10.000Z</time>
      </trkpt>
      <trkpt lat="43.28425" lon="-1.23702">
        <ele>184.884817</ele>
        <time>2026-05-22T06:51:11.000Z</time>
      </trkpt>
      <trkpt lat="43.28418" lon="-1.23702">
        <ele>184.6982</ele>
        <time>2026-05-22T06:51:12.000Z</time>
      </trkpt>
      <trkpt lat="43.28411" lon="-1.23702">
        <ele>184.506465</ele>
        <time>2026-05-22T06:51:13.000Z</time>
      </trkpt>
      <trkpt lat="43.28404" lon="-1.23703">
        <ele>184.30074</ele>
        <time>2026-05-22T06:51:14.000Z</time>
      </trkpt>
      <trkpt lat="43.28396" lon="-1.23704">
        <ele>184.085195</ele>
        <time>2026-05-22T06:51:15.000Z</time>
      </trkpt>
      <trkpt lat="43.28388" lon="-1.23706">
        <ele>183.854229</ele>
        <time>2026-05-22T06:51:16.000Z</time>
      </trkpt>
      <trkpt lat="43.2838" lon="-1.2371">
        <ele>183.614162</ele>
        <time>2026-05-22T06:51:17.000Z</time>
      </trkpt>
      <trkpt lat="43.28371" lon="-1.23715">
        <ele>183.368638</ele>
        <time>2026-05-22T06:51:18.000Z</time>
      </trkpt>
      <trkpt lat="43.28363" lon="-1.23721">
        <ele>183.122239</ele>
        <time>2026-05-22T06:51:19.000Z</time>
      </trkpt>
      <trkpt lat="43.28355" lon="-1.23726">
        <ele>182.873376</ele>
        <time>2026-05-22T06:51:20.000Z</time>
      </trkpt>
      <trkpt lat="43.28347" lon="-1.23731">
        <ele>182.627037</ele>
        <time>2026-05-22T06:51:21.000Z</time>
      </trkpt>
      <trkpt lat="43.28338" lon="-1.23736">
        <ele>182.376575</ele>
        <time>2026-05-22T06:51:22.000Z</time>
      </trkpt>
      <trkpt lat="43.28329" lon="-1.23739">
        <ele>182.125292</ele>
        <time>2026-05-22T06:51:23.000Z</time>
      </trkpt>
      <trkpt lat="43.28321" lon="-1.23742">
        <ele>181.950319</ele>
        <time>2026-05-22T06:51:24.000Z</time>
      </trkpt>
      <trkpt lat="43.28312" lon="-1.23744">
        <ele>181.808347</ele>
        <time>2026-05-22T06:51:25.000Z</time>
      </trkpt>
      <trkpt lat="43.28303" lon="-1.23745">
        <ele>181.665436</ele>
        <time>2026-05-22T06:51:26.000Z</time>
      </trkpt>
      <trkpt lat="43.28294" lon="-1.23747">
        <ele>181.524266</ele>
        <time>2026-05-22T06:51:27.000Z</time>
      </trkpt>
      <trkpt lat="43.28286" lon="-1.23748">
        <ele>181.386671</ele>
        <time>2026-05-22T06:51:28.000Z</time>
      </trkpt>
      <trkpt lat="43.28277" lon="-1.23748">
        <ele>181.249683</ele>
        <time>2026-05-22T06:51:29.000Z</time>
      </trkpt>
      <trkpt lat="43.28269" lon="-1.23747">
        <ele>181.115666</ele>
        <time>2026-05-22T06:51:30.000Z</time>
      </trkpt>
      <trkpt lat="43.28261" lon="-1.23746">
        <ele>180.980748</ele>
        <time>2026-05-22T06:51:31.000Z</time>
      </trkpt>
      <trkpt lat="43.28253" lon="-1.23743">
        <ele>180.843549</ele>
        <time>2026-05-22T06:51:32.000Z</time>
      </trkpt>
      <trkpt lat="43.28245" lon="-1.2374">
        <ele>180.710474</ele>
        <time>2026-05-22T06:51:33.000Z</time>
      </trkpt>
      <trkpt lat="43.28237" lon="-1.23736">
        <ele>180.584661</ele>
        <time>2026-05-22T06:51:34.000Z</time>
      </trkpt>
      <trkpt lat="43.2823" lon="-1.23732">
        <ele>180.459493</ele>
        <time>2026-05-22T06:51:35.000Z</time>
      </trkpt>
      <trkpt lat="43.28223" lon="-1.23728">
        <ele>180.332964</ele>
        <time>2026-05-22T06:51:36.000Z</time>
      </trkpt>
      <trkpt lat="43.28216" lon="-1.23724">
        <ele>180.212265</ele>
        <time>2026-05-22T06:51:37.000Z</time>
      </trkpt>
      <trkpt lat="43.28209" lon="-1.23719">
        <ele>180.090634</ele>
        <time>2026-05-22T06:51:38.000Z</time>
      </trkpt>
      <trkpt lat="43.28202" lon="-1.23715">
        <ele>179.970475</ele>
        <time>2026-05-22T06:51:39.000Z</time>
      </trkpt>
      <trkpt lat="43.28196" lon="-1.23711">
        <ele>179.850315</ele>
        <time>2026-05-22T06:51:40.000Z</time>
      </trkpt>
      <trkpt lat="43.28189" lon="-1.23707">
        <ele>179.730632</ele>
        <time>2026-05-22T06:51:41.000Z</time>
      </trkpt>
      <trkpt lat="43.28182" lon="-1.23703">
        <ele>179.613811</ele>
        <time>2026-05-22T06:51:42.000Z</time>
      </trkpt>
      <trkpt lat="43.28175" lon="-1.237">
        <ele>179.497187</ele>
        <time>2026-05-22T06:51:43.000Z</time>
      </trkpt>
      <trkpt lat="43.28168" lon="-1.23696">
        <ele>179.377914</ele>
        <time>2026-05-22T06:51:44.000Z</time>
      </trkpt>
      <trkpt lat="43.28161" lon="-1.23693">
        <ele>179.257487</ele>
        <time>2026-05-22T06:51:45.000Z</time>
      </trkpt>
      <trkpt lat="43.28154" lon="-1.2369">
        <ele>179.14997</ele>
        <time>2026-05-22T06:51:46.000Z</time>
      </trkpt>
      <trkpt lat="43.28147" lon="-1.23688">
        <ele>179.115207</ele>
        <time>2026-05-22T06:51:47.000Z</time>
      </trkpt>
      <trkpt lat="43.2814" lon="-1.23685">
        <ele>179.080608</ele>
        <time>2026-05-22T06:51:48.000Z</time>
      </trkpt>
      <trkpt lat="43.28133" lon="-1.23684">
        <ele>179.047006</ele>
        <time>2026-05-22T06:51:49.000Z</time>
      </trkpt>
      <trkpt lat="43.28126" lon="-1.23683">
        <ele>179.015672</ele>
        <time>2026-05-22T06:51:50.000Z</time>
      </trkpt>
      <trkpt lat="43.2812" lon="-1.23684">
        <ele>178.984352</ele>
        <time>2026-05-22T06:51:51.000Z</time>
      </trkpt>
      <trkpt lat="43.28113" lon="-1.23685">
        <ele>178.953872</ele>
        <time>2026-05-22T06:51:52.000Z</time>
      </trkpt>
      <trkpt lat="43.28107" lon="-1.23685">
        <ele>178.924302</ele>
        <time>2026-05-22T06:51:53.000Z</time>
      </trkpt>
      <trkpt lat="43.28101" lon="-1.23686">
        <ele>178.895711</ele>
        <time>2026-05-22T06:51:54.000Z</time>
      </trkpt>
      <trkpt lat="43.28096" lon="-1.23687">
        <ele>178.86888</ele>
        <time>2026-05-22T06:51:55.000Z</time>
      </trkpt>
      <trkpt lat="43.28091" lon="-1.23689">
        <ele>178.844806</ele>
        <time>2026-05-22T06:51:56.000Z</time>
      </trkpt>
      <trkpt lat="43.28086" lon="-1.2369">
        <ele>178.824769</ele>
        <time>2026-05-22T06:51:57.000Z</time>
      </trkpt>
      <trkpt lat="43.28083" lon="-1.23691">
        <ele>178.808387</ele>
        <time>2026-05-22T06:51:58.000Z</time>
      </trkpt>
      <trkpt lat="43.28081" lon="-1.23692">
        <ele>178.795484</ele>
        <time>2026-05-22T06:51:59.000Z</time>
      </trkpt>
      <trkpt lat="43.28078" lon="-1.23693">
        <ele>178.783589</ele>
        <time>2026-05-22T06:52:00.000Z</time>
      </trkpt>
      <trkpt lat="43.28076" lon="-1.23694">
        <ele>178.7738</ele>
        <time>2026-05-22T06:52:01.000Z</time>
      </trkpt>
      <trkpt lat="43.28074" lon="-1.23695">
        <ele>178.765152</ele>
        <time>2026-05-22T06:52:02.000Z</time>
      </trkpt>
      <trkpt lat="43.28073" lon="-1.23695">
        <ele>178.756971</ele>
        <time>2026-05-22T06:52:03.000Z</time>
      </trkpt>
      <trkpt lat="43.28071" lon="-1.23696">
        <ele>178.749562</ele>
        <time>2026-05-22T06:52:04.000Z</time>
      </trkpt>
      <trkpt lat="43.2807" lon="-1.23696">
        <ele>178.742701</ele>
        <time>2026-05-22T06:52:05.000Z</time>
      </trkpt>
      <trkpt lat="43.28068" lon="-1.23697">
        <ele>178.735745</ele>
        <time>2026-05-22T06:52:06.000Z</time>
      </trkpt>
      <trkpt lat="43.28067" lon="-1.23697">
        <ele>178.73025</ele>
        <time>2026-05-22T06:52:07.000Z</time>
      </trkpt>
      <trkpt lat="43.28066" lon="-1.23697">
        <ele>178.726316</ele>
        <time>2026-05-22T06:52:08.000Z</time>
      </trkpt>
      <trkpt lat="43.28066" lon="-1.23698">
        <ele>178.722838</ele>
        <time>2026-05-22T06:52:09.000Z</time>
      </trkpt>
      <trkpt lat="43.28065" lon="-1.23698">
        <ele>178.720251</ele>
        <time>2026-05-22T06:52:10.000Z</time>
      </trkpt>
      <trkpt lat="43.28062" lon="-1.237">
        <ele>178.701959</ele>
        <time>2026-05-22T06:52:25.000Z</time>
      </trkpt>
      <trkpt lat="43.2806" lon="-1.23701">
        <ele>178.691977</ele>
        <time>2026-05-22T06:52:26.000Z</time>
      </trkpt>
      <trkpt lat="43.28058" lon="-1.23702">
        <ele>178.681544</ele>
        <time>2026-05-22T06:52:27.000Z</time>
      </trkpt>
      <trkpt lat="43.28055" lon="-1.23703">
        <ele>178.669648</ele>
        <time>2026-05-22T06:52:28.000Z</time>
      </trkpt>
      <trkpt lat="43.28052" lon="-1.23704">
        <ele>178.655961</ele>
        <time>2026-05-22T06:52:29.000Z</time>
      </trkpt>
      <trkpt lat="43.28049" lon="-1.23705">
        <ele>178.640685</ele>
        <time>2026-05-22T06:52:30.000Z</time>
      </trkpt>
      <trkpt lat="43.28046" lon="-1.23706">
        <ele>178.626584</ele>
        <time>2026-05-22T06:52:31.000Z</time>
      </trkpt>
      <trkpt lat="43.28044" lon="-1.23707">
        <ele>178.612219</ele>
        <time>2026-05-22T06:52:32.000Z</time>
      </trkpt>
      <trkpt lat="43.28041" lon="-1.23709">
        <ele>178.597639</ele>
        <time>2026-05-22T06:52:33.000Z</time>
      </trkpt>
      <trkpt lat="43.28037" lon="-1.2371">
        <ele>178.581153</ele>
        <time>2026-05-22T06:52:34.000Z</time>
      </trkpt>
      <trkpt lat="43.28034" lon="-1.23712">
        <ele>178.565326</ele>
        <time>2026-05-22T06:52:35.000Z</time>
      </trkpt>
      <trkpt lat="43.28031" lon="-1.23713">
        <ele>178.549043</ele>
        <time>2026-05-22T06:52:36.000Z</time>
      </trkpt>
      <trkpt lat="43.28027" lon="-1.23714">
        <ele>178.532394</ele>
        <time>2026-05-22T06:52:37.000Z</time>
      </trkpt>
      <trkpt lat="43.28024" lon="-1.23716">
        <ele>178.515104</ele>
        <time>2026-05-22T06:52:38.000Z</time>
      </trkpt>
      <trkpt lat="43.2802" lon="-1.23717">
        <ele>178.496706</ele>
        <time>2026-05-22T06:52:39.000Z</time>
      </trkpt>
      <trkpt lat="43.28016" lon="-1.23719">
        <ele>178.476668</ele>
        <time>2026-05-22T06:52:40.000Z</time>
      </trkpt>
      <trkpt lat="43.28012" lon="-1.2372">
        <ele>178.455983</ele>
        <time>2026-05-22T06:52:41.000Z</time>
      </trkpt>
      <trkpt lat="43.28007" lon="-1.2372">
        <ele>178.434504</ele>
        <time>2026-05-22T06:52:42.000Z</time>
      </trkpt>
      <trkpt lat="43.28003" lon="-1.23721">
        <ele>178.412415</ele>
        <time>2026-05-22T06:52:43.000Z</time>
      </trkpt>
      <trkpt lat="43.27998" lon="-1.23722">
        <ele>178.388968</ele>
        <time>2026-05-22T06:52:44.000Z</time>
      </trkpt>
      <trkpt lat="43.27993" lon="-1.23723">
        <ele>178.365163</ele>
        <time>2026-05-22T06:52:45.000Z</time>
      </trkpt>
      <trkpt lat="43.27988" lon="-1.23723">
        <ele>178.339987</ele>
        <time>2026-05-22T06:52:46.000Z</time>
      </trkpt>
      <trkpt lat="43.27982" lon="-1.23723">
        <ele>178.313425</ele>
        <time>2026-05-22T06:52:47.000Z</time>
      </trkpt>
      <trkpt lat="43.27976" lon="-1.23723">
        <ele>178.286973</ele>
        <time>2026-05-22T06:52:48.000Z</time>
      </trkpt>
      <trkpt lat="43.2797" lon="-1.23722">
        <ele>178.259828</ele>
        <time>2026-05-22T06:52:49.000Z</time>
      </trkpt>
      <trkpt lat="43.27964" lon="-1.2372">
        <ele>178.232427</ele>
        <time>2026-05-22T06:52:50.000Z</time>
      </trkpt>
      <trkpt lat="43.27958" lon="-1.23718">
        <ele>178.204399</ele>
        <time>2026-05-22T06:52:51.000Z</time>
      </trkpt>
      <trkpt lat="43.27951" lon="-1.23716">
        <ele>178.175795</ele>
        <time>2026-05-22T06:52:52.000Z</time>
      </trkpt>
      <trkpt lat="43.27945" lon="-1.23714">
        <ele>178.14618</ele>
        <time>2026-05-22T06:52:53.000Z</time>
      </trkpt>
      <trkpt lat="43.27938" lon="-1.23712">
        <ele>178.116056</ele>
        <time>2026-05-22T06:52:54.000Z</time>
      </trkpt>
      <trkpt lat="43.27932" lon="-1.23709">
        <ele>178.085423</ele>
        <time>2026-05-22T06:52:55.000Z</time>
      </trkpt>
      <trkpt lat="43.27925" lon="-1.23707">
        <ele>178.05479</ele>
        <time>2026-05-22T06:52:56.000Z</time>
      </trkpt>
      <trkpt lat="43.27918" lon="-1.23704">
        <ele>178.023646</ele>
        <time>2026-05-22T06:52:57.000Z</time>
      </trkpt>
      <trkpt lat="43.27911" lon="-1.23701">
        <ele>177.992503</ele>
        <time>2026-05-22T06:52:58.000Z</time>
      </trkpt>
      <trkpt lat="43.27905" lon="-1.23699">
        <ele>177.961271</ele>
        <time>2026-05-22T06:52:59.000Z</time>
      </trkpt>
      <trkpt lat="43.27898" lon="-1.23696">
        <ele>177.929855</ele>
        <time>2026-05-22T06:53:00.000Z</time>
      </trkpt>
      <trkpt lat="43.27891" lon="-1.23693">
        <ele>177.898712</ele>
        <time>2026-05-22T06:53:01.000Z</time>
      </trkpt>
      <trkpt lat="43.27884" lon="-1.2369">
        <ele>177.867481</ele>
        <time>2026-05-22T06:53:02.000Z</time>
      </trkpt>
      <trkpt lat="43.27877" lon="-1.23688">
        <ele>177.836673</ele>
        <time>2026-05-22T06:53:03.000Z</time>
      </trkpt>
      <trkpt lat="43.27871" lon="-1.23685">
        <ele>177.806195</ele>
        <time>2026-05-22T06:53:04.000Z</time>
      </trkpt>
      <trkpt lat="43.27864" lon="-1.23682">
        <ele>177.776233</ele>
        <time>2026-05-22T06:53:05.000Z</time>
      </trkpt>
      <trkpt lat="43.27858" lon="-1.2368">
        <ele>177.746362</ele>
        <time>2026-05-22T06:53:06.000Z</time>
      </trkpt>
      <trkpt lat="43.27851" lon="-1.23677">
        <ele>177.717005</ele>
        <time>2026-05-22T06:53:07.000Z</time>
      </trkpt>
      <trkpt lat="43.27845" lon="-1.23675">
        <ele>177.687972</ele>
        <time>2026-05-22T06:53:08.000Z</time>
      </trkpt>
      <trkpt lat="43.27839" lon="-1.23673">
        <ele>177.659513</ele>
        <time>2026-05-22T06:53:09.000Z</time>
      </trkpt>
      <trkpt lat="43.27833" lon="-1.23671">
        <ele>177.632346</ele>
        <time>2026-05-22T06:53:10.000Z</time>
      </trkpt>
      <trkpt lat="43.27827" lon="-1.23669">
        <ele>177.606222</ele>
        <time>2026-05-22T06:53:11.000Z</time>
      </trkpt>
      <trkpt lat="43.27822" lon="-1.23667">
        <ele>177.581035</ele>
        <time>2026-05-22T06:53:12.000Z</time>
      </trkpt>
      <trkpt lat="43.27816" lon="-1.23665">
        <ele>177.556661</ele>
        <time>2026-05-22T06:53:13.000Z</time>
      </trkpt>
      <trkpt lat="43.27811" lon="-1.23664">
        <ele>177.532785</ele>
        <time>2026-05-22T06:53:14.000Z</time>
      </trkpt>
      <trkpt lat="43.27806" lon="-1.23662">
        <ele>177.509979</ele>
        <time>2026-05-22T06:53:15.000Z</time>
      </trkpt>
      <trkpt lat="43.27801" lon="-1.2366">
        <ele>177.609206</ele>
        <time>2026-05-22T06:53:16.000Z</time>
      </trkpt>
      <trkpt lat="43.27797" lon="-1.23659">
        <ele>177.713016</ele>
        <time>2026-05-22T06:53:17.000Z</time>
      </trkpt>
      <trkpt lat="43.27792" lon="-1.23657">
        <ele>177.813362</ele>
        <time>2026-05-22T06:53:18.000Z</time>
      </trkpt>
      <trkpt lat="43.27788" lon="-1.23655">
        <ele>177.909363</ele>
        <time>2026-05-22T06:53:19.000Z</time>
      </trkpt>
      <trkpt lat="43.27785" lon="-1.23653">
        <ele>178.002684</ele>
        <time>2026-05-22T06:53:20.000Z</time>
      </trkpt>
      <trkpt lat="43.27781" lon="-1.23652">
        <ele>178.095413</ele>
        <time>2026-05-22T06:53:21.000Z</time>
      </trkpt>
      <trkpt lat="43.27777" lon="-1.23651">
        <ele>178.188453</ele>
        <time>2026-05-22T06:53:22.000Z</time>
      </trkpt>
      <trkpt lat="43.27773" lon="-1.2365">
        <ele>178.275558</ele>
        <time>2026-05-22T06:53:23.000Z</time>
      </trkpt>
      <trkpt lat="43.27769" lon="-1.23649">
        <ele>178.356513</ele>
        <time>2026-05-22T06:53:24.000Z</time>
      </trkpt>
      <trkpt lat="43.27766" lon="-1.23647">
        <ele>178.44389</ele>
        <time>2026-05-22T06:53:25.000Z</time>
      </trkpt>
      <trkpt lat="43.27762" lon="-1.23645">
        <ele>178.531877</ele>
        <time>2026-05-22T06:53:26.000Z</time>
      </trkpt>
      <trkpt lat="43.27759" lon="-1.23644">
        <ele>178.615499</ele>
        <time>2026-05-22T06:53:27.000Z</time>
      </trkpt>
      <trkpt lat="43.27755" lon="-1.23642">
        <ele>178.698641</ele>
        <time>2026-05-22T06:53:28.000Z</time>
      </trkpt>
      <trkpt lat="43.27751" lon="-1.23641">
        <ele>178.790873</ele>
        <time>2026-05-22T06:53:29.000Z</time>
      </trkpt>
      <trkpt lat="43.27748" lon="-1.23639">
        <ele>178.87459</ele>
        <time>2026-05-22T06:53:30.000Z</time>
      </trkpt>
      <trkpt lat="43.27744" lon="-1.23637">
        <ele>178.963159</ele>
        <time>2026-05-22T06:53:31.000Z</time>
      </trkpt>
      <trkpt lat="43.2774" lon="-1.23635">
        <ele>179.058106</ele>
        <time>2026-05-22T06:53:32.000Z</time>
      </trkpt>
      <trkpt lat="43.27737" lon="-1.23633">
        <ele>179.144929</ele>
        <time>2026-05-22T06:53:33.000Z</time>
      </trkpt>
      <trkpt lat="43.27733" lon="-1.23631">
        <ele>179.234134</ele>
        <time>2026-05-22T06:53:34.000Z</time>
      </trkpt>
      <trkpt lat="43.2773" lon="-1.23629">
        <ele>179.320574</ele>
        <time>2026-05-22T06:53:35.000Z</time>
      </trkpt>
      <trkpt lat="43.27727" lon="-1.23626">
        <ele>179.404235</ele>
        <time>2026-05-22T06:53:36.000Z</time>
      </trkpt>
      <trkpt lat="43.27723" lon="-1.23624">
        <ele>179.490675</ele>
        <time>2026-05-22T06:53:37.000Z</time>
      </trkpt>
      <trkpt lat="43.2772" lon="-1.23622">
        <ele>179.576394</ele>
        <time>2026-05-22T06:53:38.000Z</time>
      </trkpt>
      <trkpt lat="43.27716" lon="-1.2362">
        <ele>179.662853</ele>
        <time>2026-05-22T06:53:39.000Z</time>
      </trkpt>
      <trkpt lat="43.27713" lon="-1.23618">
        <ele>179.750641</ele>
        <time>2026-05-22T06:53:40.000Z</time>
      </trkpt>
      <trkpt lat="43.27709" lon="-1.23615">
        <ele>179.837081</ele>
        <time>2026-05-22T06:53:41.000Z</time>
      </trkpt>
      <trkpt lat="43.27706" lon="-1.23613">
        <ele>179.920031</ele>
        <time>2026-05-22T06:53:42.000Z</time>
      </trkpt>
      <trkpt lat="43.27703" lon="-1.23611">
        <ele>180.006489</ele>
        <time>2026-05-22T06:53:43.000Z</time>
      </trkpt>
      <trkpt lat="43.27699" lon="-1.23609">
        <ele>180.092324</ele>
        <time>2026-05-22T06:53:44.000Z</time>
      </trkpt>
      <trkpt lat="43.27696" lon="-1.23607">
        <ele>180.175274</ele>
        <time>2026-05-22T06:53:45.000Z</time>
      </trkpt>
      <trkpt lat="43.27692" lon="-1.23605">
        <ele>180.258224</ele>
        <time>2026-05-22T06:53:46.000Z</time>
      </trkpt>
      <trkpt lat="43.27689" lon="-1.23603">
        <ele>180.347445</ele>
        <time>2026-05-22T06:53:47.000Z</time>
      </trkpt>
      <trkpt lat="43.27685" lon="-1.236">
        <ele>180.440211</ele>
        <time>2026-05-22T06:53:48.000Z</time>
      </trkpt>
      <trkpt lat="43.27682" lon="-1.23598">
        <ele>180.534921</ele>
        <time>2026-05-22T06:53:49.000Z</time>
      </trkpt>
      <trkpt lat="43.27678" lon="-1.23596">
        <ele>180.633193</ele>
        <time>2026-05-22T06:53:50.000Z</time>
      </trkpt>
      <trkpt lat="43.27673" lon="-1.23594">
        <ele>180.735133</ele>
        <time>2026-05-22T06:53:51.000Z</time>
      </trkpt>
      <trkpt lat="43.27669" lon="-1.23591">
        <ele>180.842508</ele>
        <time>2026-05-22T06:53:52.000Z</time>
      </trkpt>
      <trkpt lat="43.27665" lon="-1.23589">
        <ele>180.947754</ele>
        <time>2026-05-22T06:53:53.000Z</time>
      </trkpt>
      <trkpt lat="43.2766" lon="-1.23587">
        <ele>181.053459</ele>
        <time>2026-05-22T06:53:54.000Z</time>
      </trkpt>
      <trkpt lat="43.27656" lon="-1.23585">
        <ele>181.162548</ele>
        <time>2026-05-22T06:53:55.000Z</time>
      </trkpt>
      <trkpt lat="43.27651" lon="-1.23584">
        <ele>181.265946</ele>
        <time>2026-05-22T06:53:56.000Z</time>
      </trkpt>
      <trkpt lat="43.27647" lon="-1.23582">
        <ele>181.371179</ele>
        <time>2026-05-22T06:53:57.000Z</time>
      </trkpt>
      <trkpt lat="43.27642" lon="-1.23581">
        <ele>181.478291</ele>
        <time>2026-05-22T06:53:58.000Z</time>
      </trkpt>
      <trkpt lat="43.27637" lon="-1.2358">
        <ele>181.589566</ele>
        <time>2026-05-22T06:53:59.000Z</time>
      </trkpt>
      <trkpt lat="43.27632" lon="-1.23578">
        <ele>181.4658</ele>
        <time>2026-05-22T06:54:00.000Z</time>
      </trkpt>
      <trkpt lat="43.27627" lon="-1.23577">
        <ele>181.294835</ele>
        <time>2026-05-22T06:54:01.000Z</time>
      </trkpt>
      <trkpt lat="43.27622" lon="-1.23576">
        <ele>181.113957</ele>
        <time>2026-05-22T06:54:02.000Z</time>
      </trkpt>
      <trkpt lat="43.27616" lon="-1.23574">
        <ele>180.922274</ele>
        <time>2026-05-22T06:54:03.000Z</time>
      </trkpt>
      <trkpt lat="43.2761" lon="-1.23573">
        <ele>180.719224</ele>
        <time>2026-05-22T06:54:04.000Z</time>
      </trkpt>
      <trkpt lat="43.27604" lon="-1.2357">
        <ele>180.500834</ele>
        <time>2026-05-22T06:54:05.000Z</time>
      </trkpt>
      <trkpt lat="43.27598" lon="-1.23567">
        <ele>180.271226</ele>
        <time>2026-05-22T06:54:06.000Z</time>
      </trkpt>
      <trkpt lat="43.27591" lon="-1.23564">
        <ele>180.03755</ele>
        <time>2026-05-22T06:54:07.000Z</time>
      </trkpt>
      <trkpt lat="43.27584" lon="-1.2356">
        <ele>179.793075</ele>
        <time>2026-05-22T06:54:08.000Z</time>
      </trkpt>
      <trkpt lat="43.27577" lon="-1.23556">
        <ele>179.535452</ele>
        <time>2026-05-22T06:54:09.000Z</time>
      </trkpt>
      <trkpt lat="43.2757" lon="-1.23551">
        <ele>179.267629</ele>
        <time>2026-05-22T06:54:10.000Z</time>
      </trkpt>
      <trkpt lat="43.27563" lon="-1.23546">
        <ele>178.989474</ele>
        <time>2026-05-22T06:54:11.000Z</time>
      </trkpt>
      <trkpt lat="43.27555" lon="-1.23541">
        <ele>178.706108</ele>
        <time>2026-05-22T06:54:12.000Z</time>
      </trkpt>
      <trkpt lat="43.27548" lon="-1.23535">
        <ele>178.417502</ele>
        <time>2026-05-22T06:54:13.000Z</time>
      </trkpt>
      <trkpt lat="43.2754" lon="-1.2353">
        <ele>178.122935</ele>
        <time>2026-05-22T06:54:14.000Z</time>
      </trkpt>
      <trkpt lat="43.27532" lon="-1.23524">
        <ele>177.826473</ele>
        <time>2026-05-22T06:54:15.000Z</time>
      </trkpt>
      <trkpt lat="43.27524" lon="-1.23518">
        <ele>177.523187</ele>
        <time>2026-05-22T06:54:16.000Z</time>
      </trkpt>
      <trkpt lat="43.27516" lon="-1.23513">
        <ele>177.219271</ele>
        <time>2026-05-22T06:54:17.000Z</time>
      </trkpt>
      <trkpt lat="43.27508" lon="-1.23507">
        <ele>176.91461</ele>
        <time>2026-05-22T06:54:18.000Z</time>
      </trkpt>
      <trkpt lat="43.275" lon="-1.23501">
        <ele>176.613057</ele>
        <time>2026-05-22T06:54:19.000Z</time>
      </trkpt>
      <trkpt lat="43.27492" lon="-1.23494">
        <ele>176.303667</ele>
        <time>2026-05-22T06:54:20.000Z</time>
      </trkpt>
      <trkpt lat="43.27485" lon="-1.23488">
        <ele>176.003087</ele>
        <time>2026-05-22T06:54:21.000Z</time>
      </trkpt>
      <trkpt lat="43.27478" lon="-1.23481">
        <ele>175.705305</ele>
        <time>2026-05-22T06:54:22.000Z</time>
      </trkpt>
      <trkpt lat="43.27471" lon="-1.23473">
        <ele>175.571791</ele>
        <time>2026-05-22T06:54:23.000Z</time>
      </trkpt>
      <trkpt lat="43.27464" lon="-1.23464">
        <ele>175.579754</ele>
        <time>2026-05-22T06:54:24.000Z</time>
      </trkpt>
      <trkpt lat="43.27459" lon="-1.23456">
        <ele>175.587527</ele>
        <time>2026-05-22T06:54:25.000Z</time>
      </trkpt>
      <trkpt lat="43.27453" lon="-1.23447">
        <ele>175.595158</ele>
        <time>2026-05-22T06:54:26.000Z</time>
      </trkpt>
      <trkpt lat="43.27449" lon="-1.23437">
        <ele>175.602626</ele>
        <time>2026-05-22T06:54:27.000Z</time>
      </trkpt>
      <trkpt lat="43.27444" lon="-1.23428">
        <ele>175.610259</ele>
        <time>2026-05-22T06:54:28.000Z</time>
      </trkpt>
      <trkpt lat="43.27439" lon="-1.23418">
        <ele>175.617942</ele>
        <time>2026-05-22T06:54:29.000Z</time>
      </trkpt>
      <trkpt lat="43.27434" lon="-1.23409">
        <ele>175.625514</ele>
        <time>2026-05-22T06:54:30.000Z</time>
      </trkpt>
      <trkpt lat="43.27429" lon="-1.234">
        <ele>175.633166</ele>
        <time>2026-05-22T06:54:31.000Z</time>
      </trkpt>
      <trkpt lat="43.27423" lon="-1.23393">
        <ele>175.640679</ele>
        <time>2026-05-22T06:54:32.000Z</time>
      </trkpt>
      <trkpt lat="43.27416" lon="-1.23386">
        <ele>175.648093</ele>
        <time>2026-05-22T06:54:33.000Z</time>
      </trkpt>
      <trkpt lat="43.2741" lon="-1.2338">
        <ele>175.655127</ele>
        <time>2026-05-22T06:54:34.000Z</time>
      </trkpt>
      <trkpt lat="43.27404" lon="-1.23375">
        <ele>175.661902</ele>
        <time>2026-05-22T06:54:35.000Z</time>
      </trkpt>
      <trkpt lat="43.27397" lon="-1.2337">
        <ele>175.668416</ele>
        <time>2026-05-22T06:54:36.000Z</time>
      </trkpt>
      <trkpt lat="43.27392" lon="-1.23365">
        <ele>175.674473</ele>
        <time>2026-05-22T06:54:37.000Z</time>
      </trkpt>
      <trkpt lat="43.27386" lon="-1.2336">
        <ele>175.680235</ele>
        <time>2026-05-22T06:54:38.000Z</time>
      </trkpt>
      <trkpt lat="43.27381" lon="-1.23356">
        <ele>175.685801</ele>
        <time>2026-05-22T06:54:39.000Z</time>
      </trkpt>
      <trkpt lat="43.27376" lon="-1.23352">
        <ele>175.691429</ele>
        <time>2026-05-22T06:54:40.000Z</time>
      </trkpt>
      <trkpt lat="43.27371" lon="-1.23348">
        <ele>175.69682</ele>
        <time>2026-05-22T06:54:41.000Z</time>
      </trkpt>
      <trkpt lat="43.27366" lon="-1.23344">
        <ele>175.702177</ele>
        <time>2026-05-22T06:54:42.000Z</time>
      </trkpt>
      <trkpt lat="43.27361" lon="-1.2334">
        <ele>175.707568</ele>
        <time>2026-05-22T06:54:43.000Z</time>
      </trkpt>
      <trkpt lat="43.27356" lon="-1.23335">
        <ele>175.71276</ele>
        <time>2026-05-22T06:54:44.000Z</time>
      </trkpt>
      <trkpt lat="43.27351" lon="-1.23331">
        <ele>175.717987</ele>
        <time>2026-05-22T06:54:45.000Z</time>
      </trkpt>
      <trkpt lat="43.27346" lon="-1.23327">
        <ele>175.723215</ele>
        <time>2026-05-22T06:54:46.000Z</time>
      </trkpt>
      <trkpt lat="43.27341" lon="-1.23323">
        <ele>175.728562</ele>
        <time>2026-05-22T06:54:47.000Z</time>
      </trkpt>
      <trkpt lat="43.27336" lon="-1.23318">
        <ele>175.799081</ele>
        <time>2026-05-22T06:54:48.000Z</time>
      </trkpt>
      <trkpt lat="43.27332" lon="-1.23314">
        <ele>175.931861</ele>
        <time>2026-05-22T06:54:49.000Z</time>
      </trkpt>
      <trkpt lat="43.27327" lon="-1.2331">
        <ele>176.065543</ele>
        <time>2026-05-22T06:54:50.000Z</time>
      </trkpt>
      <trkpt lat="43.27322" lon="-1.23306">
        <ele>176.199224</ele>
        <time>2026-05-22T06:54:51.000Z</time>
      </trkpt>
      <trkpt lat="43.27318" lon="-1.23301">
        <ele>176.331921</ele>
        <time>2026-05-22T06:54:52.000Z</time>
      </trkpt>
      <trkpt lat="43.27313" lon="-1.23297">
        <ele>176.459934</ele>
        <time>2026-05-22T06:54:53.000Z</time>
      </trkpt>
      <trkpt lat="43.27308" lon="-1.23294">
        <ele>176.587433</ele>
        <time>2026-05-22T06:54:54.000Z</time>
      </trkpt>
      <trkpt lat="43.27304" lon="-1.23291">
        <ele>176.710401</ele>
        <time>2026-05-22T06:54:55.000Z</time>
      </trkpt>
      <trkpt lat="43.27299" lon="-1.23288">
        <ele>176.829026</ele>
        <time>2026-05-22T06:54:56.000Z</time>
      </trkpt>
      <trkpt lat="43.27295" lon="-1.23286">
        <ele>176.944788</ele>
        <time>2026-05-22T06:54:57.000Z</time>
      </trkpt>
      <trkpt lat="43.2729" lon="-1.23284">
        <ele>177.064408</ele>
        <time>2026-05-22T06:54:58.000Z</time>
      </trkpt>
      <trkpt lat="43.27285" lon="-1.23282">
        <ele>177.178961</ele>
        <time>2026-05-22T06:54:59.000Z</time>
      </trkpt>
      <trkpt lat="43.27281" lon="-1.2328">
        <ele>177.288954</ele>
        <time>2026-05-22T06:55:00.000Z</time>
      </trkpt>
      <trkpt lat="43.27277" lon="-1.23278">
        <ele>177.39844</ele>
        <time>2026-05-22T06:55:01.000Z</time>
      </trkpt>
      <trkpt lat="43.27272" lon="-1.23276">
        <ele>177.502859</ele>
        <time>2026-05-22T06:55:02.000Z</time>
      </trkpt>
      <trkpt lat="43.27268" lon="-1.23275">
        <ele>177.607278</ele>
        <time>2026-05-22T06:55:03.000Z</time>
      </trkpt>
      <trkpt lat="43.27264" lon="-1.23273">
        <ele>177.709928</ele>
        <time>2026-05-22T06:55:04.000Z</time>
      </trkpt>
      <trkpt lat="43.2726" lon="-1.23271">
        <ele>177.809781</ele>
        <time>2026-05-22T06:55:05.000Z</time>
      </trkpt>
      <trkpt lat="43.27256" lon="-1.23269">
        <ele>177.910161</ele>
        <time>2026-05-22T06:55:06.000Z</time>
      </trkpt>
      <trkpt lat="43.27252" lon="-1.23267">
        <ele>178.011096</ele>
        <time>2026-05-22T06:55:07.000Z</time>
      </trkpt>
      <trkpt lat="43.27248" lon="-1.23265">
        <ele>178.113851</ele>
        <time>2026-05-22T06:55:08.000Z</time>
      </trkpt>
      <trkpt lat="43.27244" lon="-1.23263">
        <ele>178.217234</ele>
        <time>2026-05-22T06:55:09.000Z</time>
      </trkpt>
      <trkpt lat="43.2724" lon="-1.2326">
        <ele>178.319264</ele>
        <time>2026-05-22T06:55:10.000Z</time>
      </trkpt>
      <trkpt lat="43.27237" lon="-1.23257">
        <ele>178.420508</ele>
        <time>2026-05-22T06:55:11.000Z</time>
      </trkpt>
      <trkpt lat="43.27233" lon="-1.23255">
        <ele>178.51809</ele>
        <time>2026-05-22T06:55:12.000Z</time>
      </trkpt>
      <trkpt lat="43.27229" lon="-1.23252">
        <ele>178.618834</ele>
        <time>2026-05-22T06:55:13.000Z</time>
      </trkpt>
      <trkpt lat="43.27225" lon="-1.23249">
        <ele>178.726051</ele>
        <time>2026-05-22T06:55:14.000Z</time>
      </trkpt>
      <trkpt lat="43.27222" lon="-1.23246">
        <ele>178.828516</ele>
        <time>2026-05-22T06:55:15.000Z</time>
      </trkpt>
      <trkpt lat="43.27218" lon="-1.23243">
        <ele>178.92102</ele>
        <time>2026-05-22T06:55:16.000Z</time>
      </trkpt>
      <trkpt lat="43.27215" lon="-1.2324">
        <ele>179.023283</ele>
        <time>2026-05-22T06:55:17.000Z</time>
      </trkpt>
      <trkpt lat="43.27211" lon="-1.23237">
        <ele>179.120606</ele>
        <time>2026-05-22T06:55:18.000Z</time>
      </trkpt>
      <trkpt lat="43.27208" lon="-1.23234">
        <ele>179.22135</ele>
        <time>2026-05-22T06:55:19.000Z</time>
      </trkpt>
      <trkpt lat="43.27204" lon="-1.23231">
        <ele>179.321769</ele>
        <time>2026-05-22T06:55:20.000Z</time>
      </trkpt>
      <trkpt lat="43.27201" lon="-1.23228">
        <ele>179.420149</ele>
        <time>2026-05-22T06:55:21.000Z</time>
      </trkpt>
      <trkpt lat="43.27197" lon="-1.23225">
        <ele>179.513577</ele>
        <time>2026-05-22T06:55:22.000Z</time>
      </trkpt>
      <trkpt lat="43.27194" lon="-1.23222">
        <ele>179.605973</ele>
        <time>2026-05-22T06:55:23.000Z</time>
      </trkpt>
      <trkpt lat="43.27191" lon="-1.23219">
        <ele>179.706718</ele>
        <time>2026-05-22T06:55:24.000Z</time>
      </trkpt>
      <trkpt lat="43.27187" lon="-1.23216">
        <ele>179.807462</ele>
        <time>2026-05-22T06:55:25.000Z</time>
      </trkpt>
      <trkpt lat="43.27183" lon="-1.23213">
        <ele>179.909927</ele>
        <time>2026-05-22T06:55:26.000Z</time>
      </trkpt>
      <trkpt lat="43.27179" lon="-1.2321">
        <ele>180.013599</ele>
        <time>2026-05-22T06:55:27.000Z</time>
      </trkpt>
      <trkpt lat="43.27176" lon="-1.23207">
        <ele>179.950223</ele>
        <time>2026-05-22T06:55:28.000Z</time>
      </trkpt>
      <trkpt lat="43.27172" lon="-1.23204">
        <ele>179.867604</ele>
        <time>2026-05-22T06:55:29.000Z</time>
      </trkpt>
      <trkpt lat="43.27168" lon="-1.232">
        <ele>179.785771</ele>
        <time>2026-05-22T06:55:30.000Z</time>
      </trkpt>
      <trkpt lat="43.27165" lon="-1.23196">
        <ele>179.700063</ele>
        <time>2026-05-22T06:55:31.000Z</time>
      </trkpt>
      <trkpt lat="43.27161" lon="-1.23192">
        <ele>179.61724</ele>
        <time>2026-05-22T06:55:32.000Z</time>
      </trkpt>
      <trkpt lat="43.27158" lon="-1.23188">
        <ele>179.533567</ele>
        <time>2026-05-22T06:55:33.000Z</time>
      </trkpt>
      <trkpt lat="43.27154" lon="-1.23184">
        <ele>179.447721</ele>
        <time>2026-05-22T06:55:34.000Z</time>
      </trkpt>
      <trkpt lat="43.27151" lon="-1.2318">
        <ele>179.364129</ele>
        <time>2026-05-22T06:55:35.000Z</time>
      </trkpt>
      <trkpt lat="43.27148" lon="-1.23175">
        <ele>179.278673</ele>
        <time>2026-05-22T06:55:36.000Z</time>
      </trkpt>
      <trkpt lat="43.27144" lon="-1.23171">
        <ele>179.19097</ele>
        <time>2026-05-22T06:55:37.000Z</time>
      </trkpt>
      <trkpt lat="43.27141" lon="-1.23166">
        <ele>179.101368</ele>
        <time>2026-05-22T06:55:38.000Z</time>
      </trkpt>
      <trkpt lat="43.27137" lon="-1.23161">
        <ele>179.009525</ele>
        <time>2026-05-22T06:55:39.000Z</time>
      </trkpt>
      <trkpt lat="43.27134" lon="-1.23156">
        <ele>178.916723</ele>
        <time>2026-05-22T06:55:40.000Z</time>
      </trkpt>
      <trkpt lat="43.2713" lon="-1.2315">
        <ele>178.817976</ele>
        <time>2026-05-22T06:55:41.000Z</time>
      </trkpt>
      <trkpt lat="43.27127" lon="-1.23145">
        <ele>178.718022</ele>
        <time>2026-05-22T06:55:42.000Z</time>
      </trkpt>
      <trkpt lat="43.27123" lon="-1.23139">
        <ele>178.620462</ele>
        <time>2026-05-22T06:55:43.000Z</time>
      </trkpt>
      <trkpt lat="43.2712" lon="-1.23133">
        <ele>178.516275</ele>
        <time>2026-05-22T06:55:44.000Z</time>
      </trkpt>
      <trkpt lat="43.27116" lon="-1.23127">
        <ele>178.41064</ele>
        <time>2026-05-22T06:55:45.000Z</time>
      </trkpt>
      <trkpt lat="43.27112" lon="-1.23122">
        <ele>178.305245</ele>
        <time>2026-05-22T06:55:46.000Z</time>
      </trkpt>
      <trkpt lat="43.27108" lon="-1.23115">
        <ele>178.194407</ele>
        <time>2026-05-22T06:55:47.000Z</time>
      </trkpt>
      <trkpt lat="43.27104" lon="-1.23109">
        <ele>178.079126</ele>
        <time>2026-05-22T06:55:48.000Z</time>
      </trkpt>
      <trkpt lat="43.271" lon="-1.23102">
        <ele>177.961843</ele>
        <time>2026-05-22T06:55:49.000Z</time>
      </trkpt>
      <trkpt lat="43.27095" lon="-1.23095">
        <ele>177.839443</ele>
        <time>2026-05-22T06:55:50.000Z</time>
      </trkpt>
      <trkpt lat="43.27091" lon="-1.23088">
        <ele>177.714501</ele>
        <time>2026-05-22T06:55:51.000Z</time>
      </trkpt>
      <trkpt lat="43.27086" lon="-1.23081">
        <ele>177.585326</ele>
        <time>2026-05-22T06:55:52.000Z</time>
      </trkpt>
      <trkpt lat="43.27082" lon="-1.23074">
        <ele>177.454942</ele>
        <time>2026-05-22T06:55:53.000Z</time>
      </trkpt>
      <trkpt lat="43.27077" lon="-1.23066">
        <ele>177.322541</ele>
        <time>2026-05-22T06:55:54.000Z</time>
      </trkpt>
      <trkpt lat="43.27072" lon="-1.23058">
        <ele>177.187195</ele>
        <time>2026-05-22T06:55:55.000Z</time>
      </trkpt>
      <trkpt lat="43.27068" lon="-1.2305">
        <ele>177.049654</ele>
        <time>2026-05-22T06:55:56.000Z</time>
      </trkpt>
      <trkpt lat="43.27063" lon="-1.23042">
        <ele>176.908586</ele>
        <time>2026-05-22T06:55:57.000Z</time>
      </trkpt>
      <trkpt lat="43.27058" lon="-1.23034">
        <ele>176.76327</ele>
        <time>2026-05-22T06:55:58.000Z</time>
      </trkpt>
      <trkpt lat="43.27052" lon="-1.23026">
        <ele>176.783313</ele>
        <time>2026-05-22T06:55:59.000Z</time>
      </trkpt>
      <trkpt lat="43.27047" lon="-1.23017">
        <ele>176.888566</ele>
        <time>2026-05-22T06:56:00.000Z</time>
      </trkpt>
      <trkpt lat="43.27041" lon="-1.23009">
        <ele>176.991453</ele>
        <time>2026-05-22T06:56:01.000Z</time>
      </trkpt>
      <trkpt lat="43.27035" lon="-1.23002">
        <ele>177.09497</ele>
        <time>2026-05-22T06:56:02.000Z</time>
      </trkpt>
      <trkpt lat="43.27028" lon="-1.22995">
        <ele>177.196112</ele>
        <time>2026-05-22T06:56:03.000Z</time>
      </trkpt>
      <trkpt lat="43.27022" lon="-1.22988">
        <ele>177.300169</ele>
        <time>2026-05-22T06:56:04.000Z</time>
      </trkpt>
      <trkpt lat="43.27015" lon="-1.22981">
        <ele>177.405559</ele>
        <time>2026-05-22T06:56:05.000Z</time>
      </trkpt>
      <trkpt lat="43.27008" lon="-1.22974">
        <ele>177.51092</ele>
        <time>2026-05-22T06:56:06.000Z</time>
      </trkpt>
      <trkpt lat="43.27001" lon="-1.22968">
        <ele>177.613184</ele>
        <time>2026-05-22T06:56:07.000Z</time>
      </trkpt>
      <trkpt lat="43.26994" lon="-1.22963">
        <ele>177.713141</ele>
        <time>2026-05-22T06:56:08.000Z</time>
      </trkpt>
      <trkpt lat="43.26987" lon="-1.22958">
        <ele>177.810888</ele>
        <time>2026-05-22T06:56:09.000Z</time>
      </trkpt>
      <trkpt lat="43.2698" lon="-1.22954">
        <ele>177.909704</ele>
        <time>2026-05-22T06:56:10.000Z</time>
      </trkpt>
      <trkpt lat="43.26973" lon="-1.2295">
        <ele>178.00985</ele>
        <time>2026-05-22T06:56:11.000Z</time>
      </trkpt>
      <trkpt lat="43.26965" lon="-1.22947">
        <ele>178.107723</ele>
        <time>2026-05-22T06:56:12.000Z</time>
      </trkpt>
      <trkpt lat="43.26958" lon="-1.22945">
        <ele>178.198119</ele>
        <time>2026-05-22T06:56:13.000Z</time>
      </trkpt>
      <trkpt lat="43.26951" lon="-1.22943">
        <ele>178.283655</ele>
        <time>2026-05-22T06:56:14.000Z</time>
      </trkpt>
      <trkpt lat="43.26945" lon="-1.22941">
        <ele>178.363246</ele>
        <time>2026-05-22T06:56:15.000Z</time>
      </trkpt>
      <trkpt lat="43.2694" lon="-1.22939">
        <ele>178.430218</ele>
        <time>2026-05-22T06:56:16.000Z</time>
      </trkpt>
      <trkpt lat="43.26935" lon="-1.22938">
        <ele>178.487652</ele>
        <time>2026-05-22T06:56:17.000Z</time>
      </trkpt>
      <trkpt lat="43.26932" lon="-1.22937">
        <ele>178.537935</ele>
        <time>2026-05-22T06:56:18.000Z</time>
      </trkpt>
      <trkpt lat="43.26928" lon="-1.22935">
        <ele>178.583269</ele>
        <time>2026-05-22T06:56:19.000Z</time>
      </trkpt>
      <trkpt lat="43.26925" lon="-1.22934">
        <ele>178.626283</ele>
        <time>2026-05-22T06:56:20.000Z</time>
      </trkpt>
      <trkpt lat="43.26922" lon="-1.22933">
        <ele>178.667208</ele>
        <time>2026-05-22T06:56:21.000Z</time>
      </trkpt>
      <trkpt lat="43.26919" lon="-1.22932">
        <ele>178.707819</ele>
        <time>2026-05-22T06:56:22.000Z</time>
      </trkpt>
      <trkpt lat="43.26916" lon="-1.2293">
        <ele>178.745767</ele>
        <time>2026-05-22T06:56:23.000Z</time>
      </trkpt>
      <trkpt lat="43.26913" lon="-1.2293">
        <ele>178.777564</ele>
        <time>2026-05-22T06:56:24.000Z</time>
      </trkpt>
      <trkpt lat="43.26911" lon="-1.22929">
        <ele>178.80708</ele>
        <time>2026-05-22T06:56:25.000Z</time>
      </trkpt>
      <trkpt lat="43.26908" lon="-1.22928">
        <ele>178.840573</ele>
        <time>2026-05-22T06:56:26.000Z</time>
      </trkpt>
      <trkpt lat="43.26906" lon="-1.22927">
        <ele>178.873769</ele>
        <time>2026-05-22T06:56:27.000Z</time>
      </trkpt>
      <trkpt lat="43.26903" lon="-1.22926">
        <ele>178.90666</ele>
        <time>2026-05-22T06:56:28.000Z</time>
      </trkpt>
      <trkpt lat="43.26901" lon="-1.22925">
        <ele>178.937831</ele>
        <time>2026-05-22T06:56:29.000Z</time>
      </trkpt>
      <trkpt lat="43.26898" lon="-1.22924">
        <ele>178.9727</ele>
        <time>2026-05-22T06:56:30.000Z</time>
      </trkpt>
      <trkpt lat="43.26896" lon="-1.22923">
        <ele>179.160012</ele>
        <time>2026-05-22T06:56:31.000Z</time>
      </trkpt>
      <trkpt lat="43.26894" lon="-1.22922">
        <ele>179.330707</ele>
        <time>2026-05-22T06:56:32.000Z</time>
      </trkpt>
      <trkpt lat="43.26892" lon="-1.2292">
        <ele>179.513276</ele>
        <time>2026-05-22T06:56:33.000Z</time>
      </trkpt>
      <trkpt lat="43.2689" lon="-1.22919">
        <ele>179.700587</ele>
        <time>2026-05-22T06:56:34.000Z</time>
      </trkpt>
      <trkpt lat="43.26888" lon="-1.22918">
        <ele>179.893013</ele>
        <time>2026-05-22T06:56:35.000Z</time>
      </trkpt>
      <trkpt lat="43.26885" lon="-1.22916">
        <ele>180.092768</ele>
        <time>2026-05-22T06:56:36.000Z</time>
      </trkpt>
      <trkpt lat="43.26883" lon="-1.22915">
        <ele>180.268549</ele>
        <time>2026-05-22T06:56:37.000Z</time>
      </trkpt>
      <trkpt lat="43.26881" lon="-1.22914">
        <ele>180.4406</ele>
        <time>2026-05-22T06:56:38.000Z</time>
      </trkpt>
      <trkpt lat="43.26879" lon="-1.22913">
        <ele>180.625735</ele>
        <time>2026-05-22T06:56:39.000Z</time>
      </trkpt>
      <trkpt lat="43.26877" lon="-1.22912">
        <ele>180.816213</ele>
        <time>2026-05-22T06:56:40.000Z</time>
      </trkpt>
      <trkpt lat="43.26874" lon="-1.22911">
        <ele>180.999322</ele>
        <time>2026-05-22T06:56:41.000Z</time>
      </trkpt>
      <trkpt lat="43.26872" lon="-1.2291">
        <ele>181.196081</ele>
        <time>2026-05-22T06:56:42.000Z</time>
      </trkpt>
      <trkpt lat="43.2687" lon="-1.22908">
        <ele>181.395215</ele>
        <time>2026-05-22T06:56:43.000Z</time>
      </trkpt>
      <trkpt lat="43.26867" lon="-1.22907">
        <ele>181.603864</ele>
        <time>2026-05-22T06:56:44.000Z</time>
      </trkpt>
      <trkpt lat="43.26865" lon="-1.22905">
        <ele>181.795963</ele>
        <time>2026-05-22T06:56:45.000Z</time>
      </trkpt>
      <trkpt lat="43.26863" lon="-1.22904">
        <ele>182.005033</ele>
        <time>2026-05-22T06:56:46.000Z</time>
      </trkpt>
      <trkpt lat="43.2686" lon="-1.22903">
        <ele>182.216202</ele>
        <time>2026-05-22T06:56:47.000Z</time>
      </trkpt>
      <trkpt lat="43.26858" lon="-1.22902">
        <ele>182.410776</ele>
        <time>2026-05-22T06:56:48.000Z</time>
      </trkpt>
      <trkpt lat="43.26855" lon="-1.22901">
        <ele>182.599457</ele>
        <time>2026-05-22T06:56:49.000Z</time>
      </trkpt>
      <trkpt lat="43.26853" lon="-1.229">
        <ele>182.801232</ele>
        <time>2026-05-22T06:56:50.000Z</time>
      </trkpt>
      <trkpt lat="43.26851" lon="-1.22898">
        <ele>183.003007</ele>
        <time>2026-05-22T06:56:51.000Z</time>
      </trkpt>
      <trkpt lat="43.26848" lon="-1.22897">
        <ele>183.193485</ele>
        <time>2026-05-22T06:56:52.000Z</time>
      </trkpt>
      <trkpt lat="43.26846" lon="-1.22897">
        <ele>183.381533</ele>
        <time>2026-05-22T06:56:53.000Z</time>
      </trkpt>
      <trkpt lat="43.26844" lon="-1.22896">
        <ele>183.564642</ele>
        <time>2026-05-22T06:56:54.000Z</time>
      </trkpt>
      <trkpt lat="43.26841" lon="-1.22894">
        <ele>183.763777</ele>
        <time>2026-05-22T06:56:55.000Z</time>
      </trkpt>
      <trkpt lat="43.26839" lon="-1.22894">
        <ele>183.946875</ele>
        <time>2026-05-22T06:56:56.000Z</time>
      </trkpt>
      <trkpt lat="43.26837" lon="-1.22893">
        <ele>184.133916</ele>
        <time>2026-05-22T06:56:57.000Z</time>
      </trkpt>
      <trkpt lat="43.26835" lon="-1.22892">
        <ele>184.313449</ele>
        <time>2026-05-22T06:56:58.000Z</time>
      </trkpt>
      <trkpt lat="43.26832" lon="-1.22891">
        <ele>184.50213</ele>
        <time>2026-05-22T06:56:59.000Z</time>
      </trkpt>
      <trkpt lat="43.2683" lon="-1.2289">
        <ele>184.690811</ele>
        <time>2026-05-22T06:57:00.000Z</time>
      </trkpt>
      <trkpt lat="43.26828" lon="-1.22889">
        <ele>184.876373</ele>
        <time>2026-05-22T06:57:01.000Z</time>
      </trkpt>
      <trkpt lat="43.26825" lon="-1.22888">
        <ele>185.059482</ele>
        <time>2026-05-22T06:57:02.000Z</time>
      </trkpt>
      <trkpt lat="43.26823" lon="-1.22887">
        <ele>185.228491</ele>
        <time>2026-05-22T06:57:03.000Z</time>
      </trkpt>
      <trkpt lat="43.26821" lon="-1.22887">
        <ele>185.398932</ele>
        <time>2026-05-22T06:57:04.000Z</time>
      </trkpt>
      <trkpt lat="43.26819" lon="-1.22886">
        <ele>185.57137</ele>
        <time>2026-05-22T06:57:05.000Z</time>
      </trkpt>
      <trkpt lat="43.26817" lon="-1.22886">
        <ele>185.755616</ele>
        <time>2026-05-22T06:57:06.000Z</time>
      </trkpt>
      <trkpt lat="43.26815" lon="-1.22885">
        <ele>185.924625</ele>
        <time>2026-05-22T06:57:07.000Z</time>
      </trkpt>
      <trkpt lat="43.26812" lon="-1.22884">
        <ele>186.101243</ele>
        <time>2026-05-22T06:57:08.000Z</time>
      </trkpt>
      <trkpt lat="43.2681" lon="-1.22884">
        <ele>186.284341</ele>
        <time>2026-05-22T06:57:09.000Z</time>
      </trkpt>
      <trkpt lat="43.26808" lon="-1.22883">
        <ele>186.46096</ele>
        <time>2026-05-22T06:57:10.000Z</time>
      </trkpt>
      <trkpt lat="43.26806" lon="-1.22882">
        <ele>186.636381</ele>
        <time>2026-05-22T06:57:11.000Z</time>
      </trkpt>
      <trkpt lat="43.26804" lon="-1.22882">
        <ele>186.796488</ele>
        <time>2026-05-22T06:57:12.000Z</time>
      </trkpt>
      <trkpt lat="43.26802" lon="-1.22881">
        <ele>186.977729</ele>
        <time>2026-05-22T06:57:13.000Z</time>
      </trkpt>
      <trkpt lat="43.26799" lon="-1.2288">
        <ele>187.157261</ele>
        <time>2026-05-22T06:57:14.000Z</time>
      </trkpt>
      <trkpt lat="43.26797" lon="-1.22879">
        <ele>187.327957</ele>
        <time>2026-05-22T06:57:15.000Z</time>
      </trkpt>
      <trkpt lat="43.26795" lon="-1.22878">
        <ele>187.505947</ele>
        <time>2026-05-22T06:57:16.000Z</time>
      </trkpt>
      <trkpt lat="43.26793" lon="-1.22877">
        <ele>187.687188</ele>
        <time>2026-05-22T06:57:17.000Z</time>
      </trkpt>
      <trkpt lat="43.26791" lon="-1.22876">
        <ele>187.881709</ele>
        <time>2026-05-22T06:57:18.000Z</time>
      </trkpt>
      <trkpt lat="43.26789" lon="-1.22874">
        <ele>188.05749</ele>
        <time>2026-05-22T06:57:19.000Z</time>
      </trkpt>
      <trkpt lat="43.26786" lon="-1.22873">
        <ele>188.240059</ele>
        <time>2026-05-22T06:57:20.000Z</time>
      </trkpt>
      <trkpt lat="43.26785" lon="-1.22872">
        <ele>188.399196</ele>
        <time>2026-05-22T06:57:21.000Z</time>
      </trkpt>
      <trkpt lat="43.26783" lon="-1.22871">
        <ele>188.560458</ele>
        <time>2026-05-22T06:57:22.000Z</time>
      </trkpt>
      <trkpt lat="43.26781" lon="-1.2287">
        <ele>188.712637</ele>
        <time>2026-05-22T06:57:23.000Z</time>
      </trkpt>
      <trkpt lat="43.26779" lon="-1.22869">
        <ele>188.866723</ele>
        <time>2026-05-22T06:57:24.000Z</time>
      </trkpt>
      <trkpt lat="43.26777" lon="-1.22868">
        <ele>189.022148</ele>
        <time>2026-05-22T06:57:25.000Z</time>
      </trkpt>
      <trkpt lat="43.26776" lon="-1.22867">
        <ele>189.162693</ele>
        <time>2026-05-22T06:57:26.000Z</time>
      </trkpt>
      <trkpt lat="43.26774" lon="-1.22866">
        <ele>189.303238</ele>
        <time>2026-05-22T06:57:27.000Z</time>
      </trkpt>
      <trkpt lat="43.26772" lon="-1.22865">
        <ele>189.442042</ele>
        <time>2026-05-22T06:57:28.000Z</time>
      </trkpt>
      <trkpt lat="43.2677" lon="-1.22864">
        <ele>189.59853</ele>
        <time>2026-05-22T06:57:29.000Z</time>
      </trkpt>
      <trkpt lat="43.26769" lon="-1.22863">
        <ele>189.745505</ele>
        <time>2026-05-22T06:57:30.000Z</time>
      </trkpt>
      <trkpt lat="43.26767" lon="-1.22862">
        <ele>189.885444</ele>
        <time>2026-05-22T06:57:31.000Z</time>
      </trkpt>
      <trkpt lat="43.26765" lon="-1.22861">
        <ele>190.040869</ele>
        <time>2026-05-22T06:57:32.000Z</time>
      </trkpt>
      <trkpt lat="43.26763" lon="-1.22861">
        <ele>190.187182</ele>
        <time>2026-05-22T06:57:33.000Z</time>
      </trkpt>
      <trkpt lat="43.26762" lon="-1.2286">
        <ele>190.331821</ele>
        <time>2026-05-22T06:57:34.000Z</time>
      </trkpt>
      <trkpt lat="43.2676" lon="-1.22858">
        <ele>190.485907</ele>
        <time>2026-05-22T06:57:35.000Z</time>
      </trkpt>
      <trkpt lat="43.26758" lon="-1.22857">
        <ele>190.642395</ele>
        <time>2026-05-22T06:57:36.000Z</time>
      </trkpt>
      <trkpt lat="43.26756" lon="-1.22856">
        <ele>190.808414</ele>
        <time>2026-05-22T06:57:37.000Z</time>
      </trkpt>
      <trkpt lat="43.26754" lon="-1.22855">
        <ele>190.955389</ele>
        <time>2026-05-22T06:57:38.000Z</time>
      </trkpt>
      <trkpt lat="43.26753" lon="-1.22854">
        <ele>191.097969</ele>
        <time>2026-05-22T06:57:39.000Z</time>
      </trkpt>
      <trkpt lat="43.26751" lon="-1.22853">
        <ele>191.252055</ele>
        <time>2026-05-22T06:57:40.000Z</time>
      </trkpt>
      <trkpt lat="43.26749" lon="-1.22851">
        <ele>191.391994</ele>
        <time>2026-05-22T06:57:41.000Z</time>
      </trkpt>
      <trkpt lat="43.26747" lon="-1.2285">
        <ele>191.560491</ele>
        <time>2026-05-22T06:57:42.000Z</time>
      </trkpt>
      <trkpt lat="43.26746" lon="-1.22849">
        <ele>191.729127</ele>
        <time>2026-05-22T06:57:43.000Z</time>
      </trkpt>
      <trkpt lat="43.26744" lon="-1.22848">
        <ele>191.890914</ele>
        <time>2026-05-22T06:57:44.000Z</time>
      </trkpt>
      <trkpt lat="43.26742" lon="-1.22847">
        <ele>192.050051</ele>
        <time>2026-05-22T06:57:45.000Z</time>
      </trkpt>
      <trkpt lat="43.2674" lon="-1.22846">
        <ele>192.19469</ele>
        <time>2026-05-22T06:57:46.000Z</time>
      </trkpt>
      <trkpt lat="43.26738" lon="-1.22844">
        <ele>192.352724</ele>
        <time>2026-05-22T06:57:47.000Z</time>
      </trkpt>
      <trkpt lat="43.26737" lon="-1.22842">
        <ele>192.507519</ele>
        <time>2026-05-22T06:57:48.000Z</time>
      </trkpt>
      <trkpt lat="43.26735" lon="-1.22842">
        <ele>192.633369</ele>
        <time>2026-05-22T06:57:49.000Z</time>
      </trkpt>
      <trkpt lat="43.26734" lon="-1.2284">
        <ele>192.778764</ele>
        <time>2026-05-22T06:57:50.000Z</time>
      </trkpt>
      <trkpt lat="43.26732" lon="-1.22839">
        <ele>192.928255</ele>
        <time>2026-05-22T06:57:51.000Z</time>
      </trkpt>
      <trkpt lat="43.2673" lon="-1.22838">
        <ele>193.056112</ele>
        <time>2026-05-22T06:57:52.000Z</time>
      </trkpt>
      <trkpt lat="43.26729" lon="-1.22837">
        <ele>193.170598</ele>
        <time>2026-05-22T06:57:53.000Z</time>
      </trkpt>
      <trkpt lat="43.26727" lon="-1.22836">
        <ele>193.281932</ele>
        <time>2026-05-22T06:57:54.000Z</time>
      </trkpt>
      <trkpt lat="43.26725" lon="-1.22834">
        <ele>193.388102</ele>
        <time>2026-05-22T06:57:55.000Z</time>
      </trkpt>
      <trkpt lat="43.26723" lon="-1.22833">
        <ele>193.511375</ele>
        <time>2026-05-22T06:57:56.000Z</time>
      </trkpt>
      <trkpt lat="43.26721" lon="-1.22832">
        <ele>193.637248</ele>
        <time>2026-05-22T06:57:57.000Z</time>
      </trkpt>
      <trkpt lat="43.26719" lon="-1.22831">
        <ele>193.76052</ele>
        <time>2026-05-22T06:57:58.000Z</time>
      </trkpt>
      <trkpt lat="43.26717" lon="-1.2283">
        <ele>193.8785</ele>
        <time>2026-05-22T06:57:59.000Z</time>
      </trkpt>
      <trkpt lat="43.26716" lon="-1.22829">
        <ele>193.99648</ele>
        <time>2026-05-22T06:58:00.000Z</time>
      </trkpt>
      <trkpt lat="43.26714" lon="-1.22828">
        <ele>194.106087</ele>
        <time>2026-05-22T06:58:01.000Z</time>
      </trkpt>
      <trkpt lat="43.26712" lon="-1.22827">
        <ele>194.219796</ele>
        <time>2026-05-22T06:58:02.000Z</time>
      </trkpt>
      <trkpt lat="43.2671" lon="-1.22826">
        <ele>194.338159</ele>
        <time>2026-05-22T06:58:03.000Z</time>
      </trkpt>
      <trkpt lat="43.26708" lon="-1.22825">
        <ele>194.449493</ele>
        <time>2026-05-22T06:58:04.000Z</time>
      </trkpt>
      <trkpt lat="43.26706" lon="-1.22823">
        <ele>194.578095</ele>
        <time>2026-05-22T06:58:05.000Z</time>
      </trkpt>
      <trkpt lat="43.26704" lon="-1.22822">
        <ele>194.69988</ele>
        <time>2026-05-22T06:58:06.000Z</time>
      </trkpt>
      <trkpt lat="43.26702" lon="-1.22821">
        <ele>194.824761</ele>
        <time>2026-05-22T06:58:07.000Z</time>
      </trkpt>
      <trkpt lat="43.267" lon="-1.2282">
        <ele>194.937491</ele>
        <time>2026-05-22T06:58:08.000Z</time>
      </trkpt>
      <trkpt lat="43.26699" lon="-1.22819">
        <ele>195.055471</ele>
        <time>2026-05-22T06:58:09.000Z</time>
      </trkpt>
      <trkpt lat="43.26697" lon="-1.22818">
        <ele>195.174662</ele>
        <time>2026-05-22T06:58:10.000Z</time>
      </trkpt>
      <trkpt lat="43.26695" lon="-1.22817">
        <ele>195.294322</ele>
        <time>2026-05-22T06:58:11.000Z</time>
      </trkpt>
      <trkpt lat="43.26693" lon="-1.22816">
        <ele>195.407742</ele>
        <time>2026-05-22T06:58:12.000Z</time>
      </trkpt>
      <trkpt lat="43.26691" lon="-1.22814">
        <ele>195.532623</ele>
        <time>2026-05-22T06:58:13.000Z</time>
      </trkpt>
      <trkpt lat="43.26689" lon="-1.22813">
        <ele>195.654408</ele>
        <time>2026-05-22T06:58:14.000Z</time>
      </trkpt>
      <trkpt lat="43.26687" lon="-1.22812">
        <ele>195.772388</ele>
        <time>2026-05-22T06:58:15.000Z</time>
      </trkpt>
      <trkpt lat="43.26685" lon="-1.22811">
        <ele>195.895763</ele>
        <time>2026-05-22T06:58:16.000Z</time>
      </trkpt>
      <trkpt lat="43.26683" lon="-1.2281">
        <ele>196.022939</ele>
        <time>2026-05-22T06:58:17.000Z</time>
      </trkpt>
      <trkpt lat="43.26681" lon="-1.22809">
        <ele>196.157734</ele>
        <time>2026-05-22T06:58:18.000Z</time>
      </trkpt>
      <trkpt lat="43.26679" lon="-1.22808">
        <ele>196.274159</ele>
        <time>2026-05-22T06:58:19.000Z</time>
      </trkpt>
      <trkpt lat="43.26677" lon="-1.22807">
        <ele>196.386888</ele>
        <time>2026-05-22T06:58:20.000Z</time>
      </trkpt>
      <trkpt lat="43.26675" lon="-1.22806">
        <ele>196.513495</ele>
        <time>2026-05-22T06:58:21.000Z</time>
      </trkpt>
      <trkpt lat="43.26673" lon="-1.22805">
        <ele>196.627205</ele>
        <time>2026-05-22T06:58:22.000Z</time>
      </trkpt>
      <trkpt lat="43.26671" lon="-1.22804">
        <ele>196.74363</ele>
        <time>2026-05-22T06:58:23.000Z</time>
      </trkpt>
      <trkpt lat="43.26669" lon="-1.22803">
        <ele>196.856359</ele>
        <time>2026-05-22T06:58:24.000Z</time>
      </trkpt>
      <trkpt lat="43.26667" lon="-1.22802">
        <ele>196.982966</ele>
        <time>2026-05-22T06:58:25.000Z</time>
      </trkpt>
      <trkpt lat="43.26665" lon="-1.228">
        <ele>197.109573</ele>
        <time>2026-05-22T06:58:26.000Z</time>
      </trkpt>
      <trkpt lat="43.26663" lon="-1.22799">
        <ele>197.239718</ele>
        <time>2026-05-22T06:58:27.000Z</time>
      </trkpt>
      <trkpt lat="43.26661" lon="-1.22798">
        <ele>197.36832</ele>
        <time>2026-05-22T06:58:28.000Z</time>
      </trkpt>
      <trkpt lat="43.26659" lon="-1.22797">
        <ele>197.496922</ele>
        <time>2026-05-22T06:58:29.000Z</time>
      </trkpt>
      <trkpt lat="43.26657" lon="-1.22796">
        <ele>197.624099</ele>
        <time>2026-05-22T06:58:30.000Z</time>
      </trkpt>
      <trkpt lat="43.26655" lon="-1.22795">
        <ele>197.740524</ele>
        <time>2026-05-22T06:58:31.000Z</time>
      </trkpt>
      <trkpt lat="43.26653" lon="-1.22794">
        <ele>197.862309</ele>
        <time>2026-05-22T06:58:32.000Z</time>
      </trkpt>
      <trkpt lat="43.26651" lon="-1.22793">
        <ele>197.980403</ele>
        <time>2026-05-22T06:58:33.000Z</time>
      </trkpt>
      <trkpt lat="43.26649" lon="-1.22792">
        <ele>198.100826</ele>
        <time>2026-05-22T06:58:34.000Z</time>
      </trkpt>
      <trkpt lat="43.26647" lon="-1.22791">
        <ele>198.224099</ele>
        <time>2026-05-22T06:58:35.000Z</time>
      </trkpt>
      <trkpt lat="43.26645" lon="-1.2279">
        <ele>198.340524</ele>
        <time>2026-05-22T06:58:36.000Z</time>
      </trkpt>
      <trkpt lat="43.26643" lon="-1.2279">
        <ele>198.462474</ele>
        <time>2026-05-22T06:58:37.000Z</time>
      </trkpt>
      <trkpt lat="43.26641" lon="-1.22789">
        <ele>198.579609</ele>
        <time>2026-05-22T06:58:38.000Z</time>
      </trkpt>
      <trkpt lat="43.26639" lon="-1.22789">
        <ele>198.696744</ele>
        <time>2026-05-22T06:58:39.000Z</time>
      </trkpt>
      <trkpt lat="43.26637" lon="-1.22788">
        <ele>198.820391</ele>
        <time>2026-05-22T06:58:40.000Z</time>
      </trkpt>
      <trkpt lat="43.26635" lon="-1.22787">
        <ele>198.949605</ele>
        <time>2026-05-22T06:58:41.000Z</time>
      </trkpt>
      <trkpt lat="43.26633" lon="-1.22787">
        <ele>199.06674</ele>
        <time>2026-05-22T06:58:42.000Z</time>
      </trkpt>
      <trkpt lat="43.26631" lon="-1.22786">
        <ele>199.194332</ele>
        <time>2026-05-22T06:58:43.000Z</time>
      </trkpt>
      <trkpt lat="43.26629" lon="-1.22786">
        <ele>199.304316</ele>
        <time>2026-05-22T06:58:44.000Z</time>
      </trkpt>
      <trkpt lat="43.26627" lon="-1.22785">
        <ele>199.420633</ele>
        <time>2026-05-22T06:58:45.000Z</time>
      </trkpt>
      <trkpt lat="43.26625" lon="-1.22785">
        <ele>199.530618</ele>
        <time>2026-05-22T06:58:46.000Z</time>
      </trkpt>
      <trkpt lat="43.26623" lon="-1.22785">
        <ele>199.645357</ele>
        <time>2026-05-22T06:58:47.000Z</time>
      </trkpt>
      <trkpt lat="43.26621" lon="-1.22785">
        <ele>199.765515</ele>
        <time>2026-05-22T06:58:48.000Z</time>
      </trkpt>
      <trkpt lat="43.26619" lon="-1.22785">
        <ele>199.885745</ele>
        <time>2026-05-22T06:58:49.000Z</time>
      </trkpt>
      <trkpt lat="43.26616" lon="-1.22785">
        <ele>200.017413</ele>
        <time>2026-05-22T06:58:50.000Z</time>
      </trkpt>
      <trkpt lat="43.26614" lon="-1.22785">
        <ele>200.137571</ele>
        <time>2026-05-22T06:58:51.000Z</time>
      </trkpt>
      <trkpt lat="43.26612" lon="-1.22784">
        <ele>200.263519</ele>
        <time>2026-05-22T06:58:52.000Z</time>
      </trkpt>
      <trkpt lat="43.2661" lon="-1.22784">
        <ele>200.389675</ele>
        <time>2026-05-22T06:58:53.000Z</time>
      </trkpt>
      <trkpt lat="43.26608" lon="-1.22784">
        <ele>200.510121</ele>
        <time>2026-05-22T06:58:54.000Z</time>
      </trkpt>
      <trkpt lat="43.26606" lon="-1.22784">
        <ele>200.636277</ele>
        <time>2026-05-22T06:58:55.000Z</time>
      </trkpt>
      <trkpt lat="43.26603" lon="-1.22784">
        <ele>200.768471</ele>
        <time>2026-05-22T06:58:56.000Z</time>
      </trkpt>
      <trkpt lat="43.26601" lon="-1.22783">
        <ele>200.894626</ele>
        <time>2026-05-22T06:58:57.000Z</time>
      </trkpt>
      <trkpt lat="43.26599" lon="-1.22783">
        <ele>201.020575</ele>
        <time>2026-05-22T06:58:58.000Z</time>
      </trkpt>
      <trkpt lat="43.26597" lon="-1.22783">
        <ele>201.146454</ele>
        <time>2026-05-22T06:58:59.000Z</time>
      </trkpt>
      <trkpt lat="43.26594" lon="-1.22783">
        <ele>201.2895</ele>
        <time>2026-05-22T06:59:00.000Z</time>
      </trkpt>
      <trkpt lat="43.26592" lon="-1.22783">
        <ele>201.432606</ele>
        <time>2026-05-22T06:59:01.000Z</time>
      </trkpt>
      <trkpt lat="43.26589" lon="-1.22783">
        <ele>201.575711</ele>
        <time>2026-05-22T06:59:02.000Z</time>
      </trkpt>
      <trkpt lat="43.26587" lon="-1.22783">
        <ele>201.707313</ele>
        <time>2026-05-22T06:59:03.000Z</time>
      </trkpt>
      <trkpt lat="43.26585" lon="-1.22783">
        <ele>201.838915</ele>
        <time>2026-05-22T06:59:04.000Z</time>
      </trkpt>
      <trkpt lat="43.26582" lon="-1.22783">
        <ele>201.976238</ele>
        <time>2026-05-22T06:59:05.000Z</time>
      </trkpt>
      <trkpt lat="43.2658" lon="-1.22783">
        <ele>202.113625</ele>
        <time>2026-05-22T06:59:06.000Z</time>
      </trkpt>
      <trkpt lat="43.26577" lon="-1.22783">
        <ele>202.257638</ele>
        <time>2026-05-22T06:59:07.000Z</time>
      </trkpt>
      <trkpt lat="43.26575" lon="-1.22783">
        <ele>202.395024</ele>
        <time>2026-05-22T06:59:08.000Z</time>
      </trkpt>
      <trkpt lat="43.26572" lon="-1.22782">
        <ele>202.549738</ele>
        <time>2026-05-22T06:59:09.000Z</time>
      </trkpt>
      <trkpt lat="43.26569" lon="-1.22782">
        <ele>202.715879</ele>
        <time>2026-05-22T06:59:10.000Z</time>
      </trkpt>
      <trkpt lat="43.26566" lon="-1.22782">
        <ele>202.887584</ele>
        <time>2026-05-22T06:59:11.000Z</time>
      </trkpt>
      <trkpt lat="43.26563" lon="-1.22782">
        <ele>203.070729</ele>
        <time>2026-05-22T06:59:12.000Z</time>
      </trkpt>
      <trkpt lat="43.2656" lon="-1.22782">
        <ele>203.253875</ele>
        <time>2026-05-22T06:59:13.000Z</time>
      </trkpt>
      <trkpt lat="43.26557" lon="-1.22782">
        <ele>203.358756</ele>
        <time>2026-05-22T06:59:14.000Z</time>
      </trkpt>
      <trkpt lat="43.26553" lon="-1.22782">
        <ele>203.413176</ele>
        <time>2026-05-22T06:59:15.000Z</time>
      </trkpt>
      <trkpt lat="43.2655" lon="-1.22782">
        <ele>203.467678</ele>
        <time>2026-05-22T06:59:16.000Z</time>
      </trkpt>
      <trkpt lat="43.26546" lon="-1.22781">
        <ele>203.522039</ele>
        <time>2026-05-22T06:59:17.000Z</time>
      </trkpt>
      <trkpt lat="43.26542" lon="-1.22781">
        <ele>203.579502</ele>
        <time>2026-05-22T06:59:18.000Z</time>
      </trkpt>
      <trkpt lat="43.26539" lon="-1.22781">
        <ele>203.638515</ele>
        <time>2026-05-22T06:59:19.000Z</time>
      </trkpt>
      <trkpt lat="43.26535" lon="-1.22781">
        <ele>203.699047</ele>
        <time>2026-05-22T06:59:20.000Z</time>
      </trkpt>
      <trkpt lat="43.2653" lon="-1.22781">
        <ele>203.765785</ele>
        <time>2026-05-22T06:59:21.000Z</time>
      </trkpt>
      <trkpt lat="43.26526" lon="-1.22781">
        <ele>203.834075</ele>
        <time>2026-05-22T06:59:22.000Z</time>
      </trkpt>
      <trkpt lat="43.26522" lon="-1.22781">
        <ele>203.902393</ele>
        <time>2026-05-22T06:59:23.000Z</time>
      </trkpt>
      <trkpt lat="43.26517" lon="-1.2278">
        <ele>203.973813</ele>
        <time>2026-05-22T06:59:24.000Z</time>
      </trkpt>
      <trkpt lat="43.26512" lon="-1.2278">
        <ele>204.046828</ele>
        <time>2026-05-22T06:59:25.000Z</time>
      </trkpt>
      <trkpt lat="43.26507" lon="-1.2278">
        <ele>204.124494</ele>
        <time>2026-05-22T06:59:26.000Z</time>
      </trkpt>
      <trkpt lat="43.26502" lon="-1.22779">
        <ele>204.20216</ele>
        <time>2026-05-22T06:59:27.000Z</time>
      </trkpt>
      <trkpt lat="43.26497" lon="-1.22779">
        <ele>204.282982</ele>
        <time>2026-05-22T06:59:28.000Z</time>
      </trkpt>
      <trkpt lat="43.26492" lon="-1.22779">
        <ele>204.365423</ele>
        <time>2026-05-22T06:59:29.000Z</time>
      </trkpt>
      <trkpt lat="43.26486" lon="-1.22778">
        <ele>204.449496</ele>
        <time>2026-05-22T06:59:30.000Z</time>
      </trkpt>
      <trkpt lat="43.26481" lon="-1.22778">
        <ele>204.534966</ele>
        <time>2026-05-22T06:59:31.000Z</time>
      </trkpt>
      <trkpt lat="43.26475" lon="-1.22777">
        <ele>204.620347</ele>
        <time>2026-05-22T06:59:32.000Z</time>
      </trkpt>
      <trkpt lat="43.2647" lon="-1.22777">
        <ele>204.708866</ele>
        <time>2026-05-22T06:59:33.000Z</time>
      </trkpt>
      <trkpt lat="43.26464" lon="-1.22777">
        <ele>204.798986</ele>
        <time>2026-05-22T06:59:34.000Z</time>
      </trkpt>
      <trkpt lat="43.26458" lon="-1.22776">
        <ele>204.887621</ele>
        <time>2026-05-22T06:59:35.000Z</time>
      </trkpt>
      <trkpt lat="43.26452" lon="-1.22776">
        <ele>204.977691</ele>
        <time>2026-05-22T06:59:36.000Z</time>
      </trkpt>
      <trkpt lat="43.26447" lon="-1.22776">
        <ele>205.064623</ele>
        <time>2026-05-22T06:59:37.000Z</time>
      </trkpt>
      <trkpt lat="43.26441" lon="-1.22777">
        <ele>205.151995</ele>
        <time>2026-05-22T06:59:38.000Z</time>
      </trkpt>
      <trkpt lat="43.26436" lon="-1.22777">
        <ele>205.239015</ele>
        <time>2026-05-22T06:59:39.000Z</time>
      </trkpt>
      <trkpt lat="43.2643" lon="-1.22777">
        <ele>205.325918</ele>
        <time>2026-05-22T06:59:40.000Z</time>
      </trkpt>
      <trkpt lat="43.26424" lon="-1.22777">
        <ele>205.411635</ele>
        <time>2026-05-22T06:59:41.000Z</time>
      </trkpt>
      <trkpt lat="43.26419" lon="-1.22775">
        <ele>205.493461</ele>
        <time>2026-05-22T06:59:42.000Z</time>
      </trkpt>
      <trkpt lat="43.26414" lon="-1.22774">
        <ele>205.573758</ele>
        <time>2026-05-22T06:59:43.000Z</time>
      </trkpt>
      <trkpt lat="43.26409" lon="-1.22773">
        <ele>205.647565</ele>
        <time>2026-05-22T06:59:44.000Z</time>
      </trkpt>
      <trkpt lat="43.26405" lon="-1.22772">
        <ele>205.719386</ele>
        <time>2026-05-22T06:59:45.000Z</time>
      </trkpt>
      <trkpt lat="43.264" lon="-1.22772">
        <ele>205.7879</ele>
        <time>2026-05-22T06:59:46.000Z</time>
      </trkpt>
      <trkpt lat="43.26396" lon="-1.22771">
        <ele>205.856517</ele>
        <time>2026-05-22T06:59:47.000Z</time>
      </trkpt>
      <trkpt lat="43.26392" lon="-1.22771">
        <ele>205.918682</ele>
        <time>2026-05-22T06:59:48.000Z</time>
      </trkpt>
      <trkpt lat="43.26388" lon="-1.22771">
        <ele>205.977922</ele>
        <time>2026-05-22T06:59:49.000Z</time>
      </trkpt>
      <trkpt lat="43.26385" lon="-1.2277">
        <ele>206.034073</ele>
        <time>2026-05-22T06:59:50.000Z</time>
      </trkpt>
      <trkpt lat="43.26381" lon="-1.2277">
        <ele>206.090224</ele>
        <time>2026-05-22T06:59:51.000Z</time>
      </trkpt>
      <trkpt lat="43.26377" lon="-1.22769">
        <ele>206.219558</ele>
        <time>2026-05-22T06:59:52.000Z</time>
      </trkpt>
      <trkpt lat="43.26374" lon="-1.22769">
        <ele>206.413774</ele>
        <time>2026-05-22T06:59:53.000Z</time>
      </trkpt>
      <trkpt lat="43.26371" lon="-1.22769">
        <ele>206.602517</ele>
        <time>2026-05-22T06:59:54.000Z</time>
      </trkpt>
      <trkpt lat="43.26367" lon="-1.22768">
        <ele>206.803813</ele>
        <time>2026-05-22T06:59:55.000Z</time>
      </trkpt>
      <trkpt lat="43.26364" lon="-1.22768">
        <ele>206.986626</ele>
        <time>2026-05-22T06:59:56.000Z</time>
      </trkpt>
      <trkpt lat="43.26361" lon="-1.22768">
        <ele>207.164322</ele>
        <time>2026-05-22T06:59:57.000Z</time>
      </trkpt>
      <trkpt lat="43.26358" lon="-1.22767">
        <ele>207.347136</ele>
        <time>2026-05-22T06:59:58.000Z</time>
      </trkpt>
      <trkpt lat="43.26355" lon="-1.22767">
        <ele>207.525269</ele>
        <time>2026-05-22T06:59:59.000Z</time>
      </trkpt>
      <trkpt lat="43.26352" lon="-1.22766">
        <ele>207.703402</ele>
        <time>2026-05-22T07:00:00.000Z</time>
      </trkpt>
      <trkpt lat="43.26349" lon="-1.22766">
        <ele>207.869738</ele>
        <time>2026-05-22T07:00:01.000Z</time>
      </trkpt>
      <trkpt lat="43.26346" lon="-1.22766">
        <ele>208.024051</ele>
        <time>2026-05-22T07:00:02.000Z</time>
      </trkpt>
      <trkpt lat="43.26343" lon="-1.22765">
        <ele>208.191448</ele>
        <time>2026-05-22T07:00:03.000Z</time>
      </trkpt>
      <trkpt lat="43.2634" lon="-1.22763">
        <ele>208.353407</ele>
        <time>2026-05-22T07:00:04.000Z</time>
      </trkpt>
      <trkpt lat="43.26338" lon="-1.22763">
        <ele>208.500903</ele>
        <time>2026-05-22T07:00:05.000Z</time>
      </trkpt>
      <trkpt lat="43.26335" lon="-1.22762">
        <ele>208.653927</ele>
        <time>2026-05-22T07:00:06.000Z</time>
      </trkpt>
      <trkpt lat="43.26333" lon="-1.2276">
        <ele>208.811838</ele>
        <time>2026-05-22T07:00:07.000Z</time>
      </trkpt>
      <trkpt lat="43.2633" lon="-1.22759">
        <ele>208.976182</ele>
        <time>2026-05-22T07:00:08.000Z</time>
      </trkpt>
      <trkpt lat="43.26328" lon="-1.22757">
        <ele>209.137278</ele>
        <time>2026-05-22T07:00:09.000Z</time>
      </trkpt>
      <trkpt lat="43.26325" lon="-1.22755">
        <ele>209.298375</ele>
        <time>2026-05-22T07:00:10.000Z</time>
      </trkpt>
      <trkpt lat="43.26323" lon="-1.22753">
        <ele>209.460785</ele>
        <time>2026-05-22T07:00:11.000Z</time>
      </trkpt>
      <trkpt lat="43.2632" lon="-1.2275">
        <ele>209.637281</ele>
        <time>2026-05-22T07:00:12.000Z</time>
      </trkpt>
      <trkpt lat="43.26318" lon="-1.22748">
        <ele>209.81548</ele>
        <time>2026-05-22T07:00:13.000Z</time>
      </trkpt>
      <trkpt lat="43.26316" lon="-1.22744">
        <ele>210.001418</ele>
        <time>2026-05-22T07:00:14.000Z</time>
      </trkpt>
      <trkpt lat="43.26314" lon="-1.22741">
        <ele>210.186699</ele>
        <time>2026-05-22T07:00:15.000Z</time>
      </trkpt>
      <trkpt lat="43.26312" lon="-1.22737">
        <ele>210.37517</ele>
        <time>2026-05-22T07:00:16.000Z</time>
      </trkpt>
      <trkpt lat="43.26309" lon="-1.22734">
        <ele>210.557302</ele>
        <time>2026-05-22T07:00:17.000Z</time>
      </trkpt>
      <trkpt lat="43.26307" lon="-1.22731">
        <ele>210.741225</ele>
        <time>2026-05-22T07:00:18.000Z</time>
      </trkpt>
      <trkpt lat="43.26305" lon="-1.22728">
        <ele>210.905403</ele>
        <time>2026-05-22T07:00:19.000Z</time>
      </trkpt>
      <trkpt lat="43.26303" lon="-1.22726">
        <ele>211.050621</ele>
        <time>2026-05-22T07:00:20.000Z</time>
      </trkpt>
      <trkpt lat="43.26302" lon="-1.22723">
        <ele>211.19529</ele>
        <time>2026-05-22T07:00:21.000Z</time>
      </trkpt>
      <trkpt lat="43.263" lon="-1.2272">
        <ele>211.336759</ele>
        <time>2026-05-22T07:00:22.000Z</time>
      </trkpt>
      <trkpt lat="43.26298" lon="-1.22718">
        <ele>211.488264</ele>
        <time>2026-05-22T07:00:23.000Z</time>
      </trkpt>
      <trkpt lat="43.26297" lon="-1.22715">
        <ele>211.642984</ele>
        <time>2026-05-22T07:00:24.000Z</time>
      </trkpt>
      <trkpt lat="43.26295" lon="-1.22712">
        <ele>211.790814</ele>
        <time>2026-05-22T07:00:25.000Z</time>
      </trkpt>
      <trkpt lat="43.26294" lon="-1.22709">
        <ele>211.925199</ele>
        <time>2026-05-22T07:00:26.000Z</time>
      </trkpt>
      <trkpt lat="43.26292" lon="-1.22706">
        <ele>212.073115</ele>
        <time>2026-05-22T07:00:27.000Z</time>
      </trkpt>
      <trkpt lat="43.26291" lon="-1.22704">
        <ele>212.217783</ele>
        <time>2026-05-22T07:00:28.000Z</time>
      </trkpt>
      <trkpt lat="43.26289" lon="-1.22701">
        <ele>212.363002</ele>
        <time>2026-05-22T07:00:29.000Z</time>
      </trkpt>
      <trkpt lat="43.26287" lon="-1.22698">
        <ele>212.50767</ele>
        <time>2026-05-22T07:00:30.000Z</time>
      </trkpt>
      <trkpt lat="43.26286" lon="-1.22696">
        <ele>212.649824</ele>
        <time>2026-05-22T07:00:31.000Z</time>
      </trkpt>
      <trkpt lat="43.26284" lon="-1.22693">
        <ele>212.794492</ele>
        <time>2026-05-22T07:00:32.000Z</time>
      </trkpt>
      <trkpt lat="43.26283" lon="-1.2269">
        <ele>212.942323</ele>
        <time>2026-05-22T07:00:33.000Z</time>
      </trkpt>
      <trkpt lat="43.26281" lon="-1.22687">
        <ele>213.093921</ele>
        <time>2026-05-22T07:00:34.000Z</time>
      </trkpt>
      <trkpt lat="43.2628" lon="-1.22684">
        <ele>213.245159</ele>
        <time>2026-05-22T07:00:35.000Z</time>
      </trkpt>
      <trkpt lat="43.26278" lon="-1.22681">
        <ele>213.393496</ele>
        <time>2026-05-22T07:00:36.000Z</time>
      </trkpt>
      <trkpt lat="43.26276" lon="-1.22679">
        <ele>213.536678</ele>
        <time>2026-05-22T07:00:37.000Z</time>
      </trkpt>
      <trkpt lat="43.26274" lon="-1.22677">
        <ele>213.684009</ele>
        <time>2026-05-22T07:00:38.000Z</time>
      </trkpt>
      <trkpt lat="43.26273" lon="-1.22674">
        <ele>213.818631</ele>
        <time>2026-05-22T07:00:39.000Z</time>
      </trkpt>
      <trkpt lat="43.26271" lon="-1.22671">
        <ele>213.959767</ele>
        <time>2026-05-22T07:00:40.000Z</time>
      </trkpt>
      <trkpt lat="43.2627" lon="-1.22669">
        <ele>214.101237</ele>
        <time>2026-05-22T07:00:41.000Z</time>
      </trkpt>
      <trkpt lat="43.26268" lon="-1.22666">
        <ele>214.236465</ele>
        <time>2026-05-22T07:00:42.000Z</time>
      </trkpt>
      <trkpt lat="43.26266" lon="-1.22664">
        <ele>214.377934</ele>
        <time>2026-05-22T07:00:43.000Z</time>
      </trkpt>
      <trkpt lat="43.26265" lon="-1.22661">
        <ele>214.530066</ele>
        <time>2026-05-22T07:00:44.000Z</time>
      </trkpt>
      <trkpt lat="43.26263" lon="-1.22658">
        <ele>214.684786</ele>
        <time>2026-05-22T07:00:45.000Z</time>
      </trkpt>
      <trkpt lat="43.26261" lon="-1.22655">
        <ele>214.829249</ele>
        <time>2026-05-22T07:00:46.000Z</time>
      </trkpt>
      <trkpt lat="43.2626" lon="-1.22653">
        <ele>214.983969</ele>
        <time>2026-05-22T07:00:47.000Z</time>
      </trkpt>
      <trkpt lat="43.26258" lon="-1.2265">
        <ele>215.128638</ele>
        <time>2026-05-22T07:00:48.000Z</time>
      </trkpt>
      <trkpt lat="43.26257" lon="-1.22647">
        <ele>215.273101</ele>
        <time>2026-05-22T07:00:49.000Z</time>
      </trkpt>
      <trkpt lat="43.26255" lon="-1.22644">
        <ele>215.417702</ele>
        <time>2026-05-22T07:00:50.000Z</time>
      </trkpt>
      <trkpt lat="43.26254" lon="-1.22641">
        <ele>215.565784</ele>
        <time>2026-05-22T07:00:51.000Z</time>
      </trkpt>
      <trkpt lat="43.26252" lon="-1.22638">
        <ele>215.703534</ele>
        <time>2026-05-22T07:00:52.000Z</time>
      </trkpt>
      <trkpt lat="43.26251" lon="-1.22636">
        <ele>215.841284</ele>
        <time>2026-05-22T07:00:53.000Z</time>
      </trkpt>
      <trkpt lat="43.26249" lon="-1.22633">
        <ele>215.9892</ele>
        <time>2026-05-22T07:00:54.000Z</time>
      </trkpt>
      <trkpt lat="43.26248" lon="-1.2263">
        <ele>216.137537</ele>
        <time>2026-05-22T07:00:55.000Z</time>
      </trkpt>
      <trkpt lat="43.26246" lon="-1.22628">
        <ele>216.278674</ele>
        <time>2026-05-22T07:00:56.000Z</time>
      </trkpt>
      <trkpt lat="43.26245" lon="-1.22625">
        <ele>216.385248</ele>
        <time>2026-05-22T07:00:57.000Z</time>
      </trkpt>
      <trkpt lat="43.26243" lon="-1.22622">
        <ele>216.391362</ele>
        <time>2026-05-22T07:00:58.000Z</time>
      </trkpt>
      <trkpt lat="43.26242" lon="-1.22619">
        <ele>216.397478</ele>
        <time>2026-05-22T07:00:59.000Z</time>
      </trkpt>
      <trkpt lat="43.2624" lon="-1.22616">
        <ele>216.403591</ele>
        <time>2026-05-22T07:01:00.000Z</time>
      </trkpt>
      <trkpt lat="43.26239" lon="-1.22614">
        <ele>216.409308</ele>
        <time>2026-05-22T07:01:01.000Z</time>
      </trkpt>
      <trkpt lat="43.26237" lon="-1.22611">
        <ele>216.415156</ele>
        <time>2026-05-22T07:01:02.000Z</time>
      </trkpt>
      <trkpt lat="43.26236" lon="-1.22609">
        <ele>216.420991</ele>
        <time>2026-05-22T07:01:03.000Z</time>
      </trkpt>
      <trkpt lat="43.26235" lon="-1.22606">
        <ele>216.426851</ele>
        <time>2026-05-22T07:01:04.000Z</time>
      </trkpt>
      <trkpt lat="43.26233" lon="-1.22603">
        <ele>216.432533</ele>
        <time>2026-05-22T07:01:05.000Z</time>
      </trkpt>
      <trkpt lat="43.26232" lon="-1.22601">
        <ele>216.438291</ele>
        <time>2026-05-22T07:01:06.000Z</time>
      </trkpt>
      <trkpt lat="43.2623" lon="-1.22599">
        <ele>216.444105</ele>
        <time>2026-05-22T07:01:07.000Z</time>
      </trkpt>
      <trkpt lat="43.26228" lon="-1.22596">
        <ele>216.450179</ele>
        <time>2026-05-22T07:01:08.000Z</time>
      </trkpt>
      <trkpt lat="43.26226" lon="-1.22594">
        <ele>216.456482</ele>
        <time>2026-05-22T07:01:09.000Z</time>
      </trkpt>
      <trkpt lat="43.26224" lon="-1.22592">
        <ele>216.462479</ele>
        <time>2026-05-22T07:01:10.000Z</time>
      </trkpt>
      <trkpt lat="43.26222" lon="-1.22589">
        <ele>216.469004</ele>
        <time>2026-05-22T07:01:11.000Z</time>
      </trkpt>
      <trkpt lat="43.2622" lon="-1.22587">
        <ele>216.475966</ele>
        <time>2026-05-22T07:01:12.000Z</time>
      </trkpt>
      <trkpt lat="43.26217" lon="-1.22585">
        <ele>216.482482</ele>
        <time>2026-05-22T07:01:13.000Z</time>
      </trkpt>
      <trkpt lat="43.26215" lon="-1.22584">
        <ele>216.489137</ele>
        <time>2026-05-22T07:01:14.000Z</time>
      </trkpt>
      <trkpt lat="43.26212" lon="-1.22582">
        <ele>216.496232</ele>
        <time>2026-05-22T07:01:15.000Z</time>
      </trkpt>
      <trkpt lat="43.26209" lon="-1.22581">
        <ele>216.503771</ele>
        <time>2026-05-22T07:01:16.000Z</time>
      </trkpt>
      <trkpt lat="43.26206" lon="-1.22579">
        <ele>216.511701</ele>
        <time>2026-05-22T07:01:17.000Z</time>
      </trkpt>
      <trkpt lat="43.26203" lon="-1.22578">
        <ele>216.519753</ele>
        <time>2026-05-22T07:01:18.000Z</time>
      </trkpt>
      <trkpt lat="43.26199" lon="-1.22577">
        <ele>216.527946</ele>
        <time>2026-05-22T07:01:19.000Z</time>
      </trkpt>
      <trkpt lat="43.26196" lon="-1.22576">
        <ele>216.536457</ele>
        <time>2026-05-22T07:01:20.000Z</time>
      </trkpt>
      <trkpt lat="43.26192" lon="-1.22575">
        <ele>216.545523</ele>
        <time>2026-05-22T07:01:21.000Z</time>
      </trkpt>
      <trkpt lat="43.26189" lon="-1.22575">
        <ele>216.554534</ele>
        <time>2026-05-22T07:01:22.000Z</time>
      </trkpt>
      <trkpt lat="43.26185" lon="-1.22574">
        <ele>216.563763</ele>
        <time>2026-05-22T07:01:23.000Z</time>
      </trkpt>
      <trkpt lat="43.26181" lon="-1.22574">
        <ele>216.573179</ele>
        <time>2026-05-22T07:01:24.000Z</time>
      </trkpt>
      <trkpt lat="43.26178" lon="-1.22574">
        <ele>216.581143</ele>
        <time>2026-05-22T07:01:25.000Z</time>
      </trkpt>
      <trkpt lat="43.26175" lon="-1.22573">
        <ele>216.587102</ele>
        <time>2026-05-22T07:01:26.000Z</time>
      </trkpt>
      <trkpt lat="43.26173" lon="-1.22572">
        <ele>216.593029</ele>
        <time>2026-05-22T07:01:27.000Z</time>
      </trkpt>
      <trkpt lat="43.2617" lon="-1.22571">
        <ele>216.599895</ele>
        <time>2026-05-22T07:01:28.000Z</time>
      </trkpt>
      <trkpt lat="43.26167" lon="-1.22572">
        <ele>216.606834</ele>
        <time>2026-05-22T07:01:29.000Z</time>
      </trkpt>
      <trkpt lat="43.26164" lon="-1.22573">
        <ele>216.614559</ele>
        <time>2026-05-22T07:01:30.000Z</time>
      </trkpt>
      <trkpt lat="43.26161" lon="-1.22574">
        <ele>216.622615</ele>
        <time>2026-05-22T07:01:31.000Z</time>
      </trkpt>
      <trkpt lat="43.26157" lon="-1.22574">
        <ele>216.631106</ele>
        <time>2026-05-22T07:01:32.000Z</time>
      </trkpt>
      <trkpt lat="43.26154" lon="-1.22575">
        <ele>216.640316</ele>
        <time>2026-05-22T07:01:33.000Z</time>
      </trkpt>
      <trkpt lat="43.2615" lon="-1.22575">
        <ele>216.650007</ele>
        <time>2026-05-22T07:01:34.000Z</time>
      </trkpt>
      <trkpt lat="43.26146" lon="-1.22576">
        <ele>216.659218</ele>
        <time>2026-05-22T07:01:35.000Z</time>
      </trkpt>
      <trkpt lat="43.26142" lon="-1.22576">
        <ele>216.669365</ele>
        <time>2026-05-22T07:01:36.000Z</time>
      </trkpt>
      <trkpt lat="43.26137" lon="-1.22576">
        <ele>216.679793</ele>
        <time>2026-05-22T07:01:37.000Z</time>
      </trkpt>
      <trkpt lat="43.26133" lon="-1.22578">
        <ele>216.690126</ele>
        <time>2026-05-22T07:01:38.000Z</time>
      </trkpt>
      <trkpt lat="43.26129" lon="-1.2258">
        <ele>216.700972</ele>
        <time>2026-05-22T07:01:39.000Z</time>
      </trkpt>
      <trkpt lat="43.26125" lon="-1.22582">
        <ele>216.712155</ele>
        <time>2026-05-22T07:01:40.000Z</time>
      </trkpt>
      <trkpt lat="43.2612" lon="-1.22584">
        <ele>216.72408</ele>
        <time>2026-05-22T07:01:41.000Z</time>
      </trkpt>
      <trkpt lat="43.26115" lon="-1.22586">
        <ele>216.736865</ele>
        <time>2026-05-22T07:01:42.000Z</time>
      </trkpt>
      <trkpt lat="43.26109" lon="-1.22587">
        <ele>216.750331</ele>
        <time>2026-05-22T07:01:43.000Z</time>
      </trkpt>
      <trkpt lat="43.26104" lon="-1.22589">
        <ele>216.764442</ele>
        <time>2026-05-22T07:01:44.000Z</time>
      </trkpt>
      <trkpt lat="43.26098" lon="-1.2259">
        <ele>216.777972</ele>
        <time>2026-05-22T07:01:45.000Z</time>
      </trkpt>
      <trkpt lat="43.26092" lon="-1.22592">
        <ele>216.791913</ele>
        <time>2026-05-22T07:01:46.000Z</time>
      </trkpt>
      <trkpt lat="43.26087" lon="-1.22593">
        <ele>216.806153</ele>
        <time>2026-05-22T07:01:47.000Z</time>
      </trkpt>
      <trkpt lat="43.2608" lon="-1.22594">
        <ele>216.756805</ele>
        <time>2026-05-22T07:01:48.000Z</time>
      </trkpt>
      <trkpt lat="43.26074" lon="-1.22595">
        <ele>216.501932</ele>
        <time>2026-05-22T07:01:49.000Z</time>
      </trkpt>
      <trkpt lat="43.26067" lon="-1.22595">
        <ele>216.239779</ele>
        <time>2026-05-22T07:01:50.000Z</time>
      </trkpt>
      <trkpt lat="43.2606" lon="-1.22595">
        <ele>215.965617</ele>
        <time>2026-05-22T07:01:51.000Z</time>
      </trkpt>
      <trkpt lat="43.26054" lon="-1.22594">
        <ele>215.698635</ele>
        <time>2026-05-22T07:01:52.000Z</time>
      </trkpt>
      <trkpt lat="43.26047" lon="-1.22593">
        <ele>215.429145</ele>
        <time>2026-05-22T07:01:53.000Z</time>
      </trkpt>
      <trkpt lat="43.26041" lon="-1.2259">
        <ele>215.16419</ele>
        <time>2026-05-22T07:01:54.000Z</time>
      </trkpt>
      <trkpt lat="43.26034" lon="-1.22588">
        <ele>214.896221</ele>
        <time>2026-05-22T07:01:55.000Z</time>
      </trkpt>
      <trkpt lat="43.26028" lon="-1.22585">
        <ele>214.621125</ele>
        <time>2026-05-22T07:01:56.000Z</time>
      </trkpt>
      <trkpt lat="43.26021" lon="-1.22581">
        <ele>214.347004</ele>
        <time>2026-05-22T07:01:57.000Z</time>
      </trkpt>
      <trkpt lat="43.26015" lon="-1.22578">
        <ele>214.067672</ele>
        <time>2026-05-22T07:01:58.000Z</time>
      </trkpt>
      <trkpt lat="43.26008" lon="-1.22574">
        <ele>213.786076</ele>
        <time>2026-05-22T07:01:59.000Z</time>
      </trkpt>
      <trkpt lat="43.26001" lon="-1.2257">
        <ele>213.499682</ele>
        <time>2026-05-22T07:02:00.000Z</time>
      </trkpt>
      <trkpt lat="43.25995" lon="-1.22566">
        <ele>213.200058</ele>
        <time>2026-05-22T07:02:01.000Z</time>
      </trkpt>
      <trkpt lat="43.25988" lon="-1.22561">
        <ele>212.904058</ele>
        <time>2026-05-22T07:02:02.000Z</time>
      </trkpt>
      <trkpt lat="43.25981" lon="-1.22557">
        <ele>212.606861</ele>
        <time>2026-05-22T07:02:03.000Z</time>
      </trkpt>
      <trkpt lat="43.25974" lon="-1.22553">
        <ele>212.305933</ele>
        <time>2026-05-22T07:02:04.000Z</time>
      </trkpt>
      <trkpt lat="43.25967" lon="-1.22548">
        <ele>211.999099</ele>
        <time>2026-05-22T07:02:05.000Z</time>
      </trkpt>
      <trkpt lat="43.2596" lon="-1.22544">
        <ele>211.688666</ele>
        <time>2026-05-22T07:02:06.000Z</time>
      </trkpt>
      <trkpt lat="43.25953" lon="-1.22539">
        <ele>211.370932</ele>
        <time>2026-05-22T07:02:07.000Z</time>
      </trkpt>
      <trkpt lat="43.25945" lon="-1.22534">
        <ele>211.050806</ele>
        <time>2026-05-22T07:02:08.000Z</time>
      </trkpt>
      <trkpt lat="43.25938" lon="-1.2253">
        <ele>210.731951</ele>
        <time>2026-05-22T07:02:09.000Z</time>
      </trkpt>
      <trkpt lat="43.25931" lon="-1.22525">
        <ele>210.405863</ele>
        <time>2026-05-22T07:02:10.000Z</time>
      </trkpt>
      <trkpt lat="43.25923" lon="-1.2252">
        <ele>210.079723</ele>
        <time>2026-05-22T07:02:11.000Z</time>
      </trkpt>
      <trkpt lat="43.25916" lon="-1.22515">
        <ele>209.758113</ele>
        <time>2026-05-22T07:02:12.000Z</time>
      </trkpt>
      <trkpt lat="43.25909" lon="-1.22508">
        <ele>209.438752</ele>
        <time>2026-05-22T07:02:13.000Z</time>
      </trkpt>
      <trkpt lat="43.25903" lon="-1.22502">
        <ele>209.120385</ele>
        <time>2026-05-22T07:02:14.000Z</time>
      </trkpt>
      <trkpt lat="43.25896" lon="-1.22494">
        <ele>208.782361</ele>
        <time>2026-05-22T07:02:15.000Z</time>
      </trkpt>
      <trkpt lat="43.25888" lon="-1.22487">
        <ele>208.435483</ele>
        <time>2026-05-22T07:02:16.000Z</time>
      </trkpt>
      <trkpt lat="43.25881" lon="-1.22481">
        <ele>208.099559</ele>
        <time>2026-05-22T07:02:17.000Z</time>
      </trkpt>
      <trkpt lat="43.25873" lon="-1.22475">
        <ele>207.765277</ele>
        <time>2026-05-22T07:02:18.000Z</time>
      </trkpt>
      <trkpt lat="43.25865" lon="-1.2247">
        <ele>207.432226</ele>
        <time>2026-05-22T07:02:19.000Z</time>
      </trkpt>
      <trkpt lat="43.25857" lon="-1.22466">
        <ele>207.09048</ele>
        <time>2026-05-22T07:02:20.000Z</time>
      </trkpt>
      <trkpt lat="43.25849" lon="-1.22462">
        <ele>206.753519</ele>
        <time>2026-05-22T07:02:21.000Z</time>
      </trkpt>
      <trkpt lat="43.25841" lon="-1.22458">
        <ele>206.421612</ele>
        <time>2026-05-22T07:02:22.000Z</time>
      </trkpt>
      <trkpt lat="43.25832" lon="-1.22456">
        <ele>206.105493</ele>
        <time>2026-05-22T07:02:23.000Z</time>
      </trkpt>
      <trkpt lat="43.25824" lon="-1.22455">
        <ele>205.795719</ele>
        <time>2026-05-22T07:02:24.000Z</time>
      </trkpt>
      <trkpt lat="43.25817" lon="-1.22455">
        <ele>205.492221</ele>
        <time>2026-05-22T07:02:25.000Z</time>
      </trkpt>
      <trkpt lat="43.25809" lon="-1.22456">
        <ele>205.185886</ele>
        <time>2026-05-22T07:02:26.000Z</time>
      </trkpt>
      <trkpt lat="43.25801" lon="-1.22458">
        <ele>204.885384</ele>
        <time>2026-05-22T07:02:27.000Z</time>
      </trkpt>
      <trkpt lat="43.25794" lon="-1.22461">
        <ele>204.593321</ele>
        <time>2026-05-22T07:02:28.000Z</time>
      </trkpt>
      <trkpt lat="43.25786" lon="-1.22463">
        <ele>204.308057</ele>
        <time>2026-05-22T07:02:29.000Z</time>
      </trkpt>
      <trkpt lat="43.25779" lon="-1.22465">
        <ele>204.020982</ele>
        <time>2026-05-22T07:02:30.000Z</time>
      </trkpt>
      <trkpt lat="43.25772" lon="-1.22467">
        <ele>203.750669</ele>
        <time>2026-05-22T07:02:31.000Z</time>
      </trkpt>
      <trkpt lat="43.25765" lon="-1.22469">
        <ele>203.479201</ele>
        <time>2026-05-22T07:02:32.000Z</time>
      </trkpt>
      <trkpt lat="43.25758" lon="-1.22471">
        <ele>203.207733</ele>
        <time>2026-05-22T07:02:33.000Z</time>
      </trkpt>
      <trkpt lat="43.25752" lon="-1.22473">
        <ele>202.943189</ele>
        <time>2026-05-22T07:02:34.000Z</time>
      </trkpt>
      <trkpt lat="43.25745" lon="-1.22475">
        <ele>202.59955</ele>
        <time>2026-05-22T07:02:35.000Z</time>
      </trkpt>
      <trkpt lat="43.25738" lon="-1.22476">
        <ele>202.104975</ele>
        <time>2026-05-22T07:02:36.000Z</time>
      </trkpt>
      <trkpt lat="43.2573" lon="-1.22477">
        <ele>201.582269</ele>
        <time>2026-05-22T07:02:37.000Z</time>
      </trkpt>
      <trkpt lat="43.25722" lon="-1.22477">
        <ele>201.039941</ele>
        <time>2026-05-22T07:02:38.000Z</time>
      </trkpt>
      <trkpt lat="43.25714" lon="-1.22477">
        <ele>200.484096</ele>
        <time>2026-05-22T07:02:39.000Z</time>
      </trkpt>
      <trkpt lat="43.25705" lon="-1.22477">
        <ele>199.900031</ele>
        <time>2026-05-22T07:02:40.000Z</time>
      </trkpt>
      <trkpt lat="43.25697" lon="-1.22475">
        <ele>199.30379</ele>
        <time>2026-05-22T07:02:41.000Z</time>
      </trkpt>
      <trkpt lat="43.25688" lon="-1.22472">
        <ele>198.678318</ele>
        <time>2026-05-22T07:02:42.000Z</time>
      </trkpt>
      <trkpt lat="43.25679" lon="-1.22468">
        <ele>198.04376</ele>
        <time>2026-05-22T07:02:43.000Z</time>
      </trkpt>
      <trkpt lat="43.2567" lon="-1.22464">
        <ele>197.39305</ele>
        <time>2026-05-22T07:02:44.000Z</time>
      </trkpt>
      <trkpt lat="43.25661" lon="-1.22461">
        <ele>196.739252</ele>
        <time>2026-05-22T07:02:45.000Z</time>
      </trkpt>
      <trkpt lat="43.25652" lon="-1.22458">
        <ele>196.075852</ele>
        <time>2026-05-22T07:02:46.000Z</time>
      </trkpt>
      <trkpt lat="43.25642" lon="-1.22454">
        <ele>195.392945</ele>
        <time>2026-05-22T07:02:47.000Z</time>
      </trkpt>
      <trkpt lat="43.25632" lon="-1.2245">
        <ele>194.69192</ele>
        <time>2026-05-22T07:02:48.000Z</time>
      </trkpt>
      <trkpt lat="43.25623" lon="-1.22444">
        <ele>193.976155</ele>
        <time>2026-05-22T07:02:49.000Z</time>
      </trkpt>
      <trkpt lat="43.25613" lon="-1.22437">
        <ele>193.253114</ele>
        <time>2026-05-22T07:02:50.000Z</time>
      </trkpt>
      <trkpt lat="43.25604" lon="-1.2243">
        <ele>192.507873</ele>
        <time>2026-05-22T07:02:51.000Z</time>
      </trkpt>
      <trkpt lat="43.25595" lon="-1.22422">
        <ele>191.755191</ele>
        <time>2026-05-22T07:02:52.000Z</time>
      </trkpt>
      <trkpt lat="43.25586" lon="-1.22412">
        <ele>190.981606</ele>
        <time>2026-05-22T07:02:53.000Z</time>
      </trkpt>
      <trkpt lat="43.25578" lon="-1.22401">
        <ele>190.251726</ele>
        <time>2026-05-22T07:02:54.000Z</time>
      </trkpt>
      <trkpt lat="43.2557" lon="-1.2239">
        <ele>189.644095</ele>
        <time>2026-05-22T07:02:55.000Z</time>
      </trkpt>
      <trkpt lat="43.25563" lon="-1.22377">
        <ele>189.032798</ele>
        <time>2026-05-22T07:02:56.000Z</time>
      </trkpt>
      <trkpt lat="43.25557" lon="-1.22365">
        <ele>188.427818</ele>
        <time>2026-05-22T07:02:57.000Z</time>
      </trkpt>
      <trkpt lat="43.25551" lon="-1.22352">
        <ele>187.829115</ele>
        <time>2026-05-22T07:02:58.000Z</time>
      </trkpt>
      <trkpt lat="43.25544" lon="-1.22339">
        <ele>187.223937</ele>
        <time>2026-05-22T07:02:59.000Z</time>
      </trkpt>
      <trkpt lat="43.25538" lon="-1.22326">
        <ele>186.621433</ele>
        <time>2026-05-22T07:03:00.000Z</time>
      </trkpt>
      <trkpt lat="43.25532" lon="-1.22313">
        <ele>186.012343</ele>
        <time>2026-05-22T07:03:01.000Z</time>
      </trkpt>
      <trkpt lat="43.25526" lon="-1.223">
        <ele>185.403253</ele>
        <time>2026-05-22T07:03:02.000Z</time>
      </trkpt>
      <trkpt lat="43.2552" lon="-1.22287">
        <ele>184.790858</ele>
        <time>2026-05-22T07:03:03.000Z</time>
      </trkpt>
      <trkpt lat="43.25514" lon="-1.22274">
        <ele>184.175152</ele>
        <time>2026-05-22T07:03:04.000Z</time>
      </trkpt>
      <trkpt lat="43.25508" lon="-1.2226">
        <ele>183.565109</ele>
        <time>2026-05-22T07:03:05.000Z</time>
      </trkpt>
      <trkpt lat="43.25502" lon="-1.22247">
        <ele>182.955066</ele>
        <time>2026-05-22T07:03:06.000Z</time>
      </trkpt>
      <trkpt lat="43.25496" lon="-1.22234">
        <ele>182.354512</ele>
        <time>2026-05-22T07:03:07.000Z</time>
      </trkpt>
      <trkpt lat="43.2549" lon="-1.22221">
        <ele>181.77013</ele>
        <time>2026-05-22T07:03:08.000Z</time>
      </trkpt>
      <trkpt lat="43.25485" lon="-1.22209">
        <ele>181.220365</ele>
        <time>2026-05-22T07:03:09.000Z</time>
      </trkpt>
      <trkpt lat="43.2548" lon="-1.22198">
        <ele>180.797225</ele>
        <time>2026-05-22T07:03:10.000Z</time>
      </trkpt>
      <trkpt lat="43.25475" lon="-1.22187">
        <ele>181.214734</ele>
        <time>2026-05-22T07:03:11.000Z</time>
      </trkpt>
      <trkpt lat="43.2547" lon="-1.22177">
        <ele>181.616448</ele>
        <time>2026-05-22T07:03:12.000Z</time>
      </trkpt>
      <trkpt lat="43.25466" lon="-1.22167">
        <ele>181.999592</ele>
        <time>2026-05-22T07:03:13.000Z</time>
      </trkpt>
      <trkpt lat="43.25462" lon="-1.22157">
        <ele>182.372068</ele>
        <time>2026-05-22T07:03:14.000Z</time>
      </trkpt>
      <trkpt lat="43.25457" lon="-1.22148">
        <ele>182.725638</ele>
        <time>2026-05-22T07:03:15.000Z</time>
      </trkpt>
      <trkpt lat="43.25453" lon="-1.22139">
        <ele>183.05585</ele>
        <time>2026-05-22T07:03:16.000Z</time>
      </trkpt>
      <trkpt lat="43.2545" lon="-1.22131">
        <ele>183.378617</ele>
        <time>2026-05-22T07:03:17.000Z</time>
      </trkpt>
      <trkpt lat="43.25446" lon="-1.22122">
        <ele>183.690698</ele>
        <time>2026-05-22T07:03:18.000Z</time>
      </trkpt>
      <trkpt lat="43.25443" lon="-1.22115">
        <ele>183.976836</ele>
        <time>2026-05-22T07:03:19.000Z</time>
      </trkpt>
      <trkpt lat="43.2544" lon="-1.22108">
        <ele>184.251764</ele>
        <time>2026-05-22T07:03:20.000Z</time>
      </trkpt>
      <trkpt lat="43.25437" lon="-1.22101">
        <ele>184.508611</ele>
        <time>2026-05-22T07:03:21.000Z</time>
      </trkpt>
      <trkpt lat="43.25434" lon="-1.22094">
        <ele>184.757572</ele>
        <time>2026-05-22T07:03:22.000Z</time>
      </trkpt>
      <trkpt lat="43.25431" lon="-1.22088">
        <ele>184.992594</ele>
        <time>2026-05-22T07:03:23.000Z</time>
      </trkpt>
      <trkpt lat="43.25429" lon="-1.22082">
        <ele>185.214584</ele>
        <time>2026-05-22T07:03:24.000Z</time>
      </trkpt>
      <trkpt lat="43.25426" lon="-1.22077">
        <ele>185.431462</ele>
        <time>2026-05-22T07:03:25.000Z</time>
      </trkpt>
      <trkpt lat="43.25424" lon="-1.22071">
        <ele>185.629763</ele>
        <time>2026-05-22T07:03:26.000Z</time>
      </trkpt>
      <trkpt lat="43.25422" lon="-1.22067">
        <ele>185.815078</ele>
        <time>2026-05-22T07:03:27.000Z</time>
      </trkpt>
      <trkpt lat="43.2542" lon="-1.22062">
        <ele>185.992034</ele>
        <time>2026-05-22T07:03:28.000Z</time>
      </trkpt>
      <trkpt lat="43.25417" lon="-1.22058">
        <ele>186.163313</ele>
        <time>2026-05-22T07:03:29.000Z</time>
      </trkpt>
      <trkpt lat="43.25415" lon="-1.22053">
        <ele>186.339846</ele>
        <time>2026-05-22T07:03:30.000Z</time>
      </trkpt>
      <trkpt lat="43.25413" lon="-1.22049">
        <ele>186.506147</ele>
        <time>2026-05-22T07:03:31.000Z</time>
      </trkpt>
      <trkpt lat="43.25411" lon="-1.22045">
        <ele>186.672139</ele>
        <time>2026-05-22T07:03:32.000Z</time>
      </trkpt>
      <trkpt lat="43.25409" lon="-1.22041">
        <ele>186.835518</ele>
        <time>2026-05-22T07:03:33.000Z</time>
      </trkpt>
      <trkpt lat="43.25406" lon="-1.22037">
        <ele>186.993608</ele>
        <time>2026-05-22T07:03:34.000Z</time>
      </trkpt>
      <trkpt lat="43.25405" lon="-1.22033">
        <ele>187.146545</ele>
        <time>2026-05-22T07:03:35.000Z</time>
      </trkpt>
      <trkpt lat="43.25402" lon="-1.2203">
        <ele>187.305623</ele>
        <time>2026-05-22T07:03:36.000Z</time>
      </trkpt>
      <trkpt lat="43.254" lon="-1.22026">
        <ele>187.450535</ele>
        <time>2026-05-22T07:03:37.000Z</time>
      </trkpt>
      <trkpt lat="43.25398" lon="-1.22023">
        <ele>187.595843</ele>
        <time>2026-05-22T07:03:38.000Z</time>
      </trkpt>
      <trkpt lat="43.25396" lon="-1.22019">
        <ele>187.735777</ele>
        <time>2026-05-22T07:03:39.000Z</time>
      </trkpt>
      <trkpt lat="43.25394" lon="-1.22017">
        <ele>187.847009</ele>
        <time>2026-05-22T07:03:40.000Z</time>
      </trkpt>
      <trkpt lat="43.25392" lon="-1.22015">
        <ele>187.961593</ele>
        <time>2026-05-22T07:03:41.000Z</time>
      </trkpt>
      <trkpt lat="43.25391" lon="-1.22012">
        <ele>188.072825</ele>
        <time>2026-05-22T07:03:42.000Z</time>
      </trkpt>
      <trkpt lat="43.25388" lon="-1.2201">
        <ele>188.185378</ele>
        <time>2026-05-22T07:03:43.000Z</time>
      </trkpt>
      <trkpt lat="43.25387" lon="-1.22008">
        <ele>188.298739</ele>
        <time>2026-05-22T07:03:44.000Z</time>
      </trkpt>
      <trkpt lat="43.25384" lon="-1.22006">
        <ele>188.416954</ele>
        <time>2026-05-22T07:03:45.000Z</time>
      </trkpt>
      <trkpt lat="43.25382" lon="-1.22004">
        <ele>188.527685</ele>
        <time>2026-05-22T07:03:46.000Z</time>
      </trkpt>
      <trkpt lat="43.25381" lon="-1.22002">
        <ele>188.63483</ele>
        <time>2026-05-22T07:03:47.000Z</time>
      </trkpt>
      <trkpt lat="43.25378" lon="-1.21999">
        <ele>188.759221</ele>
        <time>2026-05-22T07:03:48.000Z</time>
      </trkpt>
      <trkpt lat="43.25376" lon="-1.21997">
        <ele>188.852802</ele>
        <time>2026-05-22T07:03:49.000Z</time>
      </trkpt>
      <trkpt lat="43.25374" lon="-1.21995">
        <ele>188.934318</ele>
        <time>2026-05-22T07:03:50.000Z</time>
      </trkpt>
      <trkpt lat="43.25373" lon="-1.21993">
        <ele>189.008002</ele>
        <time>2026-05-22T07:03:51.000Z</time>
      </trkpt>
      <trkpt lat="43.25371" lon="-1.2199">
        <ele>189.085562</ele>
        <time>2026-05-22T07:03:52.000Z</time>
      </trkpt>
      <trkpt lat="43.25369" lon="-1.21988">
        <ele>189.159871</ele>
        <time>2026-05-22T07:03:53.000Z</time>
      </trkpt>
      <trkpt lat="43.25368" lon="-1.21986">
        <ele>189.239681</ele>
        <time>2026-05-22T07:03:54.000Z</time>
      </trkpt>
      <trkpt lat="43.25366" lon="-1.21984">
        <ele>189.315835</ele>
        <time>2026-05-22T07:03:55.000Z</time>
      </trkpt>
      <trkpt lat="43.25364" lon="-1.21981">
        <ele>189.395645</ele>
        <time>2026-05-22T07:03:56.000Z</time>
      </trkpt>
      <trkpt lat="43.25362" lon="-1.21979">
        <ele>189.475456</ele>
        <time>2026-05-22T07:03:57.000Z</time>
      </trkpt>
      <trkpt lat="43.25361" lon="-1.21977">
        <ele>189.543598</ele>
        <time>2026-05-22T07:03:58.000Z</time>
      </trkpt>
      <trkpt lat="43.25359" lon="-1.21974">
        <ele>189.622836</ele>
        <time>2026-05-22T07:03:59.000Z</time>
      </trkpt>
      <trkpt lat="43.25357" lon="-1.21972">
        <ele>189.698752</ele>
        <time>2026-05-22T07:04:00.000Z</time>
      </trkpt>
      <trkpt lat="43.25356" lon="-1.2197">
        <ele>189.768568</ele>
        <time>2026-05-22T07:04:01.000Z</time>
      </trkpt>
      <trkpt lat="43.25354" lon="-1.21968">
        <ele>189.842877</ele>
        <time>2026-05-22T07:04:02.000Z</time>
      </trkpt>
      <trkpt lat="43.25352" lon="-1.21966">
        <ele>189.911703</ele>
        <time>2026-05-22T07:04:03.000Z</time>
      </trkpt>
      <trkpt lat="43.25351" lon="-1.21964">
        <ele>189.985358</ele>
        <time>2026-05-22T07:04:04.000Z</time>
      </trkpt>
      <trkpt lat="43.25349" lon="-1.21962">
        <ele>190.055083</ele>
        <time>2026-05-22T07:04:05.000Z</time>
      </trkpt>
      <trkpt lat="43.25347" lon="-1.2196">
        <ele>190.12391</ele>
        <time>2026-05-22T07:04:06.000Z</time>
      </trkpt>
      <trkpt lat="43.25346" lon="-1.21958">
        <ele>190.191198</ele>
        <time>2026-05-22T07:04:07.000Z</time>
      </trkpt>
      <trkpt lat="43.25344" lon="-1.21956">
        <ele>190.270257</ele>
        <time>2026-05-22T07:04:08.000Z</time>
      </trkpt>
      <trkpt lat="43.25342" lon="-1.21954">
        <ele>190.347842</ele>
        <time>2026-05-22T07:04:09.000Z</time>
      </trkpt>
      <trkpt lat="43.2534" lon="-1.21951">
        <ele>190.431864</ele>
        <time>2026-05-22T07:04:10.000Z</time>
      </trkpt>
      <trkpt lat="43.25338" lon="-1.21949">
        <ele>190.510923</ele>
        <time>2026-05-22T07:04:11.000Z</time>
      </trkpt>
      <trkpt lat="43.25336" lon="-1.21947">
        <ele>190.593046</ele>
        <time>2026-05-22T07:04:12.000Z</time>
      </trkpt>
      <trkpt lat="43.25334" lon="-1.21944">
        <ele>190.668962</ele>
        <time>2026-05-22T07:04:13.000Z</time>
      </trkpt>
      <trkpt lat="43.25332" lon="-1.21942">
        <ele>190.754409</ele>
        <time>2026-05-22T07:04:14.000Z</time>
      </trkpt>
      <trkpt lat="43.2533" lon="-1.2194">
        <ele>190.84132</ele>
        <time>2026-05-22T07:04:15.000Z</time>
      </trkpt>
      <trkpt lat="43.25328" lon="-1.21937">
        <ele>190.924305</ele>
        <time>2026-05-22T07:04:16.000Z</time>
      </trkpt>
      <trkpt lat="43.25326" lon="-1.21935">
        <ele>191.008327</ele>
        <time>2026-05-22T07:04:17.000Z</time>
      </trkpt>
      <trkpt lat="43.25324" lon="-1.21933">
        <ele>191.096283</ele>
        <time>2026-05-22T07:04:18.000Z</time>
      </trkpt>
      <trkpt lat="43.25322" lon="-1.21931">
        <ele>191.18424</ele>
        <time>2026-05-22T07:04:19.000Z</time>
      </trkpt>
      <trkpt lat="43.25319" lon="-1.21929">
        <ele>191.266912</ele>
        <time>2026-05-22T07:04:20.000Z</time>
      </trkpt>
      <trkpt lat="43.25317" lon="-1.21927">
        <ele>191.35084</ele>
        <time>2026-05-22T07:04:21.000Z</time>
      </trkpt>
      <trkpt lat="43.25315" lon="-1.21925">
        <ele>191.441366</ele>
        <time>2026-05-22T07:04:22.000Z</time>
      </trkpt>
      <trkpt lat="43.25312" lon="-1.21922">
        <ele>191.539747</ele>
        <time>2026-05-22T07:04:23.000Z</time>
      </trkpt>
      <trkpt lat="43.2531" lon="-1.2192">
        <ele>191.640818</ele>
        <time>2026-05-22T07:04:24.000Z</time>
      </trkpt>
      <trkpt lat="43.25307" lon="-1.21918">
        <ele>191.747347</ele>
        <time>2026-05-22T07:04:25.000Z</time>
      </trkpt>
      <trkpt lat="43.25304" lon="-1.21915">
        <ele>191.851134</ele>
        <time>2026-05-22T07:04:26.000Z</time>
      </trkpt>
      <trkpt lat="43.25301" lon="-1.21913">
        <ele>191.962134</ele>
        <time>2026-05-22T07:04:27.000Z</time>
      </trkpt>
      <trkpt lat="43.25298" lon="-1.21911">
        <ele>192.079246</ele>
        <time>2026-05-22T07:04:28.000Z</time>
      </trkpt>
      <trkpt lat="43.25294" lon="-1.21908">
        <ele>192.199134</ele>
        <time>2026-05-22T07:04:29.000Z</time>
      </trkpt>
      <trkpt lat="43.25291" lon="-1.21906">
        <ele>192.317919</ele>
        <time>2026-05-22T07:04:30.000Z</time>
      </trkpt>
      <trkpt lat="43.25287" lon="-1.21903">
        <ele>192.442362</ele>
        <time>2026-05-22T07:04:31.000Z</time>
      </trkpt>
      <trkpt lat="43.25284" lon="-1.21901">
        <ele>192.570687</ele>
        <time>2026-05-22T07:04:32.000Z</time>
      </trkpt>
      <trkpt lat="43.2528" lon="-1.21899">
        <ele>192.697983</ele>
        <time>2026-05-22T07:04:33.000Z</time>
      </trkpt>
      <trkpt lat="43.25277" lon="-1.21896">
        <ele>192.830749</ele>
        <time>2026-05-22T07:04:34.000Z</time>
      </trkpt>
      <trkpt lat="43.25273" lon="-1.21893">
        <ele>192.965134</ele>
        <time>2026-05-22T07:04:35.000Z</time>
      </trkpt>
      <trkpt lat="43.25269" lon="-1.2189">
        <ele>193.105125</ele>
        <time>2026-05-22T07:04:36.000Z</time>
      </trkpt>
      <trkpt lat="43.25265" lon="-1.21888">
        <ele>193.241069</ele>
        <time>2026-05-22T07:04:37.000Z</time>
      </trkpt>
      <trkpt lat="43.25261" lon="-1.21885">
        <ele>193.382849</ele>
        <time>2026-05-22T07:04:38.000Z</time>
      </trkpt>
      <trkpt lat="43.25257" lon="-1.21883">
        <ele>193.518793</ele>
        <time>2026-05-22T07:04:39.000Z</time>
      </trkpt>
      <trkpt lat="43.25253" lon="-1.2188">
        <ele>193.657725</ele>
        <time>2026-05-22T07:04:40.000Z</time>
      </trkpt>
      <trkpt lat="43.25249" lon="-1.21877">
        <ele>193.797716</ele>
        <time>2026-05-22T07:04:41.000Z</time>
      </trkpt>
      <trkpt lat="43.25245" lon="-1.21874">
        <ele>193.940533</ele>
        <time>2026-05-22T07:04:42.000Z</time>
      </trkpt>
      <trkpt lat="43.25242" lon="-1.21871">
        <ele>194.081612</ele>
        <time>2026-05-22T07:04:43.000Z</time>
      </trkpt>
      <trkpt lat="43.25238" lon="-1.21868">
        <ele>194.223809</ele>
        <time>2026-05-22T07:04:44.000Z</time>
      </trkpt>
      <trkpt lat="43.25234" lon="-1.21866">
        <ele>194.369467</ele>
        <time>2026-05-22T07:04:45.000Z</time>
      </trkpt>
      <trkpt lat="43.2523" lon="-1.21863">
        <ele>194.512284</ele>
        <time>2026-05-22T07:04:46.000Z</time>
      </trkpt>
      <trkpt lat="43.25226" lon="-1.2186">
        <ele>194.638041</ele>
        <time>2026-05-22T07:04:47.000Z</time>
      </trkpt>
      <trkpt lat="43.25222" lon="-1.21857">
        <ele>194.764893</ele>
        <time>2026-05-22T07:04:48.000Z</time>
      </trkpt>
      <trkpt lat="43.25217" lon="-1.21854">
        <ele>194.892969</ele>
        <time>2026-05-22T07:04:49.000Z</time>
      </trkpt>
      <trkpt lat="43.25213" lon="-1.21851">
        <ele>195.022803</ele>
        <time>2026-05-22T07:04:50.000Z</time>
      </trkpt>
      <trkpt lat="43.25209" lon="-1.21848">
        <ele>195.155457</ele>
        <time>2026-05-22T07:04:51.000Z</time>
      </trkpt>
      <trkpt lat="43.25205" lon="-1.21845">
        <ele>195.292967</ele>
        <time>2026-05-22T07:04:52.000Z</time>
      </trkpt>
      <trkpt lat="43.252" lon="-1.21842">
        <ele>195.42864</ele>
        <time>2026-05-22T07:04:53.000Z</time>
      </trkpt>
      <trkpt lat="43.25196" lon="-1.21839">
        <ele>195.564266</ele>
        <time>2026-05-22T07:04:54.000Z</time>
      </trkpt>
      <trkpt lat="43.25191" lon="-1.21836">
        <ele>195.697589</ele>
        <time>2026-05-22T07:04:55.000Z</time>
      </trkpt>
      <trkpt lat="43.25187" lon="-1.21834">
        <ele>195.830913</ele>
        <time>2026-05-22T07:04:56.000Z</time>
      </trkpt>
      <trkpt lat="43.25182" lon="-1.21832">
        <ele>195.959103</ele>
        <time>2026-05-22T07:04:57.000Z</time>
      </trkpt>
      <trkpt lat="43.25178" lon="-1.21829">
        <ele>196.087294</ele>
        <time>2026-05-22T07:04:58.000Z</time>
      </trkpt>
      <trkpt lat="43.25174" lon="-1.21827">
        <ele>196.204186</ele>
        <time>2026-05-22T07:04:59.000Z</time>
      </trkpt>
      <trkpt lat="43.2517" lon="-1.21826">
        <ele>196.313955</ele>
        <time>2026-05-22T07:05:00.000Z</time>
      </trkpt>
      <trkpt lat="43.25167" lon="-1.21824">
        <ele>196.421708</ele>
        <time>2026-05-22T07:05:01.000Z</time>
      </trkpt>
      <trkpt lat="43.25163" lon="-1.21822">
        <ele>196.524237</ele>
        <time>2026-05-22T07:05:02.000Z</time>
      </trkpt>
      <trkpt lat="43.2516" lon="-1.21821">
        <ele>196.628136</ele>
        <time>2026-05-22T07:05:03.000Z</time>
      </trkpt>
      <trkpt lat="43.25156" lon="-1.21819">
        <ele>196.737905</ele>
        <time>2026-05-22T07:05:04.000Z</time>
      </trkpt>
      <trkpt lat="43.25152" lon="-1.21817">
        <ele>196.841846</ele>
        <time>2026-05-22T07:05:05.000Z</time>
      </trkpt>
      <trkpt lat="43.25149" lon="-1.21815">
        <ele>196.943999</ele>
        <time>2026-05-22T07:05:06.000Z</time>
      </trkpt>
      <trkpt lat="43.25146" lon="-1.21814">
        <ele>197.040651</ele>
        <time>2026-05-22T07:05:07.000Z</time>
      </trkpt>
      <trkpt lat="43.25142" lon="-1.21812">
        <ele>197.141287</ele>
        <time>2026-05-22T07:05:08.000Z</time>
      </trkpt>
      <trkpt lat="43.25139" lon="-1.2181">
        <ele>197.245228</ele>
        <time>2026-05-22T07:05:09.000Z</time>
      </trkpt>
      <trkpt lat="43.25135" lon="-1.21809">
        <ele>197.341229</ele>
        <time>2026-05-22T07:05:10.000Z</time>
      </trkpt>
      <trkpt lat="43.25132" lon="-1.21807">
        <ele>197.440489</ele>
        <time>2026-05-22T07:05:11.000Z</time>
      </trkpt>
      <trkpt lat="43.25129" lon="-1.21805">
        <ele>197.535249</ele>
        <time>2026-05-22T07:05:12.000Z</time>
      </trkpt>
      <trkpt lat="43.25125" lon="-1.21803">
        <ele>197.636627</ele>
        <time>2026-05-22T07:05:13.000Z</time>
      </trkpt>
      <trkpt lat="43.25122" lon="-1.21802">
        <ele>197.727401</ele>
        <time>2026-05-22T07:05:14.000Z</time>
      </trkpt>
      <trkpt lat="43.25119" lon="-1.218">
        <ele>197.823401</ele>
        <time>2026-05-22T07:05:15.000Z</time>
      </trkpt>
      <trkpt lat="43.25115" lon="-1.21798">
        <ele>197.928888</ele>
        <time>2026-05-22T07:05:16.000Z</time>
      </trkpt>
      <trkpt lat="43.25112" lon="-1.21796">
        <ele>198.033585</ele>
        <time>2026-05-22T07:05:17.000Z</time>
      </trkpt>
      <trkpt lat="43.25108" lon="-1.21794">
        <ele>198.136804</ele>
        <time>2026-05-22T07:05:18.000Z</time>
      </trkpt>
      <trkpt lat="43.25105" lon="-1.21793">
        <ele>198.239334</ele>
        <time>2026-05-22T07:05:19.000Z</time>
      </trkpt>
      <trkpt lat="43.25101" lon="-1.21791">
        <ele>198.343834</ele>
        <time>2026-05-22T07:05:20.000Z</time>
      </trkpt>
      <trkpt lat="43.25098" lon="-1.2179">
        <ele>198.44931</ele>
        <time>2026-05-22T07:05:21.000Z</time>
      </trkpt>
      <trkpt lat="43.25094" lon="-1.21788">
        <ele>198.556442</ele>
        <time>2026-05-22T07:05:22.000Z</time>
      </trkpt>
      <trkpt lat="43.2509" lon="-1.21786">
        <ele>198.65966</ele>
        <time>2026-05-22T07:05:23.000Z</time>
      </trkpt>
      <trkpt lat="43.25087" lon="-1.21785">
        <ele>198.75892</ele>
        <time>2026-05-22T07:05:24.000Z</time>
      </trkpt>
      <trkpt lat="43.25084" lon="-1.21783">
        <ele>198.858541</ele>
        <time>2026-05-22T07:05:25.000Z</time>
      </trkpt>
      <trkpt lat="43.2508" lon="-1.21781">
        <ele>198.967366</ele>
        <time>2026-05-22T07:05:26.000Z</time>
      </trkpt>
      <trkpt lat="43.25077" lon="-1.21779">
        <ele>199.07388</ele>
        <time>2026-05-22T07:05:27.000Z</time>
      </trkpt>
      <trkpt lat="43.25073" lon="-1.21777">
        <ele>199.175757</ele>
        <time>2026-05-22T07:05:28.000Z</time>
      </trkpt>
      <trkpt lat="43.2507" lon="-1.21775">
        <ele>199.278975</ele>
        <time>2026-05-22T07:05:29.000Z</time>
      </trkpt>
      <trkpt lat="43.25066" lon="-1.21774">
        <ele>199.377005</ele>
        <time>2026-05-22T07:05:30.000Z</time>
      </trkpt>
      <trkpt lat="43.25063" lon="-1.21773">
        <ele>199.479808</ele>
        <time>2026-05-22T07:05:31.000Z</time>
      </trkpt>
      <trkpt lat="43.25059" lon="-1.21771">
        <ele>199.464366</ele>
        <time>2026-05-22T07:05:32.000Z</time>
      </trkpt>
      <trkpt lat="43.25055" lon="-1.21769">
        <ele>199.436813</ele>
        <time>2026-05-22T07:05:33.000Z</time>
      </trkpt>
      <trkpt lat="43.25052" lon="-1.21767">
        <ele>199.409259</ele>
        <time>2026-05-22T07:05:34.000Z</time>
      </trkpt>
      <trkpt lat="43.25048" lon="-1.21765">
        <ele>199.380548</ele>
        <time>2026-05-22T07:05:35.000Z</time>
      </trkpt>
      <trkpt lat="43.25044" lon="-1.21763">
        <ele>199.350969</ele>
        <time>2026-05-22T07:05:36.000Z</time>
      </trkpt>
      <trkpt lat="43.25041" lon="-1.21762">
        <ele>199.322232</ele>
        <time>2026-05-22T07:05:37.000Z</time>
      </trkpt>
      <trkpt lat="43.25037" lon="-1.2176">
        <ele>199.294562</ele>
        <time>2026-05-22T07:05:38.000Z</time>
      </trkpt>
      <trkpt lat="43.25033" lon="-1.21758">
        <ele>199.266205</ele>
        <time>2026-05-22T07:05:39.000Z</time>
      </trkpt>
      <trkpt lat="43.2503" lon="-1.21757">
        <ele>199.23801</ele>
        <time>2026-05-22T07:05:40.000Z</time>
      </trkpt>
      <trkpt lat="43.25026" lon="-1.21755">
        <ele>199.209816</ele>
        <time>2026-05-22T07:05:41.000Z</time>
      </trkpt>
      <trkpt lat="43.25022" lon="-1.21753">
        <ele>199.182314</ele>
        <time>2026-05-22T07:05:42.000Z</time>
      </trkpt>
      <trkpt lat="43.25019" lon="-1.21752">
        <ele>199.153957</ele>
        <time>2026-05-22T07:05:43.000Z</time>
      </trkpt>
      <trkpt lat="43.25015" lon="-1.2175">
        <ele>199.124052</ele>
        <time>2026-05-22T07:05:44.000Z</time>
      </trkpt>
      <trkpt lat="43.25011" lon="-1.21748">
        <ele>199.095004</ele>
        <time>2026-05-22T07:05:45.000Z</time>
      </trkpt>
      <trkpt lat="43.25007" lon="-1.21746">
        <ele>199.065611</ele>
        <time>2026-05-22T07:05:46.000Z</time>
      </trkpt>
      <trkpt lat="43.25003" lon="-1.21745">
        <ele>199.036027</ele>
        <time>2026-05-22T07:05:47.000Z</time>
      </trkpt>
      <trkpt lat="43.24999" lon="-1.21743">
        <ele>199.005594</ele>
        <time>2026-05-22T07:05:48.000Z</time>
      </trkpt>
      <trkpt lat="43.24995" lon="-1.21741">
        <ele>198.974831</ele>
        <time>2026-05-22T07:05:49.000Z</time>
      </trkpt>
      <trkpt lat="43.24991" lon="-1.21739">
        <ele>198.942852</ele>
        <time>2026-05-22T07:05:50.000Z</time>
      </trkpt>
      <trkpt lat="43.24987" lon="-1.21738">
        <ele>198.912013</ele>
        <time>2026-05-22T07:05:51.000Z</time>
      </trkpt>
      <trkpt lat="43.24983" lon="-1.21736">
        <ele>198.879633</ele>
        <time>2026-05-22T07:05:52.000Z</time>
      </trkpt>
      <trkpt lat="43.24978" lon="-1.21735">
        <ele>198.846922</ele>
        <time>2026-05-22T07:05:53.000Z</time>
      </trkpt>
      <trkpt lat="43.24974" lon="-1.21734">
        <ele>198.814317</ele>
        <time>2026-05-22T07:05:54.000Z</time>
      </trkpt>
      <trkpt lat="43.2497" lon="-1.21732">
        <ele>198.782425</ele>
        <time>2026-05-22T07:05:55.000Z</time>
      </trkpt>
      <trkpt lat="43.24965" lon="-1.21731">
        <ele>198.749714</ele>
        <time>2026-05-22T07:05:56.000Z</time>
      </trkpt>
      <trkpt lat="43.2496" lon="-1.2173">
        <ele>198.714867</ele>
        <time>2026-05-22T07:05:57.000Z</time>
      </trkpt>
      <trkpt lat="43.24956" lon="-1.21728">
        <ele>198.678839</ele>
        <time>2026-05-22T07:05:58.000Z</time>
      </trkpt>
      <trkpt lat="43.24951" lon="-1.21727">
        <ele>198.644594</ele>
        <time>2026-05-22T07:05:59.000Z</time>
      </trkpt>
      <trkpt lat="43.24946" lon="-1.21725">
        <ele>198.609523</ele>
        <time>2026-05-22T07:06:00.000Z</time>
      </trkpt>
      <trkpt lat="43.24941" lon="-1.21724">
        <ele>198.573035</ele>
        <time>2026-05-22T07:06:01.000Z</time>
      </trkpt>
      <trkpt lat="43.24936" lon="-1.21722">
        <ele>198.535234</ele>
        <time>2026-05-22T07:06:02.000Z</time>
      </trkpt>
      <trkpt lat="43.24931" lon="-1.21721">
        <ele>198.495793</ele>
        <time>2026-05-22T07:06:03.000Z</time>
      </trkpt>
      <trkpt lat="43.24926" lon="-1.21719">
        <ele>198.456111</ele>
        <time>2026-05-22T07:06:04.000Z</time>
      </trkpt>
      <trkpt lat="43.2492" lon="-1.21717">
        <ele>198.416069</ele>
        <time>2026-05-22T07:06:05.000Z</time>
      </trkpt>
      <trkpt lat="43.24915" lon="-1.21716">
        <ele>198.373983</ele>
        <time>2026-05-22T07:06:06.000Z</time>
      </trkpt>
      <trkpt lat="43.24908" lon="-1.21714">
        <ele>198.327812</ele>
        <time>2026-05-22T07:06:07.000Z</time>
      </trkpt>
      <trkpt lat="43.24902" lon="-1.21712">
        <ele>198.279618</ele>
        <time>2026-05-22T07:06:08.000Z</time>
      </trkpt>
      <trkpt lat="43.24895" lon="-1.2171">
        <ele>198.230606</ele>
        <time>2026-05-22T07:06:09.000Z</time>
      </trkpt>
      <trkpt lat="43.24888" lon="-1.21709">
        <ele>198.162976</ele>
        <time>2026-05-22T07:06:10.000Z</time>
      </trkpt>
      <trkpt lat="43.24881" lon="-1.21707">
        <ele>197.853534</ele>
        <time>2026-05-22T07:06:11.000Z</time>
      </trkpt>
      <trkpt lat="43.24874" lon="-1.21704">
        <ele>197.535105</ele>
        <time>2026-05-22T07:06:12.000Z</time>
      </trkpt>
      <trkpt lat="43.24866" lon="-1.21703">
        <ele>197.207515</ele>
        <time>2026-05-22T07:06:13.000Z</time>
      </trkpt>
      <trkpt lat="43.24859" lon="-1.21702">
        <ele>196.87344</ele>
        <time>2026-05-22T07:06:14.000Z</time>
      </trkpt>
      <trkpt lat="43.2485" lon="-1.21701">
        <ele>196.527204</ele>
        <time>2026-05-22T07:06:15.000Z</time>
      </trkpt>
      <trkpt lat="43.24842" lon="-1.21701">
        <ele>196.173452</ele>
        <time>2026-05-22T07:06:16.000Z</time>
      </trkpt>
      <trkpt lat="43.24834" lon="-1.21701">
        <ele>195.82407</ele>
        <time>2026-05-22T07:06:17.000Z</time>
      </trkpt>
      <trkpt lat="43.24826" lon="-1.21701">
        <ele>195.482996</ele>
        <time>2026-05-22T07:06:18.000Z</time>
      </trkpt>
      <trkpt lat="43.24818" lon="-1.21702">
        <ele>195.132953</ele>
        <time>2026-05-22T07:06:19.000Z</time>
      </trkpt>
      <trkpt lat="43.2481" lon="-1.21703">
        <ele>194.786953</ele>
        <time>2026-05-22T07:06:20.000Z</time>
      </trkpt>
      <trkpt lat="43.24802" lon="-1.21704">
        <ele>194.44864</ele>
        <time>2026-05-22T07:06:21.000Z</time>
      </trkpt>
      <trkpt lat="43.24794" lon="-1.21705">
        <ele>194.10665</ele>
        <time>2026-05-22T07:06:22.000Z</time>
      </trkpt>
      <trkpt lat="43.24786" lon="-1.21705">
        <ele>193.773397</ele>
        <time>2026-05-22T07:06:23.000Z</time>
      </trkpt>
      <trkpt lat="43.24778" lon="-1.21706">
        <ele>193.435896</ele>
        <time>2026-05-22T07:06:24.000Z</time>
      </trkpt>
      <trkpt lat="43.2477" lon="-1.21707">
        <ele>193.093906</ele>
        <time>2026-05-22T07:06:25.000Z</time>
      </trkpt>
      <trkpt lat="43.24762" lon="-1.21708">
        <ele>192.751649</ele>
        <time>2026-05-22T07:06:26.000Z</time>
      </trkpt>
      <trkpt lat="43.24754" lon="-1.21709">
        <ele>192.400616</ele>
        <time>2026-05-22T07:06:27.000Z</time>
      </trkpt>
      <trkpt lat="43.24746" lon="-1.2171">
        <ele>192.046117</ele>
        <time>2026-05-22T07:06:28.000Z</time>
      </trkpt>
      <trkpt lat="43.24737" lon="-1.21711">
        <ele>191.695633</ele>
        <time>2026-05-22T07:06:29.000Z</time>
      </trkpt>
      <trkpt lat="43.24729" lon="-1.21712">
        <ele>191.332156</ele>
        <time>2026-05-22T07:06:30.000Z</time>
      </trkpt>
      <trkpt lat="43.2472" lon="-1.21713">
        <ele>190.972642</ele>
        <time>2026-05-22T07:06:31.000Z</time>
      </trkpt>
      <trkpt lat="43.24712" lon="-1.21714">
        <ele>190.604919</ele>
        <time>2026-05-22T07:06:32.000Z</time>
      </trkpt>
      <trkpt lat="43.24703" lon="-1.21715">
        <ele>190.385696</ele>
        <time>2026-05-22T07:06:33.000Z</time>
      </trkpt>
      <trkpt lat="43.24694" lon="-1.21716">
        <ele>190.212819</ele>
        <time>2026-05-22T07:06:34.000Z</time>
      </trkpt>
      <trkpt lat="43.24685" lon="-1.21717">
        <ele>190.037988</ele>
        <time>2026-05-22T07:06:35.000Z</time>
      </trkpt>
      <trkpt lat="43.24676" lon="-1.21717">
        <ele>189.85925</ele>
        <time>2026-05-22T07:06:36.000Z</time>
      </trkpt>
      <trkpt lat="43.24667" lon="-1.21718">
        <ele>189.678738</ele>
        <time>2026-05-22T07:06:37.000Z</time>
      </trkpt>
      <trkpt lat="43.24658" lon="-1.21719">
        <ele>189.496404</ele>
        <time>2026-05-22T07:06:38.000Z</time>
      </trkpt>
      <trkpt lat="43.24648" lon="-1.21718">
        <ele>189.31198</ele>
        <time>2026-05-22T07:06:39.000Z</time>
      </trkpt>
      <trkpt lat="43.24639" lon="-1.21716">
        <ele>189.127983</ele>
        <time>2026-05-22T07:06:40.000Z</time>
      </trkpt>
      <trkpt lat="43.2463" lon="-1.21713">
        <ele>188.940154</ele>
        <time>2026-05-22T07:06:41.000Z</time>
      </trkpt>
      <trkpt lat="43.24621" lon="-1.21709">
        <ele>188.752522</ele>
        <time>2026-05-22T07:06:42.000Z</time>
      </trkpt>
      <trkpt lat="43.24612" lon="-1.21704">
        <ele>188.564262</ele>
        <time>2026-05-22T07:06:43.000Z</time>
      </trkpt>
      <trkpt lat="43.24603" lon="-1.21698">
        <ele>188.37779</ele>
        <time>2026-05-22T07:06:44.000Z</time>
      </trkpt>
      <trkpt lat="43.24595" lon="-1.21693">
        <ele>188.192522</ele>
        <time>2026-05-22T07:06:45.000Z</time>
      </trkpt>
      <trkpt lat="43.24586" lon="-1.21687">
        <ele>188.014964</ele>
        <time>2026-05-22T07:06:46.000Z</time>
      </trkpt>
      <trkpt lat="43.24578" lon="-1.21682">
        <ele>187.843923</ele>
        <time>2026-05-22T07:06:47.000Z</time>
      </trkpt>
      <trkpt lat="43.24571" lon="-1.21678">
        <ele>187.682995</ele>
        <time>2026-05-22T07:06:48.000Z</time>
      </trkpt>
      <trkpt lat="43.24564" lon="-1.21673">
        <ele>187.528011</ele>
        <time>2026-05-22T07:06:49.000Z</time>
      </trkpt>
      <trkpt lat="43.24557" lon="-1.21669">
        <ele>187.377739</ele>
        <time>2026-05-22T07:06:50.000Z</time>
      </trkpt>
      <trkpt lat="43.2455" lon="-1.21665">
        <ele>187.235818</ele>
        <time>2026-05-22T07:06:51.000Z</time>
      </trkpt>
      <trkpt lat="43.24544" lon="-1.21661">
        <ele>187.104586</ele>
        <time>2026-05-22T07:06:52.000Z</time>
      </trkpt>
      <trkpt lat="43.24538" lon="-1.21657">
        <ele>187.019483</ele>
        <time>2026-05-22T07:06:53.000Z</time>
      </trkpt>
      <trkpt lat="43.24533" lon="-1.21654">
        <ele>187.170586</ele>
        <time>2026-05-22T07:06:54.000Z</time>
      </trkpt>
      <trkpt lat="43.24528" lon="-1.2165">
        <ele>187.312601</ele>
        <time>2026-05-22T07:06:55.000Z</time>
      </trkpt>
      <trkpt lat="43.24522" lon="-1.21647">
        <ele>187.452323</ele>
        <time>2026-05-22T07:06:56.000Z</time>
      </trkpt>
      <trkpt lat="43.24518" lon="-1.21644">
        <ele>187.585992</ele>
        <time>2026-05-22T07:06:57.000Z</time>
      </trkpt>
      <trkpt lat="43.24513" lon="-1.21642">
        <ele>187.712044</ele>
        <time>2026-05-22T07:06:58.000Z</time>
      </trkpt>
      <trkpt lat="43.24509" lon="-1.21639">
        <ele>187.832777</ele>
        <time>2026-05-22T07:06:59.000Z</time>
      </trkpt>
      <trkpt lat="43.24505" lon="-1.21636">
        <ele>187.945254</ele>
        <time>2026-05-22T07:07:00.000Z</time>
      </trkpt>
      <trkpt lat="43.24501" lon="-1.21634">
        <ele>188.051585</ele>
        <time>2026-05-22T07:07:01.000Z</time>
      </trkpt>
      <trkpt lat="43.24497" lon="-1.21632">
        <ele>188.157915</ele>
        <time>2026-05-22T07:07:02.000Z</time>
      </trkpt>
      <trkpt lat="43.24493" lon="-1.21629">
        <ele>188.266552</ele>
        <time>2026-05-22T07:07:03.000Z</time>
      </trkpt>
      <trkpt lat="43.24489" lon="-1.21627">
        <ele>188.378207</ele>
        <time>2026-05-22T07:07:04.000Z</time>
      </trkpt>
      <trkpt lat="43.24485" lon="-1.21625">
        <ele>188.489159</ele>
        <time>2026-05-22T07:07:05.000Z</time>
      </trkpt>
      <trkpt lat="43.24481" lon="-1.21622">
        <ele>188.595519</ele>
        <time>2026-05-22T07:07:06.000Z</time>
      </trkpt>
      <trkpt lat="43.24477" lon="-1.21619">
        <ele>188.704127</ele>
        <time>2026-05-22T07:07:07.000Z</time>
      </trkpt>
      <trkpt lat="43.24473" lon="-1.21617">
        <ele>188.810488</ele>
        <time>2026-05-22T07:07:08.000Z</time>
      </trkpt>
      <trkpt lat="43.24469" lon="-1.21614">
        <ele>188.919096</ele>
        <time>2026-05-22T07:07:09.000Z</time>
      </trkpt>
      <trkpt lat="43.24465" lon="-1.21611">
        <ele>189.031573</ele>
        <time>2026-05-22T07:07:10.000Z</time>
      </trkpt>
      <trkpt lat="43.24461" lon="-1.21609">
        <ele>189.140991</ele>
        <time>2026-05-22T07:07:11.000Z</time>
      </trkpt>
      <trkpt lat="43.24457" lon="-1.21606">
        <ele>189.246615</ele>
        <time>2026-05-22T07:07:12.000Z</time>
      </trkpt>
      <trkpt lat="43.24454" lon="-1.21604">
        <ele>189.350649</ele>
        <time>2026-05-22T07:07:13.000Z</time>
      </trkpt>
      <trkpt lat="43.2445" lon="-1.21602">
        <ele>189.450945</ele>
        <time>2026-05-22T07:07:14.000Z</time>
      </trkpt>
      <trkpt lat="43.24446" lon="-1.216">
        <ele>189.556569</ele>
        <time>2026-05-22T07:07:15.000Z</time>
      </trkpt>
      <trkpt lat="43.24442" lon="-1.21598">
        <ele>189.665206</ele>
        <time>2026-05-22T07:07:16.000Z</time>
      </trkpt>
      <trkpt lat="43.24438" lon="-1.21595">
        <ele>189.771567</ele>
        <time>2026-05-22T07:07:17.000Z</time>
      </trkpt>
      <trkpt lat="43.24434" lon="-1.21592">
        <ele>189.877126</ele>
        <time>2026-05-22T07:07:18.000Z</time>
      </trkpt>
      <trkpt lat="43.24431" lon="-1.2159">
        <ele>189.98116</ele>
        <time>2026-05-22T07:07:19.000Z</time>
      </trkpt>
      <trkpt lat="43.24427" lon="-1.21588">
        <ele>190.086719</ele>
        <time>2026-05-22T07:07:20.000Z</time>
      </trkpt>
      <trkpt lat="43.24423" lon="-1.21585">
        <ele>190.195327</ele>
        <time>2026-05-22T07:07:21.000Z</time>
      </trkpt>
      <trkpt lat="43.24419" lon="-1.21583">
        <ele>190.294798</ele>
        <time>2026-05-22T07:07:22.000Z</time>
      </trkpt>
      <trkpt lat="43.24416" lon="-1.2158">
        <ele>190.392003</ele>
        <time>2026-05-22T07:07:23.000Z</time>
      </trkpt>
      <trkpt lat="43.24412" lon="-1.21578">
        <ele>190.486954</ele>
        <time>2026-05-22T07:07:24.000Z</time>
      </trkpt>
      <trkpt lat="43.24409" lon="-1.21576">
        <ele>190.578853</ele>
        <time>2026-05-22T07:07:25.000Z</time>
      </trkpt>
      <trkpt lat="43.24406" lon="-1.21574">
        <ele>190.665484</ele>
        <time>2026-05-22T07:07:26.000Z</time>
      </trkpt>
      <trkpt lat="43.24402" lon="-1.21572">
        <ele>190.759643</ele>
        <time>2026-05-22T07:07:27.000Z</time>
      </trkpt>
      <trkpt lat="43.24399" lon="-1.2157">
        <ele>190.85076</ele>
        <time>2026-05-22T07:07:28.000Z</time>
      </trkpt>
      <trkpt lat="43.24396" lon="-1.21568">
        <ele>190.946446</ele>
        <time>2026-05-22T07:07:29.000Z</time>
      </trkpt>
      <trkpt lat="43.24392" lon="-1.21566">
        <ele>191.041416</ele>
        <time>2026-05-22T07:07:30.000Z</time>
      </trkpt>
      <trkpt lat="43.24389" lon="-1.21563">
        <ele>191.134127</ele>
        <time>2026-05-22T07:07:31.000Z</time>
      </trkpt>
      <trkpt lat="43.24386" lon="-1.21561">
        <ele>191.225244</ele>
        <time>2026-05-22T07:07:32.000Z</time>
      </trkpt>
      <trkpt lat="43.24382" lon="-1.21559">
        <ele>191.316361</ele>
        <time>2026-05-22T07:07:33.000Z</time>
      </trkpt>
      <trkpt lat="43.24379" lon="-1.21557">
        <ele>191.41052</ele>
        <time>2026-05-22T07:07:34.000Z</time>
      </trkpt>
      <trkpt lat="43.24375" lon="-1.21555">
        <ele>191.50025</ele>
        <time>2026-05-22T07:07:35.000Z</time>
      </trkpt>
      <trkpt lat="43.24372" lon="-1.21553">
        <ele>191.488118</ele>
        <time>2026-05-22T07:07:36.000Z</time>
      </trkpt>
      <trkpt lat="43.24368" lon="-1.2155">
        <ele>191.474971</ele>
        <time>2026-05-22T07:07:37.000Z</time>
      </trkpt>
      <trkpt lat="43.24364" lon="-1.21547">
        <ele>191.461209</ele>
        <time>2026-05-22T07:07:38.000Z</time>
      </trkpt>
      <trkpt lat="43.24359" lon="-1.21544">
        <ele>191.447356</ele>
        <time>2026-05-22T07:07:39.000Z</time>
      </trkpt>
      <trkpt lat="43.24355" lon="-1.21542">
        <ele>191.433047</ele>
        <time>2026-05-22T07:07:40.000Z</time>
      </trkpt>
      <trkpt lat="43.2435" lon="-1.21539">
        <ele>191.417828</ele>
        <time>2026-05-22T07:07:41.000Z</time>
      </trkpt>
      <trkpt lat="43.24345" lon="-1.21536">
        <ele>191.401712</ele>
        <time>2026-05-22T07:07:42.000Z</time>
      </trkpt>
      <trkpt lat="43.2434" lon="-1.21533">
        <ele>191.38469</ele>
        <time>2026-05-22T07:07:43.000Z</time>
      </trkpt>
      <trkpt lat="43.24335" lon="-1.21529">
        <ele>191.367122</ele>
        <time>2026-05-22T07:07:44.000Z</time>
      </trkpt>
      <trkpt lat="43.24329" lon="-1.21525">
        <ele>191.34783</ele>
        <time>2026-05-22T07:07:45.000Z</time>
      </trkpt>
      <trkpt lat="43.24323" lon="-1.21522">
        <ele>191.328807</ele>
        <time>2026-05-22T07:07:46.000Z</time>
      </trkpt>
      <trkpt lat="43.24317" lon="-1.21518">
        <ele>191.308344</ele>
        <time>2026-05-22T07:07:47.000Z</time>
      </trkpt>
      <trkpt lat="43.24311" lon="-1.21513">
        <ele>191.287154</ele>
        <time>2026-05-22T07:07:48.000Z</time>
      </trkpt>
      <trkpt lat="43.24304" lon="-1.21509">
        <ele>191.266058</ele>
        <time>2026-05-22T07:07:49.000Z</time>
      </trkpt>
      <trkpt lat="43.24298" lon="-1.21505">
        <ele>191.24441</ele>
        <time>2026-05-22T07:07:50.000Z</time>
      </trkpt>
      <trkpt lat="43.24291" lon="-1.215">
        <ele>191.22213</ele>
        <time>2026-05-22T07:07:51.000Z</time>
      </trkpt>
      <trkpt lat="43.24284" lon="-1.21496">
        <ele>191.199041</ele>
        <time>2026-05-22T07:07:52.000Z</time>
      </trkpt>
      <trkpt lat="43.24277" lon="-1.21491">
        <ele>191.175589</ele>
        <time>2026-05-22T07:07:53.000Z</time>
      </trkpt>
      <trkpt lat="43.2427" lon="-1.21487">
        <ele>191.15232</ele>
        <time>2026-05-22T07:07:54.000Z</time>
      </trkpt>
      <trkpt lat="43.24263" lon="-1.21482">
        <ele>191.129232</ele>
        <time>2026-05-22T07:07:55.000Z</time>
      </trkpt>
      <trkpt lat="43.24256" lon="-1.21478">
        <ele>191.106319</ele>
        <time>2026-05-22T07:07:56.000Z</time>
      </trkpt>
      <trkpt lat="43.24249" lon="-1.21473">
        <ele>191.084227</ele>
        <time>2026-05-22T07:07:57.000Z</time>
      </trkpt>
      <trkpt lat="43.24243" lon="-1.2147">
        <ele>191.063672</ele>
        <time>2026-05-22T07:07:58.000Z</time>
      </trkpt>
      <trkpt lat="43.24237" lon="-1.21466">
        <ele>191.043479</ele>
        <time>2026-05-22T07:07:59.000Z</time>
      </trkpt>
      <trkpt lat="43.24231" lon="-1.21462">
        <ele>191.025099</ele>
        <time>2026-05-22T07:08:00.000Z</time>
      </trkpt>
      <trkpt lat="43.24226" lon="-1.21459">
        <ele>191.007353</ele>
        <time>2026-05-22T07:08:01.000Z</time>
      </trkpt>
      <trkpt lat="43.24221" lon="-1.21456">
        <ele>190.990965</ele>
        <time>2026-05-22T07:08:02.000Z</time>
      </trkpt>
      <trkpt lat="43.24216" lon="-1.21453">
        <ele>190.975483</ele>
        <time>2026-05-22T07:08:03.000Z</time>
      </trkpt>
      <trkpt lat="43.24212" lon="-1.2145">
        <ele>190.990064</ele>
        <time>2026-05-22T07:08:04.000Z</time>
      </trkpt>
      <trkpt lat="43.24208" lon="-1.21447">
        <ele>191.127037</ele>
        <time>2026-05-22T07:08:05.000Z</time>
      </trkpt>
      <trkpt lat="43.24204" lon="-1.21445">
        <ele>191.250788</ele>
        <time>2026-05-22T07:08:06.000Z</time>
      </trkpt>
      <trkpt lat="43.24201" lon="-1.21443">
        <ele>191.364146</ele>
        <time>2026-05-22T07:08:07.000Z</time>
      </trkpt>
      <trkpt lat="43.24198" lon="-1.21441">
        <ele>191.481289</ele>
        <time>2026-05-22T07:08:08.000Z</time>
      </trkpt>
      <trkpt lat="43.24194" lon="-1.21438">
        <ele>191.598432</ele>
        <time>2026-05-22T07:08:09.000Z</time>
      </trkpt>
      <trkpt lat="43.24191" lon="-1.21436">
        <ele>191.708011</ele>
        <time>2026-05-22T07:08:10.000Z</time>
      </trkpt>
      <trkpt lat="43.24188" lon="-1.21434">
        <ele>191.814761</ele>
        <time>2026-05-22T07:08:11.000Z</time>
      </trkpt>
      <trkpt lat="43.24185" lon="-1.21433">
        <ele>191.914266</ele>
        <time>2026-05-22T07:08:12.000Z</time>
      </trkpt>
      <trkpt lat="43.24182" lon="-1.21431">
        <ele>192.01377</ele>
        <time>2026-05-22T07:08:13.000Z</time>
      </trkpt>
      <trkpt lat="43.24179" lon="-1.2143">
        <ele>192.121547</ele>
        <time>2026-05-22T07:08:14.000Z</time>
      </trkpt>
      <trkpt lat="43.24176" lon="-1.21428">
        <ele>192.227351</ele>
        <time>2026-05-22T07:08:15.000Z</time>
      </trkpt>
      <trkpt lat="43.24173" lon="-1.21426">
        <ele>192.325626</ele>
        <time>2026-05-22T07:08:16.000Z</time>
      </trkpt>
      <trkpt lat="43.2417" lon="-1.21424">
        <ele>192.426172</ele>
        <time>2026-05-22T07:08:17.000Z</time>
      </trkpt>
      <trkpt lat="43.24167" lon="-1.21422">
        <ele>192.528208</ele>
        <time>2026-05-22T07:08:18.000Z</time>
      </trkpt>
      <trkpt lat="43.24164" lon="-1.2142">
        <ele>192.623625</ele>
        <time>2026-05-22T07:08:19.000Z</time>
      </trkpt>
      <trkpt lat="43.24162" lon="-1.21419">
        <ele>192.70959</ele>
        <time>2026-05-22T07:08:20.000Z</time>
      </trkpt>
      <trkpt lat="43.24159" lon="-1.21417">
        <ele>192.798389</ele>
        <time>2026-05-22T07:08:21.000Z</time>
      </trkpt>
      <trkpt lat="43.24156" lon="-1.21416">
        <ele>192.892061</ele>
        <time>2026-05-22T07:08:22.000Z</time>
      </trkpt>
      <trkpt lat="43.24153" lon="-1.21413">
        <ele>192.99644</ele>
        <time>2026-05-22T07:08:23.000Z</time>
      </trkpt>
      <trkpt lat="43.24151" lon="-1.21411">
        <ele>193.094293</ele>
        <time>2026-05-22T07:08:24.000Z</time>
      </trkpt>
      <trkpt lat="43.24148" lon="-1.21409">
        <ele>193.187178</ele>
        <time>2026-05-22T07:08:25.000Z</time>
      </trkpt>
      <trkpt lat="43.24145" lon="-1.21408">
        <ele>193.276349</ele>
        <time>2026-05-22T07:08:26.000Z</time>
      </trkpt>
      <trkpt lat="43.24143" lon="-1.21407">
        <ele>193.362587</ele>
        <time>2026-05-22T07:08:27.000Z</time>
      </trkpt>
      <trkpt lat="43.2414" lon="-1.21405">
        <ele>193.443856</ele>
        <time>2026-05-22T07:08:28.000Z</time>
      </trkpt>
      <trkpt lat="43.24138" lon="-1.21404">
        <ele>193.522267</ele>
        <time>2026-05-22T07:08:29.000Z</time>
      </trkpt>
      <trkpt lat="43.24136" lon="-1.21402">
        <ele>193.605418</ele>
        <time>2026-05-22T07:08:30.000Z</time>
      </trkpt>
      <trkpt lat="43.24133" lon="-1.21401">
        <ele>193.68301</ele>
        <time>2026-05-22T07:08:31.000Z</time>
      </trkpt>
      <trkpt lat="43.24131" lon="-1.21399">
        <ele>193.760601</ele>
        <time>2026-05-22T07:08:32.000Z</time>
      </trkpt>
      <trkpt lat="43.24129" lon="-1.21397">
        <ele>193.839959</ele>
        <time>2026-05-22T07:08:33.000Z</time>
      </trkpt>
      <trkpt lat="43.24127" lon="-1.21396">
        <ele>193.914605</ele>
        <time>2026-05-22T07:08:34.000Z</time>
      </trkpt>
      <trkpt lat="43.24125" lon="-1.21395">
        <ele>193.988382</ele>
        <time>2026-05-22T07:08:35.000Z</time>
      </trkpt>
      <trkpt lat="43.24122" lon="-1.21393">
        <ele>194.065065</ele>
        <time>2026-05-22T07:08:36.000Z</time>
      </trkpt>
      <trkpt lat="43.2412" lon="-1.21392">
        <ele>194.146335</ele>
        <time>2026-05-22T07:08:37.000Z</time>
      </trkpt>
      <trkpt lat="43.24118" lon="-1.21391">
        <ele>194.22289</ele>
        <time>2026-05-22T07:08:38.000Z</time>
      </trkpt>
      <trkpt lat="43.24115" lon="-1.21389">
        <ele>194.305074</ele>
        <time>2026-05-22T07:08:39.000Z</time>
      </trkpt>
      <trkpt lat="43.24113" lon="-1.21387">
        <ele>194.391039</ele>
        <time>2026-05-22T07:08:40.000Z</time>
      </trkpt>
      <trkpt lat="43.2411" lon="-1.21386">
        <ele>194.481815</ele>
        <time>2026-05-22T07:08:41.000Z</time>
      </trkpt>
      <trkpt lat="43.24107" lon="-1.21384">
        <ele>194.579221</ele>
        <time>2026-05-22T07:08:42.000Z</time>
      </trkpt>
      <trkpt lat="43.24105" lon="-1.21383">
        <ele>194.66802</ele>
        <time>2026-05-22T07:08:43.000Z</time>
      </trkpt>
      <trkpt lat="43.24102" lon="-1.21381">
        <ele>194.763437</ele>
        <time>2026-05-22T07:08:44.000Z</time>
      </trkpt>
      <trkpt lat="43.24099" lon="-1.2138">
        <ele>194.854213</ele>
        <time>2026-05-22T07:08:45.000Z</time>
      </trkpt>
      <trkpt lat="43.24096" lon="-1.21378">
        <ele>194.945865</ele>
        <time>2026-05-22T07:08:46.000Z</time>
      </trkpt>
      <trkpt lat="43.24094" lon="-1.21377">
        <ele>195.038736</ele>
        <time>2026-05-22T07:08:47.000Z</time>
      </trkpt>
      <trkpt lat="43.24091" lon="-1.21375">
        <ele>195.133812</ele>
        <time>2026-05-22T07:08:48.000Z</time>
      </trkpt>
      <trkpt lat="43.24088" lon="-1.21374">
        <ele>195.2336</ele>
        <time>2026-05-22T07:08:49.000Z</time>
      </trkpt>
      <trkpt lat="43.24084" lon="-1.21373">
        <ele>195.341245</ele>
        <time>2026-05-22T07:08:50.000Z</time>
      </trkpt>
      <trkpt lat="43.24081" lon="-1.21371">
        <ele>195.451871</ele>
        <time>2026-05-22T07:08:51.000Z</time>
      </trkpt>
      <trkpt lat="43.24077" lon="-1.2137">
        <ele>195.568353</ele>
        <time>2026-05-22T07:08:52.000Z</time>
      </trkpt>
      <trkpt lat="43.24074" lon="-1.21368">
        <ele>195.689251</ele>
        <time>2026-05-22T07:08:53.000Z</time>
      </trkpt>
      <trkpt lat="43.2407" lon="-1.21366">
        <ele>195.822091</ele>
        <time>2026-05-22T07:08:54.000Z</time>
      </trkpt>
      <trkpt lat="43.24065" lon="-1.21365">
        <ele>195.958557</ele>
        <time>2026-05-22T07:08:55.000Z</time>
      </trkpt>
      <trkpt lat="43.24061" lon="-1.21363">
        <ele>196.104633</ele>
        <time>2026-05-22T07:08:56.000Z</time>
      </trkpt>
      <trkpt lat="43.24056" lon="-1.21361">
        <ele>196.260966</ele>
        <time>2026-05-22T07:08:57.000Z</time>
      </trkpt>
      <trkpt lat="43.24051" lon="-1.21359">
        <ele>196.424601</ele>
        <time>2026-05-22T07:08:58.000Z</time>
      </trkpt>
      <trkpt lat="43.24046" lon="-1.21356">
        <ele>196.533414</ele>
        <time>2026-05-22T07:08:59.000Z</time>
      </trkpt>
      <trkpt lat="43.2404" lon="-1.21354">
        <ele>196.303938</ele>
        <time>2026-05-22T07:09:00.000Z</time>
      </trkpt>
      <trkpt lat="43.24035" lon="-1.21352">
        <ele>196.065977</ele>
        <time>2026-05-22T07:09:01.000Z</time>
      </trkpt>
      <trkpt lat="43.24029" lon="-1.21349">
        <ele>195.823343</ele>
        <time>2026-05-22T07:09:02.000Z</time>
      </trkpt>
      <trkpt lat="43.24023" lon="-1.21347">
        <ele>195.572222</ele>
        <time>2026-05-22T07:09:03.000Z</time>
      </trkpt>
      <trkpt lat="43.24017" lon="-1.21344">
        <ele>195.321961</ele>
        <time>2026-05-22T07:09:04.000Z</time>
      </trkpt>
      <trkpt lat="43.24011" lon="-1.21342">
        <ele>195.063217</ele>
        <time>2026-05-22T07:09:05.000Z</time>
      </trkpt>
      <trkpt lat="43.24004" lon="-1.21339">
        <ele>194.800652</ele>
        <time>2026-05-22T07:09:06.000Z</time>
      </trkpt>
      <trkpt lat="43.23998" lon="-1.21336">
        <ele>194.530434</ele>
        <time>2026-05-22T07:09:07.000Z</time>
      </trkpt>
      <trkpt lat="43.23991" lon="-1.21334">
        <ele>194.262337</ele>
        <time>2026-05-22T07:09:08.000Z</time>
      </trkpt>
      <trkpt lat="43.23985" lon="-1.21331">
        <ele>193.986624</ele>
        <time>2026-05-22T07:09:09.000Z</time>
      </trkpt>
      <trkpt lat="43.23978" lon="-1.21328">
        <ele>193.706234</ele>
        <time>2026-05-22T07:09:10.000Z</time>
      </trkpt>
      <trkpt lat="43.23971" lon="-1.21325">
        <ele>193.422035</ele>
        <time>2026-05-22T07:09:11.000Z</time>
      </trkpt>
      <trkpt lat="43.23964" lon="-1.21322">
        <ele>193.134023</ele>
        <time>2026-05-22T07:09:12.000Z</time>
      </trkpt>
      <trkpt lat="43.23958" lon="-1.21319">
        <ele>192.846848</ele>
        <time>2026-05-22T07:09:13.000Z</time>
      </trkpt>
      <trkpt lat="43.2395" lon="-1.21316">
        <ele>192.551193</ele>
        <time>2026-05-22T07:09:14.000Z</time>
      </trkpt>
      <trkpt lat="43.23943" lon="-1.21313">
        <ele>192.25088</ele>
        <time>2026-05-22T07:09:15.000Z</time>
      </trkpt>
      <trkpt lat="43.23936" lon="-1.2131">
        <ele>191.94373</ele>
        <time>2026-05-22T07:09:16.000Z</time>
      </trkpt>
      <trkpt lat="43.23928" lon="-1.21307">
        <ele>191.634933</ele>
        <time>2026-05-22T07:09:17.000Z</time>
      </trkpt>
      <trkpt lat="43.23921" lon="-1.21304">
        <ele>191.325274</ele>
        <time>2026-05-22T07:09:18.000Z</time>
      </trkpt>
      <trkpt lat="43.23914" lon="-1.21301">
        <ele>191.016477</ele>
        <time>2026-05-22T07:09:19.000Z</time>
      </trkpt>
      <trkpt lat="43.23906" lon="-1.21298">
        <ele>190.70301</ele>
        <time>2026-05-22T07:09:20.000Z</time>
      </trkpt>
      <trkpt lat="43.23899" lon="-1.21295">
        <ele>190.387385</ele>
        <time>2026-05-22T07:09:21.000Z</time>
      </trkpt>
      <trkpt lat="43.23891" lon="-1.21292">
        <ele>190.070104</ele>
        <time>2026-05-22T07:09:22.000Z</time>
      </trkpt>
      <trkpt lat="43.23883" lon="-1.21288">
        <ele>189.754862</ele>
        <time>2026-05-22T07:09:23.000Z</time>
      </trkpt>
      <trkpt lat="43.23876" lon="-1.21285">
        <ele>189.437581</ele>
        <time>2026-05-22T07:09:24.000Z</time>
      </trkpt>
      <trkpt lat="43.23868" lon="-1.21282">
        <ele>189.427309</ele>
        <time>2026-05-22T07:09:25.000Z</time>
      </trkpt>
      <trkpt lat="43.23861" lon="-1.21279">
        <ele>189.470975</ele>
        <time>2026-05-22T07:09:26.000Z</time>
      </trkpt>
      <trkpt lat="43.23853" lon="-1.21275">
        <ele>189.515161</ele>
        <time>2026-05-22T07:09:27.000Z</time>
      </trkpt>
      <trkpt lat="43.23845" lon="-1.21272">
        <ele>189.558827</ele>
        <time>2026-05-22T07:09:28.000Z</time>
      </trkpt>
      <trkpt lat="43.23837" lon="-1.21269">
        <ele>189.602493</ele>
        <time>2026-05-22T07:09:29.000Z</time>
      </trkpt>
      <trkpt lat="43.2383" lon="-1.21266">
        <ele>189.645757</ele>
        <time>2026-05-22T07:09:30.000Z</time>
      </trkpt>
      <trkpt lat="43.23822" lon="-1.21263">
        <ele>189.68775</ele>
        <time>2026-05-22T07:09:31.000Z</time>
      </trkpt>
      <trkpt lat="43.23815" lon="-1.2126">
        <ele>189.727552</ele>
        <time>2026-05-22T07:09:32.000Z</time>
      </trkpt>
      <trkpt lat="43.23808" lon="-1.21257">
        <ele>189.766388</ele>
        <time>2026-05-22T07:09:33.000Z</time>
      </trkpt>
      <trkpt lat="43.23802" lon="-1.21254">
        <ele>189.803657</ele>
        <time>2026-05-22T07:09:34.000Z</time>
      </trkpt>
      <trkpt lat="43.23796" lon="-1.21252">
        <ele>189.837928</ele>
        <time>2026-05-22T07:09:35.000Z</time>
      </trkpt>
      <trkpt lat="43.2379" lon="-1.21249">
        <ele>189.871169</ele>
        <time>2026-05-22T07:09:36.000Z</time>
      </trkpt>
      <trkpt lat="43.23785" lon="-1.21246">
        <ele>189.901586</ele>
        <time>2026-05-22T07:09:37.000Z</time>
      </trkpt>
      <trkpt lat="43.2378" lon="-1.21244">
        <ele>189.931399</ele>
        <time>2026-05-22T07:09:38.000Z</time>
      </trkpt>
      <trkpt lat="43.23775" lon="-1.21241">
        <ele>189.959368</ele>
        <time>2026-05-22T07:09:39.000Z</time>
      </trkpt>
      <trkpt lat="43.2377" lon="-1.21238">
        <ele>189.986023</ele>
        <time>2026-05-22T07:09:40.000Z</time>
      </trkpt>
      <trkpt lat="43.23766" lon="-1.21235">
        <ele>190.012203</ele>
        <time>2026-05-22T07:09:41.000Z</time>
      </trkpt>
      <trkpt lat="43.23762" lon="-1.21232">
        <ele>190.038086</ele>
        <time>2026-05-22T07:09:42.000Z</time>
      </trkpt>
      <trkpt lat="43.23758" lon="-1.21229">
        <ele>190.063018</ele>
        <time>2026-05-22T07:09:43.000Z</time>
      </trkpt>
      <trkpt lat="43.23754" lon="-1.21226">
        <ele>190.088815</ele>
        <time>2026-05-22T07:09:44.000Z</time>
      </trkpt>
      <trkpt lat="43.2375" lon="-1.21222">
        <ele>190.11502</ele>
        <time>2026-05-22T07:09:45.000Z</time>
      </trkpt>
      <trkpt lat="43.23746" lon="-1.21219">
        <ele>190.139887</ele>
        <time>2026-05-22T07:09:46.000Z</time>
      </trkpt>
      <trkpt lat="43.23742" lon="-1.21216">
        <ele>190.164083</ele>
        <time>2026-05-22T07:09:47.000Z</time>
      </trkpt>
      <trkpt lat="43.23738" lon="-1.21212">
        <ele>190.189374</ele>
        <time>2026-05-22T07:09:48.000Z</time>
      </trkpt>
      <trkpt lat="43.23734" lon="-1.21208">
        <ele>190.214883</ele>
        <time>2026-05-22T07:09:49.000Z</time>
      </trkpt>
      <trkpt lat="43.2373" lon="-1.21205">
        <ele>190.240419</ele>
        <time>2026-05-22T07:09:50.000Z</time>
      </trkpt>
      <trkpt lat="43.23726" lon="-1.21202">
        <ele>190.265256</ele>
        <time>2026-05-22T07:09:51.000Z</time>
      </trkpt>
      <trkpt lat="43.23723" lon="-1.21198">
        <ele>190.288303</ele>
        <time>2026-05-22T07:09:52.000Z</time>
      </trkpt>
      <trkpt lat="43.23719" lon="-1.21195">
        <ele>190.312692</ele>
        <time>2026-05-22T07:09:53.000Z</time>
      </trkpt>
      <trkpt lat="43.23716" lon="-1.21191">
        <ele>190.336859</ele>
        <time>2026-05-22T07:09:54.000Z</time>
      </trkpt>
      <trkpt lat="43.23712" lon="-1.21188">
        <ele>190.361935</ele>
        <time>2026-05-22T07:09:55.000Z</time>
      </trkpt>
      <trkpt lat="43.23708" lon="-1.21185">
        <ele>190.4332</ele>
        <time>2026-05-22T07:09:56.000Z</time>
      </trkpt>
      <trkpt lat="43.23704" lon="-1.21181">
        <ele>190.513377</ele>
        <time>2026-05-22T07:09:57.000Z</time>
      </trkpt>
      <trkpt lat="43.237" lon="-1.21178">
        <ele>190.596528</ele>
        <time>2026-05-22T07:09:58.000Z</time>
      </trkpt>
      <trkpt lat="43.23697" lon="-1.21174">
        <ele>190.67968</ele>
        <time>2026-05-22T07:09:59.000Z</time>
      </trkpt>
      <trkpt lat="43.23693" lon="-1.21171">
        <ele>190.764335</ele>
        <time>2026-05-22T07:10:00.000Z</time>
      </trkpt>
      <trkpt lat="43.23689" lon="-1.21167">
        <ele>190.845984</ele>
        <time>2026-05-22T07:10:01.000Z</time>
      </trkpt>
      <trkpt lat="43.23685" lon="-1.21164">
        <ele>190.92616</ele>
        <time>2026-05-22T07:10:02.000Z</time>
      </trkpt>
      <trkpt lat="43.23682" lon="-1.2116">
        <ele>191.006336</ele>
        <time>2026-05-22T07:10:03.000Z</time>
      </trkpt>
      <trkpt lat="43.23678" lon="-1.21157">
        <ele>191.086513</ele>
        <time>2026-05-22T07:10:04.000Z</time>
      </trkpt>
      <trkpt lat="43.23674" lon="-1.21154">
        <ele>191.165914</ele>
        <time>2026-05-22T07:10:05.000Z</time>
      </trkpt>
      <trkpt lat="43.23671" lon="-1.2115">
        <ele>191.249066</ele>
        <time>2026-05-22T07:10:06.000Z</time>
      </trkpt>
      <trkpt lat="43.23667" lon="-1.21147">
        <ele>191.332218</ele>
        <time>2026-05-22T07:10:07.000Z</time>
      </trkpt>
      <trkpt lat="43.23663" lon="-1.21144">
        <ele>191.411681</ele>
        <time>2026-05-22T07:10:08.000Z</time>
      </trkpt>
      <trkpt lat="43.23659" lon="-1.2114">
        <ele>191.494241</ele>
        <time>2026-05-22T07:10:09.000Z</time>
      </trkpt>
      <trkpt lat="43.23655" lon="-1.21137">
        <ele>191.57613</ele>
        <time>2026-05-22T07:10:10.000Z</time>
      </trkpt>
      <trkpt lat="43.23651" lon="-1.21134">
        <ele>191.660796</ele>
        <time>2026-05-22T07:10:11.000Z</time>
      </trkpt>
      <trkpt lat="43.23648" lon="-1.2113">
        <ele>191.744693</ele>
        <time>2026-05-22T07:10:12.000Z</time>
      </trkpt>
      <trkpt lat="43.23644" lon="-1.21127">
        <ele>191.830886</ele>
        <time>2026-05-22T07:10:13.000Z</time>
      </trkpt>
      <trkpt lat="43.2364" lon="-1.21123">
        <ele>191.916375</ele>
        <time>2026-05-22T07:10:14.000Z</time>
      </trkpt>
      <trkpt lat="43.23635" lon="-1.2112">
        <ele>192.005532</ele>
        <time>2026-05-22T07:10:15.000Z</time>
      </trkpt>
      <trkpt lat="43.23631" lon="-1.21116">
        <ele>192.091232</ele>
        <time>2026-05-22T07:10:16.000Z</time>
      </trkpt>
      <trkpt lat="43.23627" lon="-1.21113">
        <ele>192.178144</ele>
        <time>2026-05-22T07:10:17.000Z</time>
      </trkpt>
      <trkpt lat="43.23623" lon="-1.21109">
        <ele>192.266078</ele>
        <time>2026-05-22T07:10:18.000Z</time>
      </trkpt>
      <trkpt lat="43.23619" lon="-1.21106">
        <ele>192.353118</ele>
        <time>2026-05-22T07:10:19.000Z</time>
      </trkpt>
      <trkpt lat="43.23615" lon="-1.21103">
        <ele>192.43754</ele>
        <time>2026-05-22T07:10:20.000Z</time>
      </trkpt>
      <trkpt lat="43.23611" lon="-1.211">
        <ele>192.523571</ele>
        <time>2026-05-22T07:10:21.000Z</time>
      </trkpt>
      <trkpt lat="43.23607" lon="-1.21097">
        <ele>192.607289</ele>
        <time>2026-05-22T07:10:22.000Z</time>
      </trkpt>
      <trkpt lat="43.23602" lon="-1.21095">
        <ele>192.690471</ele>
        <time>2026-05-22T07:10:23.000Z</time>
      </trkpt>
      <trkpt lat="43.23598" lon="-1.21093">
        <ele>192.773136</ele>
        <time>2026-05-22T07:10:24.000Z</time>
      </trkpt>
      <trkpt lat="43.23594" lon="-1.2109">
        <ele>192.853616</ele>
        <time>2026-05-22T07:10:25.000Z</time>
      </trkpt>
      <trkpt lat="43.2359" lon="-1.21088">
        <ele>192.931432</ele>
        <time>2026-05-22T07:10:26.000Z</time>
      </trkpt>
      <trkpt lat="43.23586" lon="-1.21086">
        <ele>193.011421</ele>
        <time>2026-05-22T07:10:27.000Z</time>
      </trkpt>
      <trkpt lat="43.23582" lon="-1.21084">
        <ele>193.090051</ele>
        <time>2026-05-22T07:10:28.000Z</time>
      </trkpt>
      <trkpt lat="43.23578" lon="-1.21082">
        <ele>193.167405</ele>
        <time>2026-05-22T07:10:29.000Z</time>
      </trkpt>
      <trkpt lat="43.23574" lon="-1.2108">
        <ele>193.244533</ele>
        <time>2026-05-22T07:10:30.000Z</time>
      </trkpt>
      <trkpt lat="43.2357" lon="-1.21078">
        <ele>193.319471</ele>
        <time>2026-05-22T07:10:31.000Z</time>
      </trkpt>
      <trkpt lat="43.23566" lon="-1.21076">
        <ele>193.391727</ele>
        <time>2026-05-22T07:10:32.000Z</time>
      </trkpt>
      <trkpt lat="43.23563" lon="-1.21074">
        <ele>193.465213</ele>
        <time>2026-05-22T07:10:33.000Z</time>
      </trkpt>
      <trkpt lat="43.23559" lon="-1.21072">
        <ele>193.53611</ele>
        <time>2026-05-22T07:10:34.000Z</time>
      </trkpt>
      <trkpt lat="43.23555" lon="-1.2107">
        <ele>193.607007</ele>
        <time>2026-05-22T07:10:35.000Z</time>
      </trkpt>
      <trkpt lat="43.23552" lon="-1.21069">
        <ele>193.668576</ele>
        <time>2026-05-22T07:10:36.000Z</time>
      </trkpt>
      <trkpt lat="43.23548" lon="-1.21067">
        <ele>193.72479</ele>
        <time>2026-05-22T07:10:37.000Z</time>
      </trkpt>
      <trkpt lat="43.23544" lon="-1.21064">
        <ele>193.781295</ele>
        <time>2026-05-22T07:10:38.000Z</time>
      </trkpt>
      <trkpt lat="43.23541" lon="-1.21062">
        <ele>193.836514</ele>
        <time>2026-05-22T07:10:39.000Z</time>
      </trkpt>
      <trkpt lat="43.23537" lon="-1.21059">
        <ele>193.892409</ele>
        <time>2026-05-22T07:10:40.000Z</time>
      </trkpt>
      <trkpt lat="43.23534" lon="-1.21056">
        <ele>193.949312</ele>
        <time>2026-05-22T07:10:41.000Z</time>
      </trkpt>
      <trkpt lat="43.23531" lon="-1.21053">
        <ele>194.006896</ele>
        <time>2026-05-22T07:10:42.000Z</time>
      </trkpt>
      <trkpt lat="43.23528" lon="-1.21049">
        <ele>194.065354</ele>
        <time>2026-05-22T07:10:43.000Z</time>
      </trkpt>
      <trkpt lat="43.23525" lon="-1.21045">
        <ele>194.123811</ele>
        <time>2026-05-22T07:10:44.000Z</time>
      </trkpt>
      <trkpt lat="43.23521" lon="-1.21041">
        <ele>194.1854</ele>
        <time>2026-05-22T07:10:45.000Z</time>
      </trkpt>
      <trkpt lat="43.23518" lon="-1.21037">
        <ele>194.249121</ele>
        <time>2026-05-22T07:10:46.000Z</time>
      </trkpt>
      <trkpt lat="43.23515" lon="-1.21033">
        <ele>194.311769</ele>
        <time>2026-05-22T07:10:47.000Z</time>
      </trkpt>
      <trkpt lat="43.23512" lon="-1.21029">
        <ele>194.374772</ele>
        <time>2026-05-22T07:10:48.000Z</time>
      </trkpt>
      <trkpt lat="43.23508" lon="-1.21025">
        <ele>194.438229</ele>
        <time>2026-05-22T07:10:49.000Z</time>
      </trkpt>
      <trkpt lat="43.23506" lon="-1.2102">
        <ele>194.500372</ele>
        <time>2026-05-22T07:10:50.000Z</time>
      </trkpt>
      <trkpt lat="43.23503" lon="-1.21015">
        <ele>194.56582</ele>
        <time>2026-05-22T07:10:51.000Z</time>
      </trkpt>
      <trkpt lat="43.235" lon="-1.21011">
        <ele>194.63232</ele>
        <time>2026-05-22T07:10:52.000Z</time>
      </trkpt>
      <trkpt lat="43.23497" lon="-1.21005">
        <ele>194.69939</ele>
        <time>2026-05-22T07:10:53.000Z</time>
      </trkpt>
      <trkpt lat="43.23494" lon="-1.21">
        <ele>194.768387</ele>
        <time>2026-05-22T07:10:54.000Z</time>
      </trkpt>
      <trkpt lat="43.2349" lon="-1.20995">
        <ele>194.838165</ele>
        <time>2026-05-22T07:10:55.000Z</time>
      </trkpt>
      <trkpt lat="43.23487" lon="-1.2099">
        <ele>194.908732</ele>
        <time>2026-05-22T07:10:56.000Z</time>
      </trkpt>
      <trkpt lat="43.23484" lon="-1.20985">
        <ele>194.97759</ele>
        <time>2026-05-22T07:10:57.000Z</time>
      </trkpt>
      <trkpt lat="43.23481" lon="-1.2098">
        <ele>195.045811</ele>
        <time>2026-05-22T07:10:58.000Z</time>
      </trkpt>
      <trkpt lat="43.23477" lon="-1.20975">
        <ele>195.120427</ele>
        <time>2026-05-22T07:10:59.000Z</time>
      </trkpt>
      <trkpt lat="43.23473" lon="-1.2097">
        <ele>195.195354</ele>
        <time>2026-05-22T07:11:00.000Z</time>
      </trkpt>
      <trkpt lat="43.23469" lon="-1.20966">
        <ele>195.272037</ele>
        <time>2026-05-22T07:11:01.000Z</time>
      </trkpt>
      <trkpt lat="43.23464" lon="-1.20961">
        <ele>195.351821</ele>
        <time>2026-05-22T07:11:02.000Z</time>
      </trkpt>
      <trkpt lat="43.2346" lon="-1.20957">
        <ele>195.432947</ele>
        <time>2026-05-22T07:11:03.000Z</time>
      </trkpt>
      <trkpt lat="43.23455" lon="-1.20954">
        <ele>195.510782</ele>
        <time>2026-05-22T07:11:04.000Z</time>
      </trkpt>
      <trkpt lat="43.2345" lon="-1.20951">
        <ele>195.58369</ele>
        <time>2026-05-22T07:11:05.000Z</time>
      </trkpt>
      <trkpt lat="43.23446" lon="-1.20948">
        <ele>195.653997</ele>
        <time>2026-05-22T07:11:06.000Z</time>
      </trkpt>
      <trkpt lat="43.23441" lon="-1.20945">
        <ele>195.719141</ele>
        <time>2026-05-22T07:11:07.000Z</time>
      </trkpt>
      <trkpt lat="43.23437" lon="-1.20944">
        <ele>195.777634</ele>
        <time>2026-05-22T07:11:08.000Z</time>
      </trkpt>
      <trkpt lat="43.23433" lon="-1.20943">
        <ele>195.8389</ele>
        <time>2026-05-22T07:11:09.000Z</time>
      </trkpt>
      <trkpt lat="43.23429" lon="-1.20941">
        <ele>195.895461</ele>
        <time>2026-05-22T07:11:10.000Z</time>
      </trkpt>
      <trkpt lat="43.23426" lon="-1.2094">
        <ele>195.951726</ele>
        <time>2026-05-22T07:11:11.000Z</time>
      </trkpt>
      <trkpt lat="43.23422" lon="-1.20938">
        <ele>196.006074</ele>
        <time>2026-05-22T07:11:12.000Z</time>
      </trkpt>
      <trkpt lat="43.23418" lon="-1.20937">
        <ele>196.059319</ele>
        <time>2026-05-22T07:11:13.000Z</time>
      </trkpt>
      <trkpt lat="43.23415" lon="-1.20936">
        <ele>196.113419</ele>
        <time>2026-05-22T07:11:14.000Z</time>
      </trkpt>
      <trkpt lat="43.23411" lon="-1.20935">
        <ele>196.163126</ele>
        <time>2026-05-22T07:11:15.000Z</time>
      </trkpt>
      <trkpt lat="43.23408" lon="-1.20933">
        <ele>196.195045</ele>
        <time>2026-05-22T07:11:16.000Z</time>
      </trkpt>
      <trkpt lat="43.23405" lon="-1.20932">
        <ele>196.196922</ele>
        <time>2026-05-22T07:11:17.000Z</time>
      </trkpt>
      <trkpt lat="43.23402" lon="-1.2093">
        <ele>196.198742</ele>
        <time>2026-05-22T07:11:18.000Z</time>
      </trkpt>
      <trkpt lat="43.23399" lon="-1.20928">
        <ele>196.200501</ele>
        <time>2026-05-22T07:11:19.000Z</time>
      </trkpt>
      <trkpt lat="43.23396" lon="-1.20927">
        <ele>196.202287</ele>
        <time>2026-05-22T07:11:20.000Z</time>
      </trkpt>
      <trkpt lat="43.23392" lon="-1.20925">
        <ele>196.20415</ele>
        <time>2026-05-22T07:11:21.000Z</time>
      </trkpt>
      <trkpt lat="43.23389" lon="-1.20924">
        <ele>196.206005</ele>
        <time>2026-05-22T07:11:22.000Z</time>
      </trkpt>
      <trkpt lat="43.23386" lon="-1.20922">
        <ele>196.20791</ele>
        <time>2026-05-22T07:11:23.000Z</time>
      </trkpt>
      <trkpt lat="43.23383" lon="-1.2092">
        <ele>196.209698</ele>
        <time>2026-05-22T07:11:24.000Z</time>
      </trkpt>
      <trkpt lat="43.2338" lon="-1.20917">
        <ele>196.211611</ele>
        <time>2026-05-22T07:11:25.000Z</time>
      </trkpt>
      <trkpt lat="43.23377" lon="-1.20915">
        <ele>196.213519</ele>
        <time>2026-05-22T07:11:26.000Z</time>
      </trkpt>
      <trkpt lat="43.23375" lon="-1.20912">
        <ele>196.21536</ele>
        <time>2026-05-22T07:11:27.000Z</time>
      </trkpt>
      <trkpt lat="43.23372" lon="-1.20909">
        <ele>196.217181</ele>
        <time>2026-05-22T07:11:28.000Z</time>
      </trkpt>
      <trkpt lat="43.2337" lon="-1.20906">
        <ele>196.218942</ele>
        <time>2026-05-22T07:11:29.000Z</time>
      </trkpt>
      <trkpt lat="43.23367" lon="-1.20903">
        <ele>196.220718</ele>
        <time>2026-05-22T07:11:30.000Z</time>
      </trkpt>
      <trkpt lat="43.23365" lon="-1.209">
        <ele>196.222473</ele>
        <time>2026-05-22T07:11:31.000Z</time>
      </trkpt>
      <trkpt lat="43.23363" lon="-1.20896">
        <ele>196.224324</ele>
        <time>2026-05-22T07:11:32.000Z</time>
      </trkpt>
      <trkpt lat="43.23361" lon="-1.20892">
        <ele>196.226108</ele>
        <time>2026-05-22T07:11:33.000Z</time>
      </trkpt>
      <trkpt lat="43.23359" lon="-1.20889">
        <ele>196.227958</ele>
        <time>2026-05-22T07:11:34.000Z</time>
      </trkpt>
      <trkpt lat="43.23358" lon="-1.20885">
        <ele>196.229775</ele>
        <time>2026-05-22T07:11:35.000Z</time>
      </trkpt>
      <trkpt lat="43.23356" lon="-1.20881">
        <ele>196.231692</ele>
        <time>2026-05-22T07:11:36.000Z</time>
      </trkpt>
      <trkpt lat="43.23354" lon="-1.20877">
        <ele>196.233711</ele>
        <time>2026-05-22T07:11:37.000Z</time>
      </trkpt>
      <trkpt lat="43.23352" lon="-1.20872">
        <ele>196.235675</ele>
        <time>2026-05-22T07:11:38.000Z</time>
      </trkpt>
      <trkpt lat="43.2335" lon="-1.20868">
        <ele>196.237603</ele>
        <time>2026-05-22T07:11:39.000Z</time>
      </trkpt>
      <trkpt lat="43.23349" lon="-1.20864">
        <ele>196.239462</ele>
        <time>2026-05-22T07:11:40.000Z</time>
      </trkpt>
      <trkpt lat="43.23347" lon="-1.2086">
        <ele>196.241391</ele>
        <time>2026-05-22T07:11:41.000Z</time>
      </trkpt>
      <trkpt lat="43.23345" lon="-1.20856">
        <ele>196.243416</ele>
        <time>2026-05-22T07:11:42.000Z</time>
      </trkpt>
      <trkpt lat="43.23344" lon="-1.20851">
        <ele>196.245463</ele>
        <time>2026-05-22T07:11:43.000Z</time>
      </trkpt>
      <trkpt lat="43.23342" lon="-1.20846">
        <ele>196.247677</ele>
        <time>2026-05-22T07:11:44.000Z</time>
      </trkpt>
      <trkpt lat="43.2334" lon="-1.20841">
        <ele>196.250013</ele>
        <time>2026-05-22T07:11:45.000Z</time>
      </trkpt>
      <trkpt lat="43.23338" lon="-1.20835">
        <ele>196.25242</ele>
        <time>2026-05-22T07:11:46.000Z</time>
      </trkpt>
      <trkpt lat="43.23336" lon="-1.2083">
        <ele>196.254959</ele>
        <time>2026-05-22T07:11:47.000Z</time>
      </trkpt>
      <trkpt lat="43.23334" lon="-1.20824">
        <ele>196.257692</ele>
        <time>2026-05-22T07:11:48.000Z</time>
      </trkpt>
      <trkpt lat="43.23332" lon="-1.20817">
        <ele>196.260556</ele>
        <time>2026-05-22T07:11:49.000Z</time>
      </trkpt>
      <trkpt lat="43.23329" lon="-1.20811">
        <ele>196.263493</ele>
        <time>2026-05-22T07:11:50.000Z</time>
      </trkpt>
      <trkpt lat="43.23327" lon="-1.20804">
        <ele>196.26643</ele>
        <time>2026-05-22T07:11:51.000Z</time>
      </trkpt>
      <trkpt lat="43.23324" lon="-1.20796">
        <ele>196.269764</ele>
        <time>2026-05-22T07:11:52.000Z</time>
      </trkpt>
      <trkpt lat="43.23322" lon="-1.20789">
        <ele>196.27323</ele>
        <time>2026-05-22T07:11:53.000Z</time>
      </trkpt>
      <trkpt lat="43.23319" lon="-1.20781">
        <ele>196.276807</ele>
        <time>2026-05-22T07:11:54.000Z</time>
      </trkpt>
      <trkpt lat="43.23316" lon="-1.20773">
        <ele>196.280405</ele>
        <time>2026-05-22T07:11:55.000Z</time>
      </trkpt>
      <trkpt lat="43.23313" lon="-1.20764">
        <ele>196.284257</ele>
        <time>2026-05-22T07:11:56.000Z</time>
      </trkpt>
      <trkpt lat="43.2331" lon="-1.20755">
        <ele>196.288241</ele>
        <time>2026-05-22T07:11:57.000Z</time>
      </trkpt>
      <trkpt lat="43.23306" lon="-1.20746">
        <ele>196.29243</ele>
        <time>2026-05-22T07:11:58.000Z</time>
      </trkpt>
      <trkpt lat="43.23303" lon="-1.20736">
        <ele>196.393675</ele>
        <time>2026-05-22T07:11:59.000Z</time>
      </trkpt>
      <trkpt lat="43.23299" lon="-1.20727">
        <ele>196.528296</ele>
        <time>2026-05-22T07:12:00.000Z</time>
      </trkpt>
      <trkpt lat="43.23296" lon="-1.20717">
        <ele>196.665816</ele>
        <time>2026-05-22T07:12:01.000Z</time>
      </trkpt>
      <trkpt lat="43.23292" lon="-1.20707">
        <ele>196.805232</ele>
        <time>2026-05-22T07:12:02.000Z</time>
      </trkpt>
      <trkpt lat="43.23289" lon="-1.20697">
        <ele>196.940864</ele>
        <time>2026-05-22T07:12:03.000Z</time>
      </trkpt>
      <trkpt lat="43.23285" lon="-1.20688">
        <ele>197.075</ele>
        <time>2026-05-22T07:12:04.000Z</time>
      </trkpt>
      <trkpt lat="43.23282" lon="-1.20679">
        <ele>197.202319</ele>
        <time>2026-05-22T07:12:05.000Z</time>
      </trkpt>
      <trkpt lat="43.23279" lon="-1.2067">
        <ele>197.32209</ele>
        <time>2026-05-22T07:12:06.000Z</time>
      </trkpt>
      <trkpt lat="43.23276" lon="-1.20662">
        <ele>197.439964</ele>
        <time>2026-05-22T07:12:07.000Z</time>
      </trkpt>
      <trkpt lat="43.23273" lon="-1.20654">
        <ele>197.547638</ele>
        <time>2026-05-22T07:12:08.000Z</time>
      </trkpt>
      <trkpt lat="43.23271" lon="-1.20647">
        <ele>197.650417</ele>
        <time>2026-05-22T07:12:09.000Z</time>
      </trkpt>
      <trkpt lat="43.23268" lon="-1.2064">
        <ele>197.749038</ele>
        <time>2026-05-22T07:12:10.000Z</time>
      </trkpt>
      <trkpt lat="43.23266" lon="-1.20633">
        <ele>197.841223</ele>
        <time>2026-05-22T07:12:11.000Z</time>
      </trkpt>
      <trkpt lat="43.23264" lon="-1.20627">
        <ele>197.930013</ele>
        <time>2026-05-22T07:12:12.000Z</time>
      </trkpt>
      <trkpt lat="43.23262" lon="-1.20621">
        <ele>198.018042</ele>
        <time>2026-05-22T07:12:13.000Z</time>
      </trkpt>
      <trkpt lat="43.23259" lon="-1.20615">
        <ele>198.098823</ele>
        <time>2026-05-22T07:12:14.000Z</time>
      </trkpt>
      <trkpt lat="43.23257" lon="-1.2061">
        <ele>198.177064</ele>
        <time>2026-05-22T07:12:15.000Z</time>
      </trkpt>
      <trkpt lat="43.23255" lon="-1.20604">
        <ele>198.250745</ele>
        <time>2026-05-22T07:12:16.000Z</time>
      </trkpt>
      <trkpt lat="43.23254" lon="-1.20599">
        <ele>198.325569</ele>
        <time>2026-05-22T07:12:17.000Z</time>
      </trkpt>
      <trkpt lat="43.23252" lon="-1.20594">
        <ele>198.399997</ele>
        <time>2026-05-22T07:12:18.000Z</time>
      </trkpt>
      <trkpt lat="43.2325" lon="-1.20588">
        <ele>198.472964</ele>
        <time>2026-05-22T07:12:19.000Z</time>
      </trkpt>
      <trkpt lat="43.23248" lon="-1.20583">
        <ele>198.548244</ele>
        <time>2026-05-22T07:12:20.000Z</time>
      </trkpt>
      <trkpt lat="43.23247" lon="-1.20577">
        <ele>198.62585</ele>
        <time>2026-05-22T07:12:21.000Z</time>
      </trkpt>
      <trkpt lat="43.23245" lon="-1.20572">
        <ele>198.701411</ele>
        <time>2026-05-22T07:12:22.000Z</time>
      </trkpt>
      <trkpt lat="43.23243" lon="-1.20566">
        <ele>198.777383</ele>
        <time>2026-05-22T07:12:23.000Z</time>
      </trkpt>
      <trkpt lat="43.23241" lon="-1.20561">
        <ele>198.85035</ele>
        <time>2026-05-22T07:12:24.000Z</time>
      </trkpt>
      <trkpt lat="43.2324" lon="-1.20556">
        <ele>198.922638</ele>
        <time>2026-05-22T07:12:25.000Z</time>
      </trkpt>
      <trkpt lat="43.23238" lon="-1.2055">
        <ele>198.994042</ele>
        <time>2026-05-22T07:12:26.000Z</time>
      </trkpt>
      <trkpt lat="43.23236" lon="-1.20546">
        <ele>199.062427</ele>
        <time>2026-05-22T07:12:27.000Z</time>
      </trkpt>
      <trkpt lat="43.23234" lon="-1.20541">
        <ele>199.130086</ele>
        <time>2026-05-22T07:12:28.000Z</time>
      </trkpt>
      <trkpt lat="43.23233" lon="-1.20535">
        <ele>199.203766</ele>
        <time>2026-05-22T07:12:29.000Z</time>
      </trkpt>
      <trkpt lat="43.23231" lon="-1.2053">
        <ele>199.275942</ele>
        <time>2026-05-22T07:12:30.000Z</time>
      </trkpt>
      <trkpt lat="43.23229" lon="-1.20526">
        <ele>199.344525</ele>
        <time>2026-05-22T07:12:31.000Z</time>
      </trkpt>
      <trkpt lat="43.23227" lon="-1.20521">
        <ele>199.402359</ele>
        <time>2026-05-22T07:12:32.000Z</time>
      </trkpt>
      <trkpt lat="43.23225" lon="-1.20517">
        <ele>199.383393</ele>
        <time>2026-05-22T07:12:33.000Z</time>
      </trkpt>
      <trkpt lat="43.23223" lon="-1.20512">
        <ele>199.364309</ele>
        <time>2026-05-22T07:12:34.000Z</time>
      </trkpt>
      <trkpt lat="43.23221" lon="-1.20508">
        <ele>199.344973</ele>
        <time>2026-05-22T07:12:35.000Z</time>
      </trkpt>
      <trkpt lat="43.23219" lon="-1.20503">
        <ele>199.325011</ele>
        <time>2026-05-22T07:12:36.000Z</time>
      </trkpt>
      <trkpt lat="43.23218" lon="-1.20498">
        <ele>199.304709</ele>
        <time>2026-05-22T07:12:37.000Z</time>
      </trkpt>
      <trkpt lat="43.23216" lon="-1.20493">
        <ele>199.284263</ele>
        <time>2026-05-22T07:12:38.000Z</time>
      </trkpt>
      <trkpt lat="43.23215" lon="-1.20488">
        <ele>199.264876</ele>
        <time>2026-05-22T07:12:39.000Z</time>
      </trkpt>
      <trkpt lat="43.23214" lon="-1.20483">
        <ele>199.24549</ele>
        <time>2026-05-22T07:12:40.000Z</time>
      </trkpt>
      <trkpt lat="43.23212" lon="-1.20478">
        <ele>199.22542</ele>
        <time>2026-05-22T07:12:41.000Z</time>
      </trkpt>
      <trkpt lat="43.2321" lon="-1.20473">
        <ele>199.204777</ele>
        <time>2026-05-22T07:12:42.000Z</time>
      </trkpt>
      <trkpt lat="43.23209" lon="-1.20468">
        <ele>199.185018</ele>
        <time>2026-05-22T07:12:43.000Z</time>
      </trkpt>
      <trkpt lat="43.23207" lon="-1.20463">
        <ele>199.165451</ele>
        <time>2026-05-22T07:12:44.000Z</time>
      </trkpt>
      <trkpt lat="43.23206" lon="-1.20458">
        <ele>199.145884</ele>
        <time>2026-05-22T07:12:45.000Z</time>
      </trkpt>
      <trkpt lat="43.23204" lon="-1.20454">
        <ele>199.126377</ele>
        <time>2026-05-22T07:12:46.000Z</time>
      </trkpt>
      <trkpt lat="43.23202" lon="-1.20449">
        <ele>199.104598</ele>
        <time>2026-05-22T07:12:47.000Z</time>
      </trkpt>
      <trkpt lat="43.232" lon="-1.20443">
        <ele>199.082305</ele>
        <time>2026-05-22T07:12:48.000Z</time>
      </trkpt>
      <trkpt lat="43.23198" lon="-1.20437">
        <ele>199.058324</ele>
        <time>2026-05-22T07:12:49.000Z</time>
      </trkpt>
      <trkpt lat="43.23196" lon="-1.20431">
        <ele>199.033116</ele>
        <time>2026-05-22T07:12:50.000Z</time>
      </trkpt>
      <trkpt lat="43.23194" lon="-1.20425">
        <ele>199.006586</ele>
        <time>2026-05-22T07:12:51.000Z</time>
      </trkpt>
      <trkpt lat="43.23192" lon="-1.20418">
        <ele>198.978932</ele>
        <time>2026-05-22T07:12:52.000Z</time>
      </trkpt>
      <trkpt lat="43.23189" lon="-1.20411">
        <ele>198.94939</ele>
        <time>2026-05-22T07:12:53.000Z</time>
      </trkpt>
      <trkpt lat="43.23186" lon="-1.20404">
        <ele>198.918805</ele>
        <time>2026-05-22T07:12:54.000Z</time>
      </trkpt>
      <trkpt lat="43.23183" lon="-1.20397">
        <ele>198.887133</ele>
        <time>2026-05-22T07:12:55.000Z</time>
      </trkpt>
      <trkpt lat="43.23179" lon="-1.2039">
        <ele>198.855877</ele>
        <time>2026-05-22T07:12:56.000Z</time>
      </trkpt>
      <trkpt lat="43.23176" lon="-1.20382">
        <ele>198.822825</ele>
        <time>2026-05-22T07:12:57.000Z</time>
      </trkpt>
      <trkpt lat="43.23171" lon="-1.20375">
        <ele>198.788215</ele>
        <time>2026-05-22T07:12:58.000Z</time>
      </trkpt>
      <trkpt lat="43.23167" lon="-1.20368">
        <ele>198.753845</ele>
        <time>2026-05-22T07:12:59.000Z</time>
      </trkpt>
      <trkpt lat="43.23162" lon="-1.20361">
        <ele>198.717488</ele>
        <time>2026-05-22T07:13:00.000Z</time>
      </trkpt>
      <trkpt lat="43.23157" lon="-1.20354">
        <ele>198.682021</ele>
        <time>2026-05-22T07:13:01.000Z</time>
      </trkpt>
      <trkpt lat="43.23152" lon="-1.20348">
        <ele>198.647136</ele>
        <time>2026-05-22T07:13:02.000Z</time>
      </trkpt>
      <trkpt lat="43.23147" lon="-1.20341">
        <ele>198.611875</ele>
        <time>2026-05-22T07:13:03.000Z</time>
      </trkpt>
      <trkpt lat="43.23142" lon="-1.20335">
        <ele>198.577112</ele>
        <time>2026-05-22T07:13:04.000Z</time>
      </trkpt>
      <trkpt lat="43.23137" lon="-1.20329">
        <ele>198.542101</ele>
        <time>2026-05-22T07:13:05.000Z</time>
      </trkpt>
      <trkpt lat="43.23132" lon="-1.20323">
        <ele>198.507827</ele>
        <time>2026-05-22T07:13:06.000Z</time>
      </trkpt>
      <trkpt lat="43.23127" lon="-1.20317">
        <ele>198.492614</ele>
        <time>2026-05-22T07:13:07.000Z</time>
      </trkpt>
      <trkpt lat="43.23122" lon="-1.20311">
        <ele>198.509366</ele>
        <time>2026-05-22T07:13:08.000Z</time>
      </trkpt>
      <trkpt lat="43.23116" lon="-1.20305">
        <ele>198.526119</ele>
        <time>2026-05-22T07:13:09.000Z</time>
      </trkpt>
      <trkpt lat="43.23111" lon="-1.20299">
        <ele>198.543446</ele>
        <time>2026-05-22T07:13:10.000Z</time>
      </trkpt>
      <trkpt lat="43.23106" lon="-1.20293">
        <ele>198.56058</ele>
        <time>2026-05-22T07:13:11.000Z</time>
      </trkpt>
      <trkpt lat="43.231" lon="-1.20287">
        <ele>198.577714</ele>
        <time>2026-05-22T07:13:12.000Z</time>
      </trkpt>
      <trkpt lat="43.23095" lon="-1.20281">
        <ele>198.594705</ele>
        <time>2026-05-22T07:13:13.000Z</time>
      </trkpt>
      <trkpt lat="43.2309" lon="-1.20275">
        <ele>198.611081</ele>
        <time>2026-05-22T07:13:14.000Z</time>
      </trkpt>
      <trkpt lat="43.23086" lon="-1.20269">
        <ele>198.627458</ele>
        <time>2026-05-22T07:13:15.000Z</time>
      </trkpt>
      <trkpt lat="43.2308" lon="-1.20263">
        <ele>198.644329</ele>
        <time>2026-05-22T07:13:16.000Z</time>
      </trkpt>
      <trkpt lat="43.23075" lon="-1.20257">
        <ele>198.661082</ele>
        <time>2026-05-22T07:13:17.000Z</time>
      </trkpt>
      <trkpt lat="43.2307" lon="-1.20251">
        <ele>198.677834</ele>
        <time>2026-05-22T07:13:18.000Z</time>
      </trkpt>
      <trkpt lat="43.23065" lon="-1.20245">
        <ele>198.694397</ele>
        <time>2026-05-22T07:13:19.000Z</time>
      </trkpt>
      <trkpt lat="43.23061" lon="-1.20239">
        <ele>198.71035</ele>
        <time>2026-05-22T07:13:20.000Z</time>
      </trkpt>
      <trkpt lat="43.23056" lon="-1.20233">
        <ele>198.726176</ele>
        <time>2026-05-22T07:13:21.000Z</time>
      </trkpt>
      <trkpt lat="43.23052" lon="-1.20227">
        <ele>198.741265</ele>
        <time>2026-05-22T07:13:22.000Z</time>
      </trkpt>
      <trkpt lat="43.23047" lon="-1.20221">
        <ele>198.756231</ele>
        <time>2026-05-22T07:13:23.000Z</time>
      </trkpt>
      <trkpt lat="43.23043" lon="-1.20216">
        <ele>198.77048</ele>
        <time>2026-05-22T07:13:24.000Z</time>
      </trkpt>
      <trkpt lat="43.2304" lon="-1.2021">
        <ele>198.784217</ele>
        <time>2026-05-22T07:13:25.000Z</time>
      </trkpt>
      <trkpt lat="43.23036" lon="-1.20205">
        <ele>198.797383</ele>
        <time>2026-05-22T07:13:26.000Z</time>
      </trkpt>
      <trkpt lat="43.23033" lon="-1.202">
        <ele>198.810079</ele>
        <time>2026-05-22T07:13:27.000Z</time>
      </trkpt>
      <trkpt lat="43.23029" lon="-1.20195">
        <ele>198.821201</ele>
        <time>2026-05-22T07:13:28.000Z</time>
      </trkpt>
      <trkpt lat="43.23026" lon="-1.20191">
        <ele>198.832627</ele>
        <time>2026-05-22T07:13:29.000Z</time>
      </trkpt>
      <trkpt lat="43.23023" lon="-1.20187">
        <ele>198.843314</ele>
        <time>2026-05-22T07:13:30.000Z</time>
      </trkpt>
      <trkpt lat="43.2302" lon="-1.20182">
        <ele>198.853659</ele>
        <time>2026-05-22T07:13:31.000Z</time>
      </trkpt>
      <trkpt lat="43.23018" lon="-1.20178">
        <ele>198.864173</ele>
        <time>2026-05-22T07:13:32.000Z</time>
      </trkpt>
      <trkpt lat="43.23015" lon="-1.20174">
        <ele>198.874518</ele>
        <time>2026-05-22T07:13:33.000Z</time>
      </trkpt>
      <trkpt lat="43.23012" lon="-1.2017">
        <ele>198.8836</ele>
        <time>2026-05-22T07:13:34.000Z</time>
      </trkpt>
      <trkpt lat="43.23009" lon="-1.20167">
        <ele>198.893245</ele>
        <time>2026-05-22T07:13:35.000Z</time>
      </trkpt>
      <trkpt lat="43.23007" lon="-1.20163">
        <ele>198.902455</ele>
        <time>2026-05-22T07:13:36.000Z</time>
      </trkpt>
      <trkpt lat="43.23004" lon="-1.20159">
        <ele>198.911928</ele>
        <time>2026-05-22T07:13:37.000Z</time>
      </trkpt>
      <trkpt lat="43.23001" lon="-1.20155">
        <ele>198.922007</ele>
        <time>2026-05-22T07:13:38.000Z</time>
      </trkpt>
      <trkpt lat="43.22999" lon="-1.20151">
        <ele>198.931956</ele>
        <time>2026-05-22T07:13:39.000Z</time>
      </trkpt>
      <trkpt lat="43.22996" lon="-1.20147">
        <ele>199.087854</ele>
        <time>2026-05-22T07:13:40.000Z</time>
      </trkpt>
      <trkpt lat="43.22993" lon="-1.20143">
        <ele>199.313928</ele>
        <time>2026-05-22T07:13:41.000Z</time>
      </trkpt>
      <trkpt lat="43.22991" lon="-1.20139">
        <ele>199.544762</ele>
        <time>2026-05-22T07:13:42.000Z</time>
      </trkpt>
      <trkpt lat="43.22988" lon="-1.20136">
        <ele>199.753277</ele>
        <time>2026-05-22T07:13:43.000Z</time>
      </trkpt>
      <trkpt lat="43.22985" lon="-1.20132">
        <ele>199.983153</ele>
        <time>2026-05-22T07:13:44.000Z</time>
      </trkpt>
      <trkpt lat="43.22982" lon="-1.20127">
        <ele>200.216031</ele>
        <time>2026-05-22T07:13:45.000Z</time>
      </trkpt>
      <trkpt lat="43.22979" lon="-1.20123">
        <ele>200.456631</ele>
        <time>2026-05-22T07:13:46.000Z</time>
      </trkpt>
      <trkpt lat="43.22976" lon="-1.20119">
        <ele>200.688628</ele>
        <time>2026-05-22T07:13:47.000Z</time>
      </trkpt>
      <trkpt lat="43.22973" lon="-1.20115">
        <ele>200.925332</ele>
        <time>2026-05-22T07:13:48.000Z</time>
      </trkpt>
      <trkpt lat="43.2297" lon="-1.20111">
        <ele>201.153284</ele>
        <time>2026-05-22T07:13:49.000Z</time>
      </trkpt>
      <trkpt lat="43.22967" lon="-1.20107">
        <ele>201.385281</ele>
        <time>2026-05-22T07:13:50.000Z</time>
      </trkpt>
      <trkpt lat="43.22965" lon="-1.20103">
        <ele>201.609258</ele>
        <time>2026-05-22T07:13:51.000Z</time>
      </trkpt>
      <trkpt lat="43.22962" lon="-1.20099">
        <ele>201.821752</ele>
        <time>2026-05-22T07:13:52.000Z</time>
      </trkpt>
      <trkpt lat="43.22959" lon="-1.20096">
        <ele>202.030268</ele>
        <time>2026-05-22T07:13:53.000Z</time>
      </trkpt>
      <trkpt lat="43.22957" lon="-1.20092">
        <ele>202.234738</ele>
        <time>2026-05-22T07:13:54.000Z</time>
      </trkpt>
      <trkpt lat="43.22954" lon="-1.20089">
        <ele>202.441161</ele>
        <time>2026-05-22T07:13:55.000Z</time>
      </trkpt>
      <trkpt lat="43.22952" lon="-1.20086">
        <ele>202.62114</ele>
        <time>2026-05-22T07:13:56.000Z</time>
      </trkpt>
      <trkpt lat="43.2295" lon="-1.20082">
        <ele>202.810233</ele>
        <time>2026-05-22T07:13:57.000Z</time>
      </trkpt>
      <trkpt lat="43.22948" lon="-1.20079">
        <ele>203.000969</ele>
        <time>2026-05-22T07:13:58.000Z</time>
      </trkpt>
      <trkpt lat="43.22945" lon="-1.20075">
        <ele>203.190758</ele>
        <time>2026-05-22T07:13:59.000Z</time>
      </trkpt>
      <trkpt lat="43.22943" lon="-1.20072">
        <ele>203.373092</ele>
        <time>2026-05-22T07:14:00.000Z</time>
      </trkpt>
      <trkpt lat="43.22941" lon="-1.20069">
        <ele>203.556068</ele>
        <time>2026-05-22T07:14:01.000Z</time>
      </trkpt>
      <trkpt lat="43.22939" lon="-1.20066">
        <ele>203.734214</ele>
        <time>2026-05-22T07:14:02.000Z</time>
      </trkpt>
      <trkpt lat="43.22936" lon="-1.20063">
        <ele>203.899912</ele>
        <time>2026-05-22T07:14:03.000Z</time>
      </trkpt>
      <trkpt lat="43.22934" lon="-1.2006">
        <ele>204.0587</ele>
        <time>2026-05-22T07:14:04.000Z</time>
      </trkpt>
      <trkpt lat="43.22932" lon="-1.20058">
        <ele>204.219101</ele>
        <time>2026-05-22T07:14:05.000Z</time>
      </trkpt>
      <trkpt lat="43.2293" lon="-1.20055">
        <ele>204.378641</ele>
        <time>2026-05-22T07:14:06.000Z</time>
      </trkpt>
      <trkpt lat="43.22929" lon="-1.20052">
        <ele>204.531392</ele>
        <time>2026-05-22T07:14:07.000Z</time>
      </trkpt>
      <trkpt lat="43.22927" lon="-1.20049">
        <ele>204.681099</ele>
        <time>2026-05-22T07:14:08.000Z</time>
      </trkpt>
      <trkpt lat="43.22925" lon="-1.20047">
        <ele>204.827815</ele>
        <time>2026-05-22T07:14:09.000Z</time>
      </trkpt>
      <trkpt lat="43.22923" lon="-1.20044">
        <ele>204.971593</ele>
        <time>2026-05-22T07:14:10.000Z</time>
      </trkpt>
      <trkpt lat="43.22922" lon="-1.20042">
        <ele>205.111482</ele>
        <time>2026-05-22T07:14:11.000Z</time>
      </trkpt>
      <trkpt lat="43.2292" lon="-1.20039">
        <ele>205.255259</ele>
        <time>2026-05-22T07:14:12.000Z</time>
      </trkpt>
      <trkpt lat="43.22918" lon="-1.20037">
        <ele>205.399037</ele>
        <time>2026-05-22T07:14:13.000Z</time>
      </trkpt>
      <trkpt lat="43.22916" lon="-1.20034">
        <ele>205.539935</ele>
        <time>2026-05-22T07:14:14.000Z</time>
      </trkpt>
      <trkpt lat="43.22914" lon="-1.20032">
        <ele>205.675259</ele>
        <time>2026-05-22T07:14:15.000Z</time>
      </trkpt>
      <trkpt lat="43.22913" lon="-1.2003">
        <ele>205.809282</ele>
        <time>2026-05-22T07:14:16.000Z</time>
      </trkpt>
      <trkpt lat="43.22911" lon="-1.20027">
        <ele>205.947361</ele>
        <time>2026-05-22T07:14:17.000Z</time>
      </trkpt>
      <trkpt lat="43.22909" lon="-1.20025">
        <ele>206.080434</ele>
        <time>2026-05-22T07:14:18.000Z</time>
      </trkpt>
      <trkpt lat="43.22907" lon="-1.20022">
        <ele>206.224212</ele>
        <time>2026-05-22T07:14:19.000Z</time>
      </trkpt>
      <trkpt lat="43.22906" lon="-1.2002">
        <ele>206.367119</ele>
        <time>2026-05-22T07:14:20.000Z</time>
      </trkpt>
      <trkpt lat="43.22904" lon="-1.20017">
        <ele>206.503239</ele>
        <time>2026-05-22T07:14:21.000Z</time>
      </trkpt>
      <trkpt lat="43.22902" lon="-1.20015">
        <ele>206.652396</ele>
        <time>2026-05-22T07:14:22.000Z</time>
      </trkpt>
      <trkpt lat="43.229" lon="-1.20013">
        <ele>206.78642</ele>
        <time>2026-05-22T07:14:23.000Z</time>
      </trkpt>
      <trkpt lat="43.22899" lon="-1.2001">
        <ele>206.924498</ele>
        <time>2026-05-22T07:14:24.000Z</time>
      </trkpt>
      <trkpt lat="43.22897" lon="-1.20008">
        <ele>207.050772</ele>
        <time>2026-05-22T07:14:25.000Z</time>
      </trkpt>
      <trkpt lat="43.22896" lon="-1.20006">
        <ele>207.186892</ele>
        <time>2026-05-22T07:14:26.000Z</time>
      </trkpt>
      <trkpt lat="43.22894" lon="-1.20003">
        <ele>207.323012</ele>
        <time>2026-05-22T07:14:27.000Z</time>
      </trkpt>
      <trkpt lat="43.22893" lon="-1.20001">
        <ele>207.442502</ele>
        <time>2026-05-22T07:14:28.000Z</time>
      </trkpt>
      <trkpt lat="43.22891" lon="-1.19998">
        <ele>207.571852</ele>
        <time>2026-05-22T07:14:29.000Z</time>
      </trkpt>
      <trkpt lat="43.2289" lon="-1.19996">
        <ele>207.695108</ele>
        <time>2026-05-22T07:14:30.000Z</time>
      </trkpt>
      <trkpt lat="43.22888" lon="-1.19994">
        <ele>207.818363</ele>
        <time>2026-05-22T07:14:31.000Z</time>
      </trkpt>
      <trkpt lat="43.22887" lon="-1.19992">
        <ele>207.941619</ele>
        <time>2026-05-22T07:14:32.000Z</time>
      </trkpt>
      <trkpt lat="43.22885" lon="-1.1999">
        <ele>208.052161</ele>
        <time>2026-05-22T07:14:33.000Z</time>
      </trkpt>
      <trkpt lat="43.22884" lon="-1.19988">
        <ele>208.155022</ele>
        <time>2026-05-22T07:14:34.000Z</time>
      </trkpt>
      <trkpt lat="43.22883" lon="-1.19986">
        <ele>208.268477</ele>
        <time>2026-05-22T07:14:35.000Z</time>
      </trkpt>
      <trkpt lat="43.22881" lon="-1.19984">
        <ele>208.384351</ele>
        <time>2026-05-22T07:14:36.000Z</time>
      </trkpt>
      <trkpt lat="43.2288" lon="-1.19982">
        <ele>208.50343</ele>
        <time>2026-05-22T07:14:37.000Z</time>
      </trkpt>
      <trkpt lat="43.22878" lon="-1.1998">
        <ele>208.620845</ele>
        <time>2026-05-22T07:14:38.000Z</time>
      </trkpt>
      <trkpt lat="43.22877" lon="-1.19978">
        <ele>208.731387</ele>
        <time>2026-05-22T07:14:39.000Z</time>
      </trkpt>
      <trkpt lat="43.22876" lon="-1.19976">
        <ele>208.845989</ele>
        <time>2026-05-22T07:14:40.000Z</time>
      </trkpt>
      <trkpt lat="43.22874" lon="-1.19974">
        <ele>208.951975</ele>
        <time>2026-05-22T07:14:41.000Z</time>
      </trkpt>
      <trkpt lat="43.22873" lon="-1.19971">
        <ele>209.092214</ele>
        <time>2026-05-22T07:14:42.000Z</time>
      </trkpt>
      <trkpt lat="43.22872" lon="-1.19969">
        <ele>209.262665</ele>
        <time>2026-05-22T07:14:43.000Z</time>
      </trkpt>
      <trkpt lat="43.2287" lon="-1.19967">
        <ele>209.419066</ele>
        <time>2026-05-22T07:14:44.000Z</time>
      </trkpt>
      <trkpt lat="43.22869" lon="-1.19965">
        <ele>209.590675</ele>
        <time>2026-05-22T07:14:45.000Z</time>
      </trkpt>
      <trkpt lat="43.22868" lon="-1.19963">
        <ele>209.746411</ele>
        <time>2026-05-22T07:14:46.000Z</time>
      </trkpt>
      <trkpt lat="43.22866" lon="-1.19961">
        <ele>209.912512</ele>
        <time>2026-05-22T07:14:47.000Z</time>
      </trkpt>
      <trkpt lat="43.22865" lon="-1.19959">
        <ele>210.066151</ele>
        <time>2026-05-22T07:14:48.000Z</time>
      </trkpt>
      <trkpt lat="43.22863" lon="-1.19957">
        <ele>210.227994</ele>
        <time>2026-05-22T07:14:49.000Z</time>
      </trkpt>
      <trkpt lat="43.22862" lon="-1.19955">
        <ele>210.384396</ele>
        <time>2026-05-22T07:14:50.000Z</time>
      </trkpt>
      <trkpt lat="43.22861" lon="-1.19953">
        <ele>210.540097</ele>
        <time>2026-05-22T07:14:51.000Z</time>
      </trkpt>
      <trkpt lat="43.2286" lon="-1.19951">
        <ele>210.695799</ele>
        <time>2026-05-22T07:14:52.000Z</time>
      </trkpt>
      <trkpt lat="43.22859" lon="-1.19949">
        <ele>210.861092</ele>
        <time>2026-05-22T07:14:53.000Z</time>
      </trkpt>
      <trkpt lat="43.22857" lon="-1.19947">
        <ele>211.017493</ele>
        <time>2026-05-22T07:14:54.000Z</time>
      </trkpt>
      <trkpt lat="43.22856" lon="-1.19944">
        <ele>211.177862</ele>
        <time>2026-05-22T07:14:55.000Z</time>
      </trkpt>
      <trkpt lat="43.22855" lon="-1.19942">
        <ele>211.338409</ele>
        <time>2026-05-22T07:14:56.000Z</time>
      </trkpt>
      <trkpt lat="43.22854" lon="-1.1994">
        <ele>211.484805</ele>
        <time>2026-05-22T07:14:57.000Z</time>
      </trkpt>
      <trkpt lat="43.22853" lon="-1.19938">
        <ele>211.650262</ele>
        <time>2026-05-22T07:14:58.000Z</time>
      </trkpt>
      <trkpt lat="43.22852" lon="-1.19935">
        <ele>211.810809</ele>
        <time>2026-05-22T07:14:59.000Z</time>
      </trkpt>
      <trkpt lat="43.22851" lon="-1.19933">
        <ele>211.975887</ele>
        <time>2026-05-22T07:15:00.000Z</time>
      </trkpt>
      <trkpt lat="43.2285" lon="-1.19931">
        <ele>212.137221</ele>
        <time>2026-05-22T07:15:01.000Z</time>
      </trkpt>
      <trkpt lat="43.22849" lon="-1.19928">
        <ele>212.29351</ele>
        <time>2026-05-22T07:15:02.000Z</time>
      </trkpt>
      <trkpt lat="43.22848" lon="-1.19926">
        <ele>212.449806</ele>
        <time>2026-05-22T07:15:03.000Z</time>
      </trkpt>
      <trkpt lat="43.22847" lon="-1.19923">
        <ele>212.610354</ele>
        <time>2026-05-22T07:15:04.000Z</time>
      </trkpt>
      <trkpt lat="43.22846" lon="-1.19921">
        <ele>212.76665</ele>
        <time>2026-05-22T07:15:05.000Z</time>
      </trkpt>
      <trkpt lat="43.22845" lon="-1.19919">
        <ele>212.917576</ele>
        <time>2026-05-22T07:15:06.000Z</time>
      </trkpt>
      <trkpt lat="43.22844" lon="-1.19917">
        <ele>213.050717</ele>
        <time>2026-05-22T07:15:07.000Z</time>
      </trkpt>
      <trkpt lat="43.22843" lon="-1.19915">
        <ele>213.210054</ele>
        <time>2026-05-22T07:15:08.000Z</time>
      </trkpt>
      <trkpt lat="43.22842" lon="-1.19912">
        <ele>213.365756</ele>
        <time>2026-05-22T07:15:09.000Z</time>
      </trkpt>
      <trkpt lat="43.22841" lon="-1.1991">
        <ele>213.504041</ele>
        <time>2026-05-22T07:15:10.000Z</time>
      </trkpt>
      <trkpt lat="43.2284" lon="-1.19908">
        <ele>213.665376</ele>
        <time>2026-05-22T07:15:11.000Z</time>
      </trkpt>
      <trkpt lat="43.22839" lon="-1.19905">
        <ele>213.824713</ele>
        <time>2026-05-22T07:15:12.000Z</time>
      </trkpt>
      <trkpt lat="43.22839" lon="-1.19903">
        <ele>213.973439</ele>
        <time>2026-05-22T07:15:13.000Z</time>
      </trkpt>
      <trkpt lat="43.22837" lon="-1.19901">
        <ele>214.143864</ele>
        <time>2026-05-22T07:15:14.000Z</time>
      </trkpt>
      <trkpt lat="43.22837" lon="-1.19898">
        <ele>214.3111</ele>
        <time>2026-05-22T07:15:15.000Z</time>
      </trkpt>
      <trkpt lat="43.22836" lon="-1.19895">
        <ele>214.475797</ele>
        <time>2026-05-22T07:15:16.000Z</time>
      </trkpt>
      <trkpt lat="43.22835" lon="-1.19893">
        <ele>214.637547</ele>
        <time>2026-05-22T07:15:17.000Z</time>
      </trkpt>
      <trkpt lat="43.22835" lon="-1.1989">
        <ele>214.796699</ele>
        <time>2026-05-22T07:15:18.000Z</time>
      </trkpt>
      <trkpt lat="43.22834" lon="-1.19887">
        <ele>214.958449</ele>
        <time>2026-05-22T07:15:19.000Z</time>
      </trkpt>
      <trkpt lat="43.22833" lon="-1.19885">
        <ele>215.104114</ele>
        <time>2026-05-22T07:15:20.000Z</time>
      </trkpt>
      <trkpt lat="43.22833" lon="-1.19882">
        <ele>215.272089</ele>
        <time>2026-05-22T07:15:21.000Z</time>
      </trkpt>
      <trkpt lat="43.22832" lon="-1.1988">
        <ele>215.433839</ele>
        <time>2026-05-22T07:15:22.000Z</time>
      </trkpt>
      <trkpt lat="43.22831" lon="-1.19877">
        <ele>215.588908</ele>
        <time>2026-05-22T07:15:23.000Z</time>
      </trkpt>
      <trkpt lat="43.22831" lon="-1.19874">
        <ele>215.757139</ele>
        <time>2026-05-22T07:15:24.000Z</time>
      </trkpt>
      <trkpt lat="43.2283" lon="-1.19872">
        <ele>215.933059</ele>
        <time>2026-05-22T07:15:25.000Z</time>
      </trkpt>
      <trkpt lat="43.2283" lon="-1.19869">
        <ele>216.105804</ele>
        <time>2026-05-22T07:15:26.000Z</time>
      </trkpt>
      <trkpt lat="43.22829" lon="-1.19866">
        <ele>216.264956</ele>
        <time>2026-05-22T07:15:27.000Z</time>
      </trkpt>
      <trkpt lat="43.22828" lon="-1.19864">
        <ele>216.424108</ele>
        <time>2026-05-22T07:15:28.000Z</time>
      </trkpt>
      <trkpt lat="43.22828" lon="-1.19861">
        <ele>216.566668</ele>
        <time>2026-05-22T07:15:29.000Z</time>
      </trkpt>
      <trkpt lat="43.22827" lon="-1.19859">
        <ele>216.733904</ele>
        <time>2026-05-22T07:15:30.000Z</time>
      </trkpt>
      <trkpt lat="43.22827" lon="-1.19856">
        <ele>216.887503</ele>
        <time>2026-05-22T07:15:31.000Z</time>
      </trkpt>
      <trkpt lat="43.22826" lon="-1.19853">
        <ele>217.046655</ele>
        <time>2026-05-22T07:15:32.000Z</time>
      </trkpt>
      <trkpt lat="43.22826" lon="-1.19851">
        <ele>217.20027</ele>
        <time>2026-05-22T07:15:33.000Z</time>
      </trkpt>
      <trkpt lat="43.22825" lon="-1.19848">
        <ele>217.355339</ele>
        <time>2026-05-22T07:15:34.000Z</time>
      </trkpt>
      <trkpt lat="43.22825" lon="-1.19845">
        <ele>217.521845</ele>
        <time>2026-05-22T07:15:35.000Z</time>
      </trkpt>
      <trkpt lat="43.22825" lon="-1.19843">
        <ele>217.692772</ele>
        <time>2026-05-22T07:15:36.000Z</time>
      </trkpt>
      <trkpt lat="43.22824" lon="-1.1984">
        <ele>217.855341</ele>
        <time>2026-05-22T07:15:37.000Z</time>
      </trkpt>
      <trkpt lat="43.22824" lon="-1.19837">
        <ele>218.01791</ele>
        <time>2026-05-22T07:15:38.000Z</time>
      </trkpt>
      <trkpt lat="43.22823" lon="-1.19834">
        <ele>218.183062</ele>
        <time>2026-05-22T07:15:39.000Z</time>
      </trkpt>
      <trkpt lat="43.22823" lon="-1.19832">
        <ele>218.343845</ele>
        <time>2026-05-22T07:15:40.000Z</time>
      </trkpt>
      <trkpt lat="43.22822" lon="-1.19829">
        <ele>218.516082</ele>
        <time>2026-05-22T07:15:41.000Z</time>
      </trkpt>
      <trkpt lat="43.22822" lon="-1.19826">
        <ele>218.663935</ele>
        <time>2026-05-22T07:15:42.000Z</time>
      </trkpt>
      <trkpt lat="43.22822" lon="-1.19824">
        <ele>218.815871</ele>
        <time>2026-05-22T07:15:43.000Z</time>
      </trkpt>
      <trkpt lat="43.22822" lon="-1.19821">
        <ele>218.973634</ele>
        <time>2026-05-22T07:15:44.000Z</time>
      </trkpt>
      <trkpt lat="43.22822" lon="-1.19818">
        <ele>219.131397</ele>
        <time>2026-05-22T07:15:45.000Z</time>
      </trkpt>
      <trkpt lat="43.22822" lon="-1.19816">
        <ele>219.283121</ele>
        <time>2026-05-22T07:15:46.000Z</time>
      </trkpt>
      <trkpt lat="43.22822" lon="-1.19813">
        <ele>219.440884</ele>
        <time>2026-05-22T07:15:47.000Z</time>
      </trkpt>
      <trkpt lat="43.22822" lon="-1.1981">
        <ele>219.598647</ele>
        <time>2026-05-22T07:15:48.000Z</time>
      </trkpt>
      <trkpt lat="43.22822" lon="-1.19807">
        <ele>219.763799</ele>
        <time>2026-05-22T07:15:49.000Z</time>
      </trkpt>
      <trkpt lat="43.22821" lon="-1.19805">
        <ele>219.928951</ele>
        <time>2026-05-22T07:15:50.000Z</time>
      </trkpt>
      <trkpt lat="43.22821" lon="-1.19802">
        <ele>220.094104</ele>
        <time>2026-05-22T07:15:51.000Z</time>
      </trkpt>
      <trkpt lat="43.22821" lon="-1.19799">
        <ele>220.251867</ele>
        <time>2026-05-22T07:15:52.000Z</time>
      </trkpt>
      <trkpt lat="43.22821" lon="-1.19797">
        <ele>220.403591</ele>
        <time>2026-05-22T07:15:53.000Z</time>
      </trkpt>
      <trkpt lat="43.22821" lon="-1.19794">
        <ele>220.561354</ele>
        <time>2026-05-22T07:15:54.000Z</time>
      </trkpt>
      <trkpt lat="43.22821" lon="-1.19791">
        <ele>220.713289</ele>
        <time>2026-05-22T07:15:55.000Z</time>
      </trkpt>
      <trkpt lat="43.22821" lon="-1.19788">
        <ele>220.876684</ele>
        <time>2026-05-22T07:15:56.000Z</time>
      </trkpt>
      <trkpt lat="43.2282" lon="-1.19786">
        <ele>221.040863</ele>
        <time>2026-05-22T07:15:57.000Z</time>
      </trkpt>
      <trkpt lat="43.2282" lon="-1.19783">
        <ele>221.204258</ele>
        <time>2026-05-22T07:15:58.000Z</time>
      </trkpt>
      <trkpt lat="43.2282" lon="-1.1978">
        <ele>221.362021</ele>
        <time>2026-05-22T07:15:59.000Z</time>
      </trkpt>
      <trkpt lat="43.2282" lon="-1.19777">
        <ele>221.525612</ele>
        <time>2026-05-22T07:16:00.000Z</time>
      </trkpt>
      <trkpt lat="43.2282" lon="-1.19775">
        <ele>221.689204</ele>
        <time>2026-05-22T07:16:01.000Z</time>
      </trkpt>
      <trkpt lat="43.2282" lon="-1.19772">
        <ele>221.835092</ele>
        <time>2026-05-22T07:16:02.000Z</time>
      </trkpt>
      <trkpt lat="43.2282" lon="-1.19769">
        <ele>221.987028</ele>
        <time>2026-05-22T07:16:03.000Z</time>
      </trkpt>
      <trkpt lat="43.22821" lon="-1.19767">
        <ele>222.138963</ele>
        <time>2026-05-22T07:16:04.000Z</time>
      </trkpt>
      <trkpt lat="43.22821" lon="-1.19764">
        <ele>222.29153</ele>
        <time>2026-05-22T07:16:05.000Z</time>
      </trkpt>
      <trkpt lat="43.22821" lon="-1.19761">
        <ele>222.455709</ele>
        <time>2026-05-22T07:16:06.000Z</time>
      </trkpt>
      <trkpt lat="43.22821" lon="-1.19759">
        <ele>222.61509</ele>
        <time>2026-05-22T07:16:07.000Z</time>
      </trkpt>
      <trkpt lat="43.22821" lon="-1.19756">
        <ele>222.767025</ele>
        <time>2026-05-22T07:16:08.000Z</time>
      </trkpt>
      <trkpt lat="43.22822" lon="-1.19754">
        <ele>222.919592</ele>
        <time>2026-05-22T07:16:09.000Z</time>
      </trkpt>
      <trkpt lat="43.22822" lon="-1.19751">
        <ele>223.078973</ele>
        <time>2026-05-22T07:16:10.000Z</time>
      </trkpt>
      <trkpt lat="43.22822" lon="-1.19748">
        <ele>223.234043</ele>
        <time>2026-05-22T07:16:11.000Z</time>
      </trkpt>
      <trkpt lat="43.22822" lon="-1.19746">
        <ele>223.385978</ele>
        <time>2026-05-22T07:16:12.000Z</time>
      </trkpt>
      <trkpt lat="43.22822" lon="-1.19743">
        <ele>223.54492</ele>
        <time>2026-05-22T07:16:13.000Z</time>
      </trkpt>
      <trkpt lat="43.22822" lon="-1.1974">
        <ele>223.710143</ele>
        <time>2026-05-22T07:16:14.000Z</time>
      </trkpt>
      <trkpt lat="43.22823" lon="-1.19737">
        <ele>223.876158</ele>
        <time>2026-05-22T07:16:15.000Z</time>
      </trkpt>
      <trkpt lat="43.22823" lon="-1.19734">
        <ele>224.050322</ele>
        <time>2026-05-22T07:16:16.000Z</time>
      </trkpt>
      <trkpt lat="43.22823" lon="-1.19732">
        <ele>224.216337</ele>
        <time>2026-05-22T07:16:17.000Z</time>
      </trkpt>
      <trkpt lat="43.22824" lon="-1.19729">
        <ele>224.389177</ele>
        <time>2026-05-22T07:16:18.000Z</time>
      </trkpt>
      <trkpt lat="43.22824" lon="-1.19726">
        <ele>224.562017</ele>
        <time>2026-05-22T07:16:19.000Z</time>
      </trkpt>
      <trkpt lat="43.22824" lon="-1.19723">
        <ele>224.734857</ele>
        <time>2026-05-22T07:16:20.000Z</time>
      </trkpt>
      <trkpt lat="43.22824" lon="-1.1972">
        <ele>224.901857</ele>
        <time>2026-05-22T07:16:21.000Z</time>
      </trkpt>
      <trkpt lat="43.22825" lon="-1.19717">
        <ele>225.068857</ele>
        <time>2026-05-22T07:16:22.000Z</time>
      </trkpt>
      <trkpt lat="43.22825" lon="-1.19715">
        <ele>225.230022</ele>
        <time>2026-05-22T07:16:23.000Z</time>
      </trkpt>
      <trkpt lat="43.22825" lon="-1.19712">
        <ele>225.391186</ele>
        <time>2026-05-22T07:16:24.000Z</time>
      </trkpt>
      <trkpt lat="43.22826" lon="-1.19709">
        <ele>225.557201</ele>
        <time>2026-05-22T07:16:25.000Z</time>
      </trkpt>
      <trkpt lat="43.22826" lon="-1.19706">
        <ele>225.722623</ele>
        <time>2026-05-22T07:16:26.000Z</time>
      </trkpt>
      <trkpt lat="43.22826" lon="-1.19704">
        <ele>225.876258</ele>
        <time>2026-05-22T07:16:27.000Z</time>
      </trkpt>
      <trkpt lat="43.22826" lon="-1.19701">
        <ele>226.037422</ele>
        <time>2026-05-22T07:16:28.000Z</time>
      </trkpt>
      <trkpt lat="43.22826" lon="-1.19698">
        <ele>226.192755</ele>
        <time>2026-05-22T07:16:29.000Z</time>
      </trkpt>
      <trkpt lat="43.22827" lon="-1.19696">
        <ele>226.349559</ele>
        <time>2026-05-22T07:16:30.000Z</time>
      </trkpt>
      <trkpt lat="43.22827" lon="-1.19693">
        <ele>226.512142</ele>
        <time>2026-05-22T07:16:31.000Z</time>
      </trkpt>
      <trkpt lat="43.22827" lon="-1.1969">
        <ele>226.68403</ele>
        <time>2026-05-22T07:16:32.000Z</time>
      </trkpt>
      <trkpt lat="43.22828" lon="-1.19688">
        <ele>226.845195</ele>
        <time>2026-05-22T07:16:33.000Z</time>
      </trkpt>
      <trkpt lat="43.22828" lon="-1.19685">
        <ele>227.009582</ele>
        <time>2026-05-22T07:16:34.000Z</time>
      </trkpt>
      <trkpt lat="43.22828" lon="-1.19682">
        <ele>227.170746</ele>
        <time>2026-05-22T07:16:35.000Z</time>
      </trkpt>
      <trkpt lat="43.22829" lon="-1.1968">
        <ele>227.326079</ele>
        <time>2026-05-22T07:16:36.000Z</time>
      </trkpt>
      <trkpt lat="43.22829" lon="-1.19677">
        <ele>227.493079</ele>
        <time>2026-05-22T07:16:37.000Z</time>
      </trkpt>
      <trkpt lat="43.22829" lon="-1.19674">
        <ele>227.660079</ele>
        <time>2026-05-22T07:16:38.000Z</time>
      </trkpt>
      <trkpt lat="43.2283" lon="-1.19671">
        <ele>227.831968</ele>
        <time>2026-05-22T07:16:39.000Z</time>
      </trkpt>
      <trkpt lat="43.2283" lon="-1.19668">
        <ele>228.006131</ele>
        <time>2026-05-22T07:16:40.000Z</time>
      </trkpt>
      <trkpt lat="43.2283" lon="-1.19665">
        <ele>228.173131</ele>
        <time>2026-05-22T07:16:41.000Z</time>
      </trkpt>
      <trkpt lat="43.22831" lon="-1.19662">
        <ele>228.345971</ele>
        <time>2026-05-22T07:16:42.000Z</time>
      </trkpt>
      <trkpt lat="43.22831" lon="-1.1966">
        <ele>228.506114</ele>
        <time>2026-05-22T07:16:43.000Z</time>
      </trkpt>
      <trkpt lat="43.22831" lon="-1.19657">
        <ele>228.673114</ele>
        <time>2026-05-22T07:16:44.000Z</time>
      </trkpt>
      <trkpt lat="43.22831" lon="-1.19654">
        <ele>228.845003</ele>
        <time>2026-05-22T07:16:45.000Z</time>
      </trkpt>
      <trkpt lat="43.22831" lon="-1.19651">
        <ele>229.011018</ele>
        <time>2026-05-22T07:16:46.000Z</time>
      </trkpt>
      <trkpt lat="43.22832" lon="-1.19649">
        <ele>229.172182</ele>
        <time>2026-05-22T07:16:47.000Z</time>
      </trkpt>
      <trkpt lat="43.22832" lon="-1.19646">
        <ele>229.346345</ele>
        <time>2026-05-22T07:16:48.000Z</time>
      </trkpt>
      <trkpt lat="43.22832" lon="-1.19643">
        <ele>229.513345</ele>
        <time>2026-05-22T07:16:49.000Z</time>
      </trkpt>
      <trkpt lat="43.22833" lon="-1.1964">
        <ele>229.673488</ele>
        <time>2026-05-22T07:16:50.000Z</time>
      </trkpt>
      <trkpt lat="43.22833" lon="-1.19637">
        <ele>229.839503</ele>
        <time>2026-05-22T07:16:51.000Z</time>
      </trkpt>
      <trkpt lat="43.22833" lon="-1.19634">
        <ele>230.011392</ele>
        <time>2026-05-22T07:16:52.000Z</time>
      </trkpt>
      <trkpt lat="43.22833" lon="-1.19632">
        <ele>230.177407</ele>
        <time>2026-05-22T07:16:53.000Z</time>
      </trkpt>
      <trkpt lat="43.22833" lon="-1.19629">
        <ele>230.342828</ele>
        <time>2026-05-22T07:16:54.000Z</time>
      </trkpt>
      <trkpt lat="43.22834" lon="-1.19626">
        <ele>230.509828</ele>
        <time>2026-05-22T07:16:55.000Z</time>
      </trkpt>
      <trkpt lat="43.22834" lon="-1.19623">
        <ele>230.683991</ele>
        <time>2026-05-22T07:16:56.000Z</time>
      </trkpt>
      <trkpt lat="43.22834" lon="-1.1962">
        <ele>230.844134</ele>
        <time>2026-05-22T07:16:57.000Z</time>
      </trkpt>
      <trkpt lat="43.22834" lon="-1.19618">
        <ele>231.003456</ele>
        <time>2026-05-22T07:16:58.000Z</time>
      </trkpt>
      <trkpt lat="43.22834" lon="-1.19615">
        <ele>231.162984</ele>
        <time>2026-05-22T07:16:59.000Z</time>
      </trkpt>
      <trkpt lat="43.22835" lon="-1.19612">
        <ele>231.323127</ele>
        <time>2026-05-22T07:17:00.000Z</time>
      </trkpt>
      <trkpt lat="43.22835" lon="-1.1961">
        <ele>231.483271</ele>
        <time>2026-05-22T07:17:01.000Z</time>
      </trkpt>
      <trkpt lat="43.22835" lon="-1.19607">
        <ele>231.637545</ele>
        <time>2026-05-22T07:17:02.000Z</time>
      </trkpt>
      <trkpt lat="43.22835" lon="-1.19604">
        <ele>231.797688</ele>
        <time>2026-05-22T07:17:03.000Z</time>
      </trkpt>
      <trkpt lat="43.22835" lon="-1.19602">
        <ele>231.946095</ele>
        <time>2026-05-22T07:17:04.000Z</time>
      </trkpt>
      <trkpt lat="43.22835" lon="-1.19599">
        <ele>232.111318</ele>
        <time>2026-05-22T07:17:05.000Z</time>
      </trkpt>
      <trkpt lat="43.22835" lon="-1.19596">
        <ele>232.270846</ele>
        <time>2026-05-22T07:17:06.000Z</time>
      </trkpt>
      <trkpt lat="43.22835" lon="-1.19594">
        <ele>232.430374</ele>
        <time>2026-05-22T07:17:07.000Z</time>
      </trkpt>
      <trkpt lat="43.22835" lon="-1.19591">
        <ele>232.591538</ele>
        <time>2026-05-22T07:17:08.000Z</time>
      </trkpt>
      <trkpt lat="43.22835" lon="-1.19588">
        <ele>232.751065</ele>
        <time>2026-05-22T07:17:09.000Z</time>
      </trkpt>
      <trkpt lat="43.22834" lon="-1.19585">
        <ele>232.923905</ele>
        <time>2026-05-22T07:17:10.000Z</time>
      </trkpt>
      <trkpt lat="43.22834" lon="-1.19583">
        <ele>233.084049</ele>
        <time>2026-05-22T07:17:11.000Z</time>
      </trkpt>
      <trkpt lat="43.22834" lon="-1.1958">
        <ele>233.237683</ele>
        <time>2026-05-22T07:17:12.000Z</time>
      </trkpt>
      <trkpt lat="43.22834" lon="-1.19577">
        <ele>233.404683</ele>
        <time>2026-05-22T07:17:13.000Z</time>
      </trkpt>
      <trkpt lat="43.22834" lon="-1.19575">
        <ele>233.565847</ele>
        <time>2026-05-22T07:17:14.000Z</time>
      </trkpt>
      <trkpt lat="43.22833" lon="-1.19572">
        <ele>233.727011</ele>
        <time>2026-05-22T07:17:15.000Z</time>
      </trkpt>
      <trkpt lat="43.22833" lon="-1.19569">
        <ele>233.888175</ele>
        <time>2026-05-22T07:17:16.000Z</time>
      </trkpt>
      <trkpt lat="43.22833" lon="-1.19567">
        <ele>234.042449</ele>
        <time>2026-05-22T07:17:17.000Z</time>
      </trkpt>
      <trkpt lat="43.22832" lon="-1.19564">
        <ele>234.197782</ele>
        <time>2026-05-22T07:17:18.000Z</time>
      </trkpt>
      <trkpt lat="43.22832" lon="-1.19561">
        <ele>234.358946</ele>
        <time>2026-05-22T07:17:19.000Z</time>
      </trkpt>
      <trkpt lat="43.22831" lon="-1.19559">
        <ele>234.504033</ele>
        <time>2026-05-22T07:17:20.000Z</time>
      </trkpt>
      <trkpt lat="43.22831" lon="-1.19557">
        <ele>234.659769</ele>
        <time>2026-05-22T07:17:21.000Z</time>
      </trkpt>
      <trkpt lat="43.2283" lon="-1.19554">
        <ele>234.809493</ele>
        <time>2026-05-22T07:17:22.000Z</time>
      </trkpt>
      <trkpt lat="43.22829" lon="-1.19552">
        <ele>234.970426</ele>
        <time>2026-05-22T07:17:23.000Z</time>
      </trkpt>
      <trkpt lat="43.22829" lon="-1.19549">
        <ele>235.125743</ele>
        <time>2026-05-22T07:17:24.000Z</time>
      </trkpt>
      <trkpt lat="43.22828" lon="-1.19547">
        <ele>235.281479</ele>
        <time>2026-05-22T07:17:25.000Z</time>
      </trkpt>
      <trkpt lat="43.22827" lon="-1.19544">
        <ele>235.440754</ele>
        <time>2026-05-22T07:17:26.000Z</time>
      </trkpt>
      <trkpt lat="43.22826" lon="-1.19542">
        <ele>235.609042</ele>
        <time>2026-05-22T07:17:27.000Z</time>
      </trkpt>
      <trkpt lat="43.22825" lon="-1.19539">
        <ele>235.76708</ele>
        <time>2026-05-22T07:17:28.000Z</time>
      </trkpt>
      <trkpt lat="43.22825" lon="-1.19537">
        <ele>235.933621</ele>
        <time>2026-05-22T07:17:29.000Z</time>
      </trkpt>
      <trkpt lat="43.22824" lon="-1.19534">
        <ele>236.089357</ele>
        <time>2026-05-22T07:17:30.000Z</time>
      </trkpt>
      <trkpt lat="43.22823" lon="-1.19532">
        <ele>236.261689</ele>
        <time>2026-05-22T07:17:31.000Z</time>
      </trkpt>
      <trkpt lat="43.22822" lon="-1.1953">
        <ele>236.424033</ele>
        <time>2026-05-22T07:17:32.000Z</time>
      </trkpt>
      <trkpt lat="43.2282" lon="-1.19527">
        <ele>236.581513</ele>
        <time>2026-05-22T07:17:33.000Z</time>
      </trkpt>
      <trkpt lat="43.22819" lon="-1.19525">
        <ele>236.739558</ele>
        <time>2026-05-22T07:17:34.000Z</time>
      </trkpt>
      <trkpt lat="43.22819" lon="-1.19523">
        <ele>236.884645</ele>
        <time>2026-05-22T07:17:35.000Z</time>
      </trkpt>
      <trkpt lat="43.22818" lon="-1.19521">
        <ele>237.035035</ele>
        <time>2026-05-22T07:17:36.000Z</time>
      </trkpt>
      <trkpt lat="43.22817" lon="-1.19518">
        <ele>237.188043</ele>
        <time>2026-05-22T07:17:37.000Z</time>
      </trkpt>
      <trkpt lat="43.22816" lon="-1.19516">
        <ele>237.336078</ele>
        <time>2026-05-22T07:17:38.000Z</time>
      </trkpt>
      <trkpt lat="43.22815" lon="-1.19514">
        <ele>237.488693</ele>
        <time>2026-05-22T07:17:39.000Z</time>
      </trkpt>
      <trkpt lat="43.22813" lon="-1.19512">
        <ele>237.637065</ele>
        <time>2026-05-22T07:17:40.000Z</time>
      </trkpt>
      <trkpt lat="43.22812" lon="-1.1951">
        <ele>237.79451</ele>
        <time>2026-05-22T07:17:41.000Z</time>
      </trkpt>
      <trkpt lat="43.22811" lon="-1.19508">
        <ele>237.937709</ele>
        <time>2026-05-22T07:17:42.000Z</time>
      </trkpt>
      <trkpt lat="43.2281" lon="-1.19506">
        <ele>238.099328</ele>
        <time>2026-05-22T07:17:43.000Z</time>
      </trkpt>
      <trkpt lat="43.22809" lon="-1.19504">
        <ele>238.239036</ele>
        <time>2026-05-22T07:17:44.000Z</time>
      </trkpt>
      <trkpt lat="43.22808" lon="-1.19502">
        <ele>238.388463</ele>
        <time>2026-05-22T07:17:45.000Z</time>
      </trkpt>
      <trkpt lat="43.22806" lon="-1.195">
        <ele>238.525861</ele>
        <time>2026-05-22T07:17:46.000Z</time>
      </trkpt>
      <trkpt lat="43.22805" lon="-1.19498">
        <ele>238.68205</ele>
        <time>2026-05-22T07:17:47.000Z</time>
      </trkpt>
      <trkpt lat="43.22804" lon="-1.19497">
        <ele>238.818073</ele>
        <time>2026-05-22T07:17:48.000Z</time>
      </trkpt>
      <trkpt lat="43.22802" lon="-1.19495">
        <ele>238.963388</ele>
        <time>2026-05-22T07:17:49.000Z</time>
      </trkpt>
      <trkpt lat="43.22801" lon="-1.19493">
        <ele>239.108702</ele>
        <time>2026-05-22T07:17:50.000Z</time>
      </trkpt>
      <trkpt lat="43.22799" lon="-1.19491">
        <ele>239.257554</ele>
        <time>2026-05-22T07:17:51.000Z</time>
      </trkpt>
      <trkpt lat="43.22798" lon="-1.19489">
        <ele>239.398856</ele>
        <time>2026-05-22T07:17:52.000Z</time>
      </trkpt>
      <trkpt lat="43.22797" lon="-1.19487">
        <ele>239.549511</ele>
        <time>2026-05-22T07:17:53.000Z</time>
      </trkpt>
      <trkpt lat="43.22795" lon="-1.19485">
        <ele>239.708206</ele>
        <time>2026-05-22T07:17:54.000Z</time>
      </trkpt>
      <trkpt lat="43.22794" lon="-1.19484">
        <ele>239.845604</ele>
        <time>2026-05-22T07:17:55.000Z</time>
      </trkpt>
      <trkpt lat="43.22793" lon="-1.19482">
        <ele>240.001793</ele>
        <time>2026-05-22T07:17:56.000Z</time>
      </trkpt>
      <trkpt lat="43.22791" lon="-1.1948">
        <ele>240.156622</ele>
        <time>2026-05-22T07:17:57.000Z</time>
      </trkpt>
      <trkpt lat="43.22789" lon="-1.19478">
        <ele>240.320915</ele>
        <time>2026-05-22T07:17:58.000Z</time>
      </trkpt>
      <trkpt lat="43.22788" lon="-1.19477">
        <ele>240.46395</ele>
        <time>2026-05-22T07:17:59.000Z</time>
      </trkpt>
      <trkpt lat="43.22786" lon="-1.19475">
        <ele>240.612802</ele>
        <time>2026-05-22T07:18:00.000Z</time>
      </trkpt>
      <trkpt lat="43.22785" lon="-1.19473">
        <ele>240.770531</ele>
        <time>2026-05-22T07:18:01.000Z</time>
      </trkpt>
      <trkpt lat="43.22783" lon="-1.19472">
        <ele>240.934627</ele>
        <time>2026-05-22T07:18:02.000Z</time>
      </trkpt>
      <trkpt lat="43.22781" lon="-1.1947">
        <ele>241.076901</ele>
        <time>2026-05-22T07:18:03.000Z</time>
      </trkpt>
      <trkpt lat="43.2278" lon="-1.19469">
        <ele>241.215704</ele>
        <time>2026-05-22T07:18:04.000Z</time>
      </trkpt>
      <trkpt lat="43.22778" lon="-1.19467">
        <ele>241.367184</ele>
        <time>2026-05-22T07:18:05.000Z</time>
      </trkpt>
      <trkpt lat="43.22777" lon="-1.19466">
        <ele>241.518664</ele>
        <time>2026-05-22T07:18:06.000Z</time>
      </trkpt>
      <trkpt lat="43.22775" lon="-1.19464">
        <ele>241.660677</ele>
        <time>2026-05-22T07:18:07.000Z</time>
      </trkpt>
      <trkpt lat="43.22773" lon="-1.19463">
        <ele>241.815321</ele>
        <time>2026-05-22T07:18:08.000Z</time>
      </trkpt>
      <trkpt lat="43.22772" lon="-1.19461">
        <ele>241.951225</ele>
        <time>2026-05-22T07:18:09.000Z</time>
      </trkpt>
      <trkpt lat="43.2277" lon="-1.1946">
        <ele>242.108954</ele>
        <time>2026-05-22T07:18:10.000Z</time>
      </trkpt>
      <trkpt lat="43.22769" lon="-1.19458">
        <ele>242.266682</ele>
        <time>2026-05-22T07:18:11.000Z</time>
      </trkpt>
      <trkpt lat="43.22767" lon="-1.19457">
        <ele>242.427816</ele>
        <time>2026-05-22T07:18:12.000Z</time>
      </trkpt>
      <trkpt lat="43.22765" lon="-1.19455">
        <ele>242.595537</ele>
        <time>2026-05-22T07:18:13.000Z</time>
      </trkpt>
      <trkpt lat="43.22763" lon="-1.19454">
        <ele>242.757986</ele>
        <time>2026-05-22T07:18:14.000Z</time>
      </trkpt>
      <trkpt lat="43.22761" lon="-1.19452">
        <ele>242.922082</ele>
        <time>2026-05-22T07:18:15.000Z</time>
      </trkpt>
      <trkpt lat="43.2276" lon="-1.1945">
        <ele>243.076912</ele>
        <time>2026-05-22T07:18:16.000Z</time>
      </trkpt>
      <trkpt lat="43.22758" lon="-1.19449">
        <ele>243.23786</ele>
        <time>2026-05-22T07:18:17.000Z</time>
      </trkpt>
      <trkpt lat="43.22756" lon="-1.19447">
        <ele>243.379873</ele>
        <time>2026-05-22T07:18:18.000Z</time>
      </trkpt>
      <trkpt lat="43.22755" lon="-1.19446">
        <ele>243.540821</ele>
        <time>2026-05-22T07:18:19.000Z</time>
      </trkpt>
      <trkpt lat="43.22753" lon="-1.19444">
        <ele>243.689086</ele>
        <time>2026-05-22T07:18:20.000Z</time>
      </trkpt>
      <trkpt lat="43.22751" lon="-1.19442">
        <ele>243.843916</ele>
        <time>2026-05-22T07:18:21.000Z</time>
      </trkpt>
      <trkpt lat="43.2275" lon="-1.19441">
        <ele>243.992768</ele>
        <time>2026-05-22T07:18:22.000Z</time>
      </trkpt>
      <trkpt lat="43.22748" lon="-1.19439">
        <ele>244.147598</ele>
        <time>2026-05-22T07:18:23.000Z</time>
      </trkpt>
      <trkpt lat="43.22747" lon="-1.19437">
        <ele>244.308731</ele>
        <time>2026-05-22T07:18:24.000Z</time>
      </trkpt>
      <trkpt lat="43.22745" lon="-1.19436">
        <ele>244.456997</ele>
        <time>2026-05-22T07:18:25.000Z</time>
      </trkpt>
      <trkpt lat="43.22743" lon="-1.19434">
        <ele>244.602363</ele>
        <time>2026-05-22T07:18:26.000Z</time>
      </trkpt>
      <trkpt lat="43.22742" lon="-1.19432">
        <ele>244.75302</ele>
        <time>2026-05-22T07:18:27.000Z</time>
      </trkpt>
      <trkpt lat="43.22741" lon="-1.19431">
        <ele>244.899809</ele>
        <time>2026-05-22T07:18:28.000Z</time>
      </trkpt>
      <trkpt lat="43.22739" lon="-1.19429">
        <ele>245.046599</ele>
        <time>2026-05-22T07:18:29.000Z</time>
      </trkpt>
      <trkpt lat="43.22738" lon="-1.19427">
        <ele>245.202789</ele>
        <time>2026-05-22T07:18:30.000Z</time>
      </trkpt>
      <trkpt lat="43.22736" lon="-1.19425">
        <ele>245.358978</ele>
        <time>2026-05-22T07:18:31.000Z</time>
      </trkpt>
      <trkpt lat="43.22735" lon="-1.19423">
        <ele>245.498382</ele>
        <time>2026-05-22T07:18:32.000Z</time>
      </trkpt>
      <trkpt lat="43.22734" lon="-1.19421">
        <ele>245.64283</ele>
        <time>2026-05-22T07:18:33.000Z</time>
      </trkpt>
      <trkpt lat="43.22732" lon="-1.1942">
        <ele>245.783018</ele>
        <time>2026-05-22T07:18:34.000Z</time>
      </trkpt>
      <trkpt lat="43.22731" lon="-1.19418">
        <ele>245.933675</ele>
        <time>2026-05-22T07:18:35.000Z</time>
      </trkpt>
      <trkpt lat="43.2273" lon="-1.19416">
        <ele>246.084331</ele>
        <time>2026-05-22T07:18:36.000Z</time>
      </trkpt>
      <trkpt lat="43.22728" lon="-1.19414">
        <ele>246.235812</ele>
        <time>2026-05-22T07:18:37.000Z</time>
      </trkpt>
      <trkpt lat="43.22727" lon="-1.19412">
        <ele>246.384665</ele>
        <time>2026-05-22T07:18:38.000Z</time>
      </trkpt>
      <trkpt lat="43.22725" lon="-1.1941">
        <ele>246.533458</ele>
        <time>2026-05-22T07:18:39.000Z</time>
      </trkpt>
      <trkpt lat="43.22724" lon="-1.19408">
        <ele>246.688086</ele>
        <time>2026-05-22T07:18:40.000Z</time>
      </trkpt>
      <trkpt lat="43.22723" lon="-1.19406">
        <ele>246.837514</ele>
        <time>2026-05-22T07:18:41.000Z</time>
      </trkpt>
      <trkpt lat="43.22721" lon="-1.19404">
        <ele>247.000367</ele>
        <time>2026-05-22T07:18:42.000Z</time>
      </trkpt>
      <trkpt lat="43.2272" lon="-1.19402">
        <ele>247.162659</ele>
        <time>2026-05-22T07:18:43.000Z</time>
      </trkpt>
      <trkpt lat="43.22719" lon="-1.194">
        <ele>247.320378</ele>
        <time>2026-05-22T07:18:44.000Z</time>
      </trkpt>
      <trkpt lat="43.22718" lon="-1.19397">
        <ele>247.469706</ele>
        <time>2026-05-22T07:18:45.000Z</time>
      </trkpt>
      <trkpt lat="43.22717" lon="-1.19395">
        <ele>247.623096</ele>
        <time>2026-05-22T07:18:46.000Z</time>
      </trkpt>
      <trkpt lat="43.22716" lon="-1.19393">
        <ele>247.781177</ele>
        <time>2026-05-22T07:18:47.000Z</time>
      </trkpt>
      <trkpt lat="43.22714" lon="-1.1939">
        <ele>247.944004</ele>
        <time>2026-05-22T07:18:48.000Z</time>
      </trkpt>
      <trkpt lat="43.22713" lon="-1.19388">
        <ele>248.106831</ele>
        <time>2026-05-22T07:18:49.000Z</time>
      </trkpt>
      <trkpt lat="43.22712" lon="-1.19385">
        <ele>248.260221</ele>
        <time>2026-05-22T07:18:50.000Z</time>
      </trkpt>
      <trkpt lat="43.22711" lon="-1.19383">
        <ele>248.427133</ele>
        <time>2026-05-22T07:18:51.000Z</time>
      </trkpt>
      <trkpt lat="43.2271" lon="-1.1938">
        <ele>248.581275</ele>
        <time>2026-05-22T07:18:52.000Z</time>
      </trkpt>
      <trkpt lat="43.22709" lon="-1.19378">
        <ele>248.73351</ele>
        <time>2026-05-22T07:18:53.000Z</time>
      </trkpt>
      <trkpt lat="43.22708" lon="-1.19375">
        <ele>248.88898</ele>
        <time>2026-05-22T07:18:54.000Z</time>
      </trkpt>
      <trkpt lat="43.22708" lon="-1.19373">
        <ele>249.041214</ele>
        <time>2026-05-22T07:18:55.000Z</time>
      </trkpt>
      <trkpt lat="43.22707" lon="-1.1937">
        <ele>249.195754</ele>
        <time>2026-05-22T07:18:56.000Z</time>
      </trkpt>
      <trkpt lat="43.22706" lon="-1.19368">
        <ele>249.358261</ele>
        <time>2026-05-22T07:18:57.000Z</time>
      </trkpt>
      <trkpt lat="43.22705" lon="-1.19365">
        <ele>249.518042</ele>
        <time>2026-05-22T07:18:58.000Z</time>
      </trkpt>
      <trkpt lat="43.22705" lon="-1.19362">
        <ele>249.680764</ele>
        <time>2026-05-22T07:18:59.000Z</time>
      </trkpt>
      <trkpt lat="43.22704" lon="-1.19359">
        <ele>249.841496</ele>
        <time>2026-05-22T07:19:00.000Z</time>
      </trkpt>
      <trkpt lat="43.22704" lon="-1.19356">
        <ele>250.00058</ele>
        <time>2026-05-22T07:19:01.000Z</time>
      </trkpt>
      <trkpt lat="43.22703" lon="-1.19353">
        <ele>250.176209</ele>
        <time>2026-05-22T07:19:02.000Z</time>
      </trkpt>
      <trkpt lat="43.22702" lon="-1.19351">
        <ele>250.338715</ele>
        <time>2026-05-22T07:19:03.000Z</time>
      </trkpt>
      <trkpt lat="43.22702" lon="-1.19348">
        <ele>250.498497</ele>
        <time>2026-05-22T07:19:04.000Z</time>
      </trkpt>
      <trkpt lat="43.22701" lon="-1.19345">
        <ele>250.668825</ele>
        <time>2026-05-22T07:19:05.000Z</time>
      </trkpt>
      <trkpt lat="43.22701" lon="-1.19342">
        <ele>250.822441</ele>
        <time>2026-05-22T07:19:06.000Z</time>
      </trkpt>
      <trkpt lat="43.227" lon="-1.1934">
        <ele>250.98575</ele>
        <time>2026-05-22T07:19:07.000Z</time>
      </trkpt>
      <trkpt lat="43.227" lon="-1.19337">
        <ele>251.14261</ele>
        <time>2026-05-22T07:19:08.000Z</time>
      </trkpt>
      <trkpt lat="43.227" lon="-1.19334">
        <ele>251.314192</ele>
        <time>2026-05-22T07:19:09.000Z</time>
      </trkpt>
      <trkpt lat="43.22699" lon="-1.19331">
        <ele>251.488548</ele>
        <time>2026-05-22T07:19:10.000Z</time>
      </trkpt>
      <trkpt lat="43.22699" lon="-1.19328">
        <ele>251.658588</ele>
        <time>2026-05-22T07:19:11.000Z</time>
      </trkpt>
      <trkpt lat="43.22699" lon="-1.19325">
        <ele>251.779068</ele>
        <time>2026-05-22T07:19:12.000Z</time>
      </trkpt>
      <trkpt lat="43.22698" lon="-1.19321">
        <ele>251.809648</ele>
        <time>2026-05-22T07:19:13.000Z</time>
      </trkpt>
      <trkpt lat="43.22698" lon="-1.19319">
        <ele>251.839358</ele>
        <time>2026-05-22T07:19:14.000Z</time>
      </trkpt>
      <trkpt lat="43.22698" lon="-1.19315">
        <ele>251.871154</ele>
        <time>2026-05-22T07:19:15.000Z</time>
      </trkpt>
      <trkpt lat="43.22697" lon="-1.19312">
        <ele>251.90075</ele>
        <time>2026-05-22T07:19:16.000Z</time>
      </trkpt>
      <trkpt lat="43.22697" lon="-1.19309">
        <ele>251.930438</ele>
        <time>2026-05-22T07:19:17.000Z</time>
      </trkpt>
      <trkpt lat="43.22697" lon="-1.19307">
        <ele>251.958066</ele>
        <time>2026-05-22T07:19:18.000Z</time>
      </trkpt>
      <trkpt lat="43.22697" lon="-1.19304">
        <ele>251.987754</ele>
        <time>2026-05-22T07:19:19.000Z</time>
      </trkpt>
      <trkpt lat="43.22697" lon="-1.19301">
        <ele>252.014907</ele>
        <time>2026-05-22T07:19:20.000Z</time>
      </trkpt>
      <trkpt lat="43.22696" lon="-1.19298">
        <ele>252.040456</ele>
        <time>2026-05-22T07:19:21.000Z</time>
      </trkpt>
      <trkpt lat="43.22696" lon="-1.19296">
        <ele>252.068083</ele>
        <time>2026-05-22T07:19:22.000Z</time>
      </trkpt>
      <trkpt lat="43.22696" lon="-1.19292">
        <ele>252.098664</ele>
        <time>2026-05-22T07:19:23.000Z</time>
      </trkpt>
      <trkpt lat="43.22696" lon="-1.19289">
        <ele>252.129483</ele>
        <time>2026-05-22T07:19:24.000Z</time>
      </trkpt>
      <trkpt lat="43.22695" lon="-1.19286">
        <ele>252.160063</ele>
        <time>2026-05-22T07:19:25.000Z</time>
      </trkpt>
      <trkpt lat="43.22695" lon="-1.19283">
        <ele>252.188675</ele>
        <time>2026-05-22T07:19:26.000Z</time>
      </trkpt>
      <trkpt lat="43.22695" lon="-1.1928">
        <ele>252.219256</ele>
        <time>2026-05-22T07:19:27.000Z</time>
      </trkpt>
      <trkpt lat="43.22696" lon="-1.19277">
        <ele>252.249836</ele>
        <time>2026-05-22T07:19:28.000Z</time>
      </trkpt>
      <trkpt lat="43.22695" lon="-1.19274">
        <ele>252.277956</ele>
        <time>2026-05-22T07:19:29.000Z</time>
      </trkpt>
      <trkpt lat="43.22695" lon="-1.19271">
        <ele>252.306822</ele>
        <time>2026-05-22T07:19:30.000Z</time>
      </trkpt>
      <trkpt lat="43.22695" lon="-1.19268">
        <ele>252.339372</ele>
        <time>2026-05-22T07:19:31.000Z</time>
      </trkpt>
      <trkpt lat="43.22695" lon="-1.19265">
        <ele>252.369952</ele>
        <time>2026-05-22T07:19:32.000Z</time>
      </trkpt>
      <trkpt lat="43.22694" lon="-1.19262">
        <ele>252.403568</ele>
        <time>2026-05-22T07:19:33.000Z</time>
      </trkpt>
      <trkpt lat="43.22694" lon="-1.19258">
        <ele>252.437184</ele>
        <time>2026-05-22T07:19:34.000Z</time>
      </trkpt>
      <trkpt lat="43.22694" lon="-1.19255">
        <ele>252.472766</ele>
        <time>2026-05-22T07:19:35.000Z</time>
      </trkpt>
      <trkpt lat="43.22694" lon="-1.19251">
        <ele>252.507285</ele>
        <time>2026-05-22T07:19:36.000Z</time>
      </trkpt>
      <trkpt lat="43.22694" lon="-1.19248">
        <ele>252.539919</ele>
        <time>2026-05-22T07:19:37.000Z</time>
      </trkpt>
      <trkpt lat="43.22694" lon="-1.19244">
        <ele>252.573535</ele>
        <time>2026-05-22T07:19:38.000Z</time>
      </trkpt>
      <trkpt lat="43.22693" lon="-1.19241">
        <ele>252.607151</ele>
        <time>2026-05-22T07:19:39.000Z</time>
      </trkpt>
      <trkpt lat="43.22693" lon="-1.19238">
        <ele>252.64167</ele>
        <time>2026-05-22T07:19:40.000Z</time>
      </trkpt>
      <trkpt lat="43.22693" lon="-1.19234">
        <ele>252.679144</ele>
        <time>2026-05-22T07:19:41.000Z</time>
      </trkpt>
      <trkpt lat="43.22693" lon="-1.1923">
        <ele>252.717578</ele>
        <time>2026-05-22T07:19:42.000Z</time>
      </trkpt>
      <trkpt lat="43.22693" lon="-1.19226">
        <ele>252.756037</ele>
        <time>2026-05-22T07:19:43.000Z</time>
      </trkpt>
      <trkpt lat="43.22693" lon="-1.19222">
        <ele>252.798758</ele>
        <time>2026-05-22T07:19:44.000Z</time>
      </trkpt>
      <trkpt lat="43.22692" lon="-1.19217">
        <ele>252.842456</ele>
        <time>2026-05-22T07:19:45.000Z</time>
      </trkpt>
      <trkpt lat="43.22692" lon="-1.19213">
        <ele>252.886154</ele>
        <time>2026-05-22T07:19:46.000Z</time>
      </trkpt>
      <trkpt lat="43.22692" lon="-1.19208">
        <ele>252.93265</ele>
        <time>2026-05-22T07:19:47.000Z</time>
      </trkpt>
      <trkpt lat="43.22691" lon="-1.19203">
        <ele>252.979048</ele>
        <time>2026-05-22T07:19:48.000Z</time>
      </trkpt>
      <trkpt lat="43.22691" lon="-1.19199">
        <ele>253.02643</ele>
        <time>2026-05-22T07:19:49.000Z</time>
      </trkpt>
      <trkpt lat="43.22691" lon="-1.19193">
        <ele>253.078679</ele>
        <time>2026-05-22T07:19:50.000Z</time>
      </trkpt>
      <trkpt lat="43.22691" lon="-1.19188">
        <ele>253.126969</ele>
        <time>2026-05-22T07:19:51.000Z</time>
      </trkpt>
      <trkpt lat="43.22691" lon="-1.19183">
        <ele>253.177302</ele>
        <time>2026-05-22T07:19:52.000Z</time>
      </trkpt>
      <trkpt lat="43.2269" lon="-1.19178">
        <ele>253.230794</ele>
        <time>2026-05-22T07:19:53.000Z</time>
      </trkpt>
      <trkpt lat="43.2269" lon="-1.19172">
        <ele>253.289001</ele>
        <time>2026-05-22T07:19:54.000Z</time>
      </trkpt>
      <trkpt lat="43.2269" lon="-1.19166">
        <ele>253.350118</ele>
        <time>2026-05-22T07:19:55.000Z</time>
      </trkpt>
      <trkpt lat="43.2269" lon="-1.19159">
        <ele>253.413248</ele>
        <time>2026-05-22T07:19:56.000Z</time>
      </trkpt>
      <trkpt lat="43.22691" lon="-1.19153">
        <ele>253.477363</ele>
        <time>2026-05-22T07:19:57.000Z</time>
      </trkpt>
      <trkpt lat="43.22691" lon="-1.19146">
        <ele>253.545363</ele>
        <time>2026-05-22T07:19:58.000Z</time>
      </trkpt>
      <trkpt lat="43.2269" lon="-1.19139">
        <ele>253.613376</ele>
        <time>2026-05-22T07:19:59.000Z</time>
      </trkpt>
      <trkpt lat="43.2269" lon="-1.19132">
        <ele>253.681497</ele>
        <time>2026-05-22T07:20:00.000Z</time>
      </trkpt>
      <trkpt lat="43.2269" lon="-1.19125">
        <ele>253.751481</ele>
        <time>2026-05-22T07:20:01.000Z</time>
      </trkpt>
      <trkpt lat="43.2269" lon="-1.19118">
        <ele>253.823435</ele>
        <time>2026-05-22T07:20:02.000Z</time>
      </trkpt>
      <trkpt lat="43.2269" lon="-1.1911">
        <ele>253.896375</ele>
        <time>2026-05-22T07:20:03.000Z</time>
      </trkpt>
      <trkpt lat="43.2269" lon="-1.19103">
        <ele>253.96833</ele>
        <time>2026-05-22T07:20:04.000Z</time>
      </trkpt>
      <trkpt lat="43.2269" lon="-1.19096">
        <ele>254.042292</ele>
        <time>2026-05-22T07:20:05.000Z</time>
      </trkpt>
      <trkpt lat="43.2269" lon="-1.19088">
        <ele>254.118176</ele>
        <time>2026-05-22T07:20:06.000Z</time>
      </trkpt>
      <trkpt lat="43.2269" lon="-1.1908">
        <ele>254.193087</ele>
        <time>2026-05-22T07:20:07.000Z</time>
      </trkpt>
      <trkpt lat="43.2269" lon="-1.19073">
        <ele>254.107903</ele>
        <time>2026-05-22T07:20:08.000Z</time>
      </trkpt>
      <trkpt lat="43.22689" lon="-1.19065">
        <ele>254.0057</ele>
        <time>2026-05-22T07:20:09.000Z</time>
      </trkpt>
      <trkpt lat="43.22689" lon="-1.19057">
        <ele>253.901065</ele>
        <time>2026-05-22T07:20:10.000Z</time>
      </trkpt>
      <trkpt lat="43.22689" lon="-1.1905">
        <ele>253.796429</ele>
        <time>2026-05-22T07:20:11.000Z</time>
      </trkpt>
      <trkpt lat="43.22689" lon="-1.19042">
        <ele>253.69181</ele>
        <time>2026-05-22T07:20:12.000Z</time>
      </trkpt>
      <trkpt lat="43.22689" lon="-1.19034">
        <ele>253.585833</ele>
        <time>2026-05-22T07:20:13.000Z</time>
      </trkpt>
      <trkpt lat="43.22689" lon="-1.19026">
        <ele>253.479872</ele>
        <time>2026-05-22T07:20:14.000Z</time>
      </trkpt>
      <trkpt lat="43.22689" lon="-1.19018">
        <ele>253.375253</ele>
        <time>2026-05-22T07:20:15.000Z</time>
      </trkpt>
      <trkpt lat="43.22689" lon="-1.1901">
        <ele>253.267935</ele>
        <time>2026-05-22T07:20:16.000Z</time>
      </trkpt>
      <trkpt lat="43.22689" lon="-1.19002">
        <ele>253.159276</ele>
        <time>2026-05-22T07:20:17.000Z</time>
      </trkpt>
      <trkpt lat="43.22689" lon="-1.18994">
        <ele>253.049292</ele>
        <time>2026-05-22T07:20:18.000Z</time>
      </trkpt>
      <trkpt lat="43.22689" lon="-1.18986">
        <ele>252.937951</ele>
        <time>2026-05-22T07:20:19.000Z</time>
      </trkpt>
      <trkpt lat="43.22689" lon="-1.18977">
        <ele>252.82661</ele>
        <time>2026-05-22T07:20:20.000Z</time>
      </trkpt>
      <trkpt lat="43.22688" lon="-1.18969">
        <ele>252.711202</ele>
        <time>2026-05-22T07:20:21.000Z</time>
      </trkpt>
      <trkpt lat="43.22688" lon="-1.1896">
        <ele>252.594496</ele>
        <time>2026-05-22T07:20:22.000Z</time>
      </trkpt>
      <trkpt lat="43.22688" lon="-1.18951">
        <ele>252.469744</ele>
        <time>2026-05-22T07:20:23.000Z</time>
      </trkpt>
      <trkpt lat="43.22688" lon="-1.18941">
        <ele>252.342323</ele>
        <time>2026-05-22T07:20:24.000Z</time>
      </trkpt>
      <trkpt lat="43.22688" lon="-1.18932">
        <ele>252.21753</ele>
        <time>2026-05-22T07:20:25.000Z</time>
      </trkpt>
      <trkpt lat="43.22688" lon="-1.18922">
        <ele>252.091397</ele>
        <time>2026-05-22T07:20:26.000Z</time>
      </trkpt>
      <trkpt lat="43.22688" lon="-1.18913">
        <ele>251.967657</ele>
        <time>2026-05-22T07:20:27.000Z</time>
      </trkpt>
      <trkpt lat="43.22687" lon="-1.18904">
        <ele>251.844221</ele>
        <time>2026-05-22T07:20:28.000Z</time>
      </trkpt>
      <trkpt lat="43.22686" lon="-1.18895">
        <ele>251.720784</ele>
        <time>2026-05-22T07:20:29.000Z</time>
      </trkpt>
      <trkpt lat="43.22685" lon="-1.18886">
        <ele>251.601028</ele>
        <time>2026-05-22T07:20:30.000Z</time>
      </trkpt>
      <trkpt lat="43.22684" lon="-1.18878">
        <ele>251.483915</ele>
        <time>2026-05-22T07:20:31.000Z</time>
      </trkpt>
      <trkpt lat="43.22683" lon="-1.18869">
        <ele>251.36843</ele>
        <time>2026-05-22T07:20:32.000Z</time>
      </trkpt>
      <trkpt lat="43.22681" lon="-1.18861">
        <ele>251.252637</ele>
        <time>2026-05-22T07:20:33.000Z</time>
      </trkpt>
      <trkpt lat="43.22681" lon="-1.18852">
        <ele>251.141412</ele>
        <time>2026-05-22T07:20:34.000Z</time>
      </trkpt>
      <trkpt lat="43.2268" lon="-1.18844">
        <ele>251.026678</ele>
        <time>2026-05-22T07:20:35.000Z</time>
      </trkpt>
      <trkpt lat="43.22679" lon="-1.18835">
        <ele>250.912298</ele>
        <time>2026-05-22T07:20:36.000Z</time>
      </trkpt>
      <trkpt lat="43.22679" lon="-1.18827">
        <ele>251.044857</ele>
        <time>2026-05-22T07:20:37.000Z</time>
      </trkpt>
      <trkpt lat="43.22678" lon="-1.18819">
        <ele>251.236069</ele>
        <time>2026-05-22T07:20:38.000Z</time>
      </trkpt>
      <trkpt lat="43.22678" lon="-1.18811">
        <ele>251.422342</ele>
        <time>2026-05-22T07:20:39.000Z</time>
      </trkpt>
      <trkpt lat="43.22678" lon="-1.18803">
        <ele>251.603922</ele>
        <time>2026-05-22T07:20:40.000Z</time>
      </trkpt>
      <trkpt lat="43.22677" lon="-1.18796">
        <ele>251.781075</ele>
        <time>2026-05-22T07:20:41.000Z</time>
      </trkpt>
      <trkpt lat="43.22677" lon="-1.18789">
        <ele>251.953544</ele>
        <time>2026-05-22T07:20:42.000Z</time>
      </trkpt>
      <trkpt lat="43.22676" lon="-1.18782">
        <ele>252.116647</ele>
        <time>2026-05-22T07:20:43.000Z</time>
      </trkpt>
      <trkpt lat="43.22676" lon="-1.18775">
        <ele>252.281808</ele>
        <time>2026-05-22T07:20:44.000Z</time>
      </trkpt>
      <trkpt lat="43.22675" lon="-1.18768">
        <ele>252.442279</ele>
        <time>2026-05-22T07:20:45.000Z</time>
      </trkpt>
      <trkpt lat="43.22675" lon="-1.18761">
        <ele>252.598729</ele>
        <time>2026-05-22T07:20:46.000Z</time>
      </trkpt>
      <trkpt lat="43.22674" lon="-1.18755">
        <ele>252.760268</ele>
        <time>2026-05-22T07:20:47.000Z</time>
      </trkpt>
      <trkpt lat="43.22673" lon="-1.18748">
        <ele>252.908971</ele>
        <time>2026-05-22T07:20:48.000Z</time>
      </trkpt>
      <trkpt lat="43.22672" lon="-1.18742">
        <ele>253.064418</ele>
        <time>2026-05-22T07:20:49.000Z</time>
      </trkpt>
      <trkpt lat="43.22671" lon="-1.18736">
        <ele>253.212232</ele>
        <time>2026-05-22T07:20:50.000Z</time>
      </trkpt>
      <trkpt lat="43.2267" lon="-1.1873">
        <ele>253.351792</ele>
        <time>2026-05-22T07:20:51.000Z</time>
      </trkpt>
      <trkpt lat="43.22668" lon="-1.18725">
        <ele>253.488831</ele>
        <time>2026-05-22T07:20:52.000Z</time>
      </trkpt>
      <trkpt lat="43.22667" lon="-1.18719">
        <ele>253.620383</ele>
        <time>2026-05-22T07:20:53.000Z</time>
      </trkpt>
      <trkpt lat="43.22665" lon="-1.18714">
        <ele>253.74975</ele>
        <time>2026-05-22T07:20:54.000Z</time>
      </trkpt>
      <trkpt lat="43.22663" lon="-1.1871">
        <ele>253.874645</ele>
        <time>2026-05-22T07:20:55.000Z</time>
      </trkpt>
      <trkpt lat="43.22662" lon="-1.18705">
        <ele>253.995396</ele>
        <time>2026-05-22T07:20:56.000Z</time>
      </trkpt>
      <trkpt lat="43.2266" lon="-1.18701">
        <ele>254.115391</ele>
        <time>2026-05-22T07:20:57.000Z</time>
      </trkpt>
      <trkpt lat="43.22658" lon="-1.18697">
        <ele>254.233411</ele>
        <time>2026-05-22T07:20:58.000Z</time>
      </trkpt>
      <trkpt lat="43.22656" lon="-1.18692">
        <ele>254.35143</ele>
        <time>2026-05-22T07:20:59.000Z</time>
      </trkpt>
      <trkpt lat="43.22654" lon="-1.18688">
        <ele>254.467488</ele>
        <time>2026-05-22T07:21:00.000Z</time>
      </trkpt>
      <trkpt lat="43.22652" lon="-1.18684">
        <ele>254.579667</ele>
        <time>2026-05-22T07:21:01.000Z</time>
      </trkpt>
      <trkpt lat="43.2265" lon="-1.1868">
        <ele>254.693777</ele>
        <time>2026-05-22T07:21:02.000Z</time>
      </trkpt>
      <trkpt lat="43.22648" lon="-1.18676">
        <ele>254.810062</ele>
        <time>2026-05-22T07:21:03.000Z</time>
      </trkpt>
      <trkpt lat="43.22646" lon="-1.18672">
        <ele>254.924356</ele>
        <time>2026-05-22T07:21:04.000Z</time>
      </trkpt>
      <trkpt lat="43.22644" lon="-1.18668">
        <ele>255.040323</ele>
        <time>2026-05-22T07:21:05.000Z</time>
      </trkpt>
      <trkpt lat="43.22641" lon="-1.18664">
        <ele>255.152656</ele>
        <time>2026-05-22T07:21:06.000Z</time>
      </trkpt>
      <trkpt lat="43.22639" lon="-1.18661">
        <ele>255.261384</ele>
        <time>2026-05-22T07:21:07.000Z</time>
      </trkpt>
      <trkpt lat="43.22637" lon="-1.18658">
        <ele>255.362171</ele>
        <time>2026-05-22T07:21:08.000Z</time>
      </trkpt>
      <trkpt lat="43.22635" lon="-1.18654">
        <ele>255.463136</ele>
        <time>2026-05-22T07:21:09.000Z</time>
      </trkpt>
      <trkpt lat="43.22634" lon="-1.18651">
        <ele>255.565836</ele>
        <time>2026-05-22T07:21:10.000Z</time>
      </trkpt>
      <trkpt lat="43.22632" lon="-1.18647">
        <ele>255.666801</ele>
        <time>2026-05-22T07:21:11.000Z</time>
      </trkpt>
      <trkpt lat="43.2263" lon="-1.18644">
        <ele>255.767589</ele>
        <time>2026-05-22T07:21:12.000Z</time>
      </trkpt>
      <trkpt lat="43.22628" lon="-1.18641">
        <ele>255.866445</ele>
        <time>2026-05-22T07:21:13.000Z</time>
      </trkpt>
      <trkpt lat="43.22626" lon="-1.18637">
        <ele>255.959599</ele>
        <time>2026-05-22T07:21:14.000Z</time>
      </trkpt>
      <trkpt lat="43.22624" lon="-1.18635">
        <ele>256.04743</ele>
        <time>2026-05-22T07:21:15.000Z</time>
      </trkpt>
      <trkpt lat="43.22623" lon="-1.18632">
        <ele>256.135261</ele>
        <time>2026-05-22T07:21:16.000Z</time>
      </trkpt>
      <trkpt lat="43.22621" lon="-1.18629">
        <ele>256.220825</ele>
        <time>2026-05-22T07:21:17.000Z</time>
      </trkpt>
      <trkpt lat="43.22619" lon="-1.18626">
        <ele>256.302572</ele>
        <time>2026-05-22T07:21:18.000Z</time>
      </trkpt>
      <trkpt lat="43.22618" lon="-1.18623">
        <ele>256.386227</ele>
        <time>2026-05-22T07:21:19.000Z</time>
      </trkpt>
      <trkpt lat="43.22617" lon="-1.1862">
        <ele>256.464176</ele>
        <time>2026-05-22T07:21:20.000Z</time>
      </trkpt>
      <trkpt lat="43.22615" lon="-1.18618">
        <ele>256.542445</ele>
        <time>2026-05-22T07:21:21.000Z</time>
      </trkpt>
      <trkpt lat="43.22613" lon="-1.18615">
        <ele>256.620452</ele>
        <time>2026-05-22T07:21:22.000Z</time>
      </trkpt>
      <trkpt lat="43.22612" lon="-1.18613">
        <ele>256.697481</ele>
        <time>2026-05-22T07:21:23.000Z</time>
      </trkpt>
      <trkpt lat="43.22611" lon="-1.1861">
        <ele>256.858835</ele>
        <time>2026-05-22T07:21:24.000Z</time>
      </trkpt>
      <trkpt lat="43.22609" lon="-1.18608">
        <ele>257.020189</ele>
        <time>2026-05-22T07:21:25.000Z</time>
      </trkpt>
      <trkpt lat="43.22608" lon="-1.18605">
        <ele>257.189419</ele>
        <time>2026-05-22T07:21:26.000Z</time>
      </trkpt>
      <trkpt lat="43.22606" lon="-1.18603">
        <ele>257.354394</ele>
        <time>2026-05-22T07:21:27.000Z</time>
      </trkpt>
      <trkpt lat="43.22604" lon="-1.186">
        <ele>257.531825</ele>
        <time>2026-05-22T07:21:28.000Z</time>
      </trkpt>
      <trkpt lat="43.22603" lon="-1.18598">
        <ele>257.693178</ele>
        <time>2026-05-22T07:21:29.000Z</time>
      </trkpt>
      <trkpt lat="43.22601" lon="-1.18596">
        <ele>257.848227</ele>
        <time>2026-05-22T07:21:30.000Z</time>
      </trkpt>
      <trkpt lat="43.22599" lon="-1.18594">
        <ele>258.020467</ele>
        <time>2026-05-22T07:21:31.000Z</time>
      </trkpt>
      <trkpt lat="43.22598" lon="-1.18592">
        <ele>258.182663</ele>
        <time>2026-05-22T07:21:32.000Z</time>
      </trkpt>
      <trkpt lat="43.22596" lon="-1.1859">
        <ele>258.350359</ele>
        <time>2026-05-22T07:21:33.000Z</time>
      </trkpt>
      <trkpt lat="43.22594" lon="-1.18588">
        <ele>258.49767</ele>
        <time>2026-05-22T07:21:34.000Z</time>
      </trkpt>
      <trkpt lat="43.22592" lon="-1.18586">
        <ele>258.659865</ele>
        <time>2026-05-22T07:21:35.000Z</time>
      </trkpt>
      <trkpt lat="43.22591" lon="-1.18584">
        <ele>258.811432</ele>
        <time>2026-05-22T07:21:36.000Z</time>
      </trkpt>
      <trkpt lat="43.22589" lon="-1.18582">
        <ele>258.956322</ele>
        <time>2026-05-22T07:21:37.000Z</time>
      </trkpt>
      <trkpt lat="43.22587" lon="-1.1858">
        <ele>259.109864</ele>
        <time>2026-05-22T07:21:38.000Z</time>
      </trkpt>
      <trkpt lat="43.22585" lon="-1.18579">
        <ele>259.257344</ele>
        <time>2026-05-22T07:21:39.000Z</time>
      </trkpt>
      <trkpt lat="43.22584" lon="-1.18577">
        <ele>259.384386</ele>
        <time>2026-05-22T07:21:40.000Z</time>
      </trkpt>
      <trkpt lat="43.22582" lon="-1.18576">
        <ele>259.540502</ele>
        <time>2026-05-22T07:21:41.000Z</time>
      </trkpt>
      <trkpt lat="43.2258" lon="-1.18574">
        <ele>259.699347</ele>
        <time>2026-05-22T07:21:42.000Z</time>
      </trkpt>
      <trkpt lat="43.22578" lon="-1.18572">
        <ele>259.843711</ele>
        <time>2026-05-22T07:21:43.000Z</time>
      </trkpt>
      <trkpt lat="43.22577" lon="-1.18571">
        <ele>259.982356</ele>
        <time>2026-05-22T07:21:44.000Z</time>
      </trkpt>
      <trkpt lat="43.22575" lon="-1.18569">
        <ele>260.127253</ele>
        <time>2026-05-22T07:21:45.000Z</time>
      </trkpt>
      <trkpt lat="43.22573" lon="-1.18568">
        <ele>260.273731</ele>
        <time>2026-05-22T07:21:46.000Z</time>
      </trkpt>
      <trkpt lat="43.22571" lon="-1.18567">
        <ele>260.415272</ele>
        <time>2026-05-22T07:21:47.000Z</time>
      </trkpt>
      <trkpt lat="43.2257" lon="-1.18566">
        <ele>260.544804</ele>
        <time>2026-05-22T07:21:48.000Z</time>
      </trkpt>
      <trkpt lat="43.22568" lon="-1.18565">
        <ele>260.693877</ele>
        <time>2026-05-22T07:21:49.000Z</time>
      </trkpt>
      <trkpt lat="43.22566" lon="-1.18564">
        <ele>260.836248</ele>
        <time>2026-05-22T07:21:50.000Z</time>
      </trkpt>
      <trkpt lat="43.22564" lon="-1.18563">
        <ele>260.977015</ele>
        <time>2026-05-22T07:21:51.000Z</time>
      </trkpt>
      <trkpt lat="43.22562" lon="-1.18563">
        <ele>261.112502</ele>
        <time>2026-05-22T07:21:52.000Z</time>
      </trkpt>
      <trkpt lat="43.2256" lon="-1.18562">
        <ele>261.242227</ele>
        <time>2026-05-22T07:21:53.000Z</time>
      </trkpt>
      <trkpt lat="43.22559" lon="-1.18561">
        <ele>261.361485</ele>
        <time>2026-05-22T07:21:54.000Z</time>
      </trkpt>
      <trkpt lat="43.22557" lon="-1.18561">
        <ele>261.466659</ele>
        <time>2026-05-22T07:21:55.000Z</time>
      </trkpt>
      <trkpt lat="43.22555" lon="-1.18561">
        <ele>261.581581</ele>
        <time>2026-05-22T07:21:56.000Z</time>
      </trkpt>
      <trkpt lat="43.22554" lon="-1.1856">
        <ele>261.696502</ele>
        <time>2026-05-22T07:21:57.000Z</time>
      </trkpt>
      <trkpt lat="43.22552" lon="-1.1856">
        <ele>261.815668</ele>
        <time>2026-05-22T07:21:58.000Z</time>
      </trkpt>
      <trkpt lat="43.22551" lon="-1.1856">
        <ele>261.928762</ele>
        <time>2026-05-22T07:21:59.000Z</time>
      </trkpt>
      <trkpt lat="43.22549" lon="-1.1856">
        <ele>262.04128</ele>
        <time>2026-05-22T07:22:00.000Z</time>
      </trkpt>
      <trkpt lat="43.22547" lon="-1.1856">
        <ele>262.146453</ele>
        <time>2026-05-22T07:22:01.000Z</time>
      </trkpt>
      <trkpt lat="43.22546" lon="-1.1856">
        <ele>262.26551</ele>
        <time>2026-05-22T07:22:02.000Z</time>
      </trkpt>
      <trkpt lat="43.22544" lon="-1.18559">
        <ele>262.407056</ele>
        <time>2026-05-22T07:22:03.000Z</time>
      </trkpt>
      <trkpt lat="43.22542" lon="-1.18559">
        <ele>262.52785</ele>
        <time>2026-05-22T07:22:04.000Z</time>
      </trkpt>
      <trkpt lat="43.22541" lon="-1.18559">
        <ele>262.634009</ele>
        <time>2026-05-22T07:22:05.000Z</time>
      </trkpt>
      <trkpt lat="43.22539" lon="-1.18558">
        <ele>262.755769</ele>
        <time>2026-05-22T07:22:06.000Z</time>
      </trkpt>
      <trkpt lat="43.22537" lon="-1.18558">
        <ele>262.880069</ele>
        <time>2026-05-22T07:22:07.000Z</time>
      </trkpt>
      <trkpt lat="43.22535" lon="-1.18557">
        <ele>263.000863</ele>
        <time>2026-05-22T07:22:08.000Z</time>
      </trkpt>
      <trkpt lat="43.22534" lon="-1.18557">
        <ele>263.130588</ele>
        <time>2026-05-22T07:22:09.000Z</time>
      </trkpt>
      <trkpt lat="43.22532" lon="-1.18556">
        <ele>263.25829</ele>
        <time>2026-05-22T07:22:10.000Z</time>
      </trkpt>
      <trkpt lat="43.2253" lon="-1.18556">
        <ele>263.400662</ele>
        <time>2026-05-22T07:22:11.000Z</time>
      </trkpt>
      <trkpt lat="43.22528" lon="-1.18555">
        <ele>263.52827</ele>
        <time>2026-05-22T07:22:12.000Z</time>
      </trkpt>
      <trkpt lat="43.22527" lon="-1.18553">
        <ele>263.663973</ele>
        <time>2026-05-22T07:22:13.000Z</time>
      </trkpt>
      <trkpt lat="43.22525" lon="-1.18552">
        <ele>263.806486</ele>
        <time>2026-05-22T07:22:14.000Z</time>
      </trkpt>
      <trkpt lat="43.22523" lon="-1.18551">
        <ele>263.93418</ele>
        <time>2026-05-22T07:22:15.000Z</time>
      </trkpt>
      <trkpt lat="43.22521" lon="-1.1855">
        <ele>264.093798</ele>
        <time>2026-05-22T07:22:16.000Z</time>
      </trkpt>
      <trkpt lat="43.22519" lon="-1.18548">
        <ele>264.238163</ele>
        <time>2026-05-22T07:22:17.000Z</time>
      </trkpt>
      <trkpt lat="43.22518" lon="-1.18546">
        <ele>264.383054</ele>
        <time>2026-05-22T07:22:18.000Z</time>
      </trkpt>
      <trkpt lat="43.22516" lon="-1.18545">
        <ele>264.501435</ele>
        <time>2026-05-22T07:22:19.000Z</time>
      </trkpt>
      <trkpt lat="43.22515" lon="-1.18543">
        <ele>264.623728</ele>
        <time>2026-05-22T07:22:20.000Z</time>
      </trkpt>
      <trkpt lat="43.22514" lon="-1.18541">
        <ele>264.773794</ele>
        <time>2026-05-22T07:22:21.000Z</time>
      </trkpt>
      <trkpt lat="43.22512" lon="-1.18539">
        <ele>264.923861</ele>
        <time>2026-05-22T07:22:22.000Z</time>
      </trkpt>
      <trkpt lat="43.22511" lon="-1.18537">
        <ele>265.06911</ele>
        <time>2026-05-22T07:22:23.000Z</time>
      </trkpt>
      <trkpt lat="43.22509" lon="-1.18535">
        <ele>265.207002</ele>
        <time>2026-05-22T07:22:24.000Z</time>
      </trkpt>
      <trkpt lat="43.22508" lon="-1.18533">
        <ele>265.344894</ele>
        <time>2026-05-22T07:22:25.000Z</time>
      </trkpt>
      <trkpt lat="43.22506" lon="-1.18531">
        <ele>265.486421</ele>
        <time>2026-05-22T07:22:26.000Z</time>
      </trkpt>
      <trkpt lat="43.22505" lon="-1.18529">
        <ele>265.614293</ele>
        <time>2026-05-22T07:22:27.000Z</time>
      </trkpt>
      <trkpt lat="43.22504" lon="-1.18527">
        <ele>265.771025</ele>
        <time>2026-05-22T07:22:28.000Z</time>
      </trkpt>
      <trkpt lat="43.22503" lon="-1.18524">
        <ele>265.916561</ele>
        <time>2026-05-22T07:22:29.000Z</time>
      </trkpt>
      <trkpt lat="43.22502" lon="-1.18522">
        <ele>266.069985</ele>
        <time>2026-05-22T07:22:30.000Z</time>
      </trkpt>
      <trkpt lat="43.22501" lon="-1.18519">
        <ele>266.194312</ele>
        <time>2026-05-22T07:22:31.000Z</time>
      </trkpt>
      <trkpt lat="43.225" lon="-1.18517">
        <ele>266.341203</ele>
        <time>2026-05-22T07:22:32.000Z</time>
      </trkpt>
      <trkpt lat="43.22499" lon="-1.18514">
        <ele>266.478945</ele>
        <time>2026-05-22T07:22:33.000Z</time>
      </trkpt>
      <trkpt lat="43.22499" lon="-1.18512">
        <ele>266.620393</ele>
        <time>2026-05-22T07:22:34.000Z</time>
      </trkpt>
      <trkpt lat="43.22498" lon="-1.18509">
        <ele>266.759569</ele>
        <time>2026-05-22T07:22:35.000Z</time>
      </trkpt>
      <trkpt lat="43.22497" lon="-1.18507">
        <ele>266.908309</ele>
        <time>2026-05-22T07:22:36.000Z</time>
      </trkpt>
      <trkpt lat="43.22496" lon="-1.18504">
        <ele>267.049757</ele>
        <time>2026-05-22T07:22:37.000Z</time>
      </trkpt>
      <trkpt lat="43.22496" lon="-1.18501">
        <ele>267.19036</ele>
        <time>2026-05-22T07:22:38.000Z</time>
      </trkpt>
      <trkpt lat="43.22496" lon="-1.18498">
        <ele>267.334783</ele>
        <time>2026-05-22T07:22:39.000Z</time>
      </trkpt>
      <trkpt lat="43.22495" lon="-1.18496">
        <ele>267.475386</ele>
        <time>2026-05-22T07:22:40.000Z</time>
      </trkpt>
      <trkpt lat="43.22495" lon="-1.18493">
        <ele>267.624324</ele>
        <time>2026-05-22T07:22:41.000Z</time>
      </trkpt>
      <trkpt lat="43.22494" lon="-1.1849">
        <ele>267.77144</ele>
        <time>2026-05-22T07:22:42.000Z</time>
      </trkpt>
      <trkpt lat="43.22494" lon="-1.18487">
        <ele>267.930195</ele>
        <time>2026-05-22T07:22:43.000Z</time>
      </trkpt>
      <trkpt lat="43.22493" lon="-1.18484">
        <ele>268.073767</ele>
        <time>2026-05-22T07:22:44.000Z</time>
      </trkpt>
      <trkpt lat="43.22493" lon="-1.18482">
        <ele>268.218191</ele>
        <time>2026-05-22T07:22:45.000Z</time>
      </trkpt>
      <trkpt lat="43.22493" lon="-1.18479">
        <ele>268.372719</ele>
        <time>2026-05-22T07:22:46.000Z</time>
      </trkpt>
      <trkpt lat="43.22492" lon="-1.18476">
        <ele>268.528355</ele>
        <time>2026-05-22T07:22:47.000Z</time>
      </trkpt>
      <trkpt lat="43.22492" lon="-1.18473">
        <ele>268.681609</ele>
        <time>2026-05-22T07:22:48.000Z</time>
      </trkpt>
      <trkpt lat="43.22492" lon="-1.1847">
        <ele>268.835342</ele>
        <time>2026-05-22T07:22:49.000Z</time>
      </trkpt>
      <trkpt lat="43.22492" lon="-1.18467">
        <ele>268.98596</ele>
        <time>2026-05-22T07:22:50.000Z</time>
      </trkpt>
      <trkpt lat="43.22491" lon="-1.18464">
        <ele>269.144201</ele>
        <time>2026-05-22T07:22:51.000Z</time>
      </trkpt>
      <trkpt lat="43.2249" lon="-1.18461">
        <ele>269.296949</ele>
        <time>2026-05-22T07:22:52.000Z</time>
      </trkpt>
      <trkpt lat="43.22488" lon="-1.18459">
        <ele>269.359308</ele>
        <time>2026-05-22T07:22:53.000Z</time>
      </trkpt>
      <trkpt lat="43.22487" lon="-1.18456">
        <ele>269.410895</ele>
        <time>2026-05-22T07:22:54.000Z</time>
      </trkpt>
      <trkpt lat="43.22485" lon="-1.18454">
        <ele>269.464523</ele>
        <time>2026-05-22T07:22:55.000Z</time>
      </trkpt>
      <trkpt lat="43.22484" lon="-1.18452">
        <ele>269.511687</ele>
        <time>2026-05-22T07:22:56.000Z</time>
      </trkpt>
      <trkpt lat="43.22483" lon="-1.1845">
        <ele>269.570745</ele>
        <time>2026-05-22T07:22:57.000Z</time>
      </trkpt>
      <trkpt lat="43.22481" lon="-1.18448">
        <ele>269.621321</ele>
        <time>2026-05-22T07:22:58.000Z</time>
      </trkpt>
      <trkpt lat="43.2248" lon="-1.18446">
        <ele>269.669333</ele>
        <time>2026-05-22T07:22:59.000Z</time>
      </trkpt>
      <trkpt lat="43.22478" lon="-1.18444">
        <ele>269.721111</ele>
        <time>2026-05-22T07:23:00.000Z</time>
      </trkpt>
      <trkpt lat="43.22477" lon="-1.18442">
        <ele>269.770979</ele>
        <time>2026-05-22T07:23:01.000Z</time>
      </trkpt>
      <trkpt lat="43.22475" lon="-1.18441">
        <ele>269.817428</ele>
        <time>2026-05-22T07:23:02.000Z</time>
      </trkpt>
      <trkpt lat="43.22473" lon="-1.18439">
        <ele>269.873617</ele>
        <time>2026-05-22T07:23:03.000Z</time>
      </trkpt>
      <trkpt lat="43.22472" lon="-1.18438">
        <ele>269.918404</ele>
        <time>2026-05-22T07:23:04.000Z</time>
      </trkpt>
      <trkpt lat="43.2247" lon="-1.18437">
        <ele>269.966349</ele>
        <time>2026-05-22T07:23:05.000Z</time>
      </trkpt>
      <trkpt lat="43.22468" lon="-1.18436">
        <ele>270.014294</ele>
        <time>2026-05-22T07:23:06.000Z</time>
      </trkpt>
      <trkpt lat="43.22466" lon="-1.18435">
        <ele>270.06697</ele>
        <time>2026-05-22T07:23:07.000Z</time>
      </trkpt>
      <trkpt lat="43.22464" lon="-1.18435">
        <ele>270.112166</ele>
        <time>2026-05-22T07:23:08.000Z</time>
      </trkpt>
      <trkpt lat="43.22462" lon="-1.18435">
        <ele>270.167975</ele>
        <time>2026-05-22T07:23:09.000Z</time>
      </trkpt>
      <trkpt lat="43.22459" lon="-1.18435">
        <ele>270.235769</ele>
        <time>2026-05-22T07:23:10.000Z</time>
      </trkpt>
      <trkpt lat="43.22457" lon="-1.18435">
        <ele>270.28861</ele>
        <time>2026-05-22T07:23:11.000Z</time>
      </trkpt>
      <trkpt lat="43.22455" lon="-1.18434">
        <ele>270.336475</ele>
        <time>2026-05-22T07:23:12.000Z</time>
      </trkpt>
      <trkpt lat="43.22454" lon="-1.18434">
        <ele>270.384582</ele>
        <time>2026-05-22T07:23:13.000Z</time>
      </trkpt>
      <trkpt lat="43.22451" lon="-1.18434">
        <ele>270.439671</ele>
        <time>2026-05-22T07:23:14.000Z</time>
      </trkpt>
      <trkpt lat="43.22449" lon="-1.18434">
        <ele>270.497349</ele>
        <time>2026-05-22T07:23:15.000Z</time>
      </trkpt>
      <trkpt lat="43.22447" lon="-1.18434">
        <ele>270.548585</ele>
        <time>2026-05-22T07:23:16.000Z</time>
      </trkpt>
      <trkpt lat="43.22445" lon="-1.18435">
        <ele>270.606038</ele>
        <time>2026-05-22T07:23:17.000Z</time>
      </trkpt>
      <trkpt lat="43.22443" lon="-1.18436">
        <ele>270.662293</ele>
        <time>2026-05-22T07:23:18.000Z</time>
      </trkpt>
      <trkpt lat="43.22441" lon="-1.18437">
        <ele>270.716837</ele>
        <time>2026-05-22T07:23:19.000Z</time>
      </trkpt>
      <trkpt lat="43.22438" lon="-1.18437">
        <ele>270.774514</ele>
        <time>2026-05-22T07:23:20.000Z</time>
      </trkpt>
      <trkpt lat="43.22436" lon="-1.18438">
        <ele>270.827354</ele>
        <time>2026-05-22T07:23:21.000Z</time>
      </trkpt>
      <trkpt lat="43.22434" lon="-1.18438">
        <ele>270.877937</ele>
        <time>2026-05-22T07:23:22.000Z</time>
      </trkpt>
      <trkpt lat="43.22432" lon="-1.18439">
        <ele>270.932022</ele>
        <time>2026-05-22T07:23:23.000Z</time>
      </trkpt>
      <trkpt lat="43.2243" lon="-1.1844">
        <ele>270.990621</ele>
        <time>2026-05-22T07:23:24.000Z</time>
      </trkpt>
      <trkpt lat="43.22428" lon="-1.18441">
        <ele>271.052888</ele>
        <time>2026-05-22T07:23:25.000Z</time>
      </trkpt>
      <trkpt lat="43.22425" lon="-1.18441">
        <ele>271.113641</ele>
        <time>2026-05-22T07:23:26.000Z</time>
      </trkpt>
      <trkpt lat="43.22423" lon="-1.18442">
        <ele>271.171921</ele>
        <time>2026-05-22T07:23:27.000Z</time>
      </trkpt>
      <trkpt lat="43.22421" lon="-1.18442">
        <ele>271.227461</ele>
        <time>2026-05-22T07:23:28.000Z</time>
      </trkpt>
      <trkpt lat="43.22419" lon="-1.18443">
        <ele>271.278339</ele>
        <time>2026-05-22T07:23:29.000Z</time>
      </trkpt>
      <trkpt lat="43.22416" lon="-1.18443">
        <ele>271.334148</ele>
        <time>2026-05-22T07:23:30.000Z</time>
      </trkpt>
      <trkpt lat="43.22414" lon="-1.18444">
        <ele>271.391107</ele>
        <time>2026-05-22T07:23:31.000Z</time>
      </trkpt>
      <trkpt lat="43.22412" lon="-1.18444">
        <ele>271.451282</ele>
        <time>2026-05-22T07:23:32.000Z</time>
      </trkpt>
      <trkpt lat="43.2241" lon="-1.18444">
        <ele>271.503839</ele>
        <time>2026-05-22T07:23:33.000Z</time>
      </trkpt>
      <trkpt lat="43.22407" lon="-1.18444">
        <ele>271.561516</ele>
        <time>2026-05-22T07:23:34.000Z</time>
      </trkpt>
      <trkpt lat="43.22405" lon="-1.18444">
        <ele>271.621691</ele>
        <time>2026-05-22T07:23:35.000Z</time>
      </trkpt>
      <trkpt lat="43.22403" lon="-1.18444">
        <ele>271.674248</ele>
        <time>2026-05-22T07:23:36.000Z</time>
      </trkpt>
      <trkpt lat="43.22401" lon="-1.18444">
        <ele>271.73181</ele>
        <time>2026-05-22T07:23:37.000Z</time>
      </trkpt>
      <trkpt lat="43.22399" lon="-1.18444">
        <ele>271.784398</ele>
        <time>2026-05-22T07:23:38.000Z</time>
      </trkpt>
      <trkpt lat="43.22396" lon="-1.18444">
        <ele>271.839578</ele>
        <time>2026-05-22T07:23:39.000Z</time>
      </trkpt>
      <trkpt lat="43.22395" lon="-1.18444">
        <ele>271.882163</ele>
        <time>2026-05-22T07:23:40.000Z</time>
      </trkpt>
      <trkpt lat="43.22392" lon="-1.18443">
        <ele>271.937703</ele>
        <time>2026-05-22T07:23:41.000Z</time>
      </trkpt>
      <trkpt lat="43.2239" lon="-1.18443">
        <ele>272.004388</ele>
        <time>2026-05-22T07:23:42.000Z</time>
      </trkpt>
      <trkpt lat="43.22387" lon="-1.18442">
        <ele>272.065795</ele>
        <time>2026-05-22T07:23:43.000Z</time>
      </trkpt>
      <trkpt lat="43.22385" lon="-1.18441">
        <ele>272.122314</ele>
        <time>2026-05-22T07:23:44.000Z</time>
      </trkpt>
      <trkpt lat="43.22383" lon="-1.1844">
        <ele>272.179274</ele>
        <time>2026-05-22T07:23:45.000Z</time>
      </trkpt>
      <trkpt lat="43.22381" lon="-1.18439">
        <ele>272.236204</ele>
        <time>2026-05-22T07:23:46.000Z</time>
      </trkpt>
      <trkpt lat="43.22379" lon="-1.18439">
        <ele>272.29671</ele>
        <time>2026-05-22T07:23:47.000Z</time>
      </trkpt>
      <trkpt lat="43.22376" lon="-1.18439">
        <ele>272.354388</ele>
        <time>2026-05-22T07:23:48.000Z</time>
      </trkpt>
      <trkpt lat="43.22374" lon="-1.18437">
        <ele>272.415969</ele>
        <time>2026-05-22T07:23:49.000Z</time>
      </trkpt>
      <trkpt lat="43.22371" lon="-1.18437">
        <ele>272.481675</ele>
        <time>2026-05-22T07:23:50.000Z</time>
      </trkpt>
      <trkpt lat="43.22368" lon="-1.18436">
        <ele>272.557109</ele>
        <time>2026-05-22T07:23:51.000Z</time>
      </trkpt>
      <trkpt lat="43.22365" lon="-1.18436">
        <ele>272.645629</ele>
        <time>2026-05-22T07:23:52.000Z</time>
      </trkpt>
      <trkpt lat="43.22361" lon="-1.18435">
        <ele>272.74101</ele>
        <time>2026-05-22T07:23:53.000Z</time>
      </trkpt>
      <trkpt lat="43.22357" lon="-1.18435">
        <ele>272.841185</ele>
        <time>2026-05-22T07:23:54.000Z</time>
      </trkpt>
      <trkpt lat="43.22353" lon="-1.18435">
        <ele>272.948862</ele>
        <time>2026-05-22T07:23:55.000Z</time>
      </trkpt>
      <trkpt lat="43.22348" lon="-1.18434">
        <ele>273.066996</ele>
        <time>2026-05-22T07:23:56.000Z</time>
      </trkpt>
      <trkpt lat="43.22343" lon="-1.18433">
        <ele>273.20562</ele>
        <time>2026-05-22T07:23:57.000Z</time>
      </trkpt>
      <trkpt lat="43.22337" lon="-1.18433">
        <ele>273.346197</ele>
        <time>2026-05-22T07:23:58.000Z</time>
      </trkpt>
      <trkpt lat="43.22331" lon="-1.18432">
        <ele>273.501535</ele>
        <time>2026-05-22T07:23:59.000Z</time>
      </trkpt>
      <trkpt lat="43.22324" lon="-1.18432">
        <ele>273.66422</ele>
        <time>2026-05-22T07:24:00.000Z</time>
      </trkpt>
      <trkpt lat="43.22317" lon="-1.18433">
        <ele>273.729349</ele>
        <time>2026-05-22T07:24:01.000Z</time>
      </trkpt>
      <trkpt lat="43.2231" lon="-1.18434">
        <ele>273.452837</ele>
        <time>2026-05-22T07:24:02.000Z</time>
      </trkpt>
      <trkpt lat="43.22303" lon="-1.18436">
        <ele>273.15756</ele>
        <time>2026-05-22T07:24:03.000Z</time>
      </trkpt>
      <trkpt lat="43.22296" lon="-1.1844">
        <ele>272.867085</ele>
        <time>2026-05-22T07:24:04.000Z</time>
      </trkpt>
      <trkpt lat="43.22289" lon="-1.18444">
        <ele>272.555989</ele>
        <time>2026-05-22T07:24:05.000Z</time>
      </trkpt>
      <trkpt lat="43.22282" lon="-1.18448">
        <ele>272.247597</ele>
        <time>2026-05-22T07:24:06.000Z</time>
      </trkpt>
      <trkpt lat="43.22275" lon="-1.18454">
        <ele>271.932992</ele>
        <time>2026-05-22T07:24:07.000Z</time>
      </trkpt>
      <trkpt lat="43.22268" lon="-1.18462">
        <ele>271.598962</ele>
        <time>2026-05-22T07:24:08.000Z</time>
      </trkpt>
      <trkpt lat="43.22262" lon="-1.1847">
        <ele>271.255257</ele>
        <time>2026-05-22T07:24:09.000Z</time>
      </trkpt>
      <trkpt lat="43.22255" lon="-1.18478">
        <ele>270.91551</ele>
        <time>2026-05-22T07:24:10.000Z</time>
      </trkpt>
      <trkpt lat="43.22249" lon="-1.18485">
        <ele>270.579587</ele>
        <time>2026-05-22T07:24:11.000Z</time>
      </trkpt>
      <trkpt lat="43.22242" lon="-1.18492">
        <ele>270.236569</ele>
        <time>2026-05-22T07:24:12.000Z</time>
      </trkpt>
      <trkpt lat="43.22234" lon="-1.18498">
        <ele>269.88495</ele>
        <time>2026-05-22T07:24:13.000Z</time>
      </trkpt>
      <trkpt lat="43.22226" lon="-1.18502">
        <ele>269.53209</ele>
        <time>2026-05-22T07:24:14.000Z</time>
      </trkpt>
      <trkpt lat="43.22217" lon="-1.18505">
        <ele>269.170541</ele>
        <time>2026-05-22T07:24:15.000Z</time>
      </trkpt>
      <trkpt lat="43.22207" lon="-1.18507">
        <ele>268.811171</ele>
        <time>2026-05-22T07:24:16.000Z</time>
      </trkpt>
      <trkpt lat="43.22198" lon="-1.18506">
        <ele>268.453935</ele>
        <time>2026-05-22T07:24:17.000Z</time>
      </trkpt>
      <trkpt lat="43.22189" lon="-1.18506">
        <ele>268.104079</ele>
        <time>2026-05-22T07:24:18.000Z</time>
      </trkpt>
      <trkpt lat="43.22181" lon="-1.18505">
        <ele>267.773811</ele>
        <time>2026-05-22T07:24:19.000Z</time>
      </trkpt>
      <trkpt lat="43.22173" lon="-1.18504">
        <ele>267.439625</ele>
        <time>2026-05-22T07:24:20.000Z</time>
      </trkpt>
      <trkpt lat="43.22164" lon="-1.18503">
        <ele>267.105257</ele>
        <time>2026-05-22T07:24:21.000Z</time>
      </trkpt>
      <trkpt lat="43.22156" lon="-1.18502">
        <ele>266.782417</ele>
        <time>2026-05-22T07:24:22.000Z</time>
      </trkpt>
      <trkpt lat="43.22148" lon="-1.18501">
        <ele>266.739498</ele>
        <time>2026-05-22T07:24:23.000Z</time>
      </trkpt>
      <trkpt lat="43.2214" lon="-1.18501">
        <ele>266.745065</ele>
        <time>2026-05-22T07:24:24.000Z</time>
      </trkpt>
      <trkpt lat="43.22132" lon="-1.185">
        <ele>266.750496</ele>
        <time>2026-05-22T07:24:25.000Z</time>
      </trkpt>
      <trkpt lat="43.22124" lon="-1.18499">
        <ele>266.755858</ele>
        <time>2026-05-22T07:24:26.000Z</time>
      </trkpt>
      <trkpt lat="43.22116" lon="-1.18498">
        <ele>266.76123</ele>
        <time>2026-05-22T07:24:27.000Z</time>
      </trkpt>
      <trkpt lat="43.22109" lon="-1.18497">
        <ele>266.766452</ele>
        <time>2026-05-22T07:24:28.000Z</time>
      </trkpt>
      <trkpt lat="43.22101" lon="-1.18496">
        <ele>266.771674</ele>
        <time>2026-05-22T07:24:29.000Z</time>
      </trkpt>
      <trkpt lat="43.22094" lon="-1.18495">
        <ele>266.776763</ele>
        <time>2026-05-22T07:24:30.000Z</time>
      </trkpt>
      <trkpt lat="43.22086" lon="-1.18495">
        <ele>266.781702</ele>
        <time>2026-05-22T07:24:31.000Z</time>
      </trkpt>
      <trkpt lat="43.22079" lon="-1.18494">
        <ele>266.786651</ele>
        <time>2026-05-22T07:24:32.000Z</time>
      </trkpt>
      <trkpt lat="43.22072" lon="-1.18493">
        <ele>266.791609</ele>
        <time>2026-05-22T07:24:33.000Z</time>
      </trkpt>
      <trkpt lat="43.22065" lon="-1.18492">
        <ele>266.796504</ele>
        <time>2026-05-22T07:24:34.000Z</time>
      </trkpt>
      <trkpt lat="43.22058" lon="-1.18491">
        <ele>266.801179</ele>
        <time>2026-05-22T07:24:35.000Z</time>
      </trkpt>
      <trkpt lat="43.22051" lon="-1.1849">
        <ele>266.805791</ele>
        <time>2026-05-22T07:24:36.000Z</time>
      </trkpt>
      <trkpt lat="43.22045" lon="-1.18489">
        <ele>266.810262</ele>
        <time>2026-05-22T07:24:37.000Z</time>
      </trkpt>
      <trkpt lat="43.22039" lon="-1.18488">
        <ele>266.814529</ele>
        <time>2026-05-22T07:24:38.000Z</time>
      </trkpt>
      <trkpt lat="43.22033" lon="-1.18488">
        <ele>266.818658</ele>
        <time>2026-05-22T07:24:39.000Z</time>
      </trkpt>
      <trkpt lat="43.22027" lon="-1.18487">
        <ele>266.822435</ele>
        <time>2026-05-22T07:24:40.000Z</time>
      </trkpt>
      <trkpt lat="43.22022" lon="-1.18487">
        <ele>266.826214</ele>
        <time>2026-05-22T07:24:41.000Z</time>
      </trkpt>
      <trkpt lat="43.22017" lon="-1.18486">
        <ele>266.829726</ele>
        <time>2026-05-22T07:24:42.000Z</time>
      </trkpt>
      <trkpt lat="43.22012" lon="-1.18485">
        <ele>266.833164</ele>
        <time>2026-05-22T07:24:43.000Z</time>
      </trkpt>
      <trkpt lat="43.22007" lon="-1.18485">
        <ele>266.836534</ele>
        <time>2026-05-22T07:24:44.000Z</time>
      </trkpt>
      <trkpt lat="43.22002" lon="-1.18484">
        <ele>266.839836</ele>
        <time>2026-05-22T07:24:45.000Z</time>
      </trkpt>
      <trkpt lat="43.21997" lon="-1.18483">
        <ele>266.843087</ele>
        <time>2026-05-22T07:24:46.000Z</time>
      </trkpt>
      <trkpt lat="43.21993" lon="-1.18482">
        <ele>266.846196</ele>
        <time>2026-05-22T07:24:47.000Z</time>
      </trkpt>
      <trkpt lat="43.21988" lon="-1.18481">
        <ele>266.849327</ele>
        <time>2026-05-22T07:24:48.000Z</time>
      </trkpt>
      <trkpt lat="43.21984" lon="-1.1848">
        <ele>266.852459</ele>
        <time>2026-05-22T07:24:49.000Z</time>
      </trkpt>
      <trkpt lat="43.21979" lon="-1.18477">
        <ele>266.855667</ele>
        <time>2026-05-22T07:24:50.000Z</time>
      </trkpt>
      <trkpt lat="43.21975" lon="-1.18475">
        <ele>266.868192</ele>
        <time>2026-05-22T07:24:51.000Z</time>
      </trkpt>
      <trkpt lat="43.21971" lon="-1.18472">
        <ele>266.904831</ele>
        <time>2026-05-22T07:24:52.000Z</time>
      </trkpt>
      <trkpt lat="43.21968" lon="-1.18468">
        <ele>266.941448</ele>
        <time>2026-05-22T07:24:53.000Z</time>
      </trkpt>
      <trkpt lat="43.21965" lon="-1.18463">
        <ele>266.981303</ele>
        <time>2026-05-22T07:24:54.000Z</time>
      </trkpt>
      <trkpt lat="43.21962" lon="-1.18458">
        <ele>267.020855</ele>
        <time>2026-05-22T07:24:55.000Z</time>
      </trkpt>
      <trkpt lat="43.2196" lon="-1.18452">
        <ele>267.061254</ele>
        <time>2026-05-22T07:24:56.000Z</time>
      </trkpt>
      <trkpt lat="43.21958" lon="-1.18445">
        <ele>267.10277</ele>
        <time>2026-05-22T07:24:57.000Z</time>
      </trkpt>
      <trkpt lat="43.21958" lon="-1.18438">
        <ele>267.144511</ele>
        <time>2026-05-22T07:24:58.000Z</time>
      </trkpt>
      <trkpt lat="43.21957" lon="-1.18431">
        <ele>267.186991</ele>
        <time>2026-05-22T07:24:59.000Z</time>
      </trkpt>
      <trkpt lat="43.21957" lon="-1.18424">
        <ele>267.230603</ele>
        <time>2026-05-22T07:25:00.000Z</time>
      </trkpt>
      <trkpt lat="43.21956" lon="-1.18417">
        <ele>267.271881</ele>
        <time>2026-05-22T07:25:01.000Z</time>
      </trkpt>
      <trkpt lat="43.21956" lon="-1.1841">
        <ele>267.313025</ele>
        <time>2026-05-22T07:25:02.000Z</time>
      </trkpt>
      <trkpt lat="43.21956" lon="-1.18404">
        <ele>267.353567</ele>
        <time>2026-05-22T07:25:03.000Z</time>
      </trkpt>
      <trkpt lat="43.21955" lon="-1.18397">
        <ele>267.393506</ele>
        <time>2026-05-22T07:25:04.000Z</time>
      </trkpt>
      <trkpt lat="43.21955" lon="-1.18391">
        <ele>267.432764</ele>
        <time>2026-05-22T07:25:05.000Z</time>
      </trkpt>
      <trkpt lat="43.21955" lon="-1.18384">
        <ele>267.47203</ele>
        <time>2026-05-22T07:25:06.000Z</time>
      </trkpt>
      <trkpt lat="43.21955" lon="-1.18378">
        <ele>267.511892</ele>
        <time>2026-05-22T07:25:07.000Z</time>
      </trkpt>
      <trkpt lat="43.21955" lon="-1.18371">
        <ele>267.551753</ele>
        <time>2026-05-22T07:25:08.000Z</time>
      </trkpt>
      <trkpt lat="43.21955" lon="-1.18365">
        <ele>267.590407</ele>
        <time>2026-05-22T07:25:09.000Z</time>
      </trkpt>
      <trkpt lat="43.21955" lon="-1.18358">
        <ele>267.629673</ele>
        <time>2026-05-22T07:25:10.000Z</time>
      </trkpt>
      <trkpt lat="43.21956" lon="-1.18351">
        <ele>267.669543</ele>
        <time>2026-05-22T07:25:11.000Z</time>
      </trkpt>
      <trkpt lat="43.21955" lon="-1.18345">
        <ele>267.708206</ele>
        <time>2026-05-22T07:25:12.000Z</time>
      </trkpt>
      <trkpt lat="43.21955" lon="-1.18339">
        <ele>267.746859</ele>
        <time>2026-05-22T07:25:13.000Z</time>
      </trkpt>
      <trkpt lat="43.21955" lon="-1.18332">
        <ele>267.786721</ele>
        <time>2026-05-22T07:25:14.000Z</time>
      </trkpt>
      <trkpt lat="43.21955" lon="-1.18325">
        <ele>267.827195</ele>
        <time>2026-05-22T07:25:15.000Z</time>
      </trkpt>
      <trkpt lat="43.21955" lon="-1.18319">
        <ele>267.868264</ele>
        <time>2026-05-22T07:25:16.000Z</time>
      </trkpt>
      <trkpt lat="43.21955" lon="-1.18312">
        <ele>267.909342</ele>
        <time>2026-05-22T07:25:17.000Z</time>
      </trkpt>
      <trkpt lat="43.21955" lon="-1.18305">
        <ele>267.950412</ele>
        <time>2026-05-22T07:25:18.000Z</time>
      </trkpt>
      <trkpt lat="43.21956" lon="-1.18298">
        <ele>267.992093</ele>
        <time>2026-05-22T07:25:19.000Z</time>
      </trkpt>
      <trkpt lat="43.21956" lon="-1.18291">
        <ele>268.034403</ele>
        <time>2026-05-22T07:25:20.000Z</time>
      </trkpt>
      <trkpt lat="43.21956" lon="-1.18284">
        <ele>268.076085</ele>
        <time>2026-05-22T07:25:21.000Z</time>
      </trkpt>
      <trkpt lat="43.21956" lon="-1.18277">
        <ele>268.117163</ele>
        <time>2026-05-22T07:25:22.000Z</time>
      </trkpt>
      <trkpt lat="43.21956" lon="-1.1827">
        <ele>268.158836</ele>
        <time>2026-05-22T07:25:23.000Z</time>
      </trkpt>
      <trkpt lat="43.21956" lon="-1.18263">
        <ele>268.201122</ele>
        <time>2026-05-22T07:25:24.000Z</time>
      </trkpt>
      <trkpt lat="43.21956" lon="-1.18256">
        <ele>268.243431</ele>
        <time>2026-05-22T07:25:25.000Z</time>
      </trkpt>
      <trkpt lat="43.21956" lon="-1.18249">
        <ele>268.285717</ele>
        <time>2026-05-22T07:25:26.000Z</time>
      </trkpt>
      <trkpt lat="43.21956" lon="-1.18242">
        <ele>268.328598</ele>
        <time>2026-05-22T07:25:27.000Z</time>
      </trkpt>
      <trkpt lat="43.21956" lon="-1.18235">
        <ele>268.276725</ele>
        <time>2026-05-22T07:25:28.000Z</time>
      </trkpt>
      <trkpt lat="43.21956" lon="-1.18228">
        <ele>268.146219</ele>
        <time>2026-05-22T07:25:29.000Z</time>
      </trkpt>
      <trkpt lat="43.21956" lon="-1.1822">
        <ele>268.01569</ele>
        <time>2026-05-22T07:25:30.000Z</time>
      </trkpt>
      <trkpt lat="43.21956" lon="-1.18213">
        <ele>267.885161</ele>
        <time>2026-05-22T07:25:31.000Z</time>
      </trkpt>
      <trkpt lat="43.21956" lon="-1.18205">
        <ele>267.754564</ele>
        <time>2026-05-22T07:25:32.000Z</time>
      </trkpt>
      <trkpt lat="43.21955" lon="-1.18198">
        <ele>267.623968</ele>
        <time>2026-05-22T07:25:33.000Z</time>
      </trkpt>
      <trkpt lat="43.21956" lon="-1.18191">
        <ele>267.496966</ele>
        <time>2026-05-22T07:25:34.000Z</time>
      </trkpt>
      <trkpt lat="43.21956" lon="-1.18184">
        <ele>267.37175</ele>
        <time>2026-05-22T07:25:35.000Z</time>
      </trkpt>
      <trkpt lat="43.21956" lon="-1.18177">
        <ele>267.246534</ele>
        <time>2026-05-22T07:25:36.000Z</time>
      </trkpt>
      <trkpt lat="43.21955" lon="-1.18169">
        <ele>267.119532</ele>
        <time>2026-05-22T07:25:37.000Z</time>
      </trkpt>
      <trkpt lat="43.21955" lon="-1.18162">
        <ele>266.992552</ele>
        <time>2026-05-22T07:25:38.000Z</time>
      </trkpt>
      <trkpt lat="43.21955" lon="-1.18155">
        <ele>266.865573</ele>
        <time>2026-05-22T07:25:39.000Z</time>
      </trkpt>
      <trkpt lat="43.21955" lon="-1.18148">
        <ele>266.735044</ele>
        <time>2026-05-22T07:25:40.000Z</time>
      </trkpt>
      <trkpt lat="43.21955" lon="-1.1814">
        <ele>266.609828</ele>
        <time>2026-05-22T07:25:41.000Z</time>
      </trkpt>
      <trkpt lat="43.21955" lon="-1.18133">
        <ele>266.482826</ele>
        <time>2026-05-22T07:25:42.000Z</time>
      </trkpt>
      <trkpt lat="43.21956" lon="-1.18126">
        <ele>266.355823</ele>
        <time>2026-05-22T07:25:43.000Z</time>
      </trkpt>
      <trkpt lat="43.21955" lon="-1.18119">
        <ele>266.230584</ele>
        <time>2026-05-22T07:25:44.000Z</time>
      </trkpt>
      <trkpt lat="43.21956" lon="-1.18112">
        <ele>266.105345</ele>
        <time>2026-05-22T07:25:45.000Z</time>
      </trkpt>
      <trkpt lat="43.21956" lon="-1.18105">
        <ele>265.981893</ele>
        <time>2026-05-22T07:25:46.000Z</time>
      </trkpt>
      <trkpt lat="43.21956" lon="-1.18098">
        <ele>265.856677</ele>
        <time>2026-05-22T07:25:47.000Z</time>
      </trkpt>
      <trkpt lat="43.21956" lon="-1.18091">
        <ele>265.731461</ele>
        <time>2026-05-22T07:25:48.000Z</time>
      </trkpt>
      <trkpt lat="43.21955" lon="-1.18084">
        <ele>265.606222</ele>
        <time>2026-05-22T07:25:49.000Z</time>
      </trkpt>
      <trkpt lat="43.21955" lon="-1.18076">
        <ele>265.479242</ele>
        <time>2026-05-22T07:25:50.000Z</time>
      </trkpt>
      <trkpt lat="43.21956" lon="-1.18069">
        <ele>265.348646</ele>
        <time>2026-05-22T07:25:51.000Z</time>
      </trkpt>
      <trkpt lat="43.21956" lon="-1.18062">
        <ele>265.219812</ele>
        <time>2026-05-22T07:25:52.000Z</time>
      </trkpt>
      <trkpt lat="43.21956" lon="-1.18054">
        <ele>265.083993</ele>
        <time>2026-05-22T07:25:53.000Z</time>
      </trkpt>
      <trkpt lat="43.21956" lon="-1.18046">
        <ele>264.947851</ele>
        <time>2026-05-22T07:25:54.000Z</time>
      </trkpt>
      <trkpt lat="43.21957" lon="-1.18038">
        <ele>264.797457</ele>
        <time>2026-05-22T07:25:55.000Z</time>
      </trkpt>
      <trkpt lat="43.21958" lon="-1.18029">
        <ele>264.643092</ele>
        <time>2026-05-22T07:25:56.000Z</time>
      </trkpt>
      <trkpt lat="43.21958" lon="-1.18019">
        <ele>264.471954</ele>
        <time>2026-05-22T07:25:57.000Z</time>
      </trkpt>
      <trkpt lat="43.21958" lon="-1.18009">
        <ele>264.283</ele>
        <time>2026-05-22T07:25:58.000Z</time>
      </trkpt>
      <trkpt lat="43.21958" lon="-1.17997">
        <ele>264.085417</ele>
        <time>2026-05-22T07:25:59.000Z</time>
      </trkpt>
      <trkpt lat="43.21958" lon="-1.17986">
        <ele>263.63158</ele>
        <time>2026-05-22T07:26:00.000Z</time>
      </trkpt>
      <trkpt lat="43.21957" lon="-1.17973">
        <ele>262.947026</ele>
        <time>2026-05-22T07:26:01.000Z</time>
      </trkpt>
      <trkpt lat="43.21954" lon="-1.17961">
        <ele>262.250585</ele>
        <time>2026-05-22T07:26:02.000Z</time>
      </trkpt>
      <trkpt lat="43.2195" lon="-1.17949">
        <ele>261.515485</ele>
        <time>2026-05-22T07:26:03.000Z</time>
      </trkpt>
      <trkpt lat="43.21943" lon="-1.17938">
        <ele>260.765004</ele>
        <time>2026-05-22T07:26:04.000Z</time>
      </trkpt>
      <trkpt lat="43.21936" lon="-1.17929">
        <ele>260.007437</ele>
        <time>2026-05-22T07:26:05.000Z</time>
      </trkpt>
      <trkpt lat="43.21927" lon="-1.17921">
        <ele>259.2589</ele>
        <time>2026-05-22T07:26:06.000Z</time>
      </trkpt>
      <trkpt lat="43.21919" lon="-1.17914">
        <ele>258.50755</ele>
        <time>2026-05-22T07:26:07.000Z</time>
      </trkpt>
      <trkpt lat="43.2191" lon="-1.17908">
        <ele>257.762519</ele>
        <time>2026-05-22T07:26:08.000Z</time>
      </trkpt>
      <trkpt lat="43.21901" lon="-1.17902">
        <ele>257.01643</ele>
        <time>2026-05-22T07:26:09.000Z</time>
      </trkpt>
      <trkpt lat="43.21892" lon="-1.17894">
        <ele>256.258817</ele>
        <time>2026-05-22T07:26:10.000Z</time>
      </trkpt>
      <trkpt lat="43.21885" lon="-1.17884">
        <ele>255.497628</ele>
        <time>2026-05-22T07:26:11.000Z</time>
      </trkpt>
      <trkpt lat="43.21878" lon="-1.17874">
        <ele>254.736891</ele>
        <time>2026-05-22T07:26:12.000Z</time>
      </trkpt>
      <trkpt lat="43.21872" lon="-1.17862">
        <ele>253.965737</ele>
        <time>2026-05-22T07:26:13.000Z</time>
      </trkpt>
      <trkpt lat="43.21867" lon="-1.1785">
        <ele>253.200347</ele>
        <time>2026-05-22T07:26:14.000Z</time>
      </trkpt>
      <trkpt lat="43.21862" lon="-1.17837">
        <ele>252.424711</ele>
        <time>2026-05-22T07:26:15.000Z</time>
      </trkpt>
      <trkpt lat="43.21858" lon="-1.17824">
        <ele>251.642677</ele>
        <time>2026-05-22T07:26:16.000Z</time>
      </trkpt>
      <trkpt lat="43.21854" lon="-1.17811">
        <ele>250.8556</ele>
        <time>2026-05-22T07:26:17.000Z</time>
      </trkpt>
      <trkpt lat="43.21851" lon="-1.17796">
        <ele>250.019084</ele>
        <time>2026-05-22T07:26:18.000Z</time>
      </trkpt>
      <trkpt lat="43.21849" lon="-1.17782">
        <ele>249.158095</ele>
        <time>2026-05-22T07:26:19.000Z</time>
      </trkpt>
      <trkpt lat="43.21848" lon="-1.17767">
        <ele>248.285544</ele>
        <time>2026-05-22T07:26:20.000Z</time>
      </trkpt>
      <trkpt lat="43.21846" lon="-1.17752">
        <ele>247.409576</ele>
        <time>2026-05-22T07:26:21.000Z</time>
      </trkpt>
      <trkpt lat="43.21844" lon="-1.17736">
        <ele>246.514154</ele>
        <time>2026-05-22T07:26:22.000Z</time>
      </trkpt>
      <trkpt lat="43.21843" lon="-1.17721">
        <ele>245.627606</ele>
        <time>2026-05-22T07:26:23.000Z</time>
      </trkpt>
      <trkpt lat="43.2184" lon="-1.17706">
        <ele>244.722138</ele>
        <time>2026-05-22T07:26:24.000Z</time>
      </trkpt>
      <trkpt lat="43.21836" lon="-1.17691">
        <ele>243.811414</ele>
        <time>2026-05-22T07:26:25.000Z</time>
      </trkpt>
      <trkpt lat="43.21831" lon="-1.17677">
        <ele>242.904195</ele>
        <time>2026-05-22T07:26:26.000Z</time>
      </trkpt>
      <trkpt lat="43.21826" lon="-1.17663">
        <ele>241.992523</ele>
        <time>2026-05-22T07:26:27.000Z</time>
      </trkpt>
      <trkpt lat="43.2182" lon="-1.1765">
        <ele>241.08822</ele>
        <time>2026-05-22T07:26:28.000Z</time>
      </trkpt>
      <trkpt lat="43.21813" lon="-1.17637">
        <ele>240.183916</ele>
        <time>2026-05-22T07:26:29.000Z</time>
      </trkpt>
      <trkpt lat="43.21807" lon="-1.17624">
        <ele>239.279611</ele>
        <time>2026-05-22T07:26:30.000Z</time>
      </trkpt>
      <trkpt lat="43.21801" lon="-1.17611">
        <ele>238.370415</ele>
        <time>2026-05-22T07:26:31.000Z</time>
      </trkpt>
      <trkpt lat="43.21795" lon="-1.17597">
        <ele>237.461832</ele>
        <time>2026-05-22T07:26:32.000Z</time>
      </trkpt>
      <trkpt lat="43.21789" lon="-1.17584">
        <ele>236.540129</ele>
        <time>2026-05-22T07:26:33.000Z</time>
      </trkpt>
      <trkpt lat="43.21782" lon="-1.17571">
        <ele>235.939316</ele>
        <time>2026-05-22T07:26:34.000Z</time>
      </trkpt>
      <trkpt lat="43.21775" lon="-1.17559">
        <ele>235.431049</ele>
        <time>2026-05-22T07:26:35.000Z</time>
      </trkpt>
      <trkpt lat="43.21767" lon="-1.17548">
        <ele>234.917625</ele>
        <time>2026-05-22T07:26:36.000Z</time>
      </trkpt>
      <trkpt lat="43.21758" lon="-1.17538">
        <ele>234.407691</ele>
        <time>2026-05-22T07:26:37.000Z</time>
      </trkpt>
      <trkpt lat="43.21749" lon="-1.17529">
        <ele>233.909097</ele>
        <time>2026-05-22T07:26:38.000Z</time>
      </trkpt>
      <trkpt lat="43.2174" lon="-1.17521">
        <ele>233.428723</ele>
        <time>2026-05-22T07:26:39.000Z</time>
      </trkpt>
      <trkpt lat="43.21731" lon="-1.17513">
        <ele>232.963427</ele>
        <time>2026-05-22T07:26:40.000Z</time>
      </trkpt>
      <trkpt lat="43.21722" lon="-1.17507">
        <ele>232.504398</ele>
        <time>2026-05-22T07:26:41.000Z</time>
      </trkpt>
      <trkpt lat="43.21713" lon="-1.175">
        <ele>232.052333</ele>
        <time>2026-05-22T07:26:42.000Z</time>
      </trkpt>
      <trkpt lat="43.21704" lon="-1.17494">
        <ele>231.607205</ele>
        <time>2026-05-22T07:26:43.000Z</time>
      </trkpt>
      <trkpt lat="43.21695" lon="-1.17488">
        <ele>231.174407</ele>
        <time>2026-05-22T07:26:44.000Z</time>
      </trkpt>
      <trkpt lat="43.21686" lon="-1.17482">
        <ele>230.739065</ele>
        <time>2026-05-22T07:26:45.000Z</time>
      </trkpt>
      <trkpt lat="43.21678" lon="-1.17476">
        <ele>230.310235</ele>
        <time>2026-05-22T07:26:46.000Z</time>
      </trkpt>
      <trkpt lat="43.21669" lon="-1.1747">
        <ele>229.876305</ele>
        <time>2026-05-22T07:26:47.000Z</time>
      </trkpt>
      <trkpt lat="43.2166" lon="-1.17464">
        <ele>229.442375</ele>
        <time>2026-05-22T07:26:48.000Z</time>
      </trkpt>
      <trkpt lat="43.21651" lon="-1.17459">
        <ele>229.012448</ele>
        <time>2026-05-22T07:26:49.000Z</time>
      </trkpt>
      <trkpt lat="43.21643" lon="-1.17453">
        <ele>228.583616</ele>
        <time>2026-05-22T07:26:50.000Z</time>
      </trkpt>
      <trkpt lat="43.21634" lon="-1.17447">
        <ele>228.276422</ele>
        <time>2026-05-22T07:26:51.000Z</time>
      </trkpt>
      <trkpt lat="43.21626" lon="-1.17441">
        <ele>228.124566</ele>
        <time>2026-05-22T07:26:52.000Z</time>
      </trkpt>
      <trkpt lat="43.21617" lon="-1.17435">
        <ele>227.972202</ele>
        <time>2026-05-22T07:26:53.000Z</time>
      </trkpt>
      <trkpt lat="43.21609" lon="-1.1743">
        <ele>227.823713</ele>
        <time>2026-05-22T07:26:54.000Z</time>
      </trkpt>
      <trkpt lat="43.216" lon="-1.17424">
        <ele>227.674713</ele>
        <time>2026-05-22T07:26:55.000Z</time>
      </trkpt>
      <trkpt lat="43.21592" lon="-1.17418">
        <ele>227.526224</ele>
        <time>2026-05-22T07:26:56.000Z</time>
      </trkpt>
      <trkpt lat="43.21584" lon="-1.17413">
        <ele>227.383038</ele>
        <time>2026-05-22T07:26:57.000Z</time>
      </trkpt>
      <trkpt lat="43.21576" lon="-1.17408">
        <ele>227.243218</ele>
        <time>2026-05-22T07:26:58.000Z</time>
      </trkpt>
      <trkpt lat="43.21568" lon="-1.17403">
        <ele>227.1044</ele>
        <time>2026-05-22T07:26:59.000Z</time>
      </trkpt>
      <trkpt lat="43.2156" lon="-1.17397">
        <ele>226.967946</ele>
        <time>2026-05-22T07:27:00.000Z</time>
      </trkpt>
      <trkpt lat="43.21553" lon="-1.17393">
        <ele>226.840669</ele>
        <time>2026-05-22T07:27:01.000Z</time>
      </trkpt>
      <trkpt lat="43.21546" lon="-1.17388">
        <ele>226.711455</ele>
        <time>2026-05-22T07:27:02.000Z</time>
      </trkpt>
      <trkpt lat="43.21539" lon="-1.17383">
        <ele>226.58509</ele>
        <time>2026-05-22T07:27:03.000Z</time>
      </trkpt>
      <trkpt lat="43.21531" lon="-1.17378">
        <ele>226.460249</ele>
        <time>2026-05-22T07:27:04.000Z</time>
      </trkpt>
      <trkpt lat="43.21525" lon="-1.17374">
        <ele>226.339703</ele>
        <time>2026-05-22T07:27:05.000Z</time>
      </trkpt>
      <trkpt lat="43.21518" lon="-1.17369">
        <ele>226.219666</ele>
        <time>2026-05-22T07:27:06.000Z</time>
      </trkpt>
      <trkpt lat="43.21511" lon="-1.17365">
        <ele>226.101563</ele>
        <time>2026-05-22T07:27:07.000Z</time>
      </trkpt>
      <trkpt lat="43.21505" lon="-1.1736">
        <ele>225.985395</ele>
        <time>2026-05-22T07:27:08.000Z</time>
      </trkpt>
      <trkpt lat="43.21498" lon="-1.17356">
        <ele>225.870152</ele>
        <time>2026-05-22T07:27:09.000Z</time>
      </trkpt>
      <trkpt lat="43.21492" lon="-1.17352">
        <ele>225.757353</ele>
        <time>2026-05-22T07:27:10.000Z</time>
      </trkpt>
      <trkpt lat="43.21485" lon="-1.17348">
        <ele>225.645985</ele>
        <time>2026-05-22T07:27:11.000Z</time>
      </trkpt>
      <trkpt lat="43.21479" lon="-1.17343">
        <ele>225.535528</ele>
        <time>2026-05-22T07:27:12.000Z</time>
      </trkpt>
      <trkpt lat="43.21473" lon="-1.17339">
        <ele>225.409946</ele>
        <time>2026-05-22T07:27:13.000Z</time>
      </trkpt>
      <trkpt lat="43.21467" lon="-1.17335">
        <ele>225.267948</ele>
        <time>2026-05-22T07:27:14.000Z</time>
      </trkpt>
      <trkpt lat="43.21462" lon="-1.17331">
        <ele>225.130027</ele>
        <time>2026-05-22T07:27:15.000Z</time>
      </trkpt>
      <trkpt lat="43.21456" lon="-1.17327">
        <ele>224.991405</ele>
        <time>2026-05-22T07:27:16.000Z</time>
      </trkpt>
      <trkpt lat="43.2145" lon="-1.17324">
        <ele>224.858782</ele>
        <time>2026-05-22T07:27:17.000Z</time>
      </trkpt>
      <trkpt lat="43.21445" lon="-1.17321">
        <ele>224.730128</ele>
        <time>2026-05-22T07:27:18.000Z</time>
      </trkpt>
      <trkpt lat="43.21439" lon="-1.17317">
        <ele>224.591506</ele>
        <time>2026-05-22T07:27:19.000Z</time>
      </trkpt>
      <trkpt lat="43.21434" lon="-1.17313">
        <ele>224.458696</ele>
        <time>2026-05-22T07:27:20.000Z</time>
      </trkpt>
      <trkpt lat="43.21428" lon="-1.17309">
        <ele>224.326072</ele>
        <time>2026-05-22T07:27:21.000Z</time>
      </trkpt>
      <trkpt lat="43.21423" lon="-1.17306">
        <ele>224.196095</ele>
        <time>2026-05-22T07:27:22.000Z</time>
      </trkpt>
      <trkpt lat="43.21418" lon="-1.17302">
        <ele>224.068083</ele>
        <time>2026-05-22T07:27:23.000Z</time>
      </trkpt>
      <trkpt lat="43.21412" lon="-1.17298">
        <ele>223.936003</ele>
        <time>2026-05-22T07:27:24.000Z</time>
      </trkpt>
      <trkpt lat="43.21406" lon="-1.17294">
        <ele>223.792777</ele>
        <time>2026-05-22T07:27:25.000Z</time>
      </trkpt>
      <trkpt lat="43.214" lon="-1.1729">
        <ele>223.646897</ele>
        <time>2026-05-22T07:27:26.000Z</time>
      </trkpt>
      <trkpt lat="43.21394" lon="-1.17286">
        <ele>223.494457</ele>
        <time>2026-05-22T07:27:27.000Z</time>
      </trkpt>
      <trkpt lat="43.21388" lon="-1.17281">
        <ele>223.334551</ele>
        <time>2026-05-22T07:27:28.000Z</time>
      </trkpt>
      <trkpt lat="43.21381" lon="-1.17277">
        <ele>223.179973</ele>
        <time>2026-05-22T07:27:29.000Z</time>
      </trkpt>
      <trkpt lat="43.21375" lon="-1.17272">
        <ele>223.018862</ele>
        <time>2026-05-22T07:27:30.000Z</time>
      </trkpt>
      <trkpt lat="43.21368" lon="-1.17268">
        <ele>222.851205</ele>
        <time>2026-05-22T07:27:31.000Z</time>
      </trkpt>
      <trkpt lat="43.21361" lon="-1.17263">
        <ele>222.684775</ele>
        <time>2026-05-22T07:27:32.000Z</time>
      </trkpt>
      <trkpt lat="43.21354" lon="-1.17258">
        <ele>222.511088</ele>
        <time>2026-05-22T07:27:33.000Z</time>
      </trkpt>
      <trkpt lat="43.21347" lon="-1.17253">
        <ele>222.33474</ele>
        <time>2026-05-22T07:27:34.000Z</time>
      </trkpt>
      <trkpt lat="43.2134" lon="-1.17248">
        <ele>222.160322</ele>
        <time>2026-05-22T07:27:35.000Z</time>
      </trkpt>
      <trkpt lat="43.21332" lon="-1.17243">
        <ele>221.983454</ele>
        <time>2026-05-22T07:27:36.000Z</time>
      </trkpt>
      <trkpt lat="43.21325" lon="-1.17238">
        <ele>221.810485</ele>
        <time>2026-05-22T07:27:37.000Z</time>
      </trkpt>
      <trkpt lat="43.21318" lon="-1.17233">
        <ele>221.639458</ele>
        <time>2026-05-22T07:27:38.000Z</time>
      </trkpt>
      <trkpt lat="43.21311" lon="-1.17228">
        <ele>221.511756</ele>
        <time>2026-05-22T07:27:39.000Z</time>
      </trkpt>
      <trkpt lat="43.21304" lon="-1.17223">
        <ele>221.419138</ele>
        <time>2026-05-22T07:27:40.000Z</time>
      </trkpt>
      <trkpt lat="43.21297" lon="-1.17218">
        <ele>221.324799</ele>
        <time>2026-05-22T07:27:41.000Z</time>
      </trkpt>
      <trkpt lat="43.2129" lon="-1.17213">
        <ele>221.231242</ele>
        <time>2026-05-22T07:27:42.000Z</time>
      </trkpt>
      <trkpt lat="43.21284" lon="-1.17209">
        <ele>221.1413</ele>
        <time>2026-05-22T07:27:43.000Z</time>
      </trkpt>
      <trkpt lat="43.21277" lon="-1.17204">
        <ele>221.050154</ele>
        <time>2026-05-22T07:27:44.000Z</time>
      </trkpt>
      <trkpt lat="43.21271" lon="-1.17199">
        <ele>220.96448</ele>
        <time>2026-05-22T07:27:45.000Z</time>
      </trkpt>
      <trkpt lat="43.21264" lon="-1.17195">
        <ele>220.877077</ele>
        <time>2026-05-22T07:27:46.000Z</time>
      </trkpt>
      <trkpt lat="43.21258" lon="-1.1719">
        <ele>220.7886</ele>
        <time>2026-05-22T07:27:47.000Z</time>
      </trkpt>
      <trkpt lat="43.21251" lon="-1.17186">
        <ele>220.701865</ele>
        <time>2026-05-22T07:27:48.000Z</time>
      </trkpt>
      <trkpt lat="43.21245" lon="-1.17181">
        <ele>220.615927</ele>
        <time>2026-05-22T07:27:49.000Z</time>
      </trkpt>
      <trkpt lat="43.21238" lon="-1.17177">
        <ele>220.531499</ele>
        <time>2026-05-22T07:27:50.000Z</time>
      </trkpt>
      <trkpt lat="43.21232" lon="-1.17173">
        <ele>220.447791</ele>
        <time>2026-05-22T07:27:51.000Z</time>
      </trkpt>
      <trkpt lat="43.21226" lon="-1.17169">
        <ele>220.364074</ele>
        <time>2026-05-22T07:27:52.000Z</time>
      </trkpt>
      <trkpt lat="43.21219" lon="-1.17166">
        <ele>220.281461</ele>
        <time>2026-05-22T07:27:53.000Z</time>
      </trkpt>
      <trkpt lat="43.21213" lon="-1.17164">
        <ele>220.198107</ele>
        <time>2026-05-22T07:27:54.000Z</time>
      </trkpt>
      <trkpt lat="43.21206" lon="-1.17162">
        <ele>220.115791</ele>
        <time>2026-05-22T07:27:55.000Z</time>
      </trkpt>
      <trkpt lat="43.21199" lon="-1.1716">
        <ele>220.035865</ele>
        <time>2026-05-22T07:27:56.000Z</time>
      </trkpt>
      <trkpt lat="43.21192" lon="-1.1716">
        <ele>219.954002</ele>
        <time>2026-05-22T07:27:57.000Z</time>
      </trkpt>
      <trkpt lat="43.21186" lon="-1.17159">
        <ele>219.875891</ele>
        <time>2026-05-22T07:27:58.000Z</time>
      </trkpt>
      <trkpt lat="43.21179" lon="-1.17159">
        <ele>219.797838</ele>
        <time>2026-05-22T07:27:59.000Z</time>
      </trkpt>
      <trkpt lat="43.21173" lon="-1.17159">
        <ele>219.723402</ele>
        <time>2026-05-22T07:28:00.000Z</time>
      </trkpt>
      <trkpt lat="43.21167" lon="-1.17159">
        <ele>219.651372</ele>
        <time>2026-05-22T07:28:01.000Z</time>
      </trkpt>
      <trkpt lat="43.21161" lon="-1.17159">
        <ele>219.579336</ele>
        <time>2026-05-22T07:28:02.000Z</time>
      </trkpt>
      <trkpt lat="43.21155" lon="-1.17159">
        <ele>219.508501</ele>
        <time>2026-05-22T07:28:03.000Z</time>
      </trkpt>
      <trkpt lat="43.2115" lon="-1.17159">
        <ele>219.438872</ele>
        <time>2026-05-22T07:28:04.000Z</time>
      </trkpt>
      <trkpt lat="43.21144" lon="-1.17159">
        <ele>219.384362</ele>
        <time>2026-05-22T07:28:05.000Z</time>
      </trkpt>
      <trkpt lat="43.21138" lon="-1.17159">
        <ele>219.341509</ele>
        <time>2026-05-22T07:28:06.000Z</time>
      </trkpt>
      <trkpt lat="43.21132" lon="-1.1716">
        <ele>219.300123</ele>
        <time>2026-05-22T07:28:07.000Z</time>
      </trkpt>
      <trkpt lat="43.21127" lon="-1.17159">
        <ele>219.25727</ele>
        <time>2026-05-22T07:28:08.000Z</time>
      </trkpt>
      <trkpt lat="43.21121" lon="-1.17159">
        <ele>219.213628</ele>
        <time>2026-05-22T07:28:09.000Z</time>
      </trkpt>
      <trkpt lat="43.21115" lon="-1.17159">
        <ele>219.170765</ele>
        <time>2026-05-22T07:28:10.000Z</time>
      </trkpt>
      <trkpt lat="43.21109" lon="-1.17159">
        <ele>219.130117</ele>
        <time>2026-05-22T07:28:11.000Z</time>
      </trkpt>
      <trkpt lat="43.21104" lon="-1.17159">
        <ele>219.09019</ele>
        <time>2026-05-22T07:28:12.000Z</time>
      </trkpt>
      <trkpt lat="43.21099" lon="-1.17159">
        <ele>219.050281</ele>
        <time>2026-05-22T07:28:13.000Z</time>
      </trkpt>
      <trkpt lat="43.21093" lon="-1.17159">
        <ele>219.01111</ele>
        <time>2026-05-22T07:28:14.000Z</time>
      </trkpt>
      <trkpt lat="43.21088" lon="-1.1716">
        <ele>218.973398</ele>
        <time>2026-05-22T07:28:15.000Z</time>
      </trkpt>
      <trkpt lat="43.21083" lon="-1.1716">
        <ele>218.935658</ele>
        <time>2026-05-22T07:28:16.000Z</time>
      </trkpt>
      <trkpt lat="43.21078" lon="-1.1716">
        <ele>218.897964</ele>
        <time>2026-05-22T07:28:17.000Z</time>
      </trkpt>
      <trkpt lat="43.21073" lon="-1.1716">
        <ele>218.860286</ele>
        <time>2026-05-22T07:28:18.000Z</time>
      </trkpt>
      <trkpt lat="43.21068" lon="-1.17161">
        <ele>218.822546</ele>
        <time>2026-05-22T07:28:19.000Z</time>
      </trkpt>
      <trkpt lat="43.21063" lon="-1.17161">
        <ele>218.787068</ele>
        <time>2026-05-22T07:28:20.000Z</time>
      </trkpt>
      <trkpt lat="43.21058" lon="-1.17161">
        <ele>218.750863</ele>
        <time>2026-05-22T07:28:21.000Z</time>
      </trkpt>
      <trkpt lat="43.21053" lon="-1.17161">
        <ele>218.713181</ele>
        <time>2026-05-22T07:28:22.000Z</time>
      </trkpt>
      <trkpt lat="43.21048" lon="-1.17161">
        <ele>218.675488</ele>
        <time>2026-05-22T07:28:23.000Z</time>
      </trkpt>
      <trkpt lat="43.21043" lon="-1.17161">
        <ele>218.637794</ele>
        <time>2026-05-22T07:28:24.000Z</time>
      </trkpt>
      <trkpt lat="43.21038" lon="-1.17162">
        <ele>218.600819</ele>
        <time>2026-05-22T07:28:25.000Z</time>
      </trkpt>
      <trkpt lat="43.21033" lon="-1.17162">
        <ele>218.565321</ele>
        <time>2026-05-22T07:28:26.000Z</time>
      </trkpt>
      <trkpt lat="43.21028" lon="-1.17162">
        <ele>218.528378</ele>
        <time>2026-05-22T07:28:27.000Z</time>
      </trkpt>
      <trkpt lat="43.21023" lon="-1.17162">
        <ele>218.490699</ele>
        <time>2026-05-22T07:28:28.000Z</time>
      </trkpt>
      <trkpt lat="43.21018" lon="-1.17162">
        <ele>218.454495</ele>
        <time>2026-05-22T07:28:29.000Z</time>
      </trkpt>
      <trkpt lat="43.21013" lon="-1.17162">
        <ele>218.41829</ele>
        <time>2026-05-22T07:28:30.000Z</time>
      </trkpt>
      <trkpt lat="43.21008" lon="-1.17162">
        <ele>218.382085</ele>
        <time>2026-05-22T07:28:31.000Z</time>
      </trkpt>
      <trkpt lat="43.21003" lon="-1.17163">
        <ele>218.346619</ele>
        <time>2026-05-22T07:28:32.000Z</time>
      </trkpt>
      <trkpt lat="43.20999" lon="-1.17162">
        <ele>218.311154</ele>
        <time>2026-05-22T07:28:33.000Z</time>
      </trkpt>
      <trkpt lat="43.20994" lon="-1.17162">
        <ele>218.276227</ele>
        <time>2026-05-22T07:28:34.000Z</time>
      </trkpt>
      <trkpt lat="43.20989" lon="-1.17161">
        <ele>218.241088</ele>
        <time>2026-05-22T07:28:35.000Z</time>
      </trkpt>
      <trkpt lat="43.20984" lon="-1.17159">
        <ele>218.203748</ele>
        <time>2026-05-22T07:28:36.000Z</time>
      </trkpt>
      <trkpt lat="43.20979" lon="-1.17157">
        <ele>218.165418</ele>
        <time>2026-05-22T07:28:37.000Z</time>
      </trkpt>
      <trkpt lat="43.20974" lon="-1.17155">
        <ele>218.124711</ele>
        <time>2026-05-22T07:28:38.000Z</time>
      </trkpt>
      <trkpt lat="43.20969" lon="-1.17151">
        <ele>218.081932</ele>
        <time>2026-05-22T07:28:39.000Z</time>
      </trkpt>
      <trkpt lat="43.20963" lon="-1.17148">
        <ele>217.913709</ele>
        <time>2026-05-22T07:28:40.000Z</time>
      </trkpt>
      <trkpt lat="43.20958" lon="-1.17143">
        <ele>217.721703</ele>
        <time>2026-05-22T07:28:41.000Z</time>
      </trkpt>
      <trkpt lat="43.20952" lon="-1.17139">
        <ele>217.518714</ele>
        <time>2026-05-22T07:28:42.000Z</time>
      </trkpt>
      <trkpt lat="43.20946" lon="-1.17134">
        <ele>217.302166</ele>
        <time>2026-05-22T07:28:43.000Z</time>
      </trkpt>
      <trkpt lat="43.20939" lon="-1.17128">
        <ele>217.08086</ele>
        <time>2026-05-22T07:28:44.000Z</time>
      </trkpt>
      <trkpt lat="43.20933" lon="-1.17123">
        <ele>216.853325</ele>
        <time>2026-05-22T07:28:45.000Z</time>
      </trkpt>
      <trkpt lat="43.20926" lon="-1.17118">
        <ele>216.622126</ele>
        <time>2026-05-22T07:28:46.000Z</time>
      </trkpt>
      <trkpt lat="43.20919" lon="-1.17112">
        <ele>216.388357</ele>
        <time>2026-05-22T07:28:47.000Z</time>
      </trkpt>
      <trkpt lat="43.20912" lon="-1.17107">
        <ele>216.154588</ele>
        <time>2026-05-22T07:28:48.000Z</time>
      </trkpt>
      <trkpt lat="43.20905" lon="-1.17101">
        <ele>215.917157</ele>
        <time>2026-05-22T07:28:49.000Z</time>
      </trkpt>
      <trkpt lat="43.20899" lon="-1.17096">
        <ele>215.687049</ele>
        <time>2026-05-22T07:28:50.000Z</time>
      </trkpt>
      <trkpt lat="43.20892" lon="-1.17091">
        <ele>215.455422</ele>
        <time>2026-05-22T07:28:51.000Z</time>
      </trkpt>
      <trkpt lat="43.20885" lon="-1.17086">
        <ele>215.22639</ele>
        <time>2026-05-22T07:28:52.000Z</time>
      </trkpt>
      <trkpt lat="43.20879" lon="-1.1708">
        <ele>214.995191</ele>
        <time>2026-05-22T07:28:53.000Z</time>
      </trkpt>
      <trkpt lat="43.20872" lon="-1.17075">
        <ele>214.769102</ele>
        <time>2026-05-22T07:28:54.000Z</time>
      </trkpt>
      <trkpt lat="43.20866" lon="-1.17069">
        <ele>214.543014</ele>
        <time>2026-05-22T07:28:55.000Z</time>
      </trkpt>
      <trkpt lat="43.20859" lon="-1.17064">
        <ele>214.311814</ele>
        <time>2026-05-22T07:28:56.000Z</time>
      </trkpt>
      <trkpt lat="43.20852" lon="-1.17059">
        <ele>214.090095</ele>
        <time>2026-05-22T07:28:57.000Z</time>
      </trkpt>
      <trkpt lat="43.20846" lon="-1.17054">
        <ele>213.868375</ele>
        <time>2026-05-22T07:28:58.000Z</time>
      </trkpt>
      <trkpt lat="43.20839" lon="-1.17049">
        <ele>213.636748</ele>
        <time>2026-05-22T07:28:59.000Z</time>
      </trkpt>
      <trkpt lat="43.20832" lon="-1.17044">
        <ele>213.406639</ele>
        <time>2026-05-22T07:29:00.000Z</time>
      </trkpt>
      <trkpt lat="43.20826" lon="-1.17038">
        <ele>213.176881</ele>
        <time>2026-05-22T07:29:01.000Z</time>
      </trkpt>
      <trkpt lat="43.20819" lon="-1.17033">
        <ele>212.949345</ele>
        <time>2026-05-22T07:29:02.000Z</time>
      </trkpt>
      <trkpt lat="43.20812" lon="-1.17027">
        <ele>212.724863</ele>
        <time>2026-05-22T07:29:03.000Z</time>
      </trkpt>
      <trkpt lat="43.20806" lon="-1.17022">
        <ele>212.700612</ele>
        <time>2026-05-22T07:29:04.000Z</time>
      </trkpt>
      <trkpt lat="43.20799" lon="-1.17017">
        <ele>212.675459</ele>
        <time>2026-05-22T07:29:05.000Z</time>
      </trkpt>
      <trkpt lat="43.20792" lon="-1.17011">
        <ele>212.650306</ele>
        <time>2026-05-22T07:29:06.000Z</time>
      </trkpt>
      <trkpt lat="43.20785" lon="-1.17006">
        <ele>212.625937</ele>
        <time>2026-05-22T07:29:07.000Z</time>
      </trkpt>
      <trkpt lat="43.20779" lon="-1.17">
        <ele>212.601331</ele>
        <time>2026-05-22T07:29:08.000Z</time>
      </trkpt>
      <trkpt lat="43.20772" lon="-1.16995">
        <ele>212.576997</ele>
        <time>2026-05-22T07:29:09.000Z</time>
      </trkpt>
      <trkpt lat="43.20766" lon="-1.1699">
        <ele>212.55408</ele>
        <time>2026-05-22T07:29:10.000Z</time>
      </trkpt>
      <trkpt lat="43.2076" lon="-1.16985">
        <ele>212.531556</ele>
        <time>2026-05-22T07:29:11.000Z</time>
      </trkpt>
      <trkpt lat="43.20754" lon="-1.1698">
        <ele>212.508315</ele>
        <time>2026-05-22T07:29:12.000Z</time>
      </trkpt>
      <trkpt lat="43.20747" lon="-1.16975">
        <ele>212.485352</ele>
        <time>2026-05-22T07:29:13.000Z</time>
      </trkpt>
      <trkpt lat="43.20741" lon="-1.16971">
        <ele>212.462668</ele>
        <time>2026-05-22T07:29:14.000Z</time>
      </trkpt>
      <trkpt lat="43.20735" lon="-1.16966">
        <ele>212.440652</ele>
        <time>2026-05-22T07:29:15.000Z</time>
      </trkpt>
      <trkpt lat="43.20729" lon="-1.16961">
        <ele>212.41942</ele>
        <time>2026-05-22T07:29:16.000Z</time>
      </trkpt>
      <trkpt lat="43.20724" lon="-1.16957">
        <ele>212.398413</ele>
        <time>2026-05-22T07:29:17.000Z</time>
      </trkpt>
      <trkpt lat="43.20718" lon="-1.16952">
        <ele>212.376789</ele>
        <time>2026-05-22T07:29:18.000Z</time>
      </trkpt>
      <trkpt lat="43.20712" lon="-1.16948">
        <ele>212.35567</ele>
        <time>2026-05-22T07:29:19.000Z</time>
      </trkpt>
      <trkpt lat="43.20706" lon="-1.16943">
        <ele>212.333813</ele>
        <time>2026-05-22T07:29:20.000Z</time>
      </trkpt>
      <trkpt lat="43.207" lon="-1.16939">
        <ele>212.313288</ele>
        <time>2026-05-22T07:29:21.000Z</time>
      </trkpt>
      <trkpt lat="43.20695" lon="-1.16934">
        <ele>212.293427</ele>
        <time>2026-05-22T07:29:22.000Z</time>
      </trkpt>
      <trkpt lat="43.2069" lon="-1.1693">
        <ele>212.273807</ele>
        <time>2026-05-22T07:29:23.000Z</time>
      </trkpt>
      <trkpt lat="43.20684" lon="-1.16925">
        <ele>212.253519</ele>
        <time>2026-05-22T07:29:24.000Z</time>
      </trkpt>
      <trkpt lat="43.20679" lon="-1.16921">
        <ele>212.233899</ele>
        <time>2026-05-22T07:29:25.000Z</time>
      </trkpt>
      <trkpt lat="43.20674" lon="-1.16917">
        <ele>212.214511</ele>
        <time>2026-05-22T07:29:26.000Z</time>
      </trkpt>
      <trkpt lat="43.20669" lon="-1.16913">
        <ele>212.195792</ele>
        <time>2026-05-22T07:29:27.000Z</time>
      </trkpt>
      <trkpt lat="43.20664" lon="-1.16909">
        <ele>212.177382</ele>
        <time>2026-05-22T07:29:28.000Z</time>
      </trkpt>
      <trkpt lat="43.20659" lon="-1.16905">
        <ele>212.159054</ele>
        <time>2026-05-22T07:29:29.000Z</time>
      </trkpt>
      <trkpt lat="43.20654" lon="-1.16901">
        <ele>212.253931</ele>
        <time>2026-05-22T07:29:30.000Z</time>
      </trkpt>
      <trkpt lat="43.20649" lon="-1.16898">
        <ele>212.398987</ele>
        <time>2026-05-22T07:29:31.000Z</time>
      </trkpt>
      <trkpt lat="43.20645" lon="-1.16894">
        <ele>212.536867</ele>
        <time>2026-05-22T07:29:32.000Z</time>
      </trkpt>
      <trkpt lat="43.20641" lon="-1.16891">
        <ele>212.672382</ele>
        <time>2026-05-22T07:29:33.000Z</time>
      </trkpt>
      <trkpt lat="43.20637" lon="-1.16887">
        <ele>212.808254</ele>
        <time>2026-05-22T07:29:34.000Z</time>
      </trkpt>
      <trkpt lat="43.20632" lon="-1.16884">
        <ele>212.941421</ele>
        <time>2026-05-22T07:29:35.000Z</time>
      </trkpt>
      <trkpt lat="43.20629" lon="-1.1688">
        <ele>213.069937</ele>
        <time>2026-05-22T07:29:36.000Z</time>
      </trkpt>
      <trkpt lat="43.20625" lon="-1.16877">
        <ele>213.190554</ele>
        <time>2026-05-22T07:29:37.000Z</time>
      </trkpt>
      <trkpt lat="43.20621" lon="-1.16874">
        <ele>213.311458</ele>
        <time>2026-05-22T07:29:38.000Z</time>
      </trkpt>
      <trkpt lat="43.20617" lon="-1.16872">
        <ele>213.42947</ele>
        <time>2026-05-22T07:29:39.000Z</time>
      </trkpt>
      <trkpt lat="43.20614" lon="-1.16869">
        <ele>213.546981</ele>
        <time>2026-05-22T07:29:40.000Z</time>
      </trkpt>
      <trkpt lat="43.2061" lon="-1.16866">
        <ele>213.665503</ele>
        <time>2026-05-22T07:29:41.000Z</time>
      </trkpt>
      <trkpt lat="43.20606" lon="-1.16863">
        <ele>213.781659</ele>
        <time>2026-05-22T07:29:42.000Z</time>
      </trkpt>
      <trkpt lat="43.20603" lon="-1.1686">
        <ele>213.894415</ele>
        <time>2026-05-22T07:29:43.000Z</time>
      </trkpt>
      <trkpt lat="43.20599" lon="-1.16857">
        <ele>214.008224</ele>
        <time>2026-05-22T07:29:44.000Z</time>
      </trkpt>
      <trkpt lat="43.20596" lon="-1.16854">
        <ele>214.123349</ele>
        <time>2026-05-22T07:29:45.000Z</time>
      </trkpt>
      <trkpt lat="43.20592" lon="-1.16851">
        <ele>214.231685</ele>
        <time>2026-05-22T07:29:46.000Z</time>
      </trkpt>
      <trkpt lat="43.20589" lon="-1.16848">
        <ele>214.340021</ele>
        <time>2026-05-22T07:29:47.000Z</time>
      </trkpt>
      <trkpt lat="43.20585" lon="-1.16846">
        <ele>214.448357</ele>
        <time>2026-05-22T07:29:48.000Z</time>
      </trkpt>
      <trkpt lat="43.20582" lon="-1.16843">
        <ele>214.555239</ele>
        <time>2026-05-22T07:29:49.000Z</time>
      </trkpt>
      <trkpt lat="43.20579" lon="-1.1684">
        <ele>214.6565</ele>
        <time>2026-05-22T07:29:50.000Z</time>
      </trkpt>
      <trkpt lat="43.20576" lon="-1.16838">
        <ele>214.755664</ele>
        <time>2026-05-22T07:29:51.000Z</time>
      </trkpt>
      <trkpt lat="43.20573" lon="-1.16835">
        <ele>214.851433</ele>
        <time>2026-05-22T07:29:52.000Z</time>
      </trkpt>
      <trkpt lat="43.2057" lon="-1.16833">
        <ele>214.947682</ele>
        <time>2026-05-22T07:29:53.000Z</time>
      </trkpt>
      <trkpt lat="43.20567" lon="-1.16831">
        <ele>215.042454</ele>
        <time>2026-05-22T07:29:54.000Z</time>
      </trkpt>
      <trkpt lat="43.20564" lon="-1.16828">
        <ele>215.138703</ele>
        <time>2026-05-22T07:29:55.000Z</time>
      </trkpt>
      <trkpt lat="43.20561" lon="-1.16826">
        <ele>215.236526</ele>
        <time>2026-05-22T07:29:56.000Z</time>
      </trkpt>
      <trkpt lat="43.20557" lon="-1.16824">
        <ele>215.335232</ele>
        <time>2026-05-22T07:29:57.000Z</time>
      </trkpt>
      <trkpt lat="43.20554" lon="-1.16822">
        <ele>215.428109</ele>
        <time>2026-05-22T07:29:58.000Z</time>
      </trkpt>
      <trkpt lat="43.20551" lon="-1.1682">
        <ele>215.520987</ele>
        <time>2026-05-22T07:29:59.000Z</time>
      </trkpt>
      <trkpt lat="43.20549" lon="-1.16818">
        <ele>215.610985</ele>
        <time>2026-05-22T07:30:00.000Z</time>
      </trkpt>
      <trkpt lat="43.20546" lon="-1.16816">
        <ele>215.701415</ele>
        <time>2026-05-22T07:30:01.000Z</time>
      </trkpt>
      <trkpt lat="43.20543" lon="-1.16814">
        <ele>215.797571</ele>
        <time>2026-05-22T07:30:02.000Z</time>
      </trkpt>
      <trkpt lat="43.20539" lon="-1.16812">
        <ele>215.894543</ele>
        <time>2026-05-22T07:30:03.000Z</time>
      </trkpt>
      <trkpt lat="43.20536" lon="-1.1681">
        <ele>215.991515</ele>
        <time>2026-05-22T07:30:04.000Z</time>
      </trkpt>
      <trkpt lat="43.20533" lon="-1.16807">
        <ele>216.088704</ele>
        <time>2026-05-22T07:30:05.000Z</time>
      </trkpt>
      <trkpt lat="43.2053" lon="-1.16805">
        <ele>216.192371</ele>
        <time>2026-05-22T07:30:06.000Z</time>
      </trkpt>
      <trkpt lat="43.20526" lon="-1.16803">
        <ele>216.292688</ele>
        <time>2026-05-22T07:30:07.000Z</time>
      </trkpt>
      <trkpt lat="43.20523" lon="-1.16801">
        <ele>216.392176</ele>
        <time>2026-05-22T07:30:08.000Z</time>
      </trkpt>
      <trkpt lat="43.2052" lon="-1.16799">
        <ele>216.491971</ele>
        <time>2026-05-22T07:30:09.000Z</time>
      </trkpt>
      <trkpt lat="43.20516" lon="-1.16798">
        <ele>216.591095</ele>
        <time>2026-05-22T07:30:10.000Z</time>
      </trkpt>
      <trkpt lat="43.20513" lon="-1.16796">
        <ele>216.683129</ele>
        <time>2026-05-22T07:30:11.000Z</time>
      </trkpt>
      <trkpt lat="43.2051" lon="-1.16795">
        <ele>216.77143</ele>
        <time>2026-05-22T07:30:12.000Z</time>
      </trkpt>
      <trkpt lat="43.20507" lon="-1.16795">
        <ele>216.858418</ele>
        <time>2026-05-22T07:30:13.000Z</time>
      </trkpt>
      <trkpt lat="43.20504" lon="-1.16794">
        <ele>216.951203</ele>
        <time>2026-05-22T07:30:14.000Z</time>
      </trkpt>
      <trkpt lat="43.205" lon="-1.16793">
        <ele>217.043288</ele>
        <time>2026-05-22T07:30:15.000Z</time>
      </trkpt>
      <trkpt lat="43.20497" lon="-1.16792">
        <ele>217.11228</ele>
        <time>2026-05-22T07:30:16.000Z</time>
      </trkpt>
      <trkpt lat="43.20494" lon="-1.16792">
        <ele>217.108211</ele>
        <time>2026-05-22T07:30:17.000Z</time>
      </trkpt>
      <trkpt lat="43.2049" lon="-1.16791">
        <ele>217.104275</ele>
        <time>2026-05-22T07:30:18.000Z</time>
      </trkpt>
      <trkpt lat="43.20487" lon="-1.16791">
        <ele>217.10024</ele>
        <time>2026-05-22T07:30:19.000Z</time>
      </trkpt>
      <trkpt lat="43.20484" lon="-1.16791">
        <ele>217.096207</ele>
        <time>2026-05-22T07:30:20.000Z</time>
      </trkpt>
      <trkpt lat="43.2048" lon="-1.16791">
        <ele>217.091929</ele>
        <time>2026-05-22T07:30:21.000Z</time>
      </trkpt>
      <trkpt lat="43.20477" lon="-1.16791">
        <ele>217.087393</ele>
        <time>2026-05-22T07:30:22.000Z</time>
      </trkpt>
      <trkpt lat="43.20473" lon="-1.1679">
        <ele>217.082717</ele>
        <time>2026-05-22T07:30:23.000Z</time>
      </trkpt>
      <trkpt lat="43.20469" lon="-1.1679">
        <ele>217.077943</ele>
        <time>2026-05-22T07:30:24.000Z</time>
      </trkpt>
      <trkpt lat="43.20465" lon="-1.16789">
        <ele>217.073169</ele>
        <time>2026-05-22T07:30:25.000Z</time>
      </trkpt>
      <trkpt lat="43.20461" lon="-1.16789">
        <ele>217.068273</ele>
        <time>2026-05-22T07:30:26.000Z</time>
      </trkpt>
      <trkpt lat="43.20457" lon="-1.16789">
        <ele>217.063242</ele>
        <time>2026-05-22T07:30:27.000Z</time>
      </trkpt>
      <trkpt lat="43.20453" lon="-1.16788">
        <ele>217.058323</ele>
        <time>2026-05-22T07:30:28.000Z</time>
      </trkpt>
      <trkpt lat="43.20449" lon="-1.16788">
        <ele>217.053421</ele>
        <time>2026-05-22T07:30:29.000Z</time>
      </trkpt>
      <trkpt lat="43.20445" lon="-1.16787">
        <ele>217.048647</ele>
        <time>2026-05-22T07:30:30.000Z</time>
      </trkpt>
      <trkpt lat="43.20441" lon="-1.16787">
        <ele>217.043859</ele>
        <time>2026-05-22T07:30:31.000Z</time>
      </trkpt>
      <trkpt lat="43.20437" lon="-1.16787">
        <ele>217.038963</ele>
        <time>2026-05-22T07:30:32.000Z</time>
      </trkpt>
      <trkpt lat="43.20433" lon="-1.16786">
        <ele>217.034195</ele>
        <time>2026-05-22T07:30:33.000Z</time>
      </trkpt>
      <trkpt lat="43.20429" lon="-1.16787">
        <ele>217.029306</ele>
        <time>2026-05-22T07:30:34.000Z</time>
      </trkpt>
      <trkpt lat="43.20425" lon="-1.16786">
        <ele>217.024413</ele>
        <time>2026-05-22T07:30:35.000Z</time>
      </trkpt>
      <trkpt lat="43.20421" lon="-1.16786">
        <ele>217.019395</ele>
        <time>2026-05-22T07:30:36.000Z</time>
      </trkpt>
      <trkpt lat="43.20417" lon="-1.16786">
        <ele>217.014255</ele>
        <time>2026-05-22T07:30:37.000Z</time>
      </trkpt>
      <trkpt lat="43.20413" lon="-1.16785">
        <ele>217.009109</ele>
        <time>2026-05-22T07:30:38.000Z</time>
      </trkpt>
      <trkpt lat="43.20408" lon="-1.16785">
        <ele>217.003724</ele>
        <time>2026-05-22T07:30:39.000Z</time>
      </trkpt>
      <trkpt lat="43.20404" lon="-1.16785">
        <ele>216.99845</ele>
        <time>2026-05-22T07:30:40.000Z</time>
      </trkpt>
      <trkpt lat="43.204" lon="-1.16784">
        <ele>216.993297</ele>
        <time>2026-05-22T07:30:41.000Z</time>
      </trkpt>
      <trkpt lat="43.20396" lon="-1.16784">
        <ele>216.988387</ele>
        <time>2026-05-22T07:30:42.000Z</time>
      </trkpt>
      <trkpt lat="43.20392" lon="-1.16783">
        <ele>216.983084</ele>
        <time>2026-05-22T07:30:43.000Z</time>
      </trkpt>
      <trkpt lat="43.20387" lon="-1.16782">
        <ele>216.978044</ele>
        <time>2026-05-22T07:30:44.000Z</time>
      </trkpt>
      <trkpt lat="43.20383" lon="-1.16781">
        <ele>216.972873</ele>
        <time>2026-05-22T07:30:45.000Z</time>
      </trkpt>
      <trkpt lat="43.20379" lon="-1.16781">
        <ele>216.967605</ele>
        <time>2026-05-22T07:30:46.000Z</time>
      </trkpt>
      <trkpt lat="43.20375" lon="-1.16781">
        <ele>216.962349</ele>
        <time>2026-05-22T07:30:47.000Z</time>
      </trkpt>
      <trkpt lat="43.2037" lon="-1.16781">
        <ele>216.956848</ele>
        <time>2026-05-22T07:30:48.000Z</time>
      </trkpt>
      <trkpt lat="43.20366" lon="-1.16781">
        <ele>216.951347</ele>
        <time>2026-05-22T07:30:49.000Z</time>
      </trkpt>
      <trkpt lat="43.20361" lon="-1.16781">
        <ele>216.945722</ele>
        <time>2026-05-22T07:30:50.000Z</time>
      </trkpt>
      <trkpt lat="43.20356" lon="-1.1678">
        <ele>216.939709</ele>
        <time>2026-05-22T07:30:51.000Z</time>
      </trkpt>
      <trkpt lat="43.20351" lon="-1.1678">
        <ele>216.933348</ele>
        <time>2026-05-22T07:30:52.000Z</time>
      </trkpt>
      <trkpt lat="43.20346" lon="-1.1678">
        <ele>216.926864</ele>
        <time>2026-05-22T07:30:53.000Z</time>
      </trkpt>
      <trkpt lat="43.2034" lon="-1.16779">
        <ele>216.920133</ele>
        <time>2026-05-22T07:30:54.000Z</time>
      </trkpt>
      <trkpt lat="43.20334" lon="-1.16779">
        <ele>216.913016</ele>
        <time>2026-05-22T07:30:55.000Z</time>
      </trkpt>
      <trkpt lat="43.20328" lon="-1.16778">
        <ele>216.905791</ele>
        <time>2026-05-22T07:30:56.000Z</time>
      </trkpt>
      <trkpt lat="43.20322" lon="-1.16777">
        <ele>216.897828</ele>
        <time>2026-05-22T07:30:57.000Z</time>
      </trkpt>
      <trkpt lat="43.20315" lon="-1.16777">
        <ele>216.849049</ele>
        <time>2026-05-22T07:30:58.000Z</time>
      </trkpt>
      <trkpt lat="43.20308" lon="-1.16776">
        <ele>216.7471</ele>
        <time>2026-05-22T07:30:59.000Z</time>
      </trkpt>
      <trkpt lat="43.20301" lon="-1.16776">
        <ele>216.643795</ele>
        <time>2026-05-22T07:31:00.000Z</time>
      </trkpt>
      <trkpt lat="43.20294" lon="-1.16776">
        <ele>216.539015</ele>
        <time>2026-05-22T07:31:01.000Z</time>
      </trkpt>
      <trkpt lat="43.20287" lon="-1.16775">
        <ele>216.430872</ele>
        <time>2026-05-22T07:31:02.000Z</time>
      </trkpt>
      <trkpt lat="43.2028" lon="-1.16775">
        <ele>216.321602</ele>
        <time>2026-05-22T07:31:03.000Z</time>
      </trkpt>
      <trkpt lat="43.20272" lon="-1.16774">
        <ele>216.209215</ele>
        <time>2026-05-22T07:31:04.000Z</time>
      </trkpt>
      <trkpt lat="43.20265" lon="-1.16774">
        <ele>216.098507</ele>
        <time>2026-05-22T07:31:05.000Z</time>
      </trkpt>
      <trkpt lat="43.20257" lon="-1.16773">
        <ele>215.984647</ele>
        <time>2026-05-22T07:31:06.000Z</time>
      </trkpt>
      <trkpt lat="43.20249" lon="-1.16772">
        <ele>215.872259</ele>
        <time>2026-05-22T07:31:07.000Z</time>
      </trkpt>
      <trkpt lat="43.20242" lon="-1.16771">
        <ele>215.759794</ele>
        <time>2026-05-22T07:31:08.000Z</time>
      </trkpt>
      <trkpt lat="43.20234" lon="-1.16771">
        <ele>215.6488</ele>
        <time>2026-05-22T07:31:09.000Z</time>
      </trkpt>
      <trkpt lat="43.20227" lon="-1.1677">
        <ele>215.540829</ele>
        <time>2026-05-22T07:31:10.000Z</time>
      </trkpt>
      <trkpt lat="43.2022" lon="-1.1677">
        <ele>215.435982</ele>
        <time>2026-05-22T07:31:11.000Z</time>
      </trkpt>
      <trkpt lat="43.20213" lon="-1.16769">
        <ele>215.332498</ele>
        <time>2026-05-22T07:31:12.000Z</time>
      </trkpt>
      <trkpt lat="43.20206" lon="-1.16768">
        <ele>215.231884</ele>
        <time>2026-05-22T07:31:13.000Z</time>
      </trkpt>
      <trkpt lat="43.20199" lon="-1.16767">
        <ele>215.134124</ele>
        <time>2026-05-22T07:31:14.000Z</time>
      </trkpt>
      <trkpt lat="43.20193" lon="-1.16767">
        <ele>215.039303</ele>
        <time>2026-05-22T07:31:15.000Z</time>
      </trkpt>
      <trkpt lat="43.20187" lon="-1.16766">
        <ele>214.947597</ele>
        <time>2026-05-22T07:31:16.000Z</time>
      </trkpt>
      <trkpt lat="43.20181" lon="-1.16766">
        <ele>214.858906</ele>
        <time>2026-05-22T07:31:17.000Z</time>
      </trkpt>
      <trkpt lat="43.20175" lon="-1.16765">
        <ele>214.770143</ele>
        <time>2026-05-22T07:31:18.000Z</time>
      </trkpt>
      <trkpt lat="43.20169" lon="-1.16764">
        <ele>214.681295</ele>
        <time>2026-05-22T07:31:19.000Z</time>
      </trkpt>
      <trkpt lat="43.20163" lon="-1.16764">
        <ele>214.595475</ele>
        <time>2026-05-22T07:31:20.000Z</time>
      </trkpt>
      <trkpt lat="43.20157" lon="-1.16763">
        <ele>214.512597</ele>
        <time>2026-05-22T07:31:21.000Z</time>
      </trkpt>
      <trkpt lat="43.20152" lon="-1.16762">
        <ele>214.428159</ele>
        <time>2026-05-22T07:31:22.000Z</time>
      </trkpt>
      <trkpt lat="43.20146" lon="-1.16762">
        <ele>214.345282</ele>
        <time>2026-05-22T07:31:23.000Z</time>
      </trkpt>
      <trkpt lat="43.2014" lon="-1.16761">
        <ele>214.261118</ele>
        <time>2026-05-22T07:31:24.000Z</time>
      </trkpt>
      <trkpt lat="43.20135" lon="-1.16761">
        <ele>214.23298</ele>
        <time>2026-05-22T07:31:25.000Z</time>
      </trkpt>
      <trkpt lat="43.20129" lon="-1.16761">
        <ele>214.224003</ele>
        <time>2026-05-22T07:31:26.000Z</time>
      </trkpt>
      <trkpt lat="43.20124" lon="-1.1676">
        <ele>214.214859</ele>
        <time>2026-05-22T07:31:27.000Z</time>
      </trkpt>
      <trkpt lat="43.20118" lon="-1.1676">
        <ele>214.205707</ele>
        <time>2026-05-22T07:31:28.000Z</time>
      </trkpt>
      <trkpt lat="43.20113" lon="-1.1676">
        <ele>214.19673</ele>
        <time>2026-05-22T07:31:29.000Z</time>
      </trkpt>
      <trkpt lat="43.20107" lon="-1.16759">
        <ele>214.187398</ele>
        <time>2026-05-22T07:31:30.000Z</time>
      </trkpt>
      <trkpt lat="43.20101" lon="-1.16758">
        <ele>214.178228</ele>
        <time>2026-05-22T07:31:31.000Z</time>
      </trkpt>
      <trkpt lat="43.20096" lon="-1.16758">
        <ele>214.169083</ele>
        <time>2026-05-22T07:31:32.000Z</time>
      </trkpt>
      <trkpt lat="43.2009" lon="-1.16757">
        <ele>214.159931</ele>
        <time>2026-05-22T07:31:33.000Z</time>
      </trkpt>
      <trkpt lat="43.20085" lon="-1.16757">
        <ele>214.150771</ele>
        <time>2026-05-22T07:31:34.000Z</time>
      </trkpt>
      <trkpt lat="43.20079" lon="-1.16756">
        <ele>214.141448</ele>
        <time>2026-05-22T07:31:35.000Z</time>
      </trkpt>
      <trkpt lat="43.20073" lon="-1.16756">
        <ele>214.131971</ele>
        <time>2026-05-22T07:31:36.000Z</time>
      </trkpt>
      <trkpt lat="43.20068" lon="-1.16755">
        <ele>214.122982</ele>
        <time>2026-05-22T07:31:37.000Z</time>
      </trkpt>
      <trkpt lat="43.20062" lon="-1.16755">
        <ele>214.114</ele>
        <time>2026-05-22T07:31:38.000Z</time>
      </trkpt>
      <trkpt lat="43.20057" lon="-1.16754">
        <ele>214.105018</ele>
        <time>2026-05-22T07:31:39.000Z</time>
      </trkpt>
      <trkpt lat="43.20051" lon="-1.16754">
        <ele>214.096183</ele>
        <time>2026-05-22T07:31:40.000Z</time>
      </trkpt>
      <trkpt lat="43.20046" lon="-1.16753">
        <ele>214.087488</ele>
        <time>2026-05-22T07:31:41.000Z</time>
      </trkpt>
      <trkpt lat="43.2004" lon="-1.16752">
        <ele>214.078653</ele>
        <time>2026-05-22T07:31:42.000Z</time>
      </trkpt>
      <trkpt lat="43.20035" lon="-1.16752">
        <ele>214.070165</ele>
        <time>2026-05-22T07:31:43.000Z</time>
      </trkpt>
      <trkpt lat="43.2003" lon="-1.16752">
        <ele>214.06184</ele>
        <time>2026-05-22T07:31:44.000Z</time>
      </trkpt>
      <trkpt lat="43.20025" lon="-1.16751">
        <ele>214.053846</ele>
        <time>2026-05-22T07:31:45.000Z</time>
      </trkpt>
      <trkpt lat="43.2002" lon="-1.16751">
        <ele>214.045841</ele>
        <time>2026-05-22T07:31:46.000Z</time>
      </trkpt>
      <trkpt lat="43.20015" lon="-1.1675">
        <ele>214.037807</ele>
        <time>2026-05-22T07:31:47.000Z</time>
      </trkpt>
      <trkpt lat="43.20011" lon="-1.1675">
        <ele>214.029965</ele>
        <time>2026-05-22T07:31:48.000Z</time>
      </trkpt>
      <trkpt lat="43.20006" lon="-1.1675">
        <ele>214.022123</ele>
        <time>2026-05-22T07:31:49.000Z</time>
      </trkpt>
      <trkpt lat="43.20001" lon="-1.16749">
        <ele>214.014124</ele>
        <time>2026-05-22T07:31:50.000Z</time>
      </trkpt>
      <trkpt lat="43.19996" lon="-1.16749">
        <ele>214.005786</ele>
        <time>2026-05-22T07:31:51.000Z</time>
      </trkpt>
      <trkpt lat="43.19991" lon="-1.16749">
        <ele>213.997302</ele>
        <time>2026-05-22T07:31:52.000Z</time>
      </trkpt>
      <trkpt lat="43.19985" lon="-1.16749">
        <ele>213.988659</ele>
        <time>2026-05-22T07:31:53.000Z</time>
      </trkpt>
      <trkpt lat="43.1998" lon="-1.16749">
        <ele>213.97969</ele>
        <time>2026-05-22T07:31:54.000Z</time>
      </trkpt>
      <trkpt lat="43.19974" lon="-1.16749">
        <ele>213.970557</ele>
        <time>2026-05-22T07:31:55.000Z</time>
      </trkpt>
      <trkpt lat="43.19968" lon="-1.16749">
        <ele>213.960769</ele>
        <time>2026-05-22T07:31:56.000Z</time>
      </trkpt>
      <trkpt lat="43.19962" lon="-1.16749">
        <ele>213.950821</ele>
        <time>2026-05-22T07:31:57.000Z</time>
      </trkpt>
      <trkpt lat="43.19956" lon="-1.16749">
        <ele>213.861235</ele>
        <time>2026-05-22T07:31:58.000Z</time>
      </trkpt>
      <trkpt lat="43.1995" lon="-1.16749">
        <ele>213.701376</ele>
        <time>2026-05-22T07:31:59.000Z</time>
      </trkpt>
      <trkpt lat="43.19943" lon="-1.1675">
        <ele>213.543592</ele>
        <time>2026-05-22T07:32:00.000Z</time>
      </trkpt>
      <trkpt lat="43.19937" lon="-1.1675">
        <ele>213.381238</ele>
        <time>2026-05-22T07:32:01.000Z</time>
      </trkpt>
      <trkpt lat="43.1993" lon="-1.16751">
        <ele>213.21644</ele>
        <time>2026-05-22T07:32:02.000Z</time>
      </trkpt>
      <trkpt lat="43.19923" lon="-1.16751">
        <ele>213.044039</ele>
        <time>2026-05-22T07:32:03.000Z</time>
      </trkpt>
      <trkpt lat="43.19916" lon="-1.16752">
        <ele>212.871552</ele>
        <time>2026-05-22T07:32:04.000Z</time>
      </trkpt>
      <trkpt lat="43.19909" lon="-1.16752">
        <ele>212.696468</ele>
        <time>2026-05-22T07:32:05.000Z</time>
      </trkpt>
      <trkpt lat="43.19902" lon="-1.16753">
        <ele>212.5164</ele>
        <time>2026-05-22T07:32:06.000Z</time>
      </trkpt>
      <trkpt lat="43.19895" lon="-1.16753">
        <ele>212.331635</ele>
        <time>2026-05-22T07:32:07.000Z</time>
      </trkpt>
      <trkpt lat="43.19887" lon="-1.16753">
        <ele>212.146826</ele>
        <time>2026-05-22T07:32:08.000Z</time>
      </trkpt>
      <trkpt lat="43.1988" lon="-1.16754">
        <ele>211.964149</ele>
        <time>2026-05-22T07:32:09.000Z</time>
      </trkpt>
      <trkpt lat="43.19873" lon="-1.16755">
        <ele>211.778981</ele>
        <time>2026-05-22T07:32:10.000Z</time>
      </trkpt>
      <trkpt lat="43.19865" lon="-1.16755">
        <ele>211.591615</ele>
        <time>2026-05-22T07:32:11.000Z</time>
      </trkpt>
      <trkpt lat="43.19857" lon="-1.16755">
        <ele>211.399319</ele>
        <time>2026-05-22T07:32:12.000Z</time>
      </trkpt>
      <trkpt lat="43.1985" lon="-1.16756">
        <ele>211.214366</ele>
        <time>2026-05-22T07:32:13.000Z</time>
      </trkpt>
      <trkpt lat="43.19843" lon="-1.16756">
        <ele>211.027</ele>
        <time>2026-05-22T07:32:14.000Z</time>
      </trkpt>
      <trkpt lat="43.19835" lon="-1.16757">
        <ele>210.836964</ele>
        <time>2026-05-22T07:32:15.000Z</time>
      </trkpt>
      <trkpt lat="43.19827" lon="-1.16758">
        <ele>210.646685</ele>
        <time>2026-05-22T07:32:16.000Z</time>
      </trkpt>
      <trkpt lat="43.1982" lon="-1.16759">
        <ele>210.461232</ele>
        <time>2026-05-22T07:32:17.000Z</time>
      </trkpt>
      <trkpt lat="43.19813" lon="-1.16759">
        <ele>210.276064</ele>
        <time>2026-05-22T07:32:18.000Z</time>
      </trkpt>
      <trkpt lat="43.19805" lon="-1.1676">
        <ele>210.090896</ele>
        <time>2026-05-22T07:32:19.000Z</time>
      </trkpt>
      <trkpt lat="43.19798" lon="-1.1676">
        <ele>209.90345</ele>
        <time>2026-05-22T07:32:20.000Z</time>
      </trkpt>
      <trkpt lat="43.1979" lon="-1.16761">
        <ele>209.718497</ele>
        <time>2026-05-22T07:32:21.000Z</time>
      </trkpt>
      <trkpt lat="43.19783" lon="-1.16761">
        <ele>209.528558</ele>
        <time>2026-05-22T07:32:22.000Z</time>
      </trkpt>
      <trkpt lat="43.19775" lon="-1.16762">
        <ele>209.313077</ele>
        <time>2026-05-22T07:32:23.000Z</time>
      </trkpt>
      <trkpt lat="43.19768" lon="-1.16763">
        <ele>209.079866</ele>
        <time>2026-05-22T07:32:24.000Z</time>
      </trkpt>
      <trkpt lat="43.1976" lon="-1.16763">
        <ele>208.846347</ele>
        <time>2026-05-22T07:32:25.000Z</time>
      </trkpt>
      <trkpt lat="43.19752" lon="-1.16764">
        <ele>208.606799</ele>
        <time>2026-05-22T07:32:26.000Z</time>
      </trkpt>
      <trkpt lat="43.19745" lon="-1.16765">
        <ele>208.373281</ele>
        <time>2026-05-22T07:32:27.000Z</time>
      </trkpt>
      <trkpt lat="43.19737" lon="-1.16766">
        <ele>208.139369</ele>
        <time>2026-05-22T07:32:28.000Z</time>
      </trkpt>
      <trkpt lat="43.1973" lon="-1.16766">
        <ele>207.903059</ele>
        <time>2026-05-22T07:32:29.000Z</time>
      </trkpt>
      <trkpt lat="43.19722" lon="-1.16767">
        <ele>207.663768</ele>
        <time>2026-05-22T07:32:30.000Z</time>
      </trkpt>
      <trkpt lat="43.19714" lon="-1.16767">
        <ele>207.424476</ele>
        <time>2026-05-22T07:32:31.000Z</time>
      </trkpt>
      <trkpt lat="43.19707" lon="-1.16768">
        <ele>207.191265</ele>
        <time>2026-05-22T07:32:32.000Z</time>
      </trkpt>
      <trkpt lat="43.197" lon="-1.16769">
        <ele>206.961153</ele>
        <time>2026-05-22T07:32:33.000Z</time>
      </trkpt>
      <trkpt lat="43.19692" lon="-1.16769">
        <ele>206.731164</ele>
        <time>2026-05-22T07:32:34.000Z</time>
      </trkpt>
      <trkpt lat="43.19684" lon="-1.1677">
        <ele>206.491969</ele>
        <time>2026-05-22T07:32:35.000Z</time>
      </trkpt>
      <trkpt lat="43.19677" lon="-1.1677">
        <ele>206.256006</ele>
        <time>2026-05-22T07:32:36.000Z</time>
      </trkpt>
      <trkpt lat="43.19669" lon="-1.1677">
        <ele>206.013709</ele>
        <time>2026-05-22T07:32:37.000Z</time>
      </trkpt>
      <trkpt lat="43.19661" lon="-1.16771">
        <ele>205.7743</ele>
        <time>2026-05-22T07:32:38.000Z</time>
      </trkpt>
      <trkpt lat="43.19654" lon="-1.16771">
        <ele>205.535233</ele>
        <time>2026-05-22T07:32:39.000Z</time>
      </trkpt>
      <trkpt lat="43.19646" lon="-1.16772">
        <ele>205.292725</ele>
        <time>2026-05-22T07:32:40.000Z</time>
      </trkpt>
      <trkpt lat="43.19638" lon="-1.16772">
        <ele>205.044017</ele>
        <time>2026-05-22T07:32:41.000Z</time>
      </trkpt>
      <trkpt lat="43.1963" lon="-1.16773">
        <ele>204.788659</ele>
        <time>2026-05-22T07:32:42.000Z</time>
      </trkpt>
      <trkpt lat="43.19621" lon="-1.16774">
        <ele>204.527278</ele>
        <time>2026-05-22T07:32:43.000Z</time>
      </trkpt>
      <trkpt lat="43.19612" lon="-1.16774">
        <ele>204.250671</ele>
        <time>2026-05-22T07:32:44.000Z</time>
      </trkpt>
      <trkpt lat="43.19603" lon="-1.16776">
        <ele>203.969976</ele>
        <time>2026-05-22T07:32:45.000Z</time>
      </trkpt>
      <trkpt lat="43.19594" lon="-1.16777">
        <ele>203.906303</ele>
        <time>2026-05-22T07:32:46.000Z</time>
      </trkpt>
      <trkpt lat="43.19584" lon="-1.16778">
        <ele>203.956243</ele>
        <time>2026-05-22T07:32:47.000Z</time>
      </trkpt>
      <trkpt lat="43.19574" lon="-1.16779">
        <ele>204.00727</ele>
        <time>2026-05-22T07:32:48.000Z</time>
      </trkpt>
      <trkpt lat="43.19565" lon="-1.1678">
        <ele>204.058298</ele>
        <time>2026-05-22T07:32:49.000Z</time>
      </trkpt>
      <trkpt lat="43.19555" lon="-1.16781">
        <ele>204.109872</ele>
        <time>2026-05-22T07:32:50.000Z</time>
      </trkpt>
      <trkpt lat="43.19545" lon="-1.16782">
        <ele>204.160444</ele>
        <time>2026-05-22T07:32:51.000Z</time>
      </trkpt>
      <trkpt lat="43.19536" lon="-1.16783">
        <ele>204.209918</ele>
        <time>2026-05-22T07:32:52.000Z</time>
      </trkpt>
      <trkpt lat="43.19527" lon="-1.16784">
        <ele>204.256207</ele>
        <time>2026-05-22T07:32:53.000Z</time>
      </trkpt>
      <trkpt lat="43.19518" lon="-1.16785">
        <ele>204.300402</ele>
        <time>2026-05-22T07:32:54.000Z</time>
      </trkpt>
      <trkpt lat="43.1951" lon="-1.16785">
        <ele>204.341944</ele>
        <time>2026-05-22T07:32:55.000Z</time>
      </trkpt>
      <trkpt lat="43.19502" lon="-1.16784">
        <ele>204.382474</ele>
        <time>2026-05-22T07:32:56.000Z</time>
      </trkpt>
      <trkpt lat="43.19495" lon="-1.16783">
        <ele>204.421049</ele>
        <time>2026-05-22T07:32:57.000Z</time>
      </trkpt>
      <trkpt lat="43.19488" lon="-1.16782">
        <ele>204.456603</ele>
        <time>2026-05-22T07:32:58.000Z</time>
      </trkpt>
      <trkpt lat="43.19482" lon="-1.16781">
        <ele>204.490962</ele>
        <time>2026-05-22T07:32:59.000Z</time>
      </trkpt>
      <trkpt lat="43.19475" lon="-1.16778">
        <ele>204.524518</ele>
        <time>2026-05-22T07:33:00.000Z</time>
      </trkpt>
      <trkpt lat="43.1947" lon="-1.16775">
        <ele>204.556705</ele>
        <time>2026-05-22T07:33:01.000Z</time>
      </trkpt>
      <trkpt lat="43.19464" lon="-1.16772">
        <ele>204.586616</ele>
        <time>2026-05-22T07:33:02.000Z</time>
      </trkpt>
      <trkpt lat="43.1946" lon="-1.16768">
        <ele>204.616033</ele>
        <time>2026-05-22T07:33:03.000Z</time>
      </trkpt>
      <trkpt lat="43.19455" lon="-1.16764">
        <ele>204.643868</ele>
        <time>2026-05-22T07:33:04.000Z</time>
      </trkpt>
      <trkpt lat="43.19451" lon="-1.16759">
        <ele>204.669689</ele>
        <time>2026-05-22T07:33:05.000Z</time>
      </trkpt>
      <trkpt lat="43.19448" lon="-1.16755">
        <ele>204.693324</ele>
        <time>2026-05-22T07:33:06.000Z</time>
      </trkpt>
      <trkpt lat="43.19445" lon="-1.1675">
        <ele>204.715778</ele>
        <time>2026-05-22T07:33:07.000Z</time>
      </trkpt>
      <trkpt lat="43.19442" lon="-1.16746">
        <ele>204.737603</ele>
        <time>2026-05-22T07:33:08.000Z</time>
      </trkpt>
      <trkpt lat="43.1944" lon="-1.16742">
        <ele>204.759375</ele>
        <time>2026-05-22T07:33:09.000Z</time>
      </trkpt>
      <trkpt lat="43.19437" lon="-1.16737">
        <ele>204.780792</ele>
        <time>2026-05-22T07:33:10.000Z</time>
      </trkpt>
      <trkpt lat="43.19435" lon="-1.16733">
        <ele>204.801596</ele>
        <time>2026-05-22T07:33:11.000Z</time>
      </trkpt>
      <trkpt lat="43.19433" lon="-1.16728">
        <ele>205.021126</ele>
        <time>2026-05-22T07:33:12.000Z</time>
      </trkpt>
      <trkpt lat="43.19431" lon="-1.16724">
        <ele>205.29726</ele>
        <time>2026-05-22T07:33:13.000Z</time>
      </trkpt>
      <trkpt lat="43.19429" lon="-1.1672">
        <ele>205.551421</ele>
        <time>2026-05-22T07:33:14.000Z</time>
      </trkpt>
      <trkpt lat="43.19428" lon="-1.16717">
        <ele>205.778687</ele>
        <time>2026-05-22T07:33:15.000Z</time>
      </trkpt>
      <trkpt lat="43.19427" lon="-1.16713">
        <ele>206.009349</ele>
        <time>2026-05-22T07:33:16.000Z</time>
      </trkpt>
      <trkpt lat="43.19425" lon="-1.16709">
        <ele>206.262685</ele>
        <time>2026-05-22T07:33:17.000Z</time>
      </trkpt>
      <trkpt lat="43.19424" lon="-1.16705">
        <ele>206.503149</ele>
        <time>2026-05-22T07:33:18.000Z</time>
      </trkpt>
      <trkpt lat="43.19424" lon="-1.16701">
        <ele>206.716879</ele>
        <time>2026-05-22T07:33:19.000Z</time>
      </trkpt>
      <trkpt lat="43.19423" lon="-1.16697">
        <ele>206.949053</ele>
        <time>2026-05-22T07:33:20.000Z</time>
      </trkpt>
      <trkpt lat="43.19422" lon="-1.16694">
        <ele>207.168103</ele>
        <time>2026-05-22T07:33:21.000Z</time>
      </trkpt>
      <trkpt lat="43.1942" lon="-1.16691">
        <ele>207.358778</ele>
        <time>2026-05-22T07:33:22.000Z</time>
      </trkpt>
      <trkpt lat="43.19419" lon="-1.16688">
        <ele>207.546045</ele>
        <time>2026-05-22T07:33:23.000Z</time>
      </trkpt>
      <trkpt lat="43.19418" lon="-1.16685">
        <ele>207.733312</ele>
        <time>2026-05-22T07:33:24.000Z</time>
      </trkpt>
      <trkpt lat="43.19417" lon="-1.16682">
        <ele>207.925484</ele>
        <time>2026-05-22T07:33:25.000Z</time>
      </trkpt>
      <trkpt lat="43.19416" lon="-1.16679">
        <ele>208.110163</ele>
        <time>2026-05-22T07:33:26.000Z</time>
      </trkpt>
      <trkpt lat="43.19415" lon="-1.16676">
        <ele>208.28706</ele>
        <time>2026-05-22T07:33:27.000Z</time>
      </trkpt>
      <trkpt lat="43.19414" lon="-1.16673">
        <ele>208.463957</ele>
        <time>2026-05-22T07:33:28.000Z</time>
      </trkpt>
      <trkpt lat="43.19414" lon="-1.1667">
        <ele>208.643353</ele>
        <time>2026-05-22T07:33:29.000Z</time>
      </trkpt>
      <trkpt lat="43.19413" lon="-1.16667">
        <ele>208.828032</ele>
        <time>2026-05-22T07:33:30.000Z</time>
      </trkpt>
      <trkpt lat="43.19412" lon="-1.16664">
        <ele>209.016619</ele>
        <time>2026-05-22T07:33:31.000Z</time>
      </trkpt>
      <trkpt lat="43.19411" lon="-1.16661">
        <ele>209.209239</ele>
        <time>2026-05-22T07:33:32.000Z</time>
      </trkpt>
      <trkpt lat="43.1941" lon="-1.16658">
        <ele>209.3894</ele>
        <time>2026-05-22T07:33:33.000Z</time>
      </trkpt>
      <trkpt lat="43.19409" lon="-1.16654">
        <ele>209.573192</ele>
        <time>2026-05-22T07:33:34.000Z</time>
      </trkpt>
      <trkpt lat="43.19408" lon="-1.16651">
        <ele>209.755377</ele>
        <time>2026-05-22T07:33:35.000Z</time>
      </trkpt>
      <trkpt lat="43.19408" lon="-1.16648">
        <ele>209.940057</ele>
        <time>2026-05-22T07:33:36.000Z</time>
      </trkpt>
      <trkpt lat="43.19407" lon="-1.16645">
        <ele>210.159108</ele>
        <time>2026-05-22T07:33:37.000Z</time>
      </trkpt>
      <trkpt lat="43.19406" lon="-1.16641">
        <ele>210.372839</ele>
        <time>2026-05-22T07:33:38.000Z</time>
      </trkpt>
      <trkpt lat="43.19405" lon="-1.16638">
        <ele>210.556426</ele>
        <time>2026-05-22T07:33:39.000Z</time>
      </trkpt>
      <trkpt lat="43.19404" lon="-1.16635">
        <ele>210.728278</ele>
        <time>2026-05-22T07:33:40.000Z</time>
      </trkpt>
      <trkpt lat="43.19403" lon="-1.16633">
        <ele>210.90013</ele>
        <time>2026-05-22T07:33:41.000Z</time>
      </trkpt>
      <trkpt lat="43.19402" lon="-1.1663">
        <ele>211.074262</ele>
        <time>2026-05-22T07:33:42.000Z</time>
      </trkpt>
      <trkpt lat="43.19401" lon="-1.16627">
        <ele>211.253657</ele>
        <time>2026-05-22T07:33:43.000Z</time>
      </trkpt>
      <trkpt lat="43.194" lon="-1.16624">
        <ele>211.425509</ele>
        <time>2026-05-22T07:33:44.000Z</time>
      </trkpt>
      <trkpt lat="43.19399" lon="-1.16621">
        <ele>211.589497</ele>
        <time>2026-05-22T07:33:45.000Z</time>
      </trkpt>
      <trkpt lat="43.19398" lon="-1.16619">
        <ele>211.766553</ele>
        <time>2026-05-22T07:33:46.000Z</time>
      </trkpt>
      <trkpt lat="43.19397" lon="-1.16616">
        <ele>211.946714</ele>
        <time>2026-05-22T07:33:47.000Z</time>
      </trkpt>
      <trkpt lat="43.19396" lon="-1.16613">
        <ele>212.09987</ele>
        <time>2026-05-22T07:33:48.000Z</time>
      </trkpt>
      <trkpt lat="43.19395" lon="-1.1661">
        <ele>212.285124</ele>
        <time>2026-05-22T07:33:49.000Z</time>
      </trkpt>
      <trkpt lat="43.19394" lon="-1.16607">
        <ele>212.470378</ele>
        <time>2026-05-22T07:33:50.000Z</time>
      </trkpt>
      <trkpt lat="43.19393" lon="-1.16604">
        <ele>212.649003</ele>
        <time>2026-05-22T07:33:51.000Z</time>
      </trkpt>
      <trkpt lat="43.19392" lon="-1.16602">
        <ele>212.83543</ele>
        <time>2026-05-22T07:33:52.000Z</time>
      </trkpt>
      <trkpt lat="43.19391" lon="-1.16599">
        <ele>212.994636</ele>
        <time>2026-05-22T07:33:53.000Z</time>
      </trkpt>
      <trkpt lat="43.1939" lon="-1.16597">
        <ele>213.159725</ele>
        <time>2026-05-22T07:33:54.000Z</time>
      </trkpt>
      <trkpt lat="43.19389" lon="-1.16594">
        <ele>213.356839</ele>
        <time>2026-05-22T07:33:55.000Z</time>
      </trkpt>
      <trkpt lat="43.19388" lon="-1.1659">
        <ele>213.555525</ele>
        <time>2026-05-22T07:33:56.000Z</time>
      </trkpt>
      <trkpt lat="43.19387" lon="-1.16587">
        <ele>213.740779</ele>
        <time>2026-05-22T07:33:57.000Z</time>
      </trkpt>
      <trkpt lat="43.19386" lon="-1.16584">
        <ele>213.922965</ele>
        <time>2026-05-22T07:33:58.000Z</time>
      </trkpt>
      <trkpt lat="43.19385" lon="-1.16582">
        <ele>214.088054</ele>
        <time>2026-05-22T07:33:59.000Z</time>
      </trkpt>
      <trkpt lat="43.19384" lon="-1.16579">
        <ele>214.261755</ele>
        <time>2026-05-22T07:34:00.000Z</time>
      </trkpt>
      <trkpt lat="43.19383" lon="-1.16576">
        <ele>214.430576</ele>
        <time>2026-05-22T07:34:01.000Z</time>
      </trkpt>
      <trkpt lat="43.19381" lon="-1.16574">
        <ele>214.612292</ele>
        <time>2026-05-22T07:34:02.000Z</time>
      </trkpt>
      <trkpt lat="43.1938" lon="-1.16571">
        <ele>214.780389</ele>
        <time>2026-05-22T07:34:03.000Z</time>
      </trkpt>
      <trkpt lat="43.19379" lon="-1.16569">
        <ele>214.957446</ele>
        <time>2026-05-22T07:34:04.000Z</time>
      </trkpt>
      <trkpt lat="43.19377" lon="-1.16566">
        <ele>215.134484</ele>
        <time>2026-05-22T07:34:05.000Z</time>
      </trkpt>
      <trkpt lat="43.19376" lon="-1.16564">
        <ele>215.303648</ele>
        <time>2026-05-22T07:34:06.000Z</time>
      </trkpt>
      <trkpt lat="43.19374" lon="-1.16562">
        <ele>215.460928</ele>
        <time>2026-05-22T07:34:07.000Z</time>
      </trkpt>
      <trkpt lat="43.19373" lon="-1.1656">
        <ele>215.612639</ele>
        <time>2026-05-22T07:34:08.000Z</time>
      </trkpt>
      <trkpt lat="43.19371" lon="-1.16558">
        <ele>215.766165</ele>
        <time>2026-05-22T07:34:09.000Z</time>
      </trkpt>
      <trkpt lat="43.1937" lon="-1.16557">
        <ele>215.922068</ele>
        <time>2026-05-22T07:34:10.000Z</time>
      </trkpt>
      <trkpt lat="43.19368" lon="-1.16555">
        <ele>216.075593</ele>
        <time>2026-05-22T07:34:11.000Z</time>
      </trkpt>
      <trkpt lat="43.19367" lon="-1.16553">
        <ele>216.223409</ele>
        <time>2026-05-22T07:34:12.000Z</time>
      </trkpt>
      <trkpt lat="43.19366" lon="-1.16551">
        <ele>216.361768</ele>
        <time>2026-05-22T07:34:13.000Z</time>
      </trkpt>
      <trkpt lat="43.19364" lon="-1.1655">
        <ele>216.482474</ele>
        <time>2026-05-22T07:34:14.000Z</time>
      </trkpt>
      <trkpt lat="43.19363" lon="-1.1655">
        <ele>216.602835</ele>
        <time>2026-05-22T07:34:15.000Z</time>
      </trkpt>
      <trkpt lat="43.19361" lon="-1.16549">
        <ele>216.759601</ele>
        <time>2026-05-22T07:34:16.000Z</time>
      </trkpt>
      <trkpt lat="43.19359" lon="-1.16548">
        <ele>216.887376</ele>
        <time>2026-05-22T07:34:17.000Z</time>
      </trkpt>
      <trkpt lat="43.19358" lon="-1.16547">
        <ele>217.01515</ele>
        <time>2026-05-22T07:34:18.000Z</time>
      </trkpt>
      <trkpt lat="43.19356" lon="-1.16546">
        <ele>217.171855</ele>
        <time>2026-05-22T07:34:19.000Z</time>
      </trkpt>
      <trkpt lat="43.19354" lon="-1.16545">
        <ele>217.312225</ele>
        <time>2026-05-22T07:34:20.000Z</time>
      </trkpt>
      <trkpt lat="43.19353" lon="-1.16545">
        <ele>217.44</ele>
        <time>2026-05-22T07:34:21.000Z</time>
      </trkpt>
      <trkpt lat="43.19351" lon="-1.16544">
        <ele>217.584123</ele>
        <time>2026-05-22T07:34:22.000Z</time>
      </trkpt>
      <trkpt lat="43.19349" lon="-1.16543">
        <ele>217.701834</ele>
        <time>2026-05-22T07:34:23.000Z</time>
      </trkpt>
      <trkpt lat="43.19348" lon="-1.16543">
        <ele>217.833868</ele>
        <time>2026-05-22T07:34:24.000Z</time>
      </trkpt>
      <trkpt lat="43.19346" lon="-1.16543">
        <ele>217.95915</ele>
        <time>2026-05-22T07:34:25.000Z</time>
      </trkpt>
      <trkpt lat="43.19344" lon="-1.16542">
        <ele>218.091184</ele>
        <time>2026-05-22T07:34:26.000Z</time>
      </trkpt>
      <trkpt lat="43.19343" lon="-1.16542">
        <ele>218.223218</ele>
        <time>2026-05-22T07:34:27.000Z</time>
      </trkpt>
      <trkpt lat="43.19341" lon="-1.16542">
        <ele>218.369687</ele>
        <time>2026-05-22T07:34:28.000Z</time>
      </trkpt>
      <trkpt lat="43.19339" lon="-1.16542">
        <ele>218.508799</ele>
        <time>2026-05-22T07:34:29.000Z</time>
      </trkpt>
      <trkpt lat="43.19337" lon="-1.16542">
        <ele>218.639754</ele>
        <time>2026-05-22T07:34:30.000Z</time>
      </trkpt>
      <trkpt lat="43.19336" lon="-1.16543">
        <ele>218.737432</ele>
        <time>2026-05-22T07:34:31.000Z</time>
      </trkpt>
      <trkpt lat="43.19334" lon="-1.16543">
        <ele>218.834767</ele>
        <time>2026-05-22T07:34:32.000Z</time>
      </trkpt>
      <trkpt lat="43.19332" lon="-1.16543">
        <ele>218.950383</ele>
        <time>2026-05-22T07:34:33.000Z</time>
      </trkpt>
      <trkpt lat="43.1933" lon="-1.16544">
        <ele>219.049839</ele>
        <time>2026-05-22T07:34:34.000Z</time>
      </trkpt>
      <trkpt lat="43.19329" lon="-1.16544">
        <ele>219.149296</ele>
        <time>2026-05-22T07:34:35.000Z</time>
      </trkpt>
      <trkpt lat="43.19327" lon="-1.16544">
        <ele>219.2587</ele>
        <time>2026-05-22T07:34:36.000Z</time>
      </trkpt>
      <trkpt lat="43.19325" lon="-1.16544">
        <ele>219.361666</ele>
        <time>2026-05-22T07:34:37.000Z</time>
      </trkpt>
      <trkpt lat="43.19323" lon="-1.16545">
        <ele>219.464717</ele>
        <time>2026-05-22T07:34:38.000Z</time>
      </trkpt>
      <trkpt lat="43.19321" lon="-1.16545">
        <ele>219.562764</ele>
        <time>2026-05-22T07:34:39.000Z</time>
      </trkpt>
      <trkpt lat="43.19319" lon="-1.16545">
        <ele>219.67177</ele>
        <time>2026-05-22T07:34:40.000Z</time>
      </trkpt>
      <trkpt lat="43.19318" lon="-1.16545">
        <ele>219.769373</ele>
        <time>2026-05-22T07:34:41.000Z</time>
      </trkpt>
      <trkpt lat="43.19316" lon="-1.16546">
        <ele>219.864257</ele>
        <time>2026-05-22T07:34:42.000Z</time>
      </trkpt>
      <trkpt lat="43.19314" lon="-1.16547">
        <ele>219.967067</ele>
        <time>2026-05-22T07:34:43.000Z</time>
      </trkpt>
      <trkpt lat="43.19313" lon="-1.16547">
        <ele>220.069877</ele>
        <time>2026-05-22T07:34:44.000Z</time>
      </trkpt>
      <trkpt lat="43.19311" lon="-1.16548">
        <ele>220.174114</ele>
        <time>2026-05-22T07:34:45.000Z</time>
      </trkpt>
      <trkpt lat="43.19309" lon="-1.16549">
        <ele>220.279171</ele>
        <time>2026-05-22T07:34:46.000Z</time>
      </trkpt>
      <trkpt lat="43.19307" lon="-1.16549">
        <ele>220.382894</ele>
        <time>2026-05-22T07:34:47.000Z</time>
      </trkpt>
      <trkpt lat="43.19306" lon="-1.1655">
        <ele>220.478963</ele>
        <time>2026-05-22T07:34:48.000Z</time>
      </trkpt>
      <trkpt lat="43.19304" lon="-1.1655">
        <ele>220.584019</ele>
        <time>2026-05-22T07:34:49.000Z</time>
      </trkpt>
      <trkpt lat="43.19302" lon="-1.16551">
        <ele>220.689075</ele>
        <time>2026-05-22T07:34:50.000Z</time>
      </trkpt>
      <trkpt lat="43.193" lon="-1.16551">
        <ele>220.792379</ele>
        <time>2026-05-22T07:34:51.000Z</time>
      </trkpt>
      <trkpt lat="43.19299" lon="-1.16551">
        <ele>220.889624</ele>
        <time>2026-05-22T07:34:52.000Z</time>
      </trkpt>
      <trkpt lat="43.19297" lon="-1.16551">
        <ele>221.004107</ele>
        <time>2026-05-22T07:34:53.000Z</time>
      </trkpt>
      <trkpt lat="43.19295" lon="-1.16551">
        <ele>221.112874</ele>
        <time>2026-05-22T07:34:54.000Z</time>
      </trkpt>
      <trkpt lat="43.19293" lon="-1.16551">
        <ele>221.215924</ele>
        <time>2026-05-22T07:34:55.000Z</time>
      </trkpt>
      <trkpt lat="43.19291" lon="-1.16552">
        <ele>221.308301</ele>
        <time>2026-05-22T07:34:56.000Z</time>
      </trkpt>
      <trkpt lat="43.1929" lon="-1.16552">
        <ele>221.412024</ele>
        <time>2026-05-22T07:34:57.000Z</time>
      </trkpt>
      <trkpt lat="43.19288" lon="-1.16552">
        <ele>221.515748</ele>
        <time>2026-05-22T07:34:58.000Z</time>
      </trkpt>
      <trkpt lat="43.19286" lon="-1.16552">
        <ele>221.613083</ele>
        <time>2026-05-22T07:34:59.000Z</time>
      </trkpt>
      <trkpt lat="43.19284" lon="-1.16552">
        <ele>221.722487</ele>
        <time>2026-05-22T07:35:00.000Z</time>
      </trkpt>
      <trkpt lat="43.19282" lon="-1.16552">
        <ele>221.831493</ele>
        <time>2026-05-22T07:35:01.000Z</time>
      </trkpt>
      <trkpt lat="43.1928" lon="-1.16552">
        <ele>221.940259</ele>
        <time>2026-05-22T07:35:02.000Z</time>
      </trkpt>
      <trkpt lat="43.19279" lon="-1.16552">
        <ele>222.037505</ele>
        <time>2026-05-22T07:35:03.000Z</time>
      </trkpt>
      <trkpt lat="43.19277" lon="-1.16552">
        <ele>222.134751</ele>
        <time>2026-05-22T07:35:04.000Z</time>
      </trkpt>
      <trkpt lat="43.19275" lon="-1.16552">
        <ele>222.226371</ele>
        <time>2026-05-22T07:35:05.000Z</time>
      </trkpt>
      <trkpt lat="43.19274" lon="-1.16551">
        <ele>222.325828</ele>
        <time>2026-05-22T07:35:06.000Z</time>
      </trkpt>
      <trkpt lat="43.19272" lon="-1.16551">
        <ele>222.424494</ele>
        <time>2026-05-22T07:35:07.000Z</time>
      </trkpt>
      <trkpt lat="43.1927" lon="-1.1655">
        <ele>222.531518</ele>
        <time>2026-05-22T07:35:08.000Z</time>
      </trkpt>
      <trkpt lat="43.19269" lon="-1.16549">
        <ele>222.633897</ele>
        <time>2026-05-22T07:35:09.000Z</time>
      </trkpt>
      <trkpt lat="43.19267" lon="-1.16548">
        <ele>222.729966</ele>
        <time>2026-05-22T07:35:10.000Z</time>
      </trkpt>
      <trkpt lat="43.19265" lon="-1.16548">
        <ele>222.835022</ele>
        <time>2026-05-22T07:35:11.000Z</time>
      </trkpt>
      <trkpt lat="43.19263" lon="-1.16547">
        <ele>222.947561</ele>
        <time>2026-05-22T07:35:12.000Z</time>
      </trkpt>
      <trkpt lat="43.19262" lon="-1.16546">
        <ele>223.049094</ele>
        <time>2026-05-22T07:35:13.000Z</time>
      </trkpt>
      <trkpt lat="43.1926" lon="-1.16546">
        <ele>223.150627</ele>
        <time>2026-05-22T07:35:14.000Z</time>
      </trkpt>
      <trkpt lat="43.19258" lon="-1.16545">
        <ele>223.260221</ele>
        <time>2026-05-22T07:35:15.000Z</time>
      </trkpt>
      <trkpt lat="43.19256" lon="-1.16544">
        <ele>223.367744</ele>
        <time>2026-05-22T07:35:16.000Z</time>
      </trkpt>
      <trkpt lat="43.19255" lon="-1.16543">
        <ele>223.473556</ele>
        <time>2026-05-22T07:35:17.000Z</time>
      </trkpt>
      <trkpt lat="43.19253" lon="-1.16542">
        <ele>223.58315</ele>
        <time>2026-05-22T07:35:18.000Z</time>
      </trkpt>
      <trkpt lat="43.19251" lon="-1.16541">
        <ele>223.702804</ele>
        <time>2026-05-22T07:35:19.000Z</time>
      </trkpt>
      <trkpt lat="43.19249" lon="-1.1654">
        <ele>223.807042</ele>
        <time>2026-05-22T07:35:20.000Z</time>
      </trkpt>
      <trkpt lat="43.19248" lon="-1.16539">
        <ele>223.918134</ele>
        <time>2026-05-22T07:35:21.000Z</time>
      </trkpt>
      <trkpt lat="43.19246" lon="-1.16537">
        <ele>224.029472</ele>
        <time>2026-05-22T07:35:22.000Z</time>
      </trkpt>
      <trkpt lat="43.19244" lon="-1.16536">
        <ele>224.142899</ele>
        <time>2026-05-22T07:35:23.000Z</time>
      </trkpt>
      <trkpt lat="43.19243" lon="-1.16535">
        <ele>224.251462</ele>
        <time>2026-05-22T07:35:24.000Z</time>
      </trkpt>
      <trkpt lat="43.19241" lon="-1.16533">
        <ele>224.362323</ele>
        <time>2026-05-22T07:35:25.000Z</time>
      </trkpt>
      <trkpt lat="43.19239" lon="-1.16531">
        <ele>224.480261</ele>
        <time>2026-05-22T07:35:26.000Z</time>
      </trkpt>
      <trkpt lat="43.19238" lon="-1.1653">
        <ele>224.598199</ele>
        <time>2026-05-22T07:35:27.000Z</time>
      </trkpt>
      <trkpt lat="43.19236" lon="-1.16528">
        <ele>224.711466</ele>
        <time>2026-05-22T07:35:28.000Z</time>
      </trkpt>
      <trkpt lat="43.19234" lon="-1.16527">
        <ele>224.831946</ele>
        <time>2026-05-22T07:35:29.000Z</time>
      </trkpt>
      <trkpt lat="43.19232" lon="-1.16525">
        <ele>224.952426</ele>
        <time>2026-05-22T07:35:30.000Z</time>
      </trkpt>
      <trkpt lat="43.19231" lon="-1.16524">
        <ele>225.070794</ele>
        <time>2026-05-22T07:35:31.000Z</time>
      </trkpt>
      <trkpt lat="43.19229" lon="-1.16522">
        <ele>225.19417</ele>
        <time>2026-05-22T07:35:32.000Z</time>
      </trkpt>
      <trkpt lat="43.19227" lon="-1.16521">
        <ele>225.312538</ele>
        <time>2026-05-22T07:35:33.000Z</time>
      </trkpt>
      <trkpt lat="43.19225" lon="-1.1652">
        <ele>225.433997</ele>
        <time>2026-05-22T07:35:34.000Z</time>
      </trkpt>
      <trkpt lat="43.19223" lon="-1.16518">
        <ele>225.547424</ele>
        <time>2026-05-22T07:35:35.000Z</time>
      </trkpt>
      <trkpt lat="43.19221" lon="-1.16517">
        <ele>225.670121</ele>
        <time>2026-05-22T07:35:36.000Z</time>
      </trkpt>
      <trkpt lat="43.1922" lon="-1.16515">
        <ele>225.788494</ele>
        <time>2026-05-22T07:35:37.000Z</time>
      </trkpt>
      <trkpt lat="43.19218" lon="-1.16513">
        <ele>225.904268</ele>
        <time>2026-05-22T07:35:38.000Z</time>
      </trkpt>
      <trkpt lat="43.19217" lon="-1.16512">
        <ele>226.017535</ele>
        <time>2026-05-22T07:35:39.000Z</time>
      </trkpt>
      <trkpt lat="43.19215" lon="-1.1651">
        <ele>226.128397</ele>
        <time>2026-05-22T07:35:40.000Z</time>
      </trkpt>
      <trkpt lat="43.19213" lon="-1.16509">
        <ele>226.241824</ele>
        <time>2026-05-22T07:35:41.000Z</time>
      </trkpt>
      <trkpt lat="43.19211" lon="-1.16508">
        <ele>226.362231</ele>
        <time>2026-05-22T07:35:42.000Z</time>
      </trkpt>
      <trkpt lat="43.19209" lon="-1.16507">
        <ele>226.501781</ele>
        <time>2026-05-22T07:35:43.000Z</time>
      </trkpt>
      <trkpt lat="43.19206" lon="-1.16507">
        <ele>226.645759</ele>
        <time>2026-05-22T07:35:44.000Z</time>
      </trkpt>
      <trkpt lat="43.19204" lon="-1.16507">
        <ele>226.800208</ele>
        <time>2026-05-22T07:35:45.000Z</time>
      </trkpt>
      <trkpt lat="43.19201" lon="-1.16507">
        <ele>226.948995</ele>
        <time>2026-05-22T07:35:46.000Z</time>
      </trkpt>
      <trkpt lat="43.19199" lon="-1.16507">
        <ele>227.097724</ele>
        <time>2026-05-22T07:35:47.000Z</time>
      </trkpt>
      <trkpt lat="43.19196" lon="-1.16507">
        <ele>227.240733</ele>
        <time>2026-05-22T07:35:48.000Z</time>
      </trkpt>
      <trkpt lat="43.19193" lon="-1.16507">
        <ele>227.395688</ele>
        <time>2026-05-22T07:35:49.000Z</time>
      </trkpt>
      <trkpt lat="43.1919" lon="-1.16507">
        <ele>227.561787</ele>
        <time>2026-05-22T07:35:50.000Z</time>
      </trkpt>
      <trkpt lat="43.19188" lon="-1.16507">
        <ele>227.727729</ele>
        <time>2026-05-22T07:35:51.000Z</time>
      </trkpt>
      <trkpt lat="43.19185" lon="-1.16507">
        <ele>227.893619</ele>
        <time>2026-05-22T07:35:52.000Z</time>
      </trkpt>
      <trkpt lat="43.19181" lon="-1.16507">
        <ele>228.088111</ele>
        <time>2026-05-22T07:35:53.000Z</time>
      </trkpt>
      <trkpt lat="43.19178" lon="-1.16507">
        <ele>228.294085</ele>
        <time>2026-05-22T07:35:54.000Z</time>
      </trkpt>
      <trkpt lat="43.19174" lon="-1.16508">
        <ele>228.505902</ele>
        <time>2026-05-22T07:35:55.000Z</time>
      </trkpt>
      <trkpt lat="43.1917" lon="-1.16508">
        <ele>228.729034</ele>
        <time>2026-05-22T07:35:56.000Z</time>
      </trkpt>
      <trkpt lat="43.19166" lon="-1.16508">
        <ele>228.938524</ele>
        <time>2026-05-22T07:35:57.000Z</time>
      </trkpt>
      <trkpt lat="43.19161" lon="-1.16509">
        <ele>228.812042</ele>
        <time>2026-05-22T07:35:58.000Z</time>
      </trkpt>
      <trkpt lat="43.19157" lon="-1.16509">
        <ele>228.674785</ele>
        <time>2026-05-22T07:35:59.000Z</time>
      </trkpt>
      <trkpt lat="43.19152" lon="-1.1651">
        <ele>228.537528</ele>
        <time>2026-05-22T07:36:00.000Z</time>
      </trkpt>
      <trkpt lat="43.19147" lon="-1.1651">
        <ele>228.391651</ele>
        <time>2026-05-22T07:36:01.000Z</time>
      </trkpt>
      <trkpt lat="43.19142" lon="-1.1651">
        <ele>228.242863</ele>
        <time>2026-05-22T07:36:02.000Z</time>
      </trkpt>
      <trkpt lat="43.19137" lon="-1.16511">
        <ele>228.084765</ele>
        <time>2026-05-22T07:36:03.000Z</time>
      </trkpt>
      <trkpt lat="43.19131" lon="-1.16512">
        <ele>227.920422</ele>
        <time>2026-05-22T07:36:04.000Z</time>
      </trkpt>
      <trkpt lat="43.19125" lon="-1.16513">
        <ele>227.749124</ele>
        <time>2026-05-22T07:36:05.000Z</time>
      </trkpt>
      <trkpt lat="43.19119" lon="-1.16515">
        <ele>227.574278</ele>
        <time>2026-05-22T07:36:06.000Z</time>
      </trkpt>
      <trkpt lat="43.19114" lon="-1.16518">
        <ele>227.397071</ele>
        <time>2026-05-22T07:36:07.000Z</time>
      </trkpt>
      <trkpt lat="43.19107" lon="-1.16521">
        <ele>227.201649</ele>
        <time>2026-05-22T07:36:08.000Z</time>
      </trkpt>
      <trkpt lat="43.19101" lon="-1.16525">
        <ele>227.012556</ele>
        <time>2026-05-22T07:36:09.000Z</time>
      </trkpt>
      <trkpt lat="43.19096" lon="-1.1653">
        <ele>226.814744</ele>
        <time>2026-05-22T07:36:10.000Z</time>
      </trkpt>
      <trkpt lat="43.1909" lon="-1.16535">
        <ele>226.61033</ele>
        <time>2026-05-22T07:36:11.000Z</time>
      </trkpt>
      <trkpt lat="43.19084" lon="-1.1654">
        <ele>226.406006</ele>
        <time>2026-05-22T07:36:12.000Z</time>
      </trkpt>
      <trkpt lat="43.19078" lon="-1.16546">
        <ele>226.207612</ele>
        <time>2026-05-22T07:36:13.000Z</time>
      </trkpt>
      <trkpt lat="43.19073" lon="-1.16552">
        <ele>226.004093</ele>
        <time>2026-05-22T07:36:14.000Z</time>
      </trkpt>
      <trkpt lat="43.19067" lon="-1.16558">
        <ele>225.799258</ele>
        <time>2026-05-22T07:36:15.000Z</time>
      </trkpt>
      <trkpt lat="43.19062" lon="-1.16564">
        <ele>225.586223</ele>
        <time>2026-05-22T07:36:16.000Z</time>
      </trkpt>
      <trkpt lat="43.19056" lon="-1.1657">
        <ele>225.376456</ele>
        <time>2026-05-22T07:36:17.000Z</time>
      </trkpt>
      <trkpt lat="43.1905" lon="-1.16576">
        <ele>225.164708</ele>
        <time>2026-05-22T07:36:18.000Z</time>
      </trkpt>
      <trkpt lat="43.19044" lon="-1.16582">
        <ele>224.950373</ele>
        <time>2026-05-22T07:36:19.000Z</time>
      </trkpt>
      <trkpt lat="43.19039" lon="-1.16588">
        <ele>224.736038</ele>
        <time>2026-05-22T07:36:20.000Z</time>
      </trkpt>
      <trkpt lat="43.19033" lon="-1.16595">
        <ele>224.519397</ele>
        <time>2026-05-22T07:36:21.000Z</time>
      </trkpt>
      <trkpt lat="43.19027" lon="-1.16601">
        <ele>224.299149</ele>
        <time>2026-05-22T07:36:22.000Z</time>
      </trkpt>
      <trkpt lat="43.19021" lon="-1.16607">
        <ele>224.079897</ele>
        <time>2026-05-22T07:36:23.000Z</time>
      </trkpt>
      <trkpt lat="43.19015" lon="-1.16613">
        <ele>223.8586</ele>
        <time>2026-05-22T07:36:24.000Z</time>
      </trkpt>
      <trkpt lat="43.19008" lon="-1.1662">
        <ele>223.649278</ele>
        <time>2026-05-22T07:36:25.000Z</time>
      </trkpt>
      <trkpt lat="43.19002" lon="-1.16626">
        <ele>223.470259</ele>
        <time>2026-05-22T07:36:26.000Z</time>
      </trkpt>
      <trkpt lat="43.18996" lon="-1.16632">
        <ele>223.295101</ele>
        <time>2026-05-22T07:36:27.000Z</time>
      </trkpt>
      <trkpt lat="43.1899" lon="-1.16639">
        <ele>223.118708</ele>
        <time>2026-05-22T07:36:28.000Z</time>
      </trkpt>
      <trkpt lat="43.18984" lon="-1.16645">
        <ele>222.948022</ele>
        <time>2026-05-22T07:36:29.000Z</time>
      </trkpt>
      <trkpt lat="43.18979" lon="-1.16652">
        <ele>222.775927</ele>
        <time>2026-05-22T07:36:30.000Z</time>
      </trkpt>
      <trkpt lat="43.18973" lon="-1.16659">
        <ele>222.603377</ele>
        <time>2026-05-22T07:36:31.000Z</time>
      </trkpt>
      <trkpt lat="43.18967" lon="-1.16665">
        <ele>222.433038</ele>
        <time>2026-05-22T07:36:32.000Z</time>
      </trkpt>
      <trkpt lat="43.18962" lon="-1.16672">
        <ele>222.267286</ele>
        <time>2026-05-22T07:36:33.000Z</time>
      </trkpt>
      <trkpt lat="43.18956" lon="-1.16678">
        <ele>222.101253</ele>
        <time>2026-05-22T07:36:34.000Z</time>
      </trkpt>
      <trkpt lat="43.18951" lon="-1.16684">
        <ele>221.941633</ele>
        <time>2026-05-22T07:36:35.000Z</time>
      </trkpt>
      <trkpt lat="43.18946" lon="-1.1669">
        <ele>221.77808</ele>
        <time>2026-05-22T07:36:36.000Z</time>
      </trkpt>
      <trkpt lat="43.1894" lon="-1.16696">
        <ele>221.614899</ele>
        <time>2026-05-22T07:36:37.000Z</time>
      </trkpt>
      <trkpt lat="43.18935" lon="-1.16702">
        <ele>221.456666</ele>
        <time>2026-05-22T07:36:38.000Z</time>
      </trkpt>
      <trkpt lat="43.18929" lon="-1.16708">
        <ele>221.299463</ele>
        <time>2026-05-22T07:36:39.000Z</time>
      </trkpt>
      <trkpt lat="43.18924" lon="-1.16714">
        <ele>221.14092</ele>
        <time>2026-05-22T07:36:40.000Z</time>
      </trkpt>
      <trkpt lat="43.18919" lon="-1.1672">
        <ele>220.981643</ele>
        <time>2026-05-22T07:36:41.000Z</time>
      </trkpt>
      <trkpt lat="43.18913" lon="-1.16726">
        <ele>220.823099</ele>
        <time>2026-05-22T07:36:42.000Z</time>
      </trkpt>
      <trkpt lat="43.18908" lon="-1.16732">
        <ele>220.668086</ele>
        <time>2026-05-22T07:36:43.000Z</time>
      </trkpt>
      <trkpt lat="43.18903" lon="-1.16737">
        <ele>220.512705</ele>
        <time>2026-05-22T07:36:44.000Z</time>
      </trkpt>
      <trkpt lat="43.18898" lon="-1.16744">
        <ele>220.354846</ele>
        <time>2026-05-22T07:36:45.000Z</time>
      </trkpt>
      <trkpt lat="43.18893" lon="-1.16749">
        <ele>220.199151</ele>
        <time>2026-05-22T07:36:46.000Z</time>
      </trkpt>
      <trkpt lat="43.18888" lon="-1.16755">
        <ele>220.045228</ele>
        <time>2026-05-22T07:36:47.000Z</time>
      </trkpt>
      <trkpt lat="43.18882" lon="-1.16761">
        <ele>219.889847</ele>
        <time>2026-05-22T07:36:48.000Z</time>
      </trkpt>
      <trkpt lat="43.18877" lon="-1.16766">
        <ele>219.73567</ele>
        <time>2026-05-22T07:36:49.000Z</time>
      </trkpt>
      <trkpt lat="43.18872" lon="-1.16772">
        <ele>219.580289</ele>
        <time>2026-05-22T07:36:50.000Z</time>
      </trkpt>
      <trkpt lat="43.18866" lon="-1.16778">
        <ele>219.239909</ele>
        <time>2026-05-22T07:36:51.000Z</time>
      </trkpt>
      <trkpt lat="43.18861" lon="-1.16784">
        <ele>218.86497</ele>
        <time>2026-05-22T07:36:52.000Z</time>
      </trkpt>
      <trkpt lat="43.18855" lon="-1.1679">
        <ele>218.468811</ele>
        <time>2026-05-22T07:36:53.000Z</time>
      </trkpt>
      <trkpt lat="43.1885" lon="-1.16797">
        <ele>218.063405</ele>
        <time>2026-05-22T07:36:54.000Z</time>
      </trkpt>
      <trkpt lat="43.18844" lon="-1.16803">
        <ele>217.646912</ele>
        <time>2026-05-22T07:36:55.000Z</time>
      </trkpt>
      <trkpt lat="43.18837" lon="-1.1681">
        <ele>217.208153</ele>
        <time>2026-05-22T07:36:56.000Z</time>
      </trkpt>
      <trkpt lat="43.18831" lon="-1.16816">
        <ele>216.760587</ele>
        <time>2026-05-22T07:36:57.000Z</time>
      </trkpt>
      <trkpt lat="43.18823" lon="-1.16822">
        <ele>216.29475</ele>
        <time>2026-05-22T07:36:58.000Z</time>
      </trkpt>
      <trkpt lat="43.18816" lon="-1.16829">
        <ele>215.801848</ele>
        <time>2026-05-22T07:36:59.000Z</time>
      </trkpt>
      <trkpt lat="43.18808" lon="-1.16835">
        <ele>215.320337</ele>
        <time>2026-05-22T07:37:00.000Z</time>
      </trkpt>
      <trkpt lat="43.18801" lon="-1.16842">
        <ele>214.818142</ele>
        <time>2026-05-22T07:37:01.000Z</time>
      </trkpt>
      <trkpt lat="43.18793" lon="-1.16849">
        <ele>214.301885</ele>
        <time>2026-05-22T07:37:02.000Z</time>
      </trkpt>
      <trkpt lat="43.18785" lon="-1.16855">
        <ele>213.786166</ele>
        <time>2026-05-22T07:37:03.000Z</time>
      </trkpt>
      <trkpt lat="43.18776" lon="-1.16863">
        <ele>213.248034</ele>
        <time>2026-05-22T07:37:04.000Z</time>
      </trkpt>
      <trkpt lat="43.18768" lon="-1.1687">
        <ele>212.707756</ele>
        <time>2026-05-22T07:37:05.000Z</time>
      </trkpt>
      <trkpt lat="43.18759" lon="-1.16877">
        <ele>212.156089</ele>
        <time>2026-05-22T07:37:06.000Z</time>
      </trkpt>
      <trkpt lat="43.18751" lon="-1.16885">
        <ele>211.597655</ele>
        <time>2026-05-22T07:37:07.000Z</time>
      </trkpt>
      <trkpt lat="43.18742" lon="-1.16893">
        <ele>211.021058</ele>
        <time>2026-05-22T07:37:08.000Z</time>
      </trkpt>
      <trkpt lat="43.18733" lon="-1.169">
        <ele>210.442319</ele>
        <time>2026-05-22T07:37:09.000Z</time>
      </trkpt>
      <trkpt lat="43.18724" lon="-1.16908">
        <ele>209.845421</ele>
        <time>2026-05-22T07:37:10.000Z</time>
      </trkpt>
      <trkpt lat="43.18714" lon="-1.16916">
        <ele>209.161212</ele>
        <time>2026-05-22T07:37:11.000Z</time>
      </trkpt>
      <trkpt lat="43.18705" lon="-1.16925">
        <ele>208.454684</ele>
        <time>2026-05-22T07:37:12.000Z</time>
      </trkpt>
      <trkpt lat="43.18695" lon="-1.16933">
        <ele>207.735581</ele>
        <time>2026-05-22T07:37:13.000Z</time>
      </trkpt>
      <trkpt lat="43.18685" lon="-1.16942">
        <ele>207.016753</ele>
        <time>2026-05-22T07:37:14.000Z</time>
      </trkpt>
      <trkpt lat="43.18676" lon="-1.16951">
        <ele>206.287467</ele>
        <time>2026-05-22T07:37:15.000Z</time>
      </trkpt>
      <trkpt lat="43.18666" lon="-1.16959">
        <ele>205.550462</ele>
        <time>2026-05-22T07:37:16.000Z</time>
      </trkpt>
      <trkpt lat="43.18656" lon="-1.16968">
        <ele>204.813086</ele>
        <time>2026-05-22T07:37:17.000Z</time>
      </trkpt>
      <trkpt lat="43.18646" lon="-1.16976">
        <ele>204.088709</ele>
        <time>2026-05-22T07:37:18.000Z</time>
      </trkpt>
      <trkpt lat="43.18636" lon="-1.16985">
        <ele>203.353742</ele>
        <time>2026-05-22T07:37:19.000Z</time>
      </trkpt>
      <trkpt lat="43.18626" lon="-1.16993">
        <ele>202.631789</ele>
        <time>2026-05-22T07:37:20.000Z</time>
      </trkpt>
      <trkpt lat="43.18616" lon="-1.17002">
        <ele>201.917547</ele>
        <time>2026-05-22T07:37:21.000Z</time>
      </trkpt>
      <trkpt lat="43.18607" lon="-1.1701">
        <ele>201.206158</ele>
        <time>2026-05-22T07:37:22.000Z</time>
      </trkpt>
      <trkpt lat="43.18597" lon="-1.17018">
        <ele>200.494768</ele>
        <time>2026-05-22T07:37:23.000Z</time>
      </trkpt>
      <trkpt lat="43.18588" lon="-1.17027">
        <ele>199.791095</ele>
        <time>2026-05-22T07:37:24.000Z</time>
      </trkpt>
      <trkpt lat="43.18578" lon="-1.17035">
        <ele>199.095137</ele>
        <time>2026-05-22T07:37:25.000Z</time>
      </trkpt>
      <trkpt lat="43.18569" lon="-1.17043">
        <ele>198.447773</ele>
        <time>2026-05-22T07:37:26.000Z</time>
      </trkpt>
      <trkpt lat="43.1856" lon="-1.17051">
        <ele>198.254865</ele>
        <time>2026-05-22T07:37:27.000Z</time>
      </trkpt>
      <trkpt lat="43.1855" lon="-1.17059">
        <ele>198.061958</ele>
        <time>2026-05-22T07:37:28.000Z</time>
      </trkpt>
      <trkpt lat="43.18541" lon="-1.17067">
        <ele>197.868366</ele>
        <time>2026-05-22T07:37:29.000Z</time>
      </trkpt>
      <trkpt lat="43.18532" lon="-1.17075">
        <ele>197.676945</ele>
        <time>2026-05-22T07:37:30.000Z</time>
      </trkpt>
      <trkpt lat="43.18523" lon="-1.17083">
        <ele>197.490653</ele>
        <time>2026-05-22T07:37:31.000Z</time>
      </trkpt>
      <trkpt lat="43.18514" lon="-1.17091">
        <ele>197.310178</ele>
        <time>2026-05-22T07:37:32.000Z</time>
      </trkpt>
      <trkpt lat="43.18506" lon="-1.17098">
        <ele>197.131091</ele>
        <time>2026-05-22T07:37:33.000Z</time>
      </trkpt>
      <trkpt lat="43.18497" lon="-1.17106">
        <ele>196.959997</ele>
        <time>2026-05-22T07:37:34.000Z</time>
      </trkpt>
      <trkpt lat="43.1849" lon="-1.17113">
        <ele>196.794723</ele>
        <time>2026-05-22T07:37:35.000Z</time>
      </trkpt>
      <trkpt lat="43.18482" lon="-1.17119">
        <ele>196.632311</ele>
        <time>2026-05-22T07:37:36.000Z</time>
      </trkpt>
      <trkpt lat="43.18474" lon="-1.17126">
        <ele>196.47138</ele>
        <time>2026-05-22T07:37:37.000Z</time>
      </trkpt>
      <trkpt lat="43.18467" lon="-1.17133">
        <ele>196.313391</ele>
        <time>2026-05-22T07:37:38.000Z</time>
      </trkpt>
      <trkpt lat="43.18459" lon="-1.1714">
        <ele>196.156866</ele>
        <time>2026-05-22T07:37:39.000Z</time>
      </trkpt>
      <trkpt lat="43.18452" lon="-1.17147">
        <ele>196.002458</ele>
        <time>2026-05-22T07:37:40.000Z</time>
      </trkpt>
      <trkpt lat="43.18445" lon="-1.17154">
        <ele>195.851721</ele>
        <time>2026-05-22T07:37:41.000Z</time>
      </trkpt>
      <trkpt lat="43.18438" lon="-1.1716">
        <ele>195.700999</ele>
        <time>2026-05-22T07:37:42.000Z</time>
      </trkpt>
      <trkpt lat="43.18431" lon="-1.17167">
        <ele>195.552357</ele>
        <time>2026-05-22T07:37:43.000Z</time>
      </trkpt>
      <trkpt lat="43.18425" lon="-1.17174">
        <ele>195.405745</ele>
        <time>2026-05-22T07:37:44.000Z</time>
      </trkpt>
      <trkpt lat="43.18418" lon="-1.17181">
        <ele>195.315351</ele>
        <time>2026-05-22T07:37:45.000Z</time>
      </trkpt>
      <trkpt lat="43.18412" lon="-1.17189">
        <ele>195.343836</ele>
        <time>2026-05-22T07:37:46.000Z</time>
      </trkpt>
      <trkpt lat="43.18406" lon="-1.17196">
        <ele>195.371968</ele>
        <time>2026-05-22T07:37:47.000Z</time>
      </trkpt>
      <trkpt lat="43.18401" lon="-1.17204">
        <ele>195.399508</ele>
        <time>2026-05-22T07:37:48.000Z</time>
      </trkpt>
      <trkpt lat="43.18395" lon="-1.17212">
        <ele>195.426771</ele>
        <time>2026-05-22T07:37:49.000Z</time>
      </trkpt>
      <trkpt lat="43.18391" lon="-1.1722">
        <ele>195.45355</ele>
        <time>2026-05-22T07:37:50.000Z</time>
      </trkpt>
      <trkpt lat="43.18386" lon="-1.17228">
        <ele>195.479675</ele>
        <time>2026-05-22T07:37:51.000Z</time>
      </trkpt>
      <trkpt lat="43.18382" lon="-1.17236">
        <ele>195.505589</ele>
        <time>2026-05-22T07:37:52.000Z</time>
      </trkpt>
      <trkpt lat="43.18378" lon="-1.17244">
        <ele>195.53095</ele>
        <time>2026-05-22T07:37:53.000Z</time>
      </trkpt>
      <trkpt lat="43.18375" lon="-1.17253">
        <ele>195.555823</ele>
        <time>2026-05-22T07:37:54.000Z</time>
      </trkpt>
      <trkpt lat="43.18371" lon="-1.17261">
        <ele>195.580594</ele>
        <time>2026-05-22T07:37:55.000Z</time>
      </trkpt>
      <trkpt lat="43.18368" lon="-1.1727">
        <ele>195.604822</ele>
        <time>2026-05-22T07:37:56.000Z</time>
      </trkpt>
      <trkpt lat="43.18366" lon="-1.17279">
        <ele>195.62908</ele>
        <time>2026-05-22T07:37:57.000Z</time>
      </trkpt>
      <trkpt lat="43.18363" lon="-1.17288">
        <ele>195.653549</ele>
        <time>2026-05-22T07:37:58.000Z</time>
      </trkpt>
      <trkpt lat="43.18361" lon="-1.17296">
        <ele>195.677174</ele>
        <time>2026-05-22T07:37:59.000Z</time>
      </trkpt>
      <trkpt lat="43.18359" lon="-1.17305">
        <ele>195.70072</ele>
        <time>2026-05-22T07:38:00.000Z</time>
      </trkpt>
      <trkpt lat="43.18357" lon="-1.17314">
        <ele>195.723829</ele>
        <time>2026-05-22T07:38:01.000Z</time>
      </trkpt>
      <trkpt lat="43.18356" lon="-1.17322">
        <ele>195.746784</ele>
        <time>2026-05-22T07:38:02.000Z</time>
      </trkpt>
      <trkpt lat="43.18354" lon="-1.17331">
        <ele>195.769058</ele>
        <time>2026-05-22T07:38:03.000Z</time>
      </trkpt>
      <trkpt lat="43.18352" lon="-1.17339">
        <ele>195.791084</ele>
        <time>2026-05-22T07:38:04.000Z</time>
      </trkpt>
      <trkpt lat="43.18351" lon="-1.17347">
        <ele>195.812773</ele>
        <time>2026-05-22T07:38:05.000Z</time>
      </trkpt>
      <trkpt lat="43.1835" lon="-1.17356">
        <ele>195.83463</ele>
        <time>2026-05-22T07:38:06.000Z</time>
      </trkpt>
      <trkpt lat="43.18348" lon="-1.17364">
        <ele>195.856408</ele>
        <time>2026-05-22T07:38:07.000Z</time>
      </trkpt>
      <trkpt lat="43.18346" lon="-1.17372">
        <ele>195.878186</ele>
        <time>2026-05-22T07:38:08.000Z</time>
      </trkpt>
      <trkpt lat="43.18345" lon="-1.1738">
        <ele>195.900058</ele>
        <time>2026-05-22T07:38:09.000Z</time>
      </trkpt>
      <trkpt lat="43.18343" lon="-1.17388">
        <ele>195.922084</ele>
        <time>2026-05-22T07:38:10.000Z</time>
      </trkpt>
      <trkpt lat="43.18342" lon="-1.17397">
        <ele>195.953701</ele>
        <time>2026-05-22T07:38:11.000Z</time>
      </trkpt>
      <trkpt lat="43.1834" lon="-1.17405">
        <ele>196.014816</ele>
        <time>2026-05-22T07:38:12.000Z</time>
      </trkpt>
      <trkpt lat="43.18339" lon="-1.17413">
        <ele>196.075231</ele>
        <time>2026-05-22T07:38:13.000Z</time>
      </trkpt>
      <trkpt lat="43.18337" lon="-1.17422">
        <ele>196.136575</ele>
        <time>2026-05-22T07:38:14.000Z</time>
      </trkpt>
      <trkpt lat="43.18336" lon="-1.1743">
        <ele>196.197732</ele>
        <time>2026-05-22T07:38:15.000Z</time>
      </trkpt>
      <trkpt lat="43.18334" lon="-1.17438">
        <ele>196.257241</ele>
        <time>2026-05-22T07:38:16.000Z</time>
      </trkpt>
      <trkpt lat="43.18332" lon="-1.17446">
        <ele>196.317708</ele>
        <time>2026-05-22T07:38:17.000Z</time>
      </trkpt>
      <trkpt lat="43.18331" lon="-1.17454">
        <ele>196.378603</ele>
        <time>2026-05-22T07:38:18.000Z</time>
      </trkpt>
      <trkpt lat="43.18329" lon="-1.17462">
        <ele>196.440449</ele>
        <time>2026-05-22T07:38:19.000Z</time>
      </trkpt>
      <trkpt lat="43.18327" lon="-1.17471">
        <ele>196.501606</ele>
        <time>2026-05-22T07:38:20.000Z</time>
      </trkpt>
      <trkpt lat="43.18326" lon="-1.17479">
        <ele>196.560863</ele>
        <time>2026-05-22T07:38:21.000Z</time>
      </trkpt>
      <trkpt lat="43.18325" lon="-1.17487">
        <ele>196.619455</ele>
        <time>2026-05-22T07:38:22.000Z</time>
      </trkpt>
      <trkpt lat="43.18323" lon="-1.17495">
        <ele>196.678475</ele>
        <time>2026-05-22T07:38:23.000Z</time>
      </trkpt>
      <trkpt lat="43.18322" lon="-1.17503">
        <ele>196.737037</ele>
        <time>2026-05-22T07:38:24.000Z</time>
      </trkpt>
      <trkpt lat="43.1832" lon="-1.17511">
        <ele>196.796057</ele>
        <time>2026-05-22T07:38:25.000Z</time>
      </trkpt>
      <trkpt lat="43.18319" lon="-1.17518">
        <ele>196.853683</ele>
        <time>2026-05-22T07:38:26.000Z</time>
      </trkpt>
      <trkpt lat="43.18317" lon="-1.17526">
        <ele>196.910166</ele>
        <time>2026-05-22T07:38:27.000Z</time>
      </trkpt>
      <trkpt lat="43.18316" lon="-1.17533">
        <ele>196.964315</ele>
        <time>2026-05-22T07:38:28.000Z</time>
      </trkpt>
      <trkpt lat="43.18315" lon="-1.1754">
        <ele>197.017079</ele>
        <time>2026-05-22T07:38:29.000Z</time>
      </trkpt>
      <trkpt lat="43.18313" lon="-1.17547">
        <ele>197.068898</ele>
        <time>2026-05-22T07:38:30.000Z</time>
      </trkpt>
      <trkpt lat="43.18312" lon="-1.17554">
        <ele>197.120718</ele>
        <time>2026-05-22T07:38:31.000Z</time>
      </trkpt>
      <trkpt lat="43.18311" lon="-1.17561">
        <ele>197.170482</ele>
        <time>2026-05-22T07:38:32.000Z</time>
      </trkpt>
      <trkpt lat="43.1831" lon="-1.17568">
        <ele>197.219279</ele>
        <time>2026-05-22T07:38:33.000Z</time>
      </trkpt>
      <trkpt lat="43.18309" lon="-1.17574">
        <ele>197.266685</ele>
        <time>2026-05-22T07:38:34.000Z</time>
      </trkpt>
      <trkpt lat="43.18307" lon="-1.17581">
        <ele>197.314554</ele>
        <time>2026-05-22T07:38:35.000Z</time>
      </trkpt>
      <trkpt lat="43.18307" lon="-1.17587">
        <ele>197.362551</ele>
        <time>2026-05-22T07:38:36.000Z</time>
      </trkpt>
      <trkpt lat="43.18306" lon="-1.17594">
        <ele>197.409023</ele>
        <time>2026-05-22T07:38:37.000Z</time>
      </trkpt>
      <trkpt lat="43.18304" lon="-1.17599">
        <ele>197.453239</ele>
        <time>2026-05-22T07:38:38.000Z</time>
      </trkpt>
      <trkpt lat="43.18303" lon="-1.17605">
        <ele>197.497386</ele>
        <time>2026-05-22T07:38:39.000Z</time>
      </trkpt>
      <trkpt lat="43.18301" lon="-1.17611">
        <ele>197.54223</ele>
        <time>2026-05-22T07:38:40.000Z</time>
      </trkpt>
      <trkpt lat="43.18299" lon="-1.17617">
        <ele>197.587191</ele>
        <time>2026-05-22T07:38:41.000Z</time>
      </trkpt>
      <trkpt lat="43.18297" lon="-1.17623">
        <ele>197.63346</ele>
        <time>2026-05-22T07:38:42.000Z</time>
      </trkpt>
      <trkpt lat="43.18295" lon="-1.17628">
        <ele>197.679915</ele>
        <time>2026-05-22T07:38:43.000Z</time>
      </trkpt>
      <trkpt lat="43.18293" lon="-1.17634">
        <ele>197.694516</ele>
        <time>2026-05-22T07:38:44.000Z</time>
      </trkpt>
      <trkpt lat="43.1829" lon="-1.1764">
        <ele>197.655806</ele>
        <time>2026-05-22T07:38:45.000Z</time>
      </trkpt>
      <trkpt lat="43.18287" lon="-1.17646">
        <ele>197.617143</ele>
        <time>2026-05-22T07:38:46.000Z</time>
      </trkpt>
      <trkpt lat="43.18284" lon="-1.17651">
        <ele>197.579416</ele>
        <time>2026-05-22T07:38:47.000Z</time>
      </trkpt>
      <trkpt lat="43.18281" lon="-1.17656">
        <ele>197.541566</ele>
        <time>2026-05-22T07:38:48.000Z</time>
      </trkpt>
      <trkpt lat="43.18278" lon="-1.17661">
        <ele>197.502575</ele>
        <time>2026-05-22T07:38:49.000Z</time>
      </trkpt>
      <trkpt lat="43.18274" lon="-1.17666">
        <ele>197.461556</ele>
        <time>2026-05-22T07:38:50.000Z</time>
      </trkpt>
      <trkpt lat="43.1827" lon="-1.17671">
        <ele>197.420684</ele>
        <time>2026-05-22T07:38:51.000Z</time>
      </trkpt>
      <trkpt lat="43.18266" lon="-1.17677">
        <ele>197.378325</ele>
        <time>2026-05-22T07:38:52.000Z</time>
      </trkpt>
      <trkpt lat="43.18262" lon="-1.17682">
        <ele>197.335241</ele>
        <time>2026-05-22T07:38:53.000Z</time>
      </trkpt>
      <trkpt lat="43.18258" lon="-1.17687">
        <ele>197.291963</ele>
        <time>2026-05-22T07:38:54.000Z</time>
      </trkpt>
      <trkpt lat="43.18254" lon="-1.17692">
        <ele>197.248235</ele>
        <time>2026-05-22T07:38:55.000Z</time>
      </trkpt>
      <trkpt lat="43.18249" lon="-1.17697">
        <ele>197.20415</ele>
        <time>2026-05-22T07:38:56.000Z</time>
      </trkpt>
      <trkpt lat="43.18245" lon="-1.17702">
        <ele>197.160422</ele>
        <time>2026-05-22T07:38:57.000Z</time>
      </trkpt>
      <trkpt lat="43.1824" lon="-1.17707">
        <ele>197.114531</ele>
        <time>2026-05-22T07:38:58.000Z</time>
      </trkpt>
      <trkpt lat="43.18235" lon="-1.17712">
        <ele>197.067943</ele>
        <time>2026-05-22T07:38:59.000Z</time>
      </trkpt>
      <trkpt lat="43.1823" lon="-1.17717">
        <ele>197.019797</ele>
        <time>2026-05-22T07:39:00.000Z</time>
      </trkpt>
      <trkpt lat="43.18226" lon="-1.17722">
        <ele>196.973011</ele>
        <time>2026-05-22T07:39:01.000Z</time>
      </trkpt>
      <trkpt lat="43.1822" lon="-1.17727">
        <ele>196.924645</ele>
        <time>2026-05-22T07:39:02.000Z</time>
      </trkpt>
      <trkpt lat="43.18215" lon="-1.17732">
        <ele>196.875891</ele>
        <time>2026-05-22T07:39:03.000Z</time>
      </trkpt>
      <trkpt lat="43.1821" lon="-1.17738">
        <ele>196.826241</ele>
        <time>2026-05-22T07:39:04.000Z</time>
      </trkpt>
      <trkpt lat="43.18205" lon="-1.17743">
        <ele>196.775965</ele>
        <time>2026-05-22T07:39:05.000Z</time>
      </trkpt>
      <trkpt lat="43.18199" lon="-1.17748">
        <ele>196.724105</ele>
        <time>2026-05-22T07:39:06.000Z</time>
      </trkpt>
      <trkpt lat="43.18194" lon="-1.17753">
        <ele>196.671612</ele>
        <time>2026-05-22T07:39:07.000Z</time>
      </trkpt>
      <trkpt lat="43.18188" lon="-1.17758">
        <ele>196.620059</ele>
        <time>2026-05-22T07:39:08.000Z</time>
      </trkpt>
      <trkpt lat="43.18182" lon="-1.17764">
        <ele>196.565952</ele>
        <time>2026-05-22T07:39:09.000Z</time>
      </trkpt>
      <trkpt lat="43.18177" lon="-1.17769">
        <ele>196.512492</ele>
        <time>2026-05-22T07:39:10.000Z</time>
      </trkpt>
      <trkpt lat="43.18171" lon="-1.17774">
        <ele>196.458616</ele>
        <time>2026-05-22T07:39:11.000Z</time>
      </trkpt>
      <trkpt lat="43.18165" lon="-1.17779">
        <ele>196.403858</ele>
        <time>2026-05-22T07:39:12.000Z</time>
      </trkpt>
      <trkpt lat="43.18159" lon="-1.17784">
        <ele>196.349445</ele>
        <time>2026-05-22T07:39:13.000Z</time>
      </trkpt>
      <trkpt lat="43.18153" lon="-1.17789">
        <ele>196.393887</ele>
        <time>2026-05-22T07:39:14.000Z</time>
      </trkpt>
      <trkpt lat="43.18147" lon="-1.17794">
        <ele>196.550654</ele>
        <time>2026-05-22T07:39:15.000Z</time>
      </trkpt>
      <trkpt lat="43.1814" lon="-1.17799">
        <ele>196.709338</ele>
        <time>2026-05-22T07:39:16.000Z</time>
      </trkpt>
      <trkpt lat="43.18134" lon="-1.17804">
        <ele>196.867221</ele>
        <time>2026-05-22T07:39:17.000Z</time>
      </trkpt>
      <trkpt lat="43.18128" lon="-1.17809">
        <ele>197.025104</ele>
        <time>2026-05-22T07:39:18.000Z</time>
      </trkpt>
      <trkpt lat="43.18122" lon="-1.17813">
        <ele>197.18106</ele>
        <time>2026-05-22T07:39:19.000Z</time>
      </trkpt>
      <trkpt lat="43.18116" lon="-1.17818">
        <ele>197.338155</ele>
        <time>2026-05-22T07:39:20.000Z</time>
      </trkpt>
      <trkpt lat="43.1811" lon="-1.17823">
        <ele>197.492192</ele>
        <time>2026-05-22T07:39:21.000Z</time>
      </trkpt>
      <trkpt lat="43.18104" lon="-1.17827">
        <ele>197.642693</ele>
        <time>2026-05-22T07:39:22.000Z</time>
      </trkpt>
      <trkpt lat="43.18098" lon="-1.17832">
        <ele>197.791622</ele>
        <time>2026-05-22T07:39:23.000Z</time>
      </trkpt>
      <trkpt lat="43.18092" lon="-1.17836">
        <ele>197.936377</ele>
        <time>2026-05-22T07:39:24.000Z</time>
      </trkpt>
      <trkpt lat="43.18087" lon="-1.17841">
        <ele>198.076338</ele>
        <time>2026-05-22T07:39:25.000Z</time>
      </trkpt>
      <trkpt lat="43.18082" lon="-1.17845">
        <ele>198.214004</ele>
        <time>2026-05-22T07:39:26.000Z</time>
      </trkpt>
      <trkpt lat="43.18076" lon="-1.17849">
        <ele>198.352058</ele>
        <time>2026-05-22T07:39:27.000Z</time>
      </trkpt>
      <trkpt lat="43.18071" lon="-1.17853">
        <ele>198.486998</ele>
        <time>2026-05-22T07:39:28.000Z</time>
      </trkpt>
      <trkpt lat="43.18065" lon="-1.17858">
        <ele>198.623555</ele>
        <time>2026-05-22T07:39:29.000Z</time>
      </trkpt>
      <trkpt lat="43.18061" lon="-1.17862">
        <ele>198.750843</ele>
        <time>2026-05-22T07:39:30.000Z</time>
      </trkpt>
      <trkpt lat="43.18056" lon="-1.17866">
        <ele>198.876244</ele>
        <time>2026-05-22T07:39:31.000Z</time>
      </trkpt>
      <trkpt lat="43.18051" lon="-1.1787">
        <ele>198.998791</ele>
        <time>2026-05-22T07:39:32.000Z</time>
      </trkpt>
      <trkpt lat="43.18047" lon="-1.17874">
        <ele>199.117876</ele>
        <time>2026-05-22T07:39:33.000Z</time>
      </trkpt>
      <trkpt lat="43.18042" lon="-1.17877">
        <ele>199.230674</ele>
        <time>2026-05-22T07:39:34.000Z</time>
      </trkpt>
      <trkpt lat="43.18038" lon="-1.17881">
        <ele>199.341884</ele>
        <time>2026-05-22T07:39:35.000Z</time>
      </trkpt>
      <trkpt lat="43.18034" lon="-1.17884">
        <ele>199.446243</ele>
        <time>2026-05-22T07:39:36.000Z</time>
      </trkpt>
      <trkpt lat="43.1803" lon="-1.17888">
        <ele>199.545918</ele>
        <time>2026-05-22T07:39:37.000Z</time>
      </trkpt>
      <trkpt lat="43.18027" lon="-1.17891">
        <ele>199.638288</ele>
        <time>2026-05-22T07:39:38.000Z</time>
      </trkpt>
      <trkpt lat="43.18023" lon="-1.17894">
        <ele>199.728827</ele>
        <time>2026-05-22T07:39:39.000Z</time>
      </trkpt>
      <trkpt lat="43.1802" lon="-1.17897">
        <ele>199.817617</ele>
        <time>2026-05-22T07:39:40.000Z</time>
      </trkpt>
      <trkpt lat="43.18016" lon="-1.179">
        <ele>199.906407</ele>
        <time>2026-05-22T07:39:41.000Z</time>
      </trkpt>
      <trkpt lat="43.18013" lon="-1.17903">
        <ele>199.997935</ele>
        <time>2026-05-22T07:39:42.000Z</time>
      </trkpt>
      <trkpt lat="43.1801" lon="-1.17906">
        <ele>200.086636</ele>
        <time>2026-05-22T07:39:43.000Z</time>
      </trkpt>
      <trkpt lat="43.18006" lon="-1.17909">
        <ele>200.173551</ele>
        <time>2026-05-22T07:39:44.000Z</time>
      </trkpt>
      <trkpt lat="43.18003" lon="-1.17912">
        <ele>200.258765</ele>
        <time>2026-05-22T07:39:45.000Z</time>
      </trkpt>
      <trkpt lat="43.18" lon="-1.17914">
        <ele>200.343397</ele>
        <time>2026-05-22T07:39:46.000Z</time>
      </trkpt>
      <trkpt lat="43.17997" lon="-1.17916">
        <ele>200.441814</ele>
        <time>2026-05-22T07:39:47.000Z</time>
      </trkpt>
      <trkpt lat="43.17995" lon="-1.17918">
        <ele>200.536448</ele>
        <time>2026-05-22T07:39:48.000Z</time>
      </trkpt>
      <trkpt lat="43.17992" lon="-1.1792">
        <ele>200.626857</ele>
        <time>2026-05-22T07:39:49.000Z</time>
      </trkpt>
      <trkpt lat="43.17989" lon="-1.17922">
        <ele>200.723709</ele>
        <time>2026-05-22T07:39:50.000Z</time>
      </trkpt>
      <trkpt lat="43.17987" lon="-1.17925">
        <ele>200.819123</ele>
        <time>2026-05-22T07:39:51.000Z</time>
      </trkpt>
      <trkpt lat="43.17984" lon="-1.17927">
        <ele>200.917143</ele>
        <time>2026-05-22T07:39:52.000Z</time>
      </trkpt>
      <trkpt lat="43.17981" lon="-1.17929">
        <ele>201.017246</ele>
        <time>2026-05-22T07:39:53.000Z</time>
      </trkpt>
      <trkpt lat="43.17979" lon="-1.17931">
        <ele>201.110832</ele>
        <time>2026-05-22T07:39:54.000Z</time>
      </trkpt>
      <trkpt lat="43.17976" lon="-1.17933">
        <ele>201.200088</ele>
        <time>2026-05-22T07:39:55.000Z</time>
      </trkpt>
      <trkpt lat="43.17974" lon="-1.17935">
        <ele>201.289343</ele>
        <time>2026-05-22T07:39:56.000Z</time>
      </trkpt>
      <trkpt lat="43.17971" lon="-1.17937">
        <ele>201.377137</ele>
        <time>2026-05-22T07:39:57.000Z</time>
      </trkpt>
      <trkpt lat="43.17969" lon="-1.17939">
        <ele>201.467991</ele>
        <time>2026-05-22T07:39:58.000Z</time>
      </trkpt>
      <trkpt lat="43.17966" lon="-1.17941">
        <ele>201.554596</ele>
        <time>2026-05-22T07:39:59.000Z</time>
      </trkpt>
      <trkpt lat="43.17964" lon="-1.17943">
        <ele>201.64274</ele>
        <time>2026-05-22T07:40:00.000Z</time>
      </trkpt>
      <trkpt lat="43.17961" lon="-1.17945">
        <ele>201.730534</ele>
        <time>2026-05-22T07:40:01.000Z</time>
      </trkpt>
      <trkpt lat="43.17959" lon="-1.17947">
        <ele>201.815745</ele>
        <time>2026-05-22T07:40:02.000Z</time>
      </trkpt>
      <trkpt lat="43.17957" lon="-1.17949">
        <ele>201.902351</ele>
        <time>2026-05-22T07:40:03.000Z</time>
      </trkpt>
      <trkpt lat="43.17954" lon="-1.17951">
        <ele>201.985013</ele>
        <time>2026-05-22T07:40:04.000Z</time>
      </trkpt>
      <trkpt lat="43.17952" lon="-1.17953">
        <ele>202.072807</ele>
        <time>2026-05-22T07:40:05.000Z</time>
      </trkpt>
      <trkpt lat="43.17949" lon="-1.17955">
        <ele>202.167441</ele>
        <time>2026-05-22T07:40:06.000Z</time>
      </trkpt>
      <trkpt lat="43.17947" lon="-1.17957">
        <ele>202.259045</ele>
        <time>2026-05-22T07:40:07.000Z</time>
      </trkpt>
      <trkpt lat="43.17944" lon="-1.17959">
        <ele>202.34684</ele>
        <time>2026-05-22T07:40:08.000Z</time>
      </trkpt>
      <trkpt lat="43.17942" lon="-1.17962">
        <ele>202.437249</ele>
        <time>2026-05-22T07:40:09.000Z</time>
      </trkpt>
      <trkpt lat="43.17939" lon="-1.17963">
        <ele>202.525393</ele>
        <time>2026-05-22T07:40:10.000Z</time>
      </trkpt>
      <trkpt lat="43.17937" lon="-1.17965">
        <ele>202.613537</ele>
        <time>2026-05-22T07:40:11.000Z</time>
      </trkpt>
      <trkpt lat="43.17934" lon="-1.17967">
        <ele>202.705157</ele>
        <time>2026-05-22T07:40:12.000Z</time>
      </trkpt>
      <trkpt lat="43.17932" lon="-1.17969">
        <ele>202.793984</ele>
        <time>2026-05-22T07:40:13.000Z</time>
      </trkpt>
      <trkpt lat="43.17929" lon="-1.17971">
        <ele>202.884838</ele>
        <time>2026-05-22T07:40:14.000Z</time>
      </trkpt>
      <trkpt lat="43.17926" lon="-1.17973">
        <ele>202.979052</ele>
        <time>2026-05-22T07:40:15.000Z</time>
      </trkpt>
      <trkpt lat="43.17924" lon="-1.17975">
        <ele>203.065658</ele>
        <time>2026-05-22T07:40:16.000Z</time>
      </trkpt>
      <trkpt lat="43.17921" lon="-1.17977">
        <ele>203.158711</ele>
        <time>2026-05-22T07:40:17.000Z</time>
      </trkpt>
      <trkpt lat="43.17919" lon="-1.17979">
        <ele>203.242697</ele>
        <time>2026-05-22T07:40:18.000Z</time>
      </trkpt>
      <trkpt lat="43.17916" lon="-1.17981">
        <ele>203.337331</ele>
        <time>2026-05-22T07:40:19.000Z</time>
      </trkpt>
      <trkpt lat="43.17914" lon="-1.17983">
        <ele>203.430917</ele>
        <time>2026-05-22T07:40:20.000Z</time>
      </trkpt>
      <trkpt lat="43.17911" lon="-1.17985">
        <ele>203.52177</ele>
        <time>2026-05-22T07:40:21.000Z</time>
      </trkpt>
      <trkpt lat="43.17908" lon="-1.17987">
        <ele>203.614824</ele>
        <time>2026-05-22T07:40:22.000Z</time>
      </trkpt>
      <trkpt lat="43.17906" lon="-1.17989">
        <ele>203.711476</ele>
        <time>2026-05-22T07:40:23.000Z</time>
      </trkpt>
      <trkpt lat="43.17903" lon="-1.17991">
        <ele>203.815346</ele>
        <time>2026-05-22T07:40:24.000Z</time>
      </trkpt>
      <trkpt lat="43.179" lon="-1.17993">
        <ele>203.920059</ele>
        <time>2026-05-22T07:40:25.000Z</time>
      </trkpt>
      <trkpt lat="43.17897" lon="-1.17996">
        <ele>204.020712</ele>
        <time>2026-05-22T07:40:26.000Z</time>
      </trkpt>
      <trkpt lat="43.17894" lon="-1.17998">
        <ele>204.117471</ele>
        <time>2026-05-22T07:40:27.000Z</time>
      </trkpt>
      <trkpt lat="43.17892" lon="-1.18001">
        <ele>204.216705</ele>
        <time>2026-05-22T07:40:28.000Z</time>
      </trkpt>
      <trkpt lat="43.17889" lon="-1.18003">
        <ele>204.323811</ele>
        <time>2026-05-22T07:40:29.000Z</time>
      </trkpt>
      <trkpt lat="43.17886" lon="-1.18006">
        <ele>204.424278</ele>
        <time>2026-05-22T07:40:30.000Z</time>
      </trkpt>
      <trkpt lat="43.17883" lon="-1.18008">
        <ele>204.528558</ele>
        <time>2026-05-22T07:40:31.000Z</time>
      </trkpt>
      <trkpt lat="43.17881" lon="-1.18011">
        <ele>204.629211</ele>
        <time>2026-05-22T07:40:32.000Z</time>
      </trkpt>
      <trkpt lat="43.17878" lon="-1.18013">
        <ele>204.736318</ele>
        <time>2026-05-22T07:40:33.000Z</time>
      </trkpt>
      <trkpt lat="43.17874" lon="-1.18015">
        <ele>204.8461</ele>
        <time>2026-05-22T07:40:34.000Z</time>
      </trkpt>
      <trkpt lat="43.17871" lon="-1.18018">
        <ele>204.961292</ele>
        <time>2026-05-22T07:40:35.000Z</time>
      </trkpt>
      <trkpt lat="43.17868" lon="-1.1802">
        <ele>205.074865</ele>
        <time>2026-05-22T07:40:36.000Z</time>
      </trkpt>
      <trkpt lat="43.17865" lon="-1.18022">
        <ele>205.185238</ele>
        <time>2026-05-22T07:40:37.000Z</time>
      </trkpt>
      <trkpt lat="43.17861" lon="-1.18024">
        <ele>205.307713</ele>
        <time>2026-05-22T07:40:38.000Z</time>
      </trkpt>
      <trkpt lat="43.17858" lon="-1.18027">
        <ele>205.428875</ele>
        <time>2026-05-22T07:40:39.000Z</time>
      </trkpt>
      <trkpt lat="43.17854" lon="-1.1803">
        <ele>205.550573</ele>
        <time>2026-05-22T07:40:40.000Z</time>
      </trkpt>
      <trkpt lat="43.17851" lon="-1.18033">
        <ele>205.680482</ele>
        <time>2026-05-22T07:40:41.000Z</time>
      </trkpt>
      <trkpt lat="43.17847" lon="-1.18036">
        <ele>205.811573</ele>
        <time>2026-05-22T07:40:42.000Z</time>
      </trkpt>
      <trkpt lat="43.17843" lon="-1.18039">
        <ele>205.725313</ele>
        <time>2026-05-22T07:40:43.000Z</time>
      </trkpt>
      <trkpt lat="43.17839" lon="-1.18042">
        <ele>205.525071</ele>
        <time>2026-05-22T07:40:44.000Z</time>
      </trkpt>
      <trkpt lat="43.17835" lon="-1.18046">
        <ele>205.314572</ele>
        <time>2026-05-22T07:40:45.000Z</time>
      </trkpt>
      <trkpt lat="43.17831" lon="-1.18049">
        <ele>205.095518</ele>
        <time>2026-05-22T07:40:46.000Z</time>
      </trkpt>
      <trkpt lat="43.17827" lon="-1.18052">
        <ele>204.876463</ele>
        <time>2026-05-22T07:40:47.000Z</time>
      </trkpt>
      <trkpt lat="43.17822" lon="-1.18056">
        <ele>204.651977</ele>
        <time>2026-05-22T07:40:48.000Z</time>
      </trkpt>
      <trkpt lat="43.17818" lon="-1.18059">
        <ele>204.417464</ele>
        <time>2026-05-22T07:40:49.000Z</time>
      </trkpt>
      <trkpt lat="43.17813" lon="-1.18063">
        <ele>204.167431</ele>
        <time>2026-05-22T07:40:50.000Z</time>
      </trkpt>
      <trkpt lat="43.17808" lon="-1.18067">
        <ele>203.917398</ele>
        <time>2026-05-22T07:40:51.000Z</time>
      </trkpt>
      <trkpt lat="43.17803" lon="-1.18071">
        <ele>203.662766</ele>
        <time>2026-05-22T07:40:52.000Z</time>
      </trkpt>
      <trkpt lat="43.17798" lon="-1.18075">
        <ele>203.396853</ele>
        <time>2026-05-22T07:40:53.000Z</time>
      </trkpt>
      <trkpt lat="43.17792" lon="-1.1808">
        <ele>203.117986</ele>
        <time>2026-05-22T07:40:54.000Z</time>
      </trkpt>
      <trkpt lat="43.17786" lon="-1.18084">
        <ele>202.822787</ele>
        <time>2026-05-22T07:40:55.000Z</time>
      </trkpt>
      <trkpt lat="43.17781" lon="-1.18089">
        <ele>202.516697</ele>
        <time>2026-05-22T07:40:56.000Z</time>
      </trkpt>
      <trkpt lat="43.17774" lon="-1.18095">
        <ele>202.190025</ele>
        <time>2026-05-22T07:40:57.000Z</time>
      </trkpt>
      <trkpt lat="43.17768" lon="-1.181">
        <ele>201.859529</ele>
        <time>2026-05-22T07:40:58.000Z</time>
      </trkpt>
      <trkpt lat="43.17761" lon="-1.18105">
        <ele>201.514911</ele>
        <time>2026-05-22T07:40:59.000Z</time>
      </trkpt>
      <trkpt lat="43.17754" lon="-1.18111">
        <ele>201.157259</ele>
        <time>2026-05-22T07:41:00.000Z</time>
      </trkpt>
      <trkpt lat="43.17747" lon="-1.18117">
        <ele>200.7811</ele>
        <time>2026-05-22T07:41:01.000Z</time>
      </trkpt>
      <trkpt lat="43.17739" lon="-1.18122">
        <ele>200.410369</ele>
        <time>2026-05-22T07:41:02.000Z</time>
      </trkpt>
      <trkpt lat="43.17732" lon="-1.18128">
        <ele>200.027169</ele>
        <time>2026-05-22T07:41:03.000Z</time>
      </trkpt>
      <trkpt lat="43.17724" lon="-1.18134">
        <ele>199.64015</ele>
        <time>2026-05-22T07:41:04.000Z</time>
      </trkpt>
      <trkpt lat="43.17716" lon="-1.1814">
        <ele>199.242269</ele>
        <time>2026-05-22T07:41:05.000Z</time>
      </trkpt>
      <trkpt lat="43.17708" lon="-1.18147">
        <ele>198.838956</ele>
        <time>2026-05-22T07:41:06.000Z</time>
      </trkpt>
      <trkpt lat="43.177" lon="-1.18153">
        <ele>198.427988</ele>
        <time>2026-05-22T07:41:07.000Z</time>
      </trkpt>
      <trkpt lat="43.17692" lon="-1.1816">
        <ele>198.012172</ele>
        <time>2026-05-22T07:41:08.000Z</time>
      </trkpt>
      <trkpt lat="43.17684" lon="-1.18166">
        <ele>197.596757</ele>
        <time>2026-05-22T07:41:09.000Z</time>
      </trkpt>
      <trkpt lat="43.17676" lon="-1.18173">
        <ele>197.164826</ele>
        <time>2026-05-22T07:41:10.000Z</time>
      </trkpt>
      <trkpt lat="43.17667" lon="-1.1818">
        <ele>196.729155</ele>
        <time>2026-05-22T07:41:11.000Z</time>
      </trkpt>
      <trkpt lat="43.17658" lon="-1.18187">
        <ele>196.288115</ele>
        <time>2026-05-22T07:41:12.000Z</time>
      </trkpt>
      <trkpt lat="43.17649" lon="-1.18195">
        <ele>195.841707</ele>
        <time>2026-05-22T07:41:13.000Z</time>
      </trkpt>
      <trkpt lat="43.17641" lon="-1.18202">
        <ele>195.395298</ele>
        <time>2026-05-22T07:41:14.000Z</time>
      </trkpt>
      <trkpt lat="43.17632" lon="-1.18209">
        <ele>194.948889</ele>
        <time>2026-05-22T07:41:15.000Z</time>
      </trkpt>
      <trkpt lat="43.17623" lon="-1.18216">
        <ele>194.491742</ele>
        <time>2026-05-22T07:41:16.000Z</time>
      </trkpt>
      <trkpt lat="43.17614" lon="-1.18224">
        <ele>194.03622</ele>
        <time>2026-05-22T07:41:17.000Z</time>
      </trkpt>
      <trkpt lat="43.17605" lon="-1.18231">
        <ele>193.576942</ele>
        <time>2026-05-22T07:41:18.000Z</time>
      </trkpt>
      <trkpt lat="43.17596" lon="-1.18238">
        <ele>193.1139</ele>
        <time>2026-05-22T07:41:19.000Z</time>
      </trkpt>
      <trkpt lat="43.17586" lon="-1.18245">
        <ele>192.654006</ele>
        <time>2026-05-22T07:41:20.000Z</time>
      </trkpt>
      <trkpt lat="43.17577" lon="-1.18252">
        <ele>192.197904</ele>
        <time>2026-05-22T07:41:21.000Z</time>
      </trkpt>
      <trkpt lat="43.17568" lon="-1.1826">
        <ele>191.740755</ele>
        <time>2026-05-22T07:41:22.000Z</time>
      </trkpt>
      <trkpt lat="43.1756" lon="-1.18267">
        <ele>191.299714</ele>
        <time>2026-05-22T07:41:23.000Z</time>
      </trkpt>
      <trkpt lat="43.17551" lon="-1.18274">
        <ele>190.86241</ele>
        <time>2026-05-22T07:41:24.000Z</time>
      </trkpt>
      <trkpt lat="43.17542" lon="-1.18281">
        <ele>190.429944</ele>
        <time>2026-05-22T07:41:25.000Z</time>
      </trkpt>
      <trkpt lat="43.17534" lon="-1.18288">
        <ele>190.067834</ele>
        <time>2026-05-22T07:41:26.000Z</time>
      </trkpt>
      <trkpt lat="43.17526" lon="-1.18294">
        <ele>189.984119</ele>
        <time>2026-05-22T07:41:27.000Z</time>
      </trkpt>
      <trkpt lat="43.17518" lon="-1.183">
        <ele>189.902469</ele>
        <time>2026-05-22T07:41:28.000Z</time>
      </trkpt>
      <trkpt lat="43.1751" lon="-1.18307">
        <ele>189.821597</ele>
        <time>2026-05-22T07:41:29.000Z</time>
      </trkpt>
      <trkpt lat="43.17503" lon="-1.18313">
        <ele>189.743046</ele>
        <time>2026-05-22T07:41:30.000Z</time>
      </trkpt>
      <trkpt lat="43.17495" lon="-1.18319">
        <ele>189.667552</ele>
        <time>2026-05-22T07:41:31.000Z</time>
      </trkpt>
      <trkpt lat="43.17488" lon="-1.18325">
        <ele>189.592816</ele>
        <time>2026-05-22T07:41:32.000Z</time>
      </trkpt>
      <trkpt lat="43.17481" lon="-1.18331">
        <ele>189.518762</ele>
        <time>2026-05-22T07:41:33.000Z</time>
      </trkpt>
      <trkpt lat="43.17474" lon="-1.18336">
        <ele>189.445701</ele>
        <time>2026-05-22T07:41:34.000Z</time>
      </trkpt>
      <trkpt lat="43.17467" lon="-1.18342">
        <ele>189.373412</ele>
        <time>2026-05-22T07:41:35.000Z</time>
      </trkpt>
      <trkpt lat="43.1746" lon="-1.18347">
        <ele>189.300672</ele>
        <time>2026-05-22T07:41:36.000Z</time>
      </trkpt>
      <trkpt lat="43.17453" lon="-1.18353">
        <ele>189.229346</ele>
        <time>2026-05-22T07:41:37.000Z</time>
      </trkpt>
      <trkpt lat="43.17446" lon="-1.18358">
        <ele>189.15848</ele>
        <time>2026-05-22T07:41:38.000Z</time>
      </trkpt>
      <trkpt lat="43.17439" lon="-1.18363">
        <ele>189.089807</ele>
        <time>2026-05-22T07:41:39.000Z</time>
      </trkpt>
      <trkpt lat="43.17433" lon="-1.18369">
        <ele>189.022681</ele>
        <time>2026-05-22T07:41:40.000Z</time>
      </trkpt>
      <trkpt lat="43.17426" lon="-1.18374">
        <ele>188.955225</ele>
        <time>2026-05-22T07:41:41.000Z</time>
      </trkpt>
      <trkpt lat="43.1742" lon="-1.18379">
        <ele>188.888195</ele>
        <time>2026-05-22T07:41:42.000Z</time>
      </trkpt>
      <trkpt lat="43.17414" lon="-1.18385">
        <ele>188.821923</ele>
        <time>2026-05-22T07:41:43.000Z</time>
      </trkpt>
      <trkpt lat="43.17407" lon="-1.1839">
        <ele>188.756332</ele>
        <time>2026-05-22T07:41:44.000Z</time>
      </trkpt>
      <trkpt lat="43.17401" lon="-1.18395">
        <ele>188.691402</ele>
        <time>2026-05-22T07:41:45.000Z</time>
      </trkpt>
      <trkpt lat="43.17395" lon="-1.184">
        <ele>188.62801</ele>
        <time>2026-05-22T07:41:46.000Z</time>
      </trkpt>
      <trkpt lat="43.17389" lon="-1.18405">
        <ele>188.564617</ele>
        <time>2026-05-22T07:41:47.000Z</time>
      </trkpt>
      <trkpt lat="43.17383" lon="-1.18409">
        <ele>188.5033</ele>
        <time>2026-05-22T07:41:48.000Z</time>
      </trkpt>
      <trkpt lat="43.17377" lon="-1.18414">
        <ele>188.519703</ele>
        <time>2026-05-22T07:41:49.000Z</time>
      </trkpt>
      <trkpt lat="43.17371" lon="-1.18419">
        <ele>188.58902</ele>
        <time>2026-05-22T07:41:50.000Z</time>
      </trkpt>
      <trkpt lat="43.17366" lon="-1.18423">
        <ele>188.657347</ele>
        <time>2026-05-22T07:41:51.000Z</time>
      </trkpt>
      <trkpt lat="43.1736" lon="-1.18428">
        <ele>188.725372</ele>
        <time>2026-05-22T07:41:52.000Z</time>
      </trkpt>
      <trkpt lat="43.17355" lon="-1.18432">
        <ele>188.792108</ele>
        <time>2026-05-22T07:41:53.000Z</time>
      </trkpt>
      <trkpt lat="43.17349" lon="-1.18437">
        <ele>188.858461</ele>
        <time>2026-05-22T07:41:54.000Z</time>
      </trkpt>
      <trkpt lat="43.17344" lon="-1.18441">
        <ele>188.926487</ele>
        <time>2026-05-22T07:41:55.000Z</time>
      </trkpt>
      <trkpt lat="43.17338" lon="-1.18445">
        <ele>188.992841</ele>
        <time>2026-05-22T07:41:56.000Z</time>
      </trkpt>
      <trkpt lat="43.17333" lon="-1.1845">
        <ele>189.059194</ele>
        <time>2026-05-22T07:41:57.000Z</time>
      </trkpt>
      <trkpt lat="43.17327" lon="-1.18454">
        <ele>189.123233</ele>
        <time>2026-05-22T07:41:58.000Z</time>
      </trkpt>
      <trkpt lat="43.17322" lon="-1.18459">
        <ele>189.188972</ele>
        <time>2026-05-22T07:41:59.000Z</time>
      </trkpt>
      <trkpt lat="43.17317" lon="-1.18463">
        <ele>189.253416</ele>
        <time>2026-05-22T07:42:00.000Z</time>
      </trkpt>
      <trkpt lat="43.17312" lon="-1.18467">
        <ele>189.317571</ele>
        <time>2026-05-22T07:42:01.000Z</time>
      </trkpt>
      <trkpt lat="43.17306" lon="-1.18472">
        <ele>189.381212</ele>
        <time>2026-05-22T07:42:02.000Z</time>
      </trkpt>
      <trkpt lat="43.17301" lon="-1.18476">
        <ele>189.445189</ele>
        <time>2026-05-22T07:42:03.000Z</time>
      </trkpt>
      <trkpt lat="43.17296" lon="-1.1848">
        <ele>189.505858</ele>
        <time>2026-05-22T07:42:04.000Z</time>
      </trkpt>
      <trkpt lat="43.17291" lon="-1.18485">
        <ele>189.567311</ele>
        <time>2026-05-22T07:42:05.000Z</time>
      </trkpt>
      <trkpt lat="43.17286" lon="-1.18488">
        <ele>189.627598</ele>
        <time>2026-05-22T07:42:06.000Z</time>
      </trkpt>
      <trkpt lat="43.17281" lon="-1.18492">
        <ele>189.687364</ele>
        <time>2026-05-22T07:42:07.000Z</time>
      </trkpt>
      <trkpt lat="43.17277" lon="-1.18496">
        <ele>189.74599</ele>
        <time>2026-05-22T07:42:08.000Z</time>
      </trkpt>
      <trkpt lat="43.17272" lon="-1.185">
        <ele>189.804988</ele>
        <time>2026-05-22T07:42:09.000Z</time>
      </trkpt>
      <trkpt lat="43.17267" lon="-1.18504">
        <ele>189.862075</ele>
        <time>2026-05-22T07:42:10.000Z</time>
      </trkpt>
      <trkpt lat="43.17263" lon="-1.18508">
        <ele>189.917463</ele>
        <time>2026-05-22T07:42:11.000Z</time>
      </trkpt>
      <trkpt lat="43.17258" lon="-1.18511">
        <ele>189.972598</ele>
        <time>2026-05-22T07:42:12.000Z</time>
      </trkpt>
      <trkpt lat="43.17253" lon="-1.18515">
        <ele>190.026081</ele>
        <time>2026-05-22T07:42:13.000Z</time>
      </trkpt>
      <trkpt lat="43.17249" lon="-1.18518">
        <ele>190.078883</ele>
        <time>2026-05-22T07:42:14.000Z</time>
      </trkpt>
      <trkpt lat="43.17245" lon="-1.18522">
        <ele>190.131619</ele>
        <time>2026-05-22T07:42:15.000Z</time>
      </trkpt>
      <trkpt lat="43.17241" lon="-1.18526">
        <ele>190.183939</ele>
        <time>2026-05-22T07:42:16.000Z</time>
      </trkpt>
      <trkpt lat="43.17236" lon="-1.18529">
        <ele>190.235583</ele>
        <time>2026-05-22T07:42:17.000Z</time>
      </trkpt>
      <trkpt lat="43.17232" lon="-1.18532">
        <ele>190.286858</ele>
        <time>2026-05-22T07:42:18.000Z</time>
      </trkpt>
      <trkpt lat="43.17228" lon="-1.18536">
        <ele>190.337075</ele>
        <time>2026-05-22T07:42:19.000Z</time>
      </trkpt>
      <trkpt lat="43.17224" lon="-1.18539">
        <ele>190.37472</ele>
        <time>2026-05-22T07:42:20.000Z</time>
      </trkpt>
      <trkpt lat="43.1722" lon="-1.18542">
        <ele>190.397891</ele>
        <time>2026-05-22T07:42:21.000Z</time>
      </trkpt>
      <trkpt lat="43.17216" lon="-1.18546">
        <ele>190.421063</ele>
        <time>2026-05-22T07:42:22.000Z</time>
      </trkpt>
      <trkpt lat="43.17212" lon="-1.18549">
        <ele>190.444419</ele>
        <time>2026-05-22T07:42:23.000Z</time>
      </trkpt>
      <trkpt lat="43.17208" lon="-1.18553">
        <ele>190.466994</ele>
        <time>2026-05-22T07:42:24.000Z</time>
      </trkpt>
      <trkpt lat="43.17204" lon="-1.18556">
        <ele>190.489468</ele>
        <time>2026-05-22T07:42:25.000Z</time>
      </trkpt>
      <trkpt lat="43.17199" lon="-1.18559">
        <ele>190.51211</ele>
        <time>2026-05-22T07:42:26.000Z</time>
      </trkpt>
      <trkpt lat="43.17196" lon="-1.18562">
        <ele>190.533735</ele>
        <time>2026-05-22T07:42:27.000Z</time>
      </trkpt>
      <trkpt lat="43.17192" lon="-1.18565">
        <ele>190.555191</ele>
        <time>2026-05-22T07:42:28.000Z</time>
      </trkpt>
      <trkpt lat="43.17188" lon="-1.18568">
        <ele>190.576574</ele>
        <time>2026-05-22T07:42:29.000Z</time>
      </trkpt>
      <trkpt lat="43.17184" lon="-1.18571">
        <ele>190.598553</ele>
        <time>2026-05-22T07:42:30.000Z</time>
      </trkpt>
      <trkpt lat="43.1718" lon="-1.18574">
        <ele>190.620902</ele>
        <time>2026-05-22T07:42:31.000Z</time>
      </trkpt>
      <trkpt lat="43.17176" lon="-1.18578">
        <ele>190.643252</ele>
        <time>2026-05-22T07:42:32.000Z</time>
      </trkpt>
      <trkpt lat="43.17172" lon="-1.18581">
        <ele>190.665793</ele>
        <time>2026-05-22T07:42:33.000Z</time>
      </trkpt>
      <trkpt lat="43.17168" lon="-1.18585">
        <ele>190.688552</ele>
        <time>2026-05-22T07:42:34.000Z</time>
      </trkpt>
      <trkpt lat="43.17164" lon="-1.18588">
        <ele>190.711543</ele>
        <time>2026-05-22T07:42:35.000Z</time>
      </trkpt>
      <trkpt lat="43.1716" lon="-1.18591">
        <ele>190.733763</ele>
        <time>2026-05-22T07:42:36.000Z</time>
      </trkpt>
      <trkpt lat="43.17156" lon="-1.18595">
        <ele>190.757119</ele>
        <time>2026-05-22T07:42:37.000Z</time>
      </trkpt>
      <trkpt lat="43.17152" lon="-1.18598">
        <ele>190.779515</ele>
        <time>2026-05-22T07:42:38.000Z</time>
      </trkpt>
      <trkpt lat="43.17148" lon="-1.18601">
        <ele>190.802329</ele>
        <time>2026-05-22T07:42:39.000Z</time>
      </trkpt>
      <trkpt lat="43.17144" lon="-1.18604">
        <ele>190.825144</ele>
        <time>2026-05-22T07:42:40.000Z</time>
      </trkpt>
      <trkpt lat="43.1714" lon="-1.18607">
        <ele>190.847958</ele>
        <time>2026-05-22T07:42:41.000Z</time>
      </trkpt>
      <trkpt lat="43.17136" lon="-1.18611">
        <ele>190.870717</ele>
        <time>2026-05-22T07:42:42.000Z</time>
      </trkpt>
      <trkpt lat="43.17132" lon="-1.18614">
        <ele>190.893477</ele>
        <time>2026-05-22T07:42:43.000Z</time>
      </trkpt>
      <trkpt lat="43.17128" lon="-1.18618">
        <ele>190.916236</ele>
        <time>2026-05-22T07:42:44.000Z</time>
      </trkpt>
      <trkpt lat="43.17124" lon="-1.18621">
        <ele>190.939645</ele>
        <time>2026-05-22T07:42:45.000Z</time>
      </trkpt>
      <trkpt lat="43.17119" lon="-1.18624">
        <ele>190.962712</ele>
        <time>2026-05-22T07:42:46.000Z</time>
      </trkpt>
      <trkpt lat="43.17115" lon="-1.18627">
        <ele>190.986542</ele>
        <time>2026-05-22T07:42:47.000Z</time>
      </trkpt>
      <trkpt lat="43.17111" lon="-1.18631">
        <ele>191.010547</ele>
        <time>2026-05-22T07:42:48.000Z</time>
      </trkpt>
      <trkpt lat="43.17106" lon="-1.18634">
        <ele>191.034377</ele>
        <time>2026-05-22T07:42:49.000Z</time>
      </trkpt>
      <trkpt lat="43.17102" lon="-1.18637">
        <ele>191.059396</ele>
        <time>2026-05-22T07:42:50.000Z</time>
      </trkpt>
      <trkpt lat="43.17097" lon="-1.18641">
        <ele>191.085187</ele>
        <time>2026-05-22T07:42:51.000Z</time>
      </trkpt>
      <trkpt lat="43.17093" lon="-1.18645">
        <ele>191.110745</ele>
        <time>2026-05-22T07:42:52.000Z</time>
      </trkpt>
      <trkpt lat="43.17088" lon="-1.18649">
        <ele>191.136535</ele>
        <time>2026-05-22T07:42:53.000Z</time>
      </trkpt>
      <trkpt lat="43.17084" lon="-1.18652">
        <ele>191.162921</ele>
        <time>2026-05-22T07:42:54.000Z</time>
      </trkpt>
      <trkpt lat="43.17079" lon="-1.18656">
        <ele>191.18913</ele>
        <time>2026-05-22T07:42:55.000Z</time>
      </trkpt>
      <trkpt lat="43.17074" lon="-1.1866">
        <ele>191.216479</ele>
        <time>2026-05-22T07:42:56.000Z</time>
      </trkpt>
      <trkpt lat="43.17069" lon="-1.18664">
        <ele>191.252961</ele>
        <time>2026-05-22T07:42:57.000Z</time>
      </trkpt>
      <trkpt lat="43.17064" lon="-1.18668">
        <ele>191.304751</ele>
        <time>2026-05-22T07:42:58.000Z</time>
      </trkpt>
      <trkpt lat="43.17059" lon="-1.18672">
        <ele>191.357783</ele>
        <time>2026-05-22T07:42:59.000Z</time>
      </trkpt>
      <trkpt lat="43.17054" lon="-1.18676">
        <ele>191.410815</ele>
        <time>2026-05-22T07:43:00.000Z</time>
      </trkpt>
      <trkpt lat="43.17049" lon="-1.1868">
        <ele>191.463387</ele>
        <time>2026-05-22T07:43:01.000Z</time>
      </trkpt>
      <trkpt lat="43.17044" lon="-1.18684">
        <ele>191.51622</ele>
        <time>2026-05-22T07:43:02.000Z</time>
      </trkpt>
      <trkpt lat="43.17039" lon="-1.18689">
        <ele>191.570249</ele>
        <time>2026-05-22T07:43:03.000Z</time>
      </trkpt>
      <trkpt lat="43.17034" lon="-1.18693">
        <ele>191.623607</ele>
        <time>2026-05-22T07:43:04.000Z</time>
      </trkpt>
      <trkpt lat="43.17029" lon="-1.18697">
        <ele>191.677979</ele>
        <time>2026-05-22T07:43:05.000Z</time>
      </trkpt>
      <trkpt lat="43.17024" lon="-1.18701">
        <ele>191.73158</ele>
        <time>2026-05-22T07:43:06.000Z</time>
      </trkpt>
      <trkpt lat="43.17019" lon="-1.18706">
        <ele>191.786727</ele>
        <time>2026-05-22T07:43:07.000Z</time>
      </trkpt>
      <trkpt lat="43.17014" lon="-1.1871">
        <ele>191.841043</ele>
        <time>2026-05-22T07:43:08.000Z</time>
      </trkpt>
      <trkpt lat="43.17009" lon="-1.18715">
        <ele>191.895351</ele>
        <time>2026-05-22T07:43:09.000Z</time>
      </trkpt>
      <trkpt lat="43.17004" lon="-1.1872">
        <ele>191.949305</ele>
        <time>2026-05-22T07:43:10.000Z</time>
      </trkpt>
      <trkpt lat="43.16999" lon="-1.18725">
        <ele>192.005173</ele>
        <time>2026-05-22T07:43:11.000Z</time>
      </trkpt>
      <trkpt lat="43.16994" lon="-1.1873">
        <ele>192.062158</ele>
        <time>2026-05-22T07:43:12.000Z</time>
      </trkpt>
      <trkpt lat="43.1699" lon="-1.18736">
        <ele>192.119142</ele>
        <time>2026-05-22T07:43:13.000Z</time>
      </trkpt>
      <trkpt lat="43.16985" lon="-1.18741">
        <ele>192.173708</ele>
        <time>2026-05-22T07:43:14.000Z</time>
      </trkpt>
      <trkpt lat="43.16981" lon="-1.18747">
        <ele>192.229797</ele>
        <time>2026-05-22T07:43:15.000Z</time>
      </trkpt>
      <trkpt lat="43.16976" lon="-1.18753">
        <ele>192.283932</ele>
        <time>2026-05-22T07:43:16.000Z</time>
      </trkpt>
      <trkpt lat="43.16972" lon="-1.18759">
        <ele>192.337432</ele>
        <time>2026-05-22T07:43:17.000Z</time>
      </trkpt>
      <trkpt lat="43.16968" lon="-1.18765">
        <ele>192.391765</ele>
        <time>2026-05-22T07:43:18.000Z</time>
      </trkpt>
      <trkpt lat="43.16965" lon="-1.18771">
        <ele>192.442616</ele>
        <time>2026-05-22T07:43:19.000Z</time>
      </trkpt>
      <trkpt lat="43.16962" lon="-1.18777">
        <ele>192.492953</ele>
        <time>2026-05-22T07:43:20.000Z</time>
      </trkpt>
      <trkpt lat="43.16959" lon="-1.18783">
        <ele>192.541655</ele>
        <time>2026-05-22T07:43:21.000Z</time>
      </trkpt>
      <trkpt lat="43.16956" lon="-1.18789">
        <ele>192.58875</ele>
        <time>2026-05-22T07:43:22.000Z</time>
      </trkpt>
      <trkpt lat="43.16953" lon="-1.18794">
        <ele>192.63424</ele>
        <time>2026-05-22T07:43:23.000Z</time>
      </trkpt>
      <trkpt lat="43.1695" lon="-1.188">
        <ele>192.677605</ele>
        <time>2026-05-22T07:43:24.000Z</time>
      </trkpt>
      <trkpt lat="43.16947" lon="-1.18805">
        <ele>192.717758</ele>
        <time>2026-05-22T07:43:25.000Z</time>
      </trkpt>
      <trkpt lat="43.16945" lon="-1.1881">
        <ele>192.755798</ele>
        <time>2026-05-22T07:43:26.000Z</time>
      </trkpt>
      <trkpt lat="43.16943" lon="-1.18814">
        <ele>192.792233</ele>
        <time>2026-05-22T07:43:27.000Z</time>
      </trkpt>
      <trkpt lat="43.16941" lon="-1.18819">
        <ele>192.827568</ele>
        <time>2026-05-22T07:43:28.000Z</time>
      </trkpt>
      <trkpt lat="43.16939" lon="-1.18823">
        <ele>192.861908</ele>
        <time>2026-05-22T07:43:29.000Z</time>
      </trkpt>
      <trkpt lat="43.16937" lon="-1.18827">
        <ele>193.020898</ele>
        <time>2026-05-22T07:43:30.000Z</time>
      </trkpt>
      <trkpt lat="43.16935" lon="-1.18832">
        <ele>193.198981</ele>
        <time>2026-05-22T07:43:31.000Z</time>
      </trkpt>
      <trkpt lat="43.16933" lon="-1.18836">
        <ele>193.371635</ele>
        <time>2026-05-22T07:43:32.000Z</time>
      </trkpt>
      <trkpt lat="43.16932" lon="-1.1884">
        <ele>193.533552</ele>
        <time>2026-05-22T07:43:33.000Z</time>
      </trkpt>
      <trkpt lat="43.1693" lon="-1.18845">
        <ele>193.703953</ele>
        <time>2026-05-22T07:43:34.000Z</time>
      </trkpt>
      <trkpt lat="43.16929" lon="-1.18849">
        <ele>193.88505</ele>
        <time>2026-05-22T07:43:35.000Z</time>
      </trkpt>
      <trkpt lat="43.16927" lon="-1.18854">
        <ele>194.061769</ele>
        <time>2026-05-22T07:43:36.000Z</time>
      </trkpt>
      <trkpt lat="43.16926" lon="-1.18858">
        <ele>194.239638</ele>
        <time>2026-05-22T07:43:37.000Z</time>
      </trkpt>
      <trkpt lat="43.16924" lon="-1.18863">
        <ele>194.421673</ele>
        <time>2026-05-22T07:43:38.000Z</time>
      </trkpt>
      <trkpt lat="43.16923" lon="-1.18867">
        <ele>194.594369</ele>
        <time>2026-05-22T07:43:39.000Z</time>
      </trkpt>
      <trkpt lat="43.16921" lon="-1.18872">
        <ele>194.777461</ele>
        <time>2026-05-22T07:43:40.000Z</time>
      </trkpt>
      <trkpt lat="43.16919" lon="-1.18877">
        <ele>194.952113</ele>
        <time>2026-05-22T07:43:41.000Z</time>
      </trkpt>
      <trkpt lat="43.16918" lon="-1.18881">
        <ele>195.118339</ele>
        <time>2026-05-22T07:43:42.000Z</time>
      </trkpt>
      <trkpt lat="43.16917" lon="-1.18885">
        <ele>195.287795</ele>
        <time>2026-05-22T07:43:43.000Z</time>
      </trkpt>
      <trkpt lat="43.16915" lon="-1.18889">
        <ele>195.443742</ele>
        <time>2026-05-22T07:43:44.000Z</time>
      </trkpt>
      <trkpt lat="43.16914" lon="-1.18894">
        <ele>195.606263</ele>
        <time>2026-05-22T07:43:45.000Z</time>
      </trkpt>
      <trkpt lat="43.16913" lon="-1.18898">
        <ele>195.770576</ele>
        <time>2026-05-22T07:43:46.000Z</time>
      </trkpt>
      <trkpt lat="43.16912" lon="-1.18903">
        <ele>195.944719</ele>
        <time>2026-05-22T07:43:47.000Z</time>
      </trkpt>
      <trkpt lat="43.16911" lon="-1.18907">
        <ele>196.112252</ele>
        <time>2026-05-22T07:43:48.000Z</time>
      </trkpt>
      <trkpt lat="43.1691" lon="-1.18912">
        <ele>196.28169</ele>
        <time>2026-05-22T07:43:49.000Z</time>
      </trkpt>
      <trkpt lat="43.16909" lon="-1.18916">
        <ele>196.451023</ele>
        <time>2026-05-22T07:43:50.000Z</time>
      </trkpt>
      <trkpt lat="43.16908" lon="-1.18921">
        <ele>196.619143</ele>
        <time>2026-05-22T07:43:51.000Z</time>
      </trkpt>
      <trkpt lat="43.16907" lon="-1.18926">
        <ele>196.78951</ele>
        <time>2026-05-22T07:43:52.000Z</time>
      </trkpt>
      <trkpt lat="43.16906" lon="-1.1893">
        <ele>196.962334</ele>
        <time>2026-05-22T07:43:53.000Z</time>
      </trkpt>
      <trkpt lat="43.16905" lon="-1.18935">
        <ele>197.125019</ele>
        <time>2026-05-22T07:43:54.000Z</time>
      </trkpt>
      <trkpt lat="43.16904" lon="-1.18939">
        <ele>197.279545</ele>
        <time>2026-05-22T07:43:55.000Z</time>
      </trkpt>
      <trkpt lat="43.16903" lon="-1.18943">
        <ele>197.439617</ele>
        <time>2026-05-22T07:43:56.000Z</time>
      </trkpt>
      <trkpt lat="43.16902" lon="-1.18948">
        <ele>197.593828</ele>
        <time>2026-05-22T07:43:57.000Z</time>
      </trkpt>
      <trkpt lat="43.16901" lon="-1.18951">
        <ele>197.728165</ele>
        <time>2026-05-22T07:43:58.000Z</time>
      </trkpt>
      <trkpt lat="43.16901" lon="-1.18955">
        <ele>197.855081</ele>
        <time>2026-05-22T07:43:59.000Z</time>
      </trkpt>
      <trkpt lat="43.169" lon="-1.18958">
        <ele>197.987913</ele>
        <time>2026-05-22T07:44:00.000Z</time>
      </trkpt>
      <trkpt lat="43.169" lon="-1.18962">
        <ele>198.119431</ele>
        <time>2026-05-22T07:44:01.000Z</time>
      </trkpt>
      <trkpt lat="43.16899" lon="-1.18966">
        <ele>198.250949</ele>
        <time>2026-05-22T07:44:02.000Z</time>
      </trkpt>
      <trkpt lat="43.16898" lon="-1.18969">
        <ele>198.381304</ele>
        <time>2026-05-22T07:44:03.000Z</time>
      </trkpt>
      <trkpt lat="43.16898" lon="-1.18972">
        <ele>198.501358</ele>
        <time>2026-05-22T07:44:04.000Z</time>
      </trkpt>
      <trkpt lat="43.16897" lon="-1.18976">
        <ele>198.626415</ele>
        <time>2026-05-22T07:44:05.000Z</time>
      </trkpt>
      <trkpt lat="43.16897" lon="-1.1898">
        <ele>198.755778</ele>
        <time>2026-05-22T07:44:06.000Z</time>
      </trkpt>
      <trkpt lat="43.16896" lon="-1.18983">
        <ele>198.89071</ele>
        <time>2026-05-22T07:44:07.000Z</time>
      </trkpt>
      <trkpt lat="43.16896" lon="-1.18987">
        <ele>199.023542</ele>
        <time>2026-05-22T07:44:08.000Z</time>
      </trkpt>
      <trkpt lat="43.16895" lon="-1.18991">
        <ele>199.157341</ele>
        <time>2026-05-22T07:44:09.000Z</time>
      </trkpt>
      <trkpt lat="43.16895" lon="-1.18995">
        <ele>199.297121</ele>
        <time>2026-05-22T07:44:10.000Z</time>
      </trkpt>
      <trkpt lat="43.16894" lon="-1.18999">
        <ele>199.439065</ele>
        <time>2026-05-22T07:44:11.000Z</time>
      </trkpt>
      <trkpt lat="43.16894" lon="-1.19002">
        <ele>199.56761</ele>
        <time>2026-05-22T07:44:12.000Z</time>
      </trkpt>
      <trkpt lat="43.16894" lon="-1.19006">
        <ele>199.702098</ele>
        <time>2026-05-22T07:44:13.000Z</time>
      </trkpt>
      <trkpt lat="43.16893" lon="-1.1901">
        <ele>199.833512</ele>
        <time>2026-05-22T07:44:14.000Z</time>
      </trkpt>
      <trkpt lat="43.16893" lon="-1.19013">
        <ele>199.968435</ele>
        <time>2026-05-22T07:44:15.000Z</time>
      </trkpt>
      <trkpt lat="43.16893" lon="-1.19017">
        <ele>200.103358</ele>
        <time>2026-05-22T07:44:16.000Z</time>
      </trkpt>
      <trkpt lat="43.16893" lon="-1.19021">
        <ele>200.234325</ele>
        <time>2026-05-22T07:44:17.000Z</time>
      </trkpt>
      <trkpt lat="43.16892" lon="-1.19025">
        <ele>200.369854</ele>
        <time>2026-05-22T07:44:18.000Z</time>
      </trkpt>
      <trkpt lat="43.16891" lon="-1.19029">
        <ele>200.512865</ele>
        <time>2026-05-22T07:44:19.000Z</time>
      </trkpt>
      <trkpt lat="43.16891" lon="-1.19033">
        <ele>200.65702</ele>
        <time>2026-05-22T07:44:20.000Z</time>
      </trkpt>
      <trkpt lat="43.1689" lon="-1.19037">
        <ele>200.806538</ele>
        <time>2026-05-22T07:44:21.000Z</time>
      </trkpt>
      <trkpt lat="43.1689" lon="-1.19041">
        <ele>200.955506</ele>
        <time>2026-05-22T07:44:22.000Z</time>
      </trkpt>
      <trkpt lat="43.1689" lon="-1.19045">
        <ele>201.105024</ele>
        <time>2026-05-22T07:44:23.000Z</time>
      </trkpt>
      <trkpt lat="43.16889" lon="-1.19049">
        <ele>201.253993</ele>
        <time>2026-05-22T07:44:24.000Z</time>
      </trkpt>
      <trkpt lat="43.16889" lon="-1.19054">
        <ele>201.406475</ele>
        <time>2026-05-22T07:44:25.000Z</time>
      </trkpt>
      <trkpt lat="43.16889" lon="-1.19058">
        <ele>201.560181</ele>
        <time>2026-05-22T07:44:26.000Z</time>
      </trkpt>
      <trkpt lat="43.16888" lon="-1.19062">
        <ele>201.608489</ele>
        <time>2026-05-22T07:44:27.000Z</time>
      </trkpt>
      <trkpt lat="43.16888" lon="-1.19067">
        <ele>201.648628</ele>
        <time>2026-05-22T07:44:28.000Z</time>
      </trkpt>
      <trkpt lat="43.16887" lon="-1.1907">
        <ele>201.684941</ele>
        <time>2026-05-22T07:44:29.000Z</time>
      </trkpt>
      <trkpt lat="43.16887" lon="-1.19074">
        <ele>201.718492</ele>
        <time>2026-05-22T07:44:30.000Z</time>
      </trkpt>
      <trkpt lat="43.16887" lon="-1.19077">
        <ele>201.749286</ele>
        <time>2026-05-22T07:44:31.000Z</time>
      </trkpt>
      <trkpt lat="43.16886" lon="-1.19081">
        <ele>201.784129</ele>
        <time>2026-05-22T07:44:32.000Z</time>
      </trkpt>
      <trkpt lat="43.16886" lon="-1.19085">
        <ele>201.822432</ele>
        <time>2026-05-22T07:44:33.000Z</time>
      </trkpt>
      <trkpt lat="43.16885" lon="-1.19089">
        <ele>201.860923</ele>
        <time>2026-05-22T07:44:34.000Z</time>
      </trkpt>
      <trkpt lat="43.16885" lon="-1.19093">
        <ele>201.900144</ele>
        <time>2026-05-22T07:44:35.000Z</time>
      </trkpt>
      <trkpt lat="43.16884" lon="-1.19098">
        <ele>201.941378</ele>
        <time>2026-05-22T07:44:36.000Z</time>
      </trkpt>
      <trkpt lat="43.16884" lon="-1.19102">
        <ele>201.984442</ele>
        <time>2026-05-22T07:44:37.000Z</time>
      </trkpt>
      <trkpt lat="43.16884" lon="-1.19107">
        <ele>202.027338</ele>
        <time>2026-05-22T07:44:38.000Z</time>
      </trkpt>
      <trkpt lat="43.16883" lon="-1.19112">
        <ele>202.070234</ele>
        <time>2026-05-22T07:44:39.000Z</time>
      </trkpt>
      <trkpt lat="43.16883" lon="-1.19116">
        <ele>202.11313</ele>
        <time>2026-05-22T07:44:40.000Z</time>
      </trkpt>
      <trkpt lat="43.16883" lon="-1.19121">
        <ele>202.157648</ele>
        <time>2026-05-22T07:44:41.000Z</time>
      </trkpt>
      <trkpt lat="43.16882" lon="-1.19126">
        <ele>202.203304</ele>
        <time>2026-05-22T07:44:42.000Z</time>
      </trkpt>
      <trkpt lat="43.16882" lon="-1.19131">
        <ele>202.248201</ele>
        <time>2026-05-22T07:44:43.000Z</time>
      </trkpt>
      <trkpt lat="43.16881" lon="-1.19136">
        <ele>202.294208</ele>
        <time>2026-05-22T07:44:44.000Z</time>
      </trkpt>
      <trkpt lat="43.1688" lon="-1.19141">
        <ele>202.342261</ele>
        <time>2026-05-22T07:44:45.000Z</time>
      </trkpt>
      <trkpt lat="43.1688" lon="-1.19146">
        <ele>202.38991</ele>
        <time>2026-05-22T07:44:46.000Z</time>
      </trkpt>
      <trkpt lat="43.16879" lon="-1.19151">
        <ele>202.436641</ele>
        <time>2026-05-22T07:44:47.000Z</time>
      </trkpt>
      <trkpt lat="43.16879" lon="-1.19156">
        <ele>202.484941</ele>
        <time>2026-05-22T07:44:48.000Z</time>
      </trkpt>
      <trkpt lat="43.16879" lon="-1.19161">
        <ele>202.533358</ele>
        <time>2026-05-22T07:44:49.000Z</time>
      </trkpt>
      <trkpt lat="43.16878" lon="-1.19167">
        <ele>202.584144</ele>
        <time>2026-05-22T07:44:50.000Z</time>
      </trkpt>
      <trkpt lat="43.16877" lon="-1.19172">
        <ele>202.635167</ele>
        <time>2026-05-22T07:44:51.000Z</time>
      </trkpt>
      <trkpt lat="43.16876" lon="-1.19177">
        <ele>202.685953</ele>
        <time>2026-05-22T07:44:52.000Z</time>
      </trkpt>
      <trkpt lat="43.16876" lon="-1.19183">
        <ele>202.736738</ele>
        <time>2026-05-22T07:44:53.000Z</time>
      </trkpt>
      <trkpt lat="43.16875" lon="-1.19188">
        <ele>202.789149</ele>
        <time>2026-05-22T07:44:54.000Z</time>
      </trkpt>
      <trkpt lat="43.16875" lon="-1.19194">
        <ele>202.844309</ele>
        <time>2026-05-22T07:44:55.000Z</time>
      </trkpt>
      <trkpt lat="43.16874" lon="-1.192">
        <ele>202.899469</ele>
        <time>2026-05-22T07:44:56.000Z</time>
      </trkpt>
      <trkpt lat="43.16873" lon="-1.19206">
        <ele>202.95619</ele>
        <time>2026-05-22T07:44:57.000Z</time>
      </trkpt>
      <trkpt lat="43.16872" lon="-1.19212">
        <ele>203.01318</ele>
        <time>2026-05-22T07:44:58.000Z</time>
      </trkpt>
      <trkpt lat="43.16871" lon="-1.19218">
        <ele>203.068994</ele>
        <time>2026-05-22T07:44:59.000Z</time>
      </trkpt>
      <trkpt lat="43.1687" lon="-1.19224">
        <ele>203.125472</ele>
        <time>2026-05-22T07:45:00.000Z</time>
      </trkpt>
      <trkpt lat="43.1687" lon="-1.1923">
        <ele>203.182467</ele>
        <time>2026-05-22T07:45:01.000Z</time>
      </trkpt>
      <trkpt lat="43.16869" lon="-1.19236">
        <ele>203.240101</ele>
        <time>2026-05-22T07:45:02.000Z</time>
      </trkpt>
      <trkpt lat="43.16869" lon="-1.19243">
        <ele>203.29911</ele>
        <time>2026-05-22T07:45:03.000Z</time>
      </trkpt>
      <trkpt lat="43.16868" lon="-1.19249">
        <ele>203.358119</ele>
        <time>2026-05-22T07:45:04.000Z</time>
      </trkpt>
      <trkpt lat="43.16867" lon="-1.19255">
        <ele>203.417868</ele>
        <time>2026-05-22T07:45:05.000Z</time>
      </trkpt>
      <trkpt lat="43.16867" lon="-1.19262">
        <ele>203.478708</ele>
        <time>2026-05-22T07:45:06.000Z</time>
      </trkpt>
      <trkpt lat="43.16866" lon="-1.19269">
        <ele>203.541573</ele>
        <time>2026-05-22T07:45:07.000Z</time>
      </trkpt>
      <trkpt lat="43.16865" lon="-1.19276">
        <ele>203.60608</ele>
        <time>2026-05-22T07:45:08.000Z</time>
      </trkpt>
      <trkpt lat="43.16865" lon="-1.19282">
        <ele>203.670286</ele>
        <time>2026-05-22T07:45:09.000Z</time>
      </trkpt>
      <trkpt lat="43.16864" lon="-1.19289">
        <ele>203.73463</ele>
        <time>2026-05-22T07:45:10.000Z</time>
      </trkpt>
      <trkpt lat="43.16863" lon="-1.19296">
        <ele>203.798974</ele>
        <time>2026-05-22T07:45:11.000Z</time>
      </trkpt>
      <trkpt lat="43.16863" lon="-1.19303">
        <ele>203.843157</ele>
        <time>2026-05-22T07:45:12.000Z</time>
      </trkpt>
      <trkpt lat="43.16862" lon="-1.1931">
        <ele>203.734065</ele>
        <time>2026-05-22T07:45:13.000Z</time>
      </trkpt>
      <trkpt lat="43.16861" lon="-1.19317">
        <ele>203.627039</ele>
        <time>2026-05-22T07:45:14.000Z</time>
      </trkpt>
      <trkpt lat="43.16861" lon="-1.19324">
        <ele>203.517946</ele>
        <time>2026-05-22T07:45:15.000Z</time>
      </trkpt>
      <trkpt lat="43.1686" lon="-1.19332">
        <ele>203.407647</ele>
        <time>2026-05-22T07:45:16.000Z</time>
      </trkpt>
      <trkpt lat="43.16859" lon="-1.19339">
        <ele>203.293077</ele>
        <time>2026-05-22T07:45:17.000Z</time>
      </trkpt>
      <trkpt lat="43.16858" lon="-1.19347">
        <ele>203.177658</ele>
        <time>2026-05-22T07:45:18.000Z</time>
      </trkpt>
      <trkpt lat="43.16857" lon="-1.19354">
        <ele>203.060741</ele>
        <time>2026-05-22T07:45:19.000Z</time>
      </trkpt>
      <trkpt lat="43.16857" lon="-1.19362">
        <ele>202.942636</ele>
        <time>2026-05-22T07:45:20.000Z</time>
      </trkpt>
      <trkpt lat="43.16856" lon="-1.19369">
        <ele>202.825719</ele>
        <time>2026-05-22T07:45:21.000Z</time>
      </trkpt>
      <trkpt lat="43.16855" lon="-1.19377">
        <ele>202.706619</ele>
        <time>2026-05-22T07:45:22.000Z</time>
      </trkpt>
      <trkpt lat="43.16854" lon="-1.19385">
        <ele>202.58276</ele>
        <time>2026-05-22T07:45:23.000Z</time>
      </trkpt>
      <trkpt lat="43.16854" lon="-1.19394">
        <ele>202.456841</ele>
        <time>2026-05-22T07:45:24.000Z</time>
      </trkpt>
      <trkpt lat="43.16853" lon="-1.19402">
        <ele>202.331474</ele>
        <time>2026-05-22T07:45:25.000Z</time>
      </trkpt>
      <trkpt lat="43.16852" lon="-1.1941">
        <ele>202.201982</ele>
        <time>2026-05-22T07:45:26.000Z</time>
      </trkpt>
      <trkpt lat="43.16852" lon="-1.19419">
        <ele>202.073818</ele>
        <time>2026-05-22T07:45:27.000Z</time>
      </trkpt>
      <trkpt lat="43.16851" lon="-1.19427">
        <ele>201.942961</ele>
        <time>2026-05-22T07:45:28.000Z</time>
      </trkpt>
      <trkpt lat="43.16851" lon="-1.19436">
        <ele>201.810262</ele>
        <time>2026-05-22T07:45:29.000Z</time>
      </trkpt>
      <trkpt lat="43.1685" lon="-1.19445">
        <ele>201.67454</ele>
        <time>2026-05-22T07:45:30.000Z</time>
      </trkpt>
      <trkpt lat="43.1685" lon="-1.19454">
        <ele>201.537621</ele>
        <time>2026-05-22T07:45:31.000Z</time>
      </trkpt>
      <trkpt lat="43.16849" lon="-1.19463">
        <ele>201.394503</ele>
        <time>2026-05-22T07:45:32.000Z</time>
      </trkpt>
      <trkpt lat="43.16849" lon="-1.19473">
        <ele>201.251627</ele>
        <time>2026-05-22T07:45:33.000Z</time>
      </trkpt>
      <trkpt lat="43.16849" lon="-1.19482">
        <ele>201.105791</ele>
        <time>2026-05-22T07:45:34.000Z</time>
      </trkpt>
      <trkpt lat="43.16848" lon="-1.19492">
        <ele>200.956745</ele>
        <time>2026-05-22T07:45:35.000Z</time>
      </trkpt>
      <trkpt lat="43.16848" lon="-1.19502">
        <ele>200.806054</ele>
        <time>2026-05-22T07:45:36.000Z</time>
      </trkpt>
      <trkpt lat="43.16847" lon="-1.19512">
        <ele>200.650817</ele>
        <time>2026-05-22T07:45:37.000Z</time>
      </trkpt>
      <trkpt lat="43.16847" lon="-1.19522">
        <ele>200.495706</ele>
        <time>2026-05-22T07:45:38.000Z</time>
      </trkpt>
      <trkpt lat="43.16846" lon="-1.19533">
        <ele>200.337439</ele>
        <time>2026-05-22T07:45:39.000Z</time>
      </trkpt>
      <trkpt lat="43.16846" lon="-1.19543">
        <ele>200.177657</ele>
        <time>2026-05-22T07:45:40.000Z</time>
      </trkpt>
      <trkpt lat="43.16846" lon="-1.19554">
        <ele>200.005229</ele>
        <time>2026-05-22T07:45:41.000Z</time>
      </trkpt>
      <trkpt lat="43.16845" lon="-1.19565">
        <ele>199.816094</ele>
        <time>2026-05-22T07:45:42.000Z</time>
      </trkpt>
      <trkpt lat="43.16844" lon="-1.19576">
        <ele>199.626771</ele>
        <time>2026-05-22T07:45:43.000Z</time>
      </trkpt>
      <trkpt lat="43.16844" lon="-1.19587">
        <ele>199.43962</ele>
        <time>2026-05-22T07:45:44.000Z</time>
      </trkpt>
      <trkpt lat="43.16843" lon="-1.19598">
        <ele>199.249074</ele>
        <time>2026-05-22T07:45:45.000Z</time>
      </trkpt>
      <trkpt lat="43.16843" lon="-1.19609">
        <ele>199.0584</ele>
        <time>2026-05-22T07:45:46.000Z</time>
      </trkpt>
      <trkpt lat="43.16842" lon="-1.19621">
        <ele>198.867726</ele>
        <time>2026-05-22T07:45:47.000Z</time>
      </trkpt>
      <trkpt lat="43.16842" lon="-1.19632">
        <ele>198.675201</ele>
        <time>2026-05-22T07:45:48.000Z</time>
      </trkpt>
      <trkpt lat="43.16841" lon="-1.19643">
        <ele>198.482492</ele>
        <time>2026-05-22T07:45:49.000Z</time>
      </trkpt>
      <trkpt lat="43.16841" lon="-1.19654">
        <ele>198.295051</ele>
        <time>2026-05-22T07:45:50.000Z</time>
      </trkpt>
      <trkpt lat="43.1684" lon="-1.19665">
        <ele>198.107205</ele>
        <time>2026-05-22T07:45:51.000Z</time>
      </trkpt>
      <trkpt lat="43.16839" lon="-1.19676">
        <ele>197.921049</ele>
        <time>2026-05-22T07:45:52.000Z</time>
      </trkpt>
      <trkpt lat="43.16838" lon="-1.19687">
        <ele>197.736055</ele>
        <time>2026-05-22T07:45:53.000Z</time>
      </trkpt>
      <trkpt lat="43.16837" lon="-1.19698">
        <ele>197.552436</ele>
        <time>2026-05-22T07:45:54.000Z</time>
      </trkpt>
      <trkpt lat="43.16836" lon="-1.19709">
        <ele>197.366033</ele>
        <time>2026-05-22T07:45:55.000Z</time>
      </trkpt>
      <trkpt lat="43.16835" lon="-1.19719">
        <ele>197.181039</ele>
        <time>2026-05-22T07:45:56.000Z</time>
      </trkpt>
      <trkpt lat="43.16834" lon="-1.1973">
        <ele>196.998388</ele>
        <time>2026-05-22T07:45:57.000Z</time>
      </trkpt>
      <trkpt lat="43.16832" lon="-1.19741">
        <ele>196.813664</ele>
        <time>2026-05-22T07:45:58.000Z</time>
      </trkpt>
      <trkpt lat="43.16831" lon="-1.19752">
        <ele>196.625175</ele>
        <time>2026-05-22T07:45:59.000Z</time>
      </trkpt>
      <trkpt lat="43.16829" lon="-1.19762">
        <ele>196.443361</ele>
        <time>2026-05-22T07:46:00.000Z</time>
      </trkpt>
      <trkpt lat="43.16828" lon="-1.19772">
        <ele>196.263652</ele>
        <time>2026-05-22T07:46:01.000Z</time>
      </trkpt>
      <trkpt lat="43.16826" lon="-1.19783">
        <ele>196.084202</ele>
        <time>2026-05-22T07:46:02.000Z</time>
      </trkpt>
      <trkpt lat="43.16824" lon="-1.19793">
        <ele>195.922396</ele>
        <time>2026-05-22T07:46:03.000Z</time>
      </trkpt>
      <trkpt lat="43.16822" lon="-1.19803">
        <ele>195.945516</ele>
        <time>2026-05-22T07:46:04.000Z</time>
      </trkpt>
      <trkpt lat="43.1682" lon="-1.19813">
        <ele>195.968286</ele>
        <time>2026-05-22T07:46:05.000Z</time>
      </trkpt>
      <trkpt lat="43.16818" lon="-1.19823">
        <ele>195.990843</ele>
        <time>2026-05-22T07:46:06.000Z</time>
      </trkpt>
      <trkpt lat="43.16816" lon="-1.19833">
        <ele>196.01332</ele>
        <time>2026-05-22T07:46:07.000Z</time>
      </trkpt>
      <trkpt lat="43.16815" lon="-1.19842">
        <ele>196.035505</ele>
        <time>2026-05-22T07:46:08.000Z</time>
      </trkpt>
      <trkpt lat="43.16813" lon="-1.19852">
        <ele>196.057422</ele>
        <time>2026-05-22T07:46:09.000Z</time>
      </trkpt>
      <trkpt lat="43.16811" lon="-1.19861">
        <ele>196.079214</ele>
        <time>2026-05-22T07:46:10.000Z</time>
      </trkpt>
      <trkpt lat="43.16809" lon="-1.19871">
        <ele>196.100835</ele>
        <time>2026-05-22T07:46:11.000Z</time>
      </trkpt>
      <trkpt lat="43.16806" lon="-1.1988">
        <ele>196.121874</ele>
        <time>2026-05-22T07:46:12.000Z</time>
      </trkpt>
      <trkpt lat="43.16804" lon="-1.19888">
        <ele>196.142907</ele>
        <time>2026-05-22T07:46:13.000Z</time>
      </trkpt>
      <trkpt lat="43.16802" lon="-1.19897">
        <ele>196.163338</ele>
        <time>2026-05-22T07:46:14.000Z</time>
      </trkpt>
      <trkpt lat="43.168" lon="-1.19906">
        <ele>196.183468</ele>
        <time>2026-05-22T07:46:15.000Z</time>
      </trkpt>
      <trkpt lat="43.16798" lon="-1.19914">
        <ele>196.203174</ele>
        <time>2026-05-22T07:46:16.000Z</time>
      </trkpt>
      <trkpt lat="43.16796" lon="-1.19922">
        <ele>196.222125</ele>
        <time>2026-05-22T07:46:17.000Z</time>
      </trkpt>
      <trkpt lat="43.16794" lon="-1.1993">
        <ele>196.24087</ele>
        <time>2026-05-22T07:46:18.000Z</time>
      </trkpt>
      <trkpt lat="43.16792" lon="-1.19938">
        <ele>196.259716</ele>
        <time>2026-05-22T07:46:19.000Z</time>
      </trkpt>
      <trkpt lat="43.1679" lon="-1.19946">
        <ele>196.278667</ele>
        <time>2026-05-22T07:46:20.000Z</time>
      </trkpt>
      <trkpt lat="43.16788" lon="-1.19954">
        <ele>196.297106</ele>
        <time>2026-05-22T07:46:21.000Z</time>
      </trkpt>
      <trkpt lat="43.16786" lon="-1.19962">
        <ele>196.315223</ele>
        <time>2026-05-22T07:46:22.000Z</time>
      </trkpt>
      <trkpt lat="43.16784" lon="-1.1997">
        <ele>196.333238</ele>
        <time>2026-05-22T07:46:23.000Z</time>
      </trkpt>
      <trkpt lat="43.16782" lon="-1.19977">
        <ele>196.351045</ele>
        <time>2026-05-22T07:46:24.000Z</time>
      </trkpt>
      <trkpt lat="43.1678" lon="-1.19985">
        <ele>196.368434</ele>
        <time>2026-05-22T07:46:25.000Z</time>
      </trkpt>
      <trkpt lat="43.16778" lon="-1.19992">
        <ele>196.386135</ele>
        <time>2026-05-22T07:46:26.000Z</time>
      </trkpt>
      <trkpt lat="43.16776" lon="-1.19999">
        <ele>196.403323</ele>
        <time>2026-05-22T07:46:27.000Z</time>
      </trkpt>
      <trkpt lat="43.16774" lon="-1.20007">
        <ele>196.420608</ele>
        <time>2026-05-22T07:46:28.000Z</time>
      </trkpt>
      <trkpt lat="43.16772" lon="-1.20014">
        <ele>196.437893</ele>
        <time>2026-05-22T07:46:29.000Z</time>
      </trkpt>
      <trkpt lat="43.1677" lon="-1.20021">
        <ele>196.454657</ele>
        <time>2026-05-22T07:46:30.000Z</time>
      </trkpt>
      <trkpt lat="43.16768" lon="-1.20028">
        <ele>196.423596</ele>
        <time>2026-05-22T07:46:31.000Z</time>
      </trkpt>
      <trkpt lat="43.16766" lon="-1.20036">
        <ele>196.260326</ele>
        <time>2026-05-22T07:46:32.000Z</time>
      </trkpt>
      <trkpt lat="43.16764" lon="-1.20043">
        <ele>196.100953</ele>
        <time>2026-05-22T07:46:33.000Z</time>
      </trkpt>
      <trkpt lat="43.16762" lon="-1.2005">
        <ele>195.937701</ele>
        <time>2026-05-22T07:46:34.000Z</time>
      </trkpt>
      <trkpt lat="43.1676" lon="-1.20058">
        <ele>195.774449</ele>
        <time>2026-05-22T07:46:35.000Z</time>
      </trkpt>
      <trkpt lat="43.16758" lon="-1.20065">
        <ele>195.61025</ele>
        <time>2026-05-22T07:46:36.000Z</time>
      </trkpt>
      <trkpt lat="43.16756" lon="-1.20073">
        <ele>195.447901</ele>
        <time>2026-05-22T07:46:37.000Z</time>
      </trkpt>
      <trkpt lat="43.16754" lon="-1.2008">
        <ele>195.282705</ele>
        <time>2026-05-22T07:46:38.000Z</time>
      </trkpt>
      <trkpt lat="43.16752" lon="-1.20089">
        <ele>195.106868</ele>
        <time>2026-05-22T07:46:39.000Z</time>
      </trkpt>
      <trkpt lat="43.1675" lon="-1.20097">
        <ele>194.929142</ele>
        <time>2026-05-22T07:46:40.000Z</time>
      </trkpt>
      <trkpt lat="43.16748" lon="-1.20105">
        <ele>194.752381</ele>
        <time>2026-05-22T07:46:41.000Z</time>
      </trkpt>
      <trkpt lat="43.16746" lon="-1.20113">
        <ele>194.572644</ele>
        <time>2026-05-22T07:46:42.000Z</time>
      </trkpt>
      <trkpt lat="43.16744" lon="-1.20122">
        <ele>194.388112</ele>
        <time>2026-05-22T07:46:43.000Z</time>
      </trkpt>
      <trkpt lat="43.16742" lon="-1.2013">
        <ele>194.197834</ele>
        <time>2026-05-22T07:46:44.000Z</time>
      </trkpt>
      <trkpt lat="43.16739" lon="-1.20139">
        <ele>194.006554</ele>
        <time>2026-05-22T07:46:45.000Z</time>
      </trkpt>
      <trkpt lat="43.16737" lon="-1.20148">
        <ele>193.810465</ele>
        <time>2026-05-22T07:46:46.000Z</time>
      </trkpt>
      <trkpt lat="43.16735" lon="-1.20157">
        <ele>193.61049</ele>
        <time>2026-05-22T07:46:47.000Z</time>
      </trkpt>
      <trkpt lat="43.16732" lon="-1.20167">
        <ele>193.405706</ele>
        <time>2026-05-22T07:46:48.000Z</time>
      </trkpt>
      <trkpt lat="43.1673" lon="-1.20176">
        <ele>193.194168</ele>
        <time>2026-05-22T07:46:49.000Z</time>
      </trkpt>
      <trkpt lat="43.16727" lon="-1.20186">
        <ele>192.97781</ele>
        <time>2026-05-22T07:46:50.000Z</time>
      </trkpt>
      <trkpt lat="43.16725" lon="-1.20196">
        <ele>192.758552</ele>
        <time>2026-05-22T07:46:51.000Z</time>
      </trkpt>
      <trkpt lat="43.16722" lon="-1.20206">
        <ele>192.535362</ele>
        <time>2026-05-22T07:46:52.000Z</time>
      </trkpt>
      <trkpt lat="43.16719" lon="-1.20217">
        <ele>192.304499</ele>
        <time>2026-05-22T07:46:53.000Z</time>
      </trkpt>
      <trkpt lat="43.16716" lon="-1.20227">
        <ele>192.070707</ele>
        <time>2026-05-22T07:46:54.000Z</time>
      </trkpt>
      <trkpt lat="43.16713" lon="-1.20238">
        <ele>191.834997</ele>
        <time>2026-05-22T07:46:55.000Z</time>
      </trkpt>
      <trkpt lat="43.16709" lon="-1.20249">
        <ele>191.593123</ele>
        <time>2026-05-22T07:46:56.000Z</time>
      </trkpt>
      <trkpt lat="43.16706" lon="-1.2026">
        <ele>191.338916</ele>
        <time>2026-05-22T07:46:57.000Z</time>
      </trkpt>
      <trkpt lat="43.16702" lon="-1.2027">
        <ele>191.031108</ele>
        <time>2026-05-22T07:46:58.000Z</time>
      </trkpt>
      <trkpt lat="43.16697" lon="-1.20281">
        <ele>190.72145</ele>
        <time>2026-05-22T07:46:59.000Z</time>
      </trkpt>
      <trkpt lat="43.16692" lon="-1.20292">
        <ele>190.402309</ele>
        <time>2026-05-22T07:47:00.000Z</time>
      </trkpt>
      <trkpt lat="43.16687" lon="-1.20302">
        <ele>190.075432</ele>
        <time>2026-05-22T07:47:01.000Z</time>
      </trkpt>
      <trkpt lat="43.16681" lon="-1.20312">
        <ele>189.744148</ele>
        <time>2026-05-22T07:47:02.000Z</time>
      </trkpt>
      <trkpt lat="43.16674" lon="-1.20322">
        <ele>189.41299</ele>
        <time>2026-05-22T07:47:03.000Z</time>
      </trkpt>
      <trkpt lat="43.16667" lon="-1.20331">
        <ele>189.08288</ele>
        <time>2026-05-22T07:47:04.000Z</time>
      </trkpt>
      <trkpt lat="43.1666" lon="-1.20339">
        <ele>188.75254</ele>
        <time>2026-05-22T07:47:05.000Z</time>
      </trkpt>
      <trkpt lat="43.16653" lon="-1.20347">
        <ele>188.439353</ele>
        <time>2026-05-22T07:47:06.000Z</time>
      </trkpt>
      <trkpt lat="43.16645" lon="-1.20353">
        <ele>188.144645</ele>
        <time>2026-05-22T07:47:07.000Z</time>
      </trkpt>
      <trkpt lat="43.16639" lon="-1.20358">
        <ele>187.872657</ele>
        <time>2026-05-22T07:47:08.000Z</time>
      </trkpt>
      <trkpt lat="43.16633" lon="-1.20364">
        <ele>187.619594</ele>
        <time>2026-05-22T07:47:09.000Z</time>
      </trkpt>
      <trkpt lat="43.16627" lon="-1.2037">
        <ele>187.373705</ele>
        <time>2026-05-22T07:47:10.000Z</time>
      </trkpt>
      <trkpt lat="43.16621" lon="-1.20375">
        <ele>187.135933</ele>
        <time>2026-05-22T07:47:11.000Z</time>
      </trkpt>
      <trkpt lat="43.16617" lon="-1.20382">
        <ele>186.903803</ele>
        <time>2026-05-22T07:47:12.000Z</time>
      </trkpt>
      <trkpt lat="43.16613" lon="-1.2039">
        <ele>186.675003</ele>
        <time>2026-05-22T07:47:13.000Z</time>
      </trkpt>
      <trkpt lat="43.1661" lon="-1.20397">
        <ele>186.446545</ele>
        <time>2026-05-22T07:47:14.000Z</time>
      </trkpt>
      <trkpt lat="43.16608" lon="-1.20406">
        <ele>186.228591</ele>
        <time>2026-05-22T07:47:15.000Z</time>
      </trkpt>
      <trkpt lat="43.16608" lon="-1.20415">
        <ele>186.00103</ele>
        <time>2026-05-22T07:47:16.000Z</time>
      </trkpt>
      <trkpt lat="43.16609" lon="-1.20424">
        <ele>185.767176</ele>
        <time>2026-05-22T07:47:17.000Z</time>
      </trkpt>
      <trkpt lat="43.1661" lon="-1.20433">
        <ele>185.533384</ele>
        <time>2026-05-22T07:47:18.000Z</time>
      </trkpt>
      <trkpt lat="43.16611" lon="-1.20442">
        <ele>185.297688</ele>
        <time>2026-05-22T07:47:19.000Z</time>
      </trkpt>
      <trkpt lat="43.16612" lon="-1.20452">
        <ele>185.12427</ele>
        <time>2026-05-22T07:47:20.000Z</time>
      </trkpt>
      <trkpt lat="43.16613" lon="-1.20461">
        <ele>185.037563</ele>
        <time>2026-05-22T07:47:21.000Z</time>
      </trkpt>
      <trkpt lat="43.16614" lon="-1.20471">
        <ele>184.949531</ele>
        <time>2026-05-22T07:47:22.000Z</time>
      </trkpt>
      <trkpt lat="43.16616" lon="-1.2048">
        <ele>184.860604</ele>
        <time>2026-05-22T07:47:23.000Z</time>
      </trkpt>
      <trkpt lat="43.16617" lon="-1.2049">
        <ele>184.770999</ele>
        <time>2026-05-22T07:47:24.000Z</time>
      </trkpt>
      <trkpt lat="43.16618" lon="-1.205">
        <ele>184.680495</ele>
        <time>2026-05-22T07:47:25.000Z</time>
      </trkpt>
      <trkpt lat="43.16619" lon="-1.20509">
        <ele>184.59089</ele>
        <time>2026-05-22T07:47:26.000Z</time>
      </trkpt>
      <trkpt lat="43.16621" lon="-1.20519">
        <ele>184.500386</ele>
        <time>2026-05-22T07:47:27.000Z</time>
      </trkpt>
      <trkpt lat="43.16621" lon="-1.20529">
        <ele>184.410427</ele>
        <time>2026-05-22T07:47:28.000Z</time>
      </trkpt>
      <trkpt lat="43.16622" lon="-1.20539">
        <ele>184.319401</ele>
        <time>2026-05-22T07:47:29.000Z</time>
      </trkpt>
      <trkpt lat="43.16623" lon="-1.20549">
        <ele>184.228539</ele>
        <time>2026-05-22T07:47:30.000Z</time>
      </trkpt>
      <trkpt lat="43.16624" lon="-1.20558">
        <ele>184.139317</ele>
        <time>2026-05-22T07:47:31.000Z</time>
      </trkpt>
      <trkpt lat="43.16625" lon="-1.20568">
        <ele>184.049193</ele>
        <time>2026-05-22T07:47:32.000Z</time>
      </trkpt>
      <trkpt lat="43.16626" lon="-1.20578">
        <ele>183.960138</ele>
        <time>2026-05-22T07:47:33.000Z</time>
      </trkpt>
      <trkpt lat="43.16627" lon="-1.20588">
        <ele>183.870916</ele>
        <time>2026-05-22T07:47:34.000Z</time>
      </trkpt>
      <trkpt lat="43.16628" lon="-1.20597">
        <ele>183.782596</ele>
        <time>2026-05-22T07:47:35.000Z</time>
      </trkpt>
      <trkpt lat="43.16629" lon="-1.20607">
        <ele>183.69698</ele>
        <time>2026-05-22T07:47:36.000Z</time>
      </trkpt>
      <trkpt lat="43.1663" lon="-1.20616">
        <ele>183.610274</ele>
        <time>2026-05-22T07:47:37.000Z</time>
      </trkpt>
      <trkpt lat="43.16632" lon="-1.20625">
        <ele>183.523137</ele>
        <time>2026-05-22T07:47:38.000Z</time>
      </trkpt>
      <trkpt lat="43.16633" lon="-1.20635">
        <ele>183.436225</ele>
        <time>2026-05-22T07:47:39.000Z</time>
      </trkpt>
      <trkpt lat="43.16634" lon="-1.20644">
        <ele>183.350418</ele>
        <time>2026-05-22T07:47:40.000Z</time>
      </trkpt>
      <trkpt lat="43.16635" lon="-1.20653">
        <ele>183.263712</ele>
        <time>2026-05-22T07:47:41.000Z</time>
      </trkpt>
      <trkpt lat="43.16636" lon="-1.20663">
        <ele>183.179897</ele>
        <time>2026-05-22T07:47:42.000Z</time>
      </trkpt>
      <trkpt lat="43.16637" lon="-1.20672">
        <ele>183.096984</ele>
        <time>2026-05-22T07:47:43.000Z</time>
      </trkpt>
      <trkpt lat="43.16638" lon="-1.20681">
        <ele>183.013872</ele>
        <time>2026-05-22T07:47:44.000Z</time>
      </trkpt>
      <trkpt lat="43.16639" lon="-1.2069">
        <ele>182.930761</ele>
        <time>2026-05-22T07:47:45.000Z</time>
      </trkpt>
      <trkpt lat="43.1664" lon="-1.20699">
        <ele>182.857397</ele>
        <time>2026-05-22T07:47:46.000Z</time>
      </trkpt>
      <trkpt lat="43.16641" lon="-1.20708">
        <ele>182.786283</ele>
        <time>2026-05-22T07:47:47.000Z</time>
      </trkpt>
      <trkpt lat="43.16642" lon="-1.20717">
        <ele>182.716851</ele>
        <time>2026-05-22T07:47:48.000Z</time>
      </trkpt>
      <trkpt lat="43.16643" lon="-1.20726">
        <ele>182.646151</ele>
        <time>2026-05-22T07:47:49.000Z</time>
      </trkpt>
      <trkpt lat="43.16645" lon="-1.20735">
        <ele>182.575452</ele>
        <time>2026-05-22T07:47:50.000Z</time>
      </trkpt>
      <trkpt lat="43.16646" lon="-1.20744">
        <ele>182.504338</ele>
        <time>2026-05-22T07:47:51.000Z</time>
      </trkpt>
      <trkpt lat="43.16647" lon="-1.20753">
        <ele>182.432297</ele>
        <time>2026-05-22T07:47:52.000Z</time>
      </trkpt>
      <trkpt lat="43.16648" lon="-1.20762">
        <ele>182.361018</ele>
        <time>2026-05-22T07:47:53.000Z</time>
      </trkpt>
      <trkpt lat="43.16649" lon="-1.20771">
        <ele>182.28745</ele>
        <time>2026-05-22T07:47:54.000Z</time>
      </trkpt>
      <trkpt lat="43.1665" lon="-1.20781">
        <ele>182.213279</ele>
        <time>2026-05-22T07:47:55.000Z</time>
      </trkpt>
      <trkpt lat="43.16651" lon="-1.2079">
        <ele>182.138775</ele>
        <time>2026-05-22T07:47:56.000Z</time>
      </trkpt>
      <trkpt lat="43.16652" lon="-1.208">
        <ele>182.063682</ele>
        <time>2026-05-22T07:47:57.000Z</time>
      </trkpt>
      <trkpt lat="43.16653" lon="-1.2081">
        <ele>181.988746</ele>
        <time>2026-05-22T07:47:58.000Z</time>
      </trkpt>
      <trkpt lat="43.16654" lon="-1.20819">
        <ele>181.912889</ele>
        <time>2026-05-22T07:47:59.000Z</time>
      </trkpt>
      <trkpt lat="43.16655" lon="-1.20829">
        <ele>181.8361</ele>
        <time>2026-05-22T07:48:00.000Z</time>
      </trkpt>
      <trkpt lat="43.16657" lon="-1.20839">
        <ele>181.758716</ele>
        <time>2026-05-22T07:48:01.000Z</time>
      </trkpt>
      <trkpt lat="43.16658" lon="-1.20849">
        <ele>181.680568</ele>
        <time>2026-05-22T07:48:02.000Z</time>
      </trkpt>
      <trkpt lat="43.16659" lon="-1.20859">
        <ele>181.602707</ele>
        <time>2026-05-22T07:48:03.000Z</time>
      </trkpt>
      <trkpt lat="43.1666" lon="-1.20869">
        <ele>181.526087</ele>
        <time>2026-05-22T07:48:04.000Z</time>
      </trkpt>
      <trkpt lat="43.16661" lon="-1.20879">
        <ele>181.449466</ele>
        <time>2026-05-22T07:48:05.000Z</time>
      </trkpt>
      <trkpt lat="43.16662" lon="-1.20889">
        <ele>181.370554</ele>
        <time>2026-05-22T07:48:06.000Z</time>
      </trkpt>
      <trkpt lat="43.16663" lon="-1.20899">
        <ele>181.292406</ele>
        <time>2026-05-22T07:48:07.000Z</time>
      </trkpt>
      <trkpt lat="43.16664" lon="-1.20909">
        <ele>181.214408</ele>
        <time>2026-05-22T07:48:08.000Z</time>
      </trkpt>
      <trkpt lat="43.16665" lon="-1.20919">
        <ele>181.13762</ele>
        <time>2026-05-22T07:48:09.000Z</time>
      </trkpt>
      <trkpt lat="43.16666" lon="-1.20928">
        <ele>181.062526</ele>
        <time>2026-05-22T07:48:10.000Z</time>
      </trkpt>
      <trkpt lat="43.16667" lon="-1.20938">
        <ele>180.991539</ele>
        <time>2026-05-22T07:48:11.000Z</time>
      </trkpt>
      <trkpt lat="43.16668" lon="-1.20947">
        <ele>180.924989</ele>
        <time>2026-05-22T07:48:12.000Z</time>
      </trkpt>
      <trkpt lat="43.16669" lon="-1.20957">
        <ele>180.858439</ele>
        <time>2026-05-22T07:48:13.000Z</time>
      </trkpt>
      <trkpt lat="43.1667" lon="-1.20967">
        <ele>180.792562</ele>
        <time>2026-05-22T07:48:14.000Z</time>
      </trkpt>
      <trkpt lat="43.16672" lon="-1.20976">
        <ele>180.726395</ele>
        <time>2026-05-22T07:48:15.000Z</time>
      </trkpt>
      <trkpt lat="43.16673" lon="-1.20986">
        <ele>180.66119</ele>
        <time>2026-05-22T07:48:16.000Z</time>
      </trkpt>
      <trkpt lat="43.16673" lon="-1.20995">
        <ele>180.597459</ele>
        <time>2026-05-22T07:48:17.000Z</time>
      </trkpt>
      <trkpt lat="43.16674" lon="-1.21004">
        <ele>180.533055</ele>
        <time>2026-05-22T07:48:18.000Z</time>
      </trkpt>
      <trkpt lat="43.16675" lon="-1.21014">
        <ele>180.467177</ele>
        <time>2026-05-22T07:48:19.000Z</time>
      </trkpt>
      <trkpt lat="43.16676" lon="-1.21024">
        <ele>180.401538</ele>
        <time>2026-05-22T07:48:20.000Z</time>
      </trkpt>
      <trkpt lat="43.16677" lon="-1.21033">
        <ele>180.336573</ele>
        <time>2026-05-22T07:48:21.000Z</time>
      </trkpt>
      <trkpt lat="43.16678" lon="-1.21042">
        <ele>180.272168</ele>
        <time>2026-05-22T07:48:22.000Z</time>
      </trkpt>
      <trkpt lat="43.16679" lon="-1.21052">
        <ele>180.207635</ele>
        <time>2026-05-22T07:48:23.000Z</time>
      </trkpt>
      <trkpt lat="43.1668" lon="-1.21061">
        <ele>180.143775</ele>
        <time>2026-05-22T07:48:24.000Z</time>
      </trkpt>
      <trkpt lat="43.16681" lon="-1.2107">
        <ele>180.080587</ele>
        <time>2026-05-22T07:48:25.000Z</time>
      </trkpt>
      <trkpt lat="43.16682" lon="-1.2108">
        <ele>180.017646</ele>
        <time>2026-05-22T07:48:26.000Z</time>
      </trkpt>
      <trkpt lat="43.16683" lon="-1.21089">
        <ele>179.954984</ele>
        <time>2026-05-22T07:48:27.000Z</time>
      </trkpt>
      <trkpt lat="43.16684" lon="-1.21098">
        <ele>179.890579</ele>
        <time>2026-05-22T07:48:28.000Z</time>
      </trkpt>
      <trkpt lat="43.16685" lon="-1.21108">
        <ele>179.825501</ele>
        <time>2026-05-22T07:48:29.000Z</time>
      </trkpt>
      <trkpt lat="43.16685" lon="-1.21117">
        <ele>179.761097</ele>
        <time>2026-05-22T07:48:30.000Z</time>
      </trkpt>
      <trkpt lat="43.16686" lon="-1.21126">
        <ele>179.696564</ele>
        <time>2026-05-22T07:48:31.000Z</time>
      </trkpt>
      <trkpt lat="43.16688" lon="-1.21136">
        <ele>179.633232</ele>
        <time>2026-05-22T07:48:32.000Z</time>
      </trkpt>
      <trkpt lat="43.16688" lon="-1.21145">
        <ele>179.570174</ele>
        <time>2026-05-22T07:48:33.000Z</time>
      </trkpt>
      <trkpt lat="43.16689" lon="-1.21154">
        <ele>179.506443</ele>
        <time>2026-05-22T07:48:34.000Z</time>
      </trkpt>
      <trkpt lat="43.1669" lon="-1.21163">
        <ele>179.442712</ele>
        <time>2026-05-22T07:48:35.000Z</time>
      </trkpt>
      <trkpt lat="43.16691" lon="-1.21173">
        <ele>179.377747</ele>
        <time>2026-05-22T07:48:36.000Z</time>
      </trkpt>
      <trkpt lat="43.16692" lon="-1.21182">
        <ele>179.300892</ele>
        <time>2026-05-22T07:48:37.000Z</time>
      </trkpt>
      <trkpt lat="43.16693" lon="-1.21192">
        <ele>179.203205</ele>
        <time>2026-05-22T07:48:38.000Z</time>
      </trkpt>
      <trkpt lat="43.16694" lon="-1.21201">
        <ele>179.103238</ele>
        <time>2026-05-22T07:48:39.000Z</time>
      </trkpt>
      <trkpt lat="43.16695" lon="-1.21211">
        <ele>179.002479</ele>
        <time>2026-05-22T07:48:40.000Z</time>
      </trkpt>
      <trkpt lat="43.16696" lon="-1.21221">
        <ele>178.899036</ele>
        <time>2026-05-22T07:48:41.000Z</time>
      </trkpt>
      <trkpt lat="43.16697" lon="-1.21231">
        <ele>178.79576</ele>
        <time>2026-05-22T07:48:42.000Z</time>
      </trkpt>
      <trkpt lat="43.16698" lon="-1.2124">
        <ele>178.696238</ele>
        <time>2026-05-22T07:48:43.000Z</time>
      </trkpt>
      <trkpt lat="43.16699" lon="-1.21249">
        <ele>178.598314</ele>
        <time>2026-05-22T07:48:44.000Z</time>
      </trkpt>
      <trkpt lat="43.16701" lon="-1.21259">
        <ele>178.497822</ele>
        <time>2026-05-22T07:48:45.000Z</time>
      </trkpt>
      <trkpt lat="43.16702" lon="-1.21269">
        <ele>178.395221</ele>
        <time>2026-05-22T07:48:46.000Z</time>
      </trkpt>
      <trkpt lat="43.16703" lon="-1.21279">
        <ele>178.28972</ele>
        <time>2026-05-22T07:48:47.000Z</time>
      </trkpt>
      <trkpt lat="43.16704" lon="-1.21288">
        <ele>178.188481</ele>
        <time>2026-05-22T07:48:48.000Z</time>
      </trkpt>
      <trkpt lat="43.16705" lon="-1.21298">
        <ele>178.088514</ele>
        <time>2026-05-22T07:48:49.000Z</time>
      </trkpt>
      <trkpt lat="43.16706" lon="-1.21307">
        <ele>177.987756</ele>
        <time>2026-05-22T07:48:50.000Z</time>
      </trkpt>
      <trkpt lat="43.16707" lon="-1.21317">
        <ele>177.887208</ele>
        <time>2026-05-22T07:48:51.000Z</time>
      </trkpt>
      <trkpt lat="43.16708" lon="-1.21327">
        <ele>177.785197</ele>
        <time>2026-05-22T07:48:52.000Z</time>
      </trkpt>
      <trkpt lat="43.1671" lon="-1.21336">
        <ele>177.68523</ele>
        <time>2026-05-22T07:48:53.000Z</time>
      </trkpt>
      <trkpt lat="43.16711" lon="-1.21346">
        <ele>177.583219</ele>
        <time>2026-05-22T07:48:54.000Z</time>
      </trkpt>
      <trkpt lat="43.16712" lon="-1.21356">
        <ele>177.479386</ele>
        <time>2026-05-22T07:48:55.000Z</time>
      </trkpt>
      <trkpt lat="43.16713" lon="-1.21366">
        <ele>177.375554</ele>
        <time>2026-05-22T07:48:56.000Z</time>
      </trkpt>
      <trkpt lat="43.16714" lon="-1.21376">
        <ele>177.270696</ele>
        <time>2026-05-22T07:48:57.000Z</time>
      </trkpt>
      <trkpt lat="43.16715" lon="-1.21386">
        <ele>177.166864</ele>
        <time>2026-05-22T07:48:58.000Z</time>
      </trkpt>
      <trkpt lat="43.16716" lon="-1.21396">
        <ele>177.063236</ele>
        <time>2026-05-22T07:48:59.000Z</time>
      </trkpt>
      <trkpt lat="43.16717" lon="-1.21406">
        <ele>176.957353</ele>
        <time>2026-05-22T07:49:00.000Z</time>
      </trkpt>
      <trkpt lat="43.16718" lon="-1.21416">
        <ele>176.85147</ele>
        <time>2026-05-22T07:49:01.000Z</time>
      </trkpt>
      <trkpt lat="43.16719" lon="-1.21426">
        <ele>176.750711</ele>
        <time>2026-05-22T07:49:02.000Z</time>
      </trkpt>
      <trkpt lat="43.1672" lon="-1.21436">
        <ele>176.660768</ele>
        <time>2026-05-22T07:49:03.000Z</time>
      </trkpt>
      <trkpt lat="43.16721" lon="-1.21446">
        <ele>176.571547</ele>
        <time>2026-05-22T07:49:04.000Z</time>
      </trkpt>
      <trkpt lat="43.16722" lon="-1.21456">
        <ele>176.480405</ele>
        <time>2026-05-22T07:49:05.000Z</time>
      </trkpt>
      <trkpt lat="43.16723" lon="-1.21467">
        <ele>176.387679</ele>
        <time>2026-05-22T07:49:06.000Z</time>
      </trkpt>
      <trkpt lat="43.16725" lon="-1.21477">
        <ele>176.294409</ele>
        <time>2026-05-22T07:49:07.000Z</time>
      </trkpt>
      <trkpt lat="43.16726" lon="-1.21487">
        <ele>176.201138</ele>
        <time>2026-05-22T07:49:08.000Z</time>
      </trkpt>
      <trkpt lat="43.16727" lon="-1.21498">
        <ele>176.107191</ele>
        <time>2026-05-22T07:49:09.000Z</time>
      </trkpt>
      <trkpt lat="43.16728" lon="-1.21508">
        <ele>176.013245</ele>
        <time>2026-05-22T07:49:10.000Z</time>
      </trkpt>
      <trkpt lat="43.1673" lon="-1.21519">
        <ele>175.919975</ele>
        <time>2026-05-22T07:49:11.000Z</time>
      </trkpt>
      <trkpt lat="43.16731" lon="-1.21529">
        <ele>175.826704</ele>
        <time>2026-05-22T07:49:12.000Z</time>
      </trkpt>
      <trkpt lat="43.16732" lon="-1.21539">
        <ele>175.734504</ele>
        <time>2026-05-22T07:49:13.000Z</time>
      </trkpt>
      <trkpt lat="43.16733" lon="-1.2155">
        <ele>175.642487</ele>
        <time>2026-05-22T07:49:14.000Z</time>
      </trkpt>
      <trkpt lat="43.16734" lon="-1.2156">
        <ele>175.551159</ele>
        <time>2026-05-22T07:49:15.000Z</time>
      </trkpt>
      <trkpt lat="43.16736" lon="-1.2157">
        <ele>175.460704</ele>
        <time>2026-05-22T07:49:16.000Z</time>
      </trkpt>
      <trkpt lat="43.16737" lon="-1.2158">
        <ele>175.370436</ele>
        <time>2026-05-22T07:49:17.000Z</time>
      </trkpt>
      <trkpt lat="43.16738" lon="-1.2159">
        <ele>175.281917</ele>
        <time>2026-05-22T07:49:18.000Z</time>
      </trkpt>
      <trkpt lat="43.16739" lon="-1.216">
        <ele>175.19182</ele>
        <time>2026-05-22T07:49:19.000Z</time>
      </trkpt>
      <trkpt lat="43.1674" lon="-1.2161">
        <ele>175.10435</ele>
        <time>2026-05-22T07:49:20.000Z</time>
      </trkpt>
      <trkpt lat="43.16741" lon="-1.2162">
        <ele>175.017383</ele>
        <time>2026-05-22T07:49:21.000Z</time>
      </trkpt>
      <trkpt lat="43.16742" lon="-1.21629">
        <ele>174.930416</ele>
        <time>2026-05-22T07:49:22.000Z</time>
      </trkpt>
      <trkpt lat="43.16743" lon="-1.21639">
        <ele>174.843821</ele>
        <time>2026-05-22T07:49:23.000Z</time>
      </trkpt>
      <trkpt lat="43.16744" lon="-1.21649">
        <ele>174.759141</ele>
        <time>2026-05-22T07:49:24.000Z</time>
      </trkpt>
      <trkpt lat="43.16745" lon="-1.21658">
        <ele>174.674297</ele>
        <time>2026-05-22T07:49:25.000Z</time>
      </trkpt>
      <trkpt lat="43.16746" lon="-1.21667">
        <ele>174.599251</ele>
        <time>2026-05-22T07:49:26.000Z</time>
      </trkpt>
      <trkpt lat="43.16747" lon="-1.21677">
        <ele>174.609336</ele>
        <time>2026-05-22T07:49:27.000Z</time>
      </trkpt>
      <trkpt lat="43.16748" lon="-1.21686">
        <ele>174.61944</ele>
        <time>2026-05-22T07:49:28.000Z</time>
      </trkpt>
      <trkpt lat="43.16749" lon="-1.21695">
        <ele>174.629435</ele>
        <time>2026-05-22T07:49:29.000Z</time>
      </trkpt>
      <trkpt lat="43.1675" lon="-1.21704">
        <ele>174.639321</ele>
        <time>2026-05-22T07:49:30.000Z</time>
      </trkpt>
      <trkpt lat="43.1675" lon="-1.21712">
        <ele>174.648771</ele>
        <time>2026-05-22T07:49:31.000Z</time>
      </trkpt>
      <trkpt lat="43.16751" lon="-1.2172">
        <ele>174.658113</ele>
        <time>2026-05-22T07:49:32.000Z</time>
      </trkpt>
      <trkpt lat="43.16752" lon="-1.21728">
        <ele>174.666962</ele>
        <time>2026-05-22T07:49:33.000Z</time>
      </trkpt>
      <trkpt lat="43.16753" lon="-1.21736">
        <ele>174.675567</ele>
        <time>2026-05-22T07:49:34.000Z</time>
      </trkpt>
      <trkpt lat="43.16754" lon="-1.21744">
        <ele>174.684256</ele>
        <time>2026-05-22T07:49:35.000Z</time>
      </trkpt>
      <trkpt lat="43.16755" lon="-1.21752">
        <ele>174.692923</ele>
        <time>2026-05-22T07:49:36.000Z</time>
      </trkpt>
      <trkpt lat="43.16756" lon="-1.21759">
        <ele>174.701589</ele>
        <time>2026-05-22T07:49:37.000Z</time>
      </trkpt>
      <trkpt lat="43.16757" lon="-1.21767">
        <ele>174.710169</ele>
        <time>2026-05-22T07:49:38.000Z</time>
      </trkpt>
      <trkpt lat="43.16758" lon="-1.21775">
        <ele>174.718509</ele>
        <time>2026-05-22T07:49:39.000Z</time>
      </trkpt>
      <trkpt lat="43.16759" lon="-1.21782">
        <ele>174.726898</ele>
        <time>2026-05-22T07:49:40.000Z</time>
      </trkpt>
      <trkpt lat="43.1676" lon="-1.2179">
        <ele>174.735178</ele>
        <time>2026-05-22T07:49:41.000Z</time>
      </trkpt>
      <trkpt lat="43.16761" lon="-1.21797">
        <ele>174.743459</ele>
        <time>2026-05-22T07:49:42.000Z</time>
      </trkpt>
      <trkpt lat="43.16761" lon="-1.21804">
        <ele>174.751472</ele>
        <time>2026-05-22T07:49:43.000Z</time>
      </trkpt>
      <trkpt lat="43.16762" lon="-1.21811">
        <ele>174.759594</ele>
        <time>2026-05-22T07:49:44.000Z</time>
      </trkpt>
      <trkpt lat="43.16763" lon="-1.21819">
        <ele>174.767499</ele>
        <time>2026-05-22T07:49:45.000Z</time>
      </trkpt>
      <trkpt lat="43.16764" lon="-1.21826">
        <ele>174.7756</ele>
        <time>2026-05-22T07:49:46.000Z</time>
      </trkpt>
      <trkpt lat="43.16765" lon="-1.21833">
        <ele>174.783722</ele>
        <time>2026-05-22T07:49:47.000Z</time>
      </trkpt>
      <trkpt lat="43.16765" lon="-1.21841">
        <ele>174.792023</ele>
        <time>2026-05-22T07:49:48.000Z</time>
      </trkpt>
      <trkpt lat="43.16766" lon="-1.21848">
        <ele>174.800343</ele>
        <time>2026-05-22T07:49:49.000Z</time>
      </trkpt>
      <trkpt lat="43.16767" lon="-1.21856">
        <ele>174.8089</ele>
        <time>2026-05-22T07:49:50.000Z</time>
      </trkpt>
      <trkpt lat="43.16768" lon="-1.21864">
        <ele>174.817698</ele>
        <time>2026-05-22T07:49:51.000Z</time>
      </trkpt>
      <trkpt lat="43.16768" lon="-1.21872">
        <ele>174.826473</ele>
        <time>2026-05-22T07:49:52.000Z</time>
      </trkpt>
      <trkpt lat="43.16769" lon="-1.21879">
        <ele>174.835139</ele>
        <time>2026-05-22T07:49:53.000Z</time>
      </trkpt>
      <trkpt lat="43.1677" lon="-1.21887">
        <ele>174.844024</ele>
        <time>2026-05-22T07:49:54.000Z</time>
      </trkpt>
      <trkpt lat="43.16771" lon="-1.21895">
        <ele>174.852954</ele>
        <time>2026-05-22T07:49:55.000Z</time>
      </trkpt>
      <trkpt lat="43.16772" lon="-1.21904">
        <ele>174.861969</ele>
        <time>2026-05-22T07:49:56.000Z</time>
      </trkpt>
      <trkpt lat="43.16773" lon="-1.21912">
        <ele>174.854728</ele>
        <time>2026-05-22T07:49:57.000Z</time>
      </trkpt>
      <trkpt lat="43.16774" lon="-1.2192">
        <ele>174.76721</ele>
        <time>2026-05-22T07:49:58.000Z</time>
      </trkpt>
      <trkpt lat="43.16775" lon="-1.21929">
        <ele>174.680251</ele>
        <time>2026-05-22T07:49:59.000Z</time>
      </trkpt>
      <trkpt lat="43.16776" lon="-1.21937">
        <ele>174.591516</ele>
        <time>2026-05-22T07:50:00.000Z</time>
      </trkpt>
      <trkpt lat="43.16777" lon="-1.21946">
        <ele>174.500972</ele>
        <time>2026-05-22T07:50:01.000Z</time>
      </trkpt>
      <trkpt lat="43.16778" lon="-1.21955">
        <ele>174.40841</ele>
        <time>2026-05-22T07:50:02.000Z</time>
      </trkpt>
      <trkpt lat="43.16778" lon="-1.21964">
        <ele>174.314838</ele>
        <time>2026-05-22T07:50:03.000Z</time>
      </trkpt>
      <trkpt lat="43.16779" lon="-1.21973">
        <ele>174.220433</ele>
        <time>2026-05-22T07:50:04.000Z</time>
      </trkpt>
      <trkpt lat="43.1678" lon="-1.21983">
        <ele>174.122422</ele>
        <time>2026-05-22T07:50:05.000Z</time>
      </trkpt>
      <trkpt lat="43.16781" lon="-1.21992">
        <ele>174.02462</ele>
        <time>2026-05-22T07:50:06.000Z</time>
      </trkpt>
      <trkpt lat="43.16782" lon="-1.22002">
        <ele>173.924801</ele>
        <time>2026-05-22T07:50:07.000Z</time>
      </trkpt>
      <trkpt lat="43.16783" lon="-1.22012">
        <ele>173.825168</ele>
        <time>2026-05-22T07:50:08.000Z</time>
      </trkpt>
      <trkpt lat="43.16784" lon="-1.22022">
        <ele>173.723129</ele>
        <time>2026-05-22T07:50:09.000Z</time>
      </trkpt>
      <trkpt lat="43.16785" lon="-1.22032">
        <ele>173.622098</ele>
        <time>2026-05-22T07:50:10.000Z</time>
      </trkpt>
      <trkpt lat="43.16787" lon="-1.22042">
        <ele>173.519052</ele>
        <time>2026-05-22T07:50:11.000Z</time>
      </trkpt>
      <trkpt lat="43.16788" lon="-1.22052">
        <ele>173.414784</ele>
        <time>2026-05-22T07:50:12.000Z</time>
      </trkpt>
      <trkpt lat="43.16789" lon="-1.22062">
        <ele>173.309278</ele>
        <time>2026-05-22T07:50:13.000Z</time>
      </trkpt>
      <trkpt lat="43.1679" lon="-1.22072">
        <ele>173.202997</ele>
        <time>2026-05-22T07:50:14.000Z</time>
      </trkpt>
      <trkpt lat="43.16791" lon="-1.22083">
        <ele>173.09571</ele>
        <time>2026-05-22T07:50:15.000Z</time>
      </trkpt>
      <trkpt lat="43.16793" lon="-1.22093">
        <ele>172.987624</ele>
        <time>2026-05-22T07:50:16.000Z</time>
      </trkpt>
      <trkpt lat="43.16794" lon="-1.22104">
        <ele>172.879331</ele>
        <time>2026-05-22T07:50:17.000Z</time>
      </trkpt>
      <trkpt lat="43.16795" lon="-1.22114">
        <ele>172.772044</ele>
        <time>2026-05-22T07:50:18.000Z</time>
      </trkpt>
      <trkpt lat="43.16796" lon="-1.22124">
        <ele>172.66375</ele>
        <time>2026-05-22T07:50:19.000Z</time>
      </trkpt>
      <trkpt lat="43.16797" lon="-1.22135">
        <ele>172.555457</ele>
        <time>2026-05-22T07:50:20.000Z</time>
      </trkpt>
      <trkpt lat="43.16798" lon="-1.22145">
        <ele>172.44838</ele>
        <time>2026-05-22T07:50:21.000Z</time>
      </trkpt>
      <trkpt lat="43.168" lon="-1.22156">
        <ele>172.349851</ele>
        <time>2026-05-22T07:50:22.000Z</time>
      </trkpt>
      <trkpt lat="43.168" lon="-1.22166">
        <ele>172.30153</ele>
        <time>2026-05-22T07:50:23.000Z</time>
      </trkpt>
      <trkpt lat="43.16801" lon="-1.22177">
        <ele>172.253884</ele>
        <time>2026-05-22T07:50:24.000Z</time>
      </trkpt>
      <trkpt lat="43.16803" lon="-1.22187">
        <ele>172.206142</ele>
        <time>2026-05-22T07:50:25.000Z</time>
      </trkpt>
      <trkpt lat="43.16804" lon="-1.22197">
        <ele>172.15965</ele>
        <time>2026-05-22T07:50:26.000Z</time>
      </trkpt>
      <trkpt lat="43.16805" lon="-1.22207">
        <ele>172.112595</ele>
        <time>2026-05-22T07:50:27.000Z</time>
      </trkpt>
      <trkpt lat="43.16807" lon="-1.22217">
        <ele>172.066103</ele>
        <time>2026-05-22T07:50:28.000Z</time>
      </trkpt>
      <trkpt lat="43.16808" lon="-1.22227">
        <ele>172.020844</ele>
        <time>2026-05-22T07:50:29.000Z</time>
      </trkpt>
      <trkpt lat="43.16809" lon="-1.22236">
        <ele>171.975253</ele>
        <time>2026-05-22T07:50:30.000Z</time>
      </trkpt>
      <trkpt lat="43.16811" lon="-1.22246">
        <ele>171.930222</ele>
        <time>2026-05-22T07:50:31.000Z</time>
      </trkpt>
      <trkpt lat="43.16812" lon="-1.22256">
        <ele>171.886647</ele>
        <time>2026-05-22T07:50:32.000Z</time>
      </trkpt>
      <trkpt lat="43.16813" lon="-1.22265">
        <ele>171.844073</ele>
        <time>2026-05-22T07:50:33.000Z</time>
      </trkpt>
      <trkpt lat="43.16814" lon="-1.22274">
        <ele>171.802041</ele>
        <time>2026-05-22T07:50:34.000Z</time>
      </trkpt>
      <trkpt lat="43.16815" lon="-1.22283">
        <ele>171.759822</ele>
        <time>2026-05-22T07:50:35.000Z</time>
      </trkpt>
      <trkpt lat="43.16816" lon="-1.22292">
        <ele>171.717946</ele>
        <time>2026-05-22T07:50:36.000Z</time>
      </trkpt>
      <trkpt lat="43.16817" lon="-1.22301">
        <ele>171.675372</ele>
        <time>2026-05-22T07:50:37.000Z</time>
      </trkpt>
      <trkpt lat="43.16818" lon="-1.2231">
        <ele>171.634055</ele>
        <time>2026-05-22T07:50:38.000Z</time>
      </trkpt>
      <trkpt lat="43.16819" lon="-1.22319">
        <ele>171.592839</ele>
        <time>2026-05-22T07:50:39.000Z</time>
      </trkpt>
      <trkpt lat="43.1682" lon="-1.22328">
        <ele>171.55117</ele>
        <time>2026-05-22T07:50:40.000Z</time>
      </trkpt>
      <trkpt lat="43.16821" lon="-1.22337">
        <ele>171.509502</ele>
        <time>2026-05-22T07:50:41.000Z</time>
      </trkpt>
      <trkpt lat="43.16822" lon="-1.22346">
        <ele>171.467059</ele>
        <time>2026-05-22T07:50:42.000Z</time>
      </trkpt>
      <trkpt lat="43.16823" lon="-1.22355">
        <ele>171.425291</ele>
        <time>2026-05-22T07:50:43.000Z</time>
      </trkpt>
      <trkpt lat="43.16824" lon="-1.22364">
        <ele>171.384166</ele>
        <time>2026-05-22T07:50:44.000Z</time>
      </trkpt>
      <trkpt lat="43.16825" lon="-1.22373">
        <ele>171.34295</ele>
        <time>2026-05-22T07:50:45.000Z</time>
      </trkpt>
      <trkpt lat="43.16826" lon="-1.22382">
        <ele>171.301734</ele>
        <time>2026-05-22T07:50:46.000Z</time>
      </trkpt>
      <trkpt lat="43.16827" lon="-1.22391">
        <ele>171.258794</ele>
        <time>2026-05-22T07:50:47.000Z</time>
      </trkpt>
      <trkpt lat="43.16828" lon="-1.224">
        <ele>171.215393</ele>
        <time>2026-05-22T07:50:48.000Z</time>
      </trkpt>
      <trkpt lat="43.16829" lon="-1.22409">
        <ele>171.166495</ele>
        <time>2026-05-22T07:50:49.000Z</time>
      </trkpt>
      <trkpt lat="43.1683" lon="-1.22418">
        <ele>171.117596</ele>
        <time>2026-05-22T07:50:50.000Z</time>
      </trkpt>
      <trkpt lat="43.16831" lon="-1.22426">
        <ele>171.070012</ele>
        <time>2026-05-22T07:50:51.000Z</time>
      </trkpt>
      <trkpt lat="43.16832" lon="-1.22435">
        <ele>171.021987</ele>
        <time>2026-05-22T07:50:52.000Z</time>
      </trkpt>
      <trkpt lat="43.16833" lon="-1.22444">
        <ele>170.973961</ele>
        <time>2026-05-22T07:50:53.000Z</time>
      </trkpt>
      <trkpt lat="43.16834" lon="-1.22452">
        <ele>170.925724</ele>
        <time>2026-05-22T07:50:54.000Z</time>
      </trkpt>
      <trkpt lat="43.16835" lon="-1.22461">
        <ele>170.877365</ele>
        <time>2026-05-22T07:50:55.000Z</time>
      </trkpt>
      <trkpt lat="43.16836" lon="-1.2247">
        <ele>170.828466</ele>
        <time>2026-05-22T07:50:56.000Z</time>
      </trkpt>
      <trkpt lat="43.16837" lon="-1.22479">
        <ele>170.778487</ele>
        <time>2026-05-22T07:50:57.000Z</time>
      </trkpt>
      <trkpt lat="43.16838" lon="-1.22488">
        <ele>170.72784</ele>
        <time>2026-05-22T07:50:58.000Z</time>
      </trkpt>
      <trkpt lat="43.1684" lon="-1.22497">
        <ele>170.677321</ele>
        <time>2026-05-22T07:50:59.000Z</time>
      </trkpt>
      <trkpt lat="43.16841" lon="-1.22506">
        <ele>170.627212</ele>
        <time>2026-05-22T07:51:00.000Z</time>
      </trkpt>
      <trkpt lat="43.16842" lon="-1.22515">
        <ele>170.577893</ele>
        <time>2026-05-22T07:51:01.000Z</time>
      </trkpt>
      <trkpt lat="43.16843" lon="-1.22524">
        <ele>170.529768</ele>
        <time>2026-05-22T07:51:02.000Z</time>
      </trkpt>
      <trkpt lat="43.16844" lon="-1.22532">
        <ele>170.482613</ele>
        <time>2026-05-22T07:51:03.000Z</time>
      </trkpt>
      <trkpt lat="43.16845" lon="-1.22541">
        <ele>170.434918</ele>
        <time>2026-05-22T07:51:04.000Z</time>
      </trkpt>
      <trkpt lat="43.16846" lon="-1.22549">
        <ele>170.388303</ele>
        <time>2026-05-22T07:51:05.000Z</time>
      </trkpt>
      <trkpt lat="43.16846" lon="-1.22557">
        <ele>170.34245</ele>
        <time>2026-05-22T07:51:06.000Z</time>
      </trkpt>
      <trkpt lat="43.16847" lon="-1.22566">
        <ele>170.296493</ele>
        <time>2026-05-22T07:51:07.000Z</time>
      </trkpt>
      <trkpt lat="43.16848" lon="-1.22574">
        <ele>170.249879</ele>
        <time>2026-05-22T07:51:08.000Z</time>
      </trkpt>
      <trkpt lat="43.16849" lon="-1.22582">
        <ele>170.20338</ele>
        <time>2026-05-22T07:51:09.000Z</time>
      </trkpt>
      <trkpt lat="43.1685" lon="-1.22591">
        <ele>170.158386</ele>
        <time>2026-05-22T07:51:10.000Z</time>
      </trkpt>
      <trkpt lat="43.16851" lon="-1.22599">
        <ele>170.113262</ele>
        <time>2026-05-22T07:51:11.000Z</time>
      </trkpt>
      <trkpt lat="43.16852" lon="-1.22607">
        <ele>170.069213</ele>
        <time>2026-05-22T07:51:12.000Z</time>
      </trkpt>
      <trkpt lat="43.16853" lon="-1.22614">
        <ele>170.026378</ele>
        <time>2026-05-22T07:51:13.000Z</time>
      </trkpt>
      <trkpt lat="43.16854" lon="-1.22621">
        <ele>169.988386</ele>
        <time>2026-05-22T07:51:14.000Z</time>
      </trkpt>
      <trkpt lat="43.16855" lon="-1.22626">
        <ele>169.962254</ele>
        <time>2026-05-22T07:51:15.000Z</time>
      </trkpt>
      <trkpt lat="43.16855" lon="-1.22628">
        <ele>169.948378</ele>
        <time>2026-05-22T07:51:16.000Z</time>
      </trkpt>
      <trkpt lat="43.16855" lon="-1.22629">
        <ele>169.945538</ele>
        <time>2026-05-22T07:51:17.000Z</time>
      </trkpt>
      <trkpt lat="43.16856" lon="-1.22639">
        <ele>169.891442</ele>
        <time>2026-05-22T07:52:41.000Z</time>
      </trkpt>
      <trkpt lat="43.16857" lon="-1.22642">
        <ele>169.868784</ele>
        <time>2026-05-22T07:52:42.000Z</time>
      </trkpt>
      <trkpt lat="43.16858" lon="-1.22646">
        <ele>169.837668</ele>
        <time>2026-05-22T07:52:43.000Z</time>
      </trkpt>
      <trkpt lat="43.16858" lon="-1.2265">
        <ele>169.80449</ele>
        <time>2026-05-22T07:52:44.000Z</time>
      </trkpt>
      <trkpt lat="43.16858" lon="-1.22655">
        <ele>169.769948</ele>
        <time>2026-05-22T07:52:45.000Z</time>
      </trkpt>
      <trkpt lat="43.16859" lon="-1.2266">
        <ele>169.731722</ele>
        <time>2026-05-22T07:52:46.000Z</time>
      </trkpt>
      <trkpt lat="43.16859" lon="-1.22665">
        <ele>169.691001</ele>
        <time>2026-05-22T07:52:47.000Z</time>
      </trkpt>
      <trkpt lat="43.1686" lon="-1.22671">
        <ele>169.646958</ele>
        <time>2026-05-22T07:52:48.000Z</time>
      </trkpt>
      <trkpt lat="43.16861" lon="-1.22677">
        <ele>169.60066</ele>
        <time>2026-05-22T07:52:49.000Z</time>
      </trkpt>
      <trkpt lat="43.16861" lon="-1.22683">
        <ele>169.552102</ele>
        <time>2026-05-22T07:52:50.000Z</time>
      </trkpt>
      <trkpt lat="43.16862" lon="-1.2269">
        <ele>169.499911</ele>
        <time>2026-05-22T07:52:51.000Z</time>
      </trkpt>
      <trkpt lat="43.16862" lon="-1.22697">
        <ele>169.447077</ele>
        <time>2026-05-22T07:52:52.000Z</time>
      </trkpt>
      <trkpt lat="43.16863" lon="-1.22704">
        <ele>169.393577</ele>
        <time>2026-05-22T07:52:53.000Z</time>
      </trkpt>
      <trkpt lat="43.16864" lon="-1.22711">
        <ele>169.338231</ele>
        <time>2026-05-22T07:52:54.000Z</time>
      </trkpt>
      <trkpt lat="43.16864" lon="-1.22718">
        <ele>169.28257</ele>
        <time>2026-05-22T07:52:55.000Z</time>
      </trkpt>
      <trkpt lat="43.16865" lon="-1.22726">
        <ele>169.226158</ele>
        <time>2026-05-22T07:52:56.000Z</time>
      </trkpt>
      <trkpt lat="43.16866" lon="-1.22733">
        <ele>169.168545</ele>
        <time>2026-05-22T07:52:57.000Z</time>
      </trkpt>
      <trkpt lat="43.16867" lon="-1.22741">
        <ele>169.110932</ele>
        <time>2026-05-22T07:52:58.000Z</time>
      </trkpt>
      <trkpt lat="43.16868" lon="-1.22748">
        <ele>169.051894</ele>
        <time>2026-05-22T07:52:59.000Z</time>
      </trkpt>
      <trkpt lat="43.16869" lon="-1.22756">
        <ele>168.990969</ele>
        <time>2026-05-22T07:53:00.000Z</time>
      </trkpt>
      <trkpt lat="43.16869" lon="-1.22764">
        <ele>168.930332</ele>
        <time>2026-05-22T07:53:01.000Z</time>
      </trkpt>
      <trkpt lat="43.1687" lon="-1.22772">
        <ele>168.87057</ele>
        <time>2026-05-22T07:53:02.000Z</time>
      </trkpt>
      <trkpt lat="43.16871" lon="-1.2278">
        <ele>168.810226</ele>
        <time>2026-05-22T07:53:03.000Z</time>
      </trkpt>
      <trkpt lat="43.16872" lon="-1.22788">
        <ele>168.74838</ele>
        <time>2026-05-22T07:53:04.000Z</time>
      </trkpt>
      <trkpt lat="43.16873" lon="-1.22796">
        <ele>168.687608</ele>
        <time>2026-05-22T07:53:05.000Z</time>
      </trkpt>
      <trkpt lat="43.16874" lon="-1.22804">
        <ele>168.626215</ele>
        <time>2026-05-22T07:53:06.000Z</time>
      </trkpt>
      <trkpt lat="43.16874" lon="-1.22812">
        <ele>168.562422</ele>
        <time>2026-05-22T07:53:07.000Z</time>
      </trkpt>
      <trkpt lat="43.16875" lon="-1.2282">
        <ele>168.501498</ele>
        <time>2026-05-22T07:53:08.000Z</time>
      </trkpt>
      <trkpt lat="43.16876" lon="-1.22828">
        <ele>168.43756</ele>
        <time>2026-05-22T07:53:09.000Z</time>
      </trkpt>
      <trkpt lat="43.16877" lon="-1.22836">
        <ele>168.374964</ele>
        <time>2026-05-22T07:53:10.000Z</time>
      </trkpt>
      <trkpt lat="43.16878" lon="-1.22844">
        <ele>168.310864</ele>
        <time>2026-05-22T07:53:11.000Z</time>
      </trkpt>
      <trkpt lat="43.16879" lon="-1.22853">
        <ele>168.246013</ele>
        <time>2026-05-22T07:53:12.000Z</time>
      </trkpt>
      <trkpt lat="43.1688" lon="-1.22861">
        <ele>168.181162</ele>
        <time>2026-05-22T07:53:13.000Z</time>
      </trkpt>
      <trkpt lat="43.16881" lon="-1.2287">
        <ele>168.115984</ele>
        <time>2026-05-22T07:53:14.000Z</time>
      </trkpt>
      <trkpt lat="43.16882" lon="-1.22878">
        <ele>168.050539</ele>
        <time>2026-05-22T07:53:15.000Z</time>
      </trkpt>
      <trkpt lat="43.16883" lon="-1.22887">
        <ele>167.968086</ele>
        <time>2026-05-22T07:53:16.000Z</time>
      </trkpt>
      <trkpt lat="43.16884" lon="-1.22895">
        <ele>167.813478</ele>
        <time>2026-05-22T07:53:17.000Z</time>
      </trkpt>
      <trkpt lat="43.16885" lon="-1.22904">
        <ele>167.656325</ele>
        <time>2026-05-22T07:53:18.000Z</time>
      </trkpt>
      <trkpt lat="43.16887" lon="-1.22913">
        <ele>167.499172</ele>
        <time>2026-05-22T07:53:19.000Z</time>
      </trkpt>
      <trkpt lat="43.16887" lon="-1.22922">
        <ele>167.339296</ele>
        <time>2026-05-22T07:53:20.000Z</time>
      </trkpt>
      <trkpt lat="43.16889" lon="-1.22931">
        <ele>167.178709</ele>
        <time>2026-05-22T07:53:21.000Z</time>
      </trkpt>
      <trkpt lat="43.1689" lon="-1.2294">
        <ele>167.016287</ele>
        <time>2026-05-22T07:53:22.000Z</time>
      </trkpt>
      <trkpt lat="43.16891" lon="-1.2295">
        <ele>166.852264</ele>
        <time>2026-05-22T07:53:23.000Z</time>
      </trkpt>
      <trkpt lat="43.16892" lon="-1.22959">
        <ele>166.689724</ele>
        <time>2026-05-22T07:53:24.000Z</time>
      </trkpt>
      <trkpt lat="43.16892" lon="-1.22968">
        <ele>166.52545</ele>
        <time>2026-05-22T07:53:25.000Z</time>
      </trkpt>
      <trkpt lat="43.16893" lon="-1.22978">
        <ele>166.355754</ele>
        <time>2026-05-22T07:53:26.000Z</time>
      </trkpt>
      <trkpt lat="43.16893" lon="-1.22988">
        <ele>166.183137</ele>
        <time>2026-05-22T07:53:27.000Z</time>
      </trkpt>
      <trkpt lat="43.16894" lon="-1.22998">
        <ele>166.010519</ele>
        <time>2026-05-22T07:53:28.000Z</time>
      </trkpt>
      <trkpt lat="43.16894" lon="-1.23008">
        <ele>165.836425</ele>
        <time>2026-05-22T07:53:29.000Z</time>
      </trkpt>
      <trkpt lat="43.16894" lon="-1.23018">
        <ele>165.66059</ele>
        <time>2026-05-22T07:53:30.000Z</time>
      </trkpt>
      <trkpt lat="43.16894" lon="-1.23028">
        <ele>165.484739</ele>
        <time>2026-05-22T07:53:31.000Z</time>
      </trkpt>
      <trkpt lat="43.16894" lon="-1.23038">
        <ele>165.310628</ele>
        <time>2026-05-22T07:53:32.000Z</time>
      </trkpt>
      <trkpt lat="43.16894" lon="-1.23048">
        <ele>165.136517</ele>
        <time>2026-05-22T07:53:33.000Z</time>
      </trkpt>
      <trkpt lat="43.16894" lon="-1.23058">
        <ele>164.964098</ele>
        <time>2026-05-22T07:53:34.000Z</time>
      </trkpt>
      <trkpt lat="43.16894" lon="-1.23068">
        <ele>164.789988</ele>
        <time>2026-05-22T07:53:35.000Z</time>
      </trkpt>
      <trkpt lat="43.16894" lon="-1.23078">
        <ele>164.619308</ele>
        <time>2026-05-22T07:53:36.000Z</time>
      </trkpt>
      <trkpt lat="43.16894" lon="-1.23088">
        <ele>164.45042</ele>
        <time>2026-05-22T07:53:37.000Z</time>
      </trkpt>
      <trkpt lat="43.16894" lon="-1.23097">
        <ele>164.279791</ele>
        <time>2026-05-22T07:53:38.000Z</time>
      </trkpt>
      <trkpt lat="43.16894" lon="-1.23107">
        <ele>164.109112</ele>
        <time>2026-05-22T07:53:39.000Z</time>
      </trkpt>
      <trkpt lat="43.16894" lon="-1.23117">
        <ele>163.936693</ele>
        <time>2026-05-22T07:53:40.000Z</time>
      </trkpt>
      <trkpt lat="43.16895" lon="-1.23127">
        <ele>163.767552</ele>
        <time>2026-05-22T07:53:41.000Z</time>
      </trkpt>
      <trkpt lat="43.16895" lon="-1.23137">
        <ele>163.575498</ele>
        <time>2026-05-22T07:53:42.000Z</time>
      </trkpt>
      <trkpt lat="43.16895" lon="-1.23147">
        <ele>163.377352</ele>
        <time>2026-05-22T07:53:43.000Z</time>
      </trkpt>
      <trkpt lat="43.16896" lon="-1.23156">
        <ele>163.177283</ele>
        <time>2026-05-22T07:53:44.000Z</time>
      </trkpt>
      <trkpt lat="43.16896" lon="-1.23166">
        <ele>162.975195</ele>
        <time>2026-05-22T07:53:45.000Z</time>
      </trkpt>
      <trkpt lat="43.16896" lon="-1.23176">
        <ele>162.777146</ele>
        <time>2026-05-22T07:53:46.000Z</time>
      </trkpt>
      <trkpt lat="43.16896" lon="-1.23186">
        <ele>162.579</ele>
        <time>2026-05-22T07:53:47.000Z</time>
      </trkpt>
      <trkpt lat="43.16896" lon="-1.23196">
        <ele>162.38297</ele>
        <time>2026-05-22T07:53:48.000Z</time>
      </trkpt>
      <trkpt lat="43.16896" lon="-1.23206">
        <ele>162.184824</ele>
        <time>2026-05-22T07:53:49.000Z</time>
      </trkpt>
      <trkpt lat="43.16895" lon="-1.23215">
        <ele>161.988513</ele>
        <time>2026-05-22T07:53:50.000Z</time>
      </trkpt>
      <trkpt lat="43.16893" lon="-1.23225">
        <ele>161.786319</ele>
        <time>2026-05-22T07:53:51.000Z</time>
      </trkpt>
      <trkpt lat="43.16891" lon="-1.23234">
        <ele>161.587858</ele>
        <time>2026-05-22T07:53:52.000Z</time>
      </trkpt>
      <trkpt lat="43.16887" lon="-1.23242">
        <ele>161.391349</ele>
        <time>2026-05-22T07:53:53.000Z</time>
      </trkpt>
      <trkpt lat="43.16883" lon="-1.2325">
        <ele>161.200215</ele>
        <time>2026-05-22T07:53:54.000Z</time>
      </trkpt>
      <trkpt lat="43.16877" lon="-1.23256">
        <ele>161.004599</ele>
        <time>2026-05-22T07:53:55.000Z</time>
      </trkpt>
      <trkpt lat="43.16871" lon="-1.23261">
        <ele>160.80223</ele>
        <time>2026-05-22T07:53:56.000Z</time>
      </trkpt>
      <trkpt lat="43.16864" lon="-1.23266">
        <ele>160.583892</ele>
        <time>2026-05-22T07:53:57.000Z</time>
      </trkpt>
      <trkpt lat="43.16856" lon="-1.2327">
        <ele>160.365024</ele>
        <time>2026-05-22T07:53:58.000Z</time>
      </trkpt>
      <trkpt lat="43.16849" lon="-1.23273">
        <ele>160.145586</ele>
        <time>2026-05-22T07:53:59.000Z</time>
      </trkpt>
      <trkpt lat="43.16842" lon="-1.23276">
        <ele>159.931849</ele>
        <time>2026-05-22T07:54:00.000Z</time>
      </trkpt>
      <trkpt lat="43.16834" lon="-1.23279">
        <ele>159.713878</ele>
        <time>2026-05-22T07:54:01.000Z</time>
      </trkpt>
      <trkpt lat="43.16827" lon="-1.23282">
        <ele>159.504851</ele>
        <time>2026-05-22T07:54:02.000Z</time>
      </trkpt>
      <trkpt lat="43.1682" lon="-1.23285">
        <ele>159.303736</ele>
        <time>2026-05-22T07:54:03.000Z</time>
      </trkpt>
      <trkpt lat="43.16813" lon="-1.23288">
        <ele>159.102325</ele>
        <time>2026-05-22T07:54:04.000Z</time>
      </trkpt>
      <trkpt lat="43.16806" lon="-1.2329">
        <ele>158.904648</ele>
        <time>2026-05-22T07:54:05.000Z</time>
      </trkpt>
      <trkpt lat="43.16799" lon="-1.23293">
        <ele>158.720529</ele>
        <time>2026-05-22T07:54:06.000Z</time>
      </trkpt>
      <trkpt lat="43.16792" lon="-1.23296">
        <ele>158.693198</ele>
        <time>2026-05-22T07:54:07.000Z</time>
      </trkpt>
      <trkpt lat="43.16785" lon="-1.23299">
        <ele>158.665751</ele>
        <time>2026-05-22T07:54:08.000Z</time>
      </trkpt>
      <trkpt lat="43.16778" lon="-1.23302">
        <ele>158.638887</ele>
        <time>2026-05-22T07:54:09.000Z</time>
      </trkpt>
      <trkpt lat="43.16771" lon="-1.23304">
        <ele>158.611952</ele>
        <time>2026-05-22T07:54:10.000Z</time>
      </trkpt>
      <trkpt lat="43.16764" lon="-1.23307">
        <ele>158.584359</ele>
        <time>2026-05-22T07:54:11.000Z</time>
      </trkpt>
      <trkpt lat="43.16757" lon="-1.23309">
        <ele>158.557061</ele>
        <time>2026-05-22T07:54:12.000Z</time>
      </trkpt>
      <trkpt lat="43.1675" lon="-1.23312">
        <ele>158.529399</ele>
        <time>2026-05-22T07:54:13.000Z</time>
      </trkpt>
      <trkpt lat="43.16743" lon="-1.23315">
        <ele>158.502953</ele>
        <time>2026-05-22T07:54:14.000Z</time>
      </trkpt>
      <trkpt lat="43.16736" lon="-1.23317">
        <ele>158.475793</ele>
        <time>2026-05-22T07:54:15.000Z</time>
      </trkpt>
      <trkpt lat="43.1673" lon="-1.2332">
        <ele>158.448998</ele>
        <time>2026-05-22T07:54:16.000Z</time>
      </trkpt>
      <trkpt lat="43.16723" lon="-1.23322">
        <ele>158.424094</ele>
        <time>2026-05-22T07:54:17.000Z</time>
      </trkpt>
      <trkpt lat="43.16717" lon="-1.23324">
        <ele>158.401514</ele>
        <time>2026-05-22T07:54:18.000Z</time>
      </trkpt>
      <trkpt lat="43.16712" lon="-1.23326">
        <ele>158.382346</ele>
        <time>2026-05-22T07:54:19.000Z</time>
      </trkpt>
      <trkpt lat="43.16708" lon="-1.23328">
        <ele>158.363615</ele>
        <time>2026-05-22T07:54:20.000Z</time>
      </trkpt>
      <trkpt lat="43.16704" lon="-1.23329">
        <ele>158.348292</ele>
        <time>2026-05-22T07:54:21.000Z</time>
      </trkpt>
      <trkpt lat="43.16701" lon="-1.23332">
        <ele>158.335563</ele>
        <time>2026-05-22T07:54:22.000Z</time>
      </trkpt>
      <trkpt lat="43.16699" lon="-1.23335">
        <ele>158.324468</ele>
        <time>2026-05-22T07:54:23.000Z</time>
      </trkpt>
      <trkpt lat="43.16698" lon="-1.23339">
        <ele>158.314148</ele>
        <time>2026-05-22T07:54:24.000Z</time>
      </trkpt>
      <trkpt lat="43.16698" lon="-1.23342">
        <ele>158.30454</ele>
        <time>2026-05-22T07:54:25.000Z</time>
      </trkpt>
      <trkpt lat="43.16699" lon="-1.23345">
        <ele>158.295356</ele>
        <time>2026-05-22T07:54:26.000Z</time>
      </trkpt>
      <trkpt lat="43.16699" lon="-1.23348">
        <ele>158.28903</ele>
        <time>2026-05-22T07:54:27.000Z</time>
      </trkpt>
      <trkpt lat="43.16698" lon="-1.23349">
        <ele>158.284837</ele>
        <time>2026-05-22T07:54:28.000Z</time>
      </trkpt>
      <trkpt lat="43.16696" lon="-1.23347">
        <ele>158.278615</ele>
        <time>2026-05-22T07:54:29.000Z</time>
      </trkpt>
      <trkpt lat="43.16695" lon="-1.23345">
        <ele>158.271263</ele>
        <time>2026-05-22T07:54:30.000Z</time>
      </trkpt>
      <trkpt lat="43.16695" lon="-1.23342">
        <ele>158.263655</ele>
        <time>2026-05-22T07:54:31.000Z</time>
      </trkpt>
      <trkpt lat="43.16694" lon="-1.2334">
        <ele>158.255753</ele>
        <time>2026-05-22T07:54:32.000Z</time>
      </trkpt>
      <trkpt lat="43.16692" lon="-1.23338">
        <ele>158.248428</ele>
        <time>2026-05-22T07:54:33.000Z</time>
      </trkpt>
      <trkpt lat="43.1669" lon="-1.23338">
        <ele>158.239663</ele>
        <time>2026-05-22T07:54:34.000Z</time>
      </trkpt>
      <trkpt lat="43.16688" lon="-1.23338">
        <ele>158.230897</ele>
        <time>2026-05-22T07:54:35.000Z</time>
      </trkpt>
      <trkpt lat="43.16685" lon="-1.23339">
        <ele>158.220438</ele>
        <time>2026-05-22T07:54:36.000Z</time>
      </trkpt>
      <trkpt lat="43.16682" lon="-1.23339">
        <ele>158.209436</ele>
        <time>2026-05-22T07:54:37.000Z</time>
      </trkpt>
      <trkpt lat="43.16679" lon="-1.2334">
        <ele>158.196906</ele>
        <time>2026-05-22T07:54:38.000Z</time>
      </trkpt>
      <trkpt lat="43.16675" lon="-1.23341">
        <ele>158.182594</ele>
        <time>2026-05-22T07:54:39.000Z</time>
      </trkpt>
      <trkpt lat="43.16671" lon="-1.23343">
        <ele>158.167348</ele>
        <time>2026-05-22T07:54:40.000Z</time>
      </trkpt>
      <trkpt lat="43.16667" lon="-1.23345">
        <ele>158.150256</ele>
        <time>2026-05-22T07:54:41.000Z</time>
      </trkpt>
      <trkpt lat="43.16663" lon="-1.23347">
        <ele>158.132892</ele>
        <time>2026-05-22T07:54:42.000Z</time>
      </trkpt>
      <trkpt lat="43.16658" lon="-1.23349">
        <ele>158.1158</ele>
        <time>2026-05-22T07:54:43.000Z</time>
      </trkpt>
      <trkpt lat="43.16654" lon="-1.23351">
        <ele>158.098436</ele>
        <time>2026-05-22T07:54:44.000Z</time>
      </trkpt>
      <trkpt lat="43.1665" lon="-1.23352">
        <ele>158.082028</ele>
        <time>2026-05-22T07:54:45.000Z</time>
      </trkpt>
      <trkpt lat="43.16645" lon="-1.23354">
        <ele>158.064459</ele>
        <time>2026-05-22T07:54:46.000Z</time>
      </trkpt>
      <trkpt lat="43.16641" lon="-1.23355">
        <ele>158.046595</ele>
        <time>2026-05-22T07:54:47.000Z</time>
      </trkpt>
      <trkpt lat="43.16636" lon="-1.23357">
        <ele>158.053331</ele>
        <time>2026-05-22T07:54:48.000Z</time>
      </trkpt>
      <trkpt lat="43.16632" lon="-1.2336">
        <ele>158.061005</ele>
        <time>2026-05-22T07:54:49.000Z</time>
      </trkpt>
      <trkpt lat="43.16627" lon="-1.23362">
        <ele>158.068874</ele>
        <time>2026-05-22T07:54:50.000Z</time>
      </trkpt>
      <trkpt lat="43.16623" lon="-1.23364">
        <ele>158.076349</ele>
        <time>2026-05-22T07:54:51.000Z</time>
      </trkpt>
      <trkpt lat="43.16618" lon="-1.23366">
        <ele>158.08417</ele>
        <time>2026-05-22T07:54:52.000Z</time>
      </trkpt>
      <trkpt lat="43.16614" lon="-1.23367">
        <ele>158.091675</ele>
        <time>2026-05-22T07:54:53.000Z</time>
      </trkpt>
      <trkpt lat="43.16609" lon="-1.23369">
        <ele>158.099083</ele>
        <time>2026-05-22T07:54:54.000Z</time>
      </trkpt>
      <trkpt lat="43.16605" lon="-1.23371">
        <ele>158.106491</ele>
        <time>2026-05-22T07:54:55.000Z</time>
      </trkpt>
      <trkpt lat="43.166" lon="-1.23372">
        <ele>158.113868</ele>
        <time>2026-05-22T07:54:56.000Z</time>
      </trkpt>
      <trkpt lat="43.16596" lon="-1.23374">
        <ele>158.121188</ele>
        <time>2026-05-22T07:54:57.000Z</time>
      </trkpt>
      <trkpt lat="43.16592" lon="-1.23375">
        <ele>158.128323</ele>
        <time>2026-05-22T07:54:58.000Z</time>
      </trkpt>
      <trkpt lat="43.16588" lon="-1.23376">
        <ele>158.135014</ele>
        <time>2026-05-22T07:54:59.000Z</time>
      </trkpt>
      <trkpt lat="43.16584" lon="-1.23378">
        <ele>158.141057</ele>
        <time>2026-05-22T07:55:00.000Z</time>
      </trkpt>
      <trkpt lat="43.16581" lon="-1.23381">
        <ele>158.147201</ele>
        <time>2026-05-22T07:55:01.000Z</time>
      </trkpt>
      <trkpt lat="43.16578" lon="-1.23383">
        <ele>158.152882</ele>
        <time>2026-05-22T07:55:02.000Z</time>
      </trkpt>
      <trkpt lat="43.16576" lon="-1.23387">
        <ele>158.157966</ele>
        <time>2026-05-22T07:55:03.000Z</time>
      </trkpt>
      <trkpt lat="43.16576" lon="-1.23391">
        <ele>158.162576</ele>
        <time>2026-05-22T07:55:04.000Z</time>
      </trkpt>
      <trkpt lat="43.16575" lon="-1.23394">
        <ele>158.16653</ele>
        <time>2026-05-22T07:55:05.000Z</time>
      </trkpt>
      <trkpt lat="43.16576" lon="-1.23396">
        <ele>158.169096</ele>
        <time>2026-05-22T07:55:06.000Z</time>
      </trkpt>
      <trkpt lat="43.16576" lon="-1.23398">
        <ele>158.171487</ele>
        <time>2026-05-22T07:55:07.000Z</time>
      </trkpt>
      <trkpt lat="43.16577" lon="-1.23399">
        <ele>158.173046</ele>
        <time>2026-05-22T07:55:08.000Z</time>
      </trkpt>
      <trkpt lat="43.16577" lon="-1.23399">
        <ele>158.173724</ele>
        <time>2026-05-22T07:55:09.000Z</time>
      </trkpt>
      <trkpt lat="43.16577" lon="-1.23403">
        <ele>158.177865</ele>
        <time>2026-05-22T07:56:56.000Z</time>
      </trkpt>
      <trkpt lat="43.16578" lon="-1.23405">
        <ele>158.181316</ele>
        <time>2026-05-22T07:56:57.000Z</time>
      </trkpt>
      <trkpt lat="43.16579" lon="-1.23408">
        <ele>158.185179</ele>
        <time>2026-05-22T07:56:58.000Z</time>
      </trkpt>
      <trkpt lat="43.1658" lon="-1.23412">
        <ele>158.189515</ele>
        <time>2026-05-22T07:56:59.000Z</time>
      </trkpt>
      <trkpt lat="43.1658" lon="-1.23416">
        <ele>158.194545</ele>
        <time>2026-05-22T07:57:00.000Z</time>
      </trkpt>
      <trkpt lat="43.16581" lon="-1.23421">
        <ele>158.20011</ele>
        <time>2026-05-22T07:57:01.000Z</time>
      </trkpt>
      <trkpt lat="43.1658" lon="-1.23426">
        <ele>158.205792</ele>
        <time>2026-05-22T07:57:02.000Z</time>
      </trkpt>
      <trkpt lat="43.1658" lon="-1.2343">
        <ele>158.211665</ele>
        <time>2026-05-22T07:57:03.000Z</time>
      </trkpt>
      <trkpt lat="43.16578" lon="-1.23436">
        <ele>158.218328</ele>
        <time>2026-05-22T07:57:04.000Z</time>
      </trkpt>
      <trkpt lat="43.16577" lon="-1.23441">
        <ele>158.225268</ele>
        <time>2026-05-22T07:57:05.000Z</time>
      </trkpt>
      <trkpt lat="43.16575" lon="-1.23447">
        <ele>158.232431</ele>
        <time>2026-05-22T07:57:06.000Z</time>
      </trkpt>
      <trkpt lat="43.16574" lon="-1.23453">
        <ele>158.23971</ele>
        <time>2026-05-22T07:57:07.000Z</time>
      </trkpt>
      <trkpt lat="43.16572" lon="-1.23459">
        <ele>158.247261</ele>
        <time>2026-05-22T07:57:08.000Z</time>
      </trkpt>
      <trkpt lat="43.1657" lon="-1.23465">
        <ele>158.255201</ele>
        <time>2026-05-22T07:57:09.000Z</time>
      </trkpt>
      <trkpt lat="43.16569" lon="-1.23471">
        <ele>158.263368</ele>
        <time>2026-05-22T07:57:10.000Z</time>
      </trkpt>
      <trkpt lat="43.16567" lon="-1.23478">
        <ele>158.271197</ele>
        <time>2026-05-22T07:57:11.000Z</time>
      </trkpt>
      <trkpt lat="43.16565" lon="-1.23484">
        <ele>158.279031</ele>
        <time>2026-05-22T07:57:12.000Z</time>
      </trkpt>
      <trkpt lat="43.16564" lon="-1.2349">
        <ele>158.286477</ele>
        <time>2026-05-22T07:57:13.000Z</time>
      </trkpt>
      <trkpt lat="43.16563" lon="-1.23495">
        <ele>158.293423</ele>
        <time>2026-05-22T07:57:14.000Z</time>
      </trkpt>
      <trkpt lat="43.16561" lon="-1.23501">
        <ele>158.300253</ele>
        <time>2026-05-22T07:57:15.000Z</time>
      </trkpt>
      <trkpt lat="43.1656" lon="-1.23506">
        <ele>158.306766</ele>
        <time>2026-05-22T07:57:16.000Z</time>
      </trkpt>
      <trkpt lat="43.16559" lon="-1.23511">
        <ele>158.313213</ele>
        <time>2026-05-22T07:57:17.000Z</time>
      </trkpt>
      <trkpt lat="43.16558" lon="-1.23516">
        <ele>158.319499</ele>
        <time>2026-05-22T07:57:18.000Z</time>
      </trkpt>
      <trkpt lat="43.16557" lon="-1.23522">
        <ele>158.326354</ele>
        <time>2026-05-22T07:57:19.000Z</time>
      </trkpt>
      <trkpt lat="43.16555" lon="-1.23527">
        <ele>158.333076</ele>
        <time>2026-05-22T07:57:20.000Z</time>
      </trkpt>
      <trkpt lat="43.16554" lon="-1.23533">
        <ele>158.358385</ele>
        <time>2026-05-22T07:57:21.000Z</time>
      </trkpt>
      <trkpt lat="43.16553" lon="-1.23539">
        <ele>158.419414</ele>
        <time>2026-05-22T07:57:22.000Z</time>
      </trkpt>
      <trkpt lat="43.16551" lon="-1.23544">
        <ele>158.479495</ele>
        <time>2026-05-22T07:57:23.000Z</time>
      </trkpt>
      <trkpt lat="43.16549" lon="-1.2355">
        <ele>158.539576</ele>
        <time>2026-05-22T07:57:24.000Z</time>
      </trkpt>
      <trkpt lat="43.16548" lon="-1.23556">
        <ele>158.601624</ele>
        <time>2026-05-22T07:57:25.000Z</time>
      </trkpt>
      <trkpt lat="43.16546" lon="-1.23561">
        <ele>158.660934</ele>
        <time>2026-05-22T07:57:26.000Z</time>
      </trkpt>
      <trkpt lat="43.16544" lon="-1.23566">
        <ele>158.720124</ele>
        <time>2026-05-22T07:57:27.000Z</time>
      </trkpt>
      <trkpt lat="43.16541" lon="-1.2357">
        <ele>158.772746</ele>
        <time>2026-05-22T07:57:28.000Z</time>
      </trkpt>
      <trkpt lat="43.16538" lon="-1.23575">
        <ele>158.830186</ele>
        <time>2026-05-22T07:57:29.000Z</time>
      </trkpt>
      <trkpt lat="43.16535" lon="-1.23579">
        <ele>158.890354</ele>
        <time>2026-05-22T07:57:30.000Z</time>
      </trkpt>
      <trkpt lat="43.16533" lon="-1.23583">
        <ele>158.948129</ele>
        <time>2026-05-22T07:57:31.000Z</time>
      </trkpt>
      <trkpt lat="43.16529" lon="-1.23588">
        <ele>159.0102</ele>
        <time>2026-05-22T07:57:32.000Z</time>
      </trkpt>
      <trkpt lat="43.16526" lon="-1.23592">
        <ele>159.072982</ele>
        <time>2026-05-22T07:57:33.000Z</time>
      </trkpt>
      <trkpt lat="43.16523" lon="-1.23597">
        <ele>159.138876</ele>
        <time>2026-05-22T07:57:34.000Z</time>
      </trkpt>
      <trkpt lat="43.1652" lon="-1.23602">
        <ele>159.2055</ele>
        <time>2026-05-22T07:57:35.000Z</time>
      </trkpt>
      <trkpt lat="43.16516" lon="-1.23607">
        <ele>159.27195</ele>
        <time>2026-05-22T07:57:36.000Z</time>
      </trkpt>
      <trkpt lat="43.16513" lon="-1.23612">
        <ele>159.341386</ele>
        <time>2026-05-22T07:57:37.000Z</time>
      </trkpt>
      <trkpt lat="43.1651" lon="-1.23618">
        <ele>159.414124</ele>
        <time>2026-05-22T07:57:38.000Z</time>
      </trkpt>
      <trkpt lat="43.16508" lon="-1.23625">
        <ele>159.487822</ele>
        <time>2026-05-22T07:57:39.000Z</time>
      </trkpt>
      <trkpt lat="43.16505" lon="-1.23631">
        <ele>159.565651</ele>
        <time>2026-05-22T07:57:40.000Z</time>
      </trkpt>
      <trkpt lat="43.16502" lon="-1.23638">
        <ele>159.639322</ele>
        <time>2026-05-22T07:57:41.000Z</time>
      </trkpt>
      <trkpt lat="43.165" lon="-1.23645">
        <ele>159.710203</ele>
        <time>2026-05-22T07:57:42.000Z</time>
      </trkpt>
      <trkpt lat="43.16499" lon="-1.23651">
        <ele>159.78153</ele>
        <time>2026-05-22T07:57:43.000Z</time>
      </trkpt>
      <trkpt lat="43.16497" lon="-1.23658">
        <ele>159.853849</ele>
        <time>2026-05-22T07:57:44.000Z</time>
      </trkpt>
      <trkpt lat="43.16494" lon="-1.23664">
        <ele>159.924527</ele>
        <time>2026-05-22T07:57:45.000Z</time>
      </trkpt>
      <trkpt lat="43.16492" lon="-1.23671">
        <ele>159.994303</ele>
        <time>2026-05-22T07:57:46.000Z</time>
      </trkpt>
      <trkpt lat="43.1649" lon="-1.23677">
        <ele>160.061114</ele>
        <time>2026-05-22T07:57:47.000Z</time>
      </trkpt>
      <trkpt lat="43.16489" lon="-1.23683">
        <ele>160.123059</ele>
        <time>2026-05-22T07:57:48.000Z</time>
      </trkpt>
      <trkpt lat="43.16487" lon="-1.23688">
        <ele>160.18237</ele>
        <time>2026-05-22T07:57:49.000Z</time>
      </trkpt>
      <trkpt lat="43.16485" lon="-1.23693">
        <ele>160.24047</ele>
        <time>2026-05-22T07:57:50.000Z</time>
      </trkpt>
      <trkpt lat="43.16483" lon="-1.23698">
        <ele>160.295014</ele>
        <time>2026-05-22T07:57:51.000Z</time>
      </trkpt>
      <trkpt lat="43.16482" lon="-1.23703">
        <ele>160.34945</ele>
        <time>2026-05-22T07:57:52.000Z</time>
      </trkpt>
      <trkpt lat="43.16481" lon="-1.23708">
        <ele>160.396444</ele>
        <time>2026-05-22T07:57:53.000Z</time>
      </trkpt>
      <trkpt lat="43.1648" lon="-1.23713">
        <ele>160.444986</ele>
        <time>2026-05-22T07:57:54.000Z</time>
      </trkpt>
      <trkpt lat="43.16479" lon="-1.23717">
        <ele>160.492227</ele>
        <time>2026-05-22T07:57:55.000Z</time>
      </trkpt>
      <trkpt lat="43.16478" lon="-1.23722">
        <ele>160.538497</ele>
        <time>2026-05-22T07:57:56.000Z</time>
      </trkpt>
      <trkpt lat="43.16477" lon="-1.23726">
        <ele>160.586361</ele>
        <time>2026-05-22T07:57:57.000Z</time>
      </trkpt>
      <trkpt lat="43.16476" lon="-1.2373">
        <ele>160.632182</ele>
        <time>2026-05-22T07:57:58.000Z</time>
      </trkpt>
      <trkpt lat="43.16474" lon="-1.23734">
        <ele>160.672735</ele>
        <time>2026-05-22T07:57:59.000Z</time>
      </trkpt>
      <trkpt lat="43.16473" lon="-1.23737">
        <ele>160.714848</ele>
        <time>2026-05-22T07:58:00.000Z</time>
      </trkpt>
      <trkpt lat="43.16471" lon="-1.23741">
        <ele>160.75769</ele>
        <time>2026-05-22T07:58:01.000Z</time>
      </trkpt>
      <trkpt lat="43.16469" lon="-1.23745">
        <ele>160.803085</ele>
        <time>2026-05-22T07:58:02.000Z</time>
      </trkpt>
      <trkpt lat="43.16468" lon="-1.23749">
        <ele>160.866144</ele>
        <time>2026-05-22T07:58:03.000Z</time>
      </trkpt>
      <trkpt lat="43.16467" lon="-1.23753">
        <ele>160.928672</ele>
        <time>2026-05-22T07:58:04.000Z</time>
      </trkpt>
      <trkpt lat="43.16466" lon="-1.23757">
        <ele>160.995871</ele>
        <time>2026-05-22T07:58:05.000Z</time>
      </trkpt>
      <trkpt lat="43.16465" lon="-1.23761">
        <ele>161.061507</ele>
        <time>2026-05-22T07:58:06.000Z</time>
      </trkpt>
      <trkpt lat="43.16464" lon="-1.23766">
        <ele>161.135042</ele>
        <time>2026-05-22T07:58:07.000Z</time>
      </trkpt>
      <trkpt lat="43.16462" lon="-1.2377">
        <ele>161.203836</ele>
        <time>2026-05-22T07:58:08.000Z</time>
      </trkpt>
      <trkpt lat="43.1646" lon="-1.23774">
        <ele>161.276054</ele>
        <time>2026-05-22T07:58:09.000Z</time>
      </trkpt>
      <trkpt lat="43.16459" lon="-1.23777">
        <ele>161.330372</ele>
        <time>2026-05-22T07:58:10.000Z</time>
      </trkpt>
      <trkpt lat="43.16457" lon="-1.23779">
        <ele>161.375237</ele>
        <time>2026-05-22T07:58:11.000Z</time>
      </trkpt>
      <trkpt lat="43.16455" lon="-1.23781">
        <ele>161.427564</ele>
        <time>2026-05-22T07:58:12.000Z</time>
      </trkpt>
      <trkpt lat="43.16453" lon="-1.23781">
        <ele>161.475128</ele>
        <time>2026-05-22T07:58:13.000Z</time>
      </trkpt>
      <trkpt lat="43.16451" lon="-1.23782">
        <ele>161.522317</ele>
        <time>2026-05-22T07:58:14.000Z</time>
      </trkpt>
      <trkpt lat="43.16448" lon="-1.23782">
        <ele>161.569881</ele>
        <time>2026-05-22T07:58:15.000Z</time>
      </trkpt>
      <trkpt lat="43.16446" lon="-1.23783">
        <ele>161.619708</ele>
        <time>2026-05-22T07:58:16.000Z</time>
      </trkpt>
      <trkpt lat="43.16444" lon="-1.23783">
        <ele>161.665523</ele>
        <time>2026-05-22T07:58:17.000Z</time>
      </trkpt>
      <trkpt lat="43.16442" lon="-1.23783">
        <ele>161.706372</ele>
        <time>2026-05-22T07:58:18.000Z</time>
      </trkpt>
      <trkpt lat="43.16439" lon="-1.23784">
        <ele>161.7517</ele>
        <time>2026-05-22T07:58:19.000Z</time>
      </trkpt>
      <trkpt lat="43.16437" lon="-1.23784">
        <ele>161.794592</ele>
        <time>2026-05-22T07:58:20.000Z</time>
      </trkpt>
      <trkpt lat="43.16435" lon="-1.23784">
        <ele>161.843702</ele>
        <time>2026-05-22T07:58:21.000Z</time>
      </trkpt>
      <trkpt lat="43.16433" lon="-1.23783">
        <ele>161.887515</ele>
        <time>2026-05-22T07:58:22.000Z</time>
      </trkpt>
      <trkpt lat="43.16431" lon="-1.23782">
        <ele>161.92343</ele>
        <time>2026-05-22T07:58:23.000Z</time>
      </trkpt>
      <trkpt lat="43.16429" lon="-1.23782">
        <ele>161.962692</ele>
        <time>2026-05-22T07:58:24.000Z</time>
      </trkpt>
      <trkpt lat="43.16426" lon="-1.23782">
        <ele>162.021942</ele>
        <time>2026-05-22T07:58:25.000Z</time>
      </trkpt>
      <trkpt lat="43.16424" lon="-1.23781">
        <ele>162.07759</ele>
        <time>2026-05-22T07:58:26.000Z</time>
      </trkpt>
      <trkpt lat="43.16421" lon="-1.23781">
        <ele>162.131027</ele>
        <time>2026-05-22T07:58:27.000Z</time>
      </trkpt>
      <trkpt lat="43.16419" lon="-1.2378">
        <ele>162.181475</ele>
        <time>2026-05-22T07:58:28.000Z</time>
      </trkpt>
      <trkpt lat="43.16417" lon="-1.23779">
        <ele>162.221658</ele>
        <time>2026-05-22T07:58:29.000Z</time>
      </trkpt>
      <trkpt lat="43.16415" lon="-1.23779">
        <ele>162.259494</ele>
        <time>2026-05-22T07:58:30.000Z</time>
      </trkpt>
      <trkpt lat="43.16413" lon="-1.23778">
        <ele>162.303307</ele>
        <time>2026-05-22T07:58:31.000Z</time>
      </trkpt>
      <trkpt lat="43.16411" lon="-1.23777">
        <ele>162.345467</ele>
        <time>2026-05-22T07:58:32.000Z</time>
      </trkpt>
      <trkpt lat="43.16409" lon="-1.23775">
        <ele>162.39472</ele>
        <time>2026-05-22T07:58:33.000Z</time>
      </trkpt>
      <trkpt lat="43.16407" lon="-1.23773">
        <ele>162.443502</ele>
        <time>2026-05-22T07:58:34.000Z</time>
      </trkpt>
      <trkpt lat="43.16406" lon="-1.23771">
        <ele>162.485886</ele>
        <time>2026-05-22T07:58:35.000Z</time>
      </trkpt>
      <trkpt lat="43.16405" lon="-1.23769">
        <ele>162.529234</ele>
        <time>2026-05-22T07:58:36.000Z</time>
      </trkpt>
      <trkpt lat="43.16404" lon="-1.23766">
        <ele>162.576337</ele>
        <time>2026-05-22T07:58:37.000Z</time>
      </trkpt>
      <trkpt lat="43.16403" lon="-1.23763">
        <ele>162.621922</ele>
        <time>2026-05-22T07:58:38.000Z</time>
      </trkpt>
      <trkpt lat="43.16402" lon="-1.2376">
        <ele>162.671061</ele>
        <time>2026-05-22T07:58:39.000Z</time>
      </trkpt>
      <trkpt lat="43.16401" lon="-1.23757">
        <ele>162.717251</ele>
        <time>2026-05-22T07:58:40.000Z</time>
      </trkpt>
      <trkpt lat="43.16399" lon="-1.23755">
        <ele>162.763215</ele>
        <time>2026-05-22T07:58:41.000Z</time>
      </trkpt>
      <trkpt lat="43.16399" lon="-1.23752">
        <ele>162.81156</ele>
        <time>2026-05-22T07:58:42.000Z</time>
      </trkpt>
      <trkpt lat="43.16398" lon="-1.23749">
        <ele>162.852738</ele>
        <time>2026-05-22T07:58:43.000Z</time>
      </trkpt>
      <trkpt lat="43.16397" lon="-1.23747">
        <ele>162.891622</ele>
        <time>2026-05-22T07:58:44.000Z</time>
      </trkpt>
      <trkpt lat="43.16396" lon="-1.23744">
        <ele>162.93168</ele>
        <time>2026-05-22T07:58:45.000Z</time>
      </trkpt>
      <trkpt lat="43.16396" lon="-1.23742">
        <ele>162.975649</ele>
        <time>2026-05-22T07:58:46.000Z</time>
      </trkpt>
      <trkpt lat="43.16395" lon="-1.23739">
        <ele>163.024788</ele>
        <time>2026-05-22T07:58:47.000Z</time>
      </trkpt>
      <trkpt lat="43.16394" lon="-1.23735">
        <ele>163.075183</ele>
        <time>2026-05-22T07:58:48.000Z</time>
      </trkpt>
      <trkpt lat="43.16393" lon="-1.23732">
        <ele>163.127467</ele>
        <time>2026-05-22T07:58:49.000Z</time>
      </trkpt>
      <trkpt lat="43.16392" lon="-1.2373">
        <ele>163.17258</ele>
        <time>2026-05-22T07:58:50.000Z</time>
      </trkpt>
      <trkpt lat="43.16391" lon="-1.23727">
        <ele>163.22329</ele>
        <time>2026-05-22T07:58:51.000Z</time>
      </trkpt>
      <trkpt lat="43.16389" lon="-1.23724">
        <ele>163.267876</ele>
        <time>2026-05-22T07:58:52.000Z</time>
      </trkpt>
      <trkpt lat="43.16388" lon="-1.23722">
        <ele>163.31384</ele>
        <time>2026-05-22T07:58:53.000Z</time>
      </trkpt>
      <trkpt lat="43.16385" lon="-1.23719">
        <ele>163.387965</ele>
        <time>2026-05-22T07:58:54.000Z</time>
      </trkpt>
      <trkpt lat="43.16384" lon="-1.23716">
        <ele>163.433473</ele>
        <time>2026-05-22T07:58:55.000Z</time>
      </trkpt>
      <trkpt lat="43.16383" lon="-1.23714">
        <ele>163.479213</ele>
        <time>2026-05-22T07:58:56.000Z</time>
      </trkpt>
      <trkpt lat="43.16381" lon="-1.23712">
        <ele>163.52195</ele>
        <time>2026-05-22T07:58:57.000Z</time>
      </trkpt>
      <trkpt lat="43.1638" lon="-1.2371">
        <ele>163.56076</ele>
        <time>2026-05-22T07:58:58.000Z</time>
      </trkpt>
      <trkpt lat="43.16379" lon="-1.23708">
        <ele>163.596004</ele>
        <time>2026-05-22T07:58:59.000Z</time>
      </trkpt>
      <trkpt lat="43.16377" lon="-1.23707">
        <ele>163.642566</ele>
        <time>2026-05-22T07:59:00.000Z</time>
      </trkpt>
      <trkpt lat="43.16375" lon="-1.23705">
        <ele>163.682818</ele>
        <time>2026-05-22T07:59:01.000Z</time>
      </trkpt>
      <trkpt lat="43.16373" lon="-1.23705">
        <ele>163.719072</ele>
        <time>2026-05-22T07:59:02.000Z</time>
      </trkpt>
      <trkpt lat="43.16372" lon="-1.23704">
        <ele>163.751435</ele>
        <time>2026-05-22T07:59:03.000Z</time>
      </trkpt>
      <trkpt lat="43.1637" lon="-1.23703">
        <ele>163.785739</ele>
        <time>2026-05-22T07:59:04.000Z</time>
      </trkpt>
      <trkpt lat="43.16369" lon="-1.23704">
        <ele>163.803131</ele>
        <time>2026-05-22T07:59:05.000Z</time>
      </trkpt>
      <trkpt lat="43.16369" lon="-1.23704">
        <ele>163.820828</ele>
        <time>2026-05-22T07:59:06.000Z</time>
      </trkpt>
      <trkpt lat="43.16368" lon="-1.23706">
        <ele>163.841291</ele>
        <time>2026-05-22T07:59:07.000Z</time>
      </trkpt>
      <trkpt lat="43.16367" lon="-1.23707">
        <ele>163.866932</ele>
        <time>2026-05-22T07:59:08.000Z</time>
      </trkpt>
      <trkpt lat="43.16366" lon="-1.23709">
        <ele>163.909317</ele>
        <time>2026-05-22T07:59:09.000Z</time>
      </trkpt>
      <trkpt lat="43.16365" lon="-1.2371">
        <ele>163.9415</ele>
        <time>2026-05-22T07:59:10.000Z</time>
      </trkpt>
      <trkpt lat="43.16363" lon="-1.23712">
        <ele>163.982844</ele>
        <time>2026-05-22T07:59:11.000Z</time>
      </trkpt>
      <trkpt lat="43.16361" lon="-1.23713">
        <ele>164.027625</ele>
        <time>2026-05-22T07:59:12.000Z</time>
      </trkpt>
      <trkpt lat="43.16359" lon="-1.23715">
        <ele>164.073379</ele>
        <time>2026-05-22T07:59:13.000Z</time>
      </trkpt>
      <trkpt lat="43.16358" lon="-1.23718">
        <ele>164.122765</ele>
        <time>2026-05-22T07:59:14.000Z</time>
      </trkpt>
      <trkpt lat="43.16356" lon="-1.23721">
        <ele>164.173684</ele>
        <time>2026-05-22T07:59:15.000Z</time>
      </trkpt>
      <trkpt lat="43.16354" lon="-1.23723">
        <ele>164.229577</ele>
        <time>2026-05-22T07:59:16.000Z</time>
      </trkpt>
      <trkpt lat="43.16352" lon="-1.23726">
        <ele>164.289885</ele>
        <time>2026-05-22T07:59:17.000Z</time>
      </trkpt>
      <trkpt lat="43.1635" lon="-1.23728">
        <ele>164.351449</ele>
        <time>2026-05-22T07:59:18.000Z</time>
      </trkpt>
      <trkpt lat="43.16348" lon="-1.23731">
        <ele>164.408254</ele>
        <time>2026-05-22T07:59:19.000Z</time>
      </trkpt>
      <trkpt lat="43.16346" lon="-1.23734">
        <ele>164.460273</ele>
        <time>2026-05-22T07:59:20.000Z</time>
      </trkpt>
      <trkpt lat="43.16344" lon="-1.23736">
        <ele>164.472445</ele>
        <time>2026-05-22T07:59:21.000Z</time>
      </trkpt>
      <trkpt lat="43.16342" lon="-1.2374">
        <ele>164.467954</ele>
        <time>2026-05-22T07:59:22.000Z</time>
      </trkpt>
      <trkpt lat="43.1634" lon="-1.23743">
        <ele>164.464047</ele>
        <time>2026-05-22T07:59:23.000Z</time>
      </trkpt>
      <trkpt lat="43.16337" lon="-1.23746">
        <ele>164.459575</ele>
        <time>2026-05-22T07:59:24.000Z</time>
      </trkpt>
      <trkpt lat="43.16335" lon="-1.2375">
        <ele>164.454726</ele>
        <time>2026-05-22T07:59:25.000Z</time>
      </trkpt>
      <trkpt lat="43.16332" lon="-1.23753">
        <ele>164.449662</ele>
        <time>2026-05-22T07:59:26.000Z</time>
      </trkpt>
      <trkpt lat="43.16329" lon="-1.23757">
        <ele>164.444813</ele>
        <time>2026-05-22T07:59:27.000Z</time>
      </trkpt>
      <trkpt lat="43.16327" lon="-1.23761">
        <ele>164.440846</ele>
        <time>2026-05-22T07:59:28.000Z</time>
      </trkpt>
      <trkpt lat="43.16325" lon="-1.23763">
        <ele>164.437234</ele>
        <time>2026-05-22T07:59:29.000Z</time>
      </trkpt>
      <trkpt lat="43.16323" lon="-1.23766">
        <ele>164.433797</ele>
        <time>2026-05-22T07:59:30.000Z</time>
      </trkpt>
      <trkpt lat="43.16321" lon="-1.23769">
        <ele>164.42992</ele>
        <time>2026-05-22T07:59:31.000Z</time>
      </trkpt>
      <trkpt lat="43.16319" lon="-1.23772">
        <ele>164.425668</ele>
        <time>2026-05-22T07:59:32.000Z</time>
      </trkpt>
      <trkpt lat="43.16316" lon="-1.23775">
        <ele>164.421661</ele>
        <time>2026-05-22T07:59:33.000Z</time>
      </trkpt>
      <trkpt lat="43.16314" lon="-1.23778">
        <ele>164.41799</ele>
        <time>2026-05-22T07:59:34.000Z</time>
      </trkpt>
      <trkpt lat="43.16312" lon="-1.23779">
        <ele>164.415015</ele>
        <time>2026-05-22T07:59:35.000Z</time>
      </trkpt>
      <trkpt lat="43.1631" lon="-1.23779">
        <ele>164.412931</ele>
        <time>2026-05-22T07:59:36.000Z</time>
      </trkpt>
      <trkpt lat="43.16309" lon="-1.23779">
        <ele>164.411143</ele>
        <time>2026-05-22T07:59:37.000Z</time>
      </trkpt>
      <trkpt lat="43.16308" lon="-1.23779">
        <ele>164.409996</ele>
        <time>2026-05-22T07:59:38.000Z</time>
      </trkpt>
      <trkpt lat="43.16307" lon="-1.23779">
        <ele>164.409102</ele>
        <time>2026-05-22T07:59:39.000Z</time>
      </trkpt>
      <trkpt lat="43.16306" lon="-1.23778">
        <ele>164.407676</ele>
        <time>2026-05-22T07:59:41.000Z</time>
      </trkpt>
      <trkpt lat="43.16305" lon="-1.23778">
        <ele>164.405446</ele>
        <time>2026-05-22T07:59:42.000Z</time>
      </trkpt>
      <trkpt lat="43.16303" lon="-1.23778">
        <ele>164.403031</ele>
        <time>2026-05-22T07:59:43.000Z</time>
      </trkpt>
      <trkpt lat="43.16301" lon="-1.23778">
        <ele>164.400476</ele>
        <time>2026-05-22T07:59:44.000Z</time>
      </trkpt>
      <trkpt lat="43.16299" lon="-1.23778">
        <ele>164.398299</ele>
        <time>2026-05-22T07:59:45.000Z</time>
      </trkpt>
      <trkpt lat="43.16298" lon="-1.23778">
        <ele>164.396394</ele>
        <time>2026-05-22T07:59:46.000Z</time>
      </trkpt>
      <trkpt lat="43.16296" lon="-1.23778">
        <ele>164.394361</ele>
        <time>2026-05-22T07:59:47.000Z</time>
      </trkpt>
      <trkpt lat="43.16294" lon="-1.23778">
        <ele>164.39231</ele>
        <time>2026-05-22T07:59:48.000Z</time>
      </trkpt>
      <trkpt lat="43.16292" lon="-1.23779">
        <ele>164.389786</ele>
        <time>2026-05-22T07:59:49.000Z</time>
      </trkpt>
      <trkpt lat="43.16291" lon="-1.2378">
        <ele>164.387046</ele>
        <time>2026-05-22T07:59:50.000Z</time>
      </trkpt>
      <trkpt lat="43.16289" lon="-1.23781">
        <ele>164.384461</ele>
        <time>2026-05-22T07:59:51.000Z</time>
      </trkpt>
      <trkpt lat="43.16287" lon="-1.23782">
        <ele>164.3825</ele>
        <time>2026-05-22T07:59:52.000Z</time>
      </trkpt>
      <trkpt lat="43.16286" lon="-1.23781">
        <ele>164.380826</ele>
        <time>2026-05-22T07:59:53.000Z</time>
      </trkpt>
      <trkpt lat="43.16285" lon="-1.23781">
        <ele>164.379164</ele>
        <time>2026-05-22T07:59:54.000Z</time>
      </trkpt>
      <trkpt lat="43.16283" lon="-1.23781">
        <ele>164.377386</ele>
        <time>2026-05-22T07:59:55.000Z</time>
      </trkpt>
      <trkpt lat="43.16282" lon="-1.23781">
        <ele>164.375732</ele>
        <time>2026-05-22T07:59:56.000Z</time>
      </trkpt>
      <trkpt lat="43.16281" lon="-1.23781">
        <ele>164.374921</ele>
        <time>2026-05-22T07:59:57.000Z</time>
      </trkpt>
      <trkpt lat="43.16281" lon="-1.23781">
        <ele>164.374764</ele>
        <time>2026-05-22T08:04:17.000Z</time>
      </trkpt>
      <trkpt lat="43.16282" lon="-1.23781">
        <ele>164.37348</ele>
        <time>2026-05-22T08:04:18.000Z</time>
      </trkpt>
      <trkpt lat="43.16284" lon="-1.23781">
        <ele>164.371829</ele>
        <time>2026-05-22T08:04:19.000Z</time>
      </trkpt>
      <trkpt lat="43.16285" lon="-1.23781">
        <ele>164.370432</ele>
        <time>2026-05-22T08:04:20.000Z</time>
      </trkpt>
      <trkpt lat="43.16286" lon="-1.2378">
        <ele>164.369256</ele>
        <time>2026-05-22T08:04:21.000Z</time>
      </trkpt>
      <trkpt lat="43.16287" lon="-1.2378">
        <ele>164.367831</ele>
        <time>2026-05-22T08:04:22.000Z</time>
      </trkpt>
      <trkpt lat="43.16288" lon="-1.2378">
        <ele>164.366296</ele>
        <time>2026-05-22T08:04:23.000Z</time>
      </trkpt>
      <trkpt lat="43.16289" lon="-1.23779">
        <ele>164.364995</ele>
        <time>2026-05-22T08:04:24.000Z</time>
      </trkpt>
      <trkpt lat="43.1629" lon="-1.23779">
        <ele>164.363301</ele>
        <time>2026-05-22T08:04:25.000Z</time>
      </trkpt>
      <trkpt lat="43.16291" lon="-1.23778">
        <ele>164.361624</ele>
        <time>2026-05-22T08:04:26.000Z</time>
      </trkpt>
      <trkpt lat="43.16292" lon="-1.23776">
        <ele>164.359936</ele>
        <time>2026-05-22T08:04:27.000Z</time>
      </trkpt>
      <trkpt lat="43.16293" lon="-1.23775">
        <ele>164.35803</ele>
        <time>2026-05-22T08:04:28.000Z</time>
      </trkpt>
      <trkpt lat="43.16294" lon="-1.23774">
        <ele>164.356214</ele>
        <time>2026-05-22T08:04:29.000Z</time>
      </trkpt>
      <trkpt lat="43.16295" lon="-1.23772">
        <ele>164.354262</ele>
        <time>2026-05-22T08:04:30.000Z</time>
      </trkpt>
      <trkpt lat="43.16296" lon="-1.23771">
        <ele>164.352463</ele>
        <time>2026-05-22T08:04:31.000Z</time>
      </trkpt>
      <trkpt lat="43.16297" lon="-1.23769">
        <ele>164.350932</ele>
        <time>2026-05-22T08:04:32.000Z</time>
      </trkpt>
      <trkpt lat="43.16298" lon="-1.23768">
        <ele>164.34946</ele>
        <time>2026-05-22T08:04:33.000Z</time>
      </trkpt>
      <trkpt lat="43.16299" lon="-1.23767">
        <ele>164.34826</ele>
        <time>2026-05-22T08:04:34.000Z</time>
      </trkpt>
      <trkpt lat="43.16299" lon="-1.23766">
        <ele>164.347061</ele>
        <time>2026-05-22T08:04:35.000Z</time>
      </trkpt>
      <trkpt lat="43.163" lon="-1.23766">
        <ele>164.34559</ele>
        <time>2026-05-22T08:04:36.000Z</time>
      </trkpt>
      <trkpt lat="43.16301" lon="-1.23765">
        <ele>164.34405</ele>
        <time>2026-05-22T08:04:37.000Z</time>
      </trkpt>
      <trkpt lat="43.16303" lon="-1.23765">
        <ele>164.342523</ele>
        <time>2026-05-22T08:04:38.000Z</time>
      </trkpt>
      <trkpt lat="43.16304" lon="-1.23765">
        <ele>164.340869</ele>
        <time>2026-05-22T08:04:39.000Z</time>
      </trkpt>
      <trkpt lat="43.16305" lon="-1.23765">
        <ele>164.339469</ele>
        <time>2026-05-22T08:04:40.000Z</time>
      </trkpt>
      <trkpt lat="43.16306" lon="-1.23764">
        <ele>164.337997</ele>
        <time>2026-05-22T08:04:41.000Z</time>
      </trkpt>
      <trkpt lat="43.16307" lon="-1.23764">
        <ele>164.336697</ele>
        <time>2026-05-22T08:04:42.000Z</time>
      </trkpt>
      <trkpt lat="43.16308" lon="-1.23764">
        <ele>164.335043</ele>
        <time>2026-05-22T08:04:43.000Z</time>
      </trkpt>
      <trkpt lat="43.16309" lon="-1.23764">
        <ele>164.333598</ele>
        <time>2026-05-22T08:04:44.000Z</time>
      </trkpt>
      <trkpt lat="43.16311" lon="-1.23763">
        <ele>164.331748</ele>
        <time>2026-05-22T08:04:45.000Z</time>
      </trkpt>
      <trkpt lat="43.16312" lon="-1.23762">
        <ele>164.330333</ele>
        <time>2026-05-22T08:04:46.000Z</time>
      </trkpt>
      <trkpt lat="43.16313" lon="-1.23761">
        <ele>164.328861</ele>
        <time>2026-05-22T08:04:47.000Z</time>
      </trkpt>
      <trkpt lat="43.16313" lon="-1.2376">
        <ele>164.327447</ele>
        <time>2026-05-22T08:04:48.000Z</time>
      </trkpt>
      <trkpt lat="43.16314" lon="-1.23759">
        <ele>164.326132</ele>
        <time>2026-05-22T08:04:49.000Z</time>
      </trkpt>
      <trkpt lat="43.16315" lon="-1.23758">
        <ele>164.324818</ele>
        <time>2026-05-22T08:04:50.000Z</time>
      </trkpt>
      <trkpt lat="43.16316" lon="-1.23757">
        <ele>164.323842</ele>
        <time>2026-05-22T08:04:51.000Z</time>
      </trkpt>
      <trkpt lat="43.16316" lon="-1.23756">
        <ele>164.322792</ele>
        <time>2026-05-22T08:04:52.000Z</time>
      </trkpt>
      <trkpt lat="43.16315" lon="-1.23759">
        <ele>164.320239</ele>
        <time>2026-05-22T08:14:55.000Z</time>
      </trkpt>
      <trkpt lat="43.16313" lon="-1.23761">
        <ele>164.316985</ele>
        <time>2026-05-22T08:14:56.000Z</time>
      </trkpt>
      <trkpt lat="43.16311" lon="-1.23762">
        <ele>164.313947</ele>
        <time>2026-05-22T08:14:57.000Z</time>
      </trkpt>
      <trkpt lat="43.16308" lon="-1.23763">
        <ele>164.31017</ele>
        <time>2026-05-22T08:14:58.000Z</time>
      </trkpt>
      <trkpt lat="43.16305" lon="-1.23764">
        <ele>164.305963</ele>
        <time>2026-05-22T08:14:59.000Z</time>
      </trkpt>
      <trkpt lat="43.16302" lon="-1.23766">
        <ele>164.302065</ele>
        <time>2026-05-22T08:15:00.000Z</time>
      </trkpt>
      <trkpt lat="43.163" lon="-1.23769">
        <ele>164.298551</ele>
        <time>2026-05-22T08:15:01.000Z</time>
      </trkpt>
      <trkpt lat="43.16298" lon="-1.23771">
        <ele>164.294986</ele>
        <time>2026-05-22T08:15:02.000Z</time>
      </trkpt>
      <trkpt lat="43.16296" lon="-1.23774">
        <ele>164.291576</ele>
        <time>2026-05-22T08:15:03.000Z</time>
      </trkpt>
      <trkpt lat="43.16294" lon="-1.23776">
        <ele>164.288319</ele>
        <time>2026-05-22T08:15:04.000Z</time>
      </trkpt>
      <trkpt lat="43.16292" lon="-1.23778">
        <ele>164.28533</ele>
        <time>2026-05-22T08:15:05.000Z</time>
      </trkpt>
      <trkpt lat="43.1629" lon="-1.23779">
        <ele>164.282745</ele>
        <time>2026-05-22T08:15:06.000Z</time>
      </trkpt>
      <trkpt lat="43.16289" lon="-1.23779">
        <ele>164.280929</ele>
        <time>2026-05-22T08:15:07.000Z</time>
      </trkpt>
      <trkpt lat="43.16288" lon="-1.23779">
        <ele>164.279913</ele>
        <time>2026-05-22T08:15:08.000Z</time>
      </trkpt>
      <trkpt lat="43.16285" lon="-1.23779">
        <ele>164.276326</ele>
        <time>2026-05-22T08:15:13.000Z</time>
      </trkpt>
      <trkpt lat="43.16284" lon="-1.23778">
        <ele>164.27465</ele>
        <time>2026-05-22T08:15:14.000Z</time>
      </trkpt>
      <trkpt lat="43.16283" lon="-1.23777">
        <ele>164.273568</ele>
        <time>2026-05-22T08:15:15.000Z</time>
      </trkpt>
      <trkpt lat="43.16283" lon="-1.23777">
        <ele>164.273314</ele>
        <time>2026-05-22T08:15:16.000Z</time>
      </trkpt>
      <trkpt lat="43.16283" lon="-1.23777">
        <ele>164.273314</ele>
        <time>2026-05-22T08:15:17.000Z</time>
      </trkpt>
      <trkpt lat="43.16286" lon="-1.2378">
        <ele>164.269126</ele>
        <time>2026-05-22T08:15:24.000Z</time>
      </trkpt>
      <trkpt lat="43.16287" lon="-1.23781">
        <ele>164.267384</ele>
        <time>2026-05-22T08:15:25.000Z</time>
      </trkpt>
      <trkpt lat="43.16288" lon="-1.23782">
        <ele>164.26561</ele>
        <time>2026-05-22T08:15:26.000Z</time>
      </trkpt>
      <trkpt lat="43.1629" lon="-1.23781">
        <ele>164.263685</ele>
        <time>2026-05-22T08:15:27.000Z</time>
      </trkpt>
      <trkpt lat="43.16291" lon="-1.23781">
        <ele>164.261942</ele>
        <time>2026-05-22T08:15:28.000Z</time>
      </trkpt>
      <trkpt lat="43.16293" lon="-1.2378">
        <ele>164.259836</ele>
        <time>2026-05-22T08:15:29.000Z</time>
      </trkpt>
      <trkpt lat="43.16294" lon="-1.23779">
        <ele>164.258141</ele>
        <time>2026-05-22T08:15:30.000Z</time>
      </trkpt>
      <trkpt lat="43.16295" lon="-1.23778">
        <ele>164.256022</ele>
        <time>2026-05-22T08:15:31.000Z</time>
      </trkpt>
      <trkpt lat="43.16297" lon="-1.23777">
        <ele>164.253789</ele>
        <time>2026-05-22T08:15:32.000Z</time>
      </trkpt>
      <trkpt lat="43.16298" lon="-1.23777">
        <ele>164.251723</ele>
        <time>2026-05-22T08:15:33.000Z</time>
      </trkpt>
      <trkpt lat="43.163" lon="-1.23777">
        <ele>164.249682</ele>
        <time>2026-05-22T08:15:34.000Z</time>
      </trkpt>
      <trkpt lat="43.16301" lon="-1.23777">
        <ele>164.247904</ele>
        <time>2026-05-22T08:15:35.000Z</time>
      </trkpt>
      <trkpt lat="43.16303" lon="-1.23776">
        <ele>164.247383</ele>
        <time>2026-05-22T08:15:36.000Z</time>
      </trkpt>
      <trkpt lat="43.16305" lon="-1.23775">
        <ele>164.263136</ele>
        <time>2026-05-22T08:15:37.000Z</time>
      </trkpt>
      <trkpt lat="43.16307" lon="-1.23774">
        <ele>164.280632</ele>
        <time>2026-05-22T08:15:38.000Z</time>
      </trkpt>
      <trkpt lat="43.16308" lon="-1.23771">
        <ele>164.300004</ele>
        <time>2026-05-22T08:15:39.000Z</time>
      </trkpt>
      <trkpt lat="43.1631" lon="-1.23769">
        <ele>164.318966</ele>
        <time>2026-05-22T08:15:40.000Z</time>
      </trkpt>
      <trkpt lat="43.16312" lon="-1.23767">
        <ele>164.338525</ele>
        <time>2026-05-22T08:15:41.000Z</time>
      </trkpt>
      <trkpt lat="43.16314" lon="-1.23765">
        <ele>164.359084</ele>
        <time>2026-05-22T08:15:42.000Z</time>
      </trkpt>
      <trkpt lat="43.16315" lon="-1.23762">
        <ele>164.378644</ele>
        <time>2026-05-22T08:15:43.000Z</time>
      </trkpt>
      <trkpt lat="43.16317" lon="-1.2376">
        <ele>164.398439</ele>
        <time>2026-05-22T08:15:44.000Z</time>
      </trkpt>
      <trkpt lat="43.16319" lon="-1.23758">
        <ele>164.418611</ele>
        <time>2026-05-22T08:15:45.000Z</time>
      </trkpt>
      <trkpt lat="43.16321" lon="-1.23756">
        <ele>164.440564</ele>
        <time>2026-05-22T08:15:46.000Z</time>
      </trkpt>
      <trkpt lat="43.16323" lon="-1.23753">
        <ele>164.462517</ele>
        <time>2026-05-22T08:15:47.000Z</time>
      </trkpt>
      <trkpt lat="43.16325" lon="-1.23751">
        <ele>164.48447</ele>
        <time>2026-05-22T08:15:48.000Z</time>
      </trkpt>
      <trkpt lat="43.16327" lon="-1.23748">
        <ele>164.504836</ele>
        <time>2026-05-22T08:15:49.000Z</time>
      </trkpt>
      <trkpt lat="43.16329" lon="-1.23746">
        <ele>164.526196</ele>
        <time>2026-05-22T08:15:50.000Z</time>
      </trkpt>
      <trkpt lat="43.16331" lon="-1.23744">
        <ele>164.545755</ele>
        <time>2026-05-22T08:15:51.000Z</time>
      </trkpt>
      <trkpt lat="43.16333" lon="-1.23741">
        <ele>164.564926</ele>
        <time>2026-05-22T08:15:52.000Z</time>
      </trkpt>
      <trkpt lat="43.16334" lon="-1.23739">
        <ele>164.584299</ele>
        <time>2026-05-22T08:15:53.000Z</time>
      </trkpt>
      <trkpt lat="43.16336" lon="-1.23737">
        <ele>164.60347</ele>
        <time>2026-05-22T08:15:54.000Z</time>
      </trkpt>
      <trkpt lat="43.16338" lon="-1.23735">
        <ele>164.623549</ele>
        <time>2026-05-22T08:15:55.000Z</time>
      </trkpt>
      <trkpt lat="43.1634" lon="-1.23733">
        <ele>164.642281</ele>
        <time>2026-05-22T08:15:56.000Z</time>
      </trkpt>
      <trkpt lat="43.16342" lon="-1.23731">
        <ele>164.660352</ele>
        <time>2026-05-22T08:15:57.000Z</time>
      </trkpt>
      <trkpt lat="43.16344" lon="-1.2373">
        <ele>164.678136</ele>
        <time>2026-05-22T08:15:58.000Z</time>
      </trkpt>
      <trkpt lat="43.16346" lon="-1.23728">
        <ele>164.698336</ele>
        <time>2026-05-22T08:15:59.000Z</time>
      </trkpt>
      <trkpt lat="43.16348" lon="-1.23726">
        <ele>164.72075</ele>
        <time>2026-05-22T08:16:00.000Z</time>
      </trkpt>
      <trkpt lat="43.1635" lon="-1.23724">
        <ele>164.742308</ele>
        <time>2026-05-22T08:16:01.000Z</time>
      </trkpt>
      <trkpt lat="43.16352" lon="-1.23721">
        <ele>164.763516</ele>
        <time>2026-05-22T08:16:02.000Z</time>
      </trkpt>
      <trkpt lat="43.16354" lon="-1.23719">
        <ele>164.785157</ele>
        <time>2026-05-22T08:16:03.000Z</time>
      </trkpt>
      <trkpt lat="43.16356" lon="-1.23716">
        <ele>164.807924</ele>
        <time>2026-05-22T08:16:04.000Z</time>
      </trkpt>
      <trkpt lat="43.16357" lon="-1.23713">
        <ele>164.829477</ele>
        <time>2026-05-22T08:16:05.000Z</time>
      </trkpt>
      <trkpt lat="43.16359" lon="-1.23711">
        <ele>164.849843</ele>
        <time>2026-05-22T08:16:06.000Z</time>
      </trkpt>
      <trkpt lat="43.16361" lon="-1.23708">
        <ele>164.871402</ele>
        <time>2026-05-22T08:16:07.000Z</time>
      </trkpt>
      <trkpt lat="43.16363" lon="-1.23706">
        <ele>164.893757</ele>
        <time>2026-05-22T08:16:08.000Z</time>
      </trkpt>
      <trkpt lat="43.16365" lon="-1.23703">
        <ele>164.915117</ele>
        <time>2026-05-22T08:16:09.000Z</time>
      </trkpt>
      <trkpt lat="43.16367" lon="-1.23701">
        <ele>164.935243</ele>
        <time>2026-05-22T08:16:10.000Z</time>
      </trkpt>
      <trkpt lat="43.16368" lon="-1.23698">
        <ele>164.952929</ele>
        <time>2026-05-22T08:16:11.000Z</time>
      </trkpt>
      <trkpt lat="43.16369" lon="-1.23696">
        <ele>164.968712</ele>
        <time>2026-05-22T08:16:12.000Z</time>
      </trkpt>
      <trkpt lat="43.1637" lon="-1.23694">
        <ele>164.983581</ele>
        <time>2026-05-22T08:16:13.000Z</time>
      </trkpt>
      <trkpt lat="43.16371" lon="-1.23693">
        <ele>164.99436</ele>
        <time>2026-05-22T08:16:14.000Z</time>
      </trkpt>
      <trkpt lat="43.16372" lon="-1.23692">
        <ele>165.002144</ele>
        <time>2026-05-22T08:16:15.000Z</time>
      </trkpt>
      <trkpt lat="43.16373" lon="-1.23692">
        <ele>165.013096</ele>
        <time>2026-05-22T08:16:16.000Z</time>
      </trkpt>
      <trkpt lat="43.16375" lon="-1.23692">
        <ele>165.026287</ele>
        <time>2026-05-22T08:16:17.000Z</time>
      </trkpt>
      <trkpt lat="43.16377" lon="-1.23693">
        <ele>165.042373</ele>
        <time>2026-05-22T08:16:18.000Z</time>
      </trkpt>
      <trkpt lat="43.16379" lon="-1.23695">
        <ele>165.06008</ele>
        <time>2026-05-22T08:16:19.000Z</time>
      </trkpt>
      <trkpt lat="43.16381" lon="-1.23696">
        <ele>165.078571</ele>
        <time>2026-05-22T08:16:20.000Z</time>
      </trkpt>
      <trkpt lat="43.16383" lon="-1.23699">
        <ele>165.099354</ele>
        <time>2026-05-22T08:16:21.000Z</time>
      </trkpt>
      <trkpt lat="43.16384" lon="-1.23702">
        <ele>165.12143</ele>
        <time>2026-05-22T08:16:22.000Z</time>
      </trkpt>
      <trkpt lat="43.16386" lon="-1.23705">
        <ele>165.146286</ele>
        <time>2026-05-22T08:16:23.000Z</time>
      </trkpt>
      <trkpt lat="43.16388" lon="-1.23708">
        <ele>165.171669</ele>
        <time>2026-05-22T08:16:24.000Z</time>
      </trkpt>
      <trkpt lat="43.1639" lon="-1.23712">
        <ele>165.197053</ele>
        <time>2026-05-22T08:16:25.000Z</time>
      </trkpt>
      <trkpt lat="43.16392" lon="-1.23715">
        <ele>165.223357</ele>
        <time>2026-05-22T08:16:26.000Z</time>
      </trkpt>
      <trkpt lat="43.16393" lon="-1.23719">
        <ele>165.250494</ele>
        <time>2026-05-22T08:16:27.000Z</time>
      </trkpt>
      <trkpt lat="43.16395" lon="-1.23724">
        <ele>165.282797</ele>
        <time>2026-05-22T08:16:28.000Z</time>
      </trkpt>
      <trkpt lat="43.16396" lon="-1.2373">
        <ele>165.316732</ele>
        <time>2026-05-22T08:16:29.000Z</time>
      </trkpt>
      <trkpt lat="43.16398" lon="-1.23735">
        <ele>165.351755</ele>
        <time>2026-05-22T08:16:30.000Z</time>
      </trkpt>
      <trkpt lat="43.16399" lon="-1.23741">
        <ele>165.386778</ele>
        <time>2026-05-22T08:16:31.000Z</time>
      </trkpt>
      <trkpt lat="43.164" lon="-1.23747">
        <ele>165.423015</ele>
        <time>2026-05-22T08:16:32.000Z</time>
      </trkpt>
      <trkpt lat="43.16402" lon="-1.23753">
        <ele>165.463112</ele>
        <time>2026-05-22T08:16:33.000Z</time>
      </trkpt>
      <trkpt lat="43.16403" lon="-1.2376">
        <ele>165.502642</ele>
        <time>2026-05-22T08:16:34.000Z</time>
      </trkpt>
      <trkpt lat="43.16405" lon="-1.23766">
        <ele>165.539349</ele>
        <time>2026-05-22T08:16:35.000Z</time>
      </trkpt>
      <trkpt lat="43.16407" lon="-1.23771">
        <ele>165.572703</ele>
        <time>2026-05-22T08:16:36.000Z</time>
      </trkpt>
      <trkpt lat="43.16409" lon="-1.23774">
        <ele>165.60044</ele>
        <time>2026-05-22T08:16:37.000Z</time>
      </trkpt>
      <trkpt lat="43.1641" lon="-1.23776">
        <ele>165.617411</ele>
        <time>2026-05-22T08:16:38.000Z</time>
      </trkpt>
      <trkpt lat="43.16412" lon="-1.23777">
        <ele>165.631498</ele>
        <time>2026-05-22T08:16:39.000Z</time>
      </trkpt>
      <trkpt lat="43.16414" lon="-1.23778">
        <ele>165.650607</ele>
        <time>2026-05-22T08:16:40.000Z</time>
      </trkpt>
      <trkpt lat="43.16417" lon="-1.23779">
        <ele>165.676991</ele>
        <time>2026-05-22T08:16:41.000Z</time>
      </trkpt>
      <trkpt lat="43.16421" lon="-1.2378">
        <ele>165.706096</ele>
        <time>2026-05-22T08:16:42.000Z</time>
      </trkpt>
      <trkpt lat="43.16424" lon="-1.2378">
        <ele>165.75882</ele>
        <time>2026-05-22T08:16:43.000Z</time>
      </trkpt>
      <trkpt lat="43.16428" lon="-1.2378">
        <ele>165.807302</ele>
        <time>2026-05-22T08:16:44.000Z</time>
      </trkpt>
      <trkpt lat="43.16431" lon="-1.2378">
        <ele>165.851628</ele>
        <time>2026-05-22T08:16:45.000Z</time>
      </trkpt>
      <trkpt lat="43.16433" lon="-1.2378">
        <ele>165.882169</ele>
        <time>2026-05-22T08:16:46.000Z</time>
      </trkpt>
      <trkpt lat="43.16436" lon="-1.2378">
        <ele>165.915552</ele>
        <time>2026-05-22T08:16:47.000Z</time>
      </trkpt>
      <trkpt lat="43.16438" lon="-1.2378">
        <ele>165.95024</ele>
        <time>2026-05-22T08:16:48.000Z</time>
      </trkpt>
      <trkpt lat="43.1644" lon="-1.2378">
        <ele>165.976733</ele>
        <time>2026-05-22T08:16:49.000Z</time>
      </trkpt>
      <trkpt lat="43.16441" lon="-1.2378">
        <ele>165.995435</ele>
        <time>2026-05-22T08:16:50.000Z</time>
      </trkpt>
      <trkpt lat="43.16443" lon="-1.23781">
        <ele>166.010806</ele>
        <time>2026-05-22T08:16:51.000Z</time>
      </trkpt>
      <trkpt lat="43.16443" lon="-1.23781">
        <ele>166.020048</ele>
        <time>2026-05-22T08:16:52.000Z</time>
      </trkpt>
      <trkpt lat="43.16443" lon="-1.23781">
        <ele>166.025844</ele>
        <time>2026-05-22T08:16:53.000Z</time>
      </trkpt>
      <trkpt lat="43.16443" lon="-1.23786">
        <ele>166.076834</ele>
        <time>2026-05-22T08:17:13.000Z</time>
      </trkpt>
      <trkpt lat="43.16443" lon="-1.23786">
        <ele>166.088265</ele>
        <time>2026-05-22T08:17:14.000Z</time>
      </trkpt>
      <trkpt lat="43.16449" lon="-1.23789">
        <ele>166.171113</ele>
        <time>2026-05-22T08:45:05.000Z</time>
      </trkpt>
      <trkpt lat="43.16448" lon="-1.23791">
        <ele>166.188503</ele>
        <time>2026-05-22T08:45:06.000Z</time>
      </trkpt>
      <trkpt lat="43.16447" lon="-1.23791">
        <ele>166.206567</ele>
        <time>2026-05-22T08:45:07.000Z</time>
      </trkpt>
      <trkpt lat="43.16446" lon="-1.23791">
        <ele>166.219075</ele>
        <time>2026-05-22T08:45:08.000Z</time>
      </trkpt>
      <trkpt lat="43.16444" lon="-1.23792">
        <ele>166.241806</ele>
        <time>2026-05-22T08:45:09.000Z</time>
      </trkpt>
      <trkpt lat="43.16442" lon="-1.23792">
        <ele>166.269675</ele>
        <time>2026-05-22T08:45:10.000Z</time>
      </trkpt>
      <trkpt lat="43.1644" lon="-1.23792">
        <ele>166.297379</ele>
        <time>2026-05-22T08:45:11.000Z</time>
      </trkpt>
      <trkpt lat="43.16438" lon="-1.23792">
        <ele>166.324006</ele>
        <time>2026-05-22T08:45:12.000Z</time>
      </trkpt>
      <trkpt lat="43.16436" lon="-1.23791">
        <ele>166.353164</ele>
        <time>2026-05-22T08:45:13.000Z</time>
      </trkpt>
      <trkpt lat="43.16434" lon="-1.2379">
        <ele>166.382533</ele>
        <time>2026-05-22T08:45:14.000Z</time>
      </trkpt>
      <trkpt lat="43.16432" lon="-1.23791">
        <ele>166.413024</ele>
        <time>2026-05-22T08:45:15.000Z</time>
      </trkpt>
      <trkpt lat="43.1643" lon="-1.2379">
        <ele>166.442392</ele>
        <time>2026-05-22T08:45:16.000Z</time>
      </trkpt>
      <trkpt lat="43.16428" lon="-1.2379">
        <ele>166.471498</ele>
        <time>2026-05-22T08:45:17.000Z</time>
      </trkpt>
      <trkpt lat="43.16425" lon="-1.2379">
        <ele>166.503613</ele>
        <time>2026-05-22T08:45:18.000Z</time>
      </trkpt>
      <trkpt lat="43.16423" lon="-1.23789">
        <ele>166.535536</ele>
        <time>2026-05-22T08:45:19.000Z</time>
      </trkpt>
      <trkpt lat="43.16421" lon="-1.23789">
        <ele>166.566427</ele>
        <time>2026-05-22T08:45:20.000Z</time>
      </trkpt>
      <trkpt lat="43.16419" lon="-1.23789">
        <ele>166.597051</ele>
        <time>2026-05-22T08:45:21.000Z</time>
      </trkpt>
      <trkpt lat="43.16417" lon="-1.23789">
        <ele>166.626158</ele>
        <time>2026-05-22T08:45:22.000Z</time>
      </trkpt>
      <trkpt lat="43.16415" lon="-1.23788">
        <ele>166.65388</ele>
        <time>2026-05-22T08:45:23.000Z</time>
      </trkpt>
      <trkpt lat="43.16413" lon="-1.23789">
        <ele>166.680276</ele>
        <time>2026-05-22T08:45:24.000Z</time>
      </trkpt>
      <trkpt lat="43.16411" lon="-1.2379">
        <ele>166.712713</ele>
        <time>2026-05-22T08:45:25.000Z</time>
      </trkpt>
      <trkpt lat="43.16409" lon="-1.23792">
        <ele>166.742706</ele>
        <time>2026-05-22T08:45:26.000Z</time>
      </trkpt>
      <trkpt lat="43.16408" lon="-1.23794">
        <ele>166.771277</ele>
        <time>2026-05-22T08:45:27.000Z</time>
      </trkpt>
      <trkpt lat="43.16407" lon="-1.23796">
        <ele>166.799848</ele>
        <time>2026-05-22T08:45:28.000Z</time>
      </trkpt>
      <trkpt lat="43.16407" lon="-1.23798">
        <ele>166.817024</ele>
        <time>2026-05-22T08:45:29.000Z</time>
      </trkpt>
      <trkpt lat="43.16406" lon="-1.238">
        <ele>166.835072</ele>
        <time>2026-05-22T08:45:30.000Z</time>
      </trkpt>
      <trkpt lat="43.16406" lon="-1.23802">
        <ele>166.854467</ele>
        <time>2026-05-22T08:45:31.000Z</time>
      </trkpt>
      <trkpt lat="43.16406" lon="-1.23803">
        <ele>166.867797</ele>
        <time>2026-05-22T08:45:32.000Z</time>
      </trkpt>
      <trkpt lat="43.16407" lon="-1.23804">
        <ele>166.884886</ele>
        <time>2026-05-22T08:45:33.000Z</time>
      </trkpt>
      <trkpt lat="43.16407" lon="-1.23806">
        <ele>166.905282</ele>
        <time>2026-05-22T08:45:34.000Z</time>
      </trkpt>
      <trkpt lat="43.16405" lon="-1.23808">
        <ele>166.925857</ele>
        <time>2026-05-22T08:45:35.000Z</time>
      </trkpt>
      <trkpt lat="43.16404" lon="-1.23808">
        <ele>166.939855</ele>
        <time>2026-05-22T08:45:36.000Z</time>
      </trkpt>
      <trkpt lat="43.16404" lon="-1.23807">
        <ele>166.94652</ele>
        <time>2026-05-22T08:45:37.000Z</time>
      </trkpt>
      <trkpt lat="43.16407" lon="-1.23784">
        <ele>167.187879</ele>
        <time>2026-05-22T08:47:32.000Z</time>
      </trkpt>
      <trkpt lat="43.16408" lon="-1.23782">
        <ele>167.204305</ele>
        <time>2026-05-22T08:47:33.000Z</time>
      </trkpt>
      <trkpt lat="43.16408" lon="-1.23782">
        <ele>167.214949</ele>
        <time>2026-05-22T08:47:34.000Z</time>
      </trkpt>
      <trkpt lat="43.16409" lon="-1.23781">
        <ele>167.225108</ele>
        <time>2026-05-22T08:47:35.000Z</time>
      </trkpt>
      <trkpt lat="43.1641" lon="-1.23781">
        <ele>167.244847</ele>
        <time>2026-05-22T08:47:36.000Z</time>
      </trkpt>
      <trkpt lat="43.16411" lon="-1.23779">
        <ele>167.260371</ele>
        <time>2026-05-22T08:47:37.000Z</time>
      </trkpt>
      <trkpt lat="43.16411" lon="-1.23777">
        <ele>167.279767</ele>
        <time>2026-05-22T08:47:38.000Z</time>
      </trkpt>
      <trkpt lat="43.1641" lon="-1.23776">
        <ele>167.301273</ele>
        <time>2026-05-22T08:47:39.000Z</time>
      </trkpt>
      <trkpt lat="43.16409" lon="-1.23774">
        <ele>167.326159</ele>
        <time>2026-05-22T08:47:40.000Z</time>
      </trkpt>
      <trkpt lat="43.16407" lon="-1.23772">
        <ele>167.353117</ele>
        <time>2026-05-22T08:47:41.000Z</time>
      </trkpt>
      <trkpt lat="43.16406" lon="-1.23771">
        <ele>167.379409</ele>
        <time>2026-05-22T08:47:42.000Z</time>
      </trkpt>
      <trkpt lat="43.16404" lon="-1.2377">
        <ele>167.403766</ele>
        <time>2026-05-22T08:47:43.000Z</time>
      </trkpt>
      <trkpt lat="43.16403" lon="-1.23768">
        <ele>167.429672</ele>
        <time>2026-05-22T08:47:44.000Z</time>
      </trkpt>
      <trkpt lat="43.16401" lon="-1.23766">
        <ele>167.45746</ele>
        <time>2026-05-22T08:47:45.000Z</time>
      </trkpt>
      <trkpt lat="43.16401" lon="-1.23763">
        <ele>167.483831</ele>
        <time>2026-05-22T08:47:46.000Z</time>
      </trkpt>
      <trkpt lat="43.164" lon="-1.23761">
        <ele>167.510884</ele>
        <time>2026-05-22T08:47:47.000Z</time>
      </trkpt>
      <trkpt lat="43.16399" lon="-1.23759">
        <ele>167.538467</ele>
        <time>2026-05-22T08:47:48.000Z</time>
      </trkpt>
      <trkpt lat="43.16398" lon="-1.23756">
        <ele>167.564101</ele>
        <time>2026-05-22T08:47:49.000Z</time>
      </trkpt>
      <trkpt lat="43.16398" lon="-1.23754">
        <ele>167.590697</ele>
        <time>2026-05-22T08:47:50.000Z</time>
      </trkpt>
      <trkpt lat="43.16398" lon="-1.23751">
        <ele>167.617292</ele>
        <time>2026-05-22T08:47:51.000Z</time>
      </trkpt>
      <trkpt lat="43.16398" lon="-1.23749">
        <ele>167.639692</ele>
        <time>2026-05-22T08:47:52.000Z</time>
      </trkpt>
      <trkpt lat="43.16398" lon="-1.23747">
        <ele>167.663095</ele>
        <time>2026-05-22T08:47:53.000Z</time>
      </trkpt>
      <trkpt lat="43.16397" lon="-1.23744">
        <ele>167.690689</ele>
        <time>2026-05-22T08:47:54.000Z</time>
      </trkpt>
      <trkpt lat="43.16397" lon="-1.23741">
        <ele>167.715291</ele>
        <time>2026-05-22T08:47:55.000Z</time>
      </trkpt>
      <trkpt lat="43.16396" lon="-1.23739">
        <ele>167.74051</ele>
        <time>2026-05-22T08:47:56.000Z</time>
      </trkpt>
      <trkpt lat="43.16396" lon="-1.23737">
        <ele>167.76569</ele>
        <time>2026-05-22T08:47:57.000Z</time>
      </trkpt>
      <trkpt lat="43.16395" lon="-1.23734">
        <ele>167.789296</ele>
        <time>2026-05-22T08:47:58.000Z</time>
      </trkpt>
      <trkpt lat="43.16395" lon="-1.23732">
        <ele>167.812576</ele>
        <time>2026-05-22T08:47:59.000Z</time>
      </trkpt>
      <trkpt lat="43.16394" lon="-1.2373">
        <ele>167.838061</ele>
        <time>2026-05-22T08:48:00.000Z</time>
      </trkpt>
      <trkpt lat="43.16394" lon="-1.23728">
        <ele>167.861343</ele>
        <time>2026-05-22T08:48:01.000Z</time>
      </trkpt>
      <trkpt lat="43.16393" lon="-1.23725">
        <ele>167.886976</ele>
        <time>2026-05-22T08:48:02.000Z</time>
      </trkpt>
      <trkpt lat="43.16393" lon="-1.23723">
        <ele>167.907606</ele>
        <time>2026-05-22T08:48:03.000Z</time>
      </trkpt>
      <trkpt lat="43.16393" lon="-1.23721">
        <ele>167.929877</ele>
        <time>2026-05-22T08:48:04.000Z</time>
      </trkpt>
      <trkpt lat="43.16392" lon="-1.23719">
        <ele>167.957803</ele>
        <time>2026-05-22T08:48:05.000Z</time>
      </trkpt>
      <trkpt lat="43.1639" lon="-1.23717">
        <ele>167.9875</ele>
        <time>2026-05-22T08:48:06.000Z</time>
      </trkpt>
      <trkpt lat="43.16389" lon="-1.23715">
        <ele>168.013986</ele>
        <time>2026-05-22T08:48:07.000Z</time>
      </trkpt>
      <trkpt lat="43.16387" lon="-1.23714">
        <ele>168.036857</ele>
        <time>2026-05-22T08:48:08.000Z</time>
      </trkpt>
      <trkpt lat="43.16387" lon="-1.23713">
        <ele>168.056456</ele>
        <time>2026-05-22T08:48:09.000Z</time>
      </trkpt>
      <trkpt lat="43.16386" lon="-1.23711">
        <ele>168.079346</ele>
        <time>2026-05-22T08:48:10.000Z</time>
      </trkpt>
      <trkpt lat="43.16385" lon="-1.23709">
        <ele>168.102207</ele>
        <time>2026-05-22T08:48:11.000Z</time>
      </trkpt>
      <trkpt lat="43.16384" lon="-1.23707">
        <ele>168.124273</ele>
        <time>2026-05-22T08:48:12.000Z</time>
      </trkpt>
      <trkpt lat="43.16382" lon="-1.23706">
        <ele>168.150599</ele>
        <time>2026-05-22T08:48:13.000Z</time>
      </trkpt>
      <trkpt lat="43.16381" lon="-1.23704">
        <ele>168.178211</ele>
        <time>2026-05-22T08:48:14.000Z</time>
      </trkpt>
      <trkpt lat="43.16379" lon="-1.23702">
        <ele>168.18349</ele>
        <time>2026-05-22T08:48:15.000Z</time>
      </trkpt>
      <trkpt lat="43.16377" lon="-1.23702">
        <ele>168.145495</ele>
        <time>2026-05-22T08:48:16.000Z</time>
      </trkpt>
      <trkpt lat="43.16376" lon="-1.23701">
        <ele>168.113025</ele>
        <time>2026-05-22T08:48:17.000Z</time>
      </trkpt>
      <trkpt lat="43.16374" lon="-1.237">
        <ele>168.07882</ele>
        <time>2026-05-22T08:48:18.000Z</time>
      </trkpt>
      <trkpt lat="43.16372" lon="-1.23701">
        <ele>168.048207</ele>
        <time>2026-05-22T08:48:19.000Z</time>
      </trkpt>
      <trkpt lat="43.16371" lon="-1.23702">
        <ele>168.007307</ele>
        <time>2026-05-22T08:48:20.000Z</time>
      </trkpt>
      <trkpt lat="43.16369" lon="-1.23704">
        <ele>167.965579</ele>
        <time>2026-05-22T08:48:21.000Z</time>
      </trkpt>
      <trkpt lat="43.16367" lon="-1.23706">
        <ele>167.914346</ele>
        <time>2026-05-22T08:48:22.000Z</time>
      </trkpt>
      <trkpt lat="43.16365" lon="-1.23709">
        <ele>167.857254</ele>
        <time>2026-05-22T08:48:23.000Z</time>
      </trkpt>
      <trkpt lat="43.16363" lon="-1.23712">
        <ele>167.796732</ele>
        <time>2026-05-22T08:48:24.000Z</time>
      </trkpt>
      <trkpt lat="43.1636" lon="-1.23715">
        <ele>167.733776</ele>
        <time>2026-05-22T08:48:25.000Z</time>
      </trkpt>
      <trkpt lat="43.16358" lon="-1.23718">
        <ele>167.667386</ele>
        <time>2026-05-22T08:48:26.000Z</time>
      </trkpt>
      <trkpt lat="43.16355" lon="-1.23721">
        <ele>167.600539</ele>
        <time>2026-05-22T08:48:27.000Z</time>
      </trkpt>
      <trkpt lat="43.16353" lon="-1.23724">
        <ele>167.533132</ele>
        <time>2026-05-22T08:48:28.000Z</time>
      </trkpt>
      <trkpt lat="43.1635" lon="-1.23727">
        <ele>167.462869</ele>
        <time>2026-05-22T08:48:29.000Z</time>
      </trkpt>
      <trkpt lat="43.16348" lon="-1.23731">
        <ele>167.39061</ele>
        <time>2026-05-22T08:48:30.000Z</time>
      </trkpt>
      <trkpt lat="43.16345" lon="-1.23735">
        <ele>167.312833</ele>
        <time>2026-05-22T08:48:31.000Z</time>
      </trkpt>
      <trkpt lat="43.16342" lon="-1.23739">
        <ele>167.230223</ele>
        <time>2026-05-22T08:48:32.000Z</time>
      </trkpt>
      <trkpt lat="43.16339" lon="-1.23743">
        <ele>167.147613</ele>
        <time>2026-05-22T08:48:33.000Z</time>
      </trkpt>
      <trkpt lat="43.16336" lon="-1.23747">
        <ele>167.060756</ele>
        <time>2026-05-22T08:48:34.000Z</time>
      </trkpt>
      <trkpt lat="43.16333" lon="-1.23751">
        <ele>166.967015</ele>
        <time>2026-05-22T08:48:35.000Z</time>
      </trkpt>
      <trkpt lat="43.16329" lon="-1.23755">
        <ele>166.878168</ele>
        <time>2026-05-22T08:48:36.000Z</time>
      </trkpt>
      <trkpt lat="43.16326" lon="-1.2376">
        <ele>166.788874</ele>
        <time>2026-05-22T08:48:37.000Z</time>
      </trkpt>
      <trkpt lat="43.16322" lon="-1.23764">
        <ele>166.691718</ele>
        <time>2026-05-22T08:48:38.000Z</time>
      </trkpt>
      <trkpt lat="43.16319" lon="-1.23769">
        <ele>166.588692</ele>
        <time>2026-05-22T08:48:39.000Z</time>
      </trkpt>
      <trkpt lat="43.16315" lon="-1.23774">
        <ele>166.481347</ele>
        <time>2026-05-22T08:48:40.000Z</time>
      </trkpt>
      <trkpt lat="43.16311" lon="-1.23779">
        <ele>166.379324</ele>
        <time>2026-05-22T08:48:41.000Z</time>
      </trkpt>
      <trkpt lat="43.16307" lon="-1.23783">
        <ele>166.279409</ele>
        <time>2026-05-22T08:48:42.000Z</time>
      </trkpt>
      <trkpt lat="43.16303" lon="-1.23787">
        <ele>166.182613</ele>
        <time>2026-05-22T08:48:43.000Z</time>
      </trkpt>
      <trkpt lat="43.16299" lon="-1.23792">
        <ele>166.084902</ele>
        <time>2026-05-22T08:48:44.000Z</time>
      </trkpt>
      <trkpt lat="43.16295" lon="-1.23796">
        <ele>165.980202</ele>
        <time>2026-05-22T08:48:45.000Z</time>
      </trkpt>
      <trkpt lat="43.1629" lon="-1.238">
        <ele>165.872246</ele>
        <time>2026-05-22T08:48:46.000Z</time>
      </trkpt>
      <trkpt lat="43.16286" lon="-1.23804">
        <ele>165.766672</ele>
        <time>2026-05-22T08:48:47.000Z</time>
      </trkpt>
      <trkpt lat="43.16282" lon="-1.23807">
        <ele>165.668444</ele>
        <time>2026-05-22T08:48:48.000Z</time>
      </trkpt>
      <trkpt lat="43.16278" lon="-1.23811">
        <ele>165.579045</ele>
        <time>2026-05-22T08:48:49.000Z</time>
      </trkpt>
      <trkpt lat="43.16274" lon="-1.23813">
        <ele>165.496966</ele>
        <time>2026-05-22T08:48:50.000Z</time>
      </trkpt>
      <trkpt lat="43.16271" lon="-1.23816">
        <ele>165.418312</ele>
        <time>2026-05-22T08:48:51.000Z</time>
      </trkpt>
      <trkpt lat="43.16268" lon="-1.23819">
        <ele>165.345273</ele>
        <time>2026-05-22T08:48:52.000Z</time>
      </trkpt>
      <trkpt lat="43.16265" lon="-1.23821">
        <ele>165.276392</ele>
        <time>2026-05-22T08:48:53.000Z</time>
      </trkpt>
      <trkpt lat="43.16262" lon="-1.23824">
        <ele>165.211781</ele>
        <time>2026-05-22T08:48:54.000Z</time>
      </trkpt>
      <trkpt lat="43.1626" lon="-1.23825">
        <ele>165.166731</ele>
        <time>2026-05-22T08:48:55.000Z</time>
      </trkpt>
      <trkpt lat="43.16259" lon="-1.23826">
        <ele>165.149095</ele>
        <time>2026-05-22T08:48:56.000Z</time>
      </trkpt>
      <trkpt lat="43.16259" lon="-1.23827">
        <ele>165.141595</ele>
        <time>2026-05-22T08:48:57.000Z</time>
      </trkpt>
      <trkpt lat="43.16257" lon="-1.2383">
        <ele>165.071756</ele>
        <time>2026-05-22T08:49:38.000Z</time>
      </trkpt>
      <trkpt lat="43.16255" lon="-1.23832">
        <ele>165.032482</ele>
        <time>2026-05-22T08:49:39.000Z</time>
      </trkpt>
      <trkpt lat="43.16254" lon="-1.23833">
        <ele>164.991983</ele>
        <time>2026-05-22T08:49:40.000Z</time>
      </trkpt>
      <trkpt lat="43.16251" lon="-1.23835">
        <ele>164.947403</ele>
        <time>2026-05-22T08:49:41.000Z</time>
      </trkpt>
      <trkpt lat="43.16249" lon="-1.23836">
        <ele>164.900445</ele>
        <time>2026-05-22T08:49:42.000Z</time>
      </trkpt>
      <trkpt lat="43.16247" lon="-1.23838">
        <ele>164.848627</ele>
        <time>2026-05-22T08:49:43.000Z</time>
      </trkpt>
      <trkpt lat="43.16245" lon="-1.23839">
        <ele>164.795056</ele>
        <time>2026-05-22T08:49:44.000Z</time>
      </trkpt>
      <trkpt lat="43.16242" lon="-1.23841">
        <ele>164.739716</ele>
        <time>2026-05-22T08:49:45.000Z</time>
      </trkpt>
      <trkpt lat="43.1624" lon="-1.23843">
        <ele>164.683031</ele>
        <time>2026-05-22T08:49:46.000Z</time>
      </trkpt>
      <trkpt lat="43.16237" lon="-1.23845">
        <ele>164.62793</ele>
        <time>2026-05-22T08:49:47.000Z</time>
      </trkpt>
      <trkpt lat="43.16235" lon="-1.23847">
        <ele>164.602277</ele>
        <time>2026-05-22T08:49:48.000Z</time>
      </trkpt>
      <trkpt lat="43.16232" lon="-1.23849">
        <ele>164.575775</ele>
        <time>2026-05-22T08:49:49.000Z</time>
      </trkpt>
      <trkpt lat="43.16229" lon="-1.23851">
        <ele>164.54933</ele>
        <time>2026-05-22T08:49:50.000Z</time>
      </trkpt>
      <trkpt lat="43.16226" lon="-1.23853">
        <ele>164.520078</ele>
        <time>2026-05-22T08:49:51.000Z</time>
      </trkpt>
      <trkpt lat="43.16223" lon="-1.23856">
        <ele>164.490826</ele>
        <time>2026-05-22T08:49:52.000Z</time>
      </trkpt>
      <trkpt lat="43.1622" lon="-1.23858">
        <ele>164.462504</ele>
        <time>2026-05-22T08:49:53.000Z</time>
      </trkpt>
      <trkpt lat="43.16218" lon="-1.2386">
        <ele>164.4333</ele>
        <time>2026-05-22T08:49:54.000Z</time>
      </trkpt>
      <trkpt lat="43.16215" lon="-1.23864">
        <ele>164.400754</ele>
        <time>2026-05-22T08:49:55.000Z</time>
      </trkpt>
      <trkpt lat="43.16212" lon="-1.23867">
        <ele>164.371401</ele>
        <time>2026-05-22T08:49:56.000Z</time>
      </trkpt>
      <trkpt lat="43.1621" lon="-1.2387">
        <ele>164.342772</ele>
        <time>2026-05-22T08:49:57.000Z</time>
      </trkpt>
      <trkpt lat="43.16208" lon="-1.23874">
        <ele>164.314143</ele>
        <time>2026-05-22T08:49:58.000Z</time>
      </trkpt>
      <trkpt lat="43.16206" lon="-1.23878">
        <ele>164.284001</ele>
        <time>2026-05-22T08:49:59.000Z</time>
      </trkpt>
      <trkpt lat="43.16205" lon="-1.23882">
        <ele>164.254914</ele>
        <time>2026-05-22T08:50:00.000Z</time>
      </trkpt>
      <trkpt lat="43.16204" lon="-1.23886">
        <ele>164.228573</ele>
        <time>2026-05-22T08:50:01.000Z</time>
      </trkpt>
      <trkpt lat="43.16205" lon="-1.2389">
        <ele>164.202517</ele>
        <time>2026-05-22T08:50:02.000Z</time>
      </trkpt>
      <trkpt lat="43.16205" lon="-1.23894">
        <ele>164.178812</ele>
        <time>2026-05-22T08:50:03.000Z</time>
      </trkpt>
      <trkpt lat="43.16207" lon="-1.23897">
        <ele>164.156706</ele>
        <time>2026-05-22T08:50:04.000Z</time>
      </trkpt>
      <trkpt lat="43.16208" lon="-1.239">
        <ele>164.134823</ele>
        <time>2026-05-22T08:50:05.000Z</time>
      </trkpt>
      <trkpt lat="43.1621" lon="-1.23903">
        <ele>164.111876</ele>
        <time>2026-05-22T08:50:06.000Z</time>
      </trkpt>
      <trkpt lat="43.16212" lon="-1.23905">
        <ele>164.088694</ele>
        <time>2026-05-22T08:50:07.000Z</time>
      </trkpt>
      <trkpt lat="43.16214" lon="-1.23908">
        <ele>164.064892</ele>
        <time>2026-05-22T08:50:08.000Z</time>
      </trkpt>
      <trkpt lat="43.16216" lon="-1.2391">
        <ele>164.042349</ele>
        <time>2026-05-22T08:50:09.000Z</time>
      </trkpt>
      <trkpt lat="43.16218" lon="-1.23912">
        <ele>164.019896</ele>
        <time>2026-05-22T08:50:10.000Z</time>
      </trkpt>
      <trkpt lat="43.16221" lon="-1.23914">
        <ele>163.99319</ele>
        <time>2026-05-22T08:50:11.000Z</time>
      </trkpt>
      <trkpt lat="43.16223" lon="-1.23916">
        <ele>163.966982</ele>
        <time>2026-05-22T08:50:12.000Z</time>
      </trkpt>
      <trkpt lat="43.16226" lon="-1.23918">
        <ele>163.940982</ele>
        <time>2026-05-22T08:50:13.000Z</time>
      </trkpt>
      <trkpt lat="43.16228" lon="-1.2392">
        <ele>163.916764</ele>
        <time>2026-05-22T08:50:14.000Z</time>
      </trkpt>
      <trkpt lat="43.16231" lon="-1.23922">
        <ele>163.891445</ele>
        <time>2026-05-22T08:50:15.000Z</time>
      </trkpt>
      <trkpt lat="43.16233" lon="-1.23925">
        <ele>163.868234</ele>
        <time>2026-05-22T08:50:16.000Z</time>
      </trkpt>
      <trkpt lat="43.16235" lon="-1.23926">
        <ele>163.848641</ele>
        <time>2026-05-22T08:50:17.000Z</time>
      </trkpt>
      <trkpt lat="43.16236" lon="-1.23927">
        <ele>163.835768</ele>
        <time>2026-05-22T08:50:18.000Z</time>
      </trkpt>
      <trkpt lat="43.16237" lon="-1.23929">
        <ele>163.822942</ele>
        <time>2026-05-22T08:50:19.000Z</time>
      </trkpt>
      <trkpt lat="43.16239" lon="-1.2393">
        <ele>163.806708</ele>
        <time>2026-05-22T08:50:20.000Z</time>
      </trkpt>
      <trkpt lat="43.1624" lon="-1.23931">
        <ele>163.790296</ele>
        <time>2026-05-22T08:50:21.000Z</time>
      </trkpt>
      <trkpt lat="43.16242" lon="-1.23933">
        <ele>163.773487</ele>
        <time>2026-05-22T08:50:22.000Z</time>
      </trkpt>
      <trkpt lat="43.16244" lon="-1.23934">
        <ele>163.752426</ele>
        <time>2026-05-22T08:50:23.000Z</time>
      </trkpt>
      <trkpt lat="43.16246" lon="-1.23936">
        <ele>163.731049</ele>
        <time>2026-05-22T08:50:24.000Z</time>
      </trkpt>
      <trkpt lat="43.16248" lon="-1.23938">
        <ele>163.707899</ele>
        <time>2026-05-22T08:50:25.000Z</time>
      </trkpt>
      <trkpt lat="43.1625" lon="-1.23941">
        <ele>163.683882</ele>
        <time>2026-05-22T08:50:26.000Z</time>
      </trkpt>
      <trkpt lat="43.16252" lon="-1.23944">
        <ele>163.658924</ele>
        <time>2026-05-22T08:50:27.000Z</time>
      </trkpt>
      <trkpt lat="43.16254" lon="-1.23947">
        <ele>163.633476</ele>
        <time>2026-05-22T08:50:28.000Z</time>
      </trkpt>
      <trkpt lat="43.16256" lon="-1.2395">
        <ele>163.606827</ele>
        <time>2026-05-22T08:50:29.000Z</time>
      </trkpt>
      <trkpt lat="43.16258" lon="-1.23953">
        <ele>163.579412</ele>
        <time>2026-05-22T08:50:30.000Z</time>
      </trkpt>
      <trkpt lat="43.16261" lon="-1.23956">
        <ele>163.550468</ele>
        <time>2026-05-22T08:50:31.000Z</time>
      </trkpt>
      <trkpt lat="43.16264" lon="-1.23959">
        <ele>163.520196</ele>
        <time>2026-05-22T08:50:32.000Z</time>
      </trkpt>
      <trkpt lat="43.16267" lon="-1.23962">
        <ele>163.48844</ele>
        <time>2026-05-22T08:50:33.000Z</time>
      </trkpt>
      <trkpt lat="43.1627" lon="-1.23965">
        <ele>163.454547</ele>
        <time>2026-05-22T08:50:34.000Z</time>
      </trkpt>
      <trkpt lat="43.16273" lon="-1.23969">
        <ele>163.419274</ele>
        <time>2026-05-22T08:50:35.000Z</time>
      </trkpt>
      <trkpt lat="43.16276" lon="-1.23972">
        <ele>163.383924</ele>
        <time>2026-05-22T08:50:36.000Z</time>
      </trkpt>
      <trkpt lat="43.16279" lon="-1.23975">
        <ele>163.353326</ele>
        <time>2026-05-22T08:50:37.000Z</time>
      </trkpt>
      <trkpt lat="43.16281" lon="-1.23978">
        <ele>163.328773</ele>
        <time>2026-05-22T08:50:38.000Z</time>
      </trkpt>
      <trkpt lat="43.16283" lon="-1.23981">
        <ele>163.306779</ele>
        <time>2026-05-22T08:50:39.000Z</time>
      </trkpt>
      <trkpt lat="43.16285" lon="-1.23984">
        <ele>163.282344</ele>
        <time>2026-05-22T08:50:40.000Z</time>
      </trkpt>
      <trkpt lat="43.16287" lon="-1.23986">
        <ele>163.257909</ele>
        <time>2026-05-22T08:50:41.000Z</time>
      </trkpt>
      <trkpt lat="43.16289" lon="-1.23989">
        <ele>163.231986</ele>
        <time>2026-05-22T08:50:42.000Z</time>
      </trkpt>
      <trkpt lat="43.16291" lon="-1.23992">
        <ele>163.204742</ele>
        <time>2026-05-22T08:50:43.000Z</time>
      </trkpt>
      <trkpt lat="43.16293" lon="-1.23995">
        <ele>163.179603</ele>
        <time>2026-05-22T08:50:44.000Z</time>
      </trkpt>
      <trkpt lat="43.16295" lon="-1.23998">
        <ele>163.156094</ele>
        <time>2026-05-22T08:50:45.000Z</time>
      </trkpt>
      <trkpt lat="43.16297" lon="-1.24001">
        <ele>163.133147</ele>
        <time>2026-05-22T08:50:46.000Z</time>
      </trkpt>
      <trkpt lat="43.16299" lon="-1.24003">
        <ele>163.107407</ele>
        <time>2026-05-22T08:50:47.000Z</time>
      </trkpt>
      <trkpt lat="43.16301" lon="-1.24006">
        <ele>163.081664</ele>
        <time>2026-05-22T08:50:48.000Z</time>
      </trkpt>
      <trkpt lat="43.16303" lon="-1.24009">
        <ele>163.033012</ele>
        <time>2026-05-22T08:50:49.000Z</time>
      </trkpt>
      <trkpt lat="43.16306" lon="-1.24013">
        <ele>162.975859</ele>
        <time>2026-05-22T08:50:50.000Z</time>
      </trkpt>
      <trkpt lat="43.16308" lon="-1.24017">
        <ele>162.915902</ele>
        <time>2026-05-22T08:50:51.000Z</time>
      </trkpt>
      <trkpt lat="43.1631" lon="-1.24022">
        <ele>162.851103</ele>
        <time>2026-05-22T08:50:52.000Z</time>
      </trkpt>
      <trkpt lat="43.16312" lon="-1.24026">
        <ele>162.785439</ele>
        <time>2026-05-22T08:50:53.000Z</time>
      </trkpt>
      <trkpt lat="43.16316" lon="-1.2403">
        <ele>162.716012</ele>
        <time>2026-05-22T08:50:54.000Z</time>
      </trkpt>
      <trkpt lat="43.16319" lon="-1.24035">
        <ele>162.639841</ele>
        <time>2026-05-22T08:50:55.000Z</time>
      </trkpt>
      <trkpt lat="43.16323" lon="-1.24039">
        <ele>162.560522</ele>
        <time>2026-05-22T08:50:56.000Z</time>
      </trkpt>
      <trkpt lat="43.16326" lon="-1.24044">
        <ele>162.479893</ele>
        <time>2026-05-22T08:50:57.000Z</time>
      </trkpt>
      <trkpt lat="43.1633" lon="-1.2405">
        <ele>162.39584</ele>
        <time>2026-05-22T08:50:58.000Z</time>
      </trkpt>
      <trkpt lat="43.16333" lon="-1.24055">
        <ele>162.308737</ele>
        <time>2026-05-22T08:50:59.000Z</time>
      </trkpt>
      <trkpt lat="43.16337" lon="-1.2406">
        <ele>162.219672</ele>
        <time>2026-05-22T08:51:00.000Z</time>
      </trkpt>
      <trkpt lat="43.16341" lon="-1.24066">
        <ele>162.130011</ele>
        <time>2026-05-22T08:51:01.000Z</time>
      </trkpt>
      <trkpt lat="43.16345" lon="-1.24071">
        <ele>162.045958</ele>
        <time>2026-05-22T08:51:02.000Z</time>
      </trkpt>
      <trkpt lat="43.16348" lon="-1.24076">
        <ele>161.962092</ele>
        <time>2026-05-22T08:51:03.000Z</time>
      </trkpt>
      <trkpt lat="43.16351" lon="-1.24082">
        <ele>161.878502</ele>
        <time>2026-05-22T08:51:04.000Z</time>
      </trkpt>
      <trkpt lat="43.16354" lon="-1.24088">
        <ele>161.793967</ele>
        <time>2026-05-22T08:51:05.000Z</time>
      </trkpt>
      <trkpt lat="43.16357" lon="-1.24093">
        <ele>161.712171</ele>
        <time>2026-05-22T08:51:06.000Z</time>
      </trkpt>
      <trkpt lat="43.1636" lon="-1.24098">
        <ele>161.638745</ele>
        <time>2026-05-22T08:51:07.000Z</time>
      </trkpt>
      <trkpt lat="43.16363" lon="-1.24102">
        <ele>161.569319</ele>
        <time>2026-05-22T08:51:08.000Z</time>
      </trkpt>
      <trkpt lat="43.16366" lon="-1.24106">
        <ele>161.501044</ele>
        <time>2026-05-22T08:51:09.000Z</time>
      </trkpt>
      <trkpt lat="43.16369" lon="-1.2411">
        <ele>161.431934</ele>
        <time>2026-05-22T08:51:10.000Z</time>
      </trkpt>
      <trkpt lat="43.16373" lon="-1.24115">
        <ele>161.360531</ele>
        <time>2026-05-22T08:51:11.000Z</time>
      </trkpt>
      <trkpt lat="43.16376" lon="-1.24119">
        <ele>161.289936</ele>
        <time>2026-05-22T08:51:12.000Z</time>
      </trkpt>
      <trkpt lat="43.16379" lon="-1.24124">
        <ele>161.213949</ele>
        <time>2026-05-22T08:51:13.000Z</time>
      </trkpt>
      <trkpt lat="43.16381" lon="-1.24129">
        <ele>161.141691</ele>
        <time>2026-05-22T08:51:14.000Z</time>
      </trkpt>
      <trkpt lat="43.16384" lon="-1.24134">
        <ele>161.072301</ele>
        <time>2026-05-22T08:51:15.000Z</time>
      </trkpt>
      <trkpt lat="43.16386" lon="-1.24139">
        <ele>161.003797</ele>
        <time>2026-05-22T08:51:16.000Z</time>
      </trkpt>
      <trkpt lat="43.16388" lon="-1.24143">
        <ele>160.938556</ele>
        <time>2026-05-22T08:51:17.000Z</time>
      </trkpt>
      <trkpt lat="43.1639" lon="-1.24148">
        <ele>160.874996</ele>
        <time>2026-05-22T08:51:18.000Z</time>
      </trkpt>
      <trkpt lat="43.16391" lon="-1.24154">
        <ele>160.810932</ele>
        <time>2026-05-22T08:51:19.000Z</time>
      </trkpt>
      <trkpt lat="43.16392" lon="-1.24159">
        <ele>160.742314</ele>
        <time>2026-05-22T08:51:20.000Z</time>
      </trkpt>
      <trkpt lat="43.16393" lon="-1.24165">
        <ele>160.672996</ele>
        <time>2026-05-22T08:51:21.000Z</time>
      </trkpt>
      <trkpt lat="43.16395" lon="-1.24171">
        <ele>160.602287</ele>
        <time>2026-05-22T08:51:22.000Z</time>
      </trkpt>
      <trkpt lat="43.16396" lon="-1.24176">
        <ele>160.530463</ele>
        <time>2026-05-22T08:51:23.000Z</time>
      </trkpt>
      <trkpt lat="43.16397" lon="-1.24182">
        <ele>160.457522</ele>
        <time>2026-05-22T08:51:24.000Z</time>
      </trkpt>
      <trkpt lat="43.16399" lon="-1.24188">
        <ele>160.383462</ele>
        <time>2026-05-22T08:51:25.000Z</time>
      </trkpt>
      <trkpt lat="43.164" lon="-1.24194">
        <ele>160.311003</ele>
        <time>2026-05-22T08:51:26.000Z</time>
      </trkpt>
      <trkpt lat="43.16401" lon="-1.242">
        <ele>160.239669</ele>
        <time>2026-05-22T08:51:27.000Z</time>
      </trkpt>
      <trkpt lat="43.16403" lon="-1.24205">
        <ele>160.17785</ele>
        <time>2026-05-22T08:51:28.000Z</time>
      </trkpt>
      <trkpt lat="43.16404" lon="-1.24211">
        <ele>160.182484</ele>
        <time>2026-05-22T08:51:29.000Z</time>
      </trkpt>
      <trkpt lat="43.16406" lon="-1.24216">
        <ele>160.187043</ele>
        <time>2026-05-22T08:51:30.000Z</time>
      </trkpt>
      <trkpt lat="43.16408" lon="-1.24222">
        <ele>160.191759</ele>
        <time>2026-05-22T08:51:31.000Z</time>
      </trkpt>
      <trkpt lat="43.16409" lon="-1.24227">
        <ele>160.196359</ele>
        <time>2026-05-22T08:51:32.000Z</time>
      </trkpt>
      <trkpt lat="43.16411" lon="-1.24232">
        <ele>160.200975</ele>
        <time>2026-05-22T08:51:33.000Z</time>
      </trkpt>
      <trkpt lat="43.16413" lon="-1.24237">
        <ele>160.205548</ele>
        <time>2026-05-22T08:51:34.000Z</time>
      </trkpt>
      <trkpt lat="43.16415" lon="-1.24242">
        <ele>160.210162</ele>
        <time>2026-05-22T08:51:35.000Z</time>
      </trkpt>
      <trkpt lat="43.16418" lon="-1.24246">
        <ele>160.214766</ele>
        <time>2026-05-22T08:51:36.000Z</time>
      </trkpt>
      <trkpt lat="43.16421" lon="-1.24251">
        <ele>160.219448</ele>
        <time>2026-05-22T08:51:37.000Z</time>
      </trkpt>
      <trkpt lat="43.16423" lon="-1.24255">
        <ele>160.223927</ele>
        <time>2026-05-22T08:51:38.000Z</time>
      </trkpt>
      <trkpt lat="43.16426" lon="-1.24259">
        <ele>160.228477</ele>
        <time>2026-05-22T08:51:39.000Z</time>
      </trkpt>
      <trkpt lat="43.16428" lon="-1.24264">
        <ele>160.232763</ele>
        <time>2026-05-22T08:51:40.000Z</time>
      </trkpt>
      <trkpt lat="43.16431" lon="-1.24267">
        <ele>160.237151</ele>
        <time>2026-05-22T08:51:41.000Z</time>
      </trkpt>
      <trkpt lat="43.16434" lon="-1.24271">
        <ele>160.241236</ele>
        <time>2026-05-22T08:51:42.000Z</time>
      </trkpt>
      <trkpt lat="43.16436" lon="-1.24274">
        <ele>160.245108</ele>
        <time>2026-05-22T08:51:43.000Z</time>
      </trkpt>
      <trkpt lat="43.16438" lon="-1.24277">
        <ele>160.248059</ele>
        <time>2026-05-22T08:51:44.000Z</time>
      </trkpt>
      <trkpt lat="43.1644" lon="-1.24279">
        <ele>160.250326</ele>
        <time>2026-05-22T08:51:45.000Z</time>
      </trkpt>
      <trkpt lat="43.16442" lon="-1.24279">
        <ele>160.252538</ele>
        <time>2026-05-22T08:51:46.000Z</time>
      </trkpt>
      <trkpt lat="43.16444" lon="-1.24279">
        <ele>160.254847</ele>
        <time>2026-05-22T08:51:47.000Z</time>
      </trkpt>
      <trkpt lat="43.16446" lon="-1.24278">
        <ele>160.2575</ele>
        <time>2026-05-22T08:51:48.000Z</time>
      </trkpt>
      <trkpt lat="43.16448" lon="-1.24276">
        <ele>160.260098</ele>
        <time>2026-05-22T08:51:49.000Z</time>
      </trkpt>
      <trkpt lat="43.1645" lon="-1.24273">
        <ele>160.262898</ele>
        <time>2026-05-22T08:51:50.000Z</time>
      </trkpt>
      <trkpt lat="43.16451" lon="-1.24271">
        <ele>160.265295</ele>
        <time>2026-05-22T08:51:51.000Z</time>
      </trkpt>
      <trkpt lat="43.16452" lon="-1.24269">
        <ele>160.267444</ele>
        <time>2026-05-22T08:51:52.000Z</time>
      </trkpt>
      <trkpt lat="43.16454" lon="-1.24267">
        <ele>160.269624</ele>
        <time>2026-05-22T08:51:53.000Z</time>
      </trkpt>
      <trkpt lat="43.16456" lon="-1.24267">
        <ele>160.272043</ele>
        <time>2026-05-22T08:51:54.000Z</time>
      </trkpt>
      <trkpt lat="43.16459" lon="-1.24269">
        <ele>160.274778</ele>
        <time>2026-05-22T08:51:55.000Z</time>
      </trkpt>
      <trkpt lat="43.16461" lon="-1.2427">
        <ele>160.277479</ele>
        <time>2026-05-22T08:51:56.000Z</time>
      </trkpt>
      <trkpt lat="43.16463" lon="-1.24272">
        <ele>160.280047</ele>
        <time>2026-05-22T08:51:57.000Z</time>
      </trkpt>
      <trkpt lat="43.16465" lon="-1.24273">
        <ele>160.28236</ele>
        <time>2026-05-22T08:51:58.000Z</time>
      </trkpt>
      <trkpt lat="43.16466" lon="-1.24275">
        <ele>160.284795</ele>
        <time>2026-05-22T08:51:59.000Z</time>
      </trkpt>
      <trkpt lat="43.16468" lon="-1.24277">
        <ele>160.287004</ele>
        <time>2026-05-22T08:52:00.000Z</time>
      </trkpt>
      <trkpt lat="43.16469" lon="-1.2428">
        <ele>160.289337</ele>
        <time>2026-05-22T08:52:01.000Z</time>
      </trkpt>
      <trkpt lat="43.1647" lon="-1.24282">
        <ele>160.291353</ele>
        <time>2026-05-22T08:52:02.000Z</time>
      </trkpt>
      <trkpt lat="43.16471" lon="-1.24283">
        <ele>160.293103</ele>
        <time>2026-05-22T08:52:03.000Z</time>
      </trkpt>
      <trkpt lat="43.16472" lon="-1.24285">
        <ele>160.294917</ele>
        <time>2026-05-22T08:52:04.000Z</time>
      </trkpt>
      <trkpt lat="43.16473" lon="-1.24287">
        <ele>160.296862</ele>
        <time>2026-05-22T08:52:05.000Z</time>
      </trkpt>
      <trkpt lat="43.16474" lon="-1.24289">
        <ele>160.298491</ele>
        <time>2026-05-22T08:52:06.000Z</time>
      </trkpt>
      <trkpt lat="43.16475" lon="-1.24289">
        <ele>160.300209</ele>
        <time>2026-05-22T08:52:07.000Z</time>
      </trkpt>
      <trkpt lat="43.16476" lon="-1.2429">
        <ele>160.301015</ele>
        <time>2026-05-22T08:52:08.000Z</time>
      </trkpt>
      <trkpt lat="43.16477" lon="-1.2429">
        <ele>160.301571</ele>
        <time>2026-05-22T08:52:09.000Z</time>
      </trkpt>
      <trkpt lat="43.16477" lon="-1.2429">
        <ele>160.302377</ele>
        <time>2026-05-22T08:52:10.000Z</time>
      </trkpt>
      <trkpt lat="43.16478" lon="-1.24291">
        <ele>160.30333</ele>
        <time>2026-05-22T08:52:11.000Z</time>
      </trkpt>
      <trkpt lat="43.16479" lon="-1.24292">
        <ele>160.304368</ele>
        <time>2026-05-22T08:52:12.000Z</time>
      </trkpt>
      <trkpt lat="43.16479" lon="-1.24291">
        <ele>160.30507</ele>
        <time>2026-05-22T08:52:13.000Z</time>
      </trkpt>
      <trkpt lat="43.1648" lon="-1.24291">
        <ele>160.305751</ele>
        <time>2026-05-22T08:52:14.000Z</time>
      </trkpt>
      <trkpt lat="43.1648" lon="-1.2429">
        <ele>160.306536</ele>
        <time>2026-05-22T08:52:15.000Z</time>
      </trkpt>
      <trkpt lat="43.16481" lon="-1.24289">
        <ele>160.307381</ele>
        <time>2026-05-22T08:52:16.000Z</time>
      </trkpt>
      <trkpt lat="43.16486" lon="-1.24306">
        <ele>160.321593</ele>
        <time>2026-05-22T09:04:21.000Z</time>
      </trkpt>
      <trkpt lat="43.16485" lon="-1.24306">
        <ele>160.322367</ele>
        <time>2026-05-22T09:04:22.000Z</time>
      </trkpt>
      <trkpt lat="43.16483" lon="-1.24305">
        <ele>160.324243</ele>
        <time>2026-05-22T09:04:23.000Z</time>
      </trkpt>
      <trkpt lat="43.16482" lon="-1.24306">
        <ele>160.326031</ele>
        <time>2026-05-22T09:04:24.000Z</time>
      </trkpt>
      <trkpt lat="43.1648" lon="-1.24306">
        <ele>160.32812</ele>
        <time>2026-05-22T09:04:25.000Z</time>
      </trkpt>
      <trkpt lat="43.16478" lon="-1.24306">
        <ele>160.33032</ele>
        <time>2026-05-22T09:04:26.000Z</time>
      </trkpt>
      <trkpt lat="43.16476" lon="-1.24305">
        <ele>160.332447</ele>
        <time>2026-05-22T09:04:27.000Z</time>
      </trkpt>
      <trkpt lat="43.16474" lon="-1.24303">
        <ele>160.335034</ele>
        <time>2026-05-22T09:04:28.000Z</time>
      </trkpt>
      <trkpt lat="43.16472" lon="-1.24301">
        <ele>160.338145</ele>
        <time>2026-05-22T09:04:29.000Z</time>
      </trkpt>
      <trkpt lat="43.1647" lon="-1.24298">
        <ele>160.341323</ele>
        <time>2026-05-22T09:04:30.000Z</time>
      </trkpt>
      <trkpt lat="43.16468" lon="-1.24294">
        <ele>160.344562</ele>
        <time>2026-05-22T09:04:31.000Z</time>
      </trkpt>
      <trkpt lat="43.16467" lon="-1.24291">
        <ele>160.347673</ele>
        <time>2026-05-22T09:04:32.000Z</time>
      </trkpt>
      <trkpt lat="43.16465" lon="-1.24288">
        <ele>160.350799</ele>
        <time>2026-05-22T09:04:33.000Z</time>
      </trkpt>
      <trkpt lat="43.16462" lon="-1.24286">
        <ele>160.354154</ele>
        <time>2026-05-22T09:04:34.000Z</time>
      </trkpt>
      <trkpt lat="43.1646" lon="-1.24283">
        <ele>160.357196</ele>
        <time>2026-05-22T09:04:35.000Z</time>
      </trkpt>
      <trkpt lat="43.16458" lon="-1.24281">
        <ele>160.360007</ele>
        <time>2026-05-22T09:04:36.000Z</time>
      </trkpt>
      <trkpt lat="43.16456" lon="-1.24279">
        <ele>160.36273</ele>
        <time>2026-05-22T09:04:37.000Z</time>
      </trkpt>
      <trkpt lat="43.16454" lon="-1.24279">
        <ele>160.365232</ele>
        <time>2026-05-22T09:04:38.000Z</time>
      </trkpt>
      <trkpt lat="43.16452" lon="-1.24279">
        <ele>160.367335</ele>
        <time>2026-05-22T09:04:39.000Z</time>
      </trkpt>
      <trkpt lat="43.1645" lon="-1.2428">
        <ele>160.369181</ele>
        <time>2026-05-22T09:04:40.000Z</time>
      </trkpt>
      <trkpt lat="43.16449" lon="-1.24281">
        <ele>160.371226</ele>
        <time>2026-05-22T09:04:41.000Z</time>
      </trkpt>
      <trkpt lat="43.16448" lon="-1.24282">
        <ele>160.372932</ele>
        <time>2026-05-22T09:04:42.000Z</time>
      </trkpt>
      <trkpt lat="43.16447" lon="-1.24284">
        <ele>160.374519</ele>
        <time>2026-05-22T09:04:43.000Z</time>
      </trkpt>
      <trkpt lat="43.16446" lon="-1.24286">
        <ele>160.380168</ele>
        <time>2026-05-22T09:04:44.000Z</time>
      </trkpt>
      <trkpt lat="43.16446" lon="-1.24287">
        <ele>160.389816</ele>
        <time>2026-05-22T09:04:45.000Z</time>
      </trkpt>
      <trkpt lat="43.16445" lon="-1.24288">
        <ele>160.39742</ele>
        <time>2026-05-22T09:04:46.000Z</time>
      </trkpt>
      <trkpt lat="43.16443" lon="-1.24288">
        <ele>160.408054</ele>
        <time>2026-05-22T09:04:47.000Z</time>
      </trkpt>
      <trkpt lat="43.16441" lon="-1.24288">
        <ele>160.422233</ele>
        <time>2026-05-22T09:04:48.000Z</time>
      </trkpt>
      <trkpt lat="43.16439" lon="-1.24287">
        <ele>160.437685</ele>
        <time>2026-05-22T09:04:49.000Z</time>
      </trkpt>
      <trkpt lat="43.16437" lon="-1.24285">
        <ele>160.456689</ele>
        <time>2026-05-22T09:04:50.000Z</time>
      </trkpt>
      <trkpt lat="43.16435" lon="-1.24282">
        <ele>160.47819</ele>
        <time>2026-05-22T09:04:51.000Z</time>
      </trkpt>
      <trkpt lat="43.16433" lon="-1.24279">
        <ele>160.49993</ele>
        <time>2026-05-22T09:04:52.000Z</time>
      </trkpt>
      <trkpt lat="43.16431" lon="-1.24276">
        <ele>160.52167</ele>
        <time>2026-05-22T09:04:53.000Z</time>
      </trkpt>
      <trkpt lat="43.16429" lon="-1.24272">
        <ele>160.543856</ele>
        <time>2026-05-22T09:04:54.000Z</time>
      </trkpt>
      <trkpt lat="43.16427" lon="-1.24269">
        <ele>160.567953</ele>
        <time>2026-05-22T09:04:55.000Z</time>
      </trkpt>
      <trkpt lat="43.16424" lon="-1.24266">
        <ele>160.591071</ele>
        <time>2026-05-22T09:04:56.000Z</time>
      </trkpt>
      <trkpt lat="43.16422" lon="-1.24263">
        <ele>160.615499</ele>
        <time>2026-05-22T09:04:57.000Z</time>
      </trkpt>
      <trkpt lat="43.1642" lon="-1.24259">
        <ele>160.639785</ele>
        <time>2026-05-22T09:04:58.000Z</time>
      </trkpt>
      <trkpt lat="43.16417" lon="-1.24255">
        <ele>160.664532</ele>
        <time>2026-05-22T09:04:59.000Z</time>
      </trkpt>
      <trkpt lat="43.16415" lon="-1.24252">
        <ele>160.689184</ele>
        <time>2026-05-22T09:05:00.000Z</time>
      </trkpt>
      <trkpt lat="43.16413" lon="-1.24247">
        <ele>160.716344</ele>
        <time>2026-05-22T09:05:01.000Z</time>
      </trkpt>
      <trkpt lat="43.16411" lon="-1.24243">
        <ele>160.743153</ele>
        <time>2026-05-22T09:05:02.000Z</time>
      </trkpt>
      <trkpt lat="43.16409" lon="-1.24238">
        <ele>160.772306</ele>
        <time>2026-05-22T09:05:03.000Z</time>
      </trkpt>
      <trkpt lat="43.16407" lon="-1.24233">
        <ele>160.801773</ele>
        <time>2026-05-22T09:05:04.000Z</time>
      </trkpt>
      <trkpt lat="43.16406" lon="-1.24227">
        <ele>160.832621</ele>
        <time>2026-05-22T09:05:05.000Z</time>
      </trkpt>
      <trkpt lat="43.16404" lon="-1.24221">
        <ele>160.863955</ele>
        <time>2026-05-22T09:05:06.000Z</time>
      </trkpt>
      <trkpt lat="43.16403" lon="-1.24216">
        <ele>160.896038</ele>
        <time>2026-05-22T09:05:07.000Z</time>
      </trkpt>
      <trkpt lat="43.16401" lon="-1.24209">
        <ele>160.930545</ele>
        <time>2026-05-22T09:05:08.000Z</time>
      </trkpt>
      <trkpt lat="43.16399" lon="-1.24203">
        <ele>160.966074</ele>
        <time>2026-05-22T09:05:09.000Z</time>
      </trkpt>
      <trkpt lat="43.16398" lon="-1.24197">
        <ele>161.001058</ele>
        <time>2026-05-22T09:05:10.000Z</time>
      </trkpt>
      <trkpt lat="43.16396" lon="-1.2419">
        <ele>161.036765</ele>
        <time>2026-05-22T09:05:11.000Z</time>
      </trkpt>
      <trkpt lat="43.16394" lon="-1.24183">
        <ele>161.074425</ele>
        <time>2026-05-22T09:05:12.000Z</time>
      </trkpt>
      <trkpt lat="43.16393" lon="-1.24176">
        <ele>161.111865</ele>
        <time>2026-05-22T09:05:13.000Z</time>
      </trkpt>
      <trkpt lat="43.16391" lon="-1.24169">
        <ele>161.148899</ele>
        <time>2026-05-22T09:05:14.000Z</time>
      </trkpt>
      <trkpt lat="43.1639" lon="-1.24162">
        <ele>161.186832</ele>
        <time>2026-05-22T09:05:15.000Z</time>
      </trkpt>
      <trkpt lat="43.16388" lon="-1.24156">
        <ele>161.223779</ele>
        <time>2026-05-22T09:05:16.000Z</time>
      </trkpt>
      <trkpt lat="43.16386" lon="-1.24149">
        <ele>161.26054</ele>
        <time>2026-05-22T09:05:17.000Z</time>
      </trkpt>
      <trkpt lat="43.16384" lon="-1.24143">
        <ele>161.298213</ele>
        <time>2026-05-22T09:05:18.000Z</time>
      </trkpt>
      <trkpt lat="43.16381" lon="-1.24136">
        <ele>161.335194</ele>
        <time>2026-05-22T09:05:19.000Z</time>
      </trkpt>
      <trkpt lat="43.16378" lon="-1.24131">
        <ele>161.370729</ele>
        <time>2026-05-22T09:05:20.000Z</time>
      </trkpt>
      <trkpt lat="43.16375" lon="-1.24126">
        <ele>161.40427</ele>
        <time>2026-05-22T09:05:21.000Z</time>
      </trkpt>
      <trkpt lat="43.16372" lon="-1.24122">
        <ele>161.436178</ele>
        <time>2026-05-22T09:05:22.000Z</time>
      </trkpt>
      <trkpt lat="43.16369" lon="-1.24117">
        <ele>161.467323</ele>
        <time>2026-05-22T09:05:23.000Z</time>
      </trkpt>
      <trkpt lat="43.16366" lon="-1.24113">
        <ele>161.498092</ele>
        <time>2026-05-22T09:05:24.000Z</time>
      </trkpt>
      <trkpt lat="43.16363" lon="-1.24109">
        <ele>161.52676</ele>
        <time>2026-05-22T09:05:25.000Z</time>
      </trkpt>
      <trkpt lat="43.1636" lon="-1.24105">
        <ele>161.554394</ele>
        <time>2026-05-22T09:05:26.000Z</time>
      </trkpt>
      <trkpt lat="43.16358" lon="-1.24101">
        <ele>161.581826</ele>
        <time>2026-05-22T09:05:27.000Z</time>
      </trkpt>
      <trkpt lat="43.16355" lon="-1.24097">
        <ele>161.609911</ele>
        <time>2026-05-22T09:05:28.000Z</time>
      </trkpt>
      <trkpt lat="43.16352" lon="-1.24094">
        <ele>161.635991</ele>
        <time>2026-05-22T09:05:29.000Z</time>
      </trkpt>
      <trkpt lat="43.1635" lon="-1.2409">
        <ele>161.730053</ele>
        <time>2026-05-22T09:05:30.000Z</time>
      </trkpt>
      <trkpt lat="43.16348" lon="-1.24086">
        <ele>161.898453</ele>
        <time>2026-05-22T09:05:31.000Z</time>
      </trkpt>
      <trkpt lat="43.16345" lon="-1.24081">
        <ele>162.066737</ele>
        <time>2026-05-22T09:05:32.000Z</time>
      </trkpt>
      <trkpt lat="43.16343" lon="-1.24077">
        <ele>162.237981</ele>
        <time>2026-05-22T09:05:33.000Z</time>
      </trkpt>
      <trkpt lat="43.1634" lon="-1.24074">
        <ele>162.410242</ele>
        <time>2026-05-22T09:05:34.000Z</time>
      </trkpt>
      <trkpt lat="43.16338" lon="-1.2407">
        <ele>162.585634</ele>
        <time>2026-05-22T09:05:35.000Z</time>
      </trkpt>
      <trkpt lat="43.16335" lon="-1.24066">
        <ele>162.757296</ele>
        <time>2026-05-22T09:05:36.000Z</time>
      </trkpt>
      <trkpt lat="43.16333" lon="-1.24062">
        <ele>162.928957</ele>
        <time>2026-05-22T09:05:37.000Z</time>
      </trkpt>
      <trkpt lat="43.1633" lon="-1.24058">
        <ele>163.098149</ele>
        <time>2026-05-22T09:05:38.000Z</time>
      </trkpt>
      <trkpt lat="43.16328" lon="-1.24055">
        <ele>163.268014</ele>
        <time>2026-05-22T09:05:39.000Z</time>
      </trkpt>
      <trkpt lat="43.16325" lon="-1.24051">
        <ele>163.443407</ele>
        <time>2026-05-22T09:05:40.000Z</time>
      </trkpt>
      <trkpt lat="43.16322" lon="-1.24047">
        <ele>163.616447</ele>
        <time>2026-05-22T09:05:41.000Z</time>
      </trkpt>
      <trkpt lat="43.1632" lon="-1.24043">
        <ele>163.79184</ele>
        <time>2026-05-22T09:05:42.000Z</time>
      </trkpt>
      <trkpt lat="43.16317" lon="-1.2404">
        <ele>163.974751</ele>
        <time>2026-05-22T09:05:43.000Z</time>
      </trkpt>
      <trkpt lat="43.16314" lon="-1.24036">
        <ele>164.151026</ele>
        <time>2026-05-22T09:05:44.000Z</time>
      </trkpt>
      <trkpt lat="43.16311" lon="-1.24032">
        <ele>164.325023</ele>
        <time>2026-05-22T09:05:45.000Z</time>
      </trkpt>
      <trkpt lat="43.16308" lon="-1.24029">
        <ele>164.493454</ele>
        <time>2026-05-22T09:05:46.000Z</time>
      </trkpt>
      <trkpt lat="43.16306" lon="-1.24025">
        <ele>164.661885</ele>
        <time>2026-05-22T09:05:47.000Z</time>
      </trkpt>
      <trkpt lat="43.16303" lon="-1.24022">
        <ele>164.830315</ele>
        <time>2026-05-22T09:05:48.000Z</time>
      </trkpt>
      <trkpt lat="43.163" lon="-1.24018">
        <ele>164.995482</ele>
        <time>2026-05-22T09:05:49.000Z</time>
      </trkpt>
      <trkpt lat="43.16298" lon="-1.24015">
        <ele>165.162234</ele>
        <time>2026-05-22T09:05:50.000Z</time>
      </trkpt>
      <trkpt lat="43.16295" lon="-1.24011">
        <ele>165.315549</ele>
        <time>2026-05-22T09:05:51.000Z</time>
      </trkpt>
      <trkpt lat="43.16293" lon="-1.24008">
        <ele>165.467299</ele>
        <time>2026-05-22T09:05:52.000Z</time>
      </trkpt>
      <trkpt lat="43.16291" lon="-1.24005">
        <ele>165.624606</ele>
        <time>2026-05-22T09:05:53.000Z</time>
      </trkpt>
      <trkpt lat="43.16288" lon="-1.24002">
        <ele>165.776535</ele>
        <time>2026-05-22T09:05:54.000Z</time>
      </trkpt>
      <trkpt lat="43.16285" lon="-1.23999">
        <ele>165.930079</ele>
        <time>2026-05-22T09:05:55.000Z</time>
      </trkpt>
      <trkpt lat="43.16282" lon="-1.23997">
        <ele>166.083369</ele>
        <time>2026-05-22T09:05:56.000Z</time>
      </trkpt>
      <trkpt lat="43.16279" lon="-1.23994">
        <ele>166.234829</ele>
        <time>2026-05-22T09:05:57.000Z</time>
      </trkpt>
      <trkpt lat="43.16276" lon="-1.23992">
        <ele>166.392271</ele>
        <time>2026-05-22T09:05:58.000Z</time>
      </trkpt>
      <trkpt lat="43.16273" lon="-1.2399">
        <ele>166.562902</ele>
        <time>2026-05-22T09:05:59.000Z</time>
      </trkpt>
      <trkpt lat="43.16269" lon="-1.23989">
        <ele>166.726435</ele>
        <time>2026-05-22T09:06:00.000Z</time>
      </trkpt>
      <trkpt lat="43.16266" lon="-1.23988">
        <ele>166.868345</ele>
        <time>2026-05-22T09:06:01.000Z</time>
      </trkpt>
      <trkpt lat="43.16264" lon="-1.23988">
        <ele>166.995305</ele>
        <time>2026-05-22T09:06:02.000Z</time>
      </trkpt>
      <trkpt lat="43.16261" lon="-1.23988">
        <ele>167.113897</ele>
        <time>2026-05-22T09:06:03.000Z</time>
      </trkpt>
      <trkpt lat="43.16258" lon="-1.23989">
        <ele>167.227409</ele>
        <time>2026-05-22T09:06:04.000Z</time>
      </trkpt>
      <trkpt lat="43.16256" lon="-1.23989">
        <ele>167.331873</ele>
        <time>2026-05-22T09:06:05.000Z</time>
      </trkpt>
      <trkpt lat="43.16254" lon="-1.23989">
        <ele>167.445192</ele>
        <time>2026-05-22T09:06:06.000Z</time>
      </trkpt>
      <trkpt lat="43.16251" lon="-1.23989">
        <ele>167.558945</ele>
        <time>2026-05-22T09:06:07.000Z</time>
      </trkpt>
      <trkpt lat="43.16249" lon="-1.2399">
        <ele>167.67795</ele>
        <time>2026-05-22T09:06:08.000Z</time>
      </trkpt>
      <trkpt lat="43.16246" lon="-1.2399">
        <ele>167.801933</ele>
        <time>2026-05-22T09:06:09.000Z</time>
      </trkpt>
      <trkpt lat="43.16243" lon="-1.23992">
        <ele>167.931646</ele>
        <time>2026-05-22T09:06:10.000Z</time>
      </trkpt>
      <trkpt lat="43.16241" lon="-1.23993">
        <ele>168.054982</ele>
        <time>2026-05-22T09:06:11.000Z</time>
      </trkpt>
      <trkpt lat="43.16238" lon="-1.23993">
        <ele>168.188454</ele>
        <time>2026-05-22T09:06:12.000Z</time>
      </trkpt>
      <trkpt lat="43.16235" lon="-1.23994">
        <ele>168.313008</ele>
        <time>2026-05-22T09:06:13.000Z</time>
      </trkpt>
      <trkpt lat="43.16232" lon="-1.23995">
        <ele>168.432021</ele>
        <time>2026-05-22T09:06:14.000Z</time>
      </trkpt>
      <trkpt lat="43.1623" lon="-1.23996">
        <ele>168.53708</ele>
        <time>2026-05-22T09:06:15.000Z</time>
      </trkpt>
      <trkpt lat="43.16228" lon="-1.23997">
        <ele>168.635875</ele>
        <time>2026-05-22T09:06:16.000Z</time>
      </trkpt>
      <trkpt lat="43.16226" lon="-1.23998">
        <ele>168.729438</ele>
        <time>2026-05-22T09:06:17.000Z</time>
      </trkpt>
      <trkpt lat="43.16224" lon="-1.23998">
        <ele>168.823874</ele>
        <time>2026-05-22T09:06:18.000Z</time>
      </trkpt>
      <trkpt lat="43.16222" lon="-1.23999">
        <ele>168.910721</ele>
        <time>2026-05-22T09:06:19.000Z</time>
      </trkpt>
      <trkpt lat="43.1622" lon="-1.24">
        <ele>169.003521</ele>
        <time>2026-05-22T09:06:20.000Z</time>
      </trkpt>
      <trkpt lat="43.16218" lon="-1.24">
        <ele>169.090653</ele>
        <time>2026-05-22T09:06:21.000Z</time>
      </trkpt>
      <trkpt lat="43.16216" lon="-1.24001">
        <ele>169.18155</ele>
        <time>2026-05-22T09:06:22.000Z</time>
      </trkpt>
      <trkpt lat="43.16214" lon="-1.24001">
        <ele>169.272265</ele>
        <time>2026-05-22T09:06:23.000Z</time>
      </trkpt>
      <trkpt lat="43.16212" lon="-1.24001">
        <ele>169.372479</ele>
        <time>2026-05-22T09:06:24.000Z</time>
      </trkpt>
      <trkpt lat="43.1621" lon="-1.24001">
        <ele>169.486997</ele>
        <time>2026-05-22T09:06:25.000Z</time>
      </trkpt>
      <trkpt lat="43.16207" lon="-1.24002">
        <ele>169.596235</ele>
        <time>2026-05-22T09:06:26.000Z</time>
      </trkpt>
      <trkpt lat="43.16205" lon="-1.24002">
        <ele>169.705072</ele>
        <time>2026-05-22T09:06:27.000Z</time>
      </trkpt>
      <trkpt lat="43.16202" lon="-1.24002">
        <ele>169.818421</ele>
        <time>2026-05-22T09:06:28.000Z</time>
      </trkpt>
      <trkpt lat="43.162" lon="-1.24002">
        <ele>169.909478</ele>
        <time>2026-05-22T09:06:29.000Z</time>
      </trkpt>
      <trkpt lat="43.16197" lon="-1.24002">
        <ele>169.993652</ele>
        <time>2026-05-22T09:06:30.000Z</time>
      </trkpt>
      <trkpt lat="43.16195" lon="-1.24001">
        <ele>170.085244</ele>
        <time>2026-05-22T09:06:31.000Z</time>
      </trkpt>
      <trkpt lat="43.16192" lon="-1.24">
        <ele>170.17235</ele>
        <time>2026-05-22T09:06:32.000Z</time>
      </trkpt>
      <trkpt lat="43.1619" lon="-1.23999">
        <ele>170.261782</ele>
        <time>2026-05-22T09:06:33.000Z</time>
      </trkpt>
      <trkpt lat="43.16188" lon="-1.23998">
        <ele>170.347935</ele>
        <time>2026-05-22T09:06:34.000Z</time>
      </trkpt>
      <trkpt lat="43.16185" lon="-1.23997">
        <ele>170.429915</ele>
        <time>2026-05-22T09:06:35.000Z</time>
      </trkpt>
      <trkpt lat="43.16183" lon="-1.23996">
        <ele>170.516067</ele>
        <time>2026-05-22T09:06:36.000Z</time>
      </trkpt>
      <trkpt lat="43.16181" lon="-1.23994">
        <ele>170.602219</ele>
        <time>2026-05-22T09:06:37.000Z</time>
      </trkpt>
      <trkpt lat="43.16178" lon="-1.23993">
        <ele>170.692706</ele>
        <time>2026-05-22T09:06:38.000Z</time>
      </trkpt>
      <trkpt lat="43.16176" lon="-1.23992">
        <ele>170.790616</ele>
        <time>2026-05-22T09:06:39.000Z</time>
      </trkpt>
      <trkpt lat="43.16173" lon="-1.23991">
        <ele>170.887502</ele>
        <time>2026-05-22T09:06:40.000Z</time>
      </trkpt>
      <trkpt lat="43.1617" lon="-1.2399">
        <ele>170.984387</ele>
        <time>2026-05-22T09:06:41.000Z</time>
      </trkpt>
      <trkpt lat="43.16168" lon="-1.23988">
        <ele>171.076726</ele>
        <time>2026-05-22T09:06:42.000Z</time>
      </trkpt>
      <trkpt lat="43.16166" lon="-1.23987">
        <ele>171.167017</ele>
        <time>2026-05-22T09:06:43.000Z</time>
      </trkpt>
      <trkpt lat="43.16163" lon="-1.23985">
        <ele>171.257357</ele>
        <time>2026-05-22T09:06:44.000Z</time>
      </trkpt>
      <trkpt lat="43.16161" lon="-1.23985">
        <ele>171.350642</ele>
        <time>2026-05-22T09:06:45.000Z</time>
      </trkpt>
      <trkpt lat="43.16158" lon="-1.23984">
        <ele>171.447346</ele>
        <time>2026-05-22T09:06:46.000Z</time>
      </trkpt>
      <trkpt lat="43.16156" lon="-1.23983">
        <ele>171.536779</ele>
        <time>2026-05-22T09:06:47.000Z</time>
      </trkpt>
      <trkpt lat="43.16153" lon="-1.23981">
        <ele>171.626212</ele>
        <time>2026-05-22T09:06:48.000Z</time>
      </trkpt>
      <trkpt lat="43.16151" lon="-1.2398">
        <ele>171.724122</ele>
        <time>2026-05-22T09:06:49.000Z</time>
      </trkpt>
      <trkpt lat="43.16148" lon="-1.2398">
        <ele>171.824251</ele>
        <time>2026-05-22T09:06:50.000Z</time>
      </trkpt>
      <trkpt lat="43.16145" lon="-1.23979">
        <ele>171.921526</ele>
        <time>2026-05-22T09:06:51.000Z</time>
      </trkpt>
      <trkpt lat="43.16142" lon="-1.23978">
        <ele>172.016061</ele>
        <time>2026-05-22T09:06:52.000Z</time>
      </trkpt>
      <trkpt lat="43.1614" lon="-1.23977">
        <ele>172.117355</ele>
        <time>2026-05-22T09:06:53.000Z</time>
      </trkpt>
      <trkpt lat="43.16137" lon="-1.23976">
        <ele>172.215962</ele>
        <time>2026-05-22T09:06:54.000Z</time>
      </trkpt>
      <trkpt lat="43.16134" lon="-1.23975">
        <ele>172.31793</ele>
        <time>2026-05-22T09:06:55.000Z</time>
      </trkpt>
      <trkpt lat="43.16131" lon="-1.23973">
        <ele>172.421421</ele>
        <time>2026-05-22T09:06:56.000Z</time>
      </trkpt>
      <trkpt lat="43.16129" lon="-1.23972">
        <ele>172.517462</ele>
        <time>2026-05-22T09:06:57.000Z</time>
      </trkpt>
      <trkpt lat="43.16126" lon="-1.23971">
        <ele>172.611066</ele>
        <time>2026-05-22T09:06:58.000Z</time>
      </trkpt>
      <trkpt lat="43.16124" lon="-1.23969">
        <ele>172.702375</ele>
        <time>2026-05-22T09:06:59.000Z</time>
      </trkpt>
      <trkpt lat="43.16121" lon="-1.23968">
        <ele>172.795104</ele>
        <time>2026-05-22T09:07:00.000Z</time>
      </trkpt>
      <trkpt lat="43.16119" lon="-1.23967">
        <ele>172.888982</ele>
        <time>2026-05-22T09:07:01.000Z</time>
      </trkpt>
      <trkpt lat="43.16116" lon="-1.23966">
        <ele>172.993667</ele>
        <time>2026-05-22T09:07:02.000Z</time>
      </trkpt>
      <trkpt lat="43.16113" lon="-1.23965">
        <ele>173.098353</ele>
        <time>2026-05-22T09:07:03.000Z</time>
      </trkpt>
      <trkpt lat="43.1611" lon="-1.23964">
        <ele>173.201053</ele>
        <time>2026-05-22T09:07:04.000Z</time>
      </trkpt>
      <trkpt lat="43.16108" lon="-1.23963">
        <ele>173.299806</ele>
        <time>2026-05-22T09:07:05.000Z</time>
      </trkpt>
      <trkpt lat="43.16105" lon="-1.23961">
        <ele>173.40278</ele>
        <time>2026-05-22T09:07:06.000Z</time>
      </trkpt>
      <trkpt lat="43.16102" lon="-1.23959">
        <ele>173.511044</ele>
        <time>2026-05-22T09:07:07.000Z</time>
      </trkpt>
      <trkpt lat="43.16099" lon="-1.23958">
        <ele>173.615383</ele>
        <time>2026-05-22T09:07:08.000Z</time>
      </trkpt>
      <trkpt lat="43.16097" lon="-1.23956">
        <ele>173.716439</ele>
        <time>2026-05-22T09:07:09.000Z</time>
      </trkpt>
      <trkpt lat="43.16094" lon="-1.23955">
        <ele>173.809169</ele>
        <time>2026-05-22T09:07:10.000Z</time>
      </trkpt>
      <trkpt lat="43.16091" lon="-1.23954">
        <ele>173.90935</ele>
        <time>2026-05-22T09:07:11.000Z</time>
      </trkpt>
      <trkpt lat="43.16089" lon="-1.23952">
        <ele>174.017615</ele>
        <time>2026-05-22T09:07:12.000Z</time>
      </trkpt>
      <trkpt lat="43.16086" lon="-1.2395">
        <ele>174.129347</ele>
        <time>2026-05-22T09:07:13.000Z</time>
      </trkpt>
      <trkpt lat="43.16083" lon="-1.23948">
        <ele>174.234991</ele>
        <time>2026-05-22T09:07:14.000Z</time>
      </trkpt>
      <trkpt lat="43.16081" lon="-1.23946">
        <ele>174.339361</ele>
        <time>2026-05-22T09:07:15.000Z</time>
      </trkpt>
      <trkpt lat="43.16078" lon="-1.23944">
        <ele>174.439024</ele>
        <time>2026-05-22T09:07:16.000Z</time>
      </trkpt>
      <trkpt lat="43.16076" lon="-1.23941">
        <ele>174.543374</ele>
        <time>2026-05-22T09:07:17.000Z</time>
      </trkpt>
      <trkpt lat="43.16074" lon="-1.23937">
        <ele>174.650731</ele>
        <time>2026-05-22T09:07:18.000Z</time>
      </trkpt>
      <trkpt lat="43.16073" lon="-1.23934">
        <ele>174.758827</ele>
        <time>2026-05-22T09:07:19.000Z</time>
      </trkpt>
      <trkpt lat="43.16072" lon="-1.2393">
        <ele>174.869223</ele>
        <time>2026-05-22T09:07:20.000Z</time>
      </trkpt>
      <trkpt lat="43.1607" lon="-1.23926">
        <ele>174.981048</ele>
        <time>2026-05-22T09:07:21.000Z</time>
      </trkpt>
      <trkpt lat="43.16069" lon="-1.23921">
        <ele>175.101479</ele>
        <time>2026-05-22T09:07:22.000Z</time>
      </trkpt>
      <trkpt lat="43.16067" lon="-1.23917">
        <ele>175.228626</ele>
        <time>2026-05-22T09:07:23.000Z</time>
      </trkpt>
      <trkpt lat="43.16066" lon="-1.23912">
        <ele>175.355907</ele>
        <time>2026-05-22T09:07:24.000Z</time>
      </trkpt>
      <trkpt lat="43.16064" lon="-1.23908">
        <ele>175.484577</ele>
        <time>2026-05-22T09:07:25.000Z</time>
      </trkpt>
      <trkpt lat="43.16062" lon="-1.23903">
        <ele>175.616259</ele>
        <time>2026-05-22T09:07:26.000Z</time>
      </trkpt>
      <trkpt lat="43.16061" lon="-1.23899">
        <ele>175.742234</ele>
        <time>2026-05-22T09:07:27.000Z</time>
      </trkpt>
      <trkpt lat="43.1606" lon="-1.23894">
        <ele>175.874681</ele>
        <time>2026-05-22T09:07:28.000Z</time>
      </trkpt>
      <trkpt lat="43.16058" lon="-1.23889">
        <ele>176.006364</ele>
        <time>2026-05-22T09:07:29.000Z</time>
      </trkpt>
      <trkpt lat="43.16056" lon="-1.23885">
        <ele>176.156583</ele>
        <time>2026-05-22T09:07:30.000Z</time>
      </trkpt>
      <trkpt lat="43.16054" lon="-1.2388">
        <ele>176.345496</ele>
        <time>2026-05-22T09:07:31.000Z</time>
      </trkpt>
      <trkpt lat="43.16053" lon="-1.23875">
        <ele>176.520308</ele>
        <time>2026-05-22T09:07:32.000Z</time>
      </trkpt>
      <trkpt lat="43.16051" lon="-1.2387">
        <ele>176.70203</ele>
        <time>2026-05-22T09:07:33.000Z</time>
      </trkpt>
      <trkpt lat="43.1605" lon="-1.23865">
        <ele>176.886888</ele>
        <time>2026-05-22T09:07:34.000Z</time>
      </trkpt>
      <trkpt lat="43.16048" lon="-1.2386">
        <ele>177.073726</ele>
        <time>2026-05-22T09:07:35.000Z</time>
      </trkpt>
      <trkpt lat="43.16046" lon="-1.23856">
        <ele>177.250446</ele>
        <time>2026-05-22T09:07:36.000Z</time>
      </trkpt>
      <trkpt lat="43.16044" lon="-1.23851">
        <ele>177.431894</ele>
        <time>2026-05-22T09:07:37.000Z</time>
      </trkpt>
      <trkpt lat="43.16042" lon="-1.23847">
        <ele>177.615608</ele>
        <time>2026-05-22T09:07:38.000Z</time>
      </trkpt>
      <trkpt lat="43.16039" lon="-1.23844">
        <ele>177.793404</ele>
        <time>2026-05-22T09:07:39.000Z</time>
      </trkpt>
      <trkpt lat="43.16036" lon="-1.23841">
        <ele>177.964725</ele>
        <time>2026-05-22T09:07:40.000Z</time>
      </trkpt>
      <trkpt lat="43.16033" lon="-1.23839">
        <ele>178.13333</ele>
        <time>2026-05-22T09:07:41.000Z</time>
      </trkpt>
      <trkpt lat="43.16029" lon="-1.23839">
        <ele>178.29383</ele>
        <time>2026-05-22T09:07:42.000Z</time>
      </trkpt>
      <trkpt lat="43.16026" lon="-1.23841">
        <ele>178.445889</ele>
        <time>2026-05-22T09:07:43.000Z</time>
      </trkpt>
      <trkpt lat="43.16023" lon="-1.23843">
        <ele>178.596552</ele>
        <time>2026-05-22T09:07:44.000Z</time>
      </trkpt>
      <trkpt lat="43.16021" lon="-1.23845">
        <ele>178.747215</ele>
        <time>2026-05-22T09:07:45.000Z</time>
      </trkpt>
      <trkpt lat="43.16018" lon="-1.23847">
        <ele>178.89956</ele>
        <time>2026-05-22T09:07:46.000Z</time>
      </trkpt>
      <trkpt lat="43.16015" lon="-1.23849">
        <ele>179.046099</ele>
        <time>2026-05-22T09:07:47.000Z</time>
      </trkpt>
      <trkpt lat="43.16012" lon="-1.23851">
        <ele>179.187826</ele>
        <time>2026-05-22T09:07:48.000Z</time>
      </trkpt>
      <trkpt lat="43.1601" lon="-1.23853">
        <ele>179.329553</ele>
        <time>2026-05-22T09:07:49.000Z</time>
      </trkpt>
      <trkpt lat="43.16007" lon="-1.23855">
        <ele>179.470289</ele>
        <time>2026-05-22T09:07:50.000Z</time>
      </trkpt>
      <trkpt lat="43.16005" lon="-1.23856">
        <ele>179.603589</ele>
        <time>2026-05-22T09:07:51.000Z</time>
      </trkpt>
      <trkpt lat="43.16002" lon="-1.23858">
        <ele>179.73107</ele>
        <time>2026-05-22T09:07:52.000Z</time>
      </trkpt>
      <trkpt lat="43.16" lon="-1.23859">
        <ele>179.848509</ele>
        <time>2026-05-22T09:07:53.000Z</time>
      </trkpt>
      <trkpt lat="43.15998" lon="-1.23861">
        <ele>179.960289</ele>
        <time>2026-05-22T09:07:54.000Z</time>
      </trkpt>
      <trkpt lat="43.15995" lon="-1.23862">
        <ele>180.079503</ele>
        <time>2026-05-22T09:07:55.000Z</time>
      </trkpt>
      <trkpt lat="43.15993" lon="-1.23864">
        <ele>180.208325</ele>
        <time>2026-05-22T09:07:56.000Z</time>
      </trkpt>
      <trkpt lat="43.15991" lon="-1.23865">
        <ele>180.330077</ele>
        <time>2026-05-22T09:07:57.000Z</time>
      </trkpt>
      <trkpt lat="43.15988" lon="-1.23867">
        <ele>180.460318</ele>
        <time>2026-05-22T09:07:58.000Z</time>
      </trkpt>
      <trkpt lat="43.15986" lon="-1.23869">
        <ele>180.58483</ele>
        <time>2026-05-22T09:07:59.000Z</time>
      </trkpt>
      <trkpt lat="43.15984" lon="-1.2387">
        <ele>180.702392</ele>
        <time>2026-05-22T09:08:00.000Z</time>
      </trkpt>
      <trkpt lat="43.15982" lon="-1.23872">
        <ele>180.808399</ele>
        <time>2026-05-22T09:08:01.000Z</time>
      </trkpt>
      <trkpt lat="43.1598" lon="-1.23873">
        <ele>180.912885</ele>
        <time>2026-05-22T09:08:02.000Z</time>
      </trkpt>
      <trkpt lat="43.15977" lon="-1.23874">
        <ele>181.044747</ele>
        <time>2026-05-22T09:08:03.000Z</time>
      </trkpt>
      <trkpt lat="43.15974" lon="-1.23876">
        <ele>181.179281</ele>
        <time>2026-05-22T09:08:04.000Z</time>
      </trkpt>
      <trkpt lat="43.15972" lon="-1.23878">
        <ele>181.303893</ele>
        <time>2026-05-22T09:08:05.000Z</time>
      </trkpt>
      <trkpt lat="43.1597" lon="-1.2388">
        <ele>181.427241</ele>
        <time>2026-05-22T09:08:06.000Z</time>
      </trkpt>
      <trkpt lat="43.15968" lon="-1.23881">
        <ele>181.542366</ele>
        <time>2026-05-22T09:08:07.000Z</time>
      </trkpt>
      <trkpt lat="43.15966" lon="-1.23883">
        <ele>181.649983</ele>
        <time>2026-05-22T09:08:08.000Z</time>
      </trkpt>
      <trkpt lat="43.15964" lon="-1.23884">
        <ele>181.736076</ele>
        <time>2026-05-22T09:08:09.000Z</time>
      </trkpt>
      <trkpt lat="43.15962" lon="-1.23885">
        <ele>181.829106</ele>
        <time>2026-05-22T09:08:10.000Z</time>
      </trkpt>
      <trkpt lat="43.1596" lon="-1.23886">
        <ele>181.944097</ele>
        <time>2026-05-22T09:08:11.000Z</time>
      </trkpt>
      <trkpt lat="43.15958" lon="-1.23887">
        <ele>182.04796</ele>
        <time>2026-05-22T09:08:12.000Z</time>
      </trkpt>
      <trkpt lat="43.15956" lon="-1.23887">
        <ele>182.142622</ele>
        <time>2026-05-22T09:08:13.000Z</time>
      </trkpt>
      <trkpt lat="43.15954" lon="-1.23888">
        <ele>182.239267</ele>
        <time>2026-05-22T09:08:14.000Z</time>
      </trkpt>
      <trkpt lat="43.15952" lon="-1.23889">
        <ele>182.355097</ele>
        <time>2026-05-22T09:08:15.000Z</time>
      </trkpt>
      <trkpt lat="43.15949" lon="-1.23889">
        <ele>182.482552</ele>
        <time>2026-05-22T09:08:16.000Z</time>
      </trkpt>
      <trkpt lat="43.15946" lon="-1.23889">
        <ele>182.605286</ele>
        <time>2026-05-22T09:08:17.000Z</time>
      </trkpt>
      <trkpt lat="43.15944" lon="-1.23888">
        <ele>182.728069</ele>
        <time>2026-05-22T09:08:18.000Z</time>
      </trkpt>
      <trkpt lat="43.15941" lon="-1.23888">
        <ele>182.83686</ele>
        <time>2026-05-22T09:08:19.000Z</time>
      </trkpt>
      <trkpt lat="43.15939" lon="-1.23888">
        <ele>182.945652</ele>
        <time>2026-05-22T09:08:20.000Z</time>
      </trkpt>
      <trkpt lat="43.15937" lon="-1.23887">
        <ele>183.042297</ele>
        <time>2026-05-22T09:08:21.000Z</time>
      </trkpt>
      <trkpt lat="43.15935" lon="-1.23887">
        <ele>183.143559</ele>
        <time>2026-05-22T09:08:22.000Z</time>
      </trkpt>
      <trkpt lat="43.15933" lon="-1.23887">
        <ele>183.24275</ele>
        <time>2026-05-22T09:08:23.000Z</time>
      </trkpt>
      <trkpt lat="43.15931" lon="-1.23887">
        <ele>183.346831</ele>
        <time>2026-05-22T09:08:24.000Z</time>
      </trkpt>
      <trkpt lat="43.15928" lon="-1.23886">
        <ele>183.455622</ele>
        <time>2026-05-22T09:08:25.000Z</time>
      </trkpt>
      <trkpt lat="43.15926" lon="-1.23886">
        <ele>183.559987</ele>
        <time>2026-05-22T09:08:26.000Z</time>
      </trkpt>
      <trkpt lat="43.15924" lon="-1.23886">
        <ele>183.659179</ele>
        <time>2026-05-22T09:08:27.000Z</time>
      </trkpt>
      <trkpt lat="43.15922" lon="-1.23886">
        <ele>183.763088</ele>
        <time>2026-05-22T09:08:28.000Z</time>
      </trkpt>
      <trkpt lat="43.1592" lon="-1.23886">
        <ele>183.86694</ele>
        <time>2026-05-22T09:08:29.000Z</time>
      </trkpt>
      <trkpt lat="43.15917" lon="-1.23885">
        <ele>183.977462</ele>
        <time>2026-05-22T09:08:30.000Z</time>
      </trkpt>
      <trkpt lat="43.15915" lon="-1.23885">
        <ele>184.083349</ele>
        <time>2026-05-22T09:08:31.000Z</time>
      </trkpt>
      <trkpt lat="43.15913" lon="-1.23884">
        <ele>184.189962</ele>
        <time>2026-05-22T09:08:32.000Z</time>
      </trkpt>
      <trkpt lat="43.15911" lon="-1.23883">
        <ele>184.301179</ele>
        <time>2026-05-22T09:08:33.000Z</time>
      </trkpt>
      <trkpt lat="43.15908" lon="-1.23883">
        <ele>184.413192</ele>
        <time>2026-05-22T09:08:34.000Z</time>
      </trkpt>
      <trkpt lat="43.15906" lon="-1.23882">
        <ele>184.541638</ele>
        <time>2026-05-22T09:08:35.000Z</time>
      </trkpt>
      <trkpt lat="43.15903" lon="-1.2388">
        <ele>184.657487</ele>
        <time>2026-05-22T09:08:36.000Z</time>
      </trkpt>
      <trkpt lat="43.159" lon="-1.23879">
        <ele>184.763413</ele>
        <time>2026-05-22T09:08:37.000Z</time>
      </trkpt>
      <trkpt lat="43.15896" lon="-1.23877">
        <ele>184.876134</ele>
        <time>2026-05-22T09:08:38.000Z</time>
      </trkpt>
      <trkpt lat="43.15893" lon="-1.23875">
        <ele>184.994488</ele>
        <time>2026-05-22T09:08:39.000Z</time>
      </trkpt>
      <trkpt lat="43.1589" lon="-1.23872">
        <ele>185.112547</ele>
        <time>2026-05-22T09:08:40.000Z</time>
      </trkpt>
      <trkpt lat="43.15887" lon="-1.23869">
        <ele>185.231779</ele>
        <time>2026-05-22T09:08:41.000Z</time>
      </trkpt>
      <trkpt lat="43.15884" lon="-1.23866">
        <ele>185.352419</ele>
        <time>2026-05-22T09:08:42.000Z</time>
      </trkpt>
      <trkpt lat="43.15881" lon="-1.23863">
        <ele>185.470272</ele>
        <time>2026-05-22T09:08:43.000Z</time>
      </trkpt>
      <trkpt lat="43.15877" lon="-1.2386">
        <ele>185.597237</ele>
        <time>2026-05-22T09:08:44.000Z</time>
      </trkpt>
      <trkpt lat="43.15874" lon="-1.23857">
        <ele>185.720398</ele>
        <time>2026-05-22T09:08:45.000Z</time>
      </trkpt>
      <trkpt lat="43.15872" lon="-1.23853">
        <ele>185.837159</ele>
        <time>2026-05-22T09:08:46.000Z</time>
      </trkpt>
      <trkpt lat="43.15869" lon="-1.2385">
        <ele>185.953516</ele>
        <time>2026-05-22T09:08:47.000Z</time>
      </trkpt>
      <trkpt lat="43.15866" lon="-1.23847">
        <ele>186.065293</ele>
        <time>2026-05-22T09:08:48.000Z</time>
      </trkpt>
      <trkpt lat="43.15864" lon="-1.23844">
        <ele>186.171674</ele>
        <time>2026-05-22T09:08:49.000Z</time>
      </trkpt>
      <trkpt lat="43.15861" lon="-1.23841">
        <ele>186.273813</ele>
        <time>2026-05-22T09:08:50.000Z</time>
      </trkpt>
      <trkpt lat="43.15859" lon="-1.23839">
        <ele>186.372024</ele>
        <time>2026-05-22T09:08:51.000Z</time>
      </trkpt>
      <trkpt lat="43.15857" lon="-1.23836">
        <ele>186.468285</ele>
        <time>2026-05-22T09:08:52.000Z</time>
      </trkpt>
      <trkpt lat="43.15854" lon="-1.23832">
        <ele>186.576168</ele>
        <time>2026-05-22T09:08:53.000Z</time>
      </trkpt>
      <trkpt lat="43.15851" lon="-1.23829">
        <ele>186.690972</ele>
        <time>2026-05-22T09:08:54.000Z</time>
      </trkpt>
      <trkpt lat="43.15849" lon="-1.23826">
        <ele>186.798829</ele>
        <time>2026-05-22T09:08:55.000Z</time>
      </trkpt>
      <trkpt lat="43.15846" lon="-1.23823">
        <ele>186.908192</ele>
        <time>2026-05-22T09:08:56.000Z</time>
      </trkpt>
      <trkpt lat="43.15844" lon="-1.2382">
        <ele>187.01364</ele>
        <time>2026-05-22T09:08:57.000Z</time>
      </trkpt>
      <trkpt lat="43.15841" lon="-1.23817">
        <ele>187.116722</ele>
        <time>2026-05-22T09:08:58.000Z</time>
      </trkpt>
      <trkpt lat="43.15839" lon="-1.23814">
        <ele>187.225584</ele>
        <time>2026-05-22T09:08:59.000Z</time>
      </trkpt>
      <trkpt lat="43.15836" lon="-1.23811">
        <ele>187.329105</ele>
        <time>2026-05-22T09:09:00.000Z</time>
      </trkpt>
      <trkpt lat="43.15833" lon="-1.23809">
        <ele>187.443003</ele>
        <time>2026-05-22T09:09:01.000Z</time>
      </trkpt>
      <trkpt lat="43.1583" lon="-1.23806">
        <ele>187.562259</ele>
        <time>2026-05-22T09:09:02.000Z</time>
      </trkpt>
      <trkpt lat="43.15827" lon="-1.23803">
        <ele>187.673636</ele>
        <time>2026-05-22T09:09:03.000Z</time>
      </trkpt>
      <trkpt lat="43.15824" lon="-1.238">
        <ele>187.778571</ele>
        <time>2026-05-22T09:09:04.000Z</time>
      </trkpt>
      <trkpt lat="43.15822" lon="-1.23798">
        <ele>187.882092</ele>
        <time>2026-05-22T09:09:05.000Z</time>
      </trkpt>
      <trkpt lat="43.15819" lon="-1.23795">
        <ele>187.982885</ele>
        <time>2026-05-22T09:09:06.000Z</time>
      </trkpt>
      <trkpt lat="43.15817" lon="-1.23793">
        <ele>188.083678</ele>
        <time>2026-05-22T09:09:07.000Z</time>
      </trkpt>
      <trkpt lat="43.15814" lon="-1.2379">
        <ele>188.184471</ele>
        <time>2026-05-22T09:09:08.000Z</time>
      </trkpt>
      <trkpt lat="43.15811" lon="-1.23788">
        <ele>188.287878</ele>
        <time>2026-05-22T09:09:09.000Z</time>
      </trkpt>
      <trkpt lat="43.15809" lon="-1.23785">
        <ele>188.395211</ele>
        <time>2026-05-22T09:09:10.000Z</time>
      </trkpt>
      <trkpt lat="43.15806" lon="-1.23782">
        <ele>188.507788</ele>
        <time>2026-05-22T09:09:11.000Z</time>
      </trkpt>
      <trkpt lat="43.15803" lon="-1.23779">
        <ele>188.616649</ele>
        <time>2026-05-22T09:09:12.000Z</time>
      </trkpt>
      <trkpt lat="43.158" lon="-1.23776">
        <ele>188.728026</ele>
        <time>2026-05-22T09:09:13.000Z</time>
      </trkpt>
      <trkpt lat="43.15798" lon="-1.23773">
        <ele>188.835884</ele>
        <time>2026-05-22T09:09:14.000Z</time>
      </trkpt>
      <trkpt lat="43.15795" lon="-1.23771">
        <ele>188.943333</ele>
        <time>2026-05-22T09:09:15.000Z</time>
      </trkpt>
      <trkpt lat="43.15792" lon="-1.23768">
        <ele>189.058519</ele>
        <time>2026-05-22T09:09:16.000Z</time>
      </trkpt>
      <trkpt lat="43.15789" lon="-1.23765">
        <ele>189.168516</ele>
        <time>2026-05-22T09:09:17.000Z</time>
      </trkpt>
      <trkpt lat="43.15786" lon="-1.23762">
        <ele>189.271923</ele>
        <time>2026-05-22T09:09:18.000Z</time>
      </trkpt>
      <trkpt lat="43.15784" lon="-1.2376">
        <ele>189.379257</ele>
        <time>2026-05-22T09:09:19.000Z</time>
      </trkpt>
      <trkpt lat="43.15781" lon="-1.23757">
        <ele>189.488118</ele>
        <time>2026-05-22T09:09:20.000Z</time>
      </trkpt>
      <trkpt lat="43.15778" lon="-1.23754">
        <ele>189.59698</ele>
        <time>2026-05-22T09:09:21.000Z</time>
      </trkpt>
      <trkpt lat="43.15775" lon="-1.23751">
        <ele>189.704313</ele>
        <time>2026-05-22T09:09:22.000Z</time>
      </trkpt>
      <trkpt lat="43.15772" lon="-1.23749">
        <ele>189.814289</ele>
        <time>2026-05-22T09:09:23.000Z</time>
      </trkpt>
      <trkpt lat="43.1577" lon="-1.23746">
        <ele>189.919225</ele>
        <time>2026-05-22T09:09:24.000Z</time>
      </trkpt>
      <trkpt lat="43.15768" lon="-1.23743">
        <ele>190.01685</ele>
        <time>2026-05-22T09:09:25.000Z</time>
      </trkpt>
      <trkpt lat="43.15765" lon="-1.23741">
        <ele>190.111465</ele>
        <time>2026-05-22T09:09:26.000Z</time>
      </trkpt>
      <trkpt lat="43.15763" lon="-1.23739">
        <ele>190.200605</ele>
        <time>2026-05-22T09:09:27.000Z</time>
      </trkpt>
      <trkpt lat="43.1576" lon="-1.23737">
        <ele>190.291327</ele>
        <time>2026-05-22T09:09:28.000Z</time>
      </trkpt>
      <trkpt lat="43.15758" lon="-1.23735">
        <ele>190.308658</ele>
        <time>2026-05-22T09:09:29.000Z</time>
      </trkpt>
      <trkpt lat="43.15755" lon="-1.23733">
        <ele>190.318962</ele>
        <time>2026-05-22T09:09:30.000Z</time>
      </trkpt>
      <trkpt lat="43.15753" lon="-1.23731">
        <ele>190.330182</ele>
        <time>2026-05-22T09:09:31.000Z</time>
      </trkpt>
      <trkpt lat="43.15751" lon="-1.23729">
        <ele>190.340309</ele>
        <time>2026-05-22T09:09:32.000Z</time>
      </trkpt>
      <trkpt lat="43.15748" lon="-1.23727">
        <ele>190.350736</ele>
        <time>2026-05-22T09:09:33.000Z</time>
      </trkpt>
      <trkpt lat="43.15746" lon="-1.23725">
        <ele>190.361322</ele>
        <time>2026-05-22T09:09:34.000Z</time>
      </trkpt>
      <trkpt lat="43.15743" lon="-1.23723">
        <ele>190.372258</ele>
        <time>2026-05-22T09:09:35.000Z</time>
      </trkpt>
      <trkpt lat="43.1574" lon="-1.23721">
        <ele>190.383305</ele>
        <time>2026-05-22T09:09:36.000Z</time>
      </trkpt>
      <trkpt lat="43.15738" lon="-1.23719">
        <ele>190.39426</ele>
        <time>2026-05-22T09:09:37.000Z</time>
      </trkpt>
      <trkpt lat="43.15735" lon="-1.23718">
        <ele>190.405539</ele>
        <time>2026-05-22T09:09:38.000Z</time>
      </trkpt>
      <trkpt lat="43.15732" lon="-1.23716">
        <ele>190.417237</ele>
        <time>2026-05-22T09:09:39.000Z</time>
      </trkpt>
      <trkpt lat="43.15729" lon="-1.23715">
        <ele>190.429459</ele>
        <time>2026-05-22T09:09:40.000Z</time>
      </trkpt>
      <trkpt lat="43.15726" lon="-1.23714">
        <ele>190.441157</ele>
        <time>2026-05-22T09:09:41.000Z</time>
      </trkpt>
      <trkpt lat="43.15723" lon="-1.23713">
        <ele>190.453303</ele>
        <time>2026-05-22T09:09:42.000Z</time>
      </trkpt>
      <trkpt lat="43.15719" lon="-1.23712">
        <ele>190.46593</ele>
        <time>2026-05-22T09:09:43.000Z</time>
      </trkpt>
      <trkpt lat="43.15716" lon="-1.23711">
        <ele>190.478805</ele>
        <time>2026-05-22T09:09:44.000Z</time>
      </trkpt>
      <trkpt lat="43.15713" lon="-1.2371">
        <ele>190.491182</ele>
        <time>2026-05-22T09:09:45.000Z</time>
      </trkpt>
      <trkpt lat="43.15709" lon="-1.23709">
        <ele>190.504332</ele>
        <time>2026-05-22T09:09:46.000Z</time>
      </trkpt>
      <trkpt lat="43.15706" lon="-1.23709">
        <ele>190.517416</ele>
        <time>2026-05-22T09:09:47.000Z</time>
      </trkpt>
      <trkpt lat="43.15702" lon="-1.23708">
        <ele>190.530869</ele>
        <time>2026-05-22T09:09:48.000Z</time>
      </trkpt>
      <trkpt lat="43.15698" lon="-1.23708">
        <ele>190.544756</ele>
        <time>2026-05-22T09:09:49.000Z</time>
      </trkpt>
      <trkpt lat="43.15695" lon="-1.23707">
        <ele>190.558609</ele>
        <time>2026-05-22T09:09:50.000Z</time>
      </trkpt>
      <trkpt lat="43.15691" lon="-1.23707">
        <ele>190.573172</ele>
        <time>2026-05-22T09:09:51.000Z</time>
      </trkpt>
      <trkpt lat="43.15687" lon="-1.23706">
        <ele>190.588165</ele>
        <time>2026-05-22T09:09:52.000Z</time>
      </trkpt>
      <trkpt lat="43.15683" lon="-1.23705">
        <ele>190.602869</ele>
        <time>2026-05-22T09:09:53.000Z</time>
      </trkpt>
      <trkpt lat="43.15679" lon="-1.23704">
        <ele>190.6186</ele>
        <time>2026-05-22T09:09:54.000Z</time>
      </trkpt>
      <trkpt lat="43.15674" lon="-1.23703">
        <ele>190.635508</ele>
        <time>2026-05-22T09:09:55.000Z</time>
      </trkpt>
      <trkpt lat="43.1567" lon="-1.23702">
        <ele>190.653283</ele>
        <time>2026-05-22T09:09:56.000Z</time>
      </trkpt>
      <trkpt lat="43.15665" lon="-1.237">
        <ele>190.672216</ele>
        <time>2026-05-22T09:09:57.000Z</time>
      </trkpt>
      <trkpt lat="43.1566" lon="-1.23698">
        <ele>190.691913</ele>
        <time>2026-05-22T09:09:58.000Z</time>
      </trkpt>
      <trkpt lat="43.15655" lon="-1.23695">
        <ele>190.711978</ele>
        <time>2026-05-22T09:09:59.000Z</time>
      </trkpt>
      <trkpt lat="43.1565" lon="-1.23691">
        <ele>190.732976</ele>
        <time>2026-05-22T09:10:00.000Z</time>
      </trkpt>
      <trkpt lat="43.15645" lon="-1.23688">
        <ele>190.753064</ele>
        <time>2026-05-22T09:10:01.000Z</time>
      </trkpt>
      <trkpt lat="43.1564" lon="-1.23685">
        <ele>190.773491</ele>
        <time>2026-05-22T09:10:02.000Z</time>
      </trkpt>
      <trkpt lat="43.15635" lon="-1.23682">
        <ele>190.793783</ele>
        <time>2026-05-22T09:10:03.000Z</time>
      </trkpt>
      <trkpt lat="43.1563" lon="-1.23679">
        <ele>190.813848</ele>
        <time>2026-05-22T09:10:04.000Z</time>
      </trkpt>
      <trkpt lat="43.15625" lon="-1.23676">
        <ele>190.834364</ele>
        <time>2026-05-22T09:10:05.000Z</time>
      </trkpt>
      <trkpt lat="43.1562" lon="-1.23673">
        <ele>190.854998</ele>
        <time>2026-05-22T09:10:06.000Z</time>
      </trkpt>
      <trkpt lat="43.15615" lon="-1.2367">
        <ele>190.876531</ele>
        <time>2026-05-22T09:10:07.000Z</time>
      </trkpt>
      <trkpt lat="43.15609" lon="-1.23666">
        <ele>190.897955</ele>
        <time>2026-05-22T09:10:08.000Z</time>
      </trkpt>
      <trkpt lat="43.15604" lon="-1.23664">
        <ele>190.919864</ele>
        <time>2026-05-22T09:10:09.000Z</time>
      </trkpt>
      <trkpt lat="43.15598" lon="-1.23661">
        <ele>190.943168</ele>
        <time>2026-05-22T09:10:10.000Z</time>
      </trkpt>
      <trkpt lat="43.15592" lon="-1.23658">
        <ele>190.967264</ele>
        <time>2026-05-22T09:10:11.000Z</time>
      </trkpt>
      <trkpt lat="43.15585" lon="-1.23655">
        <ele>190.924375</ele>
        <time>2026-05-22T09:10:12.000Z</time>
      </trkpt>
      <trkpt lat="43.15579" lon="-1.23652">
        <ele>190.881497</ele>
        <time>2026-05-22T09:10:13.000Z</time>
      </trkpt>
      <trkpt lat="43.15573" lon="-1.23649">
        <ele>190.838619</ele>
        <time>2026-05-22T09:10:14.000Z</time>
      </trkpt>
      <trkpt lat="43.15567" lon="-1.23646">
        <ele>190.796828</ele>
        <time>2026-05-22T09:10:15.000Z</time>
      </trkpt>
      <trkpt lat="43.15561" lon="-1.23644">
        <ele>190.755816</ele>
        <time>2026-05-22T09:10:16.000Z</time>
      </trkpt>
      <trkpt lat="43.15555" lon="-1.23641">
        <ele>190.714804</ele>
        <time>2026-05-22T09:10:17.000Z</time>
      </trkpt>
      <trkpt lat="43.1555" lon="-1.23639">
        <ele>190.674426</ele>
        <time>2026-05-22T09:10:18.000Z</time>
      </trkpt>
      <trkpt lat="43.15544" lon="-1.23637">
        <ele>190.634965</ele>
        <time>2026-05-22T09:10:19.000Z</time>
      </trkpt>
      <trkpt lat="43.15538" lon="-1.23634">
        <ele>190.595639</ele>
        <time>2026-05-22T09:10:20.000Z</time>
      </trkpt>
      <trkpt lat="43.15532" lon="-1.23632">
        <ele>190.555403</ele>
        <time>2026-05-22T09:10:21.000Z</time>
      </trkpt>
      <trkpt lat="43.15527" lon="-1.2363">
        <ele>190.515025</ele>
        <time>2026-05-22T09:10:22.000Z</time>
      </trkpt>
      <trkpt lat="43.15521" lon="-1.23627">
        <ele>190.475186</ele>
        <time>2026-05-22T09:10:23.000Z</time>
      </trkpt>
      <trkpt lat="43.15515" lon="-1.23626">
        <ele>190.435987</ele>
        <time>2026-05-22T09:10:24.000Z</time>
      </trkpt>
      <trkpt lat="43.15509" lon="-1.23625">
        <ele>190.397759</ele>
        <time>2026-05-22T09:10:25.000Z</time>
      </trkpt>
      <trkpt lat="43.15504" lon="-1.23624">
        <ele>190.358804</ele>
        <time>2026-05-22T09:10:26.000Z</time>
      </trkpt>
      <trkpt lat="43.15498" lon="-1.23622">
        <ele>190.319513</ele>
        <time>2026-05-22T09:10:27.000Z</time>
      </trkpt>
      <trkpt lat="43.15492" lon="-1.2362">
        <ele>190.279571</ele>
        <time>2026-05-22T09:10:28.000Z</time>
      </trkpt>
      <trkpt lat="43.15486" lon="-1.23619">
        <ele>190.238977</ele>
        <time>2026-05-22T09:10:29.000Z</time>
      </trkpt>
      <trkpt lat="43.1548" lon="-1.23617">
        <ele>190.199126</ele>
        <time>2026-05-22T09:10:30.000Z</time>
      </trkpt>
      <trkpt lat="43.15474" lon="-1.23616">
        <ele>190.159184</ele>
        <time>2026-05-22T09:10:31.000Z</time>
      </trkpt>
      <trkpt lat="43.15468" lon="-1.23615">
        <ele>190.118915</ele>
        <time>2026-05-22T09:10:32.000Z</time>
      </trkpt>
      <trkpt lat="43.15462" lon="-1.23613">
        <ele>190.079303</ele>
        <time>2026-05-22T09:10:33.000Z</time>
      </trkpt>
      <trkpt lat="43.15456" lon="-1.23612">
        <ele>190.040012</ele>
        <time>2026-05-22T09:10:34.000Z</time>
      </trkpt>
      <trkpt lat="43.15451" lon="-1.2361">
        <ele>190.000409</ele>
        <time>2026-05-22T09:10:35.000Z</time>
      </trkpt>
      <trkpt lat="43.15445" lon="-1.23608">
        <ele>189.961951</ele>
        <time>2026-05-22T09:10:36.000Z</time>
      </trkpt>
      <trkpt lat="43.15439" lon="-1.23607">
        <ele>189.923494</ele>
        <time>2026-05-22T09:10:37.000Z</time>
      </trkpt>
      <trkpt lat="43.15433" lon="-1.23606">
        <ele>189.884382</ele>
        <time>2026-05-22T09:10:38.000Z</time>
      </trkpt>
      <trkpt lat="43.15428" lon="-1.23604">
        <ele>189.845352</ele>
        <time>2026-05-22T09:10:39.000Z</time>
      </trkpt>
      <trkpt lat="43.15422" lon="-1.23603">
        <ele>189.806241</ele>
        <time>2026-05-22T09:10:40.000Z</time>
      </trkpt>
      <trkpt lat="43.15416" lon="-1.23601">
        <ele>189.774546</ele>
        <time>2026-05-22T09:10:41.000Z</time>
      </trkpt>
      <trkpt lat="43.1541" lon="-1.236">
        <ele>189.782512</ele>
        <time>2026-05-22T09:10:42.000Z</time>
      </trkpt>
      <trkpt lat="43.15404" lon="-1.23599">
        <ele>189.790179</ele>
        <time>2026-05-22T09:10:43.000Z</time>
      </trkpt>
      <trkpt lat="43.15399" lon="-1.23597">
        <ele>189.7978</ele>
        <time>2026-05-22T09:10:44.000Z</time>
      </trkpt>
      <trkpt lat="43.15394" lon="-1.23595">
        <ele>189.805408</ele>
        <time>2026-05-22T09:10:45.000Z</time>
      </trkpt>
      <trkpt lat="43.15388" lon="-1.23593">
        <ele>189.812655</ele>
        <time>2026-05-22T09:10:46.000Z</time>
      </trkpt>
      <trkpt lat="43.15384" lon="-1.23591">
        <ele>189.819614</ele>
        <time>2026-05-22T09:10:47.000Z</time>
      </trkpt>
      <trkpt lat="43.15379" lon="-1.23589">
        <ele>189.826443</ele>
        <time>2026-05-22T09:10:48.000Z</time>
      </trkpt>
      <trkpt lat="43.15374" lon="-1.23587">
        <ele>189.833272</ele>
        <time>2026-05-22T09:10:49.000Z</time>
      </trkpt>
      <trkpt lat="43.15369" lon="-1.23585">
        <ele>189.840101</ele>
        <time>2026-05-22T09:10:50.000Z</time>
      </trkpt>
      <trkpt lat="43.15364" lon="-1.23582">
        <ele>189.846899</ele>
        <time>2026-05-22T09:10:51.000Z</time>
      </trkpt>
      <trkpt lat="43.1536" lon="-1.2358">
        <ele>189.853481</ele>
        <time>2026-05-22T09:10:52.000Z</time>
      </trkpt>
      <trkpt lat="43.15355" lon="-1.23577">
        <ele>189.8601</ele>
        <time>2026-05-22T09:10:53.000Z</time>
      </trkpt>
      <trkpt lat="43.15351" lon="-1.23575">
        <ele>189.866681</ele>
        <time>2026-05-22T09:10:54.000Z</time>
      </trkpt>
      <trkpt lat="43.15347" lon="-1.23572">
        <ele>189.873256</ele>
        <time>2026-05-22T09:10:55.000Z</time>
      </trkpt>
      <trkpt lat="43.15342" lon="-1.23569">
        <ele>189.879873</ele>
        <time>2026-05-22T09:10:56.000Z</time>
      </trkpt>
      <trkpt lat="43.15338" lon="-1.23566">
        <ele>189.886656</ele>
        <time>2026-05-22T09:10:57.000Z</time>
      </trkpt>
      <trkpt lat="43.15333" lon="-1.23563">
        <ele>189.893287</ele>
        <time>2026-05-22T09:10:58.000Z</time>
      </trkpt>
      <trkpt lat="43.15329" lon="-1.2356">
        <ele>189.899919</ele>
        <time>2026-05-22T09:10:59.000Z</time>
      </trkpt>
      <trkpt lat="43.15325" lon="-1.23556">
        <ele>189.906625</ele>
        <time>2026-05-22T09:11:00.000Z</time>
      </trkpt>
      <trkpt lat="43.1532" lon="-1.23553">
        <ele>189.913496</ele>
        <time>2026-05-22T09:11:01.000Z</time>
      </trkpt>
      <trkpt lat="43.15316" lon="-1.2355">
        <ele>189.920113</ele>
        <time>2026-05-22T09:11:02.000Z</time>
      </trkpt>
      <trkpt lat="43.15311" lon="-1.23548">
        <ele>189.926647</ele>
        <time>2026-05-22T09:11:03.000Z</time>
      </trkpt>
      <trkpt lat="43.15307" lon="-1.23544">
        <ele>189.933398</ele>
        <time>2026-05-22T09:11:04.000Z</time>
      </trkpt>
      <trkpt lat="43.15303" lon="-1.23541">
        <ele>189.940228</ele>
        <time>2026-05-22T09:11:05.000Z</time>
      </trkpt>
      <trkpt lat="43.15298" lon="-1.23537">
        <ele>189.947162</ele>
        <time>2026-05-22T09:11:06.000Z</time>
      </trkpt>
      <trkpt lat="43.15294" lon="-1.23533">
        <ele>189.954342</ele>
        <time>2026-05-22T09:11:07.000Z</time>
      </trkpt>
      <trkpt lat="43.15289" lon="-1.2353">
        <ele>189.961571</ele>
        <time>2026-05-22T09:11:08.000Z</time>
      </trkpt>
      <trkpt lat="43.15285" lon="-1.23526">
        <ele>189.96885</ele>
        <time>2026-05-22T09:11:09.000Z</time>
      </trkpt>
      <trkpt lat="43.1528" lon="-1.23522">
        <ele>189.976297</ele>
        <time>2026-05-22T09:11:10.000Z</time>
      </trkpt>
      <trkpt lat="43.15275" lon="-1.23518">
        <ele>189.983693</ele>
        <time>2026-05-22T09:11:11.000Z</time>
      </trkpt>
      <trkpt lat="43.1527" lon="-1.23514">
        <ele>189.99159</ele>
        <time>2026-05-22T09:11:12.000Z</time>
      </trkpt>
      <trkpt lat="43.15265" lon="-1.2351">
        <ele>189.999909</ele>
        <time>2026-05-22T09:11:13.000Z</time>
      </trkpt>
      <trkpt lat="43.15259" lon="-1.23507">
        <ele>190.008748</ele>
        <time>2026-05-22T09:11:14.000Z</time>
      </trkpt>
      <trkpt lat="43.15252" lon="-1.23502">
        <ele>190.05074</ele>
        <time>2026-05-22T09:11:15.000Z</time>
      </trkpt>
      <trkpt lat="43.15245" lon="-1.235">
        <ele>190.232248</ele>
        <time>2026-05-22T09:11:16.000Z</time>
      </trkpt>
      <trkpt lat="43.15238" lon="-1.23498">
        <ele>190.421366</ele>
        <time>2026-05-22T09:11:17.000Z</time>
      </trkpt>
      <trkpt lat="43.1523" lon="-1.23496">
        <ele>190.615835</ele>
        <time>2026-05-22T09:11:18.000Z</time>
      </trkpt>
      <trkpt lat="43.15223" lon="-1.23494">
        <ele>190.810161</ele>
        <time>2026-05-22T09:11:19.000Z</time>
      </trkpt>
      <trkpt lat="43.15216" lon="-1.23491">
        <ele>191.001504</ele>
        <time>2026-05-22T09:11:20.000Z</time>
      </trkpt>
      <trkpt lat="43.15209" lon="-1.23488">
        <ele>191.184464</ele>
        <time>2026-05-22T09:11:21.000Z</time>
      </trkpt>
      <trkpt lat="43.15203" lon="-1.23485">
        <ele>191.355134</ele>
        <time>2026-05-22T09:11:22.000Z</time>
      </trkpt>
      <trkpt lat="43.15197" lon="-1.23482">
        <ele>191.502799</ele>
        <time>2026-05-22T09:11:23.000Z</time>
      </trkpt>
      <trkpt lat="43.15193" lon="-1.23478">
        <ele>191.641697</ele>
        <time>2026-05-22T09:11:24.000Z</time>
      </trkpt>
      <trkpt lat="43.15188" lon="-1.23474">
        <ele>191.768</ele>
        <time>2026-05-22T09:11:25.000Z</time>
      </trkpt>
      <trkpt lat="43.15185" lon="-1.23471">
        <ele>191.878568</ele>
        <time>2026-05-22T09:11:26.000Z</time>
      </trkpt>
      <trkpt lat="43.15181" lon="-1.23468">
        <ele>191.980672</ele>
        <time>2026-05-22T09:11:27.000Z</time>
      </trkpt>
      <trkpt lat="43.15178" lon="-1.23466">
        <ele>192.073336</ele>
        <time>2026-05-22T09:11:28.000Z</time>
      </trkpt>
      <trkpt lat="43.15176" lon="-1.23463">
        <ele>192.151158</ele>
        <time>2026-05-22T09:11:29.000Z</time>
      </trkpt>
      <trkpt lat="43.15173" lon="-1.23461">
        <ele>192.22375</ele>
        <time>2026-05-22T09:11:30.000Z</time>
      </trkpt>
      <trkpt lat="43.15171" lon="-1.23459">
        <ele>192.298416</ele>
        <time>2026-05-22T09:11:31.000Z</time>
      </trkpt>
      <trkpt lat="43.15169" lon="-1.23457">
        <ele>192.364696</ele>
        <time>2026-05-22T09:11:32.000Z</time>
      </trkpt>
      <trkpt lat="43.15167" lon="-1.23455">
        <ele>192.423586</ele>
        <time>2026-05-22T09:11:33.000Z</time>
      </trkpt>
      <trkpt lat="43.15165" lon="-1.23453">
        <ele>192.476165</ele>
        <time>2026-05-22T09:11:34.000Z</time>
      </trkpt>
      <trkpt lat="43.15163" lon="-1.23452">
        <ele>192.529838</ele>
        <time>2026-05-22T09:11:35.000Z</time>
      </trkpt>
      <trkpt lat="43.15161" lon="-1.23451">
        <ele>192.590825</ele>
        <time>2026-05-22T09:11:36.000Z</time>
      </trkpt>
      <trkpt lat="43.15159" lon="-1.23449">
        <ele>192.651906</ele>
        <time>2026-05-22T09:11:37.000Z</time>
      </trkpt>
      <trkpt lat="43.15157" lon="-1.23447">
        <ele>192.718471</ele>
        <time>2026-05-22T09:11:38.000Z</time>
      </trkpt>
      <trkpt lat="43.15155" lon="-1.23445">
        <ele>192.791063</ele>
        <time>2026-05-22T09:11:39.000Z</time>
      </trkpt>
      <trkpt lat="43.15152" lon="-1.23442">
        <ele>192.867922</ele>
        <time>2026-05-22T09:11:40.000Z</time>
      </trkpt>
      <trkpt lat="43.1515" lon="-1.2344">
        <ele>192.944468</ele>
        <time>2026-05-22T09:11:41.000Z</time>
      </trkpt>
      <trkpt lat="43.15148" lon="-1.23437">
        <ele>193.028774</ele>
        <time>2026-05-22T09:11:42.000Z</time>
      </trkpt>
      <trkpt lat="43.15145" lon="-1.23434">
        <ele>193.123434</ele>
        <time>2026-05-22T09:11:43.000Z</time>
      </trkpt>
      <trkpt lat="43.15141" lon="-1.23431">
        <ele>193.219129</ele>
        <time>2026-05-22T09:11:44.000Z</time>
      </trkpt>
      <trkpt lat="43.15138" lon="-1.23428">
        <ele>193.322229</ele>
        <time>2026-05-22T09:11:45.000Z</time>
      </trkpt>
      <trkpt lat="43.15135" lon="-1.23425">
        <ele>193.425557</ele>
        <time>2026-05-22T09:11:46.000Z</time>
      </trkpt>
      <trkpt lat="43.15131" lon="-1.23422">
        <ele>193.523369</ele>
        <time>2026-05-22T09:11:47.000Z</time>
      </trkpt>
      <trkpt lat="43.15128" lon="-1.23419">
        <ele>193.627487</ele>
        <time>2026-05-22T09:11:48.000Z</time>
      </trkpt>
      <trkpt lat="43.15124" lon="-1.23416">
        <ele>193.736867</ele>
        <time>2026-05-22T09:11:49.000Z</time>
      </trkpt>
      <trkpt lat="43.15121" lon="-1.23412">
        <ele>193.844176</ele>
        <time>2026-05-22T09:11:50.000Z</time>
      </trkpt>
      <trkpt lat="43.15118" lon="-1.23409">
        <ele>193.952491</ele>
        <time>2026-05-22T09:11:51.000Z</time>
      </trkpt>
      <trkpt lat="43.15114" lon="-1.23406">
        <ele>194.061871</ele>
        <time>2026-05-22T09:11:52.000Z</time>
      </trkpt>
      <trkpt lat="43.1511" lon="-1.23402">
        <ele>194.173341</ele>
        <time>2026-05-22T09:11:53.000Z</time>
      </trkpt>
      <trkpt lat="43.15107" lon="-1.23399">
        <ele>194.287055</ele>
        <time>2026-05-22T09:11:54.000Z</time>
      </trkpt>
      <trkpt lat="43.15103" lon="-1.23396">
        <ele>194.399591</ele>
        <time>2026-05-22T09:11:55.000Z</time>
      </trkpt>
      <trkpt lat="43.151" lon="-1.23392">
        <ele>194.511163</ele>
        <time>2026-05-22T09:11:56.000Z</time>
      </trkpt>
      <trkpt lat="43.15096" lon="-1.23388">
        <ele>194.604836</ele>
        <time>2026-05-22T09:11:57.000Z</time>
      </trkpt>
      <trkpt lat="43.15092" lon="-1.23385">
        <ele>194.61262</ele>
        <time>2026-05-22T09:11:58.000Z</time>
      </trkpt>
      <trkpt lat="43.15088" lon="-1.23381">
        <ele>194.620828</ele>
        <time>2026-05-22T09:11:59.000Z</time>
      </trkpt>
      <trkpt lat="43.15084" lon="-1.23377">
        <ele>194.629463</ele>
        <time>2026-05-22T09:12:00.000Z</time>
      </trkpt>
      <trkpt lat="43.1508" lon="-1.23373">
        <ele>194.638245</ele>
        <time>2026-05-22T09:12:01.000Z</time>
      </trkpt>
      <trkpt lat="43.15076" lon="-1.23369">
        <ele>194.64675</ele>
        <time>2026-05-22T09:12:02.000Z</time>
      </trkpt>
      <trkpt lat="43.15072" lon="-1.23365">
        <ele>194.655171</ele>
        <time>2026-05-22T09:12:03.000Z</time>
      </trkpt>
      <trkpt lat="43.15068" lon="-1.23362">
        <ele>194.663093</ele>
        <time>2026-05-22T09:12:04.000Z</time>
      </trkpt>
      <trkpt lat="43.15064" lon="-1.23358">
        <ele>194.671373</ele>
        <time>2026-05-22T09:12:05.000Z</time>
      </trkpt>
      <trkpt lat="43.15061" lon="-1.23355">
        <ele>194.679152</ele>
        <time>2026-05-22T09:12:06.000Z</time>
      </trkpt>
      <trkpt lat="43.15057" lon="-1.23351">
        <ele>194.687219</ele>
        <time>2026-05-22T09:12:07.000Z</time>
      </trkpt>
      <trkpt lat="43.15053" lon="-1.23348">
        <ele>194.695355</ele>
        <time>2026-05-22T09:12:08.000Z</time>
      </trkpt>
      <trkpt lat="43.15049" lon="-1.23344">
        <ele>194.703566</ele>
        <time>2026-05-22T09:12:09.000Z</time>
      </trkpt>
      <trkpt lat="43.15045" lon="-1.23341">
        <ele>194.711488</ele>
        <time>2026-05-22T09:12:10.000Z</time>
      </trkpt>
      <trkpt lat="43.15041" lon="-1.23337">
        <ele>194.719696</ele>
        <time>2026-05-22T09:12:11.000Z</time>
      </trkpt>
      <trkpt lat="43.15037" lon="-1.23333">
        <ele>194.728474</ele>
        <time>2026-05-22T09:12:12.000Z</time>
      </trkpt>
      <trkpt lat="43.15033" lon="-1.23329">
        <ele>194.737256</ele>
        <time>2026-05-22T09:12:13.000Z</time>
      </trkpt>
      <trkpt lat="43.15029" lon="-1.23325">
        <ele>194.74575</ele>
        <time>2026-05-22T09:12:14.000Z</time>
      </trkpt>
      <trkpt lat="43.15024" lon="-1.23321">
        <ele>194.754603</ele>
        <time>2026-05-22T09:12:15.000Z</time>
      </trkpt>
      <trkpt lat="43.1502" lon="-1.23317">
        <ele>194.763388</ele>
        <time>2026-05-22T09:12:16.000Z</time>
      </trkpt>
      <trkpt lat="43.15016" lon="-1.23313">
        <ele>194.772381</ele>
        <time>2026-05-22T09:12:17.000Z</time>
      </trkpt>
      <trkpt lat="43.15011" lon="-1.23309">
        <ele>194.781659</ele>
        <time>2026-05-22T09:12:18.000Z</time>
      </trkpt>
      <trkpt lat="43.15007" lon="-1.23305">
        <ele>194.791009</ele>
        <time>2026-05-22T09:12:19.000Z</time>
      </trkpt>
      <trkpt lat="43.15002" lon="-1.23301">
        <ele>194.800289</ele>
        <time>2026-05-22T09:12:20.000Z</time>
      </trkpt>
      <trkpt lat="43.14998" lon="-1.23297">
        <ele>194.809502</ele>
        <time>2026-05-22T09:12:21.000Z</time>
      </trkpt>
      <trkpt lat="43.14993" lon="-1.23293">
        <ele>194.818997</ele>
        <time>2026-05-22T09:12:22.000Z</time>
      </trkpt>
      <trkpt lat="43.14989" lon="-1.23289">
        <ele>194.828417</ele>
        <time>2026-05-22T09:12:23.000Z</time>
      </trkpt>
      <trkpt lat="43.14984" lon="-1.23285">
        <ele>194.837844</ele>
        <time>2026-05-22T09:12:24.000Z</time>
      </trkpt>
      <trkpt lat="43.1498" lon="-1.2328">
        <ele>194.847848</ele>
        <time>2026-05-22T09:12:25.000Z</time>
      </trkpt>
      <trkpt lat="43.14975" lon="-1.23276">
        <ele>194.857413</ele>
        <time>2026-05-22T09:12:26.000Z</time>
      </trkpt>
      <trkpt lat="43.14971" lon="-1.23272">
        <ele>194.866476</ele>
        <time>2026-05-22T09:12:27.000Z</time>
      </trkpt>
      <trkpt lat="43.14966" lon="-1.23267">
        <ele>194.875754</ele>
        <time>2026-05-22T09:12:28.000Z</time>
      </trkpt>
      <trkpt lat="43.14962" lon="-1.23264">
        <ele>194.88454</ele>
        <time>2026-05-22T09:12:29.000Z</time>
      </trkpt>
      <trkpt lat="43.14957" lon="-1.2326">
        <ele>194.893678</ele>
        <time>2026-05-22T09:12:30.000Z</time>
      </trkpt>
      <trkpt lat="43.14953" lon="-1.23258">
        <ele>194.902864</ele>
        <time>2026-05-22T09:12:31.000Z</time>
      </trkpt>
      <trkpt lat="43.14947" lon="-1.23255">
        <ele>194.912399</ele>
        <time>2026-05-22T09:12:32.000Z</time>
      </trkpt>
      <trkpt lat="43.14942" lon="-1.23253">
        <ele>194.940184</ele>
        <time>2026-05-22T09:12:33.000Z</time>
      </trkpt>
      <trkpt lat="43.14937" lon="-1.23252">
        <ele>194.972262</ele>
        <time>2026-05-22T09:12:34.000Z</time>
      </trkpt>
      <trkpt lat="43.14931" lon="-1.23251">
        <ele>195.004143</ele>
        <time>2026-05-22T09:12:35.000Z</time>
      </trkpt>
      <trkpt lat="43.14926" lon="-1.2325">
        <ele>195.033772</ele>
        <time>2026-05-22T09:12:36.000Z</time>
      </trkpt>
      <trkpt lat="43.14921" lon="-1.23248">
        <ele>195.062398</ele>
        <time>2026-05-22T09:12:37.000Z</time>
      </trkpt>
      <trkpt lat="43.14917" lon="-1.23247">
        <ele>195.090872</ele>
        <time>2026-05-22T09:12:38.000Z</time>
      </trkpt>
      <trkpt lat="43.14912" lon="-1.23246">
        <ele>195.118925</ele>
        <time>2026-05-22T09:12:39.000Z</time>
      </trkpt>
      <trkpt lat="43.14908" lon="-1.23244">
        <ele>195.145109</ele>
        <time>2026-05-22T09:12:40.000Z</time>
      </trkpt>
      <trkpt lat="43.14903" lon="-1.23243">
        <ele>195.170731</ele>
        <time>2026-05-22T09:12:41.000Z</time>
      </trkpt>
      <trkpt lat="43.149" lon="-1.23241">
        <ele>195.194947</ele>
        <time>2026-05-22T09:12:42.000Z</time>
      </trkpt>
      <trkpt lat="43.14896" lon="-1.23238">
        <ele>195.219082</ele>
        <time>2026-05-22T09:12:43.000Z</time>
      </trkpt>
      <trkpt lat="43.14892" lon="-1.23235">
        <ele>195.244529</ele>
        <time>2026-05-22T09:12:44.000Z</time>
      </trkpt>
      <trkpt lat="43.14888" lon="-1.23232">
        <ele>195.270402</ele>
        <time>2026-05-22T09:12:45.000Z</time>
      </trkpt>
      <trkpt lat="43.14884" lon="-1.2323">
        <ele>195.298075</ele>
        <time>2026-05-22T09:12:46.000Z</time>
      </trkpt>
      <trkpt lat="43.1488" lon="-1.23227">
        <ele>195.325038</ele>
        <time>2026-05-22T09:12:47.000Z</time>
      </trkpt>
      <trkpt lat="43.14876" lon="-1.23224">
        <ele>195.35218</ele>
        <time>2026-05-22T09:12:48.000Z</time>
      </trkpt>
      <trkpt lat="43.14871" lon="-1.23221">
        <ele>195.381457</ele>
        <time>2026-05-22T09:12:49.000Z</time>
      </trkpt>
      <trkpt lat="43.14867" lon="-1.23218">
        <ele>195.409687</ele>
        <time>2026-05-22T09:12:50.000Z</time>
      </trkpt>
      <trkpt lat="43.14863" lon="-1.23215">
        <ele>195.437724</ele>
        <time>2026-05-22T09:12:51.000Z</time>
      </trkpt>
      <trkpt lat="43.14859" lon="-1.23211">
        <ele>195.465761</ele>
        <time>2026-05-22T09:12:52.000Z</time>
      </trkpt>
      <trkpt lat="43.14854" lon="-1.23208">
        <ele>195.494594</ele>
        <time>2026-05-22T09:12:53.000Z</time>
      </trkpt>
      <trkpt lat="43.1485" lon="-1.23205">
        <ele>195.523347</ele>
        <time>2026-05-22T09:12:54.000Z</time>
      </trkpt>
      <trkpt lat="43.14845" lon="-1.23202">
        <ele>195.552261</ele>
        <time>2026-05-22T09:12:55.000Z</time>
      </trkpt>
      <trkpt lat="43.14841" lon="-1.23199">
        <ele>195.582066</ele>
        <time>2026-05-22T09:12:56.000Z</time>
      </trkpt>
      <trkpt lat="43.14836" lon="-1.23196">
        <ele>195.612443</ele>
        <time>2026-05-22T09:12:57.000Z</time>
      </trkpt>
      <trkpt lat="43.14831" lon="-1.23192">
        <ele>195.645175</ele>
        <time>2026-05-22T09:12:58.000Z</time>
      </trkpt>
      <trkpt lat="43.14826" lon="-1.23189">
        <ele>195.679137</ele>
        <time>2026-05-22T09:12:59.000Z</time>
      </trkpt>
      <trkpt lat="43.14821" lon="-1.23185">
        <ele>195.7131</ele>
        <time>2026-05-22T09:13:00.000Z</time>
      </trkpt>
      <trkpt lat="43.14816" lon="-1.23181">
        <ele>195.748499</ele>
        <time>2026-05-22T09:13:01.000Z</time>
      </trkpt>
      <trkpt lat="43.1481" lon="-1.23176">
        <ele>195.785546</ele>
        <time>2026-05-22T09:13:02.000Z</time>
      </trkpt>
      <trkpt lat="43.14805" lon="-1.23172">
        <ele>195.823022</ele>
        <time>2026-05-22T09:13:03.000Z</time>
      </trkpt>
      <trkpt lat="43.148" lon="-1.23167">
        <ele>195.859462</ele>
        <time>2026-05-22T09:13:04.000Z</time>
      </trkpt>
      <trkpt lat="43.14795" lon="-1.23162">
        <ele>195.8947</ele>
        <time>2026-05-22T09:13:05.000Z</time>
      </trkpt>
      <trkpt lat="43.1479" lon="-1.23157">
        <ele>195.929938</ele>
        <time>2026-05-22T09:13:06.000Z</time>
      </trkpt>
      <trkpt lat="43.14785" lon="-1.23153">
        <ele>195.963003</ele>
        <time>2026-05-22T09:13:07.000Z</time>
      </trkpt>
      <trkpt lat="43.14781" lon="-1.23149">
        <ele>195.99231</ele>
        <time>2026-05-22T09:13:08.000Z</time>
      </trkpt>
      <trkpt lat="43.14776" lon="-1.23145">
        <ele>196.020725</ele>
        <time>2026-05-22T09:13:09.000Z</time>
      </trkpt>
      <trkpt lat="43.14772" lon="-1.23142">
        <ele>196.049353</ele>
        <time>2026-05-22T09:13:10.000Z</time>
      </trkpt>
      <trkpt lat="43.14768" lon="-1.23138">
        <ele>196.078417</ele>
        <time>2026-05-22T09:13:11.000Z</time>
      </trkpt>
      <trkpt lat="43.14763" lon="-1.23133">
        <ele>196.108198</ele>
        <time>2026-05-22T09:13:12.000Z</time>
      </trkpt>
      <trkpt lat="43.14759" lon="-1.23129">
        <ele>196.139757</ele>
        <time>2026-05-22T09:13:13.000Z</time>
      </trkpt>
      <trkpt lat="43.14753" lon="-1.23125">
        <ele>196.173258</ele>
        <time>2026-05-22T09:13:14.000Z</time>
      </trkpt>
      <trkpt lat="43.14748" lon="-1.23121">
        <ele>196.205509</ele>
        <time>2026-05-22T09:13:15.000Z</time>
      </trkpt>
      <trkpt lat="43.14743" lon="-1.23117">
        <ele>196.239298</ele>
        <time>2026-05-22T09:13:16.000Z</time>
      </trkpt>
      <trkpt lat="43.14738" lon="-1.23113">
        <ele>196.272049</ele>
        <time>2026-05-22T09:13:17.000Z</time>
      </trkpt>
      <trkpt lat="43.14732" lon="-1.23109">
        <ele>196.304596</ele>
        <time>2026-05-22T09:13:18.000Z</time>
      </trkpt>
      <trkpt lat="43.14727" lon="-1.23105">
        <ele>196.337157</ele>
        <time>2026-05-22T09:13:19.000Z</time>
      </trkpt>
      <trkpt lat="43.14722" lon="-1.23102">
        <ele>196.368871</ele>
        <time>2026-05-22T09:13:20.000Z</time>
      </trkpt>
      <trkpt lat="43.14717" lon="-1.23098">
        <ele>196.399747</ele>
        <time>2026-05-22T09:13:21.000Z</time>
      </trkpt>
      <trkpt lat="43.14712" lon="-1.23095">
        <ele>196.431143</ele>
        <time>2026-05-22T09:13:22.000Z</time>
      </trkpt>
      <trkpt lat="43.14707" lon="-1.23091">
        <ele>196.461868</ele>
        <time>2026-05-22T09:13:23.000Z</time>
      </trkpt>
      <trkpt lat="43.14702" lon="-1.23088">
        <ele>196.491913</ele>
        <time>2026-05-22T09:13:24.000Z</time>
      </trkpt>
      <trkpt lat="43.14697" lon="-1.23085">
        <ele>196.522121</ele>
        <time>2026-05-22T09:13:25.000Z</time>
      </trkpt>
      <trkpt lat="43.14692" lon="-1.23082">
        <ele>196.551681</ele>
        <time>2026-05-22T09:13:26.000Z</time>
      </trkpt>
      <trkpt lat="43.14687" lon="-1.23079">
        <ele>196.580393</ele>
        <time>2026-05-22T09:13:27.000Z</time>
      </trkpt>
      <trkpt lat="43.14683" lon="-1.23076">
        <ele>196.608265</ele>
        <time>2026-05-22T09:13:28.000Z</time>
      </trkpt>
      <trkpt lat="43.14678" lon="-1.23073">
        <ele>196.635655</ele>
        <time>2026-05-22T09:13:29.000Z</time>
      </trkpt>
      <trkpt lat="43.14673" lon="-1.23071">
        <ele>196.663407</ele>
        <time>2026-05-22T09:13:30.000Z</time>
      </trkpt>
      <trkpt lat="43.14669" lon="-1.23068">
        <ele>196.690797</ele>
        <time>2026-05-22T09:13:31.000Z</time>
      </trkpt>
      <trkpt lat="43.14664" lon="-1.23066">
        <ele>196.718787</ele>
        <time>2026-05-22T09:13:32.000Z</time>
      </trkpt>
      <trkpt lat="43.14659" lon="-1.23064">
        <ele>196.74629</ele>
        <time>2026-05-22T09:13:33.000Z</time>
      </trkpt>
      <trkpt lat="43.14654" lon="-1.23062">
        <ele>196.774321</ele>
        <time>2026-05-22T09:13:34.000Z</time>
      </trkpt>
      <trkpt lat="43.1465" lon="-1.2306">
        <ele>196.801411</ele>
        <time>2026-05-22T09:13:35.000Z</time>
      </trkpt>
      <trkpt lat="43.14645" lon="-1.23058">
        <ele>196.828385</ele>
        <time>2026-05-22T09:13:36.000Z</time>
      </trkpt>
      <trkpt lat="43.1464" lon="-1.23057">
        <ele>196.853547</ele>
        <time>2026-05-22T09:13:37.000Z</time>
      </trkpt>
      <trkpt lat="43.14635" lon="-1.23056">
        <ele>196.880761</ele>
        <time>2026-05-22T09:13:38.000Z</time>
      </trkpt>
      <trkpt lat="43.14631" lon="-1.23056">
        <ele>196.907332</ele>
        <time>2026-05-22T09:13:39.000Z</time>
      </trkpt>
      <trkpt lat="43.14626" lon="-1.23055">
        <ele>196.934413</ele>
        <time>2026-05-22T09:13:40.000Z</time>
      </trkpt>
      <trkpt lat="43.14621" lon="-1.23055">
        <ele>196.955889</ele>
        <time>2026-05-22T09:13:41.000Z</time>
      </trkpt>
      <trkpt lat="43.14616" lon="-1.23054">
        <ele>196.95106</ele>
        <time>2026-05-22T09:13:42.000Z</time>
      </trkpt>
      <trkpt lat="43.14612" lon="-1.23054">
        <ele>196.946323</ele>
        <time>2026-05-22T09:13:43.000Z</time>
      </trkpt>
      <trkpt lat="43.14607" lon="-1.23054">
        <ele>196.941291</ele>
        <time>2026-05-22T09:13:44.000Z</time>
      </trkpt>
      <trkpt lat="43.14602" lon="-1.23053">
        <ele>196.936154</ele>
        <time>2026-05-22T09:13:45.000Z</time>
      </trkpt>
      <trkpt lat="43.14597" lon="-1.23053">
        <ele>196.931017</ele>
        <time>2026-05-22T09:13:46.000Z</time>
      </trkpt>
      <trkpt lat="43.14592" lon="-1.23053">
        <ele>196.925884</ele>
        <time>2026-05-22T09:13:47.000Z</time>
      </trkpt>
      <trkpt lat="43.14586" lon="-1.23053">
        <ele>196.920444</ele>
        <time>2026-05-22T09:13:48.000Z</time>
      </trkpt>
      <trkpt lat="43.14581" lon="-1.23053">
        <ele>196.914798</ele>
        <time>2026-05-22T09:13:49.000Z</time>
      </trkpt>
      <trkpt lat="43.14575" lon="-1.23053">
        <ele>196.908844</ele>
        <time>2026-05-22T09:13:50.000Z</time>
      </trkpt>
      <trkpt lat="43.14569" lon="-1.23053">
        <ele>196.902883</ele>
        <time>2026-05-22T09:13:51.000Z</time>
      </trkpt>
      <trkpt lat="43.14563" lon="-1.23052">
        <ele>196.896401</ele>
        <time>2026-05-22T09:13:52.000Z</time>
      </trkpt>
      <trkpt lat="43.14556" lon="-1.23051">
        <ele>196.889593</ele>
        <time>2026-05-22T09:13:53.000Z</time>
      </trkpt>
      <trkpt lat="43.1455" lon="-1.2305">
        <ele>196.882657</ele>
        <time>2026-05-22T09:13:54.000Z</time>
      </trkpt>
      <trkpt lat="43.14543" lon="-1.23049">
        <ele>196.875497</ele>
        <time>2026-05-22T09:13:55.000Z</time>
      </trkpt>
      <trkpt lat="43.14536" lon="-1.23047">
        <ele>196.86845</ele>
        <time>2026-05-22T09:13:56.000Z</time>
      </trkpt>
      <trkpt lat="43.14529" lon="-1.23046">
        <ele>196.861456</ele>
        <time>2026-05-22T09:13:57.000Z</time>
      </trkpt>
      <trkpt lat="43.14522" lon="-1.23044">
        <ele>196.854232</ele>
        <time>2026-05-22T09:13:58.000Z</time>
      </trkpt>
      <trkpt lat="43.14515" lon="-1.23042">
        <ele>196.846892</ele>
        <time>2026-05-22T09:13:59.000Z</time>
      </trkpt>
      <trkpt lat="43.14509" lon="-1.23039">
        <ele>196.839603</ele>
        <time>2026-05-22T09:14:00.000Z</time>
      </trkpt>
      <trkpt lat="43.14502" lon="-1.23037">
        <ele>196.832248</ele>
        <time>2026-05-22T09:14:01.000Z</time>
      </trkpt>
      <trkpt lat="43.14495" lon="-1.23035">
        <ele>196.825093</ele>
        <time>2026-05-22T09:14:02.000Z</time>
      </trkpt>
      <trkpt lat="43.14488" lon="-1.23033">
        <ele>196.818255</ele>
        <time>2026-05-22T09:14:03.000Z</time>
      </trkpt>
      <trkpt lat="43.14482" lon="-1.23032">
        <ele>196.811577</ele>
        <time>2026-05-22T09:14:04.000Z</time>
      </trkpt>
      <trkpt lat="43.14476" lon="-1.2303">
        <ele>196.805289</ele>
        <time>2026-05-22T09:14:05.000Z</time>
      </trkpt>
      <trkpt lat="43.1447" lon="-1.23028">
        <ele>196.7992</ele>
        <time>2026-05-22T09:14:06.000Z</time>
      </trkpt>
      <trkpt lat="43.14465" lon="-1.23027">
        <ele>196.793746</ele>
        <time>2026-05-22T09:14:07.000Z</time>
      </trkpt>
      <trkpt lat="43.1446" lon="-1.23025">
        <ele>196.788875</ele>
        <time>2026-05-22T09:14:08.000Z</time>
      </trkpt>
      <trkpt lat="43.14456" lon="-1.23024">
        <ele>196.784385</ele>
        <time>2026-05-22T09:14:09.000Z</time>
      </trkpt>
      <trkpt lat="43.14452" lon="-1.23023">
        <ele>196.779895</ele>
        <time>2026-05-22T09:14:10.000Z</time>
      </trkpt>
      <trkpt lat="43.14447" lon="-1.23021">
        <ele>196.77534</ele>
        <time>2026-05-22T09:14:11.000Z</time>
      </trkpt>
      <trkpt lat="43.14443" lon="-1.2302">
        <ele>196.790181</ele>
        <time>2026-05-22T09:14:12.000Z</time>
      </trkpt>
      <trkpt lat="43.14438" lon="-1.23018">
        <ele>196.852838</ele>
        <time>2026-05-22T09:14:13.000Z</time>
      </trkpt>
      <trkpt lat="43.14433" lon="-1.23016">
        <ele>196.916607</ele>
        <time>2026-05-22T09:14:14.000Z</time>
      </trkpt>
      <trkpt lat="43.14428" lon="-1.23013">
        <ele>196.981334</ele>
        <time>2026-05-22T09:14:15.000Z</time>
      </trkpt>
      <trkpt lat="43.14424" lon="-1.2301">
        <ele>197.045975</ele>
        <time>2026-05-22T09:14:16.000Z</time>
      </trkpt>
      <trkpt lat="43.14419" lon="-1.23007">
        <ele>197.113656</ele>
        <time>2026-05-22T09:14:17.000Z</time>
      </trkpt>
      <trkpt lat="43.14414" lon="-1.23004">
        <ele>197.181842</ele>
        <time>2026-05-22T09:14:18.000Z</time>
      </trkpt>
      <trkpt lat="43.14409" lon="-1.23">
        <ele>197.248731</ele>
        <time>2026-05-22T09:14:19.000Z</time>
      </trkpt>
      <trkpt lat="43.14405" lon="-1.22996">
        <ele>197.315456</ele>
        <time>2026-05-22T09:14:20.000Z</time>
      </trkpt>
      <trkpt lat="43.14401" lon="-1.22992">
        <ele>197.381149</ele>
        <time>2026-05-22T09:14:21.000Z</time>
      </trkpt>
      <trkpt lat="43.14397" lon="-1.22987">
        <ele>197.446894</ele>
        <time>2026-05-22T09:14:22.000Z</time>
      </trkpt>
      <trkpt lat="43.14392" lon="-1.22983">
        <ele>197.511639</ele>
        <time>2026-05-22T09:14:23.000Z</time>
      </trkpt>
      <trkpt lat="43.14389" lon="-1.22979">
        <ele>197.573841</ele>
        <time>2026-05-22T09:14:24.000Z</time>
      </trkpt>
      <trkpt lat="43.14385" lon="-1.22975">
        <ele>197.636044</ele>
        <time>2026-05-22T09:14:25.000Z</time>
      </trkpt>
      <trkpt lat="43.14381" lon="-1.2297">
        <ele>197.696294</ele>
        <time>2026-05-22T09:14:26.000Z</time>
      </trkpt>
      <trkpt lat="43.14377" lon="-1.22967">
        <ele>197.752291</ele>
        <time>2026-05-22T09:14:27.000Z</time>
      </trkpt>
      <trkpt lat="43.14374" lon="-1.22963">
        <ele>197.806091</ele>
        <time>2026-05-22T09:14:28.000Z</time>
      </trkpt>
      <trkpt lat="43.1437" lon="-1.2296">
        <ele>197.861979</ele>
        <time>2026-05-22T09:14:29.000Z</time>
      </trkpt>
      <trkpt lat="43.14367" lon="-1.22956">
        <ele>197.919527</ele>
        <time>2026-05-22T09:14:30.000Z</time>
      </trkpt>
      <trkpt lat="43.14363" lon="-1.22952">
        <ele>197.979198</ele>
        <time>2026-05-22T09:14:31.000Z</time>
      </trkpt>
      <trkpt lat="43.14359" lon="-1.22948">
        <ele>198.038734</ele>
        <time>2026-05-22T09:14:32.000Z</time>
      </trkpt>
      <trkpt lat="43.14355" lon="-1.22944">
        <ele>198.098823</ele>
        <time>2026-05-22T09:14:33.000Z</time>
      </trkpt>
      <trkpt lat="43.14351" lon="-1.2294">
        <ele>198.157851</ele>
        <time>2026-05-22T09:14:34.000Z</time>
      </trkpt>
      <trkpt lat="43.14347" lon="-1.22937">
        <ele>198.223662</ele>
        <time>2026-05-22T09:14:35.000Z</time>
      </trkpt>
      <trkpt lat="43.14343" lon="-1.22933">
        <ele>198.287826</ele>
        <time>2026-05-22T09:14:36.000Z</time>
      </trkpt>
      <trkpt lat="43.14338" lon="-1.22929">
        <ele>198.351991</ele>
        <time>2026-05-22T09:14:37.000Z</time>
      </trkpt>
      <trkpt lat="43.14334" lon="-1.22925">
        <ele>198.418277</ele>
        <time>2026-05-22T09:14:38.000Z</time>
      </trkpt>
      <trkpt lat="43.1433" lon="-1.22921">
        <ele>198.482942</ele>
        <time>2026-05-22T09:14:39.000Z</time>
      </trkpt>
      <trkpt lat="43.14325" lon="-1.22918">
        <ele>198.547681</ele>
        <time>2026-05-22T09:14:40.000Z</time>
      </trkpt>
      <trkpt lat="43.14321" lon="-1.22914">
        <ele>198.612569</ele>
        <time>2026-05-22T09:14:41.000Z</time>
      </trkpt>
      <trkpt lat="43.14316" lon="-1.22911">
        <ele>198.675471</ele>
        <time>2026-05-22T09:14:42.000Z</time>
      </trkpt>
      <trkpt lat="43.14312" lon="-1.22908">
        <ele>198.737102</ele>
        <time>2026-05-22T09:14:43.000Z</time>
      </trkpt>
      <trkpt lat="43.14307" lon="-1.22905">
        <ele>198.799858</ele>
        <time>2026-05-22T09:14:44.000Z</time>
      </trkpt>
      <trkpt lat="43.14303" lon="-1.22903">
        <ele>198.859592</ele>
        <time>2026-05-22T09:14:45.000Z</time>
      </trkpt>
      <trkpt lat="43.14298" lon="-1.229">
        <ele>198.91865</ele>
        <time>2026-05-22T09:14:46.000Z</time>
      </trkpt>
      <trkpt lat="43.14294" lon="-1.22898">
        <ele>198.978567</ele>
        <time>2026-05-22T09:14:47.000Z</time>
      </trkpt>
      <trkpt lat="43.14289" lon="-1.22896">
        <ele>199.022882</ele>
        <time>2026-05-22T09:14:48.000Z</time>
      </trkpt>
      <trkpt lat="43.14285" lon="-1.22894">
        <ele>198.99507</ele>
        <time>2026-05-22T09:14:49.000Z</time>
      </trkpt>
      <trkpt lat="43.1428" lon="-1.22892">
        <ele>198.966994</ele>
        <time>2026-05-22T09:14:50.000Z</time>
      </trkpt>
      <trkpt lat="43.14276" lon="-1.2289">
        <ele>198.938496</ele>
        <time>2026-05-22T09:14:51.000Z</time>
      </trkpt>
      <trkpt lat="43.14271" lon="-1.22887">
        <ele>198.909597</ele>
        <time>2026-05-22T09:14:52.000Z</time>
      </trkpt>
      <trkpt lat="43.14266" lon="-1.22885">
        <ele>198.88148</ele>
        <time>2026-05-22T09:14:53.000Z</time>
      </trkpt>
      <trkpt lat="43.14262" lon="-1.22882">
        <ele>198.853912</ele>
        <time>2026-05-22T09:14:54.000Z</time>
      </trkpt>
      <trkpt lat="43.14258" lon="-1.22879">
        <ele>198.825117</ele>
        <time>2026-05-22T09:14:55.000Z</time>
      </trkpt>
      <trkpt lat="43.14253" lon="-1.22876">
        <ele>198.794568</ele>
        <time>2026-05-22T09:14:56.000Z</time>
      </trkpt>
      <trkpt lat="43.14248" lon="-1.22873">
        <ele>198.763841</ele>
        <time>2026-05-22T09:14:57.000Z</time>
      </trkpt>
      <trkpt lat="43.14243" lon="-1.2287">
        <ele>198.73133</ele>
        <time>2026-05-22T09:14:58.000Z</time>
      </trkpt>
      <trkpt lat="43.14238" lon="-1.22866">
        <ele>198.698301</ele>
        <time>2026-05-22T09:14:59.000Z</time>
      </trkpt>
      <trkpt lat="43.14233" lon="-1.22863">
        <ele>198.664592</ele>
        <time>2026-05-22T09:15:00.000Z</time>
      </trkpt>
      <trkpt lat="43.14227" lon="-1.22859">
        <ele>198.630524</ele>
        <time>2026-05-22T09:15:01.000Z</time>
      </trkpt>
      <trkpt lat="43.14222" lon="-1.22856">
        <ele>198.596987</ele>
        <time>2026-05-22T09:15:02.000Z</time>
      </trkpt>
      <trkpt lat="43.14216" lon="-1.22853">
        <ele>198.56217</ele>
        <time>2026-05-22T09:15:03.000Z</time>
      </trkpt>
      <trkpt lat="43.14211" lon="-1.2285">
        <ele>198.527383</ele>
        <time>2026-05-22T09:15:04.000Z</time>
      </trkpt>
      <trkpt lat="43.14205" lon="-1.22848">
        <ele>198.491524</ele>
        <time>2026-05-22T09:15:05.000Z</time>
      </trkpt>
      <trkpt lat="43.14199" lon="-1.22846">
        <ele>198.454998</ele>
        <time>2026-05-22T09:15:06.000Z</time>
      </trkpt>
      <trkpt lat="43.14192" lon="-1.22844">
        <ele>198.417912</ele>
        <time>2026-05-22T09:15:07.000Z</time>
      </trkpt>
      <trkpt lat="43.14186" lon="-1.22842">
        <ele>198.378677</ele>
        <time>2026-05-22T09:15:08.000Z</time>
      </trkpt>
      <trkpt lat="43.14179" lon="-1.2284">
        <ele>198.339058</ele>
        <time>2026-05-22T09:15:09.000Z</time>
      </trkpt>
      <trkpt lat="43.14173" lon="-1.22838">
        <ele>198.300657</ele>
        <time>2026-05-22T09:15:10.000Z</time>
      </trkpt>
      <trkpt lat="43.14166" lon="-1.22836">
        <ele>198.262171</ele>
        <time>2026-05-22T09:15:11.000Z</time>
      </trkpt>
      <trkpt lat="43.14159" lon="-1.22834">
        <ele>198.222635</ele>
        <time>2026-05-22T09:15:12.000Z</time>
      </trkpt>
      <trkpt lat="43.14152" lon="-1.22833">
        <ele>198.181608</ele>
        <time>2026-05-22T09:15:13.000Z</time>
      </trkpt>
      <trkpt lat="43.14145" lon="-1.22832">
        <ele>198.139498</ele>
        <time>2026-05-22T09:15:14.000Z</time>
      </trkpt>
      <trkpt lat="43.14138" lon="-1.2283">
        <ele>198.09662</ele>
        <time>2026-05-22T09:15:15.000Z</time>
      </trkpt>
      <trkpt lat="43.14131" lon="-1.22827">
        <ele>198.054836</ele>
        <time>2026-05-22T09:15:16.000Z</time>
      </trkpt>
      <trkpt lat="43.14124" lon="-1.22824">
        <ele>198.014296</ele>
        <time>2026-05-22T09:15:17.000Z</time>
      </trkpt>
      <trkpt lat="43.14118" lon="-1.2282">
        <ele>197.977623</ele>
        <time>2026-05-22T09:15:18.000Z</time>
      </trkpt>
      <trkpt lat="43.14113" lon="-1.22815">
        <ele>197.9488</ele>
        <time>2026-05-22T09:15:19.000Z</time>
      </trkpt>
      <trkpt lat="43.14109" lon="-1.2281">
        <ele>197.920774</ele>
        <time>2026-05-22T09:15:20.000Z</time>
      </trkpt>
      <trkpt lat="43.14105" lon="-1.22804">
        <ele>197.893582</ele>
        <time>2026-05-22T09:15:21.000Z</time>
      </trkpt>
      <trkpt lat="43.14101" lon="-1.22798">
        <ele>197.867355</ele>
        <time>2026-05-22T09:15:22.000Z</time>
      </trkpt>
      <trkpt lat="43.14098" lon="-1.22792">
        <ele>197.841971</ele>
        <time>2026-05-22T09:15:23.000Z</time>
      </trkpt>
      <trkpt lat="43.14094" lon="-1.22787">
        <ele>197.817374</ele>
        <time>2026-05-22T09:15:24.000Z</time>
      </trkpt>
      <trkpt lat="43.14091" lon="-1.22781">
        <ele>197.792221</ele>
        <time>2026-05-22T09:15:25.000Z</time>
      </trkpt>
      <trkpt lat="43.14087" lon="-1.22775">
        <ele>197.767068</ele>
        <time>2026-05-22T09:15:26.000Z</time>
      </trkpt>
      <trkpt lat="43.14084" lon="-1.2277">
        <ele>197.742173</ele>
        <time>2026-05-22T09:15:27.000Z</time>
      </trkpt>
      <trkpt lat="43.1408" lon="-1.22764">
        <ele>197.717576</ele>
        <time>2026-05-22T09:15:28.000Z</time>
      </trkpt>
      <trkpt lat="43.14077" lon="-1.22759">
        <ele>197.693749</ele>
        <time>2026-05-22T09:15:29.000Z</time>
      </trkpt>
      <trkpt lat="43.14074" lon="-1.22754">
        <ele>197.670986</ele>
        <time>2026-05-22T09:15:30.000Z</time>
      </trkpt>
      <trkpt lat="43.1407" lon="-1.22749">
        <ele>197.648074</ele>
        <time>2026-05-22T09:15:31.000Z</time>
      </trkpt>
      <trkpt lat="43.14066" lon="-1.22745">
        <ele>197.624341</ele>
        <time>2026-05-22T09:15:32.000Z</time>
      </trkpt>
      <trkpt lat="43.14062" lon="-1.2274">
        <ele>197.600102</ele>
        <time>2026-05-22T09:15:33.000Z</time>
      </trkpt>
      <trkpt lat="43.14057" lon="-1.22737">
        <ele>197.575422</ele>
        <time>2026-05-22T09:15:34.000Z</time>
      </trkpt>
      <trkpt lat="43.14052" lon="-1.22733">
        <ele>197.549029</ele>
        <time>2026-05-22T09:15:35.000Z</time>
      </trkpt>
      <trkpt lat="43.14047" lon="-1.2273">
        <ele>197.521248</ele>
        <time>2026-05-22T09:15:36.000Z</time>
      </trkpt>
      <trkpt lat="43.14041" lon="-1.22727">
        <ele>197.492483</ele>
        <time>2026-05-22T09:15:37.000Z</time>
      </trkpt>
      <trkpt lat="43.14035" lon="-1.22723">
        <ele>197.463851</ele>
        <time>2026-05-22T09:15:38.000Z</time>
      </trkpt>
      <trkpt lat="43.14029" lon="-1.2272">
        <ele>197.435597</ele>
        <time>2026-05-22T09:15:39.000Z</time>
      </trkpt>
      <trkpt lat="43.14024" lon="-1.22717">
        <ele>197.406594</ele>
        <time>2026-05-22T09:15:40.000Z</time>
      </trkpt>
      <trkpt lat="43.14017" lon="-1.22714">
        <ele>197.376281</ele>
        <time>2026-05-22T09:15:41.000Z</time>
      </trkpt>
      <trkpt lat="43.14011" lon="-1.22711">
        <ele>197.34464</ele>
        <time>2026-05-22T09:15:42.000Z</time>
      </trkpt>
      <trkpt lat="43.14005" lon="-1.22707">
        <ele>197.312584</ele>
        <time>2026-05-22T09:15:43.000Z</time>
      </trkpt>
      <trkpt lat="43.13999" lon="-1.22701">
        <ele>197.279755</ele>
        <time>2026-05-22T09:15:44.000Z</time>
      </trkpt>
      <trkpt lat="43.13993" lon="-1.22694">
        <ele>197.245226</ele>
        <time>2026-05-22T09:15:45.000Z</time>
      </trkpt>
      <trkpt lat="43.13988" lon="-1.22687">
        <ele>197.211103</ele>
        <time>2026-05-22T09:15:46.000Z</time>
      </trkpt>
      <trkpt lat="43.13984" lon="-1.22679">
        <ele>197.177207</ele>
        <time>2026-05-22T09:15:47.000Z</time>
      </trkpt>
      <trkpt lat="43.13979" lon="-1.22671">
        <ele>197.181667</ele>
        <time>2026-05-22T09:15:48.000Z</time>
      </trkpt>
      <trkpt lat="43.13975" lon="-1.22663">
        <ele>197.264553</ele>
        <time>2026-05-22T09:15:49.000Z</time>
      </trkpt>
      <trkpt lat="43.13972" lon="-1.22655">
        <ele>197.344145</ele>
        <time>2026-05-22T09:15:50.000Z</time>
      </trkpt>
      <trkpt lat="43.13968" lon="-1.22647">
        <ele>197.422162</ele>
        <time>2026-05-22T09:15:51.000Z</time>
      </trkpt>
      <trkpt lat="43.13964" lon="-1.2264">
        <ele>197.498173</ele>
        <time>2026-05-22T09:15:52.000Z</time>
      </trkpt>
      <trkpt lat="43.1396" lon="-1.22634">
        <ele>197.570176</ele>
        <time>2026-05-22T09:15:53.000Z</time>
      </trkpt>
      <trkpt lat="43.13956" lon="-1.22628">
        <ele>197.639625</ele>
        <time>2026-05-22T09:15:54.000Z</time>
      </trkpt>
      <trkpt lat="43.13952" lon="-1.22622">
        <ele>197.705383</ele>
        <time>2026-05-22T09:15:55.000Z</time>
      </trkpt>
      <trkpt lat="43.13948" lon="-1.22617">
        <ele>197.770213</ele>
        <time>2026-05-22T09:15:56.000Z</time>
      </trkpt>
      <trkpt lat="43.13944" lon="-1.22612">
        <ele>197.834782</ele>
        <time>2026-05-22T09:15:57.000Z</time>
      </trkpt>
      <trkpt lat="43.1394" lon="-1.22607">
        <ele>197.898186</ele>
        <time>2026-05-22T09:15:58.000Z</time>
      </trkpt>
      <trkpt lat="43.13936" lon="-1.22602">
        <ele>197.961878</ele>
        <time>2026-05-22T09:15:59.000Z</time>
      </trkpt>
      <trkpt lat="43.13931" lon="-1.22597">
        <ele>198.026441</ele>
        <time>2026-05-22T09:16:00.000Z</time>
      </trkpt>
      <trkpt lat="43.13927" lon="-1.22592">
        <ele>198.086712</ele>
        <time>2026-05-22T09:16:01.000Z</time>
      </trkpt>
      <trkpt lat="43.13924" lon="-1.22587">
        <ele>198.146116</ele>
        <time>2026-05-22T09:16:02.000Z</time>
      </trkpt>
      <trkpt lat="43.1392" lon="-1.22583">
        <ele>198.203237</ele>
        <time>2026-05-22T09:16:03.000Z</time>
      </trkpt>
      <trkpt lat="43.13917" lon="-1.22578">
        <ele>198.256081</ele>
        <time>2026-05-22T09:16:04.000Z</time>
      </trkpt>
      <trkpt lat="43.13914" lon="-1.22574">
        <ele>198.308687</ele>
        <time>2026-05-22T09:16:05.000Z</time>
      </trkpt>
      <trkpt lat="43.1391" lon="-1.2257">
        <ele>198.361294</ele>
        <time>2026-05-22T09:16:06.000Z</time>
      </trkpt>
      <trkpt lat="43.13907" lon="-1.22565">
        <ele>198.413558</ele>
        <time>2026-05-22T09:16:07.000Z</time>
      </trkpt>
      <trkpt lat="43.13904" lon="-1.22561">
        <ele>198.463556</ele>
        <time>2026-05-22T09:16:08.000Z</time>
      </trkpt>
      <trkpt lat="43.13901" lon="-1.22557">
        <ele>198.514976</ele>
        <time>2026-05-22T09:16:09.000Z</time>
      </trkpt>
      <trkpt lat="43.13897" lon="-1.22553">
        <ele>198.567241</ele>
        <time>2026-05-22T09:16:10.000Z</time>
      </trkpt>
      <trkpt lat="43.13894" lon="-1.22549">
        <ele>198.621511</ele>
        <time>2026-05-22T09:16:11.000Z</time>
      </trkpt>
      <trkpt lat="43.1389" lon="-1.22544">
        <ele>198.678632</ele>
        <time>2026-05-22T09:16:12.000Z</time>
      </trkpt>
      <trkpt lat="43.13887" lon="-1.22539">
        <ele>198.738935</ele>
        <time>2026-05-22T09:16:13.000Z</time>
      </trkpt>
      <trkpt lat="43.13883" lon="-1.22534">
        <ele>198.797818</ele>
        <time>2026-05-22T09:16:14.000Z</time>
      </trkpt>
      <trkpt lat="43.1388" lon="-1.22529">
        <ele>198.855281</ele>
        <time>2026-05-22T09:16:15.000Z</time>
      </trkpt>
      <trkpt lat="43.13876" lon="-1.22524">
        <ele>198.915585</ele>
        <time>2026-05-22T09:16:16.000Z</time>
      </trkpt>
      <trkpt lat="43.13872" lon="-1.22519">
        <ele>198.97672</ele>
        <time>2026-05-22T09:16:17.000Z</time>
      </trkpt>
      <trkpt lat="43.13869" lon="-1.22514">
        <ele>199.036627</ele>
        <time>2026-05-22T09:16:18.000Z</time>
      </trkpt>
      <trkpt lat="43.13865" lon="-1.22509">
        <ele>199.099976</ele>
        <time>2026-05-22T09:16:19.000Z</time>
      </trkpt>
      <trkpt lat="43.13861" lon="-1.22503">
        <ele>199.162543</ele>
        <time>2026-05-22T09:16:20.000Z</time>
      </trkpt>
      <trkpt lat="43.13858" lon="-1.22498">
        <ele>199.223585</ele>
        <time>2026-05-22T09:16:21.000Z</time>
      </trkpt>
      <trkpt lat="43.13854" lon="-1.22492">
        <ele>199.227126</ele>
        <time>2026-05-22T09:16:22.000Z</time>
      </trkpt>
      <trkpt lat="43.13851" lon="-1.22486">
        <ele>199.207478</ele>
        <time>2026-05-22T09:16:23.000Z</time>
      </trkpt>
      <trkpt lat="43.13847" lon="-1.22481">
        <ele>199.18831</ele>
        <time>2026-05-22T09:16:24.000Z</time>
      </trkpt>
      <trkpt lat="43.13844" lon="-1.22476">
        <ele>199.169098</ele>
        <time>2026-05-22T09:16:25.000Z</time>
      </trkpt>
      <trkpt lat="43.1384" lon="-1.2247">
        <ele>199.150759</ele>
        <time>2026-05-22T09:16:26.000Z</time>
      </trkpt>
      <trkpt lat="43.13837" lon="-1.22465">
        <ele>199.132369</ele>
        <time>2026-05-22T09:16:27.000Z</time>
      </trkpt>
      <trkpt lat="43.13833" lon="-1.2246">
        <ele>199.113732</ele>
        <time>2026-05-22T09:16:28.000Z</time>
      </trkpt>
      <trkpt lat="43.13829" lon="-1.22455">
        <ele>199.095652</ele>
        <time>2026-05-22T09:16:29.000Z</time>
      </trkpt>
      <trkpt lat="43.13826" lon="-1.22451">
        <ele>199.077845</ele>
        <time>2026-05-22T09:16:30.000Z</time>
      </trkpt>
      <trkpt lat="43.13822" lon="-1.22447">
        <ele>199.059261</ele>
        <time>2026-05-22T09:16:31.000Z</time>
      </trkpt>
      <trkpt lat="43.13818" lon="-1.22443">
        <ele>199.041727</ele>
        <time>2026-05-22T09:16:32.000Z</time>
      </trkpt>
      <trkpt lat="43.13814" lon="-1.22439">
        <ele>199.023895</ele>
        <time>2026-05-22T09:16:33.000Z</time>
      </trkpt>
      <trkpt lat="43.13809" lon="-1.22436">
        <ele>199.005841</ele>
        <time>2026-05-22T09:16:34.000Z</time>
      </trkpt>
      <trkpt lat="43.13805" lon="-1.22433">
        <ele>198.987711</ele>
        <time>2026-05-22T09:16:35.000Z</time>
      </trkpt>
      <trkpt lat="43.138" lon="-1.2243">
        <ele>198.970358</ele>
        <time>2026-05-22T09:16:36.000Z</time>
      </trkpt>
      <trkpt lat="43.13796" lon="-1.22427">
        <ele>198.952345</ele>
        <time>2026-05-22T09:16:37.000Z</time>
      </trkpt>
      <trkpt lat="43.13791" lon="-1.22424">
        <ele>198.934446</ele>
        <time>2026-05-22T09:16:38.000Z</time>
      </trkpt>
      <trkpt lat="43.13787" lon="-1.22421">
        <ele>198.916656</ele>
        <time>2026-05-22T09:16:39.000Z</time>
      </trkpt>
      <trkpt lat="43.13782" lon="-1.22418">
        <ele>198.898974</ele>
        <time>2026-05-22T09:16:40.000Z</time>
      </trkpt>
      <trkpt lat="43.13778" lon="-1.22416">
        <ele>198.880856</ele>
        <time>2026-05-22T09:16:41.000Z</time>
      </trkpt>
      <trkpt lat="43.13773" lon="-1.22413">
        <ele>198.863067</ele>
        <time>2026-05-22T09:16:42.000Z</time>
      </trkpt>
      <trkpt lat="43.13769" lon="-1.2241">
        <ele>198.845054</ele>
        <time>2026-05-22T09:16:43.000Z</time>
      </trkpt>
      <trkpt lat="43.13764" lon="-1.22407">
        <ele>198.826279</ele>
        <time>2026-05-22T09:16:44.000Z</time>
      </trkpt>
      <trkpt lat="43.1376" lon="-1.22403">
        <ele>198.808224</ele>
        <time>2026-05-22T09:16:45.000Z</time>
      </trkpt>
      <trkpt lat="43.13755" lon="-1.224">
        <ele>198.789853</ele>
        <time>2026-05-22T09:16:46.000Z</time>
      </trkpt>
      <trkpt lat="43.1375" lon="-1.22397">
        <ele>198.771283</ele>
        <time>2026-05-22T09:16:47.000Z</time>
      </trkpt>
      <trkpt lat="43.13746" lon="-1.22394">
        <ele>198.752714</ele>
        <time>2026-05-22T09:16:48.000Z</time>
      </trkpt>
      <trkpt lat="43.13741" lon="-1.22391">
        <ele>198.734145</ele>
        <time>2026-05-22T09:16:49.000Z</time>
      </trkpt>
      <trkpt lat="43.13736" lon="-1.22388">
        <ele>198.714827</ele>
        <time>2026-05-22T09:16:50.000Z</time>
      </trkpt>
      <trkpt lat="43.13731" lon="-1.22385">
        <ele>198.69485</ele>
        <time>2026-05-22T09:16:51.000Z</time>
      </trkpt>
      <trkpt lat="43.13726" lon="-1.22382">
        <ele>198.674642</ele>
        <time>2026-05-22T09:16:52.000Z</time>
      </trkpt>
      <trkpt lat="43.1372" lon="-1.22379">
        <ele>198.653273</ele>
        <time>2026-05-22T09:16:53.000Z</time>
      </trkpt>
      <trkpt lat="43.13715" lon="-1.22376">
        <ele>198.631388</ele>
        <time>2026-05-22T09:16:54.000Z</time>
      </trkpt>
      <trkpt lat="43.13709" lon="-1.22373">
        <ele>198.609648</ele>
        <time>2026-05-22T09:16:55.000Z</time>
      </trkpt>
      <trkpt lat="43.13703" lon="-1.2237">
        <ele>198.502928</ele>
        <time>2026-05-22T09:16:56.000Z</time>
      </trkpt>
      <trkpt lat="43.13697" lon="-1.22366">
        <ele>198.21494</ele>
        <time>2026-05-22T09:16:57.000Z</time>
      </trkpt>
      <trkpt lat="43.13691" lon="-1.22362">
        <ele>197.933393</ele>
        <time>2026-05-22T09:16:58.000Z</time>
      </trkpt>
      <trkpt lat="43.13686" lon="-1.22358">
        <ele>197.658088</ele>
        <time>2026-05-22T09:16:59.000Z</time>
      </trkpt>
      <trkpt lat="43.1368" lon="-1.22353">
        <ele>197.386059</ele>
        <time>2026-05-22T09:17:00.000Z</time>
      </trkpt>
      <trkpt lat="43.13675" lon="-1.22348">
        <ele>197.114151</ele>
        <time>2026-05-22T09:17:01.000Z</time>
      </trkpt>
      <trkpt lat="43.1367" lon="-1.22343">
        <ele>196.836876</ele>
        <time>2026-05-22T09:17:02.000Z</time>
      </trkpt>
      <trkpt lat="43.13665" lon="-1.22338">
        <ele>196.548923</ele>
        <time>2026-05-22T09:17:03.000Z</time>
      </trkpt>
      <trkpt lat="43.13659" lon="-1.22333">
        <ele>196.248387</ele>
        <time>2026-05-22T09:17:04.000Z</time>
      </trkpt>
      <trkpt lat="43.13653" lon="-1.22327">
        <ele>195.928136</ele>
        <time>2026-05-22T09:17:05.000Z</time>
      </trkpt>
      <trkpt lat="43.13646" lon="-1.22322">
        <ele>195.588163</ele>
        <time>2026-05-22T09:17:06.000Z</time>
      </trkpt>
      <trkpt lat="43.13639" lon="-1.22316">
        <ele>195.238813</ele>
        <time>2026-05-22T09:17:07.000Z</time>
      </trkpt>
      <trkpt lat="43.13632" lon="-1.2231">
        <ele>194.871325</ele>
        <time>2026-05-22T09:17:08.000Z</time>
      </trkpt>
      <trkpt lat="43.13624" lon="-1.22303">
        <ele>194.490353</ele>
        <time>2026-05-22T09:17:09.000Z</time>
      </trkpt>
      <trkpt lat="43.13618" lon="-1.22296">
        <ele>194.111858</ele>
        <time>2026-05-22T09:17:10.000Z</time>
      </trkpt>
      <trkpt lat="43.13612" lon="-1.22287">
        <ele>193.744248</ele>
        <time>2026-05-22T09:17:11.000Z</time>
      </trkpt>
      <trkpt lat="43.13608" lon="-1.22277">
        <ele>193.38955</ele>
        <time>2026-05-22T09:17:12.000Z</time>
      </trkpt>
      <trkpt lat="43.13606" lon="-1.22267">
        <ele>193.057246</ele>
        <time>2026-05-22T09:17:13.000Z</time>
      </trkpt>
      <trkpt lat="43.13606" lon="-1.22257">
        <ele>192.731304</ele>
        <time>2026-05-22T09:17:14.000Z</time>
      </trkpt>
      <trkpt lat="43.13607" lon="-1.22248">
        <ele>192.43132</ele>
        <time>2026-05-22T09:17:15.000Z</time>
      </trkpt>
      <trkpt lat="43.13607" lon="-1.22239">
        <ele>192.164644</ele>
        <time>2026-05-22T09:17:16.000Z</time>
      </trkpt>
      <trkpt lat="43.13606" lon="-1.22231">
        <ele>191.903878</ele>
        <time>2026-05-22T09:17:17.000Z</time>
      </trkpt>
      <trkpt lat="43.13604" lon="-1.22223">
        <ele>191.645169</ele>
        <time>2026-05-22T09:17:18.000Z</time>
      </trkpt>
      <trkpt lat="43.13601" lon="-1.22217">
        <ele>191.386809</ele>
        <time>2026-05-22T09:17:19.000Z</time>
      </trkpt>
      <trkpt lat="43.13597" lon="-1.22211">
        <ele>191.134294</ele>
        <time>2026-05-22T09:17:20.000Z</time>
      </trkpt>
      <trkpt lat="43.13593" lon="-1.22205">
        <ele>190.890529</ele>
        <time>2026-05-22T09:17:21.000Z</time>
      </trkpt>
      <trkpt lat="43.13589" lon="-1.22199">
        <ele>190.818151</ele>
        <time>2026-05-22T09:17:22.000Z</time>
      </trkpt>
      <trkpt lat="43.13586" lon="-1.22194">
        <ele>190.852937</ele>
        <time>2026-05-22T09:17:23.000Z</time>
      </trkpt>
      <trkpt lat="43.13584" lon="-1.22188">
        <ele>190.886629</ele>
        <time>2026-05-22T09:17:24.000Z</time>
      </trkpt>
      <trkpt lat="43.13581" lon="-1.22182">
        <ele>190.918774</ele>
        <time>2026-05-22T09:17:25.000Z</time>
      </trkpt>
      <trkpt lat="43.13579" lon="-1.22177">
        <ele>190.949295</ele>
        <time>2026-05-22T09:17:26.000Z</time>
      </trkpt>
      <trkpt lat="43.13577" lon="-1.22172">
        <ele>190.978194</ele>
        <time>2026-05-22T09:17:27.000Z</time>
      </trkpt>
      <trkpt lat="43.13574" lon="-1.22167">
        <ele>191.006183</ele>
        <time>2026-05-22T09:17:28.000Z</time>
      </trkpt>
      <trkpt lat="43.13572" lon="-1.22163">
        <ele>191.033518</ele>
        <time>2026-05-22T09:17:29.000Z</time>
      </trkpt>
      <trkpt lat="43.13569" lon="-1.2216">
        <ele>191.060895</ele>
        <time>2026-05-22T09:17:30.000Z</time>
      </trkpt>
      <trkpt lat="43.13565" lon="-1.22155">
        <ele>191.091442</ele>
        <time>2026-05-22T09:17:31.000Z</time>
      </trkpt>
      <trkpt lat="43.13562" lon="-1.22151">
        <ele>191.12399</ele>
        <time>2026-05-22T09:17:32.000Z</time>
      </trkpt>
      <trkpt lat="43.13559" lon="-1.22146">
        <ele>191.156273</ele>
        <time>2026-05-22T09:17:33.000Z</time>
      </trkpt>
      <trkpt lat="43.13555" lon="-1.22141">
        <ele>191.18868</ele>
        <time>2026-05-22T09:17:34.000Z</time>
      </trkpt>
      <trkpt lat="43.13553" lon="-1.22136">
        <ele>191.220667</ele>
        <time>2026-05-22T09:17:35.000Z</time>
      </trkpt>
      <trkpt lat="43.1355" lon="-1.22131">
        <ele>191.252386</ele>
        <time>2026-05-22T09:17:36.000Z</time>
      </trkpt>
      <trkpt lat="43.13548" lon="-1.22125">
        <ele>191.283431</ele>
        <time>2026-05-22T09:17:37.000Z</time>
      </trkpt>
      <trkpt lat="43.13546" lon="-1.2212">
        <ele>191.312088</ele>
        <time>2026-05-22T09:17:38.000Z</time>
      </trkpt>
      <trkpt lat="43.13544" lon="-1.22115">
        <ele>191.340746</ele>
        <time>2026-05-22T09:17:39.000Z</time>
      </trkpt>
      <trkpt lat="43.13542" lon="-1.2211">
        <ele>191.369583</ele>
        <time>2026-05-22T09:17:40.000Z</time>
      </trkpt>
      <trkpt lat="43.13539" lon="-1.22105">
        <ele>191.397977</ele>
        <time>2026-05-22T09:17:41.000Z</time>
      </trkpt>
      <trkpt lat="43.13537" lon="-1.221">
        <ele>191.426777</ele>
        <time>2026-05-22T09:17:42.000Z</time>
      </trkpt>
      <trkpt lat="43.13535" lon="-1.22095">
        <ele>191.456101</ele>
        <time>2026-05-22T09:17:43.000Z</time>
      </trkpt>
      <trkpt lat="43.13533" lon="-1.2209">
        <ele>191.485196</ele>
        <time>2026-05-22T09:17:44.000Z</time>
      </trkpt>
      <trkpt lat="43.13531" lon="-1.22085">
        <ele>191.514581</ele>
        <time>2026-05-22T09:17:45.000Z</time>
      </trkpt>
      <trkpt lat="43.13529" lon="-1.22079">
        <ele>191.543236</ele>
        <time>2026-05-22T09:17:46.000Z</time>
      </trkpt>
      <trkpt lat="43.13527" lon="-1.22074">
        <ele>191.572135</ele>
        <time>2026-05-22T09:17:47.000Z</time>
      </trkpt>
      <trkpt lat="43.13524" lon="-1.2207">
        <ele>191.602305</ele>
        <time>2026-05-22T09:17:48.000Z</time>
      </trkpt>
      <trkpt lat="43.13521" lon="-1.22066">
        <ele>191.631862</ele>
        <time>2026-05-22T09:17:49.000Z</time>
      </trkpt>
      <trkpt lat="43.13517" lon="-1.22062">
        <ele>191.662075</ele>
        <time>2026-05-22T09:17:50.000Z</time>
      </trkpt>
      <trkpt lat="43.13514" lon="-1.22058">
        <ele>191.691881</ele>
        <time>2026-05-22T09:17:51.000Z</time>
      </trkpt>
      <trkpt lat="43.13512" lon="-1.22053">
        <ele>191.721152</ele>
        <time>2026-05-22T09:17:52.000Z</time>
      </trkpt>
      <trkpt lat="43.13509" lon="-1.22048">
        <ele>191.75114</ele>
        <time>2026-05-22T09:17:53.000Z</time>
      </trkpt>
      <trkpt lat="43.13507" lon="-1.22043">
        <ele>191.780815</ele>
        <time>2026-05-22T09:17:54.000Z</time>
      </trkpt>
      <trkpt lat="43.13504" lon="-1.22038">
        <ele>191.81211</ele>
        <time>2026-05-22T09:17:55.000Z</time>
      </trkpt>
      <trkpt lat="43.13502" lon="-1.22032">
        <ele>191.843058</ele>
        <time>2026-05-22T09:17:56.000Z</time>
      </trkpt>
      <trkpt lat="43.135" lon="-1.22027">
        <ele>191.87358</ele>
        <time>2026-05-22T09:17:57.000Z</time>
      </trkpt>
      <trkpt lat="43.13497" lon="-1.22022">
        <ele>191.904034</ele>
        <time>2026-05-22T09:17:58.000Z</time>
      </trkpt>
      <trkpt lat="43.13495" lon="-1.22016">
        <ele>191.934321</ele>
        <time>2026-05-22T09:17:59.000Z</time>
      </trkpt>
      <trkpt lat="43.13493" lon="-1.22011">
        <ele>191.964358</ele>
        <time>2026-05-22T09:18:00.000Z</time>
      </trkpt>
      <trkpt lat="43.13491" lon="-1.22006">
        <ele>191.993683</ele>
        <time>2026-05-22T09:18:01.000Z</time>
      </trkpt>
      <trkpt lat="43.13488" lon="-1.22001">
        <ele>192.027302</ele>
        <time>2026-05-22T09:18:02.000Z</time>
      </trkpt>
      <trkpt lat="43.13486" lon="-1.21997">
        <ele>192.073526</ele>
        <time>2026-05-22T09:18:03.000Z</time>
      </trkpt>
      <trkpt lat="43.13484" lon="-1.21993">
        <ele>192.114985</ele>
        <time>2026-05-22T09:18:04.000Z</time>
      </trkpt>
      <trkpt lat="43.13482" lon="-1.21989">
        <ele>192.155781</ele>
        <time>2026-05-22T09:18:05.000Z</time>
      </trkpt>
      <trkpt lat="43.1348" lon="-1.21985">
        <ele>192.19619</ele>
        <time>2026-05-22T09:18:06.000Z</time>
      </trkpt>
      <trkpt lat="43.13479" lon="-1.2198">
        <ele>192.235039</ele>
        <time>2026-05-22T09:18:07.000Z</time>
      </trkpt>
      <trkpt lat="43.13478" lon="-1.21976">
        <ele>192.271004</ele>
        <time>2026-05-22T09:18:08.000Z</time>
      </trkpt>
      <trkpt lat="43.13477" lon="-1.21972">
        <ele>192.307391</ele>
        <time>2026-05-22T09:18:09.000Z</time>
      </trkpt>
      <trkpt lat="43.13475" lon="-1.21969">
        <ele>192.345034</ele>
        <time>2026-05-22T09:18:10.000Z</time>
      </trkpt>
      <trkpt lat="43.13473" lon="-1.21965">
        <ele>192.38379</ele>
        <time>2026-05-22T09:18:11.000Z</time>
      </trkpt>
      <trkpt lat="43.13471" lon="-1.21961">
        <ele>192.424048</ele>
        <time>2026-05-22T09:18:12.000Z</time>
      </trkpt>
      <trkpt lat="43.1347" lon="-1.21956">
        <ele>192.464457</ele>
        <time>2026-05-22T09:18:13.000Z</time>
      </trkpt>
      <trkpt lat="43.13468" lon="-1.21952">
        <ele>192.506897</ele>
        <time>2026-05-22T09:18:14.000Z</time>
      </trkpt>
      <trkpt lat="43.13465" lon="-1.21948">
        <ele>192.553121</ele>
        <time>2026-05-22T09:18:15.000Z</time>
      </trkpt>
      <trkpt lat="43.13463" lon="-1.21943">
        <ele>192.602737</ele>
        <time>2026-05-22T09:18:16.000Z</time>
      </trkpt>
      <trkpt lat="43.1346" lon="-1.21937">
        <ele>192.656469</ele>
        <time>2026-05-22T09:18:17.000Z</time>
      </trkpt>
      <trkpt lat="43.13457" lon="-1.21932">
        <ele>192.715598</ele>
        <time>2026-05-22T09:18:18.000Z</time>
      </trkpt>
      <trkpt lat="43.13454" lon="-1.21926">
        <ele>192.779323</ele>
        <time>2026-05-22T09:18:19.000Z</time>
      </trkpt>
      <trkpt lat="43.13449" lon="-1.21921">
        <ele>192.845724</ele>
        <time>2026-05-22T09:18:20.000Z</time>
      </trkpt>
      <trkpt lat="43.13445" lon="-1.21915">
        <ele>192.913825</ele>
        <time>2026-05-22T09:18:21.000Z</time>
      </trkpt>
      <trkpt lat="43.1344" lon="-1.2191">
        <ele>192.982945</ele>
        <time>2026-05-22T09:18:22.000Z</time>
      </trkpt>
      <trkpt lat="43.13435" lon="-1.21906">
        <ele>193.051904</ele>
        <time>2026-05-22T09:18:23.000Z</time>
      </trkpt>
      <trkpt lat="43.1343" lon="-1.21902">
        <ele>193.122075</ele>
        <time>2026-05-22T09:18:24.000Z</time>
      </trkpt>
      <trkpt lat="43.13424" lon="-1.21898">
        <ele>193.194089</ele>
        <time>2026-05-22T09:18:25.000Z</time>
      </trkpt>
      <trkpt lat="43.13419" lon="-1.21895">
        <ele>193.263413</ele>
        <time>2026-05-22T09:18:26.000Z</time>
      </trkpt>
      <trkpt lat="43.13413" lon="-1.21892">
        <ele>193.333226</ele>
        <time>2026-05-22T09:18:27.000Z</time>
      </trkpt>
      <trkpt lat="43.13408" lon="-1.21889">
        <ele>193.396887</ele>
        <time>2026-05-22T09:18:28.000Z</time>
      </trkpt>
      <trkpt lat="43.13403" lon="-1.21887">
        <ele>193.455645</ele>
        <time>2026-05-22T09:18:29.000Z</time>
      </trkpt>
      <trkpt lat="43.13399" lon="-1.21884">
        <ele>193.508842</ele>
        <time>2026-05-22T09:18:30.000Z</time>
      </trkpt>
      <trkpt lat="43.13395" lon="-1.2188">
        <ele>193.560204</ele>
        <time>2026-05-22T09:18:31.000Z</time>
      </trkpt>
      <trkpt lat="43.13392" lon="-1.21877">
        <ele>193.610614</ele>
        <time>2026-05-22T09:18:32.000Z</time>
      </trkpt>
      <trkpt lat="43.13388" lon="-1.21873">
        <ele>193.660569</ele>
        <time>2026-05-22T09:18:33.000Z</time>
      </trkpt>
      <trkpt lat="43.13385" lon="-1.2187">
        <ele>193.709389</ele>
        <time>2026-05-22T09:18:34.000Z</time>
      </trkpt>
      <trkpt lat="43.13382" lon="-1.21865">
        <ele>193.761063</ele>
        <time>2026-05-22T09:18:35.000Z</time>
      </trkpt>
      <trkpt lat="43.13378" lon="-1.21861">
        <ele>193.818974</ele>
        <time>2026-05-22T09:18:36.000Z</time>
      </trkpt>
      <trkpt lat="43.13375" lon="-1.21856">
        <ele>193.874309</ele>
        <time>2026-05-22T09:18:37.000Z</time>
      </trkpt>
      <trkpt lat="43.13371" lon="-1.21852">
        <ele>193.929643</ele>
        <time>2026-05-22T09:18:38.000Z</time>
      </trkpt>
      <trkpt lat="43.13368" lon="-1.21847">
        <ele>193.988145</ele>
        <time>2026-05-22T09:18:39.000Z</time>
      </trkpt>
      <trkpt lat="43.13364" lon="-1.21842">
        <ele>194.046439</ele>
        <time>2026-05-22T09:18:40.000Z</time>
      </trkpt>
      <trkpt lat="43.1336" lon="-1.21837">
        <ele>194.142178</ele>
        <time>2026-05-22T09:18:41.000Z</time>
      </trkpt>
      <trkpt lat="43.13356" lon="-1.21832">
        <ele>194.307255</ele>
        <time>2026-05-22T09:18:42.000Z</time>
      </trkpt>
      <trkpt lat="43.13353" lon="-1.21828">
        <ele>194.465961</ele>
        <time>2026-05-22T09:18:43.000Z</time>
      </trkpt>
      <trkpt lat="43.13349" lon="-1.21823">
        <ele>194.619166</ele>
        <time>2026-05-22T09:18:44.000Z</time>
      </trkpt>
      <trkpt lat="43.13346" lon="-1.21819">
        <ele>194.762945</ele>
        <time>2026-05-22T09:18:45.000Z</time>
      </trkpt>
      <trkpt lat="43.13343" lon="-1.21815">
        <ele>194.90116</ele>
        <time>2026-05-22T09:18:46.000Z</time>
      </trkpt>
      <trkpt lat="43.1334" lon="-1.21811">
        <ele>195.038748</ele>
        <time>2026-05-22T09:18:47.000Z</time>
      </trkpt>
      <trkpt lat="43.13337" lon="-1.21807">
        <ele>195.171408</ele>
        <time>2026-05-22T09:18:48.000Z</time>
      </trkpt>
      <trkpt lat="43.13334" lon="-1.21803">
        <ele>195.294581</ele>
        <time>2026-05-22T09:18:49.000Z</time>
      </trkpt>
      <trkpt lat="43.13331" lon="-1.218">
        <ele>195.40594</ele>
        <time>2026-05-22T09:18:50.000Z</time>
      </trkpt>
      <trkpt lat="43.13329" lon="-1.21797">
        <ele>195.509435</ele>
        <time>2026-05-22T09:18:51.000Z</time>
      </trkpt>
      <trkpt lat="43.13327" lon="-1.21794">
        <ele>195.606755</ele>
        <time>2026-05-22T09:18:52.000Z</time>
      </trkpt>
      <trkpt lat="43.13325" lon="-1.21791">
        <ele>195.703335</ele>
        <time>2026-05-22T09:18:53.000Z</time>
      </trkpt>
      <trkpt lat="43.13324" lon="-1.21788">
        <ele>195.786591</ele>
        <time>2026-05-22T09:18:54.000Z</time>
      </trkpt>
      <trkpt lat="43.13322" lon="-1.21785">
        <ele>195.860365</ele>
        <time>2026-05-22T09:18:55.000Z</time>
      </trkpt>
      <trkpt lat="43.13321" lon="-1.21783">
        <ele>195.93415</ele>
        <time>2026-05-22T09:18:56.000Z</time>
      </trkpt>
      <trkpt lat="43.13319" lon="-1.2178">
        <ele>196.011743</ele>
        <time>2026-05-22T09:18:57.000Z</time>
      </trkpt>
      <trkpt lat="43.13318" lon="-1.21777">
        <ele>196.08979</ele>
        <time>2026-05-22T09:18:58.000Z</time>
      </trkpt>
      <trkpt lat="43.13317" lon="-1.21774">
        <ele>196.173443</ele>
        <time>2026-05-22T09:18:59.000Z</time>
      </trkpt>
      <trkpt lat="43.13316" lon="-1.21771">
        <ele>196.263975</ele>
        <time>2026-05-22T09:19:00.000Z</time>
      </trkpt>
      <trkpt lat="43.13315" lon="-1.21767">
        <ele>196.358765</ele>
        <time>2026-05-22T09:19:01.000Z</time>
      </trkpt>
      <trkpt lat="43.13314" lon="-1.21763">
        <ele>196.462183</ele>
        <time>2026-05-22T09:19:02.000Z</time>
      </trkpt>
      <trkpt lat="43.13312" lon="-1.21759">
        <ele>196.563935</ele>
        <time>2026-05-22T09:19:03.000Z</time>
      </trkpt>
      <trkpt lat="43.13311" lon="-1.21755">
        <ele>196.660623</ele>
        <time>2026-05-22T09:19:04.000Z</time>
      </trkpt>
      <trkpt lat="43.13308" lon="-1.21752">
        <ele>196.761857</ele>
        <time>2026-05-22T09:19:05.000Z</time>
      </trkpt>
      <trkpt lat="43.13306" lon="-1.21749">
        <ele>196.865352</ele>
        <time>2026-05-22T09:19:06.000Z</time>
      </trkpt>
      <trkpt lat="43.13304" lon="-1.21746">
        <ele>196.964968</ele>
        <time>2026-05-22T09:19:07.000Z</time>
      </trkpt>
      <trkpt lat="43.13301" lon="-1.21744">
        <ele>197.063666</ele>
        <time>2026-05-22T09:19:08.000Z</time>
      </trkpt>
      <trkpt lat="43.13299" lon="-1.21741">
        <ele>197.168203</ele>
        <time>2026-05-22T09:19:09.000Z</time>
      </trkpt>
      <trkpt lat="43.13296" lon="-1.21738">
        <ele>197.274288</ele>
        <time>2026-05-22T09:19:10.000Z</time>
      </trkpt>
      <trkpt lat="43.13293" lon="-1.21736">
        <ele>197.381499</ele>
        <time>2026-05-22T09:19:11.000Z</time>
      </trkpt>
      <trkpt lat="43.1329" lon="-1.21734">
        <ele>197.484619</ele>
        <time>2026-05-22T09:19:12.000Z</time>
      </trkpt>
      <trkpt lat="43.13288" lon="-1.21732">
        <ele>197.587018</ele>
        <time>2026-05-22T09:19:13.000Z</time>
      </trkpt>
      <trkpt lat="43.13285" lon="-1.21729">
        <ele>197.695524</ele>
        <time>2026-05-22T09:19:14.000Z</time>
      </trkpt>
      <trkpt lat="43.13282" lon="-1.21727">
        <ele>197.799068</ele>
        <time>2026-05-22T09:19:15.000Z</time>
      </trkpt>
      <trkpt lat="43.13279" lon="-1.21725">
        <ele>197.908988</ele>
        <time>2026-05-22T09:19:16.000Z</time>
      </trkpt>
      <trkpt lat="43.13276" lon="-1.21723">
        <ele>198.026717</ele>
        <time>2026-05-22T09:19:17.000Z</time>
      </trkpt>
      <trkpt lat="43.13272" lon="-1.21721">
        <ele>198.151242</ele>
        <time>2026-05-22T09:19:18.000Z</time>
      </trkpt>
      <trkpt lat="43.13268" lon="-1.21719">
        <ele>198.28183</ele>
        <time>2026-05-22T09:19:19.000Z</time>
      </trkpt>
      <trkpt lat="43.13265" lon="-1.21716">
        <ele>198.409256</ele>
        <time>2026-05-22T09:19:20.000Z</time>
      </trkpt>
      <trkpt lat="43.13261" lon="-1.21714">
        <ele>198.535709</ele>
        <time>2026-05-22T09:19:21.000Z</time>
      </trkpt>
      <trkpt lat="43.13257" lon="-1.21713">
        <ele>198.664471</ele>
        <time>2026-05-22T09:19:22.000Z</time>
      </trkpt>
      <trkpt lat="43.13253" lon="-1.21711">
        <ele>198.79442</ele>
        <time>2026-05-22T09:19:23.000Z</time>
      </trkpt>
      <trkpt lat="43.13249" lon="-1.2171">
        <ele>198.92195</ele>
        <time>2026-05-22T09:19:24.000Z</time>
      </trkpt>
      <trkpt lat="43.13246" lon="-1.21707">
        <ele>199.047505</ele>
        <time>2026-05-22T09:19:25.000Z</time>
      </trkpt>
      <trkpt lat="43.13242" lon="-1.21705">
        <ele>199.17883</ele>
        <time>2026-05-22T09:19:26.000Z</time>
      </trkpt>
      <trkpt lat="43.13239" lon="-1.21702">
        <ele>199.311172</ele>
        <time>2026-05-22T09:19:27.000Z</time>
      </trkpt>
      <trkpt lat="43.13235" lon="-1.217">
        <ele>199.441512</ele>
        <time>2026-05-22T09:19:28.000Z</time>
      </trkpt>
      <trkpt lat="43.13231" lon="-1.21698">
        <ele>199.576813</ele>
        <time>2026-05-22T09:19:29.000Z</time>
      </trkpt>
      <trkpt lat="43.13227" lon="-1.21696">
        <ele>199.710401</ele>
        <time>2026-05-22T09:19:30.000Z</time>
      </trkpt>
      <trkpt lat="43.13223" lon="-1.21694">
        <ele>199.839791</ele>
        <time>2026-05-22T09:19:31.000Z</time>
      </trkpt>
      <trkpt lat="43.1322" lon="-1.21691">
        <ele>199.928995</ele>
        <time>2026-05-22T09:19:32.000Z</time>
      </trkpt>
      <trkpt lat="43.13216" lon="-1.21689">
        <ele>200.009806</ele>
        <time>2026-05-22T09:19:33.000Z</time>
      </trkpt>
      <trkpt lat="43.13213" lon="-1.21687">
        <ele>200.086865</ele>
        <time>2026-05-22T09:19:34.000Z</time>
      </trkpt>
      <trkpt lat="43.13209" lon="-1.21686">
        <ele>200.16282</ele>
        <time>2026-05-22T09:19:35.000Z</time>
      </trkpt>
      <trkpt lat="43.13206" lon="-1.21683">
        <ele>200.237954</ele>
        <time>2026-05-22T09:19:36.000Z</time>
      </trkpt>
      <trkpt lat="43.13203" lon="-1.21681">
        <ele>200.321313</ele>
        <time>2026-05-22T09:19:37.000Z</time>
      </trkpt>
      <trkpt lat="43.13199" lon="-1.21679">
        <ele>200.402837</ele>
        <time>2026-05-22T09:19:38.000Z</time>
      </trkpt>
      <trkpt lat="43.13196" lon="-1.21677">
        <ele>200.479195</ele>
        <time>2026-05-22T09:19:39.000Z</time>
      </trkpt>
      <trkpt lat="43.13192" lon="-1.21675">
        <ele>200.564623</ele>
        <time>2026-05-22T09:19:40.000Z</time>
      </trkpt>
      <trkpt lat="43.13188" lon="-1.21673">
        <ele>200.649268</ele>
        <time>2026-05-22T09:19:41.000Z</time>
      </trkpt>
      <trkpt lat="43.13185" lon="-1.21671">
        <ele>200.730791</ele>
        <time>2026-05-22T09:19:42.000Z</time>
      </trkpt>
      <trkpt lat="43.13181" lon="-1.21669">
        <ele>200.814219</ele>
        <time>2026-05-22T09:19:43.000Z</time>
      </trkpt>
      <trkpt lat="43.13177" lon="-1.21667">
        <ele>200.897142</ele>
        <time>2026-05-22T09:19:44.000Z</time>
      </trkpt>
      <trkpt lat="43.13173" lon="-1.21665">
        <ele>200.981786</ele>
        <time>2026-05-22T09:19:45.000Z</time>
      </trkpt>
      <trkpt lat="43.1317" lon="-1.21663">
        <ele>201.071507</ele>
        <time>2026-05-22T09:19:46.000Z</time>
      </trkpt>
      <trkpt lat="43.13166" lon="-1.21661">
        <ele>201.156152</ele>
        <time>2026-05-22T09:19:47.000Z</time>
      </trkpt>
      <trkpt lat="43.13162" lon="-1.21658">
        <ele>201.242141</ele>
        <time>2026-05-22T09:19:48.000Z</time>
      </trkpt>
      <trkpt lat="43.13159" lon="-1.21656">
        <ele>201.322326</ele>
        <time>2026-05-22T09:19:49.000Z</time>
      </trkpt>
      <trkpt lat="43.13155" lon="-1.21655">
        <ele>201.402749</ele>
        <time>2026-05-22T09:19:50.000Z</time>
      </trkpt>
      <trkpt lat="43.13151" lon="-1.21653">
        <ele>201.478851</ele>
        <time>2026-05-22T09:19:51.000Z</time>
      </trkpt>
      <trkpt lat="43.13148" lon="-1.21651">
        <ele>201.553391</ele>
        <time>2026-05-22T09:19:52.000Z</time>
      </trkpt>
      <trkpt lat="43.13145" lon="-1.21649">
        <ele>201.635104</ele>
        <time>2026-05-22T09:19:53.000Z</time>
      </trkpt>
      <trkpt lat="43.13142" lon="-1.21647">
        <ele>201.710938</ele>
        <time>2026-05-22T09:19:54.000Z</time>
      </trkpt>
      <trkpt lat="43.13138" lon="-1.21645">
        <ele>201.782206</ele>
        <time>2026-05-22T09:19:55.000Z</time>
      </trkpt>
      <trkpt lat="43.13135" lon="-1.21642">
        <ele>201.85435</ele>
        <time>2026-05-22T09:19:56.000Z</time>
      </trkpt>
      <trkpt lat="43.13133" lon="-1.2164">
        <ele>201.923914</ele>
        <time>2026-05-22T09:19:57.000Z</time>
      </trkpt>
      <trkpt lat="43.13129" lon="-1.21638">
        <ele>201.995822</ele>
        <time>2026-05-22T09:19:58.000Z</time>
      </trkpt>
      <trkpt lat="43.13126" lon="-1.21636">
        <ele>202.068416</ele>
        <time>2026-05-22T09:19:59.000Z</time>
      </trkpt>
      <trkpt lat="43.13123" lon="-1.21634">
        <ele>202.141606</ele>
        <time>2026-05-22T09:20:00.000Z</time>
      </trkpt>
      <trkpt lat="43.1312" lon="-1.21632">
        <ele>202.20974</ele>
        <time>2026-05-22T09:20:01.000Z</time>
      </trkpt>
      <trkpt lat="43.13117" lon="-1.2163">
        <ele>202.286756</ele>
        <time>2026-05-22T09:20:02.000Z</time>
      </trkpt>
      <trkpt lat="43.13113" lon="-1.21628">
        <ele>202.367567</ele>
        <time>2026-05-22T09:20:03.000Z</time>
      </trkpt>
      <trkpt lat="43.1311" lon="-1.21626">
        <ele>202.443294</ele>
        <time>2026-05-22T09:20:04.000Z</time>
      </trkpt>
      <trkpt lat="43.13107" lon="-1.21624">
        <ele>202.516559</ele>
        <time>2026-05-22T09:20:05.000Z</time>
      </trkpt>
      <trkpt lat="43.13104" lon="-1.21622">
        <ele>202.590541</ele>
        <time>2026-05-22T09:20:06.000Z</time>
      </trkpt>
      <trkpt lat="43.131" lon="-1.21619">
        <ele>202.670805</ele>
        <time>2026-05-22T09:20:07.000Z</time>
      </trkpt>
      <trkpt lat="43.13097" lon="-1.21617">
        <ele>202.749072</ele>
        <time>2026-05-22T09:20:08.000Z</time>
      </trkpt>
      <trkpt lat="43.13094" lon="-1.21615">
        <ele>202.827477</ele>
        <time>2026-05-22T09:20:09.000Z</time>
      </trkpt>
      <trkpt lat="43.13091" lon="-1.21612">
        <ele>202.902966</ele>
        <time>2026-05-22T09:20:10.000Z</time>
      </trkpt>
      <trkpt lat="43.13087" lon="-1.2161">
        <ele>202.98027</ele>
        <time>2026-05-22T09:20:11.000Z</time>
      </trkpt>
      <trkpt lat="43.13084" lon="-1.21607">
        <ele>203.063629</ele>
        <time>2026-05-22T09:20:12.000Z</time>
      </trkpt>
      <trkpt lat="43.1308" lon="-1.21605">
        <ele>203.146462</ele>
        <time>2026-05-22T09:20:13.000Z</time>
      </trkpt>
      <trkpt lat="43.13077" lon="-1.21602">
        <ele>203.231161</ele>
        <time>2026-05-22T09:20:14.000Z</time>
      </trkpt>
      <trkpt lat="43.13073" lon="-1.216">
        <ele>203.312623</ele>
        <time>2026-05-22T09:20:15.000Z</time>
      </trkpt>
      <trkpt lat="43.1307" lon="-1.21597">
        <ele>203.400597</ele>
        <time>2026-05-22T09:20:16.000Z</time>
      </trkpt>
      <trkpt lat="43.13066" lon="-1.21595">
        <ele>203.481258</ele>
        <time>2026-05-22T09:20:17.000Z</time>
      </trkpt>
      <trkpt lat="43.13063" lon="-1.21592">
        <ele>203.562715</ele>
        <time>2026-05-22T09:20:18.000Z</time>
      </trkpt>
      <trkpt lat="43.13059" lon="-1.21589">
        <ele>203.637332</ele>
        <time>2026-05-22T09:20:19.000Z</time>
      </trkpt>
      <trkpt lat="43.13056" lon="-1.21588">
        <ele>203.665119</ele>
        <time>2026-05-22T09:20:20.000Z</time>
      </trkpt>
      <trkpt lat="43.13052" lon="-1.21586">
        <ele>203.693519</ele>
        <time>2026-05-22T09:20:21.000Z</time>
      </trkpt>
      <trkpt lat="43.13049" lon="-1.21583">
        <ele>203.722371</ele>
        <time>2026-05-22T09:20:22.000Z</time>
      </trkpt>
      <trkpt lat="43.13045" lon="-1.21581">
        <ele>203.752369</ele>
        <time>2026-05-22T09:20:23.000Z</time>
      </trkpt>
      <trkpt lat="43.13042" lon="-1.21578">
        <ele>203.783276</ele>
        <time>2026-05-22T09:20:24.000Z</time>
      </trkpt>
      <trkpt lat="43.13038" lon="-1.21576">
        <ele>203.814608</ele>
        <time>2026-05-22T09:20:25.000Z</time>
      </trkpt>
      <trkpt lat="43.13034" lon="-1.21573">
        <ele>203.847515</ele>
        <time>2026-05-22T09:20:26.000Z</time>
      </trkpt>
      <trkpt lat="43.1303" lon="-1.2157">
        <ele>203.879752</ele>
        <time>2026-05-22T09:20:27.000Z</time>
      </trkpt>
      <trkpt lat="43.13026" lon="-1.21568">
        <ele>203.911568</ele>
        <time>2026-05-22T09:20:28.000Z</time>
      </trkpt>
      <trkpt lat="43.13022" lon="-1.21565">
        <ele>203.94538</ele>
        <time>2026-05-22T09:20:29.000Z</time>
      </trkpt>
      <trkpt lat="43.13018" lon="-1.21562">
        <ele>203.979191</ele>
        <time>2026-05-22T09:20:30.000Z</time>
      </trkpt>
      <trkpt lat="43.13014" lon="-1.2156">
        <ele>204.011919</ele>
        <time>2026-05-22T09:20:31.000Z</time>
      </trkpt>
      <trkpt lat="43.1301" lon="-1.21558">
        <ele>204.045672</ele>
        <time>2026-05-22T09:20:32.000Z</time>
      </trkpt>
      <trkpt lat="43.13006" lon="-1.21556">
        <ele>204.077321</ele>
        <time>2026-05-22T09:20:33.000Z</time>
      </trkpt>
      <trkpt lat="43.13001" lon="-1.21554">
        <ele>204.11025</ele>
        <time>2026-05-22T09:20:34.000Z</time>
      </trkpt>
      <trkpt lat="43.12997" lon="-1.21551">
        <ele>204.1443</ele>
        <time>2026-05-22T09:20:35.000Z</time>
      </trkpt>
      <trkpt lat="43.12994" lon="-1.21548">
        <ele>204.17663</ele>
        <time>2026-05-22T09:20:36.000Z</time>
      </trkpt>
      <trkpt lat="43.1299" lon="-1.21545">
        <ele>204.208047</ele>
        <time>2026-05-22T09:20:37.000Z</time>
      </trkpt>
      <trkpt lat="43.12986" lon="-1.21542">
        <ele>204.241941</ele>
        <time>2026-05-22T09:20:38.000Z</time>
      </trkpt>
      <trkpt lat="43.12982" lon="-1.21539">
        <ele>204.276099</ele>
        <time>2026-05-22T09:20:39.000Z</time>
      </trkpt>
      <trkpt lat="43.12978" lon="-1.21537">
        <ele>204.309242</ele>
        <time>2026-05-22T09:20:40.000Z</time>
      </trkpt>
      <trkpt lat="43.12974" lon="-1.21533">
        <ele>204.344313</ele>
        <time>2026-05-22T09:20:41.000Z</time>
      </trkpt>
      <trkpt lat="43.12969" lon="-1.2153">
        <ele>204.382054</ele>
        <time>2026-05-22T09:20:42.000Z</time>
      </trkpt>
      <trkpt lat="43.12965" lon="-1.21526">
        <ele>204.420086</ele>
        <time>2026-05-22T09:20:43.000Z</time>
      </trkpt>
      <trkpt lat="43.12961" lon="-1.21522">
        <ele>204.458745</ele>
        <time>2026-05-22T09:20:44.000Z</time>
      </trkpt>
      <trkpt lat="43.12956" lon="-1.21518">
        <ele>204.497695</ele>
        <time>2026-05-22T09:20:45.000Z</time>
      </trkpt>
      <trkpt lat="43.12952" lon="-1.21514">
        <ele>204.536354</ele>
        <time>2026-05-22T09:20:46.000Z</time>
      </trkpt>
      <trkpt lat="43.12948" lon="-1.2151">
        <ele>204.576212</ele>
        <time>2026-05-22T09:20:47.000Z</time>
      </trkpt>
      <trkpt lat="43.12943" lon="-1.21506">
        <ele>204.61578</ele>
        <time>2026-05-22T09:20:48.000Z</time>
      </trkpt>
      <trkpt lat="43.12939" lon="-1.21502">
        <ele>204.65383</ele>
        <time>2026-05-22T09:20:49.000Z</time>
      </trkpt>
      <trkpt lat="43.12935" lon="-1.21497">
        <ele>204.691727</ele>
        <time>2026-05-22T09:20:50.000Z</time>
      </trkpt>
      <trkpt lat="43.12931" lon="-1.21492">
        <ele>204.730331</ele>
        <time>2026-05-22T09:20:51.000Z</time>
      </trkpt>
      <trkpt lat="43.12927" lon="-1.21488">
        <ele>204.768936</ele>
        <time>2026-05-22T09:20:52.000Z</time>
      </trkpt>
      <trkpt lat="43.12924" lon="-1.21483">
        <ele>204.805156</ele>
        <time>2026-05-22T09:20:53.000Z</time>
      </trkpt>
      <trkpt lat="43.1292" lon="-1.21479">
        <ele>204.843625</ele>
        <time>2026-05-22T09:20:54.000Z</time>
      </trkpt>
      <trkpt lat="43.12916" lon="-1.21474">
        <ele>204.883931</ele>
        <time>2026-05-22T09:20:55.000Z</time>
      </trkpt>
      <trkpt lat="43.12911" lon="-1.2147">
        <ele>204.921949</ele>
        <time>2026-05-22T09:20:56.000Z</time>
      </trkpt>
      <trkpt lat="43.12907" lon="-1.21467">
        <ele>204.958582</ele>
        <time>2026-05-22T09:20:57.000Z</time>
      </trkpt>
      <trkpt lat="43.12903" lon="-1.21464">
        <ele>204.892238</ele>
        <time>2026-05-22T09:20:58.000Z</time>
      </trkpt>
      <trkpt lat="43.12899" lon="-1.21462">
        <ele>204.784519</ele>
        <time>2026-05-22T09:20:59.000Z</time>
      </trkpt>
      <trkpt lat="43.12894" lon="-1.2146">
        <ele>204.67804</ele>
        <time>2026-05-22T09:21:00.000Z</time>
      </trkpt>
      <trkpt lat="43.12891" lon="-1.21458">
        <ele>204.580456</ele>
        <time>2026-05-22T09:21:01.000Z</time>
      </trkpt>
      <trkpt lat="43.12887" lon="-1.21456">
        <ele>204.494092</ele>
        <time>2026-05-22T09:21:02.000Z</time>
      </trkpt>
      <trkpt lat="43.12883" lon="-1.21456">
        <ele>204.405138</ele>
        <time>2026-05-22T09:21:03.000Z</time>
      </trkpt>
      <trkpt lat="43.1288" lon="-1.21455">
        <ele>204.320327</ele>
        <time>2026-05-22T09:21:04.000Z</time>
      </trkpt>
      <trkpt lat="43.12876" lon="-1.21454">
        <ele>204.237856</ele>
        <time>2026-05-22T09:21:05.000Z</time>
      </trkpt>
      <trkpt lat="43.12873" lon="-1.21452">
        <ele>204.145961</ele>
        <time>2026-05-22T09:21:06.000Z</time>
      </trkpt>
      <trkpt lat="43.12869" lon="-1.2145">
        <ele>204.043944</ele>
        <time>2026-05-22T09:21:07.000Z</time>
      </trkpt>
      <trkpt lat="43.12865" lon="-1.21449">
        <ele>203.942415</ele>
        <time>2026-05-22T09:21:08.000Z</time>
      </trkpt>
      <trkpt lat="43.1286" lon="-1.21447">
        <ele>203.836298</ele>
        <time>2026-05-22T09:21:09.000Z</time>
      </trkpt>
      <trkpt lat="43.12856" lon="-1.21445">
        <ele>203.720529</ele>
        <time>2026-05-22T09:21:10.000Z</time>
      </trkpt>
      <trkpt lat="43.12851" lon="-1.21443">
        <ele>203.594354</ele>
        <time>2026-05-22T09:21:11.000Z</time>
      </trkpt>
      <trkpt lat="43.12845" lon="-1.2144">
        <ele>203.454236</ele>
        <time>2026-05-22T09:21:12.000Z</time>
      </trkpt>
      <trkpt lat="43.12839" lon="-1.21436">
        <ele>203.300258</ele>
        <time>2026-05-22T09:21:13.000Z</time>
      </trkpt>
      <trkpt lat="43.12833" lon="-1.21433">
        <ele>203.134094</ele>
        <time>2026-05-22T09:21:14.000Z</time>
      </trkpt>
      <trkpt lat="43.12825" lon="-1.21431">
        <ele>202.950265</ele>
        <time>2026-05-22T09:21:15.000Z</time>
      </trkpt>
      <trkpt lat="43.12817" lon="-1.21429">
        <ele>202.750647</ele>
        <time>2026-05-22T09:21:16.000Z</time>
      </trkpt>
      <trkpt lat="43.12808" lon="-1.21428">
        <ele>202.549682</ele>
        <time>2026-05-22T09:21:17.000Z</time>
      </trkpt>
      <trkpt lat="43.128" lon="-1.21427">
        <ele>202.348874</ele>
        <time>2026-05-22T09:21:18.000Z</time>
      </trkpt>
      <trkpt lat="43.12792" lon="-1.21426">
        <ele>202.148451</ele>
        <time>2026-05-22T09:21:19.000Z</time>
      </trkpt>
      <trkpt lat="43.12783" lon="-1.21425">
        <ele>201.941981</ele>
        <time>2026-05-22T09:21:20.000Z</time>
      </trkpt>
      <trkpt lat="43.12774" lon="-1.21424">
        <ele>201.724415</ele>
        <time>2026-05-22T09:21:21.000Z</time>
      </trkpt>
      <trkpt lat="43.12765" lon="-1.21422">
        <ele>201.5184</ele>
        <time>2026-05-22T09:21:22.000Z</time>
      </trkpt>
      <trkpt lat="43.12757" lon="-1.21419">
        <ele>201.316008</ele>
        <time>2026-05-22T09:21:23.000Z</time>
      </trkpt>
      <trkpt lat="43.12749" lon="-1.21416">
        <ele>201.123974</ele>
        <time>2026-05-22T09:21:24.000Z</time>
      </trkpt>
      <trkpt lat="43.12742" lon="-1.21413">
        <ele>200.938379</ele>
        <time>2026-05-22T09:21:25.000Z</time>
      </trkpt>
      <trkpt lat="43.12734" lon="-1.2141">
        <ele>200.754589</ele>
        <time>2026-05-22T09:21:26.000Z</time>
      </trkpt>
      <trkpt lat="43.12728" lon="-1.21407">
        <ele>200.72778</ele>
        <time>2026-05-22T09:21:27.000Z</time>
      </trkpt>
      <trkpt lat="43.12721" lon="-1.21403">
        <ele>200.79726</ele>
        <time>2026-05-22T09:21:28.000Z</time>
      </trkpt>
      <trkpt lat="43.12714" lon="-1.214">
        <ele>200.864745</ele>
        <time>2026-05-22T09:21:29.000Z</time>
      </trkpt>
      <trkpt lat="43.12708" lon="-1.21395">
        <ele>200.930146</ele>
        <time>2026-05-22T09:21:30.000Z</time>
      </trkpt>
      <trkpt lat="43.12701" lon="-1.21391">
        <ele>200.995843</ele>
        <time>2026-05-22T09:21:31.000Z</time>
      </trkpt>
      <trkpt lat="43.12695" lon="-1.21387">
        <ele>201.063298</ele>
        <time>2026-05-22T09:21:32.000Z</time>
      </trkpt>
      <trkpt lat="43.12689" lon="-1.21382">
        <ele>201.127921</ele>
        <time>2026-05-22T09:21:33.000Z</time>
      </trkpt>
      <trkpt lat="43.12684" lon="-1.21376">
        <ele>201.191743</ele>
        <time>2026-05-22T09:21:34.000Z</time>
      </trkpt>
      <trkpt lat="43.12678" lon="-1.21371">
        <ele>201.255592</ele>
        <time>2026-05-22T09:21:35.000Z</time>
      </trkpt>
      <trkpt lat="43.12673" lon="-1.21366">
        <ele>201.317119</ele>
        <time>2026-05-22T09:21:36.000Z</time>
      </trkpt>
      <trkpt lat="43.12668" lon="-1.2136">
        <ele>201.377085</ele>
        <time>2026-05-22T09:21:37.000Z</time>
      </trkpt>
      <trkpt lat="43.12662" lon="-1.21356">
        <ele>201.437508</ele>
        <time>2026-05-22T09:21:38.000Z</time>
      </trkpt>
      <trkpt lat="43.12657" lon="-1.21352">
        <ele>201.496107</ele>
        <time>2026-05-22T09:21:39.000Z</time>
      </trkpt>
      <trkpt lat="43.12651" lon="-1.21349">
        <ele>201.552743</ele>
        <time>2026-05-22T09:21:40.000Z</time>
      </trkpt>
      <trkpt lat="43.12645" lon="-1.21346">
        <ele>201.607972</ele>
        <time>2026-05-22T09:21:41.000Z</time>
      </trkpt>
      <trkpt lat="43.1264" lon="-1.21345">
        <ele>201.66207</ele>
        <time>2026-05-22T09:21:42.000Z</time>
      </trkpt>
      <trkpt lat="43.12634" lon="-1.21343">
        <ele>201.716496</ele>
        <time>2026-05-22T09:21:43.000Z</time>
      </trkpt>
      <trkpt lat="43.12628" lon="-1.21342">
        <ele>201.770573</ele>
        <time>2026-05-22T09:21:44.000Z</time>
      </trkpt>
      <trkpt lat="43.12623" lon="-1.21341">
        <ele>201.82337</ele>
        <time>2026-05-22T09:21:45.000Z</time>
      </trkpt>
      <trkpt lat="43.12617" lon="-1.21341">
        <ele>201.87408</ele>
        <time>2026-05-22T09:21:46.000Z</time>
      </trkpt>
      <trkpt lat="43.12612" lon="-1.2134">
        <ele>201.924832</ele>
        <time>2026-05-22T09:21:47.000Z</time>
      </trkpt>
      <trkpt lat="43.12606" lon="-1.21339">
        <ele>201.976628</ele>
        <time>2026-05-22T09:21:48.000Z</time>
      </trkpt>
      <trkpt lat="43.12601" lon="-1.21339">
        <ele>202.02469</ele>
        <time>2026-05-22T09:21:49.000Z</time>
      </trkpt>
      <trkpt lat="43.12596" lon="-1.21339">
        <ele>202.073451</ele>
        <time>2026-05-22T09:21:50.000Z</time>
      </trkpt>
      <trkpt lat="43.12591" lon="-1.21339">
        <ele>202.119404</ele>
        <time>2026-05-22T09:21:51.000Z</time>
      </trkpt>
      <trkpt lat="43.12586" lon="-1.21338">
        <ele>202.165373</ele>
        <time>2026-05-22T09:21:52.000Z</time>
      </trkpt>
      <trkpt lat="43.12582" lon="-1.21338">
        <ele>202.209466</ele>
        <time>2026-05-22T09:21:53.000Z</time>
      </trkpt>
      <trkpt lat="43.12577" lon="-1.21338">
        <ele>202.252796</ele>
        <time>2026-05-22T09:21:54.000Z</time>
      </trkpt>
      <trkpt lat="43.12573" lon="-1.21337">
        <ele>202.295043</ele>
        <time>2026-05-22T09:21:55.000Z</time>
      </trkpt>
      <trkpt lat="43.12568" lon="-1.21337">
        <ele>202.336353</ele>
        <time>2026-05-22T09:21:56.000Z</time>
      </trkpt>
      <trkpt lat="43.12564" lon="-1.21338">
        <ele>202.376875</ele>
        <time>2026-05-22T09:21:57.000Z</time>
      </trkpt>
      <trkpt lat="43.1256" lon="-1.21338">
        <ele>202.413582</ele>
        <time>2026-05-22T09:21:58.000Z</time>
      </trkpt>
      <trkpt lat="43.12556" lon="-1.21337">
        <ele>202.451491</ele>
        <time>2026-05-22T09:21:59.000Z</time>
      </trkpt>
      <trkpt lat="43.12552" lon="-1.21337">
        <ele>202.488247</ele>
        <time>2026-05-22T09:22:00.000Z</time>
      </trkpt>
      <trkpt lat="43.12548" lon="-1.21337">
        <ele>202.521447</ele>
        <time>2026-05-22T09:22:01.000Z</time>
      </trkpt>
      <trkpt lat="43.12544" lon="-1.21337">
        <ele>202.556338</ele>
        <time>2026-05-22T09:22:02.000Z</time>
      </trkpt>
      <trkpt lat="43.1254" lon="-1.21337">
        <ele>202.593045</ele>
        <time>2026-05-22T09:22:03.000Z</time>
      </trkpt>
      <trkpt lat="43.12536" lon="-1.21337">
        <ele>202.636422</ele>
        <time>2026-05-22T09:22:04.000Z</time>
      </trkpt>
      <trkpt lat="43.12531" lon="-1.21338">
        <ele>202.675927</ele>
        <time>2026-05-22T09:22:05.000Z</time>
      </trkpt>
      <trkpt lat="43.12527" lon="-1.21338">
        <ele>202.716569</ele>
        <time>2026-05-22T09:22:06.000Z</time>
      </trkpt>
      <trkpt lat="43.12522" lon="-1.21339">
        <ele>202.759302</ele>
        <time>2026-05-22T09:22:07.000Z</time>
      </trkpt>
      <trkpt lat="43.12518" lon="-1.2134">
        <ele>202.799213</ele>
        <time>2026-05-22T09:22:08.000Z</time>
      </trkpt>
      <trkpt lat="43.12514" lon="-1.21341">
        <ele>202.840136</ele>
        <time>2026-05-22T09:22:09.000Z</time>
      </trkpt>
      <trkpt lat="43.12509" lon="-1.21343">
        <ele>202.884623</ele>
        <time>2026-05-22T09:22:10.000Z</time>
      </trkpt>
      <trkpt lat="43.12505" lon="-1.21345">
        <ele>202.925786</ele>
        <time>2026-05-22T09:22:11.000Z</time>
      </trkpt>
      <trkpt lat="43.125" lon="-1.21346">
        <ele>202.965609</ele>
        <time>2026-05-22T09:22:12.000Z</time>
      </trkpt>
      <trkpt lat="43.12497" lon="-1.21347">
        <ele>203.001545</ele>
        <time>2026-05-22T09:22:13.000Z</time>
      </trkpt>
      <trkpt lat="43.12493" lon="-1.21349">
        <ele>203.038222</ele>
        <time>2026-05-22T09:22:14.000Z</time>
      </trkpt>
      <trkpt lat="43.12489" lon="-1.21352">
        <ele>203.075878</ele>
        <time>2026-05-22T09:22:15.000Z</time>
      </trkpt>
      <trkpt lat="43.12486" lon="-1.21355">
        <ele>203.11466</ele>
        <time>2026-05-22T09:22:16.000Z</time>
      </trkpt>
      <trkpt lat="43.12482" lon="-1.21357">
        <ele>203.153123</ele>
        <time>2026-05-22T09:22:17.000Z</time>
      </trkpt>
      <trkpt lat="43.12478" lon="-1.2136">
        <ele>203.194048</ele>
        <time>2026-05-22T09:22:18.000Z</time>
      </trkpt>
      <trkpt lat="43.12474" lon="-1.21364">
        <ele>203.234924</ele>
        <time>2026-05-22T09:22:19.000Z</time>
      </trkpt>
      <trkpt lat="43.12471" lon="-1.21367">
        <ele>203.273545</ele>
        <time>2026-05-22T09:22:20.000Z</time>
      </trkpt>
      <trkpt lat="43.12467" lon="-1.21371">
        <ele>203.313302</ele>
        <time>2026-05-22T09:22:21.000Z</time>
      </trkpt>
      <trkpt lat="43.12464" lon="-1.21374">
        <ele>203.35381</ele>
        <time>2026-05-22T09:22:22.000Z</time>
      </trkpt>
      <trkpt lat="43.1246" lon="-1.21377">
        <ele>203.394523</ele>
        <time>2026-05-22T09:22:23.000Z</time>
      </trkpt>
      <trkpt lat="43.12456" lon="-1.2138">
        <ele>203.437489</ele>
        <time>2026-05-22T09:22:24.000Z</time>
      </trkpt>
      <trkpt lat="43.12452" lon="-1.21383">
        <ele>203.481912</ele>
        <time>2026-05-22T09:22:25.000Z</time>
      </trkpt>
      <trkpt lat="43.12447" lon="-1.21387">
        <ele>203.526005</ele>
        <time>2026-05-22T09:22:26.000Z</time>
      </trkpt>
      <trkpt lat="43.12442" lon="-1.2139">
        <ele>203.575525</ele>
        <time>2026-05-22T09:22:27.000Z</time>
      </trkpt>
      <trkpt lat="43.12437" lon="-1.21393">
        <ele>203.625342</ele>
        <time>2026-05-22T09:22:28.000Z</time>
      </trkpt>
      <trkpt lat="43.12432" lon="-1.21395">
        <ele>203.679593</ele>
        <time>2026-05-22T09:22:29.000Z</time>
      </trkpt>
      <trkpt lat="43.12426" lon="-1.21398">
        <ele>203.736062</ele>
        <time>2026-05-22T09:22:30.000Z</time>
      </trkpt>
      <trkpt lat="43.1242" lon="-1.214">
        <ele>203.795088</ele>
        <time>2026-05-22T09:22:31.000Z</time>
      </trkpt>
      <trkpt lat="43.12414" lon="-1.21404">
        <ele>203.856614</ele>
        <time>2026-05-22T09:22:32.000Z</time>
      </trkpt>
      <trkpt lat="43.12408" lon="-1.21408">
        <ele>203.919252</ele>
        <time>2026-05-22T09:22:33.000Z</time>
      </trkpt>
      <trkpt lat="43.12402" lon="-1.21413">
        <ele>203.980218</ele>
        <time>2026-05-22T09:22:34.000Z</time>
      </trkpt>
      <trkpt lat="43.12396" lon="-1.21418">
        <ele>204.042475</ele>
        <time>2026-05-22T09:22:35.000Z</time>
      </trkpt>
      <trkpt lat="43.12392" lon="-1.21423">
        <ele>204.103136</ele>
        <time>2026-05-22T09:22:36.000Z</time>
      </trkpt>
      <trkpt lat="43.12387" lon="-1.21428">
        <ele>204.162143</ele>
        <time>2026-05-22T09:22:37.000Z</time>
      </trkpt>
      <trkpt lat="43.12382" lon="-1.21433">
        <ele>204.220802</ele>
        <time>2026-05-22T09:22:38.000Z</time>
      </trkpt>
      <trkpt lat="43.12377" lon="-1.21438">
        <ele>204.278962</ele>
        <time>2026-05-22T09:22:39.000Z</time>
      </trkpt>
      <trkpt lat="43.12372" lon="-1.21442">
        <ele>204.335496</ele>
        <time>2026-05-22T09:22:40.000Z</time>
      </trkpt>
      <trkpt lat="43.12368" lon="-1.21446">
        <ele>204.388375</ele>
        <time>2026-05-22T09:22:41.000Z</time>
      </trkpt>
      <trkpt lat="43.12364" lon="-1.2145">
        <ele>204.439648</ele>
        <time>2026-05-22T09:22:42.000Z</time>
      </trkpt>
      <trkpt lat="43.12359" lon="-1.21453">
        <ele>204.488485</ele>
        <time>2026-05-22T09:22:43.000Z</time>
      </trkpt>
      <trkpt lat="43.12355" lon="-1.21457">
        <ele>204.536214</ele>
        <time>2026-05-22T09:22:44.000Z</time>
      </trkpt>
      <trkpt lat="43.12351" lon="-1.2146">
        <ele>204.582729</ele>
        <time>2026-05-22T09:22:45.000Z</time>
      </trkpt>
      <trkpt lat="43.12347" lon="-1.21464">
        <ele>204.632405</ele>
        <time>2026-05-22T09:22:46.000Z</time>
      </trkpt>
      <trkpt lat="43.12342" lon="-1.21467">
        <ele>204.68246</ele>
        <time>2026-05-22T09:22:47.000Z</time>
      </trkpt>
      <trkpt lat="43.12338" lon="-1.21471">
        <ele>204.733298</ele>
        <time>2026-05-22T09:22:48.000Z</time>
      </trkpt>
      <trkpt lat="43.12334" lon="-1.21476">
        <ele>204.786637</ele>
        <time>2026-05-22T09:22:49.000Z</time>
      </trkpt>
      <trkpt lat="43.1233" lon="-1.21481">
        <ele>204.840863</ele>
        <time>2026-05-22T09:22:50.000Z</time>
      </trkpt>
      <trkpt lat="43.12325" lon="-1.21485">
        <ele>204.893423</ele>
        <time>2026-05-22T09:22:51.000Z</time>
      </trkpt>
      <trkpt lat="43.12321" lon="-1.21489">
        <ele>204.946329</ele>
        <time>2026-05-22T09:22:52.000Z</time>
      </trkpt>
      <trkpt lat="43.12317" lon="-1.21494">
        <ele>204.997972</ele>
        <time>2026-05-22T09:22:53.000Z</time>
      </trkpt>
      <trkpt lat="43.12312" lon="-1.21497">
        <ele>205.048865</ele>
        <time>2026-05-22T09:22:54.000Z</time>
      </trkpt>
      <trkpt lat="43.12308" lon="-1.21501">
        <ele>205.099875</ele>
        <time>2026-05-22T09:22:55.000Z</time>
      </trkpt>
      <trkpt lat="43.12303" lon="-1.21504">
        <ele>205.151303</ele>
        <time>2026-05-22T09:22:56.000Z</time>
      </trkpt>
      <trkpt lat="43.12298" lon="-1.21506">
        <ele>205.202454</ele>
        <time>2026-05-22T09:22:57.000Z</time>
      </trkpt>
      <trkpt lat="43.12294" lon="-1.21509">
        <ele>205.254168</ele>
        <time>2026-05-22T09:22:58.000Z</time>
      </trkpt>
      <trkpt lat="43.12288" lon="-1.21512">
        <ele>205.308493</ele>
        <time>2026-05-22T09:22:59.000Z</time>
      </trkpt>
      <trkpt lat="43.12283" lon="-1.21514">
        <ele>205.362142</ele>
        <time>2026-05-22T09:23:00.000Z</time>
      </trkpt>
      <trkpt lat="43.12278" lon="-1.21516">
        <ele>205.415385</ele>
        <time>2026-05-22T09:23:01.000Z</time>
      </trkpt>
      <trkpt lat="43.12273" lon="-1.21518">
        <ele>205.466938</ele>
        <time>2026-05-22T09:23:02.000Z</time>
      </trkpt>
      <trkpt lat="43.12268" lon="-1.2152">
        <ele>205.516191</ele>
        <time>2026-05-22T09:23:03.000Z</time>
      </trkpt>
      <trkpt lat="43.12263" lon="-1.21522">
        <ele>205.568107</ele>
        <time>2026-05-22T09:23:04.000Z</time>
      </trkpt>
      <trkpt lat="43.12258" lon="-1.21523">
        <ele>205.620024</ele>
        <time>2026-05-22T09:23:05.000Z</time>
      </trkpt>
      <trkpt lat="43.12253" lon="-1.21525">
        <ele>205.669366</ele>
        <time>2026-05-22T09:23:06.000Z</time>
      </trkpt>
      <trkpt lat="43.12248" lon="-1.21526">
        <ele>205.7176</ele>
        <time>2026-05-22T09:23:07.000Z</time>
      </trkpt>
      <trkpt lat="43.12243" lon="-1.21527">
        <ele>205.766547</ele>
        <time>2026-05-22T09:23:08.000Z</time>
      </trkpt>
      <trkpt lat="43.12238" lon="-1.21528">
        <ele>205.829407</ele>
        <time>2026-05-22T09:23:09.000Z</time>
      </trkpt>
      <trkpt lat="43.12234" lon="-1.21529">
        <ele>205.914581</ele>
        <time>2026-05-22T09:23:10.000Z</time>
      </trkpt>
      <trkpt lat="43.12229" lon="-1.21529">
        <ele>206.001401</ele>
        <time>2026-05-22T09:23:11.000Z</time>
      </trkpt>
      <trkpt lat="43.12224" lon="-1.2153">
        <ele>206.084952</ele>
        <time>2026-05-22T09:23:12.000Z</time>
      </trkpt>
      <trkpt lat="43.12219" lon="-1.2153">
        <ele>206.170352</ele>
        <time>2026-05-22T09:23:13.000Z</time>
      </trkpt>
      <trkpt lat="43.12214" lon="-1.21531">
        <ele>206.254171</ele>
        <time>2026-05-22T09:23:14.000Z</time>
      </trkpt>
      <trkpt lat="43.12209" lon="-1.21532">
        <ele>206.336823</ele>
        <time>2026-05-22T09:23:15.000Z</time>
      </trkpt>
      <trkpt lat="43.12205" lon="-1.21533">
        <ele>206.416543</ele>
        <time>2026-05-22T09:23:16.000Z</time>
      </trkpt>
      <trkpt lat="43.12201" lon="-1.21535">
        <ele>206.493157</ele>
        <time>2026-05-22T09:23:17.000Z</time>
      </trkpt>
      <trkpt lat="43.12196" lon="-1.21536">
        <ele>206.570074</ele>
        <time>2026-05-22T09:23:18.000Z</time>
      </trkpt>
      <trkpt lat="43.12192" lon="-1.21538">
        <ele>206.649794</ele>
        <time>2026-05-22T09:23:19.000Z</time>
      </trkpt>
      <trkpt lat="43.12187" lon="-1.21539">
        <ele>206.725863</ele>
        <time>2026-05-22T09:23:20.000Z</time>
      </trkpt>
      <trkpt lat="43.12183" lon="-1.2154">
        <ele>206.805101</ele>
        <time>2026-05-22T09:23:21.000Z</time>
      </trkpt>
      <trkpt lat="43.12179" lon="-1.21541">
        <ele>206.881169</ele>
        <time>2026-05-22T09:23:22.000Z</time>
      </trkpt>
      <trkpt lat="43.12175" lon="-1.21542">
        <ele>206.953845</ele>
        <time>2026-05-22T09:23:23.000Z</time>
      </trkpt>
      <trkpt lat="43.1217" lon="-1.21544">
        <ele>207.02976</ele>
        <time>2026-05-22T09:23:24.000Z</time>
      </trkpt>
      <trkpt lat="43.12166" lon="-1.21546">
        <ele>207.105676</ele>
        <time>2026-05-22T09:23:25.000Z</time>
      </trkpt>
      <trkpt lat="43.12162" lon="-1.21547">
        <ele>207.177241</ele>
        <time>2026-05-22T09:23:26.000Z</time>
      </trkpt>
      <trkpt lat="43.12158" lon="-1.21548">
        <ele>207.250191</ele>
        <time>2026-05-22T09:23:27.000Z</time>
      </trkpt>
      <trkpt lat="43.12154" lon="-1.2155">
        <ele>207.324314</ele>
        <time>2026-05-22T09:23:28.000Z</time>
      </trkpt>
      <trkpt lat="43.1215" lon="-1.21551">
        <ele>207.396735</ele>
        <time>2026-05-22T09:23:29.000Z</time>
      </trkpt>
      <trkpt lat="43.12146" lon="-1.21552">
        <ele>207.468624</ele>
        <time>2026-05-22T09:23:30.000Z</time>
      </trkpt>
      <trkpt lat="43.12142" lon="-1.21554">
        <ele>207.543552</ele>
        <time>2026-05-22T09:23:31.000Z</time>
      </trkpt>
      <trkpt lat="43.12137" lon="-1.21555">
        <ele>207.620469</ele>
        <time>2026-05-22T09:23:32.000Z</time>
      </trkpt>
      <trkpt lat="43.12133" lon="-1.21556">
        <ele>207.696296</ele>
        <time>2026-05-22T09:23:33.000Z</time>
      </trkpt>
      <trkpt lat="43.12129" lon="-1.21557">
        <ele>207.769801</ele>
        <time>2026-05-22T09:23:34.000Z</time>
      </trkpt>
      <trkpt lat="43.12124" lon="-1.21558">
        <ele>207.844863</ele>
        <time>2026-05-22T09:23:35.000Z</time>
      </trkpt>
      <trkpt lat="43.1212" lon="-1.21559">
        <ele>207.921981</ele>
        <time>2026-05-22T09:23:36.000Z</time>
      </trkpt>
      <trkpt lat="43.12116" lon="-1.2156">
        <ele>208.001005</ele>
        <time>2026-05-22T09:23:37.000Z</time>
      </trkpt>
      <trkpt lat="43.12111" lon="-1.2156">
        <ele>208.084681</ele>
        <time>2026-05-22T09:23:38.000Z</time>
      </trkpt>
      <trkpt lat="43.12106" lon="-1.21561">
        <ele>208.16631</ele>
        <time>2026-05-22T09:23:39.000Z</time>
      </trkpt>
      <trkpt lat="43.12101" lon="-1.21561">
        <ele>208.247939</ele>
        <time>2026-05-22T09:23:40.000Z</time>
      </trkpt>
      <trkpt lat="43.12097" lon="-1.21562">
        <ele>208.327928</ele>
        <time>2026-05-22T09:23:41.000Z</time>
      </trkpt>
      <trkpt lat="43.12092" lon="-1.21562">
        <ele>208.40988</ele>
        <time>2026-05-22T09:23:42.000Z</time>
      </trkpt>
      <trkpt lat="43.12087" lon="-1.21563">
        <ele>208.49151</ele>
        <time>2026-05-22T09:23:43.000Z</time>
      </trkpt>
      <trkpt lat="43.12083" lon="-1.21563">
        <ele>208.572982</ele>
        <time>2026-05-22T09:23:44.000Z</time>
      </trkpt>
      <trkpt lat="43.12078" lon="-1.21563">
        <ele>208.654542</ele>
        <time>2026-05-22T09:23:45.000Z</time>
      </trkpt>
      <trkpt lat="43.12073" lon="-1.21564">
        <ele>208.736367</ele>
        <time>2026-05-22T09:23:46.000Z</time>
      </trkpt>
      <trkpt lat="43.12069" lon="-1.21564">
        <ele>208.818631</ele>
        <time>2026-05-22T09:23:47.000Z</time>
      </trkpt>
      <trkpt lat="43.12064" lon="-1.21565">
        <ele>208.902793</ele>
        <time>2026-05-22T09:23:48.000Z</time>
      </trkpt>
      <trkpt lat="43.12059" lon="-1.21566">
        <ele>209.01795</ele>
        <time>2026-05-22T09:23:49.000Z</time>
      </trkpt>
      <trkpt lat="43.12054" lon="-1.21567">
        <ele>209.138199</ele>
        <time>2026-05-22T09:23:50.000Z</time>
      </trkpt>
      <trkpt lat="43.12049" lon="-1.21569">
        <ele>209.258449</ele>
        <time>2026-05-22T09:23:51.000Z</time>
      </trkpt>
      <trkpt lat="43.12044" lon="-1.2157">
        <ele>209.378996</ele>
        <time>2026-05-22T09:23:52.000Z</time>
      </trkpt>
      <trkpt lat="43.12039" lon="-1.21571">
        <ele>209.498973</ele>
        <time>2026-05-22T09:23:53.000Z</time>
      </trkpt>
      <trkpt lat="43.12034" lon="-1.21572">
        <ele>209.618479</ele>
        <time>2026-05-22T09:23:54.000Z</time>
      </trkpt>
      <trkpt lat="43.12029" lon="-1.21572">
        <ele>209.742797</ele>
        <time>2026-05-22T09:23:55.000Z</time>
      </trkpt>
      <trkpt lat="43.12024" lon="-1.21573">
        <ele>209.864516</ele>
        <time>2026-05-22T09:23:56.000Z</time>
      </trkpt>
      <trkpt lat="43.1202" lon="-1.21574">
        <ele>209.977048</ele>
        <time>2026-05-22T09:23:57.000Z</time>
      </trkpt>
      <trkpt lat="43.12015" lon="-1.21575">
        <ele>210.092235</ele>
        <time>2026-05-22T09:23:58.000Z</time>
      </trkpt>
      <trkpt lat="43.1201" lon="-1.21576">
        <ele>210.205321</ele>
        <time>2026-05-22T09:23:59.000Z</time>
      </trkpt>
      <trkpt lat="43.12006" lon="-1.21577">
        <ele>210.317853</ele>
        <time>2026-05-22T09:24:00.000Z</time>
      </trkpt>
      <trkpt lat="43.12001" lon="-1.21578">
        <ele>210.422722</ele>
        <time>2026-05-22T09:24:01.000Z</time>
      </trkpt>
      <trkpt lat="43.11997" lon="-1.21579">
        <ele>210.525673</ele>
        <time>2026-05-22T09:24:02.000Z</time>
      </trkpt>
      <trkpt lat="43.11993" lon="-1.2158">
        <ele>210.626527</ele>
        <time>2026-05-22T09:24:03.000Z</time>
      </trkpt>
      <trkpt lat="43.11989" lon="-1.21581">
        <ele>210.730083</ele>
        <time>2026-05-22T09:24:04.000Z</time>
      </trkpt>
      <trkpt lat="43.11985" lon="-1.21582">
        <ele>210.838098</ele>
        <time>2026-05-22T09:24:05.000Z</time>
      </trkpt>
      <trkpt lat="43.1198" lon="-1.21582">
        <ele>210.940791</ele>
        <time>2026-05-22T09:24:06.000Z</time>
      </trkpt>
      <trkpt lat="43.11976" lon="-1.21583">
        <ele>211.043255</ele>
        <time>2026-05-22T09:24:07.000Z</time>
      </trkpt>
      <trkpt lat="43.11972" lon="-1.21584">
        <ele>211.14355</ele>
        <time>2026-05-22T09:24:08.000Z</time>
      </trkpt>
      <trkpt lat="43.11968" lon="-1.21585">
        <ele>211.248225</ele>
        <time>2026-05-22T09:24:09.000Z</time>
      </trkpt>
      <trkpt lat="43.11964" lon="-1.21585">
        <ele>211.350917</ele>
        <time>2026-05-22T09:24:10.000Z</time>
      </trkpt>
      <trkpt lat="43.11959" lon="-1.21586">
        <ele>211.451477</ele>
        <time>2026-05-22T09:24:11.000Z</time>
      </trkpt>
      <trkpt lat="43.11955" lon="-1.21587">
        <ele>211.549645</ele>
        <time>2026-05-22T09:24:12.000Z</time>
      </trkpt>
      <trkpt lat="43.11951" lon="-1.21588">
        <ele>211.647095</ele>
        <time>2026-05-22T09:24:13.000Z</time>
      </trkpt>
      <trkpt lat="43.11947" lon="-1.21588">
        <ele>211.746529</ele>
        <time>2026-05-22T09:24:14.000Z</time>
      </trkpt>
      <trkpt lat="43.11943" lon="-1.21588">
        <ele>211.843416</ele>
        <time>2026-05-22T09:24:15.000Z</time>
      </trkpt>
      <trkpt lat="43.11939" lon="-1.21588">
        <ele>211.942725</ele>
        <time>2026-05-22T09:24:16.000Z</time>
      </trkpt>
      <trkpt lat="43.11935" lon="-1.21588">
        <ele>212.039596</ele>
        <time>2026-05-22T09:24:17.000Z</time>
      </trkpt>
      <trkpt lat="43.11931" lon="-1.21588">
        <ele>212.136483</ele>
        <time>2026-05-22T09:24:18.000Z</time>
      </trkpt>
      <trkpt lat="43.11927" lon="-1.21588">
        <ele>212.230998</ele>
        <time>2026-05-22T09:24:19.000Z</time>
      </trkpt>
      <trkpt lat="43.11923" lon="-1.21588">
        <ele>212.325513</ele>
        <time>2026-05-22T09:24:20.000Z</time>
      </trkpt>
      <trkpt lat="43.1192" lon="-1.21587">
        <ele>212.417964</ele>
        <time>2026-05-22T09:24:21.000Z</time>
      </trkpt>
      <trkpt lat="43.11916" lon="-1.21586">
        <ele>212.508679</ele>
        <time>2026-05-22T09:24:22.000Z</time>
      </trkpt>
      <trkpt lat="43.11912" lon="-1.21586">
        <ele>212.599393</ele>
        <time>2026-05-22T09:24:23.000Z</time>
      </trkpt>
      <trkpt lat="43.11909" lon="-1.21585">
        <ele>212.685054</ele>
        <time>2026-05-22T09:24:24.000Z</time>
      </trkpt>
      <trkpt lat="43.11905" lon="-1.21584">
        <ele>212.770275</ele>
        <time>2026-05-22T09:24:25.000Z</time>
      </trkpt>
      <trkpt lat="43.11902" lon="-1.21584">
        <ele>212.853089</ele>
        <time>2026-05-22T09:24:26.000Z</time>
      </trkpt>
      <trkpt lat="43.11898" lon="-1.21583">
        <ele>212.939022</ele>
        <time>2026-05-22T09:24:27.000Z</time>
      </trkpt>
      <trkpt lat="43.11895" lon="-1.21582">
        <ele>213.024956</ele>
        <time>2026-05-22T09:24:28.000Z</time>
      </trkpt>
      <trkpt lat="43.11891" lon="-1.21582">
        <ele>213.113279</ele>
        <time>2026-05-22T09:24:29.000Z</time>
      </trkpt>
      <trkpt lat="43.11888" lon="-1.21581">
        <ele>213.193685</ele>
        <time>2026-05-22T09:24:30.000Z</time>
      </trkpt>
      <trkpt lat="43.11885" lon="-1.2158">
        <ele>213.269436</ele>
        <time>2026-05-22T09:24:31.000Z</time>
      </trkpt>
      <trkpt lat="43.11881" lon="-1.21579">
        <ele>213.236984</ele>
        <time>2026-05-22T09:24:32.000Z</time>
      </trkpt>
      <trkpt lat="43.11878" lon="-1.21578">
        <ele>213.205329</ele>
        <time>2026-05-22T09:24:33.000Z</time>
      </trkpt>
      <trkpt lat="43.11875" lon="-1.21577">
        <ele>213.171796</ele>
        <time>2026-05-22T09:24:34.000Z</time>
      </trkpt>
      <trkpt lat="43.11871" lon="-1.21576">
        <ele>213.136822</ele>
        <time>2026-05-22T09:24:35.000Z</time>
      </trkpt>
      <trkpt lat="43.11868" lon="-1.21574">
        <ele>213.102777</ele>
        <time>2026-05-22T09:24:36.000Z</time>
      </trkpt>
      <trkpt lat="43.11865" lon="-1.21573">
        <ele>213.069661</ele>
        <time>2026-05-22T09:24:37.000Z</time>
      </trkpt>
      <trkpt lat="43.11862" lon="-1.21572">
        <ele>213.037663</ele>
        <time>2026-05-22T09:24:38.000Z</time>
      </trkpt>
      <trkpt lat="43.11858" lon="-1.21571">
        <ele>213.005067</ele>
        <time>2026-05-22T09:24:39.000Z</time>
      </trkpt>
      <trkpt lat="43.11855" lon="-1.21569">
        <ele>212.968974</ele>
        <time>2026-05-22T09:24:40.000Z</time>
      </trkpt>
      <trkpt lat="43.11851" lon="-1.21568">
        <ele>212.935112</ele>
        <time>2026-05-22T09:24:41.000Z</time>
      </trkpt>
      <trkpt lat="43.11848" lon="-1.21567">
        <ele>212.902516</ele>
        <time>2026-05-22T09:24:42.000Z</time>
      </trkpt>
      <trkpt lat="43.11845" lon="-1.21566">
        <ele>212.8718</ele>
        <time>2026-05-22T09:24:43.000Z</time>
      </trkpt>
      <trkpt lat="43.11842" lon="-1.21565">
        <ele>212.843053</ele>
        <time>2026-05-22T09:24:44.000Z</time>
      </trkpt>
      <trkpt lat="43.11839" lon="-1.21563">
        <ele>212.811742</ele>
        <time>2026-05-22T09:24:45.000Z</time>
      </trkpt>
      <trkpt lat="43.11836" lon="-1.21562">
        <ele>212.782483</ele>
        <time>2026-05-22T09:24:46.000Z</time>
      </trkpt>
      <trkpt lat="43.11833" lon="-1.2156">
        <ele>212.752061</ele>
        <time>2026-05-22T09:24:47.000Z</time>
      </trkpt>
      <trkpt lat="43.1183" lon="-1.21558">
        <ele>212.721355</ele>
        <time>2026-05-22T09:24:48.000Z</time>
      </trkpt>
      <trkpt lat="43.11827" lon="-1.21556">
        <ele>212.688537</ele>
        <time>2026-05-22T09:24:49.000Z</time>
      </trkpt>
      <trkpt lat="43.11824" lon="-1.21553">
        <ele>212.64961</ele>
        <time>2026-05-22T09:24:50.000Z</time>
      </trkpt>
      <trkpt lat="43.1182" lon="-1.2155">
        <ele>212.606955</ele>
        <time>2026-05-22T09:24:51.000Z</time>
      </trkpt>
      <trkpt lat="43.11816" lon="-1.21547">
        <ele>212.557885</ele>
        <time>2026-05-22T09:24:52.000Z</time>
      </trkpt>
      <trkpt lat="43.11811" lon="-1.21543">
        <ele>212.502139</ele>
        <time>2026-05-22T09:24:53.000Z</time>
      </trkpt>
      <trkpt lat="43.11806" lon="-1.21538">
        <ele>212.444052</ele>
        <time>2026-05-22T09:24:54.000Z</time>
      </trkpt>
      <trkpt lat="43.118" lon="-1.21533">
        <ele>212.379601</ele>
        <time>2026-05-22T09:24:55.000Z</time>
      </trkpt>
      <trkpt lat="43.11794" lon="-1.21527">
        <ele>212.311569</ele>
        <time>2026-05-22T09:24:56.000Z</time>
      </trkpt>
      <trkpt lat="43.11788" lon="-1.21522">
        <ele>212.239556</ele>
        <time>2026-05-22T09:24:57.000Z</time>
      </trkpt>
      <trkpt lat="43.11782" lon="-1.21515">
        <ele>212.163568</ele>
        <time>2026-05-22T09:24:58.000Z</time>
      </trkpt>
      <trkpt lat="43.11775" lon="-1.21509">
        <ele>212.084793</ele>
        <time>2026-05-22T09:24:59.000Z</time>
      </trkpt>
      <trkpt lat="43.11768" lon="-1.21502">
        <ele>212.005146</ele>
        <time>2026-05-22T09:25:00.000Z</time>
      </trkpt>
      <trkpt lat="43.11762" lon="-1.21495">
        <ele>211.922687</ele>
        <time>2026-05-22T09:25:01.000Z</time>
      </trkpt>
      <trkpt lat="43.11755" lon="-1.21488">
        <ele>211.840877</ele>
        <time>2026-05-22T09:25:02.000Z</time>
      </trkpt>
      <trkpt lat="43.11749" lon="-1.2148">
        <ele>211.758979</ele>
        <time>2026-05-22T09:25:03.000Z</time>
      </trkpt>
      <trkpt lat="43.11743" lon="-1.21472">
        <ele>211.678917</ele>
        <time>2026-05-22T09:25:04.000Z</time>
      </trkpt>
      <trkpt lat="43.11737" lon="-1.21464">
        <ele>211.60206</ele>
        <time>2026-05-22T09:25:05.000Z</time>
      </trkpt>
      <trkpt lat="43.11732" lon="-1.21456">
        <ele>211.554736</ele>
        <time>2026-05-22T09:25:06.000Z</time>
      </trkpt>
      <trkpt lat="43.11728" lon="-1.21448">
        <ele>211.754071</ele>
        <time>2026-05-22T09:25:07.000Z</time>
      </trkpt>
      <trkpt lat="43.11724" lon="-1.21439">
        <ele>211.951053</ele>
        <time>2026-05-22T09:25:08.000Z</time>
      </trkpt>
      <trkpt lat="43.11721" lon="-1.2143">
        <ele>212.145</ele>
        <time>2026-05-22T09:25:09.000Z</time>
      </trkpt>
      <trkpt lat="43.11718" lon="-1.21421">
        <ele>212.329449</ele>
        <time>2026-05-22T09:25:10.000Z</time>
      </trkpt>
      <trkpt lat="43.11716" lon="-1.21413">
        <ele>212.508336</ele>
        <time>2026-05-22T09:25:11.000Z</time>
      </trkpt>
      <trkpt lat="43.11714" lon="-1.21405">
        <ele>212.674935</ele>
        <time>2026-05-22T09:25:12.000Z</time>
      </trkpt>
      <trkpt lat="43.11711" lon="-1.21398">
        <ele>212.829629</ele>
        <time>2026-05-22T09:25:13.000Z</time>
      </trkpt>
      <trkpt lat="43.11708" lon="-1.21392">
        <ele>212.974151</ele>
        <time>2026-05-22T09:25:14.000Z</time>
      </trkpt>
      <trkpt lat="43.11705" lon="-1.21386">
        <ele>213.105997</ele>
        <time>2026-05-22T09:25:15.000Z</time>
      </trkpt>
      <trkpt lat="43.11702" lon="-1.21382">
        <ele>213.225846</ele>
        <time>2026-05-22T09:25:16.000Z</time>
      </trkpt>
      <trkpt lat="43.11699" lon="-1.21378">
        <ele>213.340016</ele>
        <time>2026-05-22T09:25:17.000Z</time>
      </trkpt>
      <trkpt lat="43.11696" lon="-1.21373">
        <ele>213.449102</ele>
        <time>2026-05-22T09:25:18.000Z</time>
      </trkpt>
      <trkpt lat="43.11693" lon="-1.21369">
        <ele>213.558188</ele>
        <time>2026-05-22T09:25:19.000Z</time>
      </trkpt>
      <trkpt lat="43.1169" lon="-1.21366">
        <ele>213.661219</ele>
        <time>2026-05-22T09:25:20.000Z</time>
      </trkpt>
      <trkpt lat="43.11688" lon="-1.21362">
        <ele>213.75776</ele>
        <time>2026-05-22T09:25:21.000Z</time>
      </trkpt>
      <trkpt lat="43.11685" lon="-1.21359">
        <ele>213.854068</ele>
        <time>2026-05-22T09:25:22.000Z</time>
      </trkpt>
      <trkpt lat="43.11682" lon="-1.21356">
        <ele>213.951796</ele>
        <time>2026-05-22T09:25:23.000Z</time>
      </trkpt>
      <trkpt lat="43.11679" lon="-1.21353">
        <ele>214.050823</ele>
        <time>2026-05-22T09:25:24.000Z</time>
      </trkpt>
      <trkpt lat="43.11676" lon="-1.21351">
        <ele>214.149371</ele>
        <time>2026-05-22T09:25:25.000Z</time>
      </trkpt>
      <trkpt lat="43.11672" lon="-1.21349">
        <ele>214.243912</ele>
        <time>2026-05-22T09:25:26.000Z</time>
      </trkpt>
      <trkpt lat="43.11669" lon="-1.21348">
        <ele>214.332752</ele>
        <time>2026-05-22T09:25:27.000Z</time>
      </trkpt>
      <trkpt lat="43.11666" lon="-1.21346">
        <ele>214.424702</ele>
        <time>2026-05-22T09:25:28.000Z</time>
      </trkpt>
      <trkpt lat="43.11663" lon="-1.21345">
        <ele>214.518153</ele>
        <time>2026-05-22T09:25:29.000Z</time>
      </trkpt>
      <trkpt lat="43.11659" lon="-1.21344">
        <ele>214.610103</ele>
        <time>2026-05-22T09:25:30.000Z</time>
      </trkpt>
      <trkpt lat="43.11656" lon="-1.21343">
        <ele>214.703555</ele>
        <time>2026-05-22T09:25:31.000Z</time>
      </trkpt>
      <trkpt lat="43.11653" lon="-1.21342">
        <ele>214.793113</ele>
        <time>2026-05-22T09:25:32.000Z</time>
      </trkpt>
      <trkpt lat="43.11649" lon="-1.21341">
        <ele>214.891288</ele>
        <time>2026-05-22T09:25:33.000Z</time>
      </trkpt>
      <trkpt lat="43.11645" lon="-1.21339">
        <ele>214.989462</ele>
        <time>2026-05-22T09:25:34.000Z</time>
      </trkpt>
      <trkpt lat="43.11642" lon="-1.21338">
        <ele>215.08504</ele>
        <time>2026-05-22T09:25:35.000Z</time>
      </trkpt>
      <trkpt lat="43.11638" lon="-1.21337">
        <ele>215.178492</ele>
        <time>2026-05-22T09:25:36.000Z</time>
      </trkpt>
      <trkpt lat="43.11635" lon="-1.21336">
        <ele>215.27407</ele>
        <time>2026-05-22T09:25:37.000Z</time>
      </trkpt>
      <trkpt lat="43.11631" lon="-1.21335">
        <ele>215.370101</ele>
        <time>2026-05-22T09:25:38.000Z</time>
      </trkpt>
      <trkpt lat="43.11628" lon="-1.21334">
        <ele>215.466623</ele>
        <time>2026-05-22T09:25:39.000Z</time>
      </trkpt>
      <trkpt lat="43.11624" lon="-1.21332">
        <ele>215.562201</ele>
        <time>2026-05-22T09:25:40.000Z</time>
      </trkpt>
      <trkpt lat="43.11621" lon="-1.21331">
        <ele>215.659811</ele>
        <time>2026-05-22T09:25:41.000Z</time>
      </trkpt>
      <trkpt lat="43.11617" lon="-1.2133">
        <ele>215.758904</ele>
        <time>2026-05-22T09:25:42.000Z</time>
      </trkpt>
      <trkpt lat="43.11614" lon="-1.21329">
        <ele>215.856674</ele>
        <time>2026-05-22T09:25:43.000Z</time>
      </trkpt>
      <trkpt lat="43.1161" lon="-1.21328">
        <ele>215.95112</ele>
        <time>2026-05-22T09:25:44.000Z</time>
      </trkpt>
      <trkpt lat="43.11607" lon="-1.21328">
        <ele>216.04446</ele>
        <time>2026-05-22T09:25:45.000Z</time>
      </trkpt>
      <trkpt lat="43.11603" lon="-1.21327">
        <ele>216.1378</ele>
        <time>2026-05-22T09:25:46.000Z</time>
      </trkpt>
      <trkpt lat="43.11599" lon="-1.21327">
        <ele>216.239111</ele>
        <time>2026-05-22T09:25:47.000Z</time>
      </trkpt>
      <trkpt lat="43.11595" lon="-1.21326">
        <ele>216.348018</ele>
        <time>2026-05-22T09:25:48.000Z</time>
      </trkpt>
      <trkpt lat="43.11591" lon="-1.21326">
        <ele>216.456445</ele>
        <time>2026-05-22T09:25:49.000Z</time>
      </trkpt>
      <trkpt lat="43.11587" lon="-1.21325">
        <ele>216.572717</ele>
        <time>2026-05-22T09:25:50.000Z</time>
      </trkpt>
      <trkpt lat="43.11582" lon="-1.21324">
        <ele>216.698053</ele>
        <time>2026-05-22T09:25:51.000Z</time>
      </trkpt>
      <trkpt lat="43.11577" lon="-1.21322">
        <ele>216.835755</ele>
        <time>2026-05-22T09:25:52.000Z</time>
      </trkpt>
      <trkpt lat="43.11572" lon="-1.21319">
        <ele>216.983346</ele>
        <time>2026-05-22T09:25:53.000Z</time>
      </trkpt>
      <trkpt lat="43.11567" lon="-1.21315">
        <ele>217.129701</ele>
        <time>2026-05-22T09:25:54.000Z</time>
      </trkpt>
      <trkpt lat="43.11561" lon="-1.21311">
        <ele>217.283289</ele>
        <time>2026-05-22T09:25:55.000Z</time>
      </trkpt>
      <trkpt lat="43.11556" lon="-1.21307">
        <ele>217.440977</ele>
        <time>2026-05-22T09:25:56.000Z</time>
      </trkpt>
      <trkpt lat="43.11551" lon="-1.21303">
        <ele>217.596198</ele>
        <time>2026-05-22T09:25:57.000Z</time>
      </trkpt>
      <trkpt lat="43.11546" lon="-1.21298">
        <ele>217.755801</ele>
        <time>2026-05-22T09:25:58.000Z</time>
      </trkpt>
      <trkpt lat="43.1154" lon="-1.21294">
        <ele>217.914439</ele>
        <time>2026-05-22T09:25:59.000Z</time>
      </trkpt>
      <trkpt lat="43.11535" lon="-1.2129">
        <ele>218.070865</ele>
        <time>2026-05-22T09:26:00.000Z</time>
      </trkpt>
      <trkpt lat="43.1153" lon="-1.21285">
        <ele>218.228272</ele>
        <time>2026-05-22T09:26:01.000Z</time>
      </trkpt>
      <trkpt lat="43.11525" lon="-1.21281">
        <ele>218.380313</ele>
        <time>2026-05-22T09:26:02.000Z</time>
      </trkpt>
      <trkpt lat="43.1152" lon="-1.21277">
        <ele>218.530178</ele>
        <time>2026-05-22T09:26:03.000Z</time>
      </trkpt>
      <trkpt lat="43.11515" lon="-1.21272">
        <ele>218.675751</ele>
        <time>2026-05-22T09:26:04.000Z</time>
      </trkpt>
      <trkpt lat="43.11511" lon="-1.21268">
        <ele>218.819172</ele>
        <time>2026-05-22T09:26:05.000Z</time>
      </trkpt>
      <trkpt lat="43.11506" lon="-1.21263">
        <ele>218.960472</ele>
        <time>2026-05-22T09:26:06.000Z</time>
      </trkpt>
      <trkpt lat="43.11502" lon="-1.21259">
        <ele>219.10014</ele>
        <time>2026-05-22T09:26:07.000Z</time>
      </trkpt>
      <trkpt lat="43.11498" lon="-1.21254">
        <ele>219.230739</ele>
        <time>2026-05-22T09:26:08.000Z</time>
      </trkpt>
      <trkpt lat="43.11495" lon="-1.2125">
        <ele>219.357524</ele>
        <time>2026-05-22T09:26:09.000Z</time>
      </trkpt>
      <trkpt lat="43.11491" lon="-1.21245">
        <ele>219.480122</ele>
        <time>2026-05-22T09:26:10.000Z</time>
      </trkpt>
      <trkpt lat="43.11488" lon="-1.2124">
        <ele>219.599207</ele>
        <time>2026-05-22T09:26:11.000Z</time>
      </trkpt>
      <trkpt lat="43.11485" lon="-1.21236">
        <ele>219.707893</ele>
        <time>2026-05-22T09:26:12.000Z</time>
      </trkpt>
      <trkpt lat="43.11483" lon="-1.21232">
        <ele>219.810731</ele>
        <time>2026-05-22T09:26:13.000Z</time>
      </trkpt>
      <trkpt lat="43.1148" lon="-1.21228">
        <ele>219.904143</ele>
        <time>2026-05-22T09:26:14.000Z</time>
      </trkpt>
      <trkpt lat="43.11478" lon="-1.21225">
        <ele>219.989096</ele>
        <time>2026-05-22T09:26:15.000Z</time>
      </trkpt>
      <trkpt lat="43.11476" lon="-1.21222">
        <ele>220.073114</ele>
        <time>2026-05-22T09:26:16.000Z</time>
      </trkpt>
      <trkpt lat="43.11473" lon="-1.21219">
        <ele>220.160259</ele>
        <time>2026-05-22T09:26:17.000Z</time>
      </trkpt>
      <trkpt lat="43.11471" lon="-1.21215">
        <ele>220.246036</ele>
        <time>2026-05-22T09:26:18.000Z</time>
      </trkpt>
      <trkpt lat="43.11469" lon="-1.21212">
        <ele>220.331452</ele>
        <time>2026-05-22T09:26:19.000Z</time>
      </trkpt>
      <trkpt lat="43.11466" lon="-1.21209">
        <ele>220.417228</ele>
        <time>2026-05-22T09:26:20.000Z</time>
      </trkpt>
      <trkpt lat="43.11464" lon="-1.21205">
        <ele>220.506144</ele>
        <time>2026-05-22T09:26:21.000Z</time>
      </trkpt>
      <trkpt lat="43.11462" lon="-1.21202">
        <ele>220.594678</ele>
        <time>2026-05-22T09:26:22.000Z</time>
      </trkpt>
      <trkpt lat="43.1146" lon="-1.21199">
        <ele>220.677318</ele>
        <time>2026-05-22T09:26:23.000Z</time>
      </trkpt>
      <trkpt lat="43.11457" lon="-1.21195">
        <ele>220.764892</ele>
        <time>2026-05-22T09:26:24.000Z</time>
      </trkpt>
      <trkpt lat="43.11455" lon="-1.21192">
        <ele>220.851145</ele>
        <time>2026-05-22T09:26:25.000Z</time>
      </trkpt>
      <trkpt lat="43.11453" lon="-1.21189">
        <ele>220.934875</ele>
        <time>2026-05-22T09:26:26.000Z</time>
      </trkpt>
      <trkpt lat="43.11451" lon="-1.21186">
        <ele>221.040797</ele>
        <time>2026-05-22T09:26:27.000Z</time>
      </trkpt>
      <trkpt lat="43.11449" lon="-1.21183">
        <ele>221.14948</ele>
        <time>2026-05-22T09:26:28.000Z</time>
      </trkpt>
      <trkpt lat="43.11447" lon="-1.21179">
        <ele>221.25357</ele>
        <time>2026-05-22T09:26:29.000Z</time>
      </trkpt>
      <trkpt lat="43.11446" lon="-1.21176">
        <ele>221.35121</ele>
        <time>2026-05-22T09:26:30.000Z</time>
      </trkpt>
      <trkpt lat="43.11445" lon="-1.21173">
        <ele>221.447678</ele>
        <time>2026-05-22T09:26:31.000Z</time>
      </trkpt>
      <trkpt lat="43.11444" lon="-1.2117">
        <ele>221.539143</ele>
        <time>2026-05-22T09:26:32.000Z</time>
      </trkpt>
      <trkpt lat="43.11443" lon="-1.21167">
        <ele>221.631166</ele>
        <time>2026-05-22T09:26:33.000Z</time>
      </trkpt>
      <trkpt lat="43.11442" lon="-1.21164">
        <ele>221.737665</ele>
        <time>2026-05-22T09:26:34.000Z</time>
      </trkpt>
      <trkpt lat="43.11441" lon="-1.2116">
        <ele>221.851042</ele>
        <time>2026-05-22T09:26:35.000Z</time>
      </trkpt>
      <trkpt lat="43.11441" lon="-1.21156">
        <ele>221.957119</ele>
        <time>2026-05-22T09:26:36.000Z</time>
      </trkpt>
      <trkpt lat="43.1144" lon="-1.21152">
        <ele>222.064093</ele>
        <time>2026-05-22T09:26:37.000Z</time>
      </trkpt>
      <trkpt lat="43.11439" lon="-1.21149">
        <ele>222.160271</ele>
        <time>2026-05-22T09:26:38.000Z</time>
      </trkpt>
      <trkpt lat="43.11438" lon="-1.21146">
        <ele>222.258864</ele>
        <time>2026-05-22T09:26:39.000Z</time>
      </trkpt>
      <trkpt lat="43.11438" lon="-1.21143">
        <ele>222.348623</ele>
        <time>2026-05-22T09:26:40.000Z</time>
      </trkpt>
      <trkpt lat="43.11437" lon="-1.21139">
        <ele>222.442245</ele>
        <time>2026-05-22T09:26:41.000Z</time>
      </trkpt>
      <trkpt lat="43.11437" lon="-1.21136">
        <ele>222.530351</ele>
        <time>2026-05-22T09:26:42.000Z</time>
      </trkpt>
      <trkpt lat="43.11437" lon="-1.21133">
        <ele>222.620238</ele>
        <time>2026-05-22T09:26:43.000Z</time>
      </trkpt>
      <trkpt lat="43.11437" lon="-1.2113">
        <ele>222.710532</ele>
        <time>2026-05-22T09:26:44.000Z</time>
      </trkpt>
      <trkpt lat="43.11436" lon="-1.21127">
        <ele>222.797588</ele>
        <time>2026-05-22T09:26:45.000Z</time>
      </trkpt>
      <trkpt lat="43.11435" lon="-1.21124">
        <ele>222.887347</ele>
        <time>2026-05-22T09:26:46.000Z</time>
      </trkpt>
      <trkpt lat="43.11435" lon="-1.21121">
        <ele>222.978934</ele>
        <time>2026-05-22T09:26:47.000Z</time>
      </trkpt>
      <trkpt lat="43.11434" lon="-1.21117">
        <ele>223.076355</ele>
        <time>2026-05-22T09:26:48.000Z</time>
      </trkpt>
      <trkpt lat="43.11433" lon="-1.21115">
        <ele>223.15805</ele>
        <time>2026-05-22T09:26:49.000Z</time>
      </trkpt>
      <trkpt lat="43.11432" lon="-1.21112">
        <ele>223.235608</ele>
        <time>2026-05-22T09:26:50.000Z</time>
      </trkpt>
      <trkpt lat="43.11432" lon="-1.2111">
        <ele>223.315459</ele>
        <time>2026-05-22T09:26:51.000Z</time>
      </trkpt>
      <trkpt lat="43.11431" lon="-1.21106">
        <ele>223.406276</ele>
        <time>2026-05-22T09:26:52.000Z</time>
      </trkpt>
      <trkpt lat="43.1143" lon="-1.21103">
        <ele>223.497092</ele>
        <time>2026-05-22T09:26:53.000Z</time>
      </trkpt>
      <trkpt lat="43.1143" lon="-1.211">
        <ele>223.587387</ele>
        <time>2026-05-22T09:26:54.000Z</time>
      </trkpt>
      <trkpt lat="43.1143" lon="-1.21097">
        <ele>223.685642</ele>
        <time>2026-05-22T09:26:55.000Z</time>
      </trkpt>
      <trkpt lat="43.1143" lon="-1.21093">
        <ele>223.786397</ele>
        <time>2026-05-22T09:26:56.000Z</time>
      </trkpt>
      <trkpt lat="43.1143" lon="-1.21089">
        <ele>223.88995</ele>
        <time>2026-05-22T09:26:57.000Z</time>
      </trkpt>
      <trkpt lat="43.1143" lon="-1.21085">
        <ele>224.007746</ele>
        <time>2026-05-22T09:26:58.000Z</time>
      </trkpt>
      <trkpt lat="43.1143" lon="-1.21081">
        <ele>224.12864</ele>
        <time>2026-05-22T09:26:59.000Z</time>
      </trkpt>
      <trkpt lat="43.1143" lon="-1.21077">
        <ele>224.246436</ele>
        <time>2026-05-22T09:27:00.000Z</time>
      </trkpt>
      <trkpt lat="43.1143" lon="-1.21072">
        <ele>224.370532</ele>
        <time>2026-05-22T09:27:01.000Z</time>
      </trkpt>
      <trkpt lat="43.11431" lon="-1.21068">
        <ele>224.493833</ele>
        <time>2026-05-22T09:27:02.000Z</time>
      </trkpt>
      <trkpt lat="43.11432" lon="-1.21064">
        <ele>224.614404</ele>
        <time>2026-05-22T09:27:03.000Z</time>
      </trkpt>
      <trkpt lat="43.11432" lon="-1.21059">
        <ele>224.738084</ele>
        <time>2026-05-22T09:27:04.000Z</time>
      </trkpt>
      <trkpt lat="43.11432" lon="-1.21055">
        <ele>224.86968</ele>
        <time>2026-05-22T09:27:05.000Z</time>
      </trkpt>
      <trkpt lat="43.11432" lon="-1.2105">
        <ele>225.001221</ele>
        <time>2026-05-22T09:27:06.000Z</time>
      </trkpt>
      <trkpt lat="43.11432" lon="-1.21045">
        <ele>225.127397</ele>
        <time>2026-05-22T09:27:07.000Z</time>
      </trkpt>
      <trkpt lat="43.11433" lon="-1.21041">
        <ele>225.25479</ele>
        <time>2026-05-22T09:27:08.000Z</time>
      </trkpt>
      <trkpt lat="43.11433" lon="-1.21037">
        <ele>225.379417</ele>
        <time>2026-05-22T09:27:09.000Z</time>
      </trkpt>
      <trkpt lat="43.11434" lon="-1.21032">
        <ele>225.497213</ele>
        <time>2026-05-22T09:27:10.000Z</time>
      </trkpt>
      <trkpt lat="43.11434" lon="-1.21028">
        <ele>225.618107</ele>
        <time>2026-05-22T09:27:11.000Z</time>
      </trkpt>
      <trkpt lat="43.11434" lon="-1.21024">
        <ele>225.731102</ele>
        <time>2026-05-22T09:27:12.000Z</time>
      </trkpt>
      <trkpt lat="43.11434" lon="-1.2102">
        <ele>225.845914</ele>
        <time>2026-05-22T09:27:13.000Z</time>
      </trkpt>
      <trkpt lat="43.11435" lon="-1.21016">
        <ele>225.963523</ele>
        <time>2026-05-22T09:27:14.000Z</time>
      </trkpt>
      <trkpt lat="43.11435" lon="-1.21012">
        <ele>226.072942</ele>
        <time>2026-05-22T09:27:15.000Z</time>
      </trkpt>
      <trkpt lat="43.11435" lon="-1.21008">
        <ele>226.191485</ele>
        <time>2026-05-22T09:27:16.000Z</time>
      </trkpt>
      <trkpt lat="43.11436" lon="-1.21003">
        <ele>226.31558</ele>
        <time>2026-05-22T09:27:17.000Z</time>
      </trkpt>
      <trkpt lat="43.11436" lon="-1.20999">
        <ele>226.430903</ele>
        <time>2026-05-22T09:27:18.000Z</time>
      </trkpt>
      <trkpt lat="43.11436" lon="-1.20995">
        <ele>226.554285</ele>
        <time>2026-05-22T09:27:19.000Z</time>
      </trkpt>
      <trkpt lat="43.11436" lon="-1.2099">
        <ele>226.680461</ele>
        <time>2026-05-22T09:27:20.000Z</time>
      </trkpt>
      <trkpt lat="43.11436" lon="-1.20986">
        <ele>226.800867</ele>
        <time>2026-05-22T09:27:21.000Z</time>
      </trkpt>
      <trkpt lat="43.11437" lon="-1.20982">
        <ele>226.921456</ele>
        <time>2026-05-22T09:27:22.000Z</time>
      </trkpt>
      <trkpt lat="43.11437" lon="-1.20977">
        <ele>227.047923</ele>
        <time>2026-05-22T09:27:23.000Z</time>
      </trkpt>
      <trkpt lat="43.11437" lon="-1.20973">
        <ele>227.17439</ele>
        <time>2026-05-22T09:27:24.000Z</time>
      </trkpt>
      <trkpt lat="43.11437" lon="-1.20968">
        <ele>227.297594</ele>
        <time>2026-05-22T09:27:25.000Z</time>
      </trkpt>
      <trkpt lat="43.11437" lon="-1.20964">
        <ele>227.426392</ele>
        <time>2026-05-22T09:27:26.000Z</time>
      </trkpt>
      <trkpt lat="43.11437" lon="-1.20959">
        <ele>227.552393</ele>
        <time>2026-05-22T09:27:27.000Z</time>
      </trkpt>
      <trkpt lat="43.11438" lon="-1.20954">
        <ele>227.686787</ele>
        <time>2026-05-22T09:27:28.000Z</time>
      </trkpt>
      <trkpt lat="43.11438" lon="-1.2095">
        <ele>227.821125</ele>
        <time>2026-05-22T09:27:29.000Z</time>
      </trkpt>
      <trkpt lat="43.11438" lon="-1.20945">
        <ele>227.807654</ele>
        <time>2026-05-22T09:27:30.000Z</time>
      </trkpt>
      <trkpt lat="43.11438" lon="-1.2094">
        <ele>227.751634</ele>
        <time>2026-05-22T09:27:31.000Z</time>
      </trkpt>
      <trkpt lat="43.11438" lon="-1.20935">
        <ele>227.69343</ele>
        <time>2026-05-22T09:27:32.000Z</time>
      </trkpt>
      <trkpt lat="43.11438" lon="-1.2093">
        <ele>227.636412</ele>
        <time>2026-05-22T09:27:33.000Z</time>
      </trkpt>
      <trkpt lat="43.11439" lon="-1.20925">
        <ele>227.572109</ele>
        <time>2026-05-22T09:27:34.000Z</time>
      </trkpt>
      <trkpt lat="43.11439" lon="-1.20919">
        <ele>227.503222</ele>
        <time>2026-05-22T09:27:35.000Z</time>
      </trkpt>
      <trkpt lat="43.11439" lon="-1.20913">
        <ele>227.428258</ele>
        <time>2026-05-22T09:27:36.000Z</time>
      </trkpt>
      <trkpt lat="43.11439" lon="-1.20906">
        <ele>227.344998</ele>
        <time>2026-05-22T09:27:37.000Z</time>
      </trkpt>
      <trkpt lat="43.11439" lon="-1.20899">
        <ele>227.257072</ele>
        <time>2026-05-22T09:27:38.000Z</time>
      </trkpt>
      <trkpt lat="43.11439" lon="-1.2089">
        <ele>227.159585</ele>
        <time>2026-05-22T09:27:39.000Z</time>
      </trkpt>
      <trkpt lat="43.11438" lon="-1.20882">
        <ele>227.057148</ele>
        <time>2026-05-22T09:27:40.000Z</time>
      </trkpt>
      <trkpt lat="43.11437" lon="-1.20873">
        <ele>226.946932</ele>
        <time>2026-05-22T09:27:41.000Z</time>
      </trkpt>
      <trkpt lat="43.11436" lon="-1.20863">
        <ele>226.835002</ele>
        <time>2026-05-22T09:27:42.000Z</time>
      </trkpt>
      <trkpt lat="43.11433" lon="-1.20854">
        <ele>226.719552</ele>
        <time>2026-05-22T09:27:43.000Z</time>
      </trkpt>
      <trkpt lat="43.1143" lon="-1.20845">
        <ele>226.601753</ele>
        <time>2026-05-22T09:27:44.000Z</time>
      </trkpt>
      <trkpt lat="43.11427" lon="-1.20837">
        <ele>226.483531</ele>
        <time>2026-05-22T09:27:45.000Z</time>
      </trkpt>
      <trkpt lat="43.11423" lon="-1.20828">
        <ele>226.370265</ele>
        <time>2026-05-22T09:27:46.000Z</time>
      </trkpt>
      <trkpt lat="43.1142" lon="-1.2082">
        <ele>226.257477</ele>
        <time>2026-05-22T09:27:47.000Z</time>
      </trkpt>
      <trkpt lat="43.11416" lon="-1.20812">
        <ele>226.144022</ele>
        <time>2026-05-22T09:27:48.000Z</time>
      </trkpt>
      <trkpt lat="43.11412" lon="-1.20804">
        <ele>226.031764</ele>
        <time>2026-05-22T09:27:49.000Z</time>
      </trkpt>
      <trkpt lat="43.11408" lon="-1.20797">
        <ele>225.919357</ele>
        <time>2026-05-22T09:27:50.000Z</time>
      </trkpt>
      <trkpt lat="43.11403" lon="-1.2079">
        <ele>225.805321</ele>
        <time>2026-05-22T09:27:51.000Z</time>
      </trkpt>
      <trkpt lat="43.11398" lon="-1.20783">
        <ele>225.692148</ele>
        <time>2026-05-22T09:27:52.000Z</time>
      </trkpt>
      <trkpt lat="43.11394" lon="-1.20776">
        <ele>225.579832</ele>
        <time>2026-05-22T09:27:53.000Z</time>
      </trkpt>
      <trkpt lat="43.11389" lon="-1.20769">
        <ele>225.465796</ele>
        <time>2026-05-22T09:27:54.000Z</time>
      </trkpt>
      <trkpt lat="43.11384" lon="-1.20762">
        <ele>225.349203</ele>
        <time>2026-05-22T09:27:55.000Z</time>
      </trkpt>
      <trkpt lat="43.11378" lon="-1.20755">
        <ele>225.227457</ele>
        <time>2026-05-22T09:27:56.000Z</time>
      </trkpt>
      <trkpt lat="43.11373" lon="-1.20748">
        <ele>225.106519</ele>
        <time>2026-05-22T09:27:57.000Z</time>
      </trkpt>
      <trkpt lat="43.11366" lon="-1.20742">
        <ele>224.98166</ele>
        <time>2026-05-22T09:27:58.000Z</time>
      </trkpt>
      <trkpt lat="43.1136" lon="-1.20736">
        <ele>224.985268</ele>
        <time>2026-05-22T09:27:59.000Z</time>
      </trkpt>
      <trkpt lat="43.11353" lon="-1.20731">
        <ele>225.088995</ele>
        <time>2026-05-22T09:28:00.000Z</time>
      </trkpt>
      <trkpt lat="43.11346" lon="-1.20726">
        <ele>225.192263</ele>
        <time>2026-05-22T09:28:01.000Z</time>
      </trkpt>
      <trkpt lat="43.11339" lon="-1.20722">
        <ele>225.293433</ele>
        <time>2026-05-22T09:28:02.000Z</time>
      </trkpt>
      <trkpt lat="43.11333" lon="-1.20717">
        <ele>225.392946</ele>
        <time>2026-05-22T09:28:03.000Z</time>
      </trkpt>
      <trkpt lat="43.11327" lon="-1.20711">
        <ele>225.490526</ele>
        <time>2026-05-22T09:28:04.000Z</time>
      </trkpt>
      <trkpt lat="43.11322" lon="-1.20705">
        <ele>225.584417</ele>
        <time>2026-05-22T09:28:05.000Z</time>
      </trkpt>
      <trkpt lat="43.11316" lon="-1.20699">
        <ele>225.676205</ele>
        <time>2026-05-22T09:28:06.000Z</time>
      </trkpt>
      <trkpt lat="43.11311" lon="-1.20694">
        <ele>225.760945</ele>
        <time>2026-05-22T09:28:07.000Z</time>
      </trkpt>
      <trkpt lat="43.11307" lon="-1.20688">
        <ele>225.841667</ele>
        <time>2026-05-22T09:28:08.000Z</time>
      </trkpt>
      <trkpt lat="43.11303" lon="-1.20682">
        <ele>225.915774</ele>
        <time>2026-05-22T09:28:09.000Z</time>
      </trkpt>
      <trkpt lat="43.113" lon="-1.20677">
        <ele>225.984015</ele>
        <time>2026-05-22T09:28:10.000Z</time>
      </trkpt>
      <trkpt lat="43.11297" lon="-1.20672">
        <ele>226.047427</ele>
        <time>2026-05-22T09:28:11.000Z</time>
      </trkpt>
      <trkpt lat="43.11295" lon="-1.20667">
        <ele>226.106139</ele>
        <time>2026-05-22T09:28:12.000Z</time>
      </trkpt>
      <trkpt lat="43.11293" lon="-1.20662">
        <ele>226.16258</ele>
        <time>2026-05-22T09:28:13.000Z</time>
      </trkpt>
      <trkpt lat="43.11291" lon="-1.20657">
        <ele>226.212738</ele>
        <time>2026-05-22T09:28:14.000Z</time>
      </trkpt>
      <trkpt lat="43.11289" lon="-1.20653">
        <ele>226.262763</ele>
        <time>2026-05-22T09:28:15.000Z</time>
      </trkpt>
      <trkpt lat="43.11287" lon="-1.20649">
        <ele>226.310117</ele>
        <time>2026-05-22T09:28:16.000Z</time>
      </trkpt>
      <trkpt lat="43.11286" lon="-1.20645">
        <ele>226.353462</ele>
        <time>2026-05-22T09:28:17.000Z</time>
      </trkpt>
      <trkpt lat="43.11286" lon="-1.2064">
        <ele>226.397</ele>
        <time>2026-05-22T09:28:18.000Z</time>
      </trkpt>
      <trkpt lat="43.11285" lon="-1.20636">
        <ele>226.443152</ele>
        <time>2026-05-22T09:28:19.000Z</time>
      </trkpt>
      <trkpt lat="43.11283" lon="-1.20632">
        <ele>226.488817</ele>
        <time>2026-05-22T09:28:20.000Z</time>
      </trkpt>
      <trkpt lat="43.11282" lon="-1.20627">
        <ele>226.533984</ele>
        <time>2026-05-22T09:28:21.000Z</time>
      </trkpt>
      <trkpt lat="43.11281" lon="-1.20623">
        <ele>226.58241</ele>
        <time>2026-05-22T09:28:22.000Z</time>
      </trkpt>
      <trkpt lat="43.1128" lon="-1.20617">
        <ele>226.63612</ele>
        <time>2026-05-22T09:28:23.000Z</time>
      </trkpt>
      <trkpt lat="43.11279" lon="-1.20612">
        <ele>226.690897</ele>
        <time>2026-05-22T09:28:24.000Z</time>
      </trkpt>
      <trkpt lat="43.11279" lon="-1.20606">
        <ele>226.749174</ele>
        <time>2026-05-22T09:28:25.000Z</time>
      </trkpt>
      <trkpt lat="43.11278" lon="-1.206">
        <ele>226.810538</ele>
        <time>2026-05-22T09:28:26.000Z</time>
      </trkpt>
      <trkpt lat="43.11278" lon="-1.20593">
        <ele>226.87482</ele>
        <time>2026-05-22T09:28:27.000Z</time>
      </trkpt>
      <trkpt lat="43.11277" lon="-1.20587">
        <ele>226.939285</ele>
        <time>2026-05-22T09:28:28.000Z</time>
      </trkpt>
      <trkpt lat="43.11276" lon="-1.2058">
        <ele>227.00541</ele>
        <time>2026-05-22T09:28:29.000Z</time>
      </trkpt>
      <trkpt lat="43.11274" lon="-1.20573">
        <ele>227.076279</ele>
        <time>2026-05-22T09:28:30.000Z</time>
      </trkpt>
      <trkpt lat="43.11273" lon="-1.20566">
        <ele>227.14874</ele>
        <time>2026-05-22T09:28:31.000Z</time>
      </trkpt>
      <trkpt lat="43.11271" lon="-1.20558">
        <ele>227.226346</ele>
        <time>2026-05-22T09:28:32.000Z</time>
      </trkpt>
      <trkpt lat="43.1127" lon="-1.2055">
        <ele>227.308482</ele>
        <time>2026-05-22T09:28:33.000Z</time>
      </trkpt>
      <trkpt lat="43.11268" lon="-1.20542">
        <ele>227.331412</ele>
        <time>2026-05-22T09:28:34.000Z</time>
      </trkpt>
      <trkpt lat="43.11265" lon="-1.20533">
        <ele>227.311912</ele>
        <time>2026-05-22T09:28:35.000Z</time>
      </trkpt>
      <trkpt lat="43.11263" lon="-1.20524">
        <ele>227.29062</ele>
        <time>2026-05-22T09:28:36.000Z</time>
      </trkpt>
      <trkpt lat="43.1126" lon="-1.20515">
        <ele>227.270289</ele>
        <time>2026-05-22T09:28:37.000Z</time>
      </trkpt>
      <trkpt lat="43.11257" lon="-1.20506">
        <ele>227.249712</ele>
        <time>2026-05-22T09:28:38.000Z</time>
      </trkpt>
      <trkpt lat="43.11253" lon="-1.20499">
        <ele>227.23055</ele>
        <time>2026-05-22T09:28:39.000Z</time>
      </trkpt>
      <trkpt lat="43.11249" lon="-1.20491">
        <ele>227.210492</ele>
        <time>2026-05-22T09:28:40.000Z</time>
      </trkpt>
      <trkpt lat="43.11245" lon="-1.20483">
        <ele>227.189962</ele>
        <time>2026-05-22T09:28:41.000Z</time>
      </trkpt>
      <trkpt lat="43.11241" lon="-1.20475">
        <ele>227.169948</ele>
        <time>2026-05-22T09:28:42.000Z</time>
      </trkpt>
      <trkpt lat="43.11237" lon="-1.20468">
        <ele>227.150774</ele>
        <time>2026-05-22T09:28:43.000Z</time>
      </trkpt>
      <trkpt lat="43.11233" lon="-1.20461">
        <ele>227.131601</ele>
        <time>2026-05-22T09:28:44.000Z</time>
      </trkpt>
      <trkpt lat="43.11229" lon="-1.20454">
        <ele>227.112547</ele>
        <time>2026-05-22T09:28:45.000Z</time>
      </trkpt>
      <trkpt lat="43.11224" lon="-1.20448">
        <ele>227.093493</ele>
        <time>2026-05-22T09:28:46.000Z</time>
      </trkpt>
      <trkpt lat="43.1122" lon="-1.20441">
        <ele>227.073954</ele>
        <time>2026-05-22T09:28:47.000Z</time>
      </trkpt>
      <trkpt lat="43.11215" lon="-1.20434">
        <ele>227.055023</ele>
        <time>2026-05-22T09:28:48.000Z</time>
      </trkpt>
      <trkpt lat="43.1121" lon="-1.20428">
        <ele>227.035598</ele>
        <time>2026-05-22T09:28:49.000Z</time>
      </trkpt>
      <trkpt lat="43.11205" lon="-1.20423">
        <ele>227.016501</ele>
        <time>2026-05-22T09:28:50.000Z</time>
      </trkpt>
      <trkpt lat="43.112" lon="-1.20418">
        <ele>226.997466</ele>
        <time>2026-05-22T09:28:51.000Z</time>
      </trkpt>
      <trkpt lat="43.11195" lon="-1.20413">
        <ele>226.978675</ele>
        <time>2026-05-22T09:28:52.000Z</time>
      </trkpt>
      <trkpt lat="43.11189" lon="-1.20408">
        <ele>226.959765</ele>
        <time>2026-05-22T09:28:53.000Z</time>
      </trkpt>
      <trkpt lat="43.11184" lon="-1.20403">
        <ele>226.941035</ele>
        <time>2026-05-22T09:28:54.000Z</time>
      </trkpt>
      <trkpt lat="43.11178" lon="-1.20399">
        <ele>226.922257</ele>
        <time>2026-05-22T09:28:55.000Z</time>
      </trkpt>
      <trkpt lat="43.11172" lon="-1.20394">
        <ele>226.90367</ele>
        <time>2026-05-22T09:28:56.000Z</time>
      </trkpt>
      <trkpt lat="43.11167" lon="-1.20389">
        <ele>226.885116</ele>
        <time>2026-05-22T09:28:57.000Z</time>
      </trkpt>
      <trkpt lat="43.11163" lon="-1.20384">
        <ele>226.867261</ele>
        <time>2026-05-22T09:28:58.000Z</time>
      </trkpt>
      <trkpt lat="43.11158" lon="-1.20378">
        <ele>226.849753</ele>
        <time>2026-05-22T09:28:59.000Z</time>
      </trkpt>
      <trkpt lat="43.11154" lon="-1.20373">
        <ele>226.832828</ele>
        <time>2026-05-22T09:29:00.000Z</time>
      </trkpt>
      <trkpt lat="43.1115" lon="-1.20368">
        <ele>226.89404</ele>
        <time>2026-05-22T09:29:01.000Z</time>
      </trkpt>
      <trkpt lat="43.11145" lon="-1.20363">
        <ele>227.138562</ele>
        <time>2026-05-22T09:29:02.000Z</time>
      </trkpt>
      <trkpt lat="43.11141" lon="-1.20359">
        <ele>227.364187</ele>
        <time>2026-05-22T09:29:03.000Z</time>
      </trkpt>
      <trkpt lat="43.11138" lon="-1.20355">
        <ele>227.578925</ele>
        <time>2026-05-22T09:29:04.000Z</time>
      </trkpt>
      <trkpt lat="43.11134" lon="-1.20351">
        <ele>227.784472</ele>
        <time>2026-05-22T09:29:05.000Z</time>
      </trkpt>
      <trkpt lat="43.11131" lon="-1.20348">
        <ele>227.963999</ele>
        <time>2026-05-22T09:29:06.000Z</time>
      </trkpt>
      <trkpt lat="43.11128" lon="-1.20345">
        <ele>228.131585</ele>
        <time>2026-05-22T09:29:07.000Z</time>
      </trkpt>
      <trkpt lat="43.11125" lon="-1.20342">
        <ele>228.291506</ele>
        <time>2026-05-22T09:29:08.000Z</time>
      </trkpt>
      <trkpt lat="43.11123" lon="-1.20339">
        <ele>228.451427</ele>
        <time>2026-05-22T09:29:09.000Z</time>
      </trkpt>
      <trkpt lat="43.1112" lon="-1.20336">
        <ele>228.602845</ele>
        <time>2026-05-22T09:29:10.000Z</time>
      </trkpt>
      <trkpt lat="43.11118" lon="-1.20333">
        <ele>228.745261</ele>
        <time>2026-05-22T09:29:11.000Z</time>
      </trkpt>
      <trkpt lat="43.11115" lon="-1.2033">
        <ele>228.894508</ele>
        <time>2026-05-22T09:29:12.000Z</time>
      </trkpt>
      <trkpt lat="43.11113" lon="-1.20327">
        <ele>229.04726</ele>
        <time>2026-05-22T09:29:13.000Z</time>
      </trkpt>
      <trkpt lat="43.1111" lon="-1.20324">
        <ele>229.205645</ele>
        <time>2026-05-22T09:29:14.000Z</time>
      </trkpt>
      <trkpt lat="43.11107" lon="-1.20321">
        <ele>229.377404</ele>
        <time>2026-05-22T09:29:15.000Z</time>
      </trkpt>
      <trkpt lat="43.11104" lon="-1.20317">
        <ele>229.561905</ele>
        <time>2026-05-22T09:29:16.000Z</time>
      </trkpt>
      <trkpt lat="43.11101" lon="-1.20314">
        <ele>229.743606</ele>
        <time>2026-05-22T09:29:17.000Z</time>
      </trkpt>
      <trkpt lat="43.11098" lon="-1.2031">
        <ele>229.924157</ele>
        <time>2026-05-22T09:29:18.000Z</time>
      </trkpt>
      <trkpt lat="43.11095" lon="-1.20307">
        <ele>230.101546</ele>
        <time>2026-05-22T09:29:19.000Z</time>
      </trkpt>
      <trkpt lat="43.11092" lon="-1.20303">
        <ele>230.286046</ele>
        <time>2026-05-22T09:29:20.000Z</time>
      </trkpt>
      <trkpt lat="43.11088" lon="-1.203">
        <ele>230.476185</ele>
        <time>2026-05-22T09:29:21.000Z</time>
      </trkpt>
      <trkpt lat="43.11085" lon="-1.20296">
        <ele>230.664307</ele>
        <time>2026-05-22T09:29:22.000Z</time>
      </trkpt>
      <trkpt lat="43.11082" lon="-1.20293">
        <ele>230.845229</ele>
        <time>2026-05-22T09:29:23.000Z</time>
      </trkpt>
      <trkpt lat="43.11079" lon="-1.2029">
        <ele>231.035069</ele>
        <time>2026-05-22T09:29:24.000Z</time>
      </trkpt>
      <trkpt lat="43.11075" lon="-1.20287">
        <ele>231.221143</ele>
        <time>2026-05-22T09:29:25.000Z</time>
      </trkpt>
      <trkpt lat="43.11072" lon="-1.20284">
        <ele>231.39799</ele>
        <time>2026-05-22T09:29:26.000Z</time>
      </trkpt>
      <trkpt lat="43.11069" lon="-1.20281">
        <ele>231.571426</ele>
        <time>2026-05-22T09:29:27.000Z</time>
      </trkpt>
      <trkpt lat="43.11065" lon="-1.20279">
        <ele>231.741643</ele>
        <time>2026-05-22T09:29:28.000Z</time>
      </trkpt>
      <trkpt lat="43.11062" lon="-1.20277">
        <ele>231.897754</ele>
        <time>2026-05-22T09:29:29.000Z</time>
      </trkpt>
      <trkpt lat="43.11059" lon="-1.20275">
        <ele>232.043186</ele>
        <time>2026-05-22T09:29:30.000Z</time>
      </trkpt>
      <trkpt lat="43.11057" lon="-1.20273">
        <ele>232.187049</ele>
        <time>2026-05-22T09:29:31.000Z</time>
      </trkpt>
      <trkpt lat="43.11054" lon="-1.20271">
        <ele>232.332098</ele>
        <time>2026-05-22T09:29:32.000Z</time>
      </trkpt>
      <trkpt lat="43.11051" lon="-1.20269">
        <ele>232.452281</ele>
        <time>2026-05-22T09:29:33.000Z</time>
      </trkpt>
      <trkpt lat="43.11049" lon="-1.20268">
        <ele>232.576937</ele>
        <time>2026-05-22T09:29:34.000Z</time>
      </trkpt>
      <trkpt lat="43.11047" lon="-1.20266">
        <ele>232.701593</ele>
        <time>2026-05-22T09:29:35.000Z</time>
      </trkpt>
      <trkpt lat="43.11044" lon="-1.20264">
        <ele>232.826248</ele>
        <time>2026-05-22T09:29:36.000Z</time>
      </trkpt>
      <trkpt lat="43.11042" lon="-1.20262">
        <ele>232.953405</ele>
        <time>2026-05-22T09:29:37.000Z</time>
      </trkpt>
      <trkpt lat="43.11039" lon="-1.20261">
        <ele>233.082076</ele>
        <time>2026-05-22T09:29:38.000Z</time>
      </trkpt>
      <trkpt lat="43.11037" lon="-1.20259">
        <ele>233.201141</ele>
        <time>2026-05-22T09:29:39.000Z</time>
      </trkpt>
      <trkpt lat="43.11034" lon="-1.20257">
        <ele>233.331392</ele>
        <time>2026-05-22T09:29:40.000Z</time>
      </trkpt>
      <trkpt lat="43.11032" lon="-1.20255">
        <ele>233.461643</ele>
        <time>2026-05-22T09:29:41.000Z</time>
      </trkpt>
      <trkpt lat="43.11029" lon="-1.20253">
        <ele>233.589626</ele>
        <time>2026-05-22T09:29:42.000Z</time>
      </trkpt>
      <trkpt lat="43.11027" lon="-1.20251">
        <ele>233.725002</ele>
        <time>2026-05-22T09:29:43.000Z</time>
      </trkpt>
      <trkpt lat="43.11025" lon="-1.20248">
        <ele>233.851756</ele>
        <time>2026-05-22T09:29:44.000Z</time>
      </trkpt>
      <trkpt lat="43.11023" lon="-1.20246">
        <ele>233.979886</ele>
        <time>2026-05-22T09:29:45.000Z</time>
      </trkpt>
      <trkpt lat="43.1102" lon="-1.20243">
        <ele>234.109621</ele>
        <time>2026-05-22T09:29:46.000Z</time>
      </trkpt>
      <trkpt lat="43.11018" lon="-1.20241">
        <ele>234.226145</ele>
        <time>2026-05-22T09:29:47.000Z</time>
      </trkpt>
      <trkpt lat="43.11016" lon="-1.20239">
        <ele>234.355888</ele>
        <time>2026-05-22T09:29:48.000Z</time>
      </trkpt>
      <trkpt lat="43.11014" lon="-1.20237">
        <ele>234.483872</ele>
        <time>2026-05-22T09:29:49.000Z</time>
      </trkpt>
      <trkpt lat="43.11011" lon="-1.20235">
        <ele>234.602357</ele>
        <time>2026-05-22T09:29:50.000Z</time>
      </trkpt>
      <trkpt lat="43.11009" lon="-1.20233">
        <ele>234.717875</ele>
        <time>2026-05-22T09:29:51.000Z</time>
      </trkpt>
      <trkpt lat="43.11008" lon="-1.20231">
        <ele>234.837049</ele>
        <time>2026-05-22T09:29:52.000Z</time>
      </trkpt>
      <trkpt lat="43.11006" lon="-1.20228">
        <ele>234.951489</ele>
        <time>2026-05-22T09:29:53.000Z</time>
      </trkpt>
      <trkpt lat="43.11004" lon="-1.20226">
        <ele>235.039266</ele>
        <time>2026-05-22T09:29:54.000Z</time>
      </trkpt>
      <trkpt lat="43.11002" lon="-1.20223">
        <ele>235.092298</ele>
        <time>2026-05-22T09:29:55.000Z</time>
      </trkpt>
      <trkpt lat="43.11" lon="-1.20221">
        <ele>235.146902</ele>
        <time>2026-05-22T09:29:56.000Z</time>
      </trkpt>
      <trkpt lat="43.10998" lon="-1.20219">
        <ele>235.203404</ele>
        <time>2026-05-22T09:29:57.000Z</time>
      </trkpt>
      <trkpt lat="43.10996" lon="-1.20216">
        <ele>235.256908</ele>
        <time>2026-05-22T09:29:58.000Z</time>
      </trkpt>
      <trkpt lat="43.10994" lon="-1.20214">
        <ele>235.308401</ele>
        <time>2026-05-22T09:29:59.000Z</time>
      </trkpt>
      <trkpt lat="43.10992" lon="-1.20212">
        <ele>235.364605</ele>
        <time>2026-05-22T09:30:00.000Z</time>
      </trkpt>
      <trkpt lat="43.10989" lon="-1.20209">
        <ele>235.422437</ele>
        <time>2026-05-22T09:30:01.000Z</time>
      </trkpt>
      <trkpt lat="43.10987" lon="-1.20207">
        <ele>235.479923</ele>
        <time>2026-05-22T09:30:02.000Z</time>
      </trkpt>
      <trkpt lat="43.10985" lon="-1.20204">
        <ele>235.537409</ele>
        <time>2026-05-22T09:30:03.000Z</time>
      </trkpt>
      <trkpt lat="43.10983" lon="-1.20201">
        <ele>235.593843</ele>
        <time>2026-05-22T09:30:04.000Z</time>
      </trkpt>
      <trkpt lat="43.10981" lon="-1.20198">
        <ele>235.65192</ele>
        <time>2026-05-22T09:30:05.000Z</time>
      </trkpt>
      <trkpt lat="43.10979" lon="-1.20196">
        <ele>235.709971</ele>
        <time>2026-05-22T09:30:06.000Z</time>
      </trkpt>
      <trkpt lat="43.10977" lon="-1.20193">
        <ele>235.767087</ele>
        <time>2026-05-22T09:30:07.000Z</time>
      </trkpt>
      <trkpt lat="43.10975" lon="-1.20191">
        <ele>235.825577</ele>
        <time>2026-05-22T09:30:08.000Z</time>
      </trkpt>
      <trkpt lat="43.10973" lon="-1.20188">
        <ele>235.883063</ele>
        <time>2026-05-22T09:30:09.000Z</time>
      </trkpt>
      <trkpt lat="43.10971" lon="-1.20186">
        <ele>235.94055</ele>
        <time>2026-05-22T09:30:10.000Z</time>
      </trkpt>
      <trkpt lat="43.10969" lon="-1.20183">
        <ele>236.000537</ele>
        <time>2026-05-22T09:30:11.000Z</time>
      </trkpt>
      <trkpt lat="43.10966" lon="-1.2018">
        <ele>236.060525</ele>
        <time>2026-05-22T09:30:12.000Z</time>
      </trkpt>
      <trkpt lat="43.10964" lon="-1.20178">
        <ele>236.120153</ele>
        <time>2026-05-22T09:30:13.000Z</time>
      </trkpt>
      <trkpt lat="43.10962" lon="-1.20175">
        <ele>236.17415</ele>
        <time>2026-05-22T09:30:14.000Z</time>
      </trkpt>
      <trkpt lat="43.1096" lon="-1.20173">
        <ele>236.228691</ele>
        <time>2026-05-22T09:30:15.000Z</time>
      </trkpt>
      <trkpt lat="43.10958" lon="-1.2017">
        <ele>236.283678</ele>
        <time>2026-05-22T09:30:16.000Z</time>
      </trkpt>
      <trkpt lat="43.10956" lon="-1.20167">
        <ele>236.340705</ele>
        <time>2026-05-22T09:30:17.000Z</time>
      </trkpt>
      <trkpt lat="43.10954" lon="-1.20164">
        <ele>236.402325</ele>
        <time>2026-05-22T09:30:18.000Z</time>
      </trkpt>
      <trkpt lat="43.10952" lon="-1.20162">
        <ele>236.462883</ele>
        <time>2026-05-22T09:30:19.000Z</time>
      </trkpt>
      <trkpt lat="43.1095" lon="-1.20159">
        <ele>236.524398</ele>
        <time>2026-05-22T09:30:20.000Z</time>
      </trkpt>
      <trkpt lat="43.10947" lon="-1.20156">
        <ele>236.586888</ele>
        <time>2026-05-22T09:30:21.000Z</time>
      </trkpt>
      <trkpt lat="43.10945" lon="-1.20153">
        <ele>236.652872</ele>
        <time>2026-05-22T09:30:22.000Z</time>
      </trkpt>
      <trkpt lat="43.10943" lon="-1.2015">
        <ele>236.721932</ele>
        <time>2026-05-22T09:30:23.000Z</time>
      </trkpt>
      <trkpt lat="43.1094" lon="-1.20146">
        <ele>236.798879</ele>
        <time>2026-05-22T09:30:24.000Z</time>
      </trkpt>
      <trkpt lat="43.10938" lon="-1.20141">
        <ele>236.886298</ele>
        <time>2026-05-22T09:30:25.000Z</time>
      </trkpt>
      <trkpt lat="43.10935" lon="-1.20135">
        <ele>236.98452</ele>
        <time>2026-05-22T09:30:26.000Z</time>
      </trkpt>
      <trkpt lat="43.10933" lon="-1.20128">
        <ele>237.092622</ele>
        <time>2026-05-22T09:30:27.000Z</time>
      </trkpt>
      <trkpt lat="43.10931" lon="-1.20121">
        <ele>237.211715</ele>
        <time>2026-05-22T09:30:28.000Z</time>
      </trkpt>
      <trkpt lat="43.10929" lon="-1.20113">
        <ele>237.3413</ele>
        <time>2026-05-22T09:30:29.000Z</time>
      </trkpt>
      <trkpt lat="43.10927" lon="-1.20104">
        <ele>237.47394</ele>
        <time>2026-05-22T09:30:30.000Z</time>
      </trkpt>
      <trkpt lat="43.10925" lon="-1.20095">
        <ele>237.610444</ele>
        <time>2026-05-22T09:30:31.000Z</time>
      </trkpt>
      <trkpt lat="43.10922" lon="-1.20087">
        <ele>237.746519</ele>
        <time>2026-05-22T09:30:32.000Z</time>
      </trkpt>
      <trkpt lat="43.10919" lon="-1.20079">
        <ele>237.883525</ele>
        <time>2026-05-22T09:30:33.000Z</time>
      </trkpt>
      <trkpt lat="43.10915" lon="-1.20072">
        <ele>238.016579</ele>
        <time>2026-05-22T09:30:34.000Z</time>
      </trkpt>
      <trkpt lat="43.1091" lon="-1.20066">
        <ele>238.147637</ele>
        <time>2026-05-22T09:30:35.000Z</time>
      </trkpt>
      <trkpt lat="43.10906" lon="-1.20061">
        <ele>238.264125</ele>
        <time>2026-05-22T09:30:36.000Z</time>
      </trkpt>
      <trkpt lat="43.10902" lon="-1.20056">
        <ele>238.372245</ele>
        <time>2026-05-22T09:30:37.000Z</time>
      </trkpt>
      <trkpt lat="43.10898" lon="-1.20052">
        <ele>238.473616</ele>
        <time>2026-05-22T09:30:38.000Z</time>
      </trkpt>
      <trkpt lat="43.10894" lon="-1.20049">
        <ele>238.568303</ele>
        <time>2026-05-22T09:30:39.000Z</time>
      </trkpt>
      <trkpt lat="43.1089" lon="-1.20046">
        <ele>238.653118</ele>
        <time>2026-05-22T09:30:40.000Z</time>
      </trkpt>
      <trkpt lat="43.10887" lon="-1.20044">
        <ele>238.729555</ele>
        <time>2026-05-22T09:30:41.000Z</time>
      </trkpt>
      <trkpt lat="43.10883" lon="-1.20041">
        <ele>238.801826</ele>
        <time>2026-05-22T09:30:42.000Z</time>
      </trkpt>
      <trkpt lat="43.1088" lon="-1.20039">
        <ele>238.865129</ele>
        <time>2026-05-22T09:30:43.000Z</time>
      </trkpt>
      <trkpt lat="43.10878" lon="-1.20037">
        <ele>238.917125</ele>
        <time>2026-05-22T09:30:44.000Z</time>
      </trkpt>
      <trkpt lat="43.10876" lon="-1.20036">
        <ele>238.960179</ele>
        <time>2026-05-22T09:30:45.000Z</time>
      </trkpt>
      <trkpt lat="43.10875" lon="-1.20034">
        <ele>239.000796</ele>
        <time>2026-05-22T09:30:46.000Z</time>
      </trkpt>
      <trkpt lat="43.10873" lon="-1.20032">
        <ele>239.046437</ele>
        <time>2026-05-22T09:30:47.000Z</time>
      </trkpt>
      <trkpt lat="43.10871" lon="-1.2003">
        <ele>239.091929</ele>
        <time>2026-05-22T09:30:48.000Z</time>
      </trkpt>
      <trkpt lat="43.10869" lon="-1.20029">
        <ele>239.133129</ele>
        <time>2026-05-22T09:30:49.000Z</time>
      </trkpt>
      <trkpt lat="43.10867" lon="-1.20027">
        <ele>239.175441</ele>
        <time>2026-05-22T09:30:50.000Z</time>
      </trkpt>
      <trkpt lat="43.10866" lon="-1.20026">
        <ele>239.216931</ele>
        <time>2026-05-22T09:30:51.000Z</time>
      </trkpt>
      <trkpt lat="43.10864" lon="-1.20024">
        <ele>239.258421</ele>
        <time>2026-05-22T09:30:52.000Z</time>
      </trkpt>
      <trkpt lat="43.10862" lon="-1.20022">
        <ele>239.300119</ele>
        <time>2026-05-22T09:30:53.000Z</time>
      </trkpt>
      <trkpt lat="43.10861" lon="-1.2002">
        <ele>239.339953</ele>
        <time>2026-05-22T09:30:54.000Z</time>
      </trkpt>
      <trkpt lat="43.10859" lon="-1.20018">
        <ele>239.38359</ele>
        <time>2026-05-22T09:30:55.000Z</time>
      </trkpt>
      <trkpt lat="43.10858" lon="-1.20016">
        <ele>239.425547</ele>
        <time>2026-05-22T09:30:56.000Z</time>
      </trkpt>
      <trkpt lat="43.10856" lon="-1.20014">
        <ele>239.474433</ele>
        <time>2026-05-22T09:30:57.000Z</time>
      </trkpt>
      <trkpt lat="43.10854" lon="-1.20011">
        <ele>239.529389</ele>
        <time>2026-05-22T09:30:58.000Z</time>
      </trkpt>
      <trkpt lat="43.10852" lon="-1.20008">
        <ele>239.587794</ele>
        <time>2026-05-22T09:30:59.000Z</time>
      </trkpt>
      <trkpt lat="43.1085" lon="-1.20004">
        <ele>239.65283</ele>
        <time>2026-05-22T09:31:00.000Z</time>
      </trkpt>
      <trkpt lat="43.10848" lon="-1.20001">
        <ele>239.719228</ele>
        <time>2026-05-22T09:31:01.000Z</time>
      </trkpt>
      <trkpt lat="43.10846" lon="-1.19997">
        <ele>239.788002</ele>
        <time>2026-05-22T09:31:02.000Z</time>
      </trkpt>
      <trkpt lat="43.10843" lon="-1.19993">
        <ele>239.860479</ele>
        <time>2026-05-22T09:31:03.000Z</time>
      </trkpt>
      <trkpt lat="43.10841" lon="-1.1999">
        <ele>239.936711</ele>
        <time>2026-05-22T09:31:04.000Z</time>
      </trkpt>
      <trkpt lat="43.10838" lon="-1.19986">
        <ele>240.01091</ele>
        <time>2026-05-22T09:31:05.000Z</time>
      </trkpt>
      <trkpt lat="43.10835" lon="-1.19982">
        <ele>240.084739</ele>
        <time>2026-05-22T09:31:06.000Z</time>
      </trkpt>
      <trkpt lat="43.10833" lon="-1.19978">
        <ele>240.160666</ele>
        <time>2026-05-22T09:31:07.000Z</time>
      </trkpt>
      <trkpt lat="43.1083" lon="-1.19974">
        <ele>240.238741</ele>
        <time>2026-05-22T09:31:08.000Z</time>
      </trkpt>
      <trkpt lat="43.10828" lon="-1.1997">
        <ele>240.315538</ele>
        <time>2026-05-22T09:31:09.000Z</time>
      </trkpt>
      <trkpt lat="43.10825" lon="-1.19966">
        <ele>240.392533</ele>
        <time>2026-05-22T09:31:10.000Z</time>
      </trkpt>
      <trkpt lat="43.10822" lon="-1.19962">
        <ele>240.470851</ele>
        <time>2026-05-22T09:31:11.000Z</time>
      </trkpt>
      <trkpt lat="43.1082" lon="-1.19958">
        <ele>240.548926</ele>
        <time>2026-05-22T09:31:12.000Z</time>
      </trkpt>
      <trkpt lat="43.10817" lon="-1.19954">
        <ele>240.629081</ele>
        <time>2026-05-22T09:31:13.000Z</time>
      </trkpt>
      <trkpt lat="43.10815" lon="-1.19949">
        <ele>240.711714</ele>
        <time>2026-05-22T09:31:14.000Z</time>
      </trkpt>
      <trkpt lat="43.10812" lon="-1.19945">
        <ele>240.795628</ele>
        <time>2026-05-22T09:31:15.000Z</time>
      </trkpt>
      <trkpt lat="43.10809" lon="-1.19941">
        <ele>240.879787</ele>
        <time>2026-05-22T09:31:16.000Z</time>
      </trkpt>
      <trkpt lat="43.10806" lon="-1.19936">
        <ele>240.9637</ele>
        <time>2026-05-22T09:31:17.000Z</time>
      </trkpt>
      <trkpt lat="43.10803" lon="-1.19932">
        <ele>241.049802</ele>
        <time>2026-05-22T09:31:18.000Z</time>
      </trkpt>
      <trkpt lat="43.108" lon="-1.19927">
        <ele>241.137013</ele>
        <time>2026-05-22T09:31:19.000Z</time>
      </trkpt>
      <trkpt lat="43.10797" lon="-1.19922">
        <ele>241.225688</ele>
        <time>2026-05-22T09:31:20.000Z</time>
      </trkpt>
      <trkpt lat="43.10794" lon="-1.19918">
        <ele>241.315688</ele>
        <time>2026-05-22T09:31:21.000Z</time>
      </trkpt>
      <trkpt lat="43.10791" lon="-1.19913">
        <ele>241.411527</ele>
        <time>2026-05-22T09:31:22.000Z</time>
      </trkpt>
      <trkpt lat="43.10788" lon="-1.19908">
        <ele>241.506043</ele>
        <time>2026-05-22T09:31:23.000Z</time>
      </trkpt>
      <trkpt lat="43.10785" lon="-1.19903">
        <ele>241.600559</ele>
        <time>2026-05-22T09:31:24.000Z</time>
      </trkpt>
      <trkpt lat="43.10781" lon="-1.19898">
        <ele>241.694008</ele>
        <time>2026-05-22T09:31:25.000Z</time>
      </trkpt>
      <trkpt lat="43.10778" lon="-1.19893">
        <ele>241.788314</ele>
        <time>2026-05-22T09:31:26.000Z</time>
      </trkpt>
      <trkpt lat="43.10775" lon="-1.19888">
        <ele>241.884463</ele>
        <time>2026-05-22T09:31:27.000Z</time>
      </trkpt>
      <trkpt lat="43.10772" lon="-1.19884">
        <ele>241.980612</ele>
        <time>2026-05-22T09:31:28.000Z</time>
      </trkpt>
      <trkpt lat="43.10768" lon="-1.19879">
        <ele>242.077798</ele>
        <time>2026-05-22T09:31:29.000Z</time>
      </trkpt>
      <trkpt lat="43.10765" lon="-1.19874">
        <ele>242.172586</ele>
        <time>2026-05-22T09:31:30.000Z</time>
      </trkpt>
      <trkpt lat="43.10762" lon="-1.19869">
        <ele>242.189992</ele>
        <time>2026-05-22T09:31:31.000Z</time>
      </trkpt>
      <trkpt lat="43.10758" lon="-1.19865">
        <ele>242.156695</ele>
        <time>2026-05-22T09:31:32.000Z</time>
      </trkpt>
      <trkpt lat="43.10755" lon="-1.1986">
        <ele>242.122022</ele>
        <time>2026-05-22T09:31:33.000Z</time>
      </trkpt>
      <trkpt lat="43.10751" lon="-1.19855">
        <ele>242.085443</ele>
        <time>2026-05-22T09:31:34.000Z</time>
      </trkpt>
      <trkpt lat="43.10747" lon="-1.1985">
        <ele>242.048157</ele>
        <time>2026-05-22T09:31:35.000Z</time>
      </trkpt>
      <trkpt lat="43.10743" lon="-1.19846">
        <ele>242.0091</ele>
        <time>2026-05-22T09:31:36.000Z</time>
      </trkpt>
      <trkpt lat="43.10739" lon="-1.19841">
        <ele>241.970757</ele>
        <time>2026-05-22T09:31:37.000Z</time>
      </trkpt>
      <trkpt lat="43.10736" lon="-1.19835">
        <ele>241.932054</ele>
        <time>2026-05-22T09:31:38.000Z</time>
      </trkpt>
      <trkpt lat="43.10732" lon="-1.1983">
        <ele>241.893351</ele>
        <time>2026-05-22T09:31:39.000Z</time>
      </trkpt>
      <trkpt lat="43.10728" lon="-1.19825">
        <ele>241.854481</ele>
        <time>2026-05-22T09:31:40.000Z</time>
      </trkpt>
      <trkpt lat="43.10723" lon="-1.1982">
        <ele>241.814538</ele>
        <time>2026-05-22T09:31:41.000Z</time>
      </trkpt>
      <trkpt lat="43.10719" lon="-1.19816">
        <ele>241.775824</ele>
        <time>2026-05-22T09:31:42.000Z</time>
      </trkpt>
      <trkpt lat="43.10715" lon="-1.1981">
        <ele>241.73624</ele>
        <time>2026-05-22T09:31:43.000Z</time>
      </trkpt>
      <trkpt lat="43.10711" lon="-1.19805">
        <ele>241.695774</ele>
        <time>2026-05-22T09:31:44.000Z</time>
      </trkpt>
      <trkpt lat="43.10707" lon="-1.198">
        <ele>241.655091</ele>
        <time>2026-05-22T09:31:45.000Z</time>
      </trkpt>
      <trkpt lat="43.10703" lon="-1.19794">
        <ele>241.613531</ele>
        <time>2026-05-22T09:31:46.000Z</time>
      </trkpt>
      <trkpt lat="43.10699" lon="-1.19789">
        <ele>241.573218</ele>
        <time>2026-05-22T09:31:47.000Z</time>
      </trkpt>
      <trkpt lat="43.10695" lon="-1.19783">
        <ele>241.53187</ele>
        <time>2026-05-22T09:31:48.000Z</time>
      </trkpt>
      <trkpt lat="43.10691" lon="-1.19777">
        <ele>241.489938</ele>
        <time>2026-05-22T09:31:49.000Z</time>
      </trkpt>
      <trkpt lat="43.10687" lon="-1.19772">
        <ele>241.447866</ele>
        <time>2026-05-22T09:31:50.000Z</time>
      </trkpt>
      <trkpt lat="43.10683" lon="-1.19766">
        <ele>241.406305</ele>
        <time>2026-05-22T09:31:51.000Z</time>
      </trkpt>
      <trkpt lat="43.10679" lon="-1.19761">
        <ele>241.366725</ele>
        <time>2026-05-22T09:31:52.000Z</time>
      </trkpt>
      <trkpt lat="43.10675" lon="-1.19755">
        <ele>241.326363</ele>
        <time>2026-05-22T09:31:53.000Z</time>
      </trkpt>
      <trkpt lat="43.10671" lon="-1.19749">
        <ele>241.285806</ele>
        <time>2026-05-22T09:31:54.000Z</time>
      </trkpt>
      <trkpt lat="43.10667" lon="-1.19744">
        <ele>241.246502</ele>
        <time>2026-05-22T09:31:55.000Z</time>
      </trkpt>
      <trkpt lat="43.10664" lon="-1.19738">
        <ele>241.207792</ele>
        <time>2026-05-22T09:31:56.000Z</time>
      </trkpt>
      <trkpt lat="43.1066" lon="-1.19733">
        <ele>241.169161</ele>
        <time>2026-05-22T09:31:57.000Z</time>
      </trkpt>
      <trkpt lat="43.10657" lon="-1.19727">
        <ele>241.129969</ele>
        <time>2026-05-22T09:31:58.000Z</time>
      </trkpt>
      <trkpt lat="43.10653" lon="-1.19722">
        <ele>241.091647</ele>
        <time>2026-05-22T09:31:59.000Z</time>
      </trkpt>
      <trkpt lat="43.10649" lon="-1.19716">
        <ele>241.052546</ele>
        <time>2026-05-22T09:32:00.000Z</time>
      </trkpt>
      <trkpt lat="43.10646" lon="-1.19711">
        <ele>241.013836</ele>
        <time>2026-05-22T09:32:01.000Z</time>
      </trkpt>
      <trkpt lat="43.10642" lon="-1.19705">
        <ele>240.975407</ele>
        <time>2026-05-22T09:32:02.000Z</time>
      </trkpt>
      <trkpt lat="43.10639" lon="-1.197">
        <ele>240.938826</ele>
        <time>2026-05-22T09:32:03.000Z</time>
      </trkpt>
      <trkpt lat="43.10636" lon="-1.19695">
        <ele>240.825406</ele>
        <time>2026-05-22T09:32:04.000Z</time>
      </trkpt>
      <trkpt lat="43.10633" lon="-1.1969">
        <ele>240.60773</ele>
        <time>2026-05-22T09:32:05.000Z</time>
      </trkpt>
      <trkpt lat="43.1063" lon="-1.19684">
        <ele>240.405215</ele>
        <time>2026-05-22T09:32:06.000Z</time>
      </trkpt>
      <trkpt lat="43.10628" lon="-1.19679">
        <ele>240.202211</ele>
        <time>2026-05-22T09:32:07.000Z</time>
      </trkpt>
      <trkpt lat="43.10626" lon="-1.19673">
        <ele>240.00269</ele>
        <time>2026-05-22T09:32:08.000Z</time>
      </trkpt>
      <trkpt lat="43.10623" lon="-1.19668">
        <ele>239.789927</ele>
        <time>2026-05-22T09:32:09.000Z</time>
      </trkpt>
      <trkpt lat="43.1062" lon="-1.19663">
        <ele>239.566476</ele>
        <time>2026-05-22T09:32:10.000Z</time>
      </trkpt>
      <trkpt lat="43.10615" lon="-1.1966">
        <ele>239.327606</ele>
        <time>2026-05-22T09:32:11.000Z</time>
      </trkpt>
      <trkpt lat="43.1061" lon="-1.19657">
        <ele>239.073027</ele>
        <time>2026-05-22T09:32:12.000Z</time>
      </trkpt>
      <trkpt lat="43.10604" lon="-1.19654">
        <ele>238.798414</ele>
        <time>2026-05-22T09:32:13.000Z</time>
      </trkpt>
      <trkpt lat="43.10598" lon="-1.1965">
        <ele>238.506618</ele>
        <time>2026-05-22T09:32:14.000Z</time>
      </trkpt>
      <trkpt lat="43.10592" lon="-1.19645">
        <ele>238.201815</ele>
        <time>2026-05-22T09:32:15.000Z</time>
      </trkpt>
      <trkpt lat="43.10586" lon="-1.1964">
        <ele>237.876763</ele>
        <time>2026-05-22T09:32:16.000Z</time>
      </trkpt>
      <trkpt lat="43.10579" lon="-1.19634">
        <ele>237.525968</ele>
        <time>2026-05-22T09:32:17.000Z</time>
      </trkpt>
      <trkpt lat="43.10572" lon="-1.19629">
        <ele>237.159303</ele>
        <time>2026-05-22T09:32:18.000Z</time>
      </trkpt>
      <trkpt lat="43.10564" lon="-1.19623">
        <ele>236.777471</ele>
        <time>2026-05-22T09:32:19.000Z</time>
      </trkpt>
      <trkpt lat="43.10556" lon="-1.19619">
        <ele>236.38212</ele>
        <time>2026-05-22T09:32:20.000Z</time>
      </trkpt>
      <trkpt lat="43.10548" lon="-1.19614">
        <ele>235.974934</ele>
        <time>2026-05-22T09:32:21.000Z</time>
      </trkpt>
      <trkpt lat="43.10539" lon="-1.19611">
        <ele>235.569766</ele>
        <time>2026-05-22T09:32:22.000Z</time>
      </trkpt>
      <trkpt lat="43.1053" lon="-1.19607">
        <ele>235.166477</ele>
        <time>2026-05-22T09:32:23.000Z</time>
      </trkpt>
      <trkpt lat="43.10522" lon="-1.19604">
        <ele>234.780383</ele>
        <time>2026-05-22T09:32:24.000Z</time>
      </trkpt>
      <trkpt lat="43.10514" lon="-1.19602">
        <ele>234.420481</ele>
        <time>2026-05-22T09:32:25.000Z</time>
      </trkpt>
      <trkpt lat="43.10506" lon="-1.196">
        <ele>234.05757</ele>
        <time>2026-05-22T09:32:26.000Z</time>
      </trkpt>
      <trkpt lat="43.10498" lon="-1.19597">
        <ele>233.692616</ele>
        <time>2026-05-22T09:32:27.000Z</time>
      </trkpt>
      <trkpt lat="43.1049" lon="-1.19594">
        <ele>233.326209</ele>
        <time>2026-05-22T09:32:28.000Z</time>
      </trkpt>
      <trkpt lat="43.10482" lon="-1.1959">
        <ele>232.965244</ele>
        <time>2026-05-22T09:32:29.000Z</time>
      </trkpt>
      <trkpt lat="43.10475" lon="-1.19586">
        <ele>232.946887</ele>
        <time>2026-05-22T09:32:30.000Z</time>
      </trkpt>
      <trkpt lat="43.10469" lon="-1.19581">
        <ele>232.977279</ele>
        <time>2026-05-22T09:32:31.000Z</time>
      </trkpt>
      <trkpt lat="43.10463" lon="-1.19578">
        <ele>233.004441</ele>
        <time>2026-05-22T09:32:32.000Z</time>
      </trkpt>
      <trkpt lat="43.10458" lon="-1.19575">
        <ele>233.029123</ele>
        <time>2026-05-22T09:32:33.000Z</time>
      </trkpt>
      <trkpt lat="43.10452" lon="-1.19573">
        <ele>233.052348</ele>
        <time>2026-05-22T09:32:34.000Z</time>
      </trkpt>
      <trkpt lat="43.10447" lon="-1.19572">
        <ele>233.073652</ele>
        <time>2026-05-22T09:32:35.000Z</time>
      </trkpt>
      <trkpt lat="43.10442" lon="-1.19571">
        <ele>233.096178</ele>
        <time>2026-05-22T09:32:36.000Z</time>
      </trkpt>
      <trkpt lat="43.10437" lon="-1.19571">
        <ele>233.117743</ele>
        <time>2026-05-22T09:32:37.000Z</time>
      </trkpt>
      <trkpt lat="43.10432" lon="-1.19573">
        <ele>233.138851</ele>
        <time>2026-05-22T09:32:38.000Z</time>
      </trkpt>
      <trkpt lat="43.10428" lon="-1.19576">
        <ele>233.158859</ele>
        <time>2026-05-22T09:32:39.000Z</time>
      </trkpt>
      <trkpt lat="43.10424" lon="-1.19577">
        <ele>233.177766</ele>
        <time>2026-05-22T09:32:40.000Z</time>
      </trkpt>
      <trkpt lat="43.10419" lon="-1.19579">
        <ele>233.195891</ele>
        <time>2026-05-22T09:32:41.000Z</time>
      </trkpt>
      <trkpt lat="43.10415" lon="-1.1958">
        <ele>233.215258</ele>
        <time>2026-05-22T09:32:42.000Z</time>
      </trkpt>
      <trkpt lat="43.1041" lon="-1.19581">
        <ele>233.235402</ele>
        <time>2026-05-22T09:32:43.000Z</time>
      </trkpt>
      <trkpt lat="43.10405" lon="-1.19582">
        <ele>233.25643</ele>
        <time>2026-05-22T09:32:44.000Z</time>
      </trkpt>
      <trkpt lat="43.104" lon="-1.19583">
        <ele>233.277735</ele>
        <time>2026-05-22T09:32:45.000Z</time>
      </trkpt>
      <trkpt lat="43.10396" lon="-1.19587">
        <ele>233.299597</ele>
        <time>2026-05-22T09:32:46.000Z</time>
      </trkpt>
      <trkpt lat="43.10391" lon="-1.19591">
        <ele>233.322973</ele>
        <time>2026-05-22T09:32:47.000Z</time>
      </trkpt>
      <trkpt lat="43.10386" lon="-1.19594">
        <ele>233.345946</ele>
        <time>2026-05-22T09:32:48.000Z</time>
      </trkpt>
      <trkpt lat="43.10381" lon="-1.19596">
        <ele>233.36903</ele>
        <time>2026-05-22T09:32:49.000Z</time>
      </trkpt>
      <trkpt lat="43.10375" lon="-1.19597">
        <ele>233.393628</ele>
        <time>2026-05-22T09:32:50.000Z</time>
      </trkpt>
      <trkpt lat="43.10369" lon="-1.19596">
        <ele>233.418364</ele>
        <time>2026-05-22T09:32:51.000Z</time>
      </trkpt>
      <trkpt lat="43.10364" lon="-1.19594">
        <ele>233.443558</ele>
        <time>2026-05-22T09:32:52.000Z</time>
      </trkpt>
      <trkpt lat="43.10358" lon="-1.19591">
        <ele>233.468455</ele>
        <time>2026-05-22T09:32:53.000Z</time>
      </trkpt>
      <trkpt lat="43.10353" lon="-1.19588">
        <ele>233.492177</ele>
        <time>2026-05-22T09:32:54.000Z</time>
      </trkpt>
      <trkpt lat="43.10348" lon="-1.19585">
        <ele>233.514979</ele>
        <time>2026-05-22T09:32:55.000Z</time>
      </trkpt>
      <trkpt lat="43.10343" lon="-1.19582">
        <ele>233.537409</ele>
        <time>2026-05-22T09:32:56.000Z</time>
      </trkpt>
      <trkpt lat="43.10339" lon="-1.19579">
        <ele>233.558552</ele>
        <time>2026-05-22T09:32:57.000Z</time>
      </trkpt>
      <trkpt lat="43.10334" lon="-1.19576">
        <ele>233.579184</ele>
        <time>2026-05-22T09:32:58.000Z</time>
      </trkpt>
      <trkpt lat="43.1033" lon="-1.19574">
        <ele>233.600091</ele>
        <time>2026-05-22T09:32:59.000Z</time>
      </trkpt>
      <trkpt lat="43.10325" lon="-1.19571">
        <ele>233.620972</ele>
        <time>2026-05-22T09:33:00.000Z</time>
      </trkpt>
      <trkpt lat="43.10321" lon="-1.19569">
        <ele>233.641056</ele>
        <time>2026-05-22T09:33:01.000Z</time>
      </trkpt>
      <trkpt lat="43.10317" lon="-1.19567">
        <ele>233.660052</ele>
        <time>2026-05-22T09:33:02.000Z</time>
      </trkpt>
      <trkpt lat="43.10313" lon="-1.19565">
        <ele>233.676759</ele>
        <time>2026-05-22T09:33:03.000Z</time>
      </trkpt>
      <trkpt lat="43.10309" lon="-1.19564">
        <ele>233.705503</ele>
        <time>2026-05-22T09:33:04.000Z</time>
      </trkpt>
      <trkpt lat="43.10306" lon="-1.19564">
        <ele>233.737361</ele>
        <time>2026-05-22T09:33:05.000Z</time>
      </trkpt>
      <trkpt lat="43.10303" lon="-1.19564">
        <ele>233.767718</ele>
        <time>2026-05-22T09:33:06.000Z</time>
      </trkpt>
      <trkpt lat="43.10301" lon="-1.19563">
        <ele>233.790126</ele>
        <time>2026-05-22T09:33:07.000Z</time>
      </trkpt>
      <trkpt lat="43.10299" lon="-1.19563">
        <ele>233.808974</ele>
        <time>2026-05-22T09:33:08.000Z</time>
      </trkpt>
      <trkpt lat="43.10297" lon="-1.19561">
        <ele>233.825978</ele>
        <time>2026-05-22T09:33:09.000Z</time>
      </trkpt>
      <trkpt lat="43.10295" lon="-1.1956">
        <ele>233.843705</ele>
        <time>2026-05-22T09:33:10.000Z</time>
      </trkpt>
      <trkpt lat="43.10293" lon="-1.19559">
        <ele>233.861902</ele>
        <time>2026-05-22T09:33:11.000Z</time>
      </trkpt>
      <trkpt lat="43.10291" lon="-1.19558">
        <ele>233.881847</ele>
        <time>2026-05-22T09:33:12.000Z</time>
      </trkpt>
      <trkpt lat="43.10289" lon="-1.19558">
        <ele>233.90317</ele>
        <time>2026-05-22T09:33:13.000Z</time>
      </trkpt>
      <trkpt lat="43.10287" lon="-1.19557">
        <ele>233.924061</ele>
        <time>2026-05-22T09:33:14.000Z</time>
      </trkpt>
      <trkpt lat="43.10285" lon="-1.19557">
        <ele>233.94281</ele>
        <time>2026-05-22T09:33:15.000Z</time>
      </trkpt>
      <trkpt lat="43.10283" lon="-1.19557">
        <ele>233.961744</ele>
        <time>2026-05-22T09:33:16.000Z</time>
      </trkpt>
      <trkpt lat="43.10281" lon="-1.19556">
        <ele>233.98552</ele>
        <time>2026-05-22T09:33:17.000Z</time>
      </trkpt>
      <trkpt lat="43.10279" lon="-1.19556">
        <ele>234.0047</ele>
        <time>2026-05-22T09:33:18.000Z</time>
      </trkpt>
      <trkpt lat="43.10276" lon="-1.19556">
        <ele>234.024385</ele>
        <time>2026-05-22T09:33:19.000Z</time>
      </trkpt>
      <trkpt lat="43.10274" lon="-1.19555">
        <ele>234.044164</ele>
        <time>2026-05-22T09:33:20.000Z</time>
      </trkpt>
      <trkpt lat="43.10272" lon="-1.19555">
        <ele>234.064773</ele>
        <time>2026-05-22T09:33:21.000Z</time>
      </trkpt>
      <trkpt lat="43.1027" lon="-1.19556">
        <ele>234.085664</ele>
        <time>2026-05-22T09:33:22.000Z</time>
      </trkpt>
      <trkpt lat="43.10268" lon="-1.19556">
        <ele>234.107383</ele>
        <time>2026-05-22T09:33:23.000Z</time>
      </trkpt>
      <trkpt lat="43.10265" lon="-1.19557">
        <ele>234.130962</ele>
        <time>2026-05-22T09:33:24.000Z</time>
      </trkpt>
      <trkpt lat="43.10263" lon="-1.19557">
        <ele>234.152606</ele>
        <time>2026-05-22T09:33:25.000Z</time>
      </trkpt>
      <trkpt lat="43.10261" lon="-1.19557">
        <ele>234.174325</ele>
        <time>2026-05-22T09:33:26.000Z</time>
      </trkpt>
      <trkpt lat="43.10258" lon="-1.19558">
        <ele>234.197179</ele>
        <time>2026-05-22T09:33:27.000Z</time>
      </trkpt>
      <trkpt lat="43.10256" lon="-1.19559">
        <ele>234.222478</ele>
        <time>2026-05-22T09:33:28.000Z</time>
      </trkpt>
      <trkpt lat="43.10253" lon="-1.1956">
        <ele>234.247294</ele>
        <time>2026-05-22T09:33:29.000Z</time>
      </trkpt>
      <trkpt lat="43.1025" lon="-1.19561">
        <ele>234.273223</ele>
        <time>2026-05-22T09:33:30.000Z</time>
      </trkpt>
      <trkpt lat="43.10248" lon="-1.19562">
        <ele>234.297621</ele>
        <time>2026-05-22T09:33:31.000Z</time>
      </trkpt>
      <trkpt lat="43.10245" lon="-1.19563">
        <ele>234.324563</ele>
        <time>2026-05-22T09:33:32.000Z</time>
      </trkpt>
      <trkpt lat="43.10242" lon="-1.19564">
        <ele>234.350765</ele>
        <time>2026-05-22T09:33:33.000Z</time>
      </trkpt>
      <trkpt lat="43.1024" lon="-1.19566">
        <ele>234.376333</ele>
        <time>2026-05-22T09:33:34.000Z</time>
      </trkpt>
      <trkpt lat="43.10237" lon="-1.19567">
        <ele>234.402762</ele>
        <time>2026-05-22T09:33:35.000Z</time>
      </trkpt>
      <trkpt lat="43.10235" lon="-1.19569">
        <ele>234.430458</ele>
        <time>2026-05-22T09:33:36.000Z</time>
      </trkpt>
      <trkpt lat="43.10232" lon="-1.1957">
        <ele>234.456629</ele>
        <time>2026-05-22T09:33:37.000Z</time>
      </trkpt>
      <trkpt lat="43.10229" lon="-1.19572">
        <ele>234.487663</ele>
        <time>2026-05-22T09:33:38.000Z</time>
      </trkpt>
      <trkpt lat="43.10226" lon="-1.19573">
        <ele>234.519348</ele>
        <time>2026-05-22T09:33:39.000Z</time>
      </trkpt>
      <trkpt lat="43.10222" lon="-1.19575">
        <ele>234.55202</ele>
        <time>2026-05-22T09:33:40.000Z</time>
      </trkpt>
      <trkpt lat="43.10219" lon="-1.19577">
        <ele>234.586168</ele>
        <time>2026-05-22T09:33:41.000Z</time>
      </trkpt>
      <trkpt lat="43.10216" lon="-1.19579">
        <ele>234.620568</ele>
        <time>2026-05-22T09:33:42.000Z</time>
      </trkpt>
      <trkpt lat="43.10212" lon="-1.19581">
        <ele>234.656363</ele>
        <time>2026-05-22T09:33:43.000Z</time>
      </trkpt>
      <trkpt lat="43.10208" lon="-1.19583">
        <ele>234.694715</ele>
        <time>2026-05-22T09:33:44.000Z</time>
      </trkpt>
      <trkpt lat="43.10205" lon="-1.19586">
        <ele>234.734995</ele>
        <time>2026-05-22T09:33:45.000Z</time>
      </trkpt>
      <trkpt lat="43.10201" lon="-1.19589">
        <ele>234.773641</ele>
        <time>2026-05-22T09:33:46.000Z</time>
      </trkpt>
      <trkpt lat="43.10198" lon="-1.19593">
        <ele>234.810758</ele>
        <time>2026-05-22T09:33:47.000Z</time>
      </trkpt>
      <trkpt lat="43.10195" lon="-1.19596">
        <ele>234.850234</ele>
        <time>2026-05-22T09:33:48.000Z</time>
      </trkpt>
      <trkpt lat="43.10191" lon="-1.19599">
        <ele>234.89363</ele>
        <time>2026-05-22T09:33:49.000Z</time>
      </trkpt>
      <trkpt lat="43.10187" lon="-1.19602">
        <ele>234.936938</ele>
        <time>2026-05-22T09:33:50.000Z</time>
      </trkpt>
      <trkpt lat="43.10183" lon="-1.19606">
        <ele>234.984901</ele>
        <time>2026-05-22T09:33:51.000Z</time>
      </trkpt>
      <trkpt lat="43.10179" lon="-1.1961">
        <ele>235.031297</ele>
        <time>2026-05-22T09:33:52.000Z</time>
      </trkpt>
      <trkpt lat="43.10175" lon="-1.19615">
        <ele>235.078933</ele>
        <time>2026-05-22T09:33:53.000Z</time>
      </trkpt>
      <trkpt lat="43.10171" lon="-1.19619">
        <ele>235.125744</ele>
        <time>2026-05-22T09:33:54.000Z</time>
      </trkpt>
      <trkpt lat="43.10167" lon="-1.19625">
        <ele>235.176551</ele>
        <time>2026-05-22T09:33:55.000Z</time>
      </trkpt>
      <trkpt lat="43.10163" lon="-1.1963">
        <ele>235.229345</ele>
        <time>2026-05-22T09:33:56.000Z</time>
      </trkpt>
      <trkpt lat="43.10159" lon="-1.19636">
        <ele>235.286055</ele>
        <time>2026-05-22T09:33:57.000Z</time>
      </trkpt>
      <trkpt lat="43.10155" lon="-1.19643">
        <ele>235.347482</ele>
        <time>2026-05-22T09:33:58.000Z</time>
      </trkpt>
      <trkpt lat="43.1015" lon="-1.1965">
        <ele>235.361848</ele>
        <time>2026-05-22T09:33:59.000Z</time>
      </trkpt>
      <trkpt lat="43.10145" lon="-1.19657">
        <ele>235.359156</ele>
        <time>2026-05-22T09:34:00.000Z</time>
      </trkpt>
      <trkpt lat="43.1014" lon="-1.19664">
        <ele>235.356389</ele>
        <time>2026-05-22T09:34:01.000Z</time>
      </trkpt>
      <trkpt lat="43.10134" lon="-1.19671">
        <ele>235.353636</ele>
        <time>2026-05-22T09:34:02.000Z</time>
      </trkpt>
      <trkpt lat="43.10129" lon="-1.19677">
        <ele>235.350958</ele>
        <time>2026-05-22T09:34:03.000Z</time>
      </trkpt>
      <trkpt lat="43.10123" lon="-1.19682">
        <ele>235.348294</ele>
        <time>2026-05-22T09:34:04.000Z</time>
      </trkpt>
      <trkpt lat="43.10117" lon="-1.19687">
        <ele>235.345769</ele>
        <time>2026-05-22T09:34:05.000Z</time>
      </trkpt>
      <trkpt lat="43.10111" lon="-1.19691">
        <ele>235.343222</ele>
        <time>2026-05-22T09:34:06.000Z</time>
      </trkpt>
      <trkpt lat="43.10105" lon="-1.19695">
        <ele>235.340764</ele>
        <time>2026-05-22T09:34:07.000Z</time>
      </trkpt>
      <trkpt lat="43.10099" lon="-1.19699">
        <ele>235.338442</ele>
        <time>2026-05-22T09:34:08.000Z</time>
      </trkpt>
      <trkpt lat="43.10094" lon="-1.19702">
        <ele>235.336223</ele>
        <time>2026-05-22T09:34:09.000Z</time>
      </trkpt>
      <trkpt lat="43.10089" lon="-1.19706">
        <ele>235.334024</ele>
        <time>2026-05-22T09:34:10.000Z</time>
      </trkpt>
      <trkpt lat="43.10084" lon="-1.19709">
        <ele>235.33184</ele>
        <time>2026-05-22T09:34:11.000Z</time>
      </trkpt>
      <trkpt lat="43.10078" lon="-1.19713">
        <ele>235.329656</ele>
        <time>2026-05-22T09:34:12.000Z</time>
      </trkpt>
      <trkpt lat="43.10073" lon="-1.19716">
        <ele>235.327436</ele>
        <time>2026-05-22T09:34:13.000Z</time>
      </trkpt>
      <trkpt lat="43.10068" lon="-1.1972">
        <ele>235.325206</ele>
        <time>2026-05-22T09:34:14.000Z</time>
      </trkpt>
      <trkpt lat="43.10062" lon="-1.19723">
        <ele>235.322953</ele>
        <time>2026-05-22T09:34:15.000Z</time>
      </trkpt>
      <trkpt lat="43.10057" lon="-1.19727">
        <ele>235.320733</ele>
        <time>2026-05-22T09:34:16.000Z</time>
      </trkpt>
      <trkpt lat="43.10052" lon="-1.1973">
        <ele>235.318526</ele>
        <time>2026-05-22T09:34:17.000Z</time>
      </trkpt>
      <trkpt lat="43.10046" lon="-1.19733">
        <ele>235.31634</ele>
        <time>2026-05-22T09:34:18.000Z</time>
      </trkpt>
      <trkpt lat="43.10041" lon="-1.19736">
        <ele>235.314063</ele>
        <time>2026-05-22T09:34:19.000Z</time>
      </trkpt>
      <trkpt lat="43.10035" lon="-1.19739">
        <ele>235.311844</ele>
        <time>2026-05-22T09:34:20.000Z</time>
      </trkpt>
      <trkpt lat="43.1003" lon="-1.19743">
        <ele>235.309613</ele>
        <time>2026-05-22T09:34:21.000Z</time>
      </trkpt>
      <trkpt lat="43.10025" lon="-1.19745">
        <ele>235.307616</ele>
        <time>2026-05-22T09:34:22.000Z</time>
      </trkpt>
      <trkpt lat="43.1002" lon="-1.19747">
        <ele>235.305725</ele>
        <time>2026-05-22T09:34:23.000Z</time>
      </trkpt>
      <trkpt lat="43.10015" lon="-1.19749">
        <ele>235.303938</ele>
        <time>2026-05-22T09:34:24.000Z</time>
      </trkpt>
      <trkpt lat="43.10011" lon="-1.1975">
        <ele>235.302309</ele>
        <time>2026-05-22T09:34:25.000Z</time>
      </trkpt>
      <trkpt lat="43.10007" lon="-1.19752">
        <ele>235.300717</ele>
        <time>2026-05-22T09:34:26.000Z</time>
      </trkpt>
      <trkpt lat="43.10003" lon="-1.19754">
        <ele>235.299155</ele>
        <time>2026-05-22T09:34:27.000Z</time>
      </trkpt>
      <trkpt lat="43.09999" lon="-1.19756">
        <ele>235.297557</ele>
        <time>2026-05-22T09:34:28.000Z</time>
      </trkpt>
      <trkpt lat="43.09995" lon="-1.19758">
        <ele>235.310213</ele>
        <time>2026-05-22T09:34:29.000Z</time>
      </trkpt>
      <trkpt lat="43.09991" lon="-1.1976">
        <ele>235.364072</ele>
        <time>2026-05-22T09:34:30.000Z</time>
      </trkpt>
      <trkpt lat="43.09986" lon="-1.19762">
        <ele>235.418776</ele>
        <time>2026-05-22T09:34:31.000Z</time>
      </trkpt>
      <trkpt lat="43.09982" lon="-1.19764">
        <ele>235.472635</ele>
        <time>2026-05-22T09:34:32.000Z</time>
      </trkpt>
      <trkpt lat="43.09978" lon="-1.19766">
        <ele>235.529624</ele>
        <time>2026-05-22T09:34:33.000Z</time>
      </trkpt>
      <trkpt lat="43.09973" lon="-1.19768">
        <ele>235.586892</ele>
        <time>2026-05-22T09:34:34.000Z</time>
      </trkpt>
      <trkpt lat="43.09969" lon="-1.19771">
        <ele>235.64588</ele>
        <time>2026-05-22T09:34:35.000Z</time>
      </trkpt>
      <trkpt lat="43.09964" lon="-1.19773">
        <ele>235.702932</ele>
        <time>2026-05-22T09:34:36.000Z</time>
      </trkpt>
      <trkpt lat="43.0996" lon="-1.19775">
        <ele>235.758539</ele>
        <time>2026-05-22T09:34:37.000Z</time>
      </trkpt>
      <trkpt lat="43.09956" lon="-1.19778">
        <ele>235.811583</ele>
        <time>2026-05-22T09:34:38.000Z</time>
      </trkpt>
      <trkpt lat="43.09952" lon="-1.1978">
        <ele>235.864011</ele>
        <time>2026-05-22T09:34:39.000Z</time>
      </trkpt>
      <trkpt lat="43.09948" lon="-1.19782">
        <ele>235.917055</ele>
        <time>2026-05-22T09:34:40.000Z</time>
      </trkpt>
      <trkpt lat="43.09943" lon="-1.19784">
        <ele>235.971222</ele>
        <time>2026-05-22T09:34:41.000Z</time>
      </trkpt>
      <trkpt lat="43.09939" lon="-1.19786">
        <ele>236.027954</ele>
        <time>2026-05-22T09:34:42.000Z</time>
      </trkpt>
      <trkpt lat="43.09935" lon="-1.19789">
        <ele>236.086398</ele>
        <time>2026-05-22T09:34:43.000Z</time>
      </trkpt>
      <trkpt lat="43.0993" lon="-1.19792">
        <ele>236.146686</ele>
        <time>2026-05-22T09:34:44.000Z</time>
      </trkpt>
      <trkpt lat="43.09925" lon="-1.19795">
        <ele>236.211383</ele>
        <time>2026-05-22T09:34:45.000Z</time>
      </trkpt>
      <trkpt lat="43.0992" lon="-1.19799">
        <ele>236.276479</ele>
        <time>2026-05-22T09:34:46.000Z</time>
      </trkpt>
      <trkpt lat="43.09915" lon="-1.19803">
        <ele>236.345792</ele>
        <time>2026-05-22T09:34:47.000Z</time>
      </trkpt>
      <trkpt lat="43.09911" lon="-1.19807">
        <ele>236.414962</ele>
        <time>2026-05-22T09:34:48.000Z</time>
      </trkpt>
      <trkpt lat="43.09906" lon="-1.19811">
        <ele>236.484275</ele>
        <time>2026-05-22T09:34:49.000Z</time>
      </trkpt>
      <trkpt lat="43.09901" lon="-1.19814">
        <ele>236.548987</ele>
        <time>2026-05-22T09:34:50.000Z</time>
      </trkpt>
      <trkpt lat="43.09896" lon="-1.19818">
        <ele>236.61361</ele>
        <time>2026-05-22T09:34:51.000Z</time>
      </trkpt>
      <trkpt lat="43.09892" lon="-1.19822">
        <ele>236.673865</ele>
        <time>2026-05-22T09:34:52.000Z</time>
      </trkpt>
      <trkpt lat="43.09888" lon="-1.19825">
        <ele>236.735774</ele>
        <time>2026-05-22T09:34:53.000Z</time>
      </trkpt>
      <trkpt lat="43.09883" lon="-1.19829">
        <ele>236.796852</ele>
        <time>2026-05-22T09:34:54.000Z</time>
      </trkpt>
      <trkpt lat="43.09879" lon="-1.19832">
        <ele>236.855388</ele>
        <time>2026-05-22T09:34:55.000Z</time>
      </trkpt>
      <trkpt lat="43.09875" lon="-1.19835">
        <ele>236.910752</ele>
        <time>2026-05-22T09:34:56.000Z</time>
      </trkpt>
      <trkpt lat="43.09871" lon="-1.19838">
        <ele>236.966442</ele>
        <time>2026-05-22T09:34:57.000Z</time>
      </trkpt>
      <trkpt lat="43.09867" lon="-1.19841">
        <ele>237.026454</ele>
        <time>2026-05-22T09:34:58.000Z</time>
      </trkpt>
      <trkpt lat="43.09862" lon="-1.19844">
        <ele>237.088008</ele>
        <time>2026-05-22T09:34:59.000Z</time>
      </trkpt>
      <trkpt lat="43.09857" lon="-1.19846">
        <ele>237.146701</ele>
        <time>2026-05-22T09:35:00.000Z</time>
      </trkpt>
      <trkpt lat="43.09852" lon="-1.19848">
        <ele>237.205732</ele>
        <time>2026-05-22T09:35:01.000Z</time>
      </trkpt>
      <trkpt lat="43.09848" lon="-1.1985">
        <ele>237.265681</ele>
        <time>2026-05-22T09:35:02.000Z</time>
      </trkpt>
      <trkpt lat="43.09843" lon="-1.19851">
        <ele>237.328015</ele>
        <time>2026-05-22T09:35:03.000Z</time>
      </trkpt>
      <trkpt lat="43.09838" lon="-1.19852">
        <ele>237.389321</ele>
        <time>2026-05-22T09:35:04.000Z</time>
      </trkpt>
      <trkpt lat="43.09832" lon="-1.19852">
        <ele>237.452015</ele>
        <time>2026-05-22T09:35:05.000Z</time>
      </trkpt>
      <trkpt lat="43.09827" lon="-1.19852">
        <ele>237.589266</ele>
        <time>2026-05-22T09:35:06.000Z</time>
      </trkpt>
      <trkpt lat="43.09822" lon="-1.19852">
        <ele>237.73592</ele>
        <time>2026-05-22T09:35:07.000Z</time>
      </trkpt>
      <trkpt lat="43.09817" lon="-1.19852">
        <ele>237.879683</ele>
        <time>2026-05-22T09:35:08.000Z</time>
      </trkpt>
      <trkpt lat="43.09812" lon="-1.19852">
        <ele>238.01586</ele>
        <time>2026-05-22T09:35:09.000Z</time>
      </trkpt>
      <trkpt lat="43.09808" lon="-1.19851">
        <ele>238.140932</ele>
        <time>2026-05-22T09:35:10.000Z</time>
      </trkpt>
      <trkpt lat="43.09804" lon="-1.1985">
        <ele>238.257844</ele>
        <time>2026-05-22T09:35:11.000Z</time>
      </trkpt>
      <trkpt lat="43.098" lon="-1.19849">
        <ele>238.372774</ele>
        <time>2026-05-22T09:35:12.000Z</time>
      </trkpt>
      <trkpt lat="43.09796" lon="-1.19848">
        <ele>238.495347</ele>
        <time>2026-05-22T09:35:13.000Z</time>
      </trkpt>
      <trkpt lat="43.09792" lon="-1.19847">
        <ele>238.619854</ele>
        <time>2026-05-22T09:35:14.000Z</time>
      </trkpt>
      <trkpt lat="43.09787" lon="-1.19847">
        <ele>238.743508</ele>
        <time>2026-05-22T09:35:15.000Z</time>
      </trkpt>
      <trkpt lat="43.09783" lon="-1.19847">
        <ele>238.855957</ele>
        <time>2026-05-22T09:35:16.000Z</time>
      </trkpt>
      <trkpt lat="43.09779" lon="-1.19847">
        <ele>238.968093</ele>
        <time>2026-05-22T09:35:17.000Z</time>
      </trkpt>
      <trkpt lat="43.09776" lon="-1.19847">
        <ele>239.080933</ele>
        <time>2026-05-22T09:35:18.000Z</time>
      </trkpt>
      <trkpt lat="43.09772" lon="-1.19846">
        <ele>239.195017</ele>
        <time>2026-05-22T09:35:19.000Z</time>
      </trkpt>
      <trkpt lat="43.09768" lon="-1.19845">
        <ele>239.305561</ele>
        <time>2026-05-22T09:35:20.000Z</time>
      </trkpt>
      <trkpt lat="43.09764" lon="-1.19844">
        <ele>239.411615</ele>
        <time>2026-05-22T09:35:21.000Z</time>
      </trkpt>
      <trkpt lat="43.09761" lon="-1.19843">
        <ele>239.514416</ele>
        <time>2026-05-22T09:35:22.000Z</time>
      </trkpt>
      <trkpt lat="43.09757" lon="-1.19842">
        <ele>239.616443</ele>
        <time>2026-05-22T09:35:23.000Z</time>
      </trkpt>
      <trkpt lat="43.09754" lon="-1.19841">
        <ele>239.714764</ele>
        <time>2026-05-22T09:35:24.000Z</time>
      </trkpt>
      <trkpt lat="43.09751" lon="-1.19841">
        <ele>239.807369</ele>
        <time>2026-05-22T09:35:25.000Z</time>
      </trkpt>
      <trkpt lat="43.09747" lon="-1.1984">
        <ele>239.900898</ele>
        <time>2026-05-22T09:35:26.000Z</time>
      </trkpt>
      <trkpt lat="43.09744" lon="-1.19839">
        <ele>239.994073</ele>
        <time>2026-05-22T09:35:27.000Z</time>
      </trkpt>
      <trkpt lat="43.09741" lon="-1.19839">
        <ele>240.090432</ele>
        <time>2026-05-22T09:35:28.000Z</time>
      </trkpt>
      <trkpt lat="43.09738" lon="-1.19837">
        <ele>240.191385</ele>
        <time>2026-05-22T09:35:29.000Z</time>
      </trkpt>
      <trkpt lat="43.09734" lon="-1.19836">
        <ele>240.305093</ele>
        <time>2026-05-22T09:35:30.000Z</time>
      </trkpt>
      <trkpt lat="43.0973" lon="-1.19834">
        <ele>240.432946</ele>
        <time>2026-05-22T09:35:31.000Z</time>
      </trkpt>
      <trkpt lat="43.09725" lon="-1.19832">
        <ele>240.57033</ele>
        <time>2026-05-22T09:35:32.000Z</time>
      </trkpt>
      <trkpt lat="43.0972" lon="-1.1983">
        <ele>240.708477</ele>
        <time>2026-05-22T09:35:33.000Z</time>
      </trkpt>
      <trkpt lat="43.09715" lon="-1.19828">
        <ele>240.859478</ele>
        <time>2026-05-22T09:35:34.000Z</time>
      </trkpt>
      <trkpt lat="43.0971" lon="-1.19825">
        <ele>241.012523</ele>
        <time>2026-05-22T09:35:35.000Z</time>
      </trkpt>
      <trkpt lat="43.09706" lon="-1.19823">
        <ele>241.159447</ele>
        <time>2026-05-22T09:35:36.000Z</time>
      </trkpt>
      <trkpt lat="43.09701" lon="-1.1982">
        <ele>241.316661</ele>
        <time>2026-05-22T09:35:37.000Z</time>
      </trkpt>
      <trkpt lat="43.09696" lon="-1.19818">
        <ele>241.463584</ele>
        <time>2026-05-22T09:35:38.000Z</time>
      </trkpt>
      <trkpt lat="43.09691" lon="-1.19816">
        <ele>241.592868</ele>
        <time>2026-05-22T09:35:39.000Z</time>
      </trkpt>
      <trkpt lat="43.09687" lon="-1.19814">
        <ele>241.714888</ele>
        <time>2026-05-22T09:35:40.000Z</time>
      </trkpt>
      <trkpt lat="43.09684" lon="-1.19813">
        <ele>241.828596</ele>
        <time>2026-05-22T09:35:41.000Z</time>
      </trkpt>
      <trkpt lat="43.0968" lon="-1.19811">
        <ele>241.939544</ele>
        <time>2026-05-22T09:35:42.000Z</time>
      </trkpt>
      <trkpt lat="43.09677" lon="-1.1981">
        <ele>242.034077</ele>
        <time>2026-05-22T09:35:43.000Z</time>
      </trkpt>
      <trkpt lat="43.09674" lon="-1.19809">
        <ele>242.121183</ele>
        <time>2026-05-22T09:35:44.000Z</time>
      </trkpt>
      <trkpt lat="43.09671" lon="-1.19808">
        <ele>242.209959</ele>
        <time>2026-05-22T09:35:45.000Z</time>
      </trkpt>
      <trkpt lat="43.09668" lon="-1.19807">
        <ele>242.306706</ele>
        <time>2026-05-22T09:35:46.000Z</time>
      </trkpt>
      <trkpt lat="43.09665" lon="-1.19806">
        <ele>242.395483</ele>
        <time>2026-05-22T09:35:47.000Z</time>
      </trkpt>
      <trkpt lat="43.09662" lon="-1.19804">
        <ele>242.483219</ele>
        <time>2026-05-22T09:35:48.000Z</time>
      </trkpt>
      <trkpt lat="43.09659" lon="-1.19803">
        <ele>242.577074</ele>
        <time>2026-05-22T09:35:49.000Z</time>
      </trkpt>
      <trkpt lat="43.09655" lon="-1.19801">
        <ele>242.650011</ele>
        <time>2026-05-22T09:35:50.000Z</time>
      </trkpt>
      <trkpt lat="43.09652" lon="-1.198">
        <ele>242.688442</ele>
        <time>2026-05-22T09:35:51.000Z</time>
      </trkpt>
      <trkpt lat="43.09649" lon="-1.19799">
        <ele>242.728823</ele>
        <time>2026-05-22T09:35:52.000Z</time>
      </trkpt>
      <trkpt lat="43.09645" lon="-1.19797">
        <ele>242.766949</ele>
        <time>2026-05-22T09:35:53.000Z</time>
      </trkpt>
      <trkpt lat="43.09642" lon="-1.19795">
        <ele>242.807338</ele>
        <time>2026-05-22T09:35:54.000Z</time>
      </trkpt>
      <trkpt lat="43.09639" lon="-1.19794">
        <ele>242.849181</ele>
        <time>2026-05-22T09:35:55.000Z</time>
      </trkpt>
      <trkpt lat="43.09635" lon="-1.19792">
        <ele>242.890743</ele>
        <time>2026-05-22T09:35:56.000Z</time>
      </trkpt>
      <trkpt lat="43.09632" lon="-1.1979">
        <ele>242.930979</ele>
        <time>2026-05-22T09:35:57.000Z</time>
      </trkpt>
      <trkpt lat="43.09628" lon="-1.19789">
        <ele>242.974166</ele>
        <time>2026-05-22T09:35:58.000Z</time>
      </trkpt>
      <trkpt lat="43.09624" lon="-1.19787">
        <ele>243.015834</ele>
        <time>2026-05-22T09:35:59.000Z</time>
      </trkpt>
      <trkpt lat="43.0962" lon="-1.19786">
        <ele>243.061495</ele>
        <time>2026-05-22T09:36:00.000Z</time>
      </trkpt>
      <trkpt lat="43.09616" lon="-1.19785">
        <ele>243.10606</ele>
        <time>2026-05-22T09:36:01.000Z</time>
      </trkpt>
      <trkpt lat="43.09613" lon="-1.19784">
        <ele>243.147983</ele>
        <time>2026-05-22T09:36:02.000Z</time>
      </trkpt>
      <trkpt lat="43.09609" lon="-1.19783">
        <ele>243.189265</ele>
        <time>2026-05-22T09:36:03.000Z</time>
      </trkpt>
      <trkpt lat="43.09606" lon="-1.19782">
        <ele>243.229</ele>
        <time>2026-05-22T09:36:04.000Z</time>
      </trkpt>
      <trkpt lat="43.09602" lon="-1.1978">
        <ele>243.270563</ele>
        <time>2026-05-22T09:36:05.000Z</time>
      </trkpt>
      <trkpt lat="43.09599" lon="-1.19779">
        <ele>243.312922</ele>
        <time>2026-05-22T09:36:06.000Z</time>
      </trkpt>
      <trkpt lat="43.09595" lon="-1.19778">
        <ele>243.355647</ele>
        <time>2026-05-22T09:36:07.000Z</time>
      </trkpt>
      <trkpt lat="43.09591" lon="-1.19777">
        <ele>243.399484</ele>
        <time>2026-05-22T09:36:08.000Z</time>
      </trkpt>
      <trkpt lat="43.09587" lon="-1.19775">
        <ele>243.444225</ele>
        <time>2026-05-22T09:36:09.000Z</time>
      </trkpt>
      <trkpt lat="43.09583" lon="-1.19773">
        <ele>243.490031</ele>
        <time>2026-05-22T09:36:10.000Z</time>
      </trkpt>
      <trkpt lat="43.09579" lon="-1.19772">
        <ele>243.536092</ele>
        <time>2026-05-22T09:36:11.000Z</time>
      </trkpt>
      <trkpt lat="43.09575" lon="-1.1977">
        <ele>243.584036</ele>
        <time>2026-05-22T09:36:12.000Z</time>
      </trkpt>
      <trkpt lat="43.09571" lon="-1.19769">
        <ele>243.631327</ele>
        <time>2026-05-22T09:36:13.000Z</time>
      </trkpt>
      <trkpt lat="43.09567" lon="-1.19767">
        <ele>243.677134</ele>
        <time>2026-05-22T09:36:14.000Z</time>
      </trkpt>
      <trkpt lat="43.09563" lon="-1.19766">
        <ele>243.723743</ele>
        <time>2026-05-22T09:36:15.000Z</time>
      </trkpt>
      <trkpt lat="43.09559" lon="-1.19765">
        <ele>243.7727</ele>
        <time>2026-05-22T09:36:16.000Z</time>
      </trkpt>
      <trkpt lat="43.09555" lon="-1.19763">
        <ele>243.821278</ele>
        <time>2026-05-22T09:36:17.000Z</time>
      </trkpt>
      <trkpt lat="43.09551" lon="-1.19762">
        <ele>243.86729</ele>
        <time>2026-05-22T09:36:18.000Z</time>
      </trkpt>
      <trkpt lat="43.09547" lon="-1.1976">
        <ele>243.912291</ele>
        <time>2026-05-22T09:36:19.000Z</time>
      </trkpt>
      <trkpt lat="43.09543" lon="-1.19758">
        <ele>243.957436</ele>
        <time>2026-05-22T09:36:20.000Z</time>
      </trkpt>
      <trkpt lat="43.0954" lon="-1.19756">
        <ele>244.001557</ele>
        <time>2026-05-22T09:36:21.000Z</time>
      </trkpt>
      <trkpt lat="43.09536" lon="-1.19754">
        <ele>244.045235</ele>
        <time>2026-05-22T09:36:22.000Z</time>
      </trkpt>
      <trkpt lat="43.09532" lon="-1.19752">
        <ele>244.09318</ele>
        <time>2026-05-22T09:36:23.000Z</time>
      </trkpt>
      <trkpt lat="43.09528" lon="-1.1975">
        <ele>244.141623</ele>
        <time>2026-05-22T09:36:24.000Z</time>
      </trkpt>
      <trkpt lat="43.09524" lon="-1.19748">
        <ele>244.191127</ele>
        <time>2026-05-22T09:36:25.000Z</time>
      </trkpt>
      <trkpt lat="43.09519" lon="-1.19746">
        <ele>244.241752</ele>
        <time>2026-05-22T09:36:26.000Z</time>
      </trkpt>
      <trkpt lat="43.09515" lon="-1.19743">
        <ele>244.295544</ele>
        <time>2026-05-22T09:36:27.000Z</time>
      </trkpt>
      <trkpt lat="43.09511" lon="-1.19739">
        <ele>244.353266</ele>
        <time>2026-05-22T09:36:28.000Z</time>
      </trkpt>
      <trkpt lat="43.09507" lon="-1.19734">
        <ele>244.413342</ele>
        <time>2026-05-22T09:36:29.000Z</time>
      </trkpt>
      <trkpt lat="43.09503" lon="-1.19729">
        <ele>244.478151</ele>
        <time>2026-05-22T09:36:30.000Z</time>
      </trkpt>
      <trkpt lat="43.09498" lon="-1.19723">
        <ele>244.544124</ele>
        <time>2026-05-22T09:36:31.000Z</time>
      </trkpt>
      <trkpt lat="43.09494" lon="-1.19717">
        <ele>244.613704</ele>
        <time>2026-05-22T09:36:32.000Z</time>
      </trkpt>
      <trkpt lat="43.0949" lon="-1.1971">
        <ele>244.698282</ele>
        <time>2026-05-22T09:36:33.000Z</time>
      </trkpt>
      <trkpt lat="43.09487" lon="-1.19703">
        <ele>244.797242</ele>
        <time>2026-05-22T09:36:34.000Z</time>
      </trkpt>
      <trkpt lat="43.09483" lon="-1.19697">
        <ele>244.893337</ele>
        <time>2026-05-22T09:36:35.000Z</time>
      </trkpt>
      <trkpt lat="43.0948" lon="-1.1969">
        <ele>244.988486</ele>
        <time>2026-05-22T09:36:36.000Z</time>
      </trkpt>
      <trkpt lat="43.09476" lon="-1.19683">
        <ele>245.084583</ele>
        <time>2026-05-22T09:36:37.000Z</time>
      </trkpt>
      <trkpt lat="43.09472" lon="-1.19677">
        <ele>245.182155</ele>
        <time>2026-05-22T09:36:38.000Z</time>
      </trkpt>
      <trkpt lat="43.09467" lon="-1.19671">
        <ele>245.281674</ele>
        <time>2026-05-22T09:36:39.000Z</time>
      </trkpt>
      <trkpt lat="43.09463" lon="-1.19666">
        <ele>245.383166</ele>
        <time>2026-05-22T09:36:40.000Z</time>
      </trkpt>
      <trkpt lat="43.09458" lon="-1.1966">
        <ele>245.485615</ele>
        <time>2026-05-22T09:36:41.000Z</time>
      </trkpt>
      <trkpt lat="43.09453" lon="-1.19655">
        <ele>245.587337</ele>
        <time>2026-05-22T09:36:42.000Z</time>
      </trkpt>
      <trkpt lat="43.09447" lon="-1.1965">
        <ele>245.690179</ele>
        <time>2026-05-22T09:36:43.000Z</time>
      </trkpt>
      <trkpt lat="43.09442" lon="-1.19646">
        <ele>245.791966</ele>
        <time>2026-05-22T09:36:44.000Z</time>
      </trkpt>
      <trkpt lat="43.09436" lon="-1.19643">
        <ele>245.891284</ele>
        <time>2026-05-22T09:36:45.000Z</time>
      </trkpt>
      <trkpt lat="43.0943" lon="-1.19639">
        <ele>245.992656</ele>
        <time>2026-05-22T09:36:46.000Z</time>
      </trkpt>
      <trkpt lat="43.09424" lon="-1.19636">
        <ele>246.093605</ele>
        <time>2026-05-22T09:36:47.000Z</time>
      </trkpt>
      <trkpt lat="43.09419" lon="-1.19633">
        <ele>246.188178</ele>
        <time>2026-05-22T09:36:48.000Z</time>
      </trkpt>
      <trkpt lat="43.09413" lon="-1.1963">
        <ele>246.278925</ele>
        <time>2026-05-22T09:36:49.000Z</time>
      </trkpt>
      <trkpt lat="43.09408" lon="-1.19628">
        <ele>246.366271</ele>
        <time>2026-05-22T09:36:50.000Z</time>
      </trkpt>
      <trkpt lat="43.09404" lon="-1.19625">
        <ele>246.445329</ele>
        <time>2026-05-22T09:36:51.000Z</time>
      </trkpt>
      <trkpt lat="43.094" lon="-1.19623">
        <ele>246.511455</ele>
        <time>2026-05-22T09:36:52.000Z</time>
      </trkpt>
      <trkpt lat="43.09396" lon="-1.19621">
        <ele>246.575436</ele>
        <time>2026-05-22T09:36:53.000Z</time>
      </trkpt>
      <trkpt lat="43.09392" lon="-1.19619">
        <ele>246.639916</ele>
        <time>2026-05-22T09:36:54.000Z</time>
      </trkpt>
      <trkpt lat="43.09389" lon="-1.19617">
        <ele>246.70006</ele>
        <time>2026-05-22T09:36:55.000Z</time>
      </trkpt>
      <trkpt lat="43.09385" lon="-1.19616">
        <ele>246.755378</ele>
        <time>2026-05-22T09:36:56.000Z</time>
      </trkpt>
      <trkpt lat="43.09382" lon="-1.19616">
        <ele>246.811399</ele>
        <time>2026-05-22T09:36:57.000Z</time>
      </trkpt>
      <trkpt lat="43.09378" lon="-1.19615">
        <ele>246.872504</ele>
        <time>2026-05-22T09:36:58.000Z</time>
      </trkpt>
      <trkpt lat="43.09374" lon="-1.19614">
        <ele>246.937917</ele>
        <time>2026-05-22T09:36:59.000Z</time>
      </trkpt>
      <trkpt lat="43.0937" lon="-1.19613">
        <ele>247.004249</ele>
        <time>2026-05-22T09:37:00.000Z</time>
      </trkpt>
      <trkpt lat="43.09366" lon="-1.19612">
        <ele>247.071988</ele>
        <time>2026-05-22T09:37:01.000Z</time>
      </trkpt>
      <trkpt lat="43.09362" lon="-1.19611">
        <ele>247.135167</ele>
        <time>2026-05-22T09:37:02.000Z</time>
      </trkpt>
      <trkpt lat="43.09358" lon="-1.1961">
        <ele>247.197736</ele>
        <time>2026-05-22T09:37:03.000Z</time>
      </trkpt>
      <trkpt lat="43.09355" lon="-1.19609">
        <ele>247.25395</ele>
        <time>2026-05-22T09:37:04.000Z</time>
      </trkpt>
      <trkpt lat="43.09351" lon="-1.19609">
        <ele>247.308463</ele>
        <time>2026-05-22T09:37:05.000Z</time>
      </trkpt>
      <trkpt lat="43.09348" lon="-1.19608">
        <ele>247.363573</ele>
        <time>2026-05-22T09:37:06.000Z</time>
      </trkpt>
      <trkpt lat="43.09345" lon="-1.19607">
        <ele>247.417564</ele>
        <time>2026-05-22T09:37:07.000Z</time>
      </trkpt>
      <trkpt lat="43.09341" lon="-1.19606">
        <ele>247.4752</ele>
        <time>2026-05-22T09:37:08.000Z</time>
      </trkpt>
      <trkpt lat="43.09337" lon="-1.19605">
        <ele>247.580163</ele>
        <time>2026-05-22T09:37:09.000Z</time>
      </trkpt>
      <trkpt lat="43.09333" lon="-1.19604">
        <ele>247.834735</ele>
        <time>2026-05-22T09:37:10.000Z</time>
      </trkpt>
      <trkpt lat="43.0933" lon="-1.19603">
        <ele>248.088329</ele>
        <time>2026-05-22T09:37:11.000Z</time>
      </trkpt>
      <trkpt lat="43.09326" lon="-1.19602">
        <ele>248.348163</ele>
        <time>2026-05-22T09:37:12.000Z</time>
      </trkpt>
      <trkpt lat="43.09322" lon="-1.196">
        <ele>248.611101</ele>
        <time>2026-05-22T09:37:13.000Z</time>
      </trkpt>
      <trkpt lat="43.09318" lon="-1.19599">
        <ele>248.862966</ele>
        <time>2026-05-22T09:37:14.000Z</time>
      </trkpt>
      <trkpt lat="43.09314" lon="-1.19597">
        <ele>249.093484</ele>
        <time>2026-05-22T09:37:15.000Z</time>
      </trkpt>
      <trkpt lat="43.09311" lon="-1.19596">
        <ele>249.291276</ele>
        <time>2026-05-22T09:37:16.000Z</time>
      </trkpt>
      <trkpt lat="43.09309" lon="-1.19595">
        <ele>249.459197</ele>
        <time>2026-05-22T09:37:17.000Z</time>
      </trkpt>
      <trkpt lat="43.09306" lon="-1.19594">
        <ele>249.628912</ele>
        <time>2026-05-22T09:37:18.000Z</time>
      </trkpt>
      <trkpt lat="43.09304" lon="-1.19593">
        <ele>249.790095</ele>
        <time>2026-05-22T09:37:19.000Z</time>
      </trkpt>
      <trkpt lat="43.09302" lon="-1.19592">
        <ele>249.933288</ele>
        <time>2026-05-22T09:37:20.000Z</time>
      </trkpt>
      <trkpt lat="43.09299" lon="-1.19591">
        <ele>250.091756</ele>
        <time>2026-05-22T09:37:21.000Z</time>
      </trkpt>
      <trkpt lat="43.09297" lon="-1.1959">
        <ele>250.246912</ele>
        <time>2026-05-22T09:37:22.000Z</time>
      </trkpt>
      <trkpt lat="43.09295" lon="-1.1959">
        <ele>250.400397</ele>
        <time>2026-05-22T09:37:23.000Z</time>
      </trkpt>
      <trkpt lat="43.09292" lon="-1.19589">
        <ele>250.546951</ele>
        <time>2026-05-22T09:37:24.000Z</time>
      </trkpt>
      <trkpt lat="43.0929" lon="-1.19589">
        <ele>250.693727</ele>
        <time>2026-05-22T09:37:25.000Z</time>
      </trkpt>
      <trkpt lat="43.09288" lon="-1.19588">
        <ele>250.832548</ele>
        <time>2026-05-22T09:37:26.000Z</time>
      </trkpt>
      <trkpt lat="43.09286" lon="-1.19588">
        <ele>250.967017</ele>
        <time>2026-05-22T09:37:27.000Z</time>
      </trkpt>
      <trkpt lat="43.09284" lon="-1.19588">
        <ele>251.088023</ele>
        <time>2026-05-22T09:37:28.000Z</time>
      </trkpt>
      <trkpt lat="43.09283" lon="-1.19588">
        <ele>251.158693</ele>
        <time>2026-05-22T09:37:29.000Z</time>
      </trkpt>
      <trkpt lat="43.09283" lon="-1.19588">
        <ele>251.172253</ele>
        <time>2026-05-22T09:37:30.000Z</time>
      </trkpt>
      <trkpt lat="43.0928" lon="-1.19589">
        <ele>251.334765</ele>
        <time>2026-05-22T09:37:57.000Z</time>
      </trkpt>
      <trkpt lat="43.09279" lon="-1.19589">
        <ele>251.426909</ele>
        <time>2026-05-22T09:37:58.000Z</time>
      </trkpt>
      <trkpt lat="43.09277" lon="-1.19589">
        <ele>251.528915</ele>
        <time>2026-05-22T09:37:59.000Z</time>
      </trkpt>
      <trkpt lat="43.09275" lon="-1.19588">
        <ele>251.645051</ele>
        <time>2026-05-22T09:38:00.000Z</time>
      </trkpt>
      <trkpt lat="43.09274" lon="-1.19588">
        <ele>251.746951</ele>
        <time>2026-05-22T09:38:01.000Z</time>
      </trkpt>
      <trkpt lat="43.09272" lon="-1.19588">
        <ele>251.837198</ele>
        <time>2026-05-22T09:38:02.000Z</time>
      </trkpt>
      <trkpt lat="43.09271" lon="-1.19588">
        <ele>251.93318</ele>
        <time>2026-05-22T09:38:03.000Z</time>
      </trkpt>
      <trkpt lat="43.09269" lon="-1.19588">
        <ele>252.047817</ele>
        <time>2026-05-22T09:38:04.000Z</time>
      </trkpt>
      <trkpt lat="43.09267" lon="-1.19588">
        <ele>252.175531</ele>
        <time>2026-05-22T09:38:05.000Z</time>
      </trkpt>
      <trkpt lat="43.09265" lon="-1.19589">
        <ele>252.305166</ele>
        <time>2026-05-22T09:38:06.000Z</time>
      </trkpt>
      <trkpt lat="43.09263" lon="-1.1959">
        <ele>252.440765</ele>
        <time>2026-05-22T09:38:07.000Z</time>
      </trkpt>
      <trkpt lat="43.09261" lon="-1.19591">
        <ele>252.600051</ele>
        <time>2026-05-22T09:38:08.000Z</time>
      </trkpt>
      <trkpt lat="43.09258" lon="-1.19591">
        <ele>252.772006</ele>
        <time>2026-05-22T09:38:09.000Z</time>
      </trkpt>
      <trkpt lat="43.09255" lon="-1.19591">
        <ele>252.944024</ele>
        <time>2026-05-22T09:38:10.000Z</time>
      </trkpt>
      <trkpt lat="43.09253" lon="-1.1959">
        <ele>253.116544</ele>
        <time>2026-05-22T09:38:11.000Z</time>
      </trkpt>
      <trkpt lat="43.0925" lon="-1.1959">
        <ele>253.260389</ele>
        <time>2026-05-22T09:38:12.000Z</time>
      </trkpt>
      <trkpt lat="43.09249" lon="-1.19589">
        <ele>253.372399</ele>
        <time>2026-05-22T09:38:13.000Z</time>
      </trkpt>
      <trkpt lat="43.09247" lon="-1.19588">
        <ele>253.461363</ele>
        <time>2026-05-22T09:38:14.000Z</time>
      </trkpt>
      <trkpt lat="43.09246" lon="-1.19587">
        <ele>253.55479</ele>
        <time>2026-05-22T09:38:15.000Z</time>
      </trkpt>
      <trkpt lat="43.09244" lon="-1.19587">
        <ele>253.660441</ele>
        <time>2026-05-22T09:38:16.000Z</time>
      </trkpt>
      <trkpt lat="43.09243" lon="-1.19586">
        <ele>253.783661</ele>
        <time>2026-05-22T09:38:17.000Z</time>
      </trkpt>
      <trkpt lat="43.09241" lon="-1.19586">
        <ele>253.900632</ele>
        <time>2026-05-22T09:38:18.000Z</time>
      </trkpt>
      <trkpt lat="43.09239" lon="-1.19586">
        <ele>254.034698</ele>
        <time>2026-05-22T09:38:19.000Z</time>
      </trkpt>
      <trkpt lat="43.09236" lon="-1.19586">
        <ele>254.18583</ele>
        <time>2026-05-22T09:38:20.000Z</time>
      </trkpt>
      <trkpt lat="43.09234" lon="-1.19587">
        <ele>254.352458</ele>
        <time>2026-05-22T09:38:21.000Z</time>
      </trkpt>
      <trkpt lat="43.09231" lon="-1.19587">
        <ele>254.518306</ele>
        <time>2026-05-22T09:38:22.000Z</time>
      </trkpt>
      <trkpt lat="43.09229" lon="-1.19587">
        <ele>254.677592</ele>
        <time>2026-05-22T09:38:23.000Z</time>
      </trkpt>
      <trkpt lat="43.09226" lon="-1.19587">
        <ele>254.837081</ele>
        <time>2026-05-22T09:38:24.000Z</time>
      </trkpt>
      <trkpt lat="43.09224" lon="-1.19587">
        <ele>255.002667</ele>
        <time>2026-05-22T09:38:25.000Z</time>
      </trkpt>
      <trkpt lat="43.09221" lon="-1.19587">
        <ele>255.161885</ele>
        <time>2026-05-22T09:38:26.000Z</time>
      </trkpt>
      <trkpt lat="43.09219" lon="-1.19587">
        <ele>255.314805</ele>
        <time>2026-05-22T09:38:27.000Z</time>
      </trkpt>
      <trkpt lat="43.09216" lon="-1.19587">
        <ele>255.474633</ele>
        <time>2026-05-22T09:38:28.000Z</time>
      </trkpt>
      <trkpt lat="43.09214" lon="-1.19587">
        <ele>255.634461</ele>
        <time>2026-05-22T09:38:29.000Z</time>
      </trkpt>
      <trkpt lat="43.09211" lon="-1.19588">
        <ele>255.796106</ele>
        <time>2026-05-22T09:38:30.000Z</time>
      </trkpt>
      <trkpt lat="43.09209" lon="-1.19588">
        <ele>255.961953</ele>
        <time>2026-05-22T09:38:31.000Z</time>
      </trkpt>
      <trkpt lat="43.09206" lon="-1.19588">
        <ele>256.128126</ele>
        <time>2026-05-22T09:38:32.000Z</time>
      </trkpt>
      <trkpt lat="43.09203" lon="-1.19587">
        <ele>256.289771</ele>
        <time>2026-05-22T09:38:33.000Z</time>
      </trkpt>
      <trkpt lat="43.09201" lon="-1.19586">
        <ele>256.463976</ele>
        <time>2026-05-22T09:38:34.000Z</time>
      </trkpt>
      <trkpt lat="43.09198" lon="-1.19586">
        <ele>256.636496</ele>
        <time>2026-05-22T09:38:35.000Z</time>
      </trkpt>
      <trkpt lat="43.09195" lon="-1.19586">
        <ele>256.809455</ele>
        <time>2026-05-22T09:38:36.000Z</time>
      </trkpt>
      <trkpt lat="43.09193" lon="-1.19585">
        <ele>256.982413</ele>
        <time>2026-05-22T09:38:37.000Z</time>
      </trkpt>
      <trkpt lat="43.0919" lon="-1.19585">
        <ele>257.131528</ele>
        <time>2026-05-22T09:38:38.000Z</time>
      </trkpt>
      <trkpt lat="43.09188" lon="-1.19584">
        <ele>257.301243</ele>
        <time>2026-05-22T09:38:39.000Z</time>
      </trkpt>
      <trkpt lat="43.09185" lon="-1.19583">
        <ele>257.4564</ele>
        <time>2026-05-22T09:38:40.000Z</time>
      </trkpt>
      <trkpt lat="43.09183" lon="-1.19582">
        <ele>257.597999</ele>
        <time>2026-05-22T09:38:41.000Z</time>
      </trkpt>
      <trkpt lat="43.09181" lon="-1.19581">
        <ele>257.740862</ele>
        <time>2026-05-22T09:38:42.000Z</time>
      </trkpt>
      <trkpt lat="43.09179" lon="-1.19581">
        <ele>257.882204</ele>
        <time>2026-05-22T09:38:43.000Z</time>
      </trkpt>
      <trkpt lat="43.09177" lon="-1.1958">
        <ele>258.017803</ele>
        <time>2026-05-22T09:38:44.000Z</time>
      </trkpt>
      <trkpt lat="43.09175" lon="-1.19579">
        <ele>258.149179</ele>
        <time>2026-05-22T09:38:45.000Z</time>
      </trkpt>
      <trkpt lat="43.09173" lon="-1.19577">
        <ele>258.278783</ele>
        <time>2026-05-22T09:38:46.000Z</time>
      </trkpt>
      <trkpt lat="43.09172" lon="-1.19576">
        <ele>258.398529</ele>
        <time>2026-05-22T09:38:47.000Z</time>
      </trkpt>
      <trkpt lat="43.0917" lon="-1.19575">
        <ele>258.504779</ele>
        <time>2026-05-22T09:38:48.000Z</time>
      </trkpt>
      <trkpt lat="43.09168" lon="-1.19574">
        <ele>258.622614</ele>
        <time>2026-05-22T09:38:49.000Z</time>
      </trkpt>
      <trkpt lat="43.09167" lon="-1.19573">
        <ele>258.744654</ele>
        <time>2026-05-22T09:38:50.000Z</time>
      </trkpt>
      <trkpt lat="43.09165" lon="-1.19572">
        <ele>258.870188</ele>
        <time>2026-05-22T09:38:51.000Z</time>
      </trkpt>
      <trkpt lat="43.09163" lon="-1.19571">
        <ele>258.997062</ele>
        <time>2026-05-22T09:38:52.000Z</time>
      </trkpt>
      <trkpt lat="43.09161" lon="-1.1957">
        <ele>259.161964</ele>
        <time>2026-05-22T09:38:53.000Z</time>
      </trkpt>
      <trkpt lat="43.09159" lon="-1.19569">
        <ele>259.326865</ele>
        <time>2026-05-22T09:38:54.000Z</time>
      </trkpt>
      <trkpt lat="43.09158" lon="-1.19568">
        <ele>259.492824</ele>
        <time>2026-05-22T09:38:55.000Z</time>
      </trkpt>
      <trkpt lat="43.09156" lon="-1.19566">
        <ele>259.665397</ele>
        <time>2026-05-22T09:38:56.000Z</time>
      </trkpt>
      <trkpt lat="43.09154" lon="-1.19564">
        <ele>259.837971</ele>
        <time>2026-05-22T09:38:57.000Z</time>
      </trkpt>
      <trkpt lat="43.09153" lon="-1.19563">
        <ele>260.00019</ele>
        <time>2026-05-22T09:38:58.000Z</time>
      </trkpt>
      <trkpt lat="43.09151" lon="-1.19561">
        <ele>260.169611</ele>
        <time>2026-05-22T09:38:59.000Z</time>
      </trkpt>
      <trkpt lat="43.0915" lon="-1.19559">
        <ele>260.342846</ele>
        <time>2026-05-22T09:39:00.000Z</time>
      </trkpt>
      <trkpt lat="43.09148" lon="-1.19558">
        <ele>260.525774</ele>
        <time>2026-05-22T09:39:01.000Z</time>
      </trkpt>
      <trkpt lat="43.09146" lon="-1.19556">
        <ele>260.71224</ele>
        <time>2026-05-22T09:39:02.000Z</time>
      </trkpt>
      <trkpt lat="43.09144" lon="-1.19554">
        <ele>260.89177</ele>
        <time>2026-05-22T09:39:03.000Z</time>
      </trkpt>
      <trkpt lat="43.09142" lon="-1.19553">
        <ele>261.072274</ele>
        <time>2026-05-22T09:39:04.000Z</time>
      </trkpt>
      <trkpt lat="43.0914" lon="-1.19551">
        <ele>261.258739</ele>
        <time>2026-05-22T09:39:05.000Z</time>
      </trkpt>
      <trkpt lat="43.09139" lon="-1.19549">
        <ele>261.456568</ele>
        <time>2026-05-22T09:39:06.000Z</time>
      </trkpt>
      <trkpt lat="43.09137" lon="-1.19547">
        <ele>261.667412</ele>
        <time>2026-05-22T09:39:07.000Z</time>
      </trkpt>
      <trkpt lat="43.09135" lon="-1.19545">
        <ele>261.877981</ele>
        <time>2026-05-22T09:39:08.000Z</time>
      </trkpt>
      <trkpt lat="43.09133" lon="-1.19543">
        <ele>262.074805</ele>
        <time>2026-05-22T09:39:09.000Z</time>
      </trkpt>
      <trkpt lat="43.09131" lon="-1.19541">
        <ele>262.27163</ele>
        <time>2026-05-22T09:39:10.000Z</time>
      </trkpt>
      <trkpt lat="43.09129" lon="-1.19539">
        <ele>262.489173</ele>
        <time>2026-05-22T09:39:11.000Z</time>
      </trkpt>
      <trkpt lat="43.09127" lon="-1.19537">
        <ele>262.70379</ele>
        <time>2026-05-22T09:39:12.000Z</time>
      </trkpt>
      <trkpt lat="43.09124" lon="-1.19535">
        <ele>262.924706</ele>
        <time>2026-05-22T09:39:13.000Z</time>
      </trkpt>
      <trkpt lat="43.09122" lon="-1.19533">
        <ele>263.149424</ele>
        <time>2026-05-22T09:39:14.000Z</time>
      </trkpt>
      <trkpt lat="43.0912" lon="-1.19531">
        <ele>263.368081</ele>
        <time>2026-05-22T09:39:15.000Z</time>
      </trkpt>
      <trkpt lat="43.09118" lon="-1.1953">
        <ele>263.569128</ele>
        <time>2026-05-22T09:39:16.000Z</time>
      </trkpt>
      <trkpt lat="43.09116" lon="-1.19528">
        <ele>263.762908</ele>
        <time>2026-05-22T09:39:17.000Z</time>
      </trkpt>
      <trkpt lat="43.09114" lon="-1.19526">
        <ele>263.963955</ele>
        <time>2026-05-22T09:39:18.000Z</time>
      </trkpt>
      <trkpt lat="43.09111" lon="-1.19525">
        <ele>264.172353</ele>
        <time>2026-05-22T09:39:19.000Z</time>
      </trkpt>
      <trkpt lat="43.09109" lon="-1.19523">
        <ele>264.375306</ele>
        <time>2026-05-22T09:39:20.000Z</time>
      </trkpt>
      <trkpt lat="43.09107" lon="-1.19522">
        <ele>264.55581</ele>
        <time>2026-05-22T09:39:21.000Z</time>
      </trkpt>
      <trkpt lat="43.09105" lon="-1.19521">
        <ele>264.73612</ele>
        <time>2026-05-22T09:39:22.000Z</time>
      </trkpt>
      <trkpt lat="43.09104" lon="-1.1952">
        <ele>264.903604</ele>
        <time>2026-05-22T09:39:23.000Z</time>
      </trkpt>
      <trkpt lat="43.09102" lon="-1.19519">
        <ele>265.071089</ele>
        <time>2026-05-22T09:39:24.000Z</time>
      </trkpt>
      <trkpt lat="43.091" lon="-1.19517">
        <ele>265.235991</ele>
        <time>2026-05-22T09:39:25.000Z</time>
      </trkpt>
      <trkpt lat="43.09098" lon="-1.19516">
        <ele>265.400892</ele>
        <time>2026-05-22T09:39:26.000Z</time>
      </trkpt>
      <trkpt lat="43.09096" lon="-1.19515">
        <ele>265.553372</ele>
        <time>2026-05-22T09:39:27.000Z</time>
      </trkpt>
      <trkpt lat="43.09095" lon="-1.19514">
        <ele>265.692942</ele>
        <time>2026-05-22T09:39:28.000Z</time>
      </trkpt>
      <trkpt lat="43.09094" lon="-1.19513">
        <ele>265.827976</ele>
        <time>2026-05-22T09:39:29.000Z</time>
      </trkpt>
      <trkpt lat="43.09092" lon="-1.19512">
        <ele>265.976486</ele>
        <time>2026-05-22T09:39:30.000Z</time>
      </trkpt>
      <trkpt lat="43.0909" lon="-1.19511">
        <ele>266.129103</ele>
        <time>2026-05-22T09:39:31.000Z</time>
      </trkpt>
      <trkpt lat="43.09089" lon="-1.1951">
        <ele>266.276241</ele>
        <time>2026-05-22T09:39:32.000Z</time>
      </trkpt>
      <trkpt lat="43.09087" lon="-1.19509">
        <ele>266.410912</ele>
        <time>2026-05-22T09:39:33.000Z</time>
      </trkpt>
      <trkpt lat="43.09086" lon="-1.19508">
        <ele>266.535598</ele>
        <time>2026-05-22T09:39:34.000Z</time>
      </trkpt>
      <trkpt lat="43.09085" lon="-1.19508">
        <ele>266.655243</ele>
        <time>2026-05-22T09:39:35.000Z</time>
      </trkpt>
      <trkpt lat="43.09083" lon="-1.19508">
        <ele>266.773792</ele>
        <time>2026-05-22T09:39:36.000Z</time>
      </trkpt>
      <trkpt lat="43.09082" lon="-1.19507">
        <ele>266.898478</ele>
        <time>2026-05-22T09:39:37.000Z</time>
      </trkpt>
      <trkpt lat="43.0908" lon="-1.19506">
        <ele>267.038049</ele>
        <time>2026-05-22T09:39:38.000Z</time>
      </trkpt>
      <trkpt lat="43.09079" lon="-1.19505">
        <ele>267.170624</ele>
        <time>2026-05-22T09:39:39.000Z</time>
      </trkpt>
      <trkpt lat="43.09077" lon="-1.19504">
        <ele>267.289859</ele>
        <time>2026-05-22T09:39:40.000Z</time>
      </trkpt>
      <trkpt lat="43.09076" lon="-1.19504">
        <ele>267.39898</ele>
        <time>2026-05-22T09:39:41.000Z</time>
      </trkpt>
      <trkpt lat="43.09075" lon="-1.19503">
        <ele>267.513748</ele>
        <time>2026-05-22T09:39:42.000Z</time>
      </trkpt>
      <trkpt lat="43.09074" lon="-1.19503">
        <ele>267.636473</ele>
        <time>2026-05-22T09:39:43.000Z</time>
      </trkpt>
      <trkpt lat="43.09072" lon="-1.19502">
        <ele>267.769049</ele>
        <time>2026-05-22T09:39:44.000Z</time>
      </trkpt>
      <trkpt lat="43.0907" lon="-1.19501">
        <ele>267.907832</ele>
        <time>2026-05-22T09:39:45.000Z</time>
      </trkpt>
      <trkpt lat="43.09069" lon="-1.19501">
        <ele>268.038565</ele>
        <time>2026-05-22T09:39:46.000Z</time>
      </trkpt>
      <trkpt lat="43.09067" lon="-1.195">
        <ele>268.167719</ele>
        <time>2026-05-22T09:39:47.000Z</time>
      </trkpt>
      <trkpt lat="43.09066" lon="-1.195">
        <ele>268.279188</ele>
        <time>2026-05-22T09:39:48.000Z</time>
      </trkpt>
      <trkpt lat="43.09065" lon="-1.19499">
        <ele>268.392153</ele>
        <time>2026-05-22T09:39:49.000Z</time>
      </trkpt>
      <trkpt lat="43.09063" lon="-1.19499">
        <ele>268.521306</ele>
        <time>2026-05-22T09:39:50.000Z</time>
      </trkpt>
      <trkpt lat="43.09062" lon="-1.19498">
        <ele>268.649153</ele>
        <time>2026-05-22T09:39:51.000Z</time>
      </trkpt>
      <trkpt lat="43.0906" lon="-1.19498">
        <ele>268.771878</ele>
        <time>2026-05-22T09:39:52.000Z</time>
      </trkpt>
      <trkpt lat="43.09059" lon="-1.19497">
        <ele>268.886646</ele>
        <time>2026-05-22T09:39:53.000Z</time>
      </trkpt>
      <trkpt lat="43.09058" lon="-1.19497">
        <ele>268.991582</ele>
        <time>2026-05-22T09:39:54.000Z</time>
      </trkpt>
      <trkpt lat="43.09057" lon="-1.19496">
        <ele>269.111227</ele>
        <time>2026-05-22T09:39:55.000Z</time>
      </trkpt>
      <trkpt lat="43.09055" lon="-1.19496">
        <ele>269.239073</ele>
        <time>2026-05-22T09:39:56.000Z</time>
      </trkpt>
      <trkpt lat="43.09054" lon="-1.19496">
        <ele>269.365894</ele>
        <time>2026-05-22T09:39:57.000Z</time>
      </trkpt>
      <trkpt lat="43.09052" lon="-1.19495">
        <ele>269.491531</ele>
        <time>2026-05-22T09:39:58.000Z</time>
      </trkpt>
      <trkpt lat="43.0905" lon="-1.19495">
        <ele>269.635836</ele>
        <time>2026-05-22T09:39:59.000Z</time>
      </trkpt>
      <trkpt lat="43.09049" lon="-1.19495">
        <ele>269.779233</ele>
        <time>2026-05-22T09:40:00.000Z</time>
      </trkpt>
      <trkpt lat="43.09047" lon="-1.19495">
        <ele>269.913644</ele>
        <time>2026-05-22T09:40:01.000Z</time>
      </trkpt>
      <trkpt lat="43.09045" lon="-1.19494">
        <ele>270.049712</ele>
        <time>2026-05-22T09:40:02.000Z</time>
      </trkpt>
      <trkpt lat="43.09044" lon="-1.19494">
        <ele>270.176532</ele>
        <time>2026-05-22T09:40:03.000Z</time>
      </trkpt>
      <trkpt lat="43.09043" lon="-1.19493">
        <ele>270.297573</ele>
        <time>2026-05-22T09:40:04.000Z</time>
      </trkpt>
      <trkpt lat="43.09041" lon="-1.19493">
        <ele>270.438094</ele>
        <time>2026-05-22T09:40:05.000Z</time>
      </trkpt>
      <trkpt lat="43.09039" lon="-1.19492">
        <ele>270.57539</ele>
        <time>2026-05-22T09:40:06.000Z</time>
      </trkpt>
      <trkpt lat="43.09038" lon="-1.19492">
        <ele>270.711457</ele>
        <time>2026-05-22T09:40:07.000Z</time>
      </trkpt>
      <trkpt lat="43.09036" lon="-1.19491">
        <ele>270.85024</ele>
        <time>2026-05-22T09:40:08.000Z</time>
      </trkpt>
      <trkpt lat="43.09035" lon="-1.1949">
        <ele>270.982816</ele>
        <time>2026-05-22T09:40:09.000Z</time>
      </trkpt>
      <trkpt lat="43.09033" lon="-1.1949">
        <ele>271.09968</ele>
        <time>2026-05-22T09:40:10.000Z</time>
      </trkpt>
      <trkpt lat="43.09032" lon="-1.19489">
        <ele>271.234351</ele>
        <time>2026-05-22T09:40:11.000Z</time>
      </trkpt>
      <trkpt lat="43.0903" lon="-1.19488">
        <ele>271.371357</ele>
        <time>2026-05-22T09:40:12.000Z</time>
      </trkpt>
      <trkpt lat="43.09029" lon="-1.19487">
        <ele>271.503457</ele>
        <time>2026-05-22T09:40:13.000Z</time>
      </trkpt>
      <trkpt lat="43.09028" lon="-1.19486">
        <ele>271.638491</ele>
        <time>2026-05-22T09:40:14.000Z</time>
      </trkpt>
      <trkpt lat="43.09026" lon="-1.19485">
        <ele>271.776667</ele>
        <time>2026-05-22T09:40:15.000Z</time>
      </trkpt>
      <trkpt lat="43.09025" lon="-1.19484">
        <ele>271.921375</ele>
        <time>2026-05-22T09:40:16.000Z</time>
      </trkpt>
      <trkpt lat="43.09023" lon="-1.19483">
        <ele>272.046062</ele>
        <time>2026-05-22T09:40:17.000Z</time>
      </trkpt>
      <trkpt lat="43.09022" lon="-1.19482">
        <ele>272.167928</ele>
        <time>2026-05-22T09:40:18.000Z</time>
      </trkpt>
      <trkpt lat="43.0902" lon="-1.19481">
        <ele>272.309441</ele>
        <time>2026-05-22T09:40:19.000Z</time>
      </trkpt>
      <trkpt lat="43.09019" lon="-1.1948">
        <ele>272.433752</ele>
        <time>2026-05-22T09:40:20.000Z</time>
      </trkpt>
      <trkpt lat="43.09018" lon="-1.19479">
        <ele>272.561597</ele>
        <time>2026-05-22T09:40:21.000Z</time>
      </trkpt>
      <trkpt lat="43.09017" lon="-1.19478">
        <ele>272.682406</ele>
        <time>2026-05-22T09:40:22.000Z</time>
      </trkpt>
      <trkpt lat="43.09015" lon="-1.19476">
        <ele>272.813566</ele>
        <time>2026-05-22T09:40:23.000Z</time>
      </trkpt>
      <trkpt lat="43.09014" lon="-1.19475">
        <ele>272.941412</ele>
        <time>2026-05-22T09:40:24.000Z</time>
      </trkpt>
      <trkpt lat="43.09013" lon="-1.19474">
        <ele>273.083763</ele>
        <time>2026-05-22T09:40:25.000Z</time>
      </trkpt>
      <trkpt lat="43.09011" lon="-1.19473">
        <ele>273.249511</ele>
        <time>2026-05-22T09:40:26.000Z</time>
      </trkpt>
      <trkpt lat="43.0901" lon="-1.19471">
        <ele>273.38544</ele>
        <time>2026-05-22T09:40:27.000Z</time>
      </trkpt>
      <trkpt lat="43.09009" lon="-1.1947">
        <ele>273.521369</ele>
        <time>2026-05-22T09:40:28.000Z</time>
      </trkpt>
      <trkpt lat="43.09007" lon="-1.19468">
        <ele>273.662881</ele>
        <time>2026-05-22T09:40:29.000Z</time>
      </trkpt>
      <trkpt lat="43.09006" lon="-1.19467">
        <ele>273.804394</ele>
        <time>2026-05-22T09:40:30.000Z</time>
      </trkpt>
      <trkpt lat="43.09004" lon="-1.19466">
        <ele>273.957011</ele>
        <time>2026-05-22T09:40:31.000Z</time>
      </trkpt>
      <trkpt lat="43.09003" lon="-1.19465">
        <ele>274.039186</ele>
        <time>2026-05-22T09:40:32.000Z</time>
      </trkpt>
      <trkpt lat="43.09001" lon="-1.19463">
        <ele>274.06677</ele>
        <time>2026-05-22T09:40:33.000Z</time>
      </trkpt>
      <trkpt lat="43.09" lon="-1.19462">
        <ele>274.095077</ele>
        <time>2026-05-22T09:40:34.000Z</time>
      </trkpt>
      <trkpt lat="43.08998" lon="-1.19461">
        <ele>274.12148</ele>
        <time>2026-05-22T09:40:35.000Z</time>
      </trkpt>
      <trkpt lat="43.08997" lon="-1.1946">
        <ele>274.147883</ele>
        <time>2026-05-22T09:40:36.000Z</time>
      </trkpt>
      <trkpt lat="43.08995" lon="-1.19459">
        <ele>274.175174</ele>
        <time>2026-05-22T09:40:37.000Z</time>
      </trkpt>
      <trkpt lat="43.08993" lon="-1.19457">
        <ele>274.205388</ele>
        <time>2026-05-22T09:40:38.000Z</time>
      </trkpt>
      <trkpt lat="43.08992" lon="-1.19456">
        <ele>274.235601</ele>
        <time>2026-05-22T09:40:39.000Z</time>
      </trkpt>
      <trkpt lat="43.0899" lon="-1.19455">
        <ele>274.267179</ele>
        <time>2026-05-22T09:40:40.000Z</time>
      </trkpt>
      <trkpt lat="43.08988" lon="-1.19453">
        <ele>274.300137</ele>
        <time>2026-05-22T09:40:41.000Z</time>
      </trkpt>
      <trkpt lat="43.08986" lon="-1.19452">
        <ele>274.332146</ele>
        <time>2026-05-22T09:40:42.000Z</time>
      </trkpt>
      <trkpt lat="43.08984" lon="-1.19451">
        <ele>274.364155</ele>
        <time>2026-05-22T09:40:43.000Z</time>
      </trkpt>
      <trkpt lat="43.08982" lon="-1.1945">
        <ele>274.399464</ele>
        <time>2026-05-22T09:40:44.000Z</time>
      </trkpt>
      <trkpt lat="43.0898" lon="-1.19449">
        <ele>274.433608</ele>
        <time>2026-05-22T09:40:45.000Z</time>
      </trkpt>
      <trkpt lat="43.08978" lon="-1.19448">
        <ele>274.467753</ele>
        <time>2026-05-22T09:40:46.000Z</time>
      </trkpt>
      <trkpt lat="43.08976" lon="-1.19448">
        <ele>274.504084</ele>
        <time>2026-05-22T09:40:47.000Z</time>
      </trkpt>
      <trkpt lat="43.08973" lon="-1.19447">
        <ele>274.54006</ele>
        <time>2026-05-22T09:40:48.000Z</time>
      </trkpt>
      <trkpt lat="43.08971" lon="-1.19447">
        <ele>274.574868</ele>
        <time>2026-05-22T09:40:49.000Z</time>
      </trkpt>
      <trkpt lat="43.08969" lon="-1.19446">
        <ele>274.606415</ele>
        <time>2026-05-22T09:40:50.000Z</time>
      </trkpt>
      <trkpt lat="43.08967" lon="-1.19446">
        <ele>274.64381</ele>
        <time>2026-05-22T09:40:51.000Z</time>
      </trkpt>
      <trkpt lat="43.08964" lon="-1.19446">
        <ele>274.679499</ele>
        <time>2026-05-22T09:40:52.000Z</time>
      </trkpt>
      <trkpt lat="43.08962" lon="-1.19446">
        <ele>274.715206</ele>
        <time>2026-05-22T09:40:53.000Z</time>
      </trkpt>
      <trkpt lat="43.0896" lon="-1.19446">
        <ele>274.752464</ele>
        <time>2026-05-22T09:40:54.000Z</time>
      </trkpt>
      <trkpt lat="43.08957" lon="-1.19445">
        <ele>274.78986</ele>
        <time>2026-05-22T09:40:55.000Z</time>
      </trkpt>
      <trkpt lat="43.08955" lon="-1.19445">
        <ele>274.828801</ele>
        <time>2026-05-22T09:40:56.000Z</time>
      </trkpt>
      <trkpt lat="43.08952" lon="-1.19445">
        <ele>274.86766</ele>
        <time>2026-05-22T09:40:57.000Z</time>
      </trkpt>
      <trkpt lat="43.0895" lon="-1.19444">
        <ele>274.906716</ele>
        <time>2026-05-22T09:40:58.000Z</time>
      </trkpt>
      <trkpt lat="43.08947" lon="-1.19444">
        <ele>274.94763</ele>
        <time>2026-05-22T09:40:59.000Z</time>
      </trkpt>
      <trkpt lat="43.08944" lon="-1.19443">
        <ele>274.98977</ele>
        <time>2026-05-22T09:41:00.000Z</time>
      </trkpt>
      <trkpt lat="43.08942" lon="-1.19443">
        <ele>275.035125</ele>
        <time>2026-05-22T09:41:01.000Z</time>
      </trkpt>
      <trkpt lat="43.08939" lon="-1.19442">
        <ele>275.079101</ele>
        <time>2026-05-22T09:41:02.000Z</time>
      </trkpt>
      <trkpt lat="43.08936" lon="-1.19442">
        <ele>275.126323</ele>
        <time>2026-05-22T09:41:03.000Z</time>
      </trkpt>
      <trkpt lat="43.08933" lon="-1.19441">
        <ele>275.175272</ele>
        <time>2026-05-22T09:41:04.000Z</time>
      </trkpt>
      <trkpt lat="43.0893" lon="-1.1944">
        <ele>275.222928</ele>
        <time>2026-05-22T09:41:05.000Z</time>
      </trkpt>
      <trkpt lat="43.08927" lon="-1.19439">
        <ele>275.270583</ele>
        <time>2026-05-22T09:41:06.000Z</time>
      </trkpt>
      <trkpt lat="43.08924" lon="-1.19439">
        <ele>275.317477</ele>
        <time>2026-05-22T09:41:07.000Z</time>
      </trkpt>
      <trkpt lat="43.08921" lon="-1.19438">
        <ele>275.3657</ele>
        <time>2026-05-22T09:41:08.000Z</time>
      </trkpt>
      <trkpt lat="43.08917" lon="-1.19438">
        <ele>275.415406</ele>
        <time>2026-05-22T09:41:09.000Z</time>
      </trkpt>
      <trkpt lat="43.08914" lon="-1.19438">
        <ele>275.463522</ele>
        <time>2026-05-22T09:41:10.000Z</time>
      </trkpt>
      <trkpt lat="43.08911" lon="-1.19438">
        <ele>275.513228</ele>
        <time>2026-05-22T09:41:11.000Z</time>
      </trkpt>
      <trkpt lat="43.08908" lon="-1.19437">
        <ele>275.562999</ele>
        <time>2026-05-22T09:41:12.000Z</time>
      </trkpt>
      <trkpt lat="43.08904" lon="-1.19437">
        <ele>275.617415</ele>
        <time>2026-05-22T09:41:13.000Z</time>
      </trkpt>
      <trkpt lat="43.08901" lon="-1.19437">
        <ele>275.67346</ele>
        <time>2026-05-22T09:41:14.000Z</time>
      </trkpt>
      <trkpt lat="43.08897" lon="-1.19436">
        <ele>275.732696</ele>
        <time>2026-05-22T09:41:15.000Z</time>
      </trkpt>
      <trkpt lat="43.08893" lon="-1.19436">
        <ele>275.791932</ele>
        <time>2026-05-22T09:41:16.000Z</time>
      </trkpt>
      <trkpt lat="43.08889" lon="-1.19435">
        <ele>275.852966</ele>
        <time>2026-05-22T09:41:17.000Z</time>
      </trkpt>
      <trkpt lat="43.08885" lon="-1.19435">
        <ele>275.913493</ele>
        <time>2026-05-22T09:41:18.000Z</time>
      </trkpt>
      <trkpt lat="43.08881" lon="-1.19435">
        <ele>275.975726</ele>
        <time>2026-05-22T09:41:19.000Z</time>
      </trkpt>
      <trkpt lat="43.08877" lon="-1.19435">
        <ele>276.039346</ele>
        <time>2026-05-22T09:41:20.000Z</time>
      </trkpt>
      <trkpt lat="43.08873" lon="-1.19435">
        <ele>276.107621</ele>
        <time>2026-05-22T09:41:21.000Z</time>
      </trkpt>
      <trkpt lat="43.08868" lon="-1.19435">
        <ele>276.179008</ele>
        <time>2026-05-22T09:41:22.000Z</time>
      </trkpt>
      <trkpt lat="43.08864" lon="-1.19435">
        <ele>276.252079</ele>
        <time>2026-05-22T09:41:23.000Z</time>
      </trkpt>
      <trkpt lat="43.08858" lon="-1.19435">
        <ele>276.331288</ele>
        <time>2026-05-22T09:41:24.000Z</time>
      </trkpt>
      <trkpt lat="43.08853" lon="-1.19436">
        <ele>276.411232</ele>
        <time>2026-05-22T09:41:25.000Z</time>
      </trkpt>
      <trkpt lat="43.08848" lon="-1.19438">
        <ele>276.49721</ele>
        <time>2026-05-22T09:41:26.000Z</time>
      </trkpt>
      <trkpt lat="43.08843" lon="-1.1944">
        <ele>276.583188</ele>
        <time>2026-05-22T09:41:27.000Z</time>
      </trkpt>
      <trkpt lat="43.08837" lon="-1.19442">
        <ele>276.66946</ele>
        <time>2026-05-22T09:41:28.000Z</time>
      </trkpt>
      <trkpt lat="43.08832" lon="-1.19444">
        <ele>276.756882</ele>
        <time>2026-05-22T09:41:29.000Z</time>
      </trkpt>
      <trkpt lat="43.08826" lon="-1.19446">
        <ele>276.692454</ele>
        <time>2026-05-22T09:41:30.000Z</time>
      </trkpt>
      <trkpt lat="43.0882" lon="-1.19449">
        <ele>276.340151</ele>
        <time>2026-05-22T09:41:31.000Z</time>
      </trkpt>
      <trkpt lat="43.08814" lon="-1.19451">
        <ele>275.981298</ele>
        <time>2026-05-22T09:41:32.000Z</time>
      </trkpt>
      <trkpt lat="43.08808" lon="-1.19453">
        <ele>275.604039</ele>
        <time>2026-05-22T09:41:33.000Z</time>
      </trkpt>
      <trkpt lat="43.08801" lon="-1.19454">
        <ele>275.213448</ele>
        <time>2026-05-22T09:41:34.000Z</time>
      </trkpt>
      <trkpt lat="43.08794" lon="-1.19455">
        <ele>274.816003</ele>
        <time>2026-05-22T09:41:35.000Z</time>
      </trkpt>
      <trkpt lat="43.08787" lon="-1.19457">
        <ele>274.418559</ele>
        <time>2026-05-22T09:41:36.000Z</time>
      </trkpt>
      <trkpt lat="43.0878" lon="-1.19458">
        <ele>273.995541</ele>
        <time>2026-05-22T09:41:37.000Z</time>
      </trkpt>
      <trkpt lat="43.08772" lon="-1.19458">
        <ele>273.551639</ele>
        <time>2026-05-22T09:41:38.000Z</time>
      </trkpt>
      <trkpt lat="43.08764" lon="-1.19458">
        <ele>273.095851</ele>
        <time>2026-05-22T09:41:39.000Z</time>
      </trkpt>
      <trkpt lat="43.08756" lon="-1.19456">
        <ele>272.641545</ele>
        <time>2026-05-22T09:41:40.000Z</time>
      </trkpt>
      <trkpt lat="43.08748" lon="-1.19453">
        <ele>272.184965</ele>
        <time>2026-05-22T09:41:41.000Z</time>
      </trkpt>
      <trkpt lat="43.08741" lon="-1.19449">
        <ele>271.717919</ele>
        <time>2026-05-22T09:41:42.000Z</time>
      </trkpt>
      <trkpt lat="43.08732" lon="-1.19444">
        <ele>271.210598</ele>
        <time>2026-05-22T09:41:43.000Z</time>
      </trkpt>
      <trkpt lat="43.08724" lon="-1.19439">
        <ele>270.682693</ele>
        <time>2026-05-22T09:41:44.000Z</time>
      </trkpt>
      <trkpt lat="43.08715" lon="-1.19433">
        <ele>270.134814</ele>
        <time>2026-05-22T09:41:45.000Z</time>
      </trkpt>
      <trkpt lat="43.08706" lon="-1.19426">
        <ele>269.555967</ele>
        <time>2026-05-22T09:41:46.000Z</time>
      </trkpt>
      <trkpt lat="43.08697" lon="-1.19419">
        <ele>268.956201</ele>
        <time>2026-05-22T09:41:47.000Z</time>
      </trkpt>
      <trkpt lat="43.08688" lon="-1.19413">
        <ele>268.352048</ele>
        <time>2026-05-22T09:41:48.000Z</time>
      </trkpt>
      <trkpt lat="43.08678" lon="-1.19406">
        <ele>267.718714</ele>
        <time>2026-05-22T09:41:49.000Z</time>
      </trkpt>
      <trkpt lat="43.08667" lon="-1.19399">
        <ele>267.067781</ele>
        <time>2026-05-22T09:41:50.000Z</time>
      </trkpt>
      <trkpt lat="43.08657" lon="-1.19391">
        <ele>266.70841</ele>
        <time>2026-05-22T09:41:51.000Z</time>
      </trkpt>
      <trkpt lat="43.08647" lon="-1.19384">
        <ele>267.186734</ele>
        <time>2026-05-22T09:41:52.000Z</time>
      </trkpt>
      <trkpt lat="43.08637" lon="-1.19377">
        <ele>267.643166</ele>
        <time>2026-05-22T09:41:53.000Z</time>
      </trkpt>
      <trkpt lat="43.08629" lon="-1.19369">
        <ele>268.076201</ele>
        <time>2026-05-22T09:41:54.000Z</time>
      </trkpt>
      <trkpt lat="43.0862" lon="-1.19361">
        <ele>268.487168</ele>
        <time>2026-05-22T09:41:55.000Z</time>
      </trkpt>
      <trkpt lat="43.08613" lon="-1.19353">
        <ele>268.879474</ele>
        <time>2026-05-22T09:41:56.000Z</time>
      </trkpt>
      <trkpt lat="43.08606" lon="-1.19346">
        <ele>269.22636</ele>
        <time>2026-05-22T09:41:57.000Z</time>
      </trkpt>
      <trkpt lat="43.086" lon="-1.1934">
        <ele>269.538055</ele>
        <time>2026-05-22T09:41:58.000Z</time>
      </trkpt>
      <trkpt lat="43.08595" lon="-1.19334">
        <ele>269.816784</ele>
        <time>2026-05-22T09:41:59.000Z</time>
      </trkpt>
      <trkpt lat="43.0859" lon="-1.19328">
        <ele>270.062311</ele>
        <time>2026-05-22T09:42:00.000Z</time>
      </trkpt>
      <trkpt lat="43.08586" lon="-1.19324">
        <ele>270.276726</ele>
        <time>2026-05-22T09:42:01.000Z</time>
      </trkpt>
      <trkpt lat="43.08582" lon="-1.1932">
        <ele>270.482826</ele>
        <time>2026-05-22T09:42:02.000Z</time>
      </trkpt>
      <trkpt lat="43.08578" lon="-1.19315">
        <ele>270.699108</ele>
        <time>2026-05-22T09:42:03.000Z</time>
      </trkpt>
      <trkpt lat="43.08575" lon="-1.19311">
        <ele>270.87544</ele>
        <time>2026-05-22T09:42:04.000Z</time>
      </trkpt>
      <trkpt lat="43.08572" lon="-1.19308">
        <ele>271.038593</ele>
        <time>2026-05-22T09:42:05.000Z</time>
      </trkpt>
      <trkpt lat="43.08569" lon="-1.19305">
        <ele>271.167916</ele>
        <time>2026-05-22T09:42:06.000Z</time>
      </trkpt>
      <trkpt lat="43.08567" lon="-1.19303">
        <ele>271.312422</ele>
        <time>2026-05-22T09:42:07.000Z</time>
      </trkpt>
      <trkpt lat="43.08564" lon="-1.193">
        <ele>271.447286</ele>
        <time>2026-05-22T09:42:08.000Z</time>
      </trkpt>
      <trkpt lat="43.08561" lon="-1.19297">
        <ele>271.579805</ele>
        <time>2026-05-22T09:42:09.000Z</time>
      </trkpt>
      <trkpt lat="43.08559" lon="-1.19295">
        <ele>271.707214</ele>
        <time>2026-05-22T09:42:10.000Z</time>
      </trkpt>
      <trkpt lat="43.08556" lon="-1.19293">
        <ele>271.835025</ele>
        <time>2026-05-22T09:42:11.000Z</time>
      </trkpt>
      <trkpt lat="43.08554" lon="-1.1929">
        <ele>271.955602</ele>
        <time>2026-05-22T09:42:12.000Z</time>
      </trkpt>
      <trkpt lat="43.08552" lon="-1.19288">
        <ele>272.069533</ele>
        <time>2026-05-22T09:42:13.000Z</time>
      </trkpt>
      <trkpt lat="43.0855" lon="-1.19286">
        <ele>272.169728</ele>
        <time>2026-05-22T09:42:14.000Z</time>
      </trkpt>
      <trkpt lat="43.08547" lon="-1.19284">
        <ele>272.280948</ele>
        <time>2026-05-22T09:42:15.000Z</time>
      </trkpt>
      <trkpt lat="43.08545" lon="-1.19282">
        <ele>272.398177</ele>
        <time>2026-05-22T09:42:16.000Z</time>
      </trkpt>
      <trkpt lat="43.08543" lon="-1.1928">
        <ele>272.514711</ele>
        <time>2026-05-22T09:42:17.000Z</time>
      </trkpt>
      <trkpt lat="43.0854" lon="-1.19278">
        <ele>272.623752</ele>
        <time>2026-05-22T09:42:18.000Z</time>
      </trkpt>
      <trkpt lat="43.08538" lon="-1.19276">
        <ele>272.732342</ele>
        <time>2026-05-22T09:42:19.000Z</time>
      </trkpt>
      <trkpt lat="43.08536" lon="-1.19275">
        <ele>272.833501</ele>
        <time>2026-05-22T09:42:20.000Z</time>
      </trkpt>
      <trkpt lat="43.08534" lon="-1.19273">
        <ele>272.932012</ele>
        <time>2026-05-22T09:42:21.000Z</time>
      </trkpt>
      <trkpt lat="43.08532" lon="-1.19271">
        <ele>273.039047</ele>
        <time>2026-05-22T09:42:22.000Z</time>
      </trkpt>
      <trkpt lat="43.0853" lon="-1.19269">
        <ele>273.139552</ele>
        <time>2026-05-22T09:42:23.000Z</time>
      </trkpt>
      <trkpt lat="43.08528" lon="-1.19267">
        <ele>273.233793</ele>
        <time>2026-05-22T09:42:24.000Z</time>
      </trkpt>
      <trkpt lat="43.08527" lon="-1.19264">
        <ele>273.331477</ele>
        <time>2026-05-22T09:42:25.000Z</time>
      </trkpt>
      <trkpt lat="43.08525" lon="-1.19262">
        <ele>273.432816</ele>
        <time>2026-05-22T09:42:26.000Z</time>
      </trkpt>
      <trkpt lat="43.08523" lon="-1.1926">
        <ele>273.52507</ele>
        <time>2026-05-22T09:42:27.000Z</time>
      </trkpt>
      <trkpt lat="43.08521" lon="-1.19258">
        <ele>273.618402</ele>
        <time>2026-05-22T09:42:28.000Z</time>
      </trkpt>
      <trkpt lat="43.0852" lon="-1.19256">
        <ele>273.70458</ele>
        <time>2026-05-22T09:42:29.000Z</time>
      </trkpt>
      <trkpt lat="43.08518" lon="-1.19254">
        <ele>273.796324</ele>
        <time>2026-05-22T09:42:30.000Z</time>
      </trkpt>
      <trkpt lat="43.08517" lon="-1.19253">
        <ele>273.871044</ele>
        <time>2026-05-22T09:42:31.000Z</time>
      </trkpt>
      <trkpt lat="43.08515" lon="-1.19251">
        <ele>273.951191</ele>
        <time>2026-05-22T09:42:32.000Z</time>
      </trkpt>
      <trkpt lat="43.08513" lon="-1.19249">
        <ele>274.008379</ele>
        <time>2026-05-22T09:42:33.000Z</time>
      </trkpt>
      <trkpt lat="43.08512" lon="-1.19248">
        <ele>274.043633</ele>
        <time>2026-05-22T09:42:34.000Z</time>
      </trkpt>
      <trkpt lat="43.0851" lon="-1.19247">
        <ele>274.078262</ele>
        <time>2026-05-22T09:42:35.000Z</time>
      </trkpt>
      <trkpt lat="43.08509" lon="-1.19245">
        <ele>274.109715</ele>
        <time>2026-05-22T09:42:36.000Z</time>
      </trkpt>
      <trkpt lat="43.08507" lon="-1.19244">
        <ele>274.145827</ele>
        <time>2026-05-22T09:42:37.000Z</time>
      </trkpt>
      <trkpt lat="43.08506" lon="-1.19242">
        <ele>274.179043</ele>
        <time>2026-05-22T09:42:38.000Z</time>
      </trkpt>
      <trkpt lat="43.08504" lon="-1.1924">
        <ele>274.217388</ele>
        <time>2026-05-22T09:42:39.000Z</time>
      </trkpt>
      <trkpt lat="43.08502" lon="-1.19239">
        <ele>274.254234</ele>
        <time>2026-05-22T09:42:40.000Z</time>
      </trkpt>
      <trkpt lat="43.08501" lon="-1.19237">
        <ele>274.286649</ele>
        <time>2026-05-22T09:42:41.000Z</time>
      </trkpt>
      <trkpt lat="43.08499" lon="-1.19237">
        <ele>274.321952</ele>
        <time>2026-05-22T09:42:42.000Z</time>
      </trkpt>
      <trkpt lat="43.08497" lon="-1.19236">
        <ele>274.357122</ele>
        <time>2026-05-22T09:42:43.000Z</time>
      </trkpt>
      <trkpt lat="43.08495" lon="-1.19235">
        <ele>274.394471</ele>
        <time>2026-05-22T09:42:44.000Z</time>
      </trkpt>
      <trkpt lat="43.08493" lon="-1.19234">
        <ele>274.432195</ele>
        <time>2026-05-22T09:42:45.000Z</time>
      </trkpt>
      <trkpt lat="43.08491" lon="-1.19233">
        <ele>274.472572</ele>
        <time>2026-05-22T09:42:46.000Z</time>
      </trkpt>
      <trkpt lat="43.08489" lon="-1.19233">
        <ele>274.516744</ele>
        <time>2026-05-22T09:42:47.000Z</time>
      </trkpt>
      <trkpt lat="43.08486" lon="-1.19233">
        <ele>274.563984</ele>
        <time>2026-05-22T09:42:48.000Z</time>
      </trkpt>
      <trkpt lat="43.08483" lon="-1.19232">
        <ele>274.611077</ele>
        <time>2026-05-22T09:42:49.000Z</time>
      </trkpt>
      <trkpt lat="43.0848" lon="-1.19232">
        <ele>274.667344</ele>
        <time>2026-05-22T09:42:50.000Z</time>
      </trkpt>
      <trkpt lat="43.08477" lon="-1.19231">
        <ele>274.724458</ele>
        <time>2026-05-22T09:42:51.000Z</time>
      </trkpt>
      <trkpt lat="43.08474" lon="-1.1923">
        <ele>274.78275</ele>
        <time>2026-05-22T09:42:52.000Z</time>
      </trkpt>
      <trkpt lat="43.08471" lon="-1.19228">
        <ele>274.839865</ele>
        <time>2026-05-22T09:42:53.000Z</time>
      </trkpt>
      <trkpt lat="43.08468" lon="-1.19226">
        <ele>274.897513</ele>
        <time>2026-05-22T09:42:54.000Z</time>
      </trkpt>
      <trkpt lat="43.08466" lon="-1.19224">
        <ele>274.954692</ele>
        <time>2026-05-22T09:42:55.000Z</time>
      </trkpt>
      <trkpt lat="43.08463" lon="-1.19222">
        <ele>275.010913</ele>
        <time>2026-05-22T09:42:56.000Z</time>
      </trkpt>
      <trkpt lat="43.0846" lon="-1.1922">
        <ele>275.066918</ele>
        <time>2026-05-22T09:42:57.000Z</time>
      </trkpt>
      <trkpt lat="43.08457" lon="-1.19219">
        <ele>275.12282</ele>
        <time>2026-05-22T09:42:58.000Z</time>
      </trkpt>
      <trkpt lat="43.08454" lon="-1.19218">
        <ele>275.180483</ele>
        <time>2026-05-22T09:42:59.000Z</time>
      </trkpt>
      <trkpt lat="43.08451" lon="-1.19217">
        <ele>275.23707</ele>
        <time>2026-05-22T09:43:00.000Z</time>
      </trkpt>
      <trkpt lat="43.08448" lon="-1.19216">
        <ele>275.2933</ele>
        <time>2026-05-22T09:43:01.000Z</time>
      </trkpt>
      <trkpt lat="43.08445" lon="-1.19215">
        <ele>275.350963</ele>
        <time>2026-05-22T09:43:02.000Z</time>
      </trkpt>
      <trkpt lat="43.08442" lon="-1.19214">
        <ele>275.411424</ele>
        <time>2026-05-22T09:43:03.000Z</time>
      </trkpt>
      <trkpt lat="43.08438" lon="-1.19214">
        <ele>275.471536</ele>
        <time>2026-05-22T09:43:04.000Z</time>
      </trkpt>
      <trkpt lat="43.08435" lon="-1.19213">
        <ele>275.532458</ele>
        <time>2026-05-22T09:43:05.000Z</time>
      </trkpt>
      <trkpt lat="43.08432" lon="-1.19212">
        <ele>275.593379</ele>
        <time>2026-05-22T09:43:06.000Z</time>
      </trkpt>
      <trkpt lat="43.08428" lon="-1.19211">
        <ele>275.655629</ele>
        <time>2026-05-22T09:43:07.000Z</time>
      </trkpt>
      <trkpt lat="43.08425" lon="-1.19211">
        <ele>275.719219</ele>
        <time>2026-05-22T09:43:08.000Z</time>
      </trkpt>
      <trkpt lat="43.08421" lon="-1.19211">
        <ele>275.782643</ele>
        <time>2026-05-22T09:43:09.000Z</time>
      </trkpt>
      <trkpt lat="43.08418" lon="-1.1921">
        <ele>275.846135</ele>
        <time>2026-05-22T09:43:10.000Z</time>
      </trkpt>
      <trkpt lat="43.08414" lon="-1.1921">
        <ele>275.909628</ele>
        <time>2026-05-22T09:43:11.000Z</time>
      </trkpt>
      <trkpt lat="43.08411" lon="-1.1921">
        <ele>275.972997</ele>
        <time>2026-05-22T09:43:12.000Z</time>
      </trkpt>
      <trkpt lat="43.08407" lon="-1.1921">
        <ele>276.034683</ele>
        <time>2026-05-22T09:43:13.000Z</time>
      </trkpt>
      <trkpt lat="43.08404" lon="-1.19209">
        <ele>276.098396</ele>
        <time>2026-05-22T09:43:14.000Z</time>
      </trkpt>
      <trkpt lat="43.08401" lon="-1.19209">
        <ele>276.158275</ele>
        <time>2026-05-22T09:43:15.000Z</time>
      </trkpt>
      <trkpt lat="43.08397" lon="-1.19209">
        <ele>276.221644</ele>
        <time>2026-05-22T09:43:16.000Z</time>
      </trkpt>
      <trkpt lat="43.08393" lon="-1.19209">
        <ele>276.290457</ele>
        <time>2026-05-22T09:43:17.000Z</time>
      </trkpt>
      <trkpt lat="43.0839" lon="-1.19209">
        <ele>276.35746</ele>
        <time>2026-05-22T09:43:18.000Z</time>
      </trkpt>
      <trkpt lat="43.08386" lon="-1.19209">
        <ele>276.429894</ele>
        <time>2026-05-22T09:43:19.000Z</time>
      </trkpt>
      <trkpt lat="43.08382" lon="-1.19209">
        <ele>276.502327</ele>
        <time>2026-05-22T09:43:20.000Z</time>
      </trkpt>
      <trkpt lat="43.08377" lon="-1.1921">
        <ele>276.578553</ele>
        <time>2026-05-22T09:43:21.000Z</time>
      </trkpt>
      <trkpt lat="43.08373" lon="-1.1921">
        <ele>276.656586</ele>
        <time>2026-05-22T09:43:22.000Z</time>
      </trkpt>
      <trkpt lat="43.08369" lon="-1.1921">
        <ele>276.738103</ele>
        <time>2026-05-22T09:43:23.000Z</time>
      </trkpt>
      <trkpt lat="43.08364" lon="-1.19209">
        <ele>276.822057</ele>
        <time>2026-05-22T09:43:24.000Z</time>
      </trkpt>
      <trkpt lat="43.08359" lon="-1.19208">
        <ele>276.914998</ele>
        <time>2026-05-22T09:43:25.000Z</time>
      </trkpt>
      <trkpt lat="43.08354" lon="-1.19207">
        <ele>277.01007</ele>
        <time>2026-05-22T09:43:26.000Z</time>
      </trkpt>
      <trkpt lat="43.08348" lon="-1.19206">
        <ele>277.106764</ele>
        <time>2026-05-22T09:43:27.000Z</time>
      </trkpt>
      <trkpt lat="43.08343" lon="-1.19205">
        <ele>277.210649</ele>
        <time>2026-05-22T09:43:28.000Z</time>
      </trkpt>
      <trkpt lat="43.08337" lon="-1.19204">
        <ele>277.121813</ele>
        <time>2026-05-22T09:43:29.000Z</time>
      </trkpt>
      <trkpt lat="43.08331" lon="-1.19203">
        <ele>276.946945</ele>
        <time>2026-05-22T09:43:30.000Z</time>
      </trkpt>
      <trkpt lat="43.08324" lon="-1.19202">
        <ele>276.765497</ele>
        <time>2026-05-22T09:43:31.000Z</time>
      </trkpt>
      <trkpt lat="43.08318" lon="-1.192">
        <ele>276.575992</ele>
        <time>2026-05-22T09:43:32.000Z</time>
      </trkpt>
      <trkpt lat="43.08311" lon="-1.19197">
        <ele>276.381354</ele>
        <time>2026-05-22T09:43:33.000Z</time>
      </trkpt>
      <trkpt lat="43.08305" lon="-1.19193">
        <ele>276.173115</ele>
        <time>2026-05-22T09:43:34.000Z</time>
      </trkpt>
      <trkpt lat="43.08298" lon="-1.19188">
        <ele>275.96202</ele>
        <time>2026-05-22T09:43:35.000Z</time>
      </trkpt>
      <trkpt lat="43.08291" lon="-1.19183">
        <ele>275.745499</ele>
        <time>2026-05-22T09:43:36.000Z</time>
      </trkpt>
      <trkpt lat="43.08285" lon="-1.19178">
        <ele>275.531884</ele>
        <time>2026-05-22T09:43:37.000Z</time>
      </trkpt>
      <trkpt lat="43.08278" lon="-1.19174">
        <ele>275.330498</ele>
        <time>2026-05-22T09:43:38.000Z</time>
      </trkpt>
      <trkpt lat="43.08273" lon="-1.1917">
        <ele>275.154952</ele>
        <time>2026-05-22T09:43:39.000Z</time>
      </trkpt>
      <trkpt lat="43.08268" lon="-1.19168">
        <ele>275.019842</ele>
        <time>2026-05-22T09:43:40.000Z</time>
      </trkpt>
      <trkpt lat="43.08266" lon="-1.19166">
        <ele>274.931877</ele>
        <time>2026-05-22T09:43:41.000Z</time>
      </trkpt>
      <trkpt lat="43.08264" lon="-1.19166">
        <ele>274.885309</ele>
        <time>2026-05-22T09:43:42.000Z</time>
      </trkpt>
      <trkpt lat="43.08263" lon="-1.19165">
        <ele>274.87097</ele>
        <time>2026-05-22T09:43:43.000Z</time>
      </trkpt>
      <trkpt lat="43.08258" lon="-1.19162">
        <ele>274.692748</ele>
        <time>2026-05-22T09:44:19.000Z</time>
      </trkpt>
      <trkpt lat="43.08255" lon="-1.1916">
        <ele>274.605836</ele>
        <time>2026-05-22T09:44:20.000Z</time>
      </trkpt>
      <trkpt lat="43.08251" lon="-1.19158">
        <ele>274.495675</ele>
        <time>2026-05-22T09:44:21.000Z</time>
      </trkpt>
      <trkpt lat="43.08247" lon="-1.19156">
        <ele>274.366813</ele>
        <time>2026-05-22T09:44:22.000Z</time>
      </trkpt>
      <trkpt lat="43.08243" lon="-1.19154">
        <ele>274.229012</ele>
        <time>2026-05-22T09:44:23.000Z</time>
      </trkpt>
      <trkpt lat="43.08237" lon="-1.19151">
        <ele>274.074591</ele>
        <time>2026-05-22T09:44:24.000Z</time>
      </trkpt>
      <trkpt lat="43.08232" lon="-1.19148">
        <ele>273.909998</ele>
        <time>2026-05-22T09:44:25.000Z</time>
      </trkpt>
      <trkpt lat="43.08227" lon="-1.19145">
        <ele>273.738763</ele>
        <time>2026-05-22T09:44:26.000Z</time>
      </trkpt>
      <trkpt lat="43.08221" lon="-1.1914">
        <ele>273.561803</ele>
        <time>2026-05-22T09:44:27.000Z</time>
      </trkpt>
      <trkpt lat="43.08216" lon="-1.19136">
        <ele>273.377835</ele>
        <time>2026-05-22T09:44:28.000Z</time>
      </trkpt>
      <trkpt lat="43.0821" lon="-1.19131">
        <ele>273.192529</ele>
        <time>2026-05-22T09:44:29.000Z</time>
      </trkpt>
      <trkpt lat="43.08205" lon="-1.19126">
        <ele>273.012225</ele>
        <time>2026-05-22T09:44:30.000Z</time>
      </trkpt>
      <trkpt lat="43.08199" lon="-1.19121">
        <ele>272.825523</ele>
        <time>2026-05-22T09:44:31.000Z</time>
      </trkpt>
      <trkpt lat="43.08194" lon="-1.19116">
        <ele>272.645219</ele>
        <time>2026-05-22T09:44:32.000Z</time>
      </trkpt>
      <trkpt lat="43.08188" lon="-1.19111">
        <ele>272.444932</ele>
        <time>2026-05-22T09:44:33.000Z</time>
      </trkpt>
      <trkpt lat="43.08182" lon="-1.19105">
        <ele>272.241222</ele>
        <time>2026-05-22T09:44:34.000Z</time>
      </trkpt>
      <trkpt lat="43.08176" lon="-1.191">
        <ele>272.228083</ele>
        <time>2026-05-22T09:44:35.000Z</time>
      </trkpt>
      <trkpt lat="43.0817" lon="-1.19094">
        <ele>272.403581</ele>
        <time>2026-05-22T09:44:36.000Z</time>
      </trkpt>
      <trkpt lat="43.08164" lon="-1.1909">
        <ele>272.572511</ele>
        <time>2026-05-22T09:44:37.000Z</time>
      </trkpt>
      <trkpt lat="43.08158" lon="-1.19085">
        <ele>272.732578</ele>
        <time>2026-05-22T09:44:38.000Z</time>
      </trkpt>
      <trkpt lat="43.08152" lon="-1.19081">
        <ele>272.887175</ele>
        <time>2026-05-22T09:44:39.000Z</time>
      </trkpt>
      <trkpt lat="43.08147" lon="-1.19077">
        <ele>273.034312</ele>
        <time>2026-05-22T09:44:40.000Z</time>
      </trkpt>
      <trkpt lat="43.08142" lon="-1.19075">
        <ele>273.171753</ele>
        <time>2026-05-22T09:44:41.000Z</time>
      </trkpt>
      <trkpt lat="43.08136" lon="-1.19072">
        <ele>273.305247</ele>
        <time>2026-05-22T09:44:42.000Z</time>
      </trkpt>
      <trkpt lat="43.08131" lon="-1.1907">
        <ele>273.429063</ele>
        <time>2026-05-22T09:44:43.000Z</time>
      </trkpt>
      <trkpt lat="43.08127" lon="-1.19068">
        <ele>273.543934</ele>
        <time>2026-05-22T09:44:44.000Z</time>
      </trkpt>
      <trkpt lat="43.08122" lon="-1.19067">
        <ele>273.650058</ele>
        <time>2026-05-22T09:44:45.000Z</time>
      </trkpt>
      <trkpt lat="43.08118" lon="-1.19065">
        <ele>273.754276</ele>
        <time>2026-05-22T09:44:46.000Z</time>
      </trkpt>
      <trkpt lat="43.08114" lon="-1.19064">
        <ele>273.855325</ele>
        <time>2026-05-22T09:44:47.000Z</time>
      </trkpt>
      <trkpt lat="43.0811" lon="-1.19063">
        <ele>273.959297</ele>
        <time>2026-05-22T09:44:48.000Z</time>
      </trkpt>
      <trkpt lat="43.08105" lon="-1.19063">
        <ele>274.064958</ele>
        <time>2026-05-22T09:44:49.000Z</time>
      </trkpt>
      <trkpt lat="43.08101" lon="-1.19063">
        <ele>274.166045</ele>
        <time>2026-05-22T09:44:50.000Z</time>
      </trkpt>
      <trkpt lat="43.08097" lon="-1.19062">
        <ele>274.265746</ele>
        <time>2026-05-22T09:44:51.000Z</time>
      </trkpt>
      <trkpt lat="43.08093" lon="-1.19061">
        <ele>274.364749</ele>
        <time>2026-05-22T09:44:52.000Z</time>
      </trkpt>
      <trkpt lat="43.08089" lon="-1.19061">
        <ele>274.468054</ele>
        <time>2026-05-22T09:44:53.000Z</time>
      </trkpt>
      <trkpt lat="43.08085" lon="-1.19061">
        <ele>274.569142</ele>
        <time>2026-05-22T09:44:54.000Z</time>
      </trkpt>
      <trkpt lat="43.0808" lon="-1.19061">
        <ele>274.670229</ele>
        <time>2026-05-22T09:44:55.000Z</time>
      </trkpt>
      <trkpt lat="43.08076" lon="-1.19061">
        <ele>274.766287</ele>
        <time>2026-05-22T09:44:56.000Z</time>
      </trkpt>
      <trkpt lat="43.08072" lon="-1.19062">
        <ele>274.865493</ele>
        <time>2026-05-22T09:44:57.000Z</time>
      </trkpt>
      <trkpt lat="43.08068" lon="-1.19062">
        <ele>274.964325</ele>
        <time>2026-05-22T09:44:58.000Z</time>
      </trkpt>
      <trkpt lat="43.08064" lon="-1.19063">
        <ele>275.055834</ele>
        <time>2026-05-22T09:44:59.000Z</time>
      </trkpt>
      <trkpt lat="43.0806" lon="-1.19064">
        <ele>275.164296</ele>
        <time>2026-05-22T09:45:00.000Z</time>
      </trkpt>
      <trkpt lat="43.08056" lon="-1.19065">
        <ele>275.264963</ele>
        <time>2026-05-22T09:45:01.000Z</time>
      </trkpt>
      <trkpt lat="43.08052" lon="-1.19066">
        <ele>275.357275</ele>
        <time>2026-05-22T09:45:02.000Z</time>
      </trkpt>
      <trkpt lat="43.08048" lon="-1.19068">
        <ele>275.45503</ele>
        <time>2026-05-22T09:45:03.000Z</time>
      </trkpt>
      <trkpt lat="43.08044" lon="-1.19069">
        <ele>275.547681</ele>
        <time>2026-05-22T09:45:04.000Z</time>
      </trkpt>
      <trkpt lat="43.08041" lon="-1.19071">
        <ele>275.637538</ele>
        <time>2026-05-22T09:45:05.000Z</time>
      </trkpt>
      <trkpt lat="43.08037" lon="-1.19073">
        <ele>275.735105</ele>
        <time>2026-05-22T09:45:06.000Z</time>
      </trkpt>
      <trkpt lat="43.08034" lon="-1.19075">
        <ele>275.824663</ele>
        <time>2026-05-22T09:45:07.000Z</time>
      </trkpt>
      <trkpt lat="43.0803" lon="-1.19077">
        <ele>275.917133</ele>
        <time>2026-05-22T09:45:08.000Z</time>
      </trkpt>
      <trkpt lat="43.08027" lon="-1.1908">
        <ele>276.011121</ele>
        <time>2026-05-22T09:45:09.000Z</time>
      </trkpt>
      <trkpt lat="43.08023" lon="-1.19082">
        <ele>276.102178</ele>
        <time>2026-05-22T09:45:10.000Z</time>
      </trkpt>
      <trkpt lat="43.0802" lon="-1.19084">
        <ele>276.186837</ele>
        <time>2026-05-22T09:45:11.000Z</time>
      </trkpt>
      <trkpt lat="43.08017" lon="-1.19086">
        <ele>276.269882</ele>
        <time>2026-05-22T09:45:12.000Z</time>
      </trkpt>
      <trkpt lat="43.08014" lon="-1.19088">
        <ele>276.343425</ele>
        <time>2026-05-22T09:45:13.000Z</time>
      </trkpt>
      <trkpt lat="43.08012" lon="-1.19089">
        <ele>276.414998</ele>
        <time>2026-05-22T09:45:14.000Z</time>
      </trkpt>
      <trkpt lat="43.08009" lon="-1.19091">
        <ele>276.568134</ele>
        <time>2026-05-22T09:45:15.000Z</time>
      </trkpt>
      <trkpt lat="43.08006" lon="-1.19092">
        <ele>276.797993</ele>
        <time>2026-05-22T09:45:16.000Z</time>
      </trkpt>
      <trkpt lat="43.08004" lon="-1.19094">
        <ele>277.030674</ele>
        <time>2026-05-22T09:45:17.000Z</time>
      </trkpt>
      <trkpt lat="43.08001" lon="-1.19096">
        <ele>277.281551</ele>
        <time>2026-05-22T09:45:18.000Z</time>
      </trkpt>
      <trkpt lat="43.07998" lon="-1.19097">
        <ele>277.540673</ele>
        <time>2026-05-22T09:45:19.000Z</time>
      </trkpt>
      <trkpt lat="43.07996" lon="-1.19097">
        <ele>277.767713</ele>
        <time>2026-05-22T09:45:20.000Z</time>
      </trkpt>
      <trkpt lat="43.07993" lon="-1.19098">
        <ele>278.02128</ele>
        <time>2026-05-22T09:45:21.000Z</time>
      </trkpt>
      <trkpt lat="43.0799" lon="-1.19099">
        <ele>278.282347</ele>
        <time>2026-05-22T09:45:22.000Z</time>
      </trkpt>
      <trkpt lat="43.07987" lon="-1.19099">
        <ele>278.541895</ele>
        <time>2026-05-22T09:45:23.000Z</time>
      </trkpt>
      <trkpt lat="43.07983" lon="-1.19099">
        <ele>278.835272</ele>
        <time>2026-05-22T09:45:24.000Z</time>
      </trkpt>
      <trkpt lat="43.0798" lon="-1.19099">
        <ele>279.145263</ele>
        <time>2026-05-22T09:45:25.000Z</time>
      </trkpt>
      <trkpt lat="43.07976" lon="-1.19099">
        <ele>279.472536</ele>
        <time>2026-05-22T09:45:26.000Z</time>
      </trkpt>
      <trkpt lat="43.07972" lon="-1.19099">
        <ele>279.817028</ele>
        <time>2026-05-22T09:45:27.000Z</time>
      </trkpt>
      <trkpt lat="43.07968" lon="-1.19099">
        <ele>280.170129</ele>
        <time>2026-05-22T09:45:28.000Z</time>
      </trkpt>
      <trkpt lat="43.07964" lon="-1.191">
        <ele>280.523679</ele>
        <time>2026-05-22T09:45:29.000Z</time>
      </trkpt>
      <trkpt lat="43.0796" lon="-1.191">
        <ele>280.878735</ele>
        <time>2026-05-22T09:45:30.000Z</time>
      </trkpt>
      <trkpt lat="43.07956" lon="-1.19101">
        <ele>281.226825</ele>
        <time>2026-05-22T09:45:31.000Z</time>
      </trkpt>
      <trkpt lat="43.07952" lon="-1.19102">
        <ele>281.567386</ele>
        <time>2026-05-22T09:45:32.000Z</time>
      </trkpt>
      <trkpt lat="43.07948" lon="-1.19103">
        <ele>281.878073</ele>
        <time>2026-05-22T09:45:33.000Z</time>
      </trkpt>
      <trkpt lat="43.07945" lon="-1.19104">
        <ele>282.16377</ele>
        <time>2026-05-22T09:45:34.000Z</time>
      </trkpt>
      <trkpt lat="43.07942" lon="-1.19105">
        <ele>282.399306</ele>
        <time>2026-05-22T09:45:35.000Z</time>
      </trkpt>
      <trkpt lat="43.0794" lon="-1.19105">
        <ele>282.598947</ele>
        <time>2026-05-22T09:45:36.000Z</time>
      </trkpt>
      <trkpt lat="43.07938" lon="-1.19106">
        <ele>282.798588</ele>
        <time>2026-05-22T09:45:37.000Z</time>
      </trkpt>
      <trkpt lat="43.07936" lon="-1.19106">
        <ele>282.993076</ele>
        <time>2026-05-22T09:45:38.000Z</time>
      </trkpt>
      <trkpt lat="43.07934" lon="-1.19107">
        <ele>283.172493</ele>
        <time>2026-05-22T09:45:39.000Z</time>
      </trkpt>
      <trkpt lat="43.07932" lon="-1.19108">
        <ele>283.31713</ele>
        <time>2026-05-22T09:45:40.000Z</time>
      </trkpt>
      <trkpt lat="43.07931" lon="-1.19108">
        <ele>283.446446</ele>
        <time>2026-05-22T09:45:41.000Z</time>
      </trkpt>
      <trkpt lat="43.07929" lon="-1.19108">
        <ele>283.592831</ele>
        <time>2026-05-22T09:45:42.000Z</time>
      </trkpt>
      <trkpt lat="43.07927" lon="-1.19108">
        <ele>283.742555</ele>
        <time>2026-05-22T09:45:43.000Z</time>
      </trkpt>
      <trkpt lat="43.07925" lon="-1.19107">
        <ele>283.892279</ele>
        <time>2026-05-22T09:45:44.000Z</time>
      </trkpt>
      <trkpt lat="43.07924" lon="-1.19107">
        <ele>284.016866</ele>
        <time>2026-05-22T09:45:45.000Z</time>
      </trkpt>
      <trkpt lat="43.07922" lon="-1.19106">
        <ele>284.164461</ele>
        <time>2026-05-22T09:45:46.000Z</time>
      </trkpt>
      <trkpt lat="43.07921" lon="-1.19106">
        <ele>284.305779</ele>
        <time>2026-05-22T09:45:47.000Z</time>
      </trkpt>
      <trkpt lat="43.0792" lon="-1.19105">
        <ele>284.402359</ele>
        <time>2026-05-22T09:45:48.000Z</time>
      </trkpt>
      <trkpt lat="43.07918" lon="-1.19105">
        <ele>284.508708</ele>
        <time>2026-05-22T09:45:49.000Z</time>
      </trkpt>
      <trkpt lat="43.07918" lon="-1.19104">
        <ele>284.594014</ele>
        <time>2026-05-22T09:45:50.000Z</time>
      </trkpt>
      <trkpt lat="43.07917" lon="-1.19103">
        <ele>284.687294</ele>
        <time>2026-05-22T09:45:51.000Z</time>
      </trkpt>
      <trkpt lat="43.07916" lon="-1.19102">
        <ele>284.822301</ele>
        <time>2026-05-22T09:45:52.000Z</time>
      </trkpt>
      <trkpt lat="43.07914" lon="-1.19101">
        <ele>284.967965</ele>
        <time>2026-05-22T09:45:53.000Z</time>
      </trkpt>
      <trkpt lat="43.07913" lon="-1.191">
        <ele>285.110194</ele>
        <time>2026-05-22T09:45:54.000Z</time>
      </trkpt>
      <trkpt lat="43.07911" lon="-1.19098">
        <ele>285.248816</ele>
        <time>2026-05-22T09:45:55.000Z</time>
      </trkpt>
      <trkpt lat="43.0791" lon="-1.19097">
        <ele>285.381997</ele>
        <time>2026-05-22T09:45:56.000Z</time>
      </trkpt>
      <trkpt lat="43.07909" lon="-1.19096">
        <ele>285.499292</ele>
        <time>2026-05-22T09:45:57.000Z</time>
      </trkpt>
      <trkpt lat="43.07908" lon="-1.19095">
        <ele>285.607469</ele>
        <time>2026-05-22T09:45:58.000Z</time>
      </trkpt>
      <trkpt lat="43.07907" lon="-1.19094">
        <ele>285.735427</ele>
        <time>2026-05-22T09:45:59.000Z</time>
      </trkpt>
      <trkpt lat="43.07905" lon="-1.19093">
        <ele>285.871888</ele>
        <time>2026-05-22T09:46:00.000Z</time>
      </trkpt>
      <trkpt lat="43.07904" lon="-1.19092">
        <ele>286.005068</ele>
        <time>2026-05-22T09:46:01.000Z</time>
      </trkpt>
      <trkpt lat="43.07902" lon="-1.19091">
        <ele>286.14873</ele>
        <time>2026-05-22T09:46:02.000Z</time>
      </trkpt>
      <trkpt lat="43.07901" lon="-1.1909">
        <ele>286.284703</ele>
        <time>2026-05-22T09:46:03.000Z</time>
      </trkpt>
      <trkpt lat="43.079" lon="-1.1909">
        <ele>286.392712</ele>
        <time>2026-05-22T09:46:04.000Z</time>
      </trkpt>
      <trkpt lat="43.07899" lon="-1.19089">
        <ele>286.500722</ele>
        <time>2026-05-22T09:46:05.000Z</time>
      </trkpt>
      <trkpt lat="43.07897" lon="-1.19088">
        <ele>286.636695</ele>
        <time>2026-05-22T09:46:06.000Z</time>
      </trkpt>
      <trkpt lat="43.07896" lon="-1.19087">
        <ele>286.782359</ele>
        <time>2026-05-22T09:46:07.000Z</time>
      </trkpt>
      <trkpt lat="43.07895" lon="-1.19086">
        <ele>286.900178</ele>
        <time>2026-05-22T09:46:08.000Z</time>
      </trkpt>
      <trkpt lat="43.07894" lon="-1.19085">
        <ele>287.02129</ele>
        <time>2026-05-22T09:46:09.000Z</time>
      </trkpt>
      <trkpt lat="43.07892" lon="-1.19084">
        <ele>287.153056</ele>
        <time>2026-05-22T09:46:10.000Z</time>
      </trkpt>
      <trkpt lat="43.07891" lon="-1.19082">
        <ele>287.284652</ele>
        <time>2026-05-22T09:46:11.000Z</time>
      </trkpt>
      <trkpt lat="43.0789" lon="-1.19082">
        <ele>287.410091</ele>
        <time>2026-05-22T09:46:12.000Z</time>
      </trkpt>
      <trkpt lat="43.07888" lon="-1.1908">
        <ele>287.548713</ele>
        <time>2026-05-22T09:46:13.000Z</time>
      </trkpt>
      <trkpt lat="43.07887" lon="-1.19079">
        <ele>287.708662</ele>
        <time>2026-05-22T09:46:14.000Z</time>
      </trkpt>
      <trkpt lat="43.07886" lon="-1.19077">
        <ele>287.854326</ele>
        <time>2026-05-22T09:46:15.000Z</time>
      </trkpt>
      <trkpt lat="43.07884" lon="-1.19076">
        <ele>288.005777</ele>
        <time>2026-05-22T09:46:16.000Z</time>
      </trkpt>
      <trkpt lat="43.07883" lon="-1.19076">
        <ele>288.108825</ele>
        <time>2026-05-22T09:46:17.000Z</time>
      </trkpt>
      <trkpt lat="43.07882" lon="-1.19075">
        <ele>288.21917</ele>
        <time>2026-05-22T09:46:18.000Z</time>
      </trkpt>
      <trkpt lat="43.07881" lon="-1.19074">
        <ele>288.334099</ele>
        <time>2026-05-22T09:46:19.000Z</time>
      </trkpt>
      <trkpt lat="43.07879" lon="-1.19073">
        <ele>288.464731</ele>
        <time>2026-05-22T09:46:20.000Z</time>
      </trkpt>
      <trkpt lat="43.07878" lon="-1.19072">
        <ele>288.605753</ele>
        <time>2026-05-22T09:46:21.000Z</time>
      </trkpt>
      <trkpt lat="43.07876" lon="-1.19071">
        <ele>288.740761</ele>
        <time>2026-05-22T09:46:22.000Z</time>
      </trkpt>
      <trkpt lat="43.07875" lon="-1.1907">
        <ele>288.861728</ele>
        <time>2026-05-22T09:46:23.000Z</time>
      </trkpt>
      <trkpt lat="43.07874" lon="-1.19069">
        <ele>288.950888</ele>
        <time>2026-05-22T09:46:24.000Z</time>
      </trkpt>
      <trkpt lat="43.07874" lon="-1.19068">
        <ele>289.033577</ele>
        <time>2026-05-22T09:46:25.000Z</time>
      </trkpt>
      <trkpt lat="43.07873" lon="-1.19067">
        <ele>289.119924</ele>
        <time>2026-05-22T09:46:26.000Z</time>
      </trkpt>
      <trkpt lat="43.07872" lon="-1.19066">
        <ele>289.227178</ele>
        <time>2026-05-22T09:46:27.000Z</time>
      </trkpt>
      <trkpt lat="43.07871" lon="-1.19066">
        <ele>289.331629</ele>
        <time>2026-05-22T09:46:28.000Z</time>
      </trkpt>
      <trkpt lat="43.0787" lon="-1.19065">
        <ele>289.438884</ele>
        <time>2026-05-22T09:46:29.000Z</time>
      </trkpt>
      <trkpt lat="43.07869" lon="-1.19064">
        <ele>289.559172</ele>
        <time>2026-05-22T09:46:30.000Z</time>
      </trkpt>
      <trkpt lat="43.07867" lon="-1.19063">
        <ele>289.684611</ele>
        <time>2026-05-22T09:46:31.000Z</time>
      </trkpt>
      <trkpt lat="43.07866" lon="-1.19062">
        <ele>289.816206</ele>
        <time>2026-05-22T09:46:32.000Z</time>
      </trkpt>
      <trkpt lat="43.07865" lon="-1.19061">
        <ele>289.937319</ele>
        <time>2026-05-22T09:46:33.000Z</time>
      </trkpt>
      <trkpt lat="43.07864" lon="-1.1906">
        <ele>290.031333</ele>
        <time>2026-05-22T09:46:34.000Z</time>
      </trkpt>
      <trkpt lat="43.07863" lon="-1.1906">
        <ele>290.133294</ele>
        <time>2026-05-22T09:46:35.000Z</time>
      </trkpt>
      <trkpt lat="43.07862" lon="-1.19059">
        <ele>290.240548</ele>
        <time>2026-05-22T09:46:36.000Z</time>
      </trkpt>
      <trkpt lat="43.0786" lon="-1.19058">
        <ele>290.360836</ele>
        <time>2026-05-22T09:46:37.000Z</time>
      </trkpt>
      <trkpt lat="43.07859" lon="-1.19057">
        <ele>290.486275</ele>
        <time>2026-05-22T09:46:38.000Z</time>
      </trkpt>
      <trkpt lat="43.07858" lon="-1.19056">
        <ele>290.599975</ele>
        <time>2026-05-22T09:46:39.000Z</time>
      </trkpt>
      <trkpt lat="43.07857" lon="-1.19055">
        <ele>290.713674</ele>
        <time>2026-05-22T09:46:40.000Z</time>
      </trkpt>
      <trkpt lat="43.07856" lon="-1.19054">
        <ele>290.841634</ele>
        <time>2026-05-22T09:46:41.000Z</time>
      </trkpt>
      <trkpt lat="43.07854" lon="-1.19053">
        <ele>290.959453</ele>
        <time>2026-05-22T09:46:42.000Z</time>
      </trkpt>
      <trkpt lat="43.07853" lon="-1.19052">
        <ele>291.066707</ele>
        <time>2026-05-22T09:46:43.000Z</time>
      </trkpt>
      <trkpt lat="43.07852" lon="-1.19051">
        <ele>291.17334</ele>
        <time>2026-05-22T09:46:44.000Z</time>
      </trkpt>
      <trkpt lat="43.07851" lon="-1.1905">
        <ele>291.30652</ele>
        <time>2026-05-22T09:46:45.000Z</time>
      </trkpt>
      <trkpt lat="43.0785" lon="-1.19049">
        <ele>291.434479</ele>
        <time>2026-05-22T09:46:46.000Z</time>
      </trkpt>
      <trkpt lat="43.07848" lon="-1.19048">
        <ele>291.56288</ele>
        <time>2026-05-22T09:46:47.000Z</time>
      </trkpt>
      <trkpt lat="43.07847" lon="-1.19047">
        <ele>291.687233</ele>
        <time>2026-05-22T09:46:48.000Z</time>
      </trkpt>
      <trkpt lat="43.07846" lon="-1.19046">
        <ele>291.812672</ele>
        <time>2026-05-22T09:46:49.000Z</time>
      </trkpt>
      <trkpt lat="43.07845" lon="-1.19045">
        <ele>291.929968</ele>
        <time>2026-05-22T09:46:50.000Z</time>
      </trkpt>
      <trkpt lat="43.07844" lon="-1.19044">
        <ele>292.01747</ele>
        <time>2026-05-22T09:46:51.000Z</time>
      </trkpt>
      <trkpt lat="43.07842" lon="-1.19044">
        <ele>292.093211</ele>
        <time>2026-05-22T09:46:52.000Z</time>
      </trkpt>
      <trkpt lat="43.07841" lon="-1.19043">
        <ele>292.178394</ele>
        <time>2026-05-22T09:46:53.000Z</time>
      </trkpt>
      <trkpt lat="43.0784" lon="-1.19042">
        <ele>292.257844</ele>
        <time>2026-05-22T09:46:54.000Z</time>
      </trkpt>
      <trkpt lat="43.07838" lon="-1.19041">
        <ele>292.342433</ele>
        <time>2026-05-22T09:46:55.000Z</time>
      </trkpt>
      <trkpt lat="43.07837" lon="-1.1904">
        <ele>292.44124</ele>
        <time>2026-05-22T09:46:56.000Z</time>
      </trkpt>
      <trkpt lat="43.07836" lon="-1.19039">
        <ele>292.52998</ele>
        <time>2026-05-22T09:46:57.000Z</time>
      </trkpt>
      <trkpt lat="43.07835" lon="-1.19038">
        <ele>292.606653</ele>
        <time>2026-05-22T09:46:58.000Z</time>
      </trkpt>
      <trkpt lat="43.07833" lon="-1.19037">
        <ele>292.684154</ele>
        <time>2026-05-22T09:46:59.000Z</time>
      </trkpt>
      <trkpt lat="43.07832" lon="-1.19036">
        <ele>292.765727</ele>
        <time>2026-05-22T09:47:00.000Z</time>
      </trkpt>
      <trkpt lat="43.07831" lon="-1.19035">
        <ele>292.859456</ele>
        <time>2026-05-22T09:47:01.000Z</time>
      </trkpt>
      <trkpt lat="43.07829" lon="-1.19034">
        <ele>292.949265</ele>
        <time>2026-05-22T09:47:02.000Z</time>
      </trkpt>
      <trkpt lat="43.07828" lon="-1.19033">
        <ele>293.044362</ele>
        <time>2026-05-22T09:47:03.000Z</time>
      </trkpt>
      <trkpt lat="43.07826" lon="-1.19033">
        <ele>293.141897</ele>
        <time>2026-05-22T09:47:04.000Z</time>
      </trkpt>
      <trkpt lat="43.07824" lon="-1.19032">
        <ele>293.25512</ele>
        <time>2026-05-22T09:47:05.000Z</time>
      </trkpt>
      <trkpt lat="43.07823" lon="-1.19031">
        <ele>293.361053</ele>
        <time>2026-05-22T09:47:06.000Z</time>
      </trkpt>
      <trkpt lat="43.07821" lon="-1.1903">
        <ele>293.459281</ele>
        <time>2026-05-22T09:47:07.000Z</time>
      </trkpt>
      <trkpt lat="43.0782" lon="-1.19028">
        <ele>293.562365</ele>
        <time>2026-05-22T09:47:08.000Z</time>
      </trkpt>
      <trkpt lat="43.07818" lon="-1.19027">
        <ele>293.666328</ele>
        <time>2026-05-22T09:47:09.000Z</time>
      </trkpt>
      <trkpt lat="43.07817" lon="-1.19026">
        <ele>293.76677</ele>
        <time>2026-05-22T09:47:10.000Z</time>
      </trkpt>
      <trkpt lat="43.07815" lon="-1.19025">
        <ele>293.861867</ele>
        <time>2026-05-22T09:47:11.000Z</time>
      </trkpt>
      <trkpt lat="43.07814" lon="-1.19025">
        <ele>293.959402</ele>
        <time>2026-05-22T09:47:12.000Z</time>
      </trkpt>
      <trkpt lat="43.07812" lon="-1.19024">
        <ele>294.060367</ele>
        <time>2026-05-22T09:47:13.000Z</time>
      </trkpt>
      <trkpt lat="43.0781" lon="-1.19023">
        <ele>294.160809</ele>
        <time>2026-05-22T09:47:14.000Z</time>
      </trkpt>
      <trkpt lat="43.07809" lon="-1.19023">
        <ele>294.247354</ele>
        <time>2026-05-22T09:47:15.000Z</time>
      </trkpt>
      <trkpt lat="43.07807" lon="-1.19022">
        <ele>294.339046</ele>
        <time>2026-05-22T09:47:16.000Z</time>
      </trkpt>
      <trkpt lat="43.07806" lon="-1.19021">
        <ele>294.427136</ele>
        <time>2026-05-22T09:47:17.000Z</time>
      </trkpt>
      <trkpt lat="43.07805" lon="-1.1902">
        <ele>294.516945</ele>
        <time>2026-05-22T09:47:18.000Z</time>
      </trkpt>
      <trkpt lat="43.07803" lon="-1.19019">
        <ele>294.615752</ele>
        <time>2026-05-22T09:47:19.000Z</time>
      </trkpt>
      <trkpt lat="43.07801" lon="-1.19018">
        <ele>294.72855</ele>
        <time>2026-05-22T09:47:20.000Z</time>
      </trkpt>
      <trkpt lat="43.07799" lon="-1.19017">
        <ele>294.843976</ele>
        <time>2026-05-22T09:47:21.000Z</time>
      </trkpt>
      <trkpt lat="43.07798" lon="-1.19016">
        <ele>294.956773</ele>
        <time>2026-05-22T09:47:22.000Z</time>
      </trkpt>
      <trkpt lat="43.07796" lon="-1.19015">
        <ele>295.062609</ele>
        <time>2026-05-22T09:47:23.000Z</time>
      </trkpt>
      <trkpt lat="43.07794" lon="-1.19014">
        <ele>295.191714</ele>
        <time>2026-05-22T09:47:24.000Z</time>
      </trkpt>
      <trkpt lat="43.07792" lon="-1.19013">
        <ele>295.320819</ele>
        <time>2026-05-22T09:47:25.000Z</time>
      </trkpt>
      <trkpt lat="43.0779" lon="-1.19012">
        <ele>295.446321</ele>
        <time>2026-05-22T09:47:26.000Z</time>
      </trkpt>
      <trkpt lat="43.07787" lon="-1.19012">
        <ele>295.588808</ele>
        <time>2026-05-22T09:47:27.000Z</time>
      </trkpt>
      <trkpt lat="43.07785" lon="-1.19011">
        <ele>295.723411</ele>
        <time>2026-05-22T09:47:28.000Z</time>
      </trkpt>
      <trkpt lat="43.07783" lon="-1.1901">
        <ele>295.849983</ele>
        <time>2026-05-22T09:47:29.000Z</time>
      </trkpt>
      <trkpt lat="43.07781" lon="-1.19009">
        <ele>295.977757</ele>
        <time>2026-05-22T09:47:30.000Z</time>
      </trkpt>
      <trkpt lat="43.07779" lon="-1.19008">
        <ele>296.097625</ele>
        <time>2026-05-22T09:47:31.000Z</time>
      </trkpt>
      <trkpt lat="43.07777" lon="-1.19007">
        <ele>296.230952</ele>
        <time>2026-05-22T09:47:32.000Z</time>
      </trkpt>
      <trkpt lat="43.07775" lon="-1.19006">
        <ele>296.360058</ele>
        <time>2026-05-22T09:47:33.000Z</time>
      </trkpt>
      <trkpt lat="43.07773" lon="-1.19005">
        <ele>296.483693</ele>
        <time>2026-05-22T09:47:34.000Z</time>
      </trkpt>
      <trkpt lat="43.07771" lon="-1.19005">
        <ele>296.597944</ele>
        <time>2026-05-22T09:47:35.000Z</time>
      </trkpt>
      <trkpt lat="43.07769" lon="-1.19004">
        <ele>296.727049</ele>
        <time>2026-05-22T09:47:36.000Z</time>
      </trkpt>
      <trkpt lat="43.07766" lon="-1.19003">
        <ele>296.859225</ele>
        <time>2026-05-22T09:47:37.000Z</time>
      </trkpt>
      <trkpt lat="43.07764" lon="-1.19002">
        <ele>296.988719</ele>
        <time>2026-05-22T09:47:38.000Z</time>
      </trkpt>
      <trkpt lat="43.07762" lon="-1.19002">
        <ele>297.117097</ele>
        <time>2026-05-22T09:47:39.000Z</time>
      </trkpt>
      <trkpt lat="43.0776" lon="-1.19001">
        <ele>297.258761</ele>
        <time>2026-05-22T09:47:40.000Z</time>
      </trkpt>
      <trkpt lat="43.07757" lon="-1.19">
        <ele>297.393364</ele>
        <time>2026-05-22T09:47:41.000Z</time>
      </trkpt>
      <trkpt lat="43.07755" lon="-1.18999">
        <ele>297.517</ele>
        <time>2026-05-22T09:47:42.000Z</time>
      </trkpt>
      <trkpt lat="43.07753" lon="-1.18999">
        <ele>297.649175</ele>
        <time>2026-05-22T09:47:43.000Z</time>
      </trkpt>
      <trkpt lat="43.07751" lon="-1.18998">
        <ele>297.790139</ele>
        <time>2026-05-22T09:47:44.000Z</time>
      </trkpt>
      <trkpt lat="43.07749" lon="-1.18998">
        <ele>297.919633</ele>
        <time>2026-05-22T09:47:45.000Z</time>
      </trkpt>
      <trkpt lat="43.07746" lon="-1.18997">
        <ele>298.045135</ele>
        <time>2026-05-22T09:47:46.000Z</time>
      </trkpt>
      <trkpt lat="43.07745" lon="-1.18996">
        <ele>298.159386</ele>
        <time>2026-05-22T09:47:47.000Z</time>
      </trkpt>
      <trkpt lat="43.07743" lon="-1.18996">
        <ele>298.270038</ele>
        <time>2026-05-22T09:47:48.000Z</time>
      </trkpt>
      <trkpt lat="43.07741" lon="-1.18996">
        <ele>298.386866</ele>
        <time>2026-05-22T09:47:49.000Z</time>
      </trkpt>
      <trkpt lat="43.07739" lon="-1.18995">
        <ele>298.503694</ele>
        <time>2026-05-22T09:47:50.000Z</time>
      </trkpt>
      <trkpt lat="43.07737" lon="-1.18995">
        <ele>298.61604</ele>
        <time>2026-05-22T09:47:51.000Z</time>
      </trkpt>
      <trkpt lat="43.07735" lon="-1.18994">
        <ele>298.730291</ele>
        <time>2026-05-22T09:47:52.000Z</time>
      </trkpt>
      <trkpt lat="43.07733" lon="-1.18994">
        <ele>298.83694</ele>
        <time>2026-05-22T09:47:53.000Z</time>
      </trkpt>
      <trkpt lat="43.07731" lon="-1.18994">
        <ele>298.947348</ele>
        <time>2026-05-22T09:47:54.000Z</time>
      </trkpt>
      <trkpt lat="43.07729" lon="-1.18994">
        <ele>299.063558</ele>
        <time>2026-05-22T09:47:55.000Z</time>
      </trkpt>
      <trkpt lat="43.07727" lon="-1.18994">
        <ele>299.179768</ele>
        <time>2026-05-22T09:47:56.000Z</time>
      </trkpt>
      <trkpt lat="43.07725" lon="-1.18993">
        <ele>299.285059</ele>
        <time>2026-05-22T09:47:57.000Z</time>
      </trkpt>
      <trkpt lat="43.07724" lon="-1.18993">
        <ele>299.378833</ele>
        <time>2026-05-22T09:47:58.000Z</time>
      </trkpt>
      <trkpt lat="43.07722" lon="-1.18993">
        <ele>299.489241</ele>
        <time>2026-05-22T09:47:59.000Z</time>
      </trkpt>
      <trkpt lat="43.0772" lon="-1.18993">
        <ele>299.58877</ele>
        <time>2026-05-22T09:48:00.000Z</time>
      </trkpt>
      <trkpt lat="43.07719" lon="-1.18992">
        <ele>299.683213</ele>
        <time>2026-05-22T09:48:01.000Z</time>
      </trkpt>
      <trkpt lat="43.07717" lon="-1.18992">
        <ele>299.788504</ele>
        <time>2026-05-22T09:48:02.000Z</time>
      </trkpt>
      <trkpt lat="43.07715" lon="-1.18992">
        <ele>299.887308</ele>
        <time>2026-05-22T09:48:03.000Z</time>
      </trkpt>
      <trkpt lat="43.07713" lon="-1.18992">
        <ele>299.99796</ele>
        <time>2026-05-22T09:48:04.000Z</time>
      </trkpt>
      <trkpt lat="43.07711" lon="-1.18991">
        <ele>300.09812</ele>
        <time>2026-05-22T09:48:05.000Z</time>
      </trkpt>
      <trkpt lat="43.0771" lon="-1.18991">
        <ele>300.208446</ele>
        <time>2026-05-22T09:48:06.000Z</time>
      </trkpt>
      <trkpt lat="43.07708" lon="-1.18991">
        <ele>300.325812</ele>
        <time>2026-05-22T09:48:07.000Z</time>
      </trkpt>
      <trkpt lat="43.07705" lon="-1.1899">
        <ele>300.456068</ele>
        <time>2026-05-22T09:48:08.000Z</time>
      </trkpt>
      <trkpt lat="43.07703" lon="-1.1899">
        <ele>300.592024</ele>
        <time>2026-05-22T09:48:09.000Z</time>
      </trkpt>
      <trkpt lat="43.07701" lon="-1.18989">
        <ele>300.72665</ele>
        <time>2026-05-22T09:48:10.000Z</time>
      </trkpt>
      <trkpt lat="43.07698" lon="-1.18989">
        <ele>300.868313</ele>
        <time>2026-05-22T09:48:11.000Z</time>
      </trkpt>
      <trkpt lat="43.07696" lon="-1.18988">
        <ele>301.014468</ele>
        <time>2026-05-22T09:48:12.000Z</time>
      </trkpt>
      <trkpt lat="43.07693" lon="-1.18987">
        <ele>301.164569</ele>
        <time>2026-05-22T09:48:13.000Z</time>
      </trkpt>
      <trkpt lat="43.07691" lon="-1.18986">
        <ele>301.304694</ele>
        <time>2026-05-22T09:48:14.000Z</time>
      </trkpt>
      <trkpt lat="43.07689" lon="-1.18985">
        <ele>301.454796</ele>
        <time>2026-05-22T09:48:15.000Z</time>
      </trkpt>
      <trkpt lat="43.07686" lon="-1.18985">
        <ele>301.613627</ele>
        <time>2026-05-22T09:48:16.000Z</time>
      </trkpt>
      <trkpt lat="43.07683" lon="-1.18984">
        <ele>301.766082</ele>
        <time>2026-05-22T09:48:17.000Z</time>
      </trkpt>
      <trkpt lat="43.07681" lon="-1.18984">
        <ele>301.919946</ele>
        <time>2026-05-22T09:48:18.000Z</time>
      </trkpt>
      <trkpt lat="43.07678" lon="-1.18983">
        <ele>302.082361</ele>
        <time>2026-05-22T09:48:19.000Z</time>
      </trkpt>
      <trkpt lat="43.07675" lon="-1.18981">
        <ele>302.255451</ele>
        <time>2026-05-22T09:48:20.000Z</time>
      </trkpt>
      <trkpt lat="43.07672" lon="-1.18979">
        <ele>302.368001</ele>
        <time>2026-05-22T09:48:21.000Z</time>
      </trkpt>
      <trkpt lat="43.0767" lon="-1.18977">
        <ele>302.292808</ele>
        <time>2026-05-22T09:48:22.000Z</time>
      </trkpt>
      <trkpt lat="43.07667" lon="-1.18975">
        <ele>302.214107</ele>
        <time>2026-05-22T09:48:23.000Z</time>
      </trkpt>
      <trkpt lat="43.07663" lon="-1.18974">
        <ele>302.127927</ele>
        <time>2026-05-22T09:48:24.000Z</time>
      </trkpt>
      <trkpt lat="43.0766" lon="-1.18972">
        <ele>302.040491</ele>
        <time>2026-05-22T09:48:25.000Z</time>
      </trkpt>
      <trkpt lat="43.07656" lon="-1.18969">
        <ele>301.945156</ele>
        <time>2026-05-22T09:48:26.000Z</time>
      </trkpt>
      <trkpt lat="43.07652" lon="-1.18967">
        <ele>301.845329</ele>
        <time>2026-05-22T09:48:27.000Z</time>
      </trkpt>
      <trkpt lat="43.07649" lon="-1.18964">
        <ele>301.741747</ele>
        <time>2026-05-22T09:48:28.000Z</time>
      </trkpt>
      <trkpt lat="43.07645" lon="-1.18961">
        <ele>301.637307</ele>
        <time>2026-05-22T09:48:29.000Z</time>
      </trkpt>
      <trkpt lat="43.07641" lon="-1.18958">
        <ele>301.53456</ele>
        <time>2026-05-22T09:48:30.000Z</time>
      </trkpt>
      <trkpt lat="43.07637" lon="-1.18955">
        <ele>301.432626</ele>
        <time>2026-05-22T09:48:31.000Z</time>
      </trkpt>
      <trkpt lat="43.07634" lon="-1.18952">
        <ele>301.333375</ele>
        <time>2026-05-22T09:48:32.000Z</time>
      </trkpt>
      <trkpt lat="43.0763" lon="-1.18949">
        <ele>301.227231</ele>
        <time>2026-05-22T09:48:33.000Z</time>
      </trkpt>
      <trkpt lat="43.07626" lon="-1.18945">
        <ele>301.118139</ele>
        <time>2026-05-22T09:48:34.000Z</time>
      </trkpt>
      <trkpt lat="43.07623" lon="-1.18942">
        <ele>301.013</ele>
        <time>2026-05-22T09:48:35.000Z</time>
      </trkpt>
      <trkpt lat="43.07619" lon="-1.18938">
        <ele>300.89703</ele>
        <time>2026-05-22T09:48:36.000Z</time>
      </trkpt>
      <trkpt lat="43.07614" lon="-1.18934">
        <ele>300.773196</ele>
        <time>2026-05-22T09:48:37.000Z</time>
      </trkpt>
      <trkpt lat="43.0761" lon="-1.1893">
        <ele>300.641606</ele>
        <time>2026-05-22T09:48:38.000Z</time>
      </trkpt>
      <trkpt lat="43.07604" lon="-1.18928">
        <ele>300.506965</ele>
        <time>2026-05-22T09:48:39.000Z</time>
      </trkpt>
      <trkpt lat="43.07599" lon="-1.18925">
        <ele>300.36548</ele>
        <time>2026-05-22T09:48:40.000Z</time>
      </trkpt>
      <trkpt lat="43.07593" lon="-1.18923">
        <ele>300.219236</ele>
        <time>2026-05-22T09:48:41.000Z</time>
      </trkpt>
      <trkpt lat="43.07587" lon="-1.18922">
        <ele>300.074865</ele>
        <time>2026-05-22T09:48:42.000Z</time>
      </trkpt>
      <trkpt lat="43.0758" lon="-1.18922">
        <ele>299.917485</ele>
        <time>2026-05-22T09:48:43.000Z</time>
      </trkpt>
      <trkpt lat="43.07573" lon="-1.18922">
        <ele>299.753202</ele>
        <time>2026-05-22T09:48:44.000Z</time>
      </trkpt>
      <trkpt lat="43.07566" lon="-1.18922">
        <ele>299.586538</ele>
        <time>2026-05-22T09:48:45.000Z</time>
      </trkpt>
      <trkpt lat="43.07559" lon="-1.18922">
        <ele>299.415103</ele>
        <time>2026-05-22T09:48:46.000Z</time>
      </trkpt>
      <trkpt lat="43.07552" lon="-1.18922">
        <ele>299.243669</ele>
        <time>2026-05-22T09:48:47.000Z</time>
      </trkpt>
      <trkpt lat="43.07544" lon="-1.18921">
        <ele>299.052998</ele>
        <time>2026-05-22T09:48:48.000Z</time>
      </trkpt>
      <trkpt lat="43.07537" lon="-1.18921">
        <ele>298.888632</ele>
        <time>2026-05-22T09:48:49.000Z</time>
      </trkpt>
      <trkpt lat="43.0753" lon="-1.18921">
        <ele>298.729102</ele>
        <time>2026-05-22T09:48:50.000Z</time>
      </trkpt>
      <trkpt lat="43.07524" lon="-1.18921">
        <ele>298.574098</ele>
        <time>2026-05-22T09:48:51.000Z</time>
      </trkpt>
      <trkpt lat="43.07517" lon="-1.1892">
        <ele>298.414568</ele>
        <time>2026-05-22T09:48:52.000Z</time>
      </trkpt>
      <trkpt lat="43.07509" lon="-1.18921">
        <ele>298.230941</ele>
        <time>2026-05-22T09:48:53.000Z</time>
      </trkpt>
      <trkpt lat="43.07501" lon="-1.18923">
        <ele>298.078105</ele>
        <time>2026-05-22T09:48:54.000Z</time>
      </trkpt>
      <trkpt lat="43.07493" lon="-1.18925">
        <ele>297.995994</ele>
        <time>2026-05-22T09:48:55.000Z</time>
      </trkpt>
      <trkpt lat="43.07485" lon="-1.18927">
        <ele>297.914166</ele>
        <time>2026-05-22T09:48:56.000Z</time>
      </trkpt>
      <trkpt lat="43.07477" lon="-1.18928">
        <ele>297.823367</ele>
        <time>2026-05-22T09:48:57.000Z</time>
      </trkpt>
      <trkpt lat="43.07468" lon="-1.18926">
        <ele>297.73184</ele>
        <time>2026-05-22T09:48:58.000Z</time>
      </trkpt>
      <trkpt lat="43.07459" lon="-1.18922">
        <ele>297.641964</ele>
        <time>2026-05-22T09:48:59.000Z</time>
      </trkpt>
      <trkpt lat="43.07452" lon="-1.18917">
        <ele>297.556901</ele>
        <time>2026-05-22T09:49:00.000Z</time>
      </trkpt>
      <trkpt lat="43.07445" lon="-1.1891">
        <ele>297.469478</ele>
        <time>2026-05-22T09:49:01.000Z</time>
      </trkpt>
      <trkpt lat="43.07439" lon="-1.18902">
        <ele>297.384461</ele>
        <time>2026-05-22T09:49:02.000Z</time>
      </trkpt>
      <trkpt lat="43.07434" lon="-1.18893">
        <ele>297.300346</ele>
        <time>2026-05-22T09:49:03.000Z</time>
      </trkpt>
      <trkpt lat="43.0743" lon="-1.18883">
        <ele>297.216501</ele>
        <time>2026-05-22T09:49:04.000Z</time>
      </trkpt>
      <trkpt lat="43.07428" lon="-1.18872">
        <ele>297.132804</ele>
        <time>2026-05-22T09:49:05.000Z</time>
      </trkpt>
      <trkpt lat="43.07426" lon="-1.18862">
        <ele>297.052787</ele>
        <time>2026-05-22T09:49:06.000Z</time>
      </trkpt>
      <trkpt lat="43.07425" lon="-1.18851">
        <ele>296.97447</ele>
        <time>2026-05-22T09:49:07.000Z</time>
      </trkpt>
      <trkpt lat="43.07422" lon="-1.18842">
        <ele>296.899321</ele>
        <time>2026-05-22T09:49:08.000Z</time>
      </trkpt>
      <trkpt lat="43.07418" lon="-1.18835">
        <ele>296.828386</ele>
        <time>2026-05-22T09:49:09.000Z</time>
      </trkpt>
      <trkpt lat="43.07412" lon="-1.18829">
        <ele>296.763169</ele>
        <time>2026-05-22T09:49:10.000Z</time>
      </trkpt>
      <trkpt lat="43.07408" lon="-1.18826">
        <ele>296.707424</ele>
        <time>2026-05-22T09:49:11.000Z</time>
      </trkpt>
      <trkpt lat="43.07403" lon="-1.18823">
        <ele>296.653625</ele>
        <time>2026-05-22T09:49:12.000Z</time>
      </trkpt>
      <trkpt lat="43.07398" lon="-1.18821">
        <ele>296.601827</ele>
        <time>2026-05-22T09:49:13.000Z</time>
      </trkpt>
      <trkpt lat="43.07394" lon="-1.18819">
        <ele>296.55724</ele>
        <time>2026-05-22T09:49:14.000Z</time>
      </trkpt>
      <trkpt lat="43.07391" lon="-1.18817">
        <ele>296.522541</ele>
        <time>2026-05-22T09:49:15.000Z</time>
      </trkpt>
      <trkpt lat="43.07388" lon="-1.18816">
        <ele>296.490259</ele>
        <time>2026-05-22T09:49:16.000Z</time>
      </trkpt>
      <trkpt lat="43.07385" lon="-1.18815">
        <ele>296.464407</ele>
        <time>2026-05-22T09:49:17.000Z</time>
      </trkpt>
      <trkpt lat="43.07383" lon="-1.18814">
        <ele>296.437092</ele>
        <time>2026-05-22T09:49:18.000Z</time>
      </trkpt>
      <trkpt lat="43.07379" lon="-1.18814">
        <ele>296.404288</ele>
        <time>2026-05-22T09:49:19.000Z</time>
      </trkpt>
      <trkpt lat="43.07376" lon="-1.18814">
        <ele>296.36965</ele>
        <time>2026-05-22T09:49:20.000Z</time>
      </trkpt>
      <trkpt lat="43.07372" lon="-1.18814">
        <ele>296.333723</ele>
        <time>2026-05-22T09:49:21.000Z</time>
      </trkpt>
      <trkpt lat="43.07368" lon="-1.18816">
        <ele>296.290684</ele>
        <time>2026-05-22T09:49:22.000Z</time>
      </trkpt>
      <trkpt lat="43.07364" lon="-1.18817">
        <ele>296.28431</ele>
        <time>2026-05-22T09:49:23.000Z</time>
      </trkpt>
      <trkpt lat="43.07359" lon="-1.1882">
        <ele>296.30023</ele>
        <time>2026-05-22T09:49:24.000Z</time>
      </trkpt>
      <trkpt lat="43.07355" lon="-1.18821">
        <ele>296.314881</ele>
        <time>2026-05-22T09:49:25.000Z</time>
      </trkpt>
      <trkpt lat="43.0735" lon="-1.18822">
        <ele>296.331142</ele>
        <time>2026-05-22T09:49:26.000Z</time>
      </trkpt>
      <trkpt lat="43.07345" lon="-1.18825">
        <ele>296.347366</ele>
        <time>2026-05-22T09:49:27.000Z</time>
      </trkpt>
      <trkpt lat="43.07339" lon="-1.18827">
        <ele>296.366173</ele>
        <time>2026-05-22T09:49:28.000Z</time>
      </trkpt>
      <trkpt lat="43.07335" lon="-1.18831">
        <ele>296.382724</ele>
        <time>2026-05-22T09:49:29.000Z</time>
      </trkpt>
      <trkpt lat="43.07331" lon="-1.18836">
        <ele>296.399533</ele>
        <time>2026-05-22T09:49:30.000Z</time>
      </trkpt>
      <trkpt lat="43.07329" lon="-1.18842">
        <ele>296.416584</ele>
        <time>2026-05-22T09:49:31.000Z</time>
      </trkpt>
      <trkpt lat="43.07325" lon="-1.18848">
        <ele>296.43551</ele>
        <time>2026-05-22T09:49:32.000Z</time>
      </trkpt>
      <trkpt lat="43.0732" lon="-1.18855">
        <ele>296.456258</ele>
        <time>2026-05-22T09:49:33.000Z</time>
      </trkpt>
      <trkpt lat="43.07316" lon="-1.18861">
        <ele>296.476617</ele>
        <time>2026-05-22T09:49:34.000Z</time>
      </trkpt>
      <trkpt lat="43.07312" lon="-1.18868">
        <ele>296.496662</ele>
        <time>2026-05-22T09:49:35.000Z</time>
      </trkpt>
      <trkpt lat="43.07309" lon="-1.18875">
        <ele>296.516337</ele>
        <time>2026-05-22T09:49:36.000Z</time>
      </trkpt>
      <trkpt lat="43.07305" lon="-1.18881">
        <ele>296.535813</ele>
        <time>2026-05-22T09:49:37.000Z</time>
      </trkpt>
      <trkpt lat="43.07302" lon="-1.18889">
        <ele>296.555515</ele>
        <time>2026-05-22T09:49:38.000Z</time>
      </trkpt>
      <trkpt lat="43.07299" lon="-1.18895">
        <ele>296.573886</ele>
        <time>2026-05-22T09:49:39.000Z</time>
      </trkpt>
      <trkpt lat="43.07295" lon="-1.18901">
        <ele>296.592783</ele>
        <time>2026-05-22T09:49:40.000Z</time>
      </trkpt>
      <trkpt lat="43.07291" lon="-1.18908">
        <ele>296.611351</ele>
        <time>2026-05-22T09:49:41.000Z</time>
      </trkpt>
      <trkpt lat="43.07289" lon="-1.18914">
        <ele>296.627932</ele>
        <time>2026-05-22T09:49:42.000Z</time>
      </trkpt>
      <trkpt lat="43.07286" lon="-1.1892">
        <ele>296.645488</ele>
        <time>2026-05-22T09:49:43.000Z</time>
      </trkpt>
      <trkpt lat="43.07283" lon="-1.18926">
        <ele>296.663283</ele>
        <time>2026-05-22T09:49:44.000Z</time>
      </trkpt>
      <trkpt lat="43.0728" lon="-1.18933">
        <ele>296.68161</ele>
        <time>2026-05-22T09:49:45.000Z</time>
      </trkpt>
      <trkpt lat="43.07279" lon="-1.18941">
        <ele>296.699734</ele>
        <time>2026-05-22T09:49:46.000Z</time>
      </trkpt>
      <trkpt lat="43.07277" lon="-1.18948">
        <ele>296.717672</ele>
        <time>2026-05-22T09:49:47.000Z</time>
      </trkpt>
      <trkpt lat="43.07276" lon="-1.18956">
        <ele>296.736557</ele>
        <time>2026-05-22T09:49:48.000Z</time>
      </trkpt>
      <trkpt lat="43.07274" lon="-1.18964">
        <ele>296.755156</ele>
        <time>2026-05-22T09:49:49.000Z</time>
      </trkpt>
      <trkpt lat="43.07273" lon="-1.18972">
        <ele>296.774277</ele>
        <time>2026-05-22T09:49:50.000Z</time>
      </trkpt>
      <trkpt lat="43.07272" lon="-1.1898">
        <ele>296.794068</ele>
        <time>2026-05-22T09:49:51.000Z</time>
      </trkpt>
      <trkpt lat="43.07271" lon="-1.18988">
        <ele>296.814337</ele>
        <time>2026-05-22T09:49:52.000Z</time>
      </trkpt>
      <trkpt lat="43.07269" lon="-1.18997">
        <ele>296.835508</ele>
        <time>2026-05-22T09:49:53.000Z</time>
      </trkpt>
      <trkpt lat="43.07267" lon="-1.19006">
        <ele>297.021461</ele>
        <time>2026-05-22T09:49:54.000Z</time>
      </trkpt>
      <trkpt lat="43.07265" lon="-1.19015">
        <ele>297.555458</ele>
        <time>2026-05-22T09:49:55.000Z</time>
      </trkpt>
      <trkpt lat="43.07263" lon="-1.19023">
        <ele>298.081194</ele>
        <time>2026-05-22T09:49:56.000Z</time>
      </trkpt>
      <trkpt lat="43.0726" lon="-1.1903">
        <ele>298.573335</ele>
        <time>2026-05-22T09:49:57.000Z</time>
      </trkpt>
      <trkpt lat="43.07257" lon="-1.19037">
        <ele>299.057356</ele>
        <time>2026-05-22T09:49:58.000Z</time>
      </trkpt>
      <trkpt lat="43.07253" lon="-1.19043">
        <ele>299.543557</ele>
        <time>2026-05-22T09:49:59.000Z</time>
      </trkpt>
      <trkpt lat="43.07249" lon="-1.19049">
        <ele>300.032332</ele>
        <time>2026-05-22T09:50:00.000Z</time>
      </trkpt>
      <trkpt lat="43.07244" lon="-1.19054">
        <ele>300.525051</ele>
        <time>2026-05-22T09:50:01.000Z</time>
      </trkpt>
      <trkpt lat="43.0724" lon="-1.1906">
        <ele>301.00779</ele>
        <time>2026-05-22T09:50:02.000Z</time>
      </trkpt>
      <trkpt lat="43.07237" lon="-1.19065">
        <ele>301.430398</ele>
        <time>2026-05-22T09:50:03.000Z</time>
      </trkpt>
      <trkpt lat="43.07235" lon="-1.19071">
        <ele>301.823086</ele>
        <time>2026-05-22T09:50:04.000Z</time>
      </trkpt>
      <trkpt lat="43.07235" lon="-1.19077">
        <ele>302.178333</ele>
        <time>2026-05-22T09:50:05.000Z</time>
      </trkpt>
      <trkpt lat="43.07236" lon="-1.19083">
        <ele>302.535577</ele>
        <time>2026-05-22T09:50:06.000Z</time>
      </trkpt>
      <trkpt lat="43.07236" lon="-1.19088">
        <ele>302.851037</ele>
        <time>2026-05-22T09:50:07.000Z</time>
      </trkpt>
      <trkpt lat="43.07237" lon="-1.19093">
        <ele>303.133525</ele>
        <time>2026-05-22T09:50:08.000Z</time>
      </trkpt>
      <trkpt lat="43.07239" lon="-1.19097">
        <ele>303.384975</ele>
        <time>2026-05-22T09:50:09.000Z</time>
      </trkpt>
      <trkpt lat="43.0724" lon="-1.191">
        <ele>303.614144</ele>
        <time>2026-05-22T09:50:10.000Z</time>
      </trkpt>
      <trkpt lat="43.07241" lon="-1.19103">
        <ele>303.818227</ele>
        <time>2026-05-22T09:50:11.000Z</time>
      </trkpt>
      <trkpt lat="43.07242" lon="-1.19105">
        <ele>303.998295</ele>
        <time>2026-05-22T09:50:12.000Z</time>
      </trkpt>
      <trkpt lat="43.07243" lon="-1.19107">
        <ele>304.140747</ele>
        <time>2026-05-22T09:50:13.000Z</time>
      </trkpt>
      <trkpt lat="43.07245" lon="-1.19109">
        <ele>304.292991</ele>
        <time>2026-05-22T09:50:14.000Z</time>
      </trkpt>
      <trkpt lat="43.07245" lon="-1.19111">
        <ele>304.424186</ele>
        <time>2026-05-22T09:50:15.000Z</time>
      </trkpt>
      <trkpt lat="43.07246" lon="-1.19113">
        <ele>304.565472</ele>
        <time>2026-05-22T09:50:16.000Z</time>
      </trkpt>
      <trkpt lat="43.07247" lon="-1.19115">
        <ele>304.706625</ele>
        <time>2026-05-22T09:50:17.000Z</time>
      </trkpt>
      <trkpt lat="43.07249" lon="-1.19116">
        <ele>304.856787</ele>
        <time>2026-05-22T09:50:18.000Z</time>
      </trkpt>
      <trkpt lat="43.0725" lon="-1.19118">
        <ele>304.984626</ele>
        <time>2026-05-22T09:50:19.000Z</time>
      </trkpt>
      <trkpt lat="43.07251" lon="-1.19119">
        <ele>305.126813</ele>
        <time>2026-05-22T09:50:20.000Z</time>
      </trkpt>
      <trkpt lat="43.07252" lon="-1.19121">
        <ele>305.260611</ele>
        <time>2026-05-22T09:50:21.000Z</time>
      </trkpt>
      <trkpt lat="43.07253" lon="-1.19122">
        <ele>305.388449</ele>
        <time>2026-05-22T09:50:22.000Z</time>
      </trkpt>
      <trkpt lat="43.07254" lon="-1.19124">
        <ele>305.519728</ele>
        <time>2026-05-22T09:50:23.000Z</time>
      </trkpt>
      <trkpt lat="43.07256" lon="-1.19126">
        <ele>305.65188</ele>
        <time>2026-05-22T09:50:24.000Z</time>
      </trkpt>
      <trkpt lat="43.07257" lon="-1.19127">
        <ele>305.791868</ele>
        <time>2026-05-22T09:50:25.000Z</time>
      </trkpt>
      <trkpt lat="43.07258" lon="-1.19129">
        <ele>305.909639</ele>
        <time>2026-05-22T09:50:26.000Z</time>
      </trkpt>
      <trkpt lat="43.07259" lon="-1.1913">
        <ele>306.021345</ele>
        <time>2026-05-22T09:50:27.000Z</time>
      </trkpt>
      <trkpt lat="43.0726" lon="-1.19131">
        <ele>306.134893</ele>
        <time>2026-05-22T09:50:28.000Z</time>
      </trkpt>
      <trkpt lat="43.07261" lon="-1.19133">
        <ele>306.248441</ele>
        <time>2026-05-22T09:50:29.000Z</time>
      </trkpt>
      <trkpt lat="43.07262" lon="-1.19134">
        <ele>306.378259</ele>
        <time>2026-05-22T09:50:30.000Z</time>
      </trkpt>
      <trkpt lat="43.07263" lon="-1.19135">
        <ele>306.500618</ele>
        <time>2026-05-22T09:50:31.000Z</time>
      </trkpt>
      <trkpt lat="43.07265" lon="-1.19136">
        <ele>306.633166</ele>
        <time>2026-05-22T09:50:32.000Z</time>
      </trkpt>
      <trkpt lat="43.07266" lon="-1.19137">
        <ele>306.76365</ele>
        <time>2026-05-22T09:50:33.000Z</time>
      </trkpt>
      <trkpt lat="43.07268" lon="-1.19138">
        <ele>306.894135</ele>
        <time>2026-05-22T09:50:34.000Z</time>
      </trkpt>
      <trkpt lat="43.07269" lon="-1.19138">
        <ele>307.042147</ele>
        <time>2026-05-22T09:50:35.000Z</time>
      </trkpt>
      <trkpt lat="43.07271" lon="-1.19139">
        <ele>307.196969</ele>
        <time>2026-05-22T09:50:36.000Z</time>
      </trkpt>
      <trkpt lat="43.07273" lon="-1.1914">
        <ele>307.343137</ele>
        <time>2026-05-22T09:50:37.000Z</time>
      </trkpt>
      <trkpt lat="43.07274" lon="-1.19141">
        <ele>307.431492</ele>
        <time>2026-05-22T09:50:38.000Z</time>
      </trkpt>
      <trkpt lat="43.07275" lon="-1.19142">
        <ele>307.561511</ele>
        <time>2026-05-22T09:50:39.000Z</time>
      </trkpt>
      <trkpt lat="43.07276" lon="-1.19143">
        <ele>307.684232</ele>
        <time>2026-05-22T09:50:40.000Z</time>
      </trkpt>
      <trkpt lat="43.07277" lon="-1.19144">
        <ele>307.783572</ele>
        <time>2026-05-22T09:50:41.000Z</time>
      </trkpt>
      <trkpt lat="43.07278" lon="-1.19145">
        <ele>307.889197</ele>
        <time>2026-05-22T09:50:42.000Z</time>
      </trkpt>
      <trkpt lat="43.07279" lon="-1.19146">
        <ele>308.002745</ele>
        <time>2026-05-22T09:50:43.000Z</time>
      </trkpt>
      <trkpt lat="43.0728" lon="-1.19147">
        <ele>308.118557</ele>
        <time>2026-05-22T09:50:44.000Z</time>
      </trkpt>
      <trkpt lat="43.07282" lon="-1.19149">
        <ele>308.254746</ele>
        <time>2026-05-22T09:50:45.000Z</time>
      </trkpt>
      <trkpt lat="43.07283" lon="-1.1915">
        <ele>308.346515</ele>
        <time>2026-05-22T09:50:46.000Z</time>
      </trkpt>
      <trkpt lat="43.07284" lon="-1.1915">
        <ele>308.432295</ele>
        <time>2026-05-22T09:50:47.000Z</time>
      </trkpt>
      <trkpt lat="43.07285" lon="-1.19151">
        <ele>308.537484</ele>
        <time>2026-05-22T09:50:48.000Z</time>
      </trkpt>
      <trkpt lat="43.07286" lon="-1.19151">
        <ele>308.615659</ele>
        <time>2026-05-22T09:50:49.000Z</time>
      </trkpt>
      <trkpt lat="43.07287" lon="-1.19152">
        <ele>308.711025</ele>
        <time>2026-05-22T09:50:50.000Z</time>
      </trkpt>
      <trkpt lat="43.07287" lon="-1.19153">
        <ele>308.802794</ele>
        <time>2026-05-22T09:50:51.000Z</time>
      </trkpt>
      <trkpt lat="43.07288" lon="-1.19154">
        <ele>308.908419</ele>
        <time>2026-05-22T09:50:52.000Z</time>
      </trkpt>
      <trkpt lat="43.07289" lon="-1.19155">
        <ele>309.003859</ele>
        <time>2026-05-22T09:50:53.000Z</time>
      </trkpt>
      <trkpt lat="43.0729" lon="-1.19156">
        <ele>309.093757</ele>
        <time>2026-05-22T09:50:54.000Z</time>
      </trkpt>
      <trkpt lat="43.07291" lon="-1.19156">
        <ele>309.18919</ele>
        <time>2026-05-22T09:50:55.000Z</time>
      </trkpt>
      <trkpt lat="43.07293" lon="-1.19157">
        <ele>309.289069</ele>
        <time>2026-05-22T09:50:56.000Z</time>
      </trkpt>
      <trkpt lat="43.07293" lon="-1.19158">
        <ele>309.384509</ele>
        <time>2026-05-22T09:50:57.000Z</time>
      </trkpt>
      <trkpt lat="43.07294" lon="-1.19159">
        <ele>309.466081</ele>
        <time>2026-05-22T09:50:58.000Z</time>
      </trkpt>
      <trkpt lat="43.07295" lon="-1.19159">
        <ele>309.538491</ele>
        <time>2026-05-22T09:50:59.000Z</time>
      </trkpt>
      <trkpt lat="43.07296" lon="-1.1916">
        <ele>309.620915</ele>
        <time>2026-05-22T09:51:00.000Z</time>
      </trkpt>
      <trkpt lat="43.07297" lon="-1.19161">
        <ele>309.69909</ele>
        <time>2026-05-22T09:51:01.000Z</time>
      </trkpt>
      <trkpt lat="43.07298" lon="-1.19161">
        <ele>309.781513</ele>
        <time>2026-05-22T09:51:02.000Z</time>
      </trkpt>
      <trkpt lat="43.07299" lon="-1.19162">
        <ele>309.884072</ele>
        <time>2026-05-22T09:51:03.000Z</time>
      </trkpt>
      <trkpt lat="43.073" lon="-1.19163">
        <ele>309.965644</ele>
        <time>2026-05-22T09:51:04.000Z</time>
      </trkpt>
      <trkpt lat="43.073" lon="-1.19164">
        <ele>310.034607</ele>
        <time>2026-05-22T09:51:05.000Z</time>
      </trkpt>
      <trkpt lat="43.07301" lon="-1.19164">
        <ele>310.109688</ele>
        <time>2026-05-22T09:51:06.000Z</time>
      </trkpt>
      <trkpt lat="43.07302" lon="-1.19165">
        <ele>310.205053</ele>
        <time>2026-05-22T09:51:07.000Z</time>
      </trkpt>
      <trkpt lat="43.07303" lon="-1.19166">
        <ele>310.296822</ele>
        <time>2026-05-22T09:51:08.000Z</time>
      </trkpt>
      <trkpt lat="43.07304" lon="-1.19167">
        <ele>310.38602</ele>
        <time>2026-05-22T09:51:09.000Z</time>
      </trkpt>
      <trkpt lat="43.07304" lon="-1.19167">
        <ele>310.461094</ele>
        <time>2026-05-22T09:51:10.000Z</time>
      </trkpt>
      <trkpt lat="43.07305" lon="-1.19167">
        <ele>310.528053</ele>
        <time>2026-05-22T09:51:11.000Z</time>
      </trkpt>
      <trkpt lat="43.07306" lon="-1.19168">
        <ele>310.588447</ele>
        <time>2026-05-22T09:51:12.000Z</time>
      </trkpt>
      <trkpt lat="43.07307" lon="-1.19169">
        <ele>310.686161</ele>
        <time>2026-05-22T09:51:13.000Z</time>
      </trkpt>
      <trkpt lat="43.07307" lon="-1.1917">
        <ele>310.773906</ele>
        <time>2026-05-22T09:51:14.000Z</time>
      </trkpt>
      <trkpt lat="43.07308" lon="-1.19171">
        <ele>310.842479</ele>
        <time>2026-05-22T09:51:15.000Z</time>
      </trkpt>
      <trkpt lat="43.07308" lon="-1.19172">
        <ele>310.924477</ele>
        <time>2026-05-22T09:51:16.000Z</time>
      </trkpt>
      <trkpt lat="43.07309" lon="-1.19173">
        <ele>311.007047</ele>
        <time>2026-05-22T09:51:17.000Z</time>
      </trkpt>
      <trkpt lat="43.07309" lon="-1.19175">
        <ele>311.100776</ele>
        <time>2026-05-22T09:51:18.000Z</time>
      </trkpt>
      <trkpt lat="43.0731" lon="-1.19176">
        <ele>311.207834</ele>
        <time>2026-05-22T09:51:19.000Z</time>
      </trkpt>
      <trkpt lat="43.0731" lon="-1.19178">
        <ele>311.2962</ele>
        <time>2026-05-22T09:51:20.000Z</time>
      </trkpt>
      <trkpt lat="43.07311" lon="-1.19179">
        <ele>311.369086</ele>
        <time>2026-05-22T09:51:21.000Z</time>
      </trkpt>
      <trkpt lat="43.07312" lon="-1.1918">
        <ele>311.471945</ele>
        <time>2026-05-22T09:51:22.000Z</time>
      </trkpt>
      <trkpt lat="43.07312" lon="-1.19181">
        <ele>311.569659</ele>
        <time>2026-05-22T09:51:23.000Z</time>
      </trkpt>
      <trkpt lat="43.07313" lon="-1.19182">
        <ele>311.637838</ele>
        <time>2026-05-22T09:51:24.000Z</time>
      </trkpt>
      <trkpt lat="43.07313" lon="-1.19184">
        <ele>311.671819</ele>
        <time>2026-05-22T09:51:25.000Z</time>
      </trkpt>
      <trkpt lat="43.07313" lon="-1.19186">
        <ele>311.687995</ele>
        <time>2026-05-22T09:51:26.000Z</time>
      </trkpt>
      <trkpt lat="43.07313" lon="-1.19187">
        <ele>311.707184</ele>
        <time>2026-05-22T09:51:27.000Z</time>
      </trkpt>
      <trkpt lat="43.07312" lon="-1.19189">
        <ele>311.726373</ele>
        <time>2026-05-22T09:51:28.000Z</time>
      </trkpt>
      <trkpt lat="43.07312" lon="-1.19191">
        <ele>311.73854</ele>
        <time>2026-05-22T09:51:29.000Z</time>
      </trkpt>
      <trkpt lat="43.07312" lon="-1.19192">
        <ele>311.754808</ele>
        <time>2026-05-22T09:51:30.000Z</time>
      </trkpt>
      <trkpt lat="43.07311" lon="-1.19193">
        <ele>311.772713</ele>
        <time>2026-05-22T09:51:31.000Z</time>
      </trkpt>
      <trkpt lat="43.0731" lon="-1.19195">
        <ele>311.7915</ele>
        <time>2026-05-22T09:51:32.000Z</time>
      </trkpt>
      <trkpt lat="43.07309" lon="-1.19197">
        <ele>311.811158</ele>
        <time>2026-05-22T09:51:33.000Z</time>
      </trkpt>
      <trkpt lat="43.07309" lon="-1.19198">
        <ele>311.829089</ele>
        <time>2026-05-22T09:51:34.000Z</time>
      </trkpt>
      <trkpt lat="43.07307" lon="-1.19199">
        <ele>311.849178</ele>
        <time>2026-05-22T09:51:35.000Z</time>
      </trkpt>
      <trkpt lat="43.07307" lon="-1.192">
        <ele>311.866503</ele>
        <time>2026-05-22T09:51:36.000Z</time>
      </trkpt>
      <trkpt lat="43.07306" lon="-1.19202">
        <ele>311.885901</ele>
        <time>2026-05-22T09:51:37.000Z</time>
      </trkpt>
      <trkpt lat="43.07305" lon="-1.19203">
        <ele>311.903832</ele>
        <time>2026-05-22T09:51:38.000Z</time>
      </trkpt>
      <trkpt lat="43.07304" lon="-1.19205">
        <ele>311.924174</ele>
        <time>2026-05-22T09:51:39.000Z</time>
      </trkpt>
      <trkpt lat="43.07303" lon="-1.19207">
        <ele>311.945385</ele>
        <time>2026-05-22T09:51:40.000Z</time>
      </trkpt>
      <trkpt lat="43.07303" lon="-1.19208">
        <ele>311.964094</ele>
        <time>2026-05-22T09:51:41.000Z</time>
      </trkpt>
      <trkpt lat="43.07302" lon="-1.1921">
        <ele>311.985243</ele>
        <time>2026-05-22T09:51:42.000Z</time>
      </trkpt>
      <trkpt lat="43.07301" lon="-1.19212">
        <ele>312.008055</ele>
        <time>2026-05-22T09:51:43.000Z</time>
      </trkpt>
      <trkpt lat="43.073" lon="-1.19214">
        <ele>312.031695</ele>
        <time>2026-05-22T09:51:44.000Z</time>
      </trkpt>
      <trkpt lat="43.07299" lon="-1.19215">
        <ele>312.054475</ele>
        <time>2026-05-22T09:51:45.000Z</time>
      </trkpt>
      <trkpt lat="43.07298" lon="-1.19217">
        <ele>312.079023</ele>
        <time>2026-05-22T09:51:46.000Z</time>
      </trkpt>
      <trkpt lat="43.07296" lon="-1.19219">
        <ele>312.105765</ele>
        <time>2026-05-22T09:51:47.000Z</time>
      </trkpt>
      <trkpt lat="43.07294" lon="-1.1922">
        <ele>312.131423</ele>
        <time>2026-05-22T09:51:48.000Z</time>
      </trkpt>
      <trkpt lat="43.07293" lon="-1.19221">
        <ele>312.158275</ele>
        <time>2026-05-22T09:51:49.000Z</time>
      </trkpt>
      <trkpt lat="43.07291" lon="-1.19222">
        <ele>312.187307</ele>
        <time>2026-05-22T09:51:50.000Z</time>
      </trkpt>
      <trkpt lat="43.07288" lon="-1.19222">
        <ele>312.217712</ele>
        <time>2026-05-22T09:51:51.000Z</time>
      </trkpt>
      <trkpt lat="43.07286" lon="-1.19222">
        <ele>312.248067</ele>
        <time>2026-05-22T09:51:52.000Z</time>
      </trkpt>
      <trkpt lat="43.07284" lon="-1.19222">
        <ele>312.281163</ele>
        <time>2026-05-22T09:51:53.000Z</time>
      </trkpt>
      <trkpt lat="43.07281" lon="-1.19222">
        <ele>312.31845</ele>
        <time>2026-05-22T09:51:54.000Z</time>
      </trkpt>
      <trkpt lat="43.07278" lon="-1.19221">
        <ele>312.36299</ele>
        <time>2026-05-22T09:51:55.000Z</time>
      </trkpt>
      <trkpt lat="43.07274" lon="-1.19221">
        <ele>312.413455</ele>
        <time>2026-05-22T09:51:56.000Z</time>
      </trkpt>
      <trkpt lat="43.0727" lon="-1.19219">
        <ele>312.473779</ele>
        <time>2026-05-22T09:51:57.000Z</time>
      </trkpt>
      <trkpt lat="43.07265" lon="-1.19218">
        <ele>312.53855</ele>
        <time>2026-05-22T09:51:58.000Z</time>
      </trkpt>
      <trkpt lat="43.07261" lon="-1.19216">
        <ele>312.602173</ele>
        <time>2026-05-22T09:51:59.000Z</time>
      </trkpt>
      <trkpt lat="43.07257" lon="-1.19214">
        <ele>312.669144</ele>
        <time>2026-05-22T09:52:00.000Z</time>
      </trkpt>
      <trkpt lat="43.07252" lon="-1.19212">
        <ele>312.738947</ele>
        <time>2026-05-22T09:52:01.000Z</time>
      </trkpt>
      <trkpt lat="43.07247" lon="-1.1921">
        <ele>312.812912</ele>
        <time>2026-05-22T09:52:02.000Z</time>
      </trkpt>
      <trkpt lat="43.07241" lon="-1.19209">
        <ele>312.889297</ele>
        <time>2026-05-22T09:52:03.000Z</time>
      </trkpt>
      <trkpt lat="43.07235" lon="-1.19209">
        <ele>312.969336</ele>
        <time>2026-05-22T09:52:04.000Z</time>
      </trkpt>
      <trkpt lat="43.07229" lon="-1.19209">
        <ele>313.05384</ele>
        <time>2026-05-22T09:52:05.000Z</time>
      </trkpt>
      <trkpt lat="43.07223" lon="-1.19211">
        <ele>313.137422</ele>
        <time>2026-05-22T09:52:06.000Z</time>
      </trkpt>
      <trkpt lat="43.07217" lon="-1.19214">
        <ele>313.222592</ele>
        <time>2026-05-22T09:52:07.000Z</time>
      </trkpt>
      <trkpt lat="43.07211" lon="-1.19217">
        <ele>313.311975</ele>
        <time>2026-05-22T09:52:08.000Z</time>
      </trkpt>
      <trkpt lat="43.07205" lon="-1.1922">
        <ele>313.397475</ele>
        <time>2026-05-22T09:52:09.000Z</time>
      </trkpt>
      <trkpt lat="43.072" lon="-1.19223">
        <ele>313.482285</ele>
        <time>2026-05-22T09:52:10.000Z</time>
      </trkpt>
      <trkpt lat="43.07194" lon="-1.19225">
        <ele>313.566446</ele>
        <time>2026-05-22T09:52:11.000Z</time>
      </trkpt>
      <trkpt lat="43.07188" lon="-1.19228">
        <ele>313.651323</ele>
        <time>2026-05-22T09:52:12.000Z</time>
      </trkpt>
      <trkpt lat="43.07182" lon="-1.1923">
        <ele>313.734319</ele>
        <time>2026-05-22T09:52:13.000Z</time>
      </trkpt>
      <trkpt lat="43.07176" lon="-1.19232">
        <ele>313.819792</ele>
        <time>2026-05-22T09:52:14.000Z</time>
      </trkpt>
      <trkpt lat="43.07171" lon="-1.19235">
        <ele>313.904004</ele>
        <time>2026-05-22T09:52:15.000Z</time>
      </trkpt>
      <trkpt lat="43.07165" lon="-1.19239">
        <ele>313.983599</ele>
        <time>2026-05-22T09:52:16.000Z</time>
      </trkpt>
      <trkpt lat="43.07161" lon="-1.19243">
        <ele>314.062705</ele>
        <time>2026-05-22T09:52:17.000Z</time>
      </trkpt>
      <trkpt lat="43.07156" lon="-1.19248">
        <ele>314.136138</ele>
        <time>2026-05-22T09:52:18.000Z</time>
      </trkpt>
      <trkpt lat="43.07153" lon="-1.19252">
        <ele>314.285398</ele>
        <time>2026-05-22T09:52:19.000Z</time>
      </trkpt>
      <trkpt lat="43.07149" lon="-1.19257">
        <ele>314.441033</ele>
        <time>2026-05-22T09:52:20.000Z</time>
      </trkpt>
      <trkpt lat="43.07146" lon="-1.19262">
        <ele>314.591296</ele>
        <time>2026-05-22T09:52:21.000Z</time>
      </trkpt>
      <trkpt lat="43.07143" lon="-1.19267">
        <ele>314.735902</ele>
        <time>2026-05-22T09:52:22.000Z</time>
      </trkpt>
      <trkpt lat="43.07141" lon="-1.19272">
        <ele>314.873443</ele>
        <time>2026-05-22T09:52:23.000Z</time>
      </trkpt>
      <trkpt lat="43.07139" lon="-1.19278">
        <ele>315.024051</ele>
        <time>2026-05-22T09:52:24.000Z</time>
      </trkpt>
      <trkpt lat="43.07137" lon="-1.19284">
        <ele>315.172602</ele>
        <time>2026-05-22T09:52:25.000Z</time>
      </trkpt>
      <trkpt lat="43.07135" lon="-1.1929">
        <ele>315.326893</ele>
        <time>2026-05-22T09:52:26.000Z</time>
      </trkpt>
      <trkpt lat="43.07132" lon="-1.19296">
        <ele>315.483008</ele>
        <time>2026-05-22T09:52:27.000Z</time>
      </trkpt>
      <trkpt lat="43.07131" lon="-1.19302">
        <ele>315.633077</ele>
        <time>2026-05-22T09:52:28.000Z</time>
      </trkpt>
      <trkpt lat="43.07129" lon="-1.19308">
        <ele>315.775351</ele>
        <time>2026-05-22T09:52:29.000Z</time>
      </trkpt>
      <trkpt lat="43.07128" lon="-1.19313">
        <ele>315.913351</ele>
        <time>2026-05-22T09:52:30.000Z</time>
      </trkpt>
      <trkpt lat="43.07126" lon="-1.19319">
        <ele>316.05571</ele>
        <time>2026-05-22T09:52:31.000Z</time>
      </trkpt>
      <trkpt lat="43.07125" lon="-1.19325">
        <ele>316.194045</ele>
        <time>2026-05-22T09:52:32.000Z</time>
      </trkpt>
      <trkpt lat="43.07124" lon="-1.1933">
        <ele>316.313008</ele>
        <time>2026-05-22T09:52:33.000Z</time>
      </trkpt>
      <trkpt lat="43.07123" lon="-1.19334">
        <ele>316.413241</ele>
        <time>2026-05-22T09:52:34.000Z</time>
      </trkpt>
      <trkpt lat="43.07122" lon="-1.19338">
        <ele>316.504049</ele>
        <time>2026-05-22T09:52:35.000Z</time>
      </trkpt>
      <trkpt lat="43.0712" lon="-1.19342">
        <ele>316.600341</ele>
        <time>2026-05-22T09:52:36.000Z</time>
      </trkpt>
      <trkpt lat="43.07119" lon="-1.19345">
        <ele>316.693932</ele>
        <time>2026-05-22T09:52:37.000Z</time>
      </trkpt>
      <trkpt lat="43.07117" lon="-1.19349">
        <ele>316.794583</ele>
        <time>2026-05-22T09:52:38.000Z</time>
      </trkpt>
      <trkpt lat="43.07116" lon="-1.19353">
        <ele>316.898804</ele>
        <time>2026-05-22T09:52:39.000Z</time>
      </trkpt>
      <trkpt lat="43.07114" lon="-1.19357">
        <ele>317.006328</ele>
        <time>2026-05-22T09:52:40.000Z</time>
      </trkpt>
      <trkpt lat="43.07111" lon="-1.1936">
        <ele>317.110266</ele>
        <time>2026-05-22T09:52:41.000Z</time>
      </trkpt>
      <trkpt lat="43.07109" lon="-1.19364">
        <ele>317.217976</ele>
        <time>2026-05-22T09:52:42.000Z</time>
      </trkpt>
      <trkpt lat="43.07108" lon="-1.19367">
        <ele>317.314429</ele>
        <time>2026-05-22T09:52:43.000Z</time>
      </trkpt>
      <trkpt lat="43.07106" lon="-1.19371">
        <ele>317.410788</ele>
        <time>2026-05-22T09:52:44.000Z</time>
      </trkpt>
      <trkpt lat="43.07103" lon="-1.19374">
        <ele>317.517609</ele>
        <time>2026-05-22T09:52:45.000Z</time>
      </trkpt>
      <trkpt lat="43.07101" lon="-1.19377">
        <ele>317.623575</ele>
        <time>2026-05-22T09:52:46.000Z</time>
      </trkpt>
      <trkpt lat="43.07098" lon="-1.1938">
        <ele>317.733874</ele>
        <time>2026-05-22T09:52:47.000Z</time>
      </trkpt>
      <trkpt lat="43.07095" lon="-1.19382">
        <ele>317.84303</ele>
        <time>2026-05-22T09:52:48.000Z</time>
      </trkpt>
      <trkpt lat="43.07092" lon="-1.19384">
        <ele>317.94687</ele>
        <time>2026-05-22T09:52:49.000Z</time>
      </trkpt>
      <trkpt lat="43.07089" lon="-1.19386">
        <ele>318.0547</ele>
        <time>2026-05-22T09:52:50.000Z</time>
      </trkpt>
      <trkpt lat="43.07085" lon="-1.19387">
        <ele>318.158346</ele>
        <time>2026-05-22T09:52:51.000Z</time>
      </trkpt>
      <trkpt lat="43.07082" lon="-1.19387">
        <ele>318.253589</ele>
        <time>2026-05-22T09:52:52.000Z</time>
      </trkpt>
      <trkpt lat="43.07079" lon="-1.19388">
        <ele>318.348832</ele>
        <time>2026-05-22T09:52:53.000Z</time>
      </trkpt>
      <trkpt lat="43.07076" lon="-1.19388">
        <ele>318.446243</ele>
        <time>2026-05-22T09:52:54.000Z</time>
      </trkpt>
      <trkpt lat="43.07074" lon="-1.19388">
        <ele>318.531092</ele>
        <time>2026-05-22T09:52:55.000Z</time>
      </trkpt>
      <trkpt lat="43.07071" lon="-1.19388">
        <ele>318.622309</ele>
        <time>2026-05-22T09:52:56.000Z</time>
      </trkpt>
      <trkpt lat="43.07068" lon="-1.19388">
        <ele>318.716803</ele>
        <time>2026-05-22T09:52:57.000Z</time>
      </trkpt>
      <trkpt lat="43.07065" lon="-1.19387">
        <ele>318.799632</ele>
        <time>2026-05-22T09:52:58.000Z</time>
      </trkpt>
      <trkpt lat="43.07063" lon="-1.19386">
        <ele>318.876273</ele>
        <time>2026-05-22T09:52:59.000Z</time>
      </trkpt>
      <trkpt lat="43.0706" lon="-1.19385">
        <ele>318.96545</ele>
        <time>2026-05-22T09:53:00.000Z</time>
      </trkpt>
      <trkpt lat="43.07057" lon="-1.19383">
        <ele>319.068512</ele>
        <time>2026-05-22T09:53:01.000Z</time>
      </trkpt>
      <trkpt lat="43.07055" lon="-1.19381">
        <ele>319.155606</ele>
        <time>2026-05-22T09:53:02.000Z</time>
      </trkpt>
      <trkpt lat="43.07052" lon="-1.19379">
        <ele>319.245087</ele>
        <time>2026-05-22T09:53:03.000Z</time>
      </trkpt>
      <trkpt lat="43.0705" lon="-1.19377">
        <ele>319.334565</ele>
        <time>2026-05-22T09:53:04.000Z</time>
      </trkpt>
      <trkpt lat="43.07047" lon="-1.19374">
        <ele>319.435714</ele>
        <time>2026-05-22T09:53:05.000Z</time>
      </trkpt>
      <trkpt lat="43.07045" lon="-1.19371">
        <ele>319.530896</ele>
        <time>2026-05-22T09:53:06.000Z</time>
      </trkpt>
      <trkpt lat="43.07043" lon="-1.19369">
        <ele>319.6222</ele>
        <time>2026-05-22T09:53:07.000Z</time>
      </trkpt>
      <trkpt lat="43.07041" lon="-1.19366">
        <ele>319.715019</ele>
        <time>2026-05-22T09:53:08.000Z</time>
      </trkpt>
      <trkpt lat="43.07039" lon="-1.19364">
        <ele>319.800867</ele>
        <time>2026-05-22T09:53:09.000Z</time>
      </trkpt>
      <trkpt lat="43.07037" lon="-1.19361">
        <ele>319.87665</ele>
        <time>2026-05-22T09:53:10.000Z</time>
      </trkpt>
      <trkpt lat="43.07035" lon="-1.19358">
        <ele>319.955735</ele>
        <time>2026-05-22T09:53:11.000Z</time>
      </trkpt>
      <trkpt lat="43.07033" lon="-1.19355">
        <ele>320.031518</ele>
        <time>2026-05-22T09:53:12.000Z</time>
      </trkpt>
      <trkpt lat="43.07031" lon="-1.19352">
        <ele>320.114425</ele>
        <time>2026-05-22T09:53:13.000Z</time>
      </trkpt>
      <trkpt lat="43.07028" lon="-1.19349">
        <ele>320.200024</ele>
        <time>2026-05-22T09:53:14.000Z</time>
      </trkpt>
      <trkpt lat="43.07026" lon="-1.19346">
        <ele>320.29697</ele>
        <time>2026-05-22T09:53:15.000Z</time>
      </trkpt>
      <trkpt lat="43.07023" lon="-1.19343">
        <ele>320.395984</ele>
        <time>2026-05-22T09:53:16.000Z</time>
      </trkpt>
      <trkpt lat="43.0702" lon="-1.1934">
        <ele>320.501378</ele>
        <time>2026-05-22T09:53:17.000Z</time>
      </trkpt>
      <trkpt lat="43.07016" lon="-1.19337">
        <ele>320.610022</ele>
        <time>2026-05-22T09:53:18.000Z</time>
      </trkpt>
      <trkpt lat="43.07013" lon="-1.19334">
        <ele>320.720512</ele>
        <time>2026-05-22T09:53:19.000Z</time>
      </trkpt>
      <trkpt lat="43.07009" lon="-1.19332">
        <ele>320.845638</ele>
        <time>2026-05-22T09:53:20.000Z</time>
      </trkpt>
      <trkpt lat="43.07004" lon="-1.19329">
        <ele>320.972129</ele>
        <time>2026-05-22T09:53:21.000Z</time>
      </trkpt>
      <trkpt lat="43.06999" lon="-1.19328">
        <ele>321.104091</ele>
        <time>2026-05-22T09:53:22.000Z</time>
      </trkpt>
      <trkpt lat="43.06995" lon="-1.19327">
        <ele>321.227843</ele>
        <time>2026-05-22T09:53:23.000Z</time>
      </trkpt>
      <trkpt lat="43.0699" lon="-1.19326">
        <ele>321.350399</ele>
        <time>2026-05-22T09:53:24.000Z</time>
      </trkpt>
      <trkpt lat="43.06986" lon="-1.19326">
        <ele>321.483426</ele>
        <time>2026-05-22T09:53:25.000Z</time>
      </trkpt>
      <trkpt lat="43.06981" lon="-1.19327">
        <ele>321.611562</ele>
        <time>2026-05-22T09:53:26.000Z</time>
      </trkpt>
      <trkpt lat="43.06976" lon="-1.19328">
        <ele>321.742567</ele>
        <time>2026-05-22T09:53:27.000Z</time>
      </trkpt>
      <trkpt lat="43.06972" lon="-1.1933">
        <ele>321.867225</ele>
        <time>2026-05-22T09:53:28.000Z</time>
      </trkpt>
      <trkpt lat="43.06967" lon="-1.19332">
        <ele>321.997616</ele>
        <time>2026-05-22T09:53:29.000Z</time>
      </trkpt>
      <trkpt lat="43.06963" lon="-1.19334">
        <ele>322.124107</ele>
        <time>2026-05-22T09:53:30.000Z</time>
      </trkpt>
      <trkpt lat="43.06959" lon="-1.19337">
        <ele>322.228873</ele>
        <time>2026-05-22T09:53:31.000Z</time>
      </trkpt>
      <trkpt lat="43.06956" lon="-1.1934">
        <ele>322.328613</ele>
        <time>2026-05-22T09:53:32.000Z</time>
      </trkpt>
      <trkpt lat="43.06954" lon="-1.19342">
        <ele>322.411586</ele>
        <time>2026-05-22T09:53:33.000Z</time>
      </trkpt>
      <trkpt lat="43.06951" lon="-1.19344">
        <ele>322.498975</ele>
        <time>2026-05-22T09:53:34.000Z</time>
      </trkpt>
      <trkpt lat="43.06948" lon="-1.19346">
        <ele>322.583272</ele>
        <time>2026-05-22T09:53:35.000Z</time>
      </trkpt>
      <trkpt lat="43.06946" lon="-1.19348">
        <ele>322.650087</ele>
        <time>2026-05-22T09:53:36.000Z</time>
      </trkpt>
      <trkpt lat="43.06943" lon="-1.19349">
        <ele>322.727469</ele>
        <time>2026-05-22T09:53:37.000Z</time>
      </trkpt>
      <trkpt lat="43.06941" lon="-1.19351">
        <ele>322.796913</ele>
        <time>2026-05-22T09:53:38.000Z</time>
      </trkpt>
      <trkpt lat="43.06939" lon="-1.19353">
        <ele>322.867509</ele>
        <time>2026-05-22T09:53:39.000Z</time>
      </trkpt>
      <trkpt lat="43.06937" lon="-1.19356">
        <ele>322.950398</ele>
        <time>2026-05-22T09:53:40.000Z</time>
      </trkpt>
      <trkpt lat="43.06934" lon="-1.19358">
        <ele>323.031074</ele>
        <time>2026-05-22T09:53:41.000Z</time>
      </trkpt>
      <trkpt lat="43.06932" lon="-1.1936">
        <ele>323.117399</ele>
        <time>2026-05-22T09:53:42.000Z</time>
      </trkpt>
      <trkpt lat="43.06929" lon="-1.19363">
        <ele>323.20701</ele>
        <time>2026-05-22T09:53:43.000Z</time>
      </trkpt>
      <trkpt lat="43.06926" lon="-1.19365">
        <ele>323.292304</ele>
        <time>2026-05-22T09:53:44.000Z</time>
      </trkpt>
      <trkpt lat="43.06923" lon="-1.19367">
        <ele>323.383284</ele>
        <time>2026-05-22T09:53:45.000Z</time>
      </trkpt>
      <trkpt lat="43.0692" lon="-1.19369">
        <ele>323.48783</ele>
        <time>2026-05-22T09:53:46.000Z</time>
      </trkpt>
      <trkpt lat="43.06916" lon="-1.19372">
        <ele>323.593219</ele>
        <time>2026-05-22T09:53:47.000Z</time>
      </trkpt>
      <trkpt lat="43.06913" lon="-1.19374">
        <ele>323.701916</ele>
        <time>2026-05-22T09:53:48.000Z</time>
      </trkpt>
      <trkpt lat="43.06909" lon="-1.19377">
        <ele>323.82387</ele>
        <time>2026-05-22T09:53:49.000Z</time>
      </trkpt>
      <trkpt lat="43.06905" lon="-1.1938">
        <ele>323.937688</ele>
        <time>2026-05-22T09:53:50.000Z</time>
      </trkpt>
      <trkpt lat="43.06901" lon="-1.19382">
        <ele>324.049118</ele>
        <time>2026-05-22T09:53:51.000Z</time>
      </trkpt>
      <trkpt lat="43.06898" lon="-1.19385">
        <ele>324.151501</ele>
        <time>2026-05-22T09:53:52.000Z</time>
      </trkpt>
      <trkpt lat="43.06895" lon="-1.19388">
        <ele>324.252319</ele>
        <time>2026-05-22T09:53:53.000Z</time>
      </trkpt>
      <trkpt lat="43.06892" lon="-1.1939">
        <ele>324.347523</ele>
        <time>2026-05-22T09:53:54.000Z</time>
      </trkpt>
      <trkpt lat="43.06889" lon="-1.19393">
        <ele>324.445013</ele>
        <time>2026-05-22T09:53:55.000Z</time>
      </trkpt>
      <trkpt lat="43.06886" lon="-1.19396">
        <ele>324.540218</ele>
        <time>2026-05-22T09:53:56.000Z</time>
      </trkpt>
      <trkpt lat="43.06883" lon="-1.19399">
        <ele>324.636603</ele>
        <time>2026-05-22T09:53:57.000Z</time>
      </trkpt>
      <trkpt lat="43.0688" lon="-1.19401">
        <ele>324.701519</ele>
        <time>2026-05-22T09:53:58.000Z</time>
      </trkpt>
      <trkpt lat="43.06878" lon="-1.19405">
        <ele>324.74561</ele>
        <time>2026-05-22T09:53:59.000Z</time>
      </trkpt>
      <trkpt lat="43.06875" lon="-1.19408">
        <ele>324.790057</ele>
        <time>2026-05-22T09:54:00.000Z</time>
      </trkpt>
      <trkpt lat="43.06873" lon="-1.1941">
        <ele>324.831095</ele>
        <time>2026-05-22T09:54:01.000Z</time>
      </trkpt>
      <trkpt lat="43.0687" lon="-1.19413">
        <ele>324.870515</ele>
        <time>2026-05-22T09:54:02.000Z</time>
      </trkpt>
      <trkpt lat="43.06869" lon="-1.19415">
        <ele>324.903043</ele>
        <time>2026-05-22T09:54:03.000Z</time>
      </trkpt>
      <trkpt lat="43.06867" lon="-1.19417">
        <ele>324.939095</ele>
        <time>2026-05-22T09:54:04.000Z</time>
      </trkpt>
      <trkpt lat="43.06865" lon="-1.1942">
        <ele>324.974211</ele>
        <time>2026-05-22T09:54:05.000Z</time>
      </trkpt>
      <trkpt lat="43.06863" lon="-1.19423">
        <ele>325.011221</ele>
        <time>2026-05-22T09:54:06.000Z</time>
      </trkpt>
      <trkpt lat="43.06861" lon="-1.19425">
        <ele>325.046337</ele>
        <time>2026-05-22T09:54:07.000Z</time>
      </trkpt>
      <trkpt lat="43.06859" lon="-1.19428">
        <ele>325.079655</ele>
        <time>2026-05-22T09:54:08.000Z</time>
      </trkpt>
      <trkpt lat="43.06857" lon="-1.1943">
        <ele>325.112974</ele>
        <time>2026-05-22T09:54:09.000Z</time>
      </trkpt>
      <trkpt lat="43.06855" lon="-1.19433">
        <ele>325.149465</ele>
        <time>2026-05-22T09:54:10.000Z</time>
      </trkpt>
      <trkpt lat="43.06854" lon="-1.19436">
        <ele>325.184969</ele>
        <time>2026-05-22T09:54:11.000Z</time>
      </trkpt>
      <trkpt lat="43.06852" lon="-1.19439">
        <ele>325.221223</ele>
        <time>2026-05-22T09:54:12.000Z</time>
      </trkpt>
      <trkpt lat="43.0685" lon="-1.19442">
        <ele>325.259035</ele>
        <time>2026-05-22T09:54:13.000Z</time>
      </trkpt>
      <trkpt lat="43.06848" lon="-1.19445">
        <ele>325.299248</ele>
        <time>2026-05-22T09:54:14.000Z</time>
      </trkpt>
      <trkpt lat="43.06846" lon="-1.19449">
        <ele>325.338573</ele>
        <time>2026-05-22T09:54:15.000Z</time>
      </trkpt>
      <trkpt lat="43.06845" lon="-1.19452">
        <ele>325.378706</ele>
        <time>2026-05-22T09:54:16.000Z</time>
      </trkpt>
      <trkpt lat="43.06843" lon="-1.19456">
        <ele>325.418494</ele>
        <time>2026-05-22T09:54:17.000Z</time>
      </trkpt>
      <trkpt lat="43.06842" lon="-1.19459">
        <ele>325.455986</ele>
        <time>2026-05-22T09:54:18.000Z</time>
      </trkpt>
      <trkpt lat="43.06841" lon="-1.19463">
        <ele>325.491787</ele>
        <time>2026-05-22T09:54:19.000Z</time>
      </trkpt>
      <trkpt lat="43.06839" lon="-1.19466">
        <ele>325.527403</ele>
        <time>2026-05-22T09:54:20.000Z</time>
      </trkpt>
      <trkpt lat="43.06838" lon="-1.19469">
        <ele>325.561749</ele>
        <time>2026-05-22T09:54:21.000Z</time>
      </trkpt>
      <trkpt lat="43.06837" lon="-1.19472">
        <ele>325.587811</ele>
        <time>2026-05-22T09:54:22.000Z</time>
      </trkpt>
      <trkpt lat="43.06837" lon="-1.19474">
        <ele>325.608901</ele>
        <time>2026-05-22T09:54:23.000Z</time>
      </trkpt>
      <trkpt lat="43.06837" lon="-1.19475">
        <ele>325.624235</ele>
        <time>2026-05-22T09:54:24.000Z</time>
      </trkpt>
      <trkpt lat="43.06837" lon="-1.19477">
        <ele>325.637667</ele>
        <time>2026-05-22T09:54:25.000Z</time>
      </trkpt>
      <trkpt lat="43.06837" lon="-1.19478">
        <ele>325.64942</ele>
        <time>2026-05-22T09:54:26.000Z</time>
      </trkpt>
      <trkpt lat="43.06837" lon="-1.19479">
        <ele>325.664668</ele>
        <time>2026-05-22T09:54:27.000Z</time>
      </trkpt>
      <trkpt lat="43.06838" lon="-1.19481">
        <ele>325.683302</ele>
        <time>2026-05-22T09:54:28.000Z</time>
      </trkpt>
      <trkpt lat="43.06839" lon="-1.19483">
        <ele>325.705731</ele>
        <time>2026-05-22T09:54:29.000Z</time>
      </trkpt>
      <trkpt lat="43.06839" lon="-1.19485">
        <ele>325.725916</ele>
        <time>2026-05-22T09:54:30.000Z</time>
      </trkpt>
      <trkpt lat="43.0684" lon="-1.19487">
        <ele>325.744809</ele>
        <time>2026-05-22T09:54:31.000Z</time>
      </trkpt>
      <trkpt lat="43.06841" lon="-1.19489">
        <ele>325.764118</ele>
        <time>2026-05-22T09:54:32.000Z</time>
      </trkpt>
      <trkpt lat="43.06841" lon="-1.1949">
        <ele>325.782752</ele>
        <time>2026-05-22T09:54:33.000Z</time>
      </trkpt>
      <trkpt lat="43.06842" lon="-1.19492">
        <ele>325.805894</ele>
        <time>2026-05-22T09:54:34.000Z</time>
      </trkpt>
      <trkpt lat="43.06843" lon="-1.19494">
        <ele>325.826735</ele>
        <time>2026-05-22T09:54:35.000Z</time>
      </trkpt>
      <trkpt lat="43.06844" lon="-1.19496">
        <ele>325.848328</ele>
        <time>2026-05-22T09:54:36.000Z</time>
      </trkpt>
      <trkpt lat="43.06845" lon="-1.19498">
        <ele>325.868447</ele>
        <time>2026-05-22T09:54:37.000Z</time>
      </trkpt>
      <trkpt lat="43.06846" lon="-1.19499">
        <ele>325.889687</ele>
        <time>2026-05-22T09:54:38.000Z</time>
      </trkpt>
      <trkpt lat="43.06848" lon="-1.195">
        <ele>325.910328</ele>
        <time>2026-05-22T09:54:39.000Z</time>
      </trkpt>
      <trkpt lat="43.06849" lon="-1.195">
        <ele>325.928727</ele>
        <time>2026-05-22T09:54:40.000Z</time>
      </trkpt>
      <trkpt lat="43.0685" lon="-1.195">
        <ele>325.943231</ele>
        <time>2026-05-22T09:54:41.000Z</time>
      </trkpt>
      <trkpt lat="43.06851" lon="-1.195">
        <ele>325.956848</ele>
        <time>2026-05-22T09:54:42.000Z</time>
      </trkpt>
      <trkpt lat="43.06852" lon="-1.19499">
        <ele>325.967643</ele>
        <time>2026-05-22T09:54:43.000Z</time>
      </trkpt>
      <trkpt lat="43.06852" lon="-1.19499">
        <ele>325.973117</ele>
        <time>2026-05-22T09:54:44.000Z</time>
      </trkpt>
      <trkpt lat="43.06853" lon="-1.19499">
        <ele>325.981809</ele>
        <time>2026-05-22T09:54:46.000Z</time>
      </trkpt>
      <trkpt lat="43.06853" lon="-1.19501">
        <ele>325.997056</ele>
        <time>2026-05-22T09:54:47.000Z</time>
      </trkpt>
      <trkpt lat="43.06853" lon="-1.19502">
        <ele>326.01239</ele>
        <time>2026-05-22T09:54:48.000Z</time>
      </trkpt>
      <trkpt lat="43.06852" lon="-1.19504">
        <ele>326.032999</ele>
        <time>2026-05-22T09:54:49.000Z</time>
      </trkpt>
      <trkpt lat="43.0685" lon="-1.19504">
        <ele>326.053934</ele>
        <time>2026-05-22T09:54:50.000Z</time>
      </trkpt>
      <trkpt lat="43.06849" lon="-1.19503">
        <ele>326.075033</ele>
        <time>2026-05-22T09:54:51.000Z</time>
      </trkpt>
      <trkpt lat="43.06847" lon="-1.19501">
        <ele>326.104675</ele>
        <time>2026-05-22T09:54:52.000Z</time>
      </trkpt>
      <trkpt lat="43.06845" lon="-1.19498">
        <ele>326.141012</ele>
        <time>2026-05-22T09:54:53.000Z</time>
      </trkpt>
      <trkpt lat="43.06844" lon="-1.19494">
        <ele>326.181145</ele>
        <time>2026-05-22T09:54:54.000Z</time>
      </trkpt>
      <trkpt lat="43.06842" lon="-1.19491">
        <ele>326.220088</ele>
        <time>2026-05-22T09:54:55.000Z</time>
      </trkpt>
      <trkpt lat="43.06841" lon="-1.19487">
        <ele>326.261331</ele>
        <time>2026-05-22T09:54:56.000Z</time>
      </trkpt>
      <trkpt lat="43.06839" lon="-1.19483">
        <ele>326.302387</ele>
        <time>2026-05-22T09:54:57.000Z</time>
      </trkpt>
      <trkpt lat="43.06839" lon="-1.19481">
        <ele>326.323564</ele>
        <time>2026-05-22T09:54:58.000Z</time>
      </trkpt>
      <trkpt lat="43.06838" lon="-1.1948">
        <ele>326.33205</ele>
        <time>2026-05-22T09:54:59.000Z</time>
      </trkpt>
      <trkpt lat="43.06838" lon="-1.1948">
        <ele>326.335928</ele>
        <time>2026-05-22T09:55:00.000Z</time>
      </trkpt>
      <trkpt lat="43.06841" lon="-1.19485">
        <ele>326.393101</ele>
        <time>2026-05-22T10:01:49.000Z</time>
      </trkpt>
      <trkpt lat="43.06841" lon="-1.19486">
        <ele>326.407129</ele>
        <time>2026-05-22T10:01:50.000Z</time>
      </trkpt>
      <trkpt lat="43.06842" lon="-1.19488">
        <ele>326.424126</ele>
        <time>2026-05-22T10:01:51.000Z</time>
      </trkpt>
      <trkpt lat="43.06843" lon="-1.19489">
        <ele>326.44266</ele>
        <time>2026-05-22T10:01:52.000Z</time>
      </trkpt>
      <trkpt lat="43.06844" lon="-1.19491">
        <ele>326.461969</ele>
        <time>2026-05-22T10:01:53.000Z</time>
      </trkpt>
      <trkpt lat="43.06844" lon="-1.19492">
        <ele>326.481279</ele>
        <time>2026-05-22T10:01:54.000Z</time>
      </trkpt>
      <trkpt lat="43.06845" lon="-1.19494">
        <ele>326.500561</ele>
        <time>2026-05-22T10:01:55.000Z</time>
      </trkpt>
      <trkpt lat="43.06846" lon="-1.19496">
        <ele>326.519952</ele>
        <time>2026-05-22T10:01:56.000Z</time>
      </trkpt>
      <trkpt lat="43.06848" lon="-1.19497">
        <ele>326.542524</ele>
        <time>2026-05-22T10:01:57.000Z</time>
      </trkpt>
      <trkpt lat="43.06848" lon="-1.19499">
        <ele>326.559496</ele>
        <time>2026-05-22T10:01:58.000Z</time>
      </trkpt>
      <trkpt lat="43.06849" lon="-1.195">
        <ele>326.575683</ele>
        <time>2026-05-22T10:01:59.000Z</time>
      </trkpt>
      <trkpt lat="43.06851" lon="-1.195">
        <ele>326.591368</ele>
        <time>2026-05-22T10:02:00.000Z</time>
      </trkpt>
      <trkpt lat="43.06852" lon="-1.19499">
        <ele>326.605872</ele>
        <time>2026-05-22T10:02:01.000Z</time>
      </trkpt>
      <trkpt lat="43.06853" lon="-1.19499">
        <ele>326.623804</ele>
        <time>2026-05-22T10:02:02.000Z</time>
      </trkpt>
      <trkpt lat="43.06854" lon="-1.19498">
        <ele>326.642846</ele>
        <time>2026-05-22T10:02:03.000Z</time>
      </trkpt>
      <trkpt lat="43.06856" lon="-1.19497">
        <ele>326.662337</ele>
        <time>2026-05-22T10:02:04.000Z</time>
      </trkpt>
      <trkpt lat="43.06857" lon="-1.19496">
        <ele>326.682978</ele>
        <time>2026-05-22T10:02:05.000Z</time>
      </trkpt>
      <trkpt lat="43.06858" lon="-1.19495">
        <ele>326.704568</ele>
        <time>2026-05-22T10:02:06.000Z</time>
      </trkpt>
      <trkpt lat="43.0686" lon="-1.19493">
        <ele>326.725177</ele>
        <time>2026-05-22T10:02:07.000Z</time>
      </trkpt>
      <trkpt lat="43.06861" lon="-1.19492">
        <ele>326.745472</ele>
        <time>2026-05-22T10:02:08.000Z</time>
      </trkpt>
      <trkpt lat="43.06862" lon="-1.1949">
        <ele>326.764168</ele>
        <time>2026-05-22T10:02:09.000Z</time>
      </trkpt>
      <trkpt lat="43.06863" lon="-1.19489">
        <ele>326.782194</ele>
        <time>2026-05-22T10:02:10.000Z</time>
      </trkpt>
      <trkpt lat="43.06864" lon="-1.19488">
        <ele>326.80119</ele>
        <time>2026-05-22T10:02:11.000Z</time>
      </trkpt>
      <trkpt lat="43.06865" lon="-1.19487">
        <ele>326.821192</ele>
        <time>2026-05-22T10:02:12.000Z</time>
      </trkpt>
      <trkpt lat="43.06866" lon="-1.19485">
        <ele>326.841195</ele>
        <time>2026-05-22T10:02:13.000Z</time>
      </trkpt>
      <trkpt lat="43.06867" lon="-1.19484">
        <ele>326.85958</ele>
        <time>2026-05-22T10:02:14.000Z</time>
      </trkpt>
      <trkpt lat="43.06868" lon="-1.19483">
        <ele>326.877387</ele>
        <time>2026-05-22T10:02:15.000Z</time>
      </trkpt>
      <trkpt lat="43.06869" lon="-1.19481">
        <ele>326.896084</ele>
        <time>2026-05-22T10:02:16.000Z</time>
      </trkpt>
      <trkpt lat="43.0687" lon="-1.1948">
        <ele>326.915366</ele>
        <time>2026-05-22T10:02:17.000Z</time>
      </trkpt>
      <trkpt lat="43.06871" lon="-1.19478">
        <ele>326.932362</ele>
        <time>2026-05-22T10:02:18.000Z</time>
      </trkpt>
      <trkpt lat="43.06871" lon="-1.19477">
        <ele>326.947609</ele>
        <time>2026-05-22T10:02:19.000Z</time>
      </trkpt>
      <trkpt lat="43.06871" lon="-1.19476">
        <ele>326.957247</ele>
        <time>2026-05-22T10:02:20.000Z</time>
      </trkpt>
      <trkpt lat="43.06871" lon="-1.19475">
        <ele>326.961066</ele>
        <time>2026-05-22T10:02:21.000Z</time>
      </trkpt>
      <trkpt lat="43.06875" lon="-1.19473">
        <ele>327.013579</ele>
        <time>2026-05-22T10:25:31.000Z</time>
      </trkpt>
      <trkpt lat="43.06875" lon="-1.19471">
        <ele>327.05718</ele>
        <time>2026-05-22T10:25:32.000Z</time>
      </trkpt>
      <trkpt lat="43.06876" lon="-1.19469">
        <ele>327.139103</ele>
        <time>2026-05-22T10:25:33.000Z</time>
      </trkpt>
      <trkpt lat="43.06876" lon="-1.19468">
        <ele>327.219125</ele>
        <time>2026-05-22T10:25:34.000Z</time>
      </trkpt>
      <trkpt lat="43.06876" lon="-1.19466">
        <ele>327.303848</ele>
        <time>2026-05-22T10:25:35.000Z</time>
      </trkpt>
      <trkpt lat="43.06877" lon="-1.19464">
        <ele>327.393287</ele>
        <time>2026-05-22T10:25:36.000Z</time>
      </trkpt>
      <trkpt lat="43.06877" lon="-1.19463">
        <ele>327.483256</ele>
        <time>2026-05-22T10:25:37.000Z</time>
      </trkpt>
      <trkpt lat="43.06879" lon="-1.19462">
        <ele>327.572801</ele>
        <time>2026-05-22T10:25:38.000Z</time>
      </trkpt>
      <trkpt lat="43.0688" lon="-1.19463">
        <ele>327.666769</ele>
        <time>2026-05-22T10:25:39.000Z</time>
      </trkpt>
      <trkpt lat="43.06881" lon="-1.19463">
        <ele>327.757505</ele>
        <time>2026-05-22T10:25:40.000Z</time>
      </trkpt>
      <trkpt lat="43.06882" lon="-1.19465">
        <ele>327.851431</ele>
        <time>2026-05-22T10:25:41.000Z</time>
      </trkpt>
      <trkpt lat="43.06882" lon="-1.19467">
        <ele>327.950339</ele>
        <time>2026-05-22T10:25:42.000Z</time>
      </trkpt>
      <trkpt lat="43.06882" lon="-1.19469">
        <ele>328.04813</ele>
        <time>2026-05-22T10:25:43.000Z</time>
      </trkpt>
      <trkpt lat="43.06882" lon="-1.19471">
        <ele>328.152868</ele>
        <time>2026-05-22T10:25:44.000Z</time>
      </trkpt>
      <trkpt lat="43.06881" lon="-1.19473">
        <ele>328.266661</ele>
        <time>2026-05-22T10:25:45.000Z</time>
      </trkpt>
      <trkpt lat="43.0688" lon="-1.19475">
        <ele>328.381394</ele>
        <time>2026-05-22T10:25:46.000Z</time>
      </trkpt>
      <trkpt lat="43.06879" lon="-1.19477">
        <ele>328.499705</ele>
        <time>2026-05-22T10:25:47.000Z</time>
      </trkpt>
      <trkpt lat="43.06879" lon="-1.1948">
        <ele>328.624893</ele>
        <time>2026-05-22T10:25:48.000Z</time>
      </trkpt>
      <trkpt lat="43.06878" lon="-1.19482">
        <ele>328.751291</ele>
        <time>2026-05-22T10:25:49.000Z</time>
      </trkpt>
      <trkpt lat="43.06877" lon="-1.19485">
        <ele>328.88796</ele>
        <time>2026-05-22T10:25:50.000Z</time>
      </trkpt>
      <trkpt lat="43.06876" lon="-1.19487">
        <ele>329.02675</ele>
        <time>2026-05-22T10:25:51.000Z</time>
      </trkpt>
      <trkpt lat="43.06876" lon="-1.1949">
        <ele>329.160985</ele>
        <time>2026-05-22T10:25:52.000Z</time>
      </trkpt>
      <trkpt lat="43.06875" lon="-1.19493">
        <ele>329.302131</ele>
        <time>2026-05-22T10:25:53.000Z</time>
      </trkpt>
      <trkpt lat="43.06874" lon="-1.19495">
        <ele>329.448778</ele>
        <time>2026-05-22T10:25:54.000Z</time>
      </trkpt>
      <trkpt lat="43.06873" lon="-1.19498">
        <ele>329.605886</ele>
        <time>2026-05-22T10:25:55.000Z</time>
      </trkpt>
      <trkpt lat="43.06872" lon="-1.19501">
        <ele>329.760597</ele>
        <time>2026-05-22T10:25:56.000Z</time>
      </trkpt>
      <trkpt lat="43.06871" lon="-1.19504">
        <ele>329.91316</ele>
        <time>2026-05-22T10:25:57.000Z</time>
      </trkpt>
      <trkpt lat="43.0687" lon="-1.19508">
        <ele>330.081768</ele>
        <time>2026-05-22T10:25:58.000Z</time>
      </trkpt>
      <trkpt lat="43.06869" lon="-1.19511">
        <ele>330.251723</ele>
        <time>2026-05-22T10:25:59.000Z</time>
      </trkpt>
      <trkpt lat="43.06868" lon="-1.19514">
        <ele>330.430297</ele>
        <time>2026-05-22T10:26:00.000Z</time>
      </trkpt>
      <trkpt lat="43.06867" lon="-1.19517">
        <ele>330.598904</ele>
        <time>2026-05-22T10:26:01.000Z</time>
      </trkpt>
      <trkpt lat="43.06866" lon="-1.1952">
        <ele>330.773154</ele>
        <time>2026-05-22T10:26:02.000Z</time>
      </trkpt>
      <trkpt lat="43.06864" lon="-1.19523">
        <ele>330.94213</ele>
        <time>2026-05-22T10:26:03.000Z</time>
      </trkpt>
      <trkpt lat="43.06863" lon="-1.19526">
        <ele>331.110334</ele>
        <time>2026-05-22T10:26:04.000Z</time>
      </trkpt>
      <trkpt lat="43.06861" lon="-1.19529">
        <ele>331.278539</ele>
        <time>2026-05-22T10:26:05.000Z</time>
      </trkpt>
      <trkpt lat="43.0686" lon="-1.19532">
        <ele>331.439033</ele>
        <time>2026-05-22T10:26:06.000Z</time>
      </trkpt>
      <trkpt lat="43.06858" lon="-1.19534">
        <ele>331.603719</ele>
        <time>2026-05-22T10:26:07.000Z</time>
      </trkpt>
      <trkpt lat="43.06857" lon="-1.19537">
        <ele>331.768405</ele>
        <time>2026-05-22T10:26:08.000Z</time>
      </trkpt>
      <trkpt lat="43.06855" lon="-1.19539">
        <ele>331.921004</ele>
        <time>2026-05-22T10:26:09.000Z</time>
      </trkpt>
      <trkpt lat="43.06854" lon="-1.19542">
        <ele>332.073602</ele>
        <time>2026-05-22T10:26:10.000Z</time>
      </trkpt>
      <trkpt lat="43.06853" lon="-1.19544">
        <ele>332.21834</ele>
        <time>2026-05-22T10:26:11.000Z</time>
      </trkpt>
      <trkpt lat="43.06852" lon="-1.19547">
        <ele>332.35972</ele>
        <time>2026-05-22T10:26:12.000Z</time>
      </trkpt>
      <trkpt lat="43.0685" lon="-1.19549">
        <ele>332.500596</ele>
        <time>2026-05-22T10:26:13.000Z</time>
      </trkpt>
      <trkpt lat="43.06849" lon="-1.19551">
        <ele>332.641485</ele>
        <time>2026-05-22T10:26:14.000Z</time>
      </trkpt>
      <trkpt lat="43.06848" lon="-1.19554">
        <ele>332.771145</ele>
        <time>2026-05-22T10:26:15.000Z</time>
      </trkpt>
      <trkpt lat="43.06847" lon="-1.19556">
        <ele>332.896326</ele>
        <time>2026-05-22T10:26:16.000Z</time>
      </trkpt>
      <trkpt lat="43.06846" lon="-1.19558">
        <ele>333.037706</ele>
        <time>2026-05-22T10:26:17.000Z</time>
      </trkpt>
      <trkpt lat="43.06845" lon="-1.19561">
        <ele>333.186691</ele>
        <time>2026-05-22T10:26:18.000Z</time>
      </trkpt>
      <trkpt lat="43.06843" lon="-1.19564">
        <ele>333.339321</ele>
        <time>2026-05-22T10:26:19.000Z</time>
      </trkpt>
      <trkpt lat="43.06842" lon="-1.19566">
        <ele>333.489084</ele>
        <time>2026-05-22T10:26:20.000Z</time>
      </trkpt>
      <trkpt lat="43.06841" lon="-1.19569">
        <ele>333.632855</ele>
        <time>2026-05-22T10:26:21.000Z</time>
      </trkpt>
      <trkpt lat="43.0684" lon="-1.19572">
        <ele>333.776626</ele>
        <time>2026-05-22T10:26:22.000Z</time>
      </trkpt>
      <trkpt lat="43.06839" lon="-1.19575">
        <ele>333.936371</ele>
        <time>2026-05-22T10:26:23.000Z</time>
      </trkpt>
      <trkpt lat="43.06839" lon="-1.19578">
        <ele>334.101113</ele>
        <time>2026-05-22T10:26:24.000Z</time>
      </trkpt>
      <trkpt lat="43.06838" lon="-1.19581">
        <ele>334.261157</ele>
        <time>2026-05-22T10:26:25.000Z</time>
      </trkpt>
      <trkpt lat="43.06838" lon="-1.19584">
        <ele>334.419684</ele>
        <time>2026-05-22T10:26:26.000Z</time>
      </trkpt>
      <trkpt lat="43.06837" lon="-1.19587">
        <ele>334.556778</ele>
        <time>2026-05-22T10:26:27.000Z</time>
      </trkpt>
      <trkpt lat="43.06837" lon="-1.1959">
        <ele>334.688247</ele>
        <time>2026-05-22T10:26:28.000Z</time>
      </trkpt>
      <trkpt lat="43.06837" lon="-1.19592">
        <ele>334.804496</ele>
        <time>2026-05-22T10:26:29.000Z</time>
      </trkpt>
      <trkpt lat="43.06836" lon="-1.19594">
        <ele>334.90963</ele>
        <time>2026-05-22T10:26:30.000Z</time>
      </trkpt>
      <trkpt lat="43.06836" lon="-1.19597">
        <ele>335.021248</ele>
        <time>2026-05-22T10:26:31.000Z</time>
      </trkpt>
      <trkpt lat="43.06836" lon="-1.19599">
        <ele>335.123841</ele>
        <time>2026-05-22T10:26:32.000Z</time>
      </trkpt>
      <trkpt lat="43.06836" lon="-1.19601">
        <ele>335.216123</ele>
        <time>2026-05-22T10:26:33.000Z</time>
      </trkpt>
      <trkpt lat="43.06836" lon="-1.19603">
        <ele>335.31301</ele>
        <time>2026-05-22T10:26:34.000Z</time>
      </trkpt>
      <trkpt lat="43.06836" lon="-1.19605">
        <ele>335.429464</ele>
        <time>2026-05-22T10:26:35.000Z</time>
      </trkpt>
      <trkpt lat="43.06837" lon="-1.19607">
        <ele>335.545711</ele>
        <time>2026-05-22T10:26:36.000Z</time>
      </trkpt>
      <trkpt lat="43.06838" lon="-1.19609">
        <ele>335.651948</ele>
        <time>2026-05-22T10:26:37.000Z</time>
      </trkpt>
      <trkpt lat="43.06838" lon="-1.19611">
        <ele>335.761184</ele>
        <time>2026-05-22T10:26:38.000Z</time>
      </trkpt>
      <trkpt lat="43.06839" lon="-1.19613">
        <ele>335.871011</ele>
        <time>2026-05-22T10:26:39.000Z</time>
      </trkpt>
      <trkpt lat="43.06838" lon="-1.19616">
        <ele>335.977794</ele>
        <time>2026-05-22T10:26:40.000Z</time>
      </trkpt>
      <trkpt lat="43.06839" lon="-1.19618">
        <ele>336.080387</ele>
        <time>2026-05-22T10:26:41.000Z</time>
      </trkpt>
      <trkpt lat="43.06839" lon="-1.19619">
        <ele>336.176234</ele>
        <time>2026-05-22T10:26:42.000Z</time>
      </trkpt>
      <trkpt lat="43.0684" lon="-1.19621">
        <ele>336.272081</ele>
        <time>2026-05-22T10:26:43.000Z</time>
      </trkpt>
      <trkpt lat="43.06841" lon="-1.19623">
        <ele>336.375167</ele>
        <time>2026-05-22T10:26:44.000Z</time>
      </trkpt>
      <trkpt lat="43.06841" lon="-1.19625">
        <ele>336.485628</ele>
        <time>2026-05-22T10:26:45.000Z</time>
      </trkpt>
      <trkpt lat="43.06842" lon="-1.19627">
        <ele>336.584537</ele>
        <time>2026-05-22T10:26:46.000Z</time>
      </trkpt>
      <trkpt lat="43.06842" lon="-1.19629">
        <ele>336.662047</ele>
        <time>2026-05-22T10:26:47.000Z</time>
      </trkpt>
      <trkpt lat="43.06842" lon="-1.1963">
        <ele>336.729868</ele>
        <time>2026-05-22T10:26:48.000Z</time>
      </trkpt>
      <trkpt lat="43.06841" lon="-1.19632">
        <ele>336.814591</ele>
        <time>2026-05-22T10:26:49.000Z</time>
      </trkpt>
      <trkpt lat="43.06841" lon="-1.19634">
        <ele>336.907585</ele>
        <time>2026-05-22T10:26:50.000Z</time>
      </trkpt>
      <trkpt lat="43.06841" lon="-1.19635">
        <ele>336.986222</ele>
        <time>2026-05-22T10:26:51.000Z</time>
      </trkpt>
      <trkpt lat="43.06841" lon="-1.19637">
        <ele>337.056901</ele>
        <time>2026-05-22T10:26:52.000Z</time>
      </trkpt>
      <trkpt lat="43.0684" lon="-1.19638">
        <ele>337.145679</ele>
        <time>2026-05-22T10:26:53.000Z</time>
      </trkpt>
      <trkpt lat="43.0684" lon="-1.1964">
        <ele>337.241468</ele>
        <time>2026-05-22T10:26:54.000Z</time>
      </trkpt>
      <trkpt lat="43.06839" lon="-1.19642">
        <ele>337.335637</ele>
        <time>2026-05-22T10:26:55.000Z</time>
      </trkpt>
      <trkpt lat="43.0684" lon="-1.19644">
        <ele>337.427918</ele>
        <time>2026-05-22T10:26:56.000Z</time>
      </trkpt>
      <trkpt lat="43.0684" lon="-1.19646">
        <ele>337.515369</ele>
        <time>2026-05-22T10:26:57.000Z</time>
      </trkpt>
      <trkpt lat="43.0684" lon="-1.19648">
        <ele>337.61316</ele>
        <time>2026-05-22T10:26:58.000Z</time>
      </trkpt>
      <trkpt lat="43.0684" lon="-1.1965">
        <ele>337.710951</ele>
        <time>2026-05-22T10:26:59.000Z</time>
      </trkpt>
      <trkpt lat="43.0684" lon="-1.19652">
        <ele>337.803233</ele>
        <time>2026-05-22T10:27:00.000Z</time>
      </trkpt>
      <trkpt lat="43.0684" lon="-1.19654">
        <ele>337.916416</ele>
        <time>2026-05-22T10:27:01.000Z</time>
      </trkpt>
      <trkpt lat="43.06839" lon="-1.19656">
        <ele>338.019502</ele>
        <time>2026-05-22T10:27:02.000Z</time>
      </trkpt>
      <trkpt lat="43.06838" lon="-1.19658">
        <ele>338.106628</ele>
        <time>2026-05-22T10:27:03.000Z</time>
      </trkpt>
      <trkpt lat="43.06838" lon="-1.1966">
        <ele>338.206902</ele>
        <time>2026-05-22T10:27:04.000Z</time>
      </trkpt>
      <trkpt lat="43.06837" lon="-1.19661">
        <ele>338.291626</ele>
        <time>2026-05-22T10:27:05.000Z</time>
      </trkpt>
      <trkpt lat="43.06837" lon="-1.19663">
        <ele>338.395284</ele>
        <time>2026-05-22T10:27:06.000Z</time>
      </trkpt>
      <trkpt lat="43.06837" lon="-1.19666">
        <ele>338.509819</ele>
        <time>2026-05-22T10:27:07.000Z</time>
      </trkpt>
      <trkpt lat="43.06837" lon="-1.19668">
        <ele>338.617218</ele>
        <time>2026-05-22T10:27:08.000Z</time>
      </trkpt>
      <trkpt lat="43.06836" lon="-1.1967">
        <ele>338.706657</ele>
        <time>2026-05-22T10:27:09.000Z</time>
      </trkpt>
      <trkpt lat="43.06836" lon="-1.19672">
        <ele>338.800826</ele>
        <time>2026-05-22T10:27:10.000Z</time>
      </trkpt>
      <trkpt lat="43.06836" lon="-1.19674">
        <ele>338.898617</ele>
        <time>2026-05-22T10:27:11.000Z</time>
      </trkpt>
      <trkpt lat="43.06835" lon="-1.19675">
        <ele>339.014246</ele>
        <time>2026-05-22T10:27:12.000Z</time>
      </trkpt>
      <trkpt lat="43.06835" lon="-1.19677">
        <ele>339.169892</ele>
        <time>2026-05-22T10:27:13.000Z</time>
      </trkpt>
      <trkpt lat="43.06834" lon="-1.19679">
        <ele>339.313578</ele>
        <time>2026-05-22T10:27:14.000Z</time>
      </trkpt>
      <trkpt lat="43.06834" lon="-1.19681">
        <ele>339.450898</ele>
        <time>2026-05-22T10:27:15.000Z</time>
      </trkpt>
      <trkpt lat="43.06833" lon="-1.19682">
        <ele>339.594584</ele>
        <time>2026-05-22T10:27:16.000Z</time>
      </trkpt>
      <trkpt lat="43.06832" lon="-1.19684">
        <ele>339.733115</ele>
        <time>2026-05-22T10:27:17.000Z</time>
      </trkpt>
      <trkpt lat="43.06832" lon="-1.19686">
        <ele>339.876244</ele>
        <time>2026-05-22T10:27:18.000Z</time>
      </trkpt>
      <trkpt lat="43.06832" lon="-1.19688">
        <ele>340.014775</ele>
        <time>2026-05-22T10:27:19.000Z</time>
      </trkpt>
      <trkpt lat="43.06831" lon="-1.1969">
        <ele>340.163461</ele>
        <time>2026-05-22T10:27:20.000Z</time>
      </trkpt>
      <trkpt lat="43.0683" lon="-1.19691">
        <ele>340.318597</ele>
        <time>2026-05-22T10:27:21.000Z</time>
      </trkpt>
      <trkpt lat="43.06829" lon="-1.19693">
        <ele>340.484626</ele>
        <time>2026-05-22T10:27:22.000Z</time>
      </trkpt>
      <trkpt lat="43.06829" lon="-1.19695">
        <ele>340.627755</ele>
        <time>2026-05-22T10:27:23.000Z</time>
      </trkpt>
      <trkpt lat="43.06829" lon="-1.19697">
        <ele>340.770884</ele>
        <time>2026-05-22T10:27:24.000Z</time>
      </trkpt>
      <trkpt lat="43.06828" lon="-1.19699">
        <ele>340.919582</ele>
        <time>2026-05-22T10:27:25.000Z</time>
      </trkpt>
      <trkpt lat="43.06828" lon="-1.19701">
        <ele>341.058597</ele>
        <time>2026-05-22T10:27:26.000Z</time>
      </trkpt>
      <trkpt lat="43.06827" lon="-1.19702">
        <ele>341.201357</ele>
        <time>2026-05-22T10:27:27.000Z</time>
      </trkpt>
      <trkpt lat="43.06826" lon="-1.19704">
        <ele>341.353767</ele>
        <time>2026-05-22T10:27:28.000Z</time>
      </trkpt>
      <trkpt lat="43.06826" lon="-1.19706">
        <ele>341.480552</ele>
        <time>2026-05-22T10:27:29.000Z</time>
      </trkpt>
      <trkpt lat="43.06826" lon="-1.19708">
        <ele>341.608687</ele>
        <time>2026-05-22T10:27:30.000Z</time>
      </trkpt>
      <trkpt lat="43.06825" lon="-1.19709">
        <ele>341.757582</ele>
        <time>2026-05-22T10:27:31.000Z</time>
      </trkpt>
      <trkpt lat="43.06824" lon="-1.19711">
        <ele>341.878982</ele>
        <time>2026-05-22T10:27:32.000Z</time>
      </trkpt>
      <trkpt lat="43.06824" lon="-1.19713">
        <ele>342.027876</ele>
        <time>2026-05-22T10:27:33.000Z</time>
      </trkpt>
      <trkpt lat="43.06822" lon="-1.19714">
        <ele>342.207303</ele>
        <time>2026-05-22T10:27:34.000Z</time>
      </trkpt>
      <trkpt lat="43.06821" lon="-1.19716">
        <ele>342.380096</ele>
        <time>2026-05-22T10:27:35.000Z</time>
      </trkpt>
      <trkpt lat="43.06821" lon="-1.19718">
        <ele>342.51252</ele>
        <time>2026-05-22T10:27:36.000Z</time>
      </trkpt>
      <trkpt lat="43.0682" lon="-1.19719">
        <ele>342.655442</ele>
        <time>2026-05-22T10:27:37.000Z</time>
      </trkpt>
      <trkpt lat="43.06819" lon="-1.19721">
        <ele>342.822176</ele>
        <time>2026-05-22T10:27:38.000Z</time>
      </trkpt>
      <trkpt lat="43.06818" lon="-1.19723">
        <ele>342.97232</ele>
        <time>2026-05-22T10:27:39.000Z</time>
      </trkpt>
      <trkpt lat="43.06817" lon="-1.19725">
        <ele>343.127456</ele>
        <time>2026-05-22T10:27:40.000Z</time>
      </trkpt>
      <trkpt lat="43.06817" lon="-1.19726">
        <ele>343.251973</ele>
        <time>2026-05-22T10:27:41.000Z</time>
      </trkpt>
      <trkpt lat="43.06817" lon="-1.19728">
        <ele>343.393317</ele>
        <time>2026-05-22T10:27:42.000Z</time>
      </trkpt>
      <trkpt lat="43.06816" lon="-1.1973">
        <ele>343.548962</ele>
        <time>2026-05-22T10:27:43.000Z</time>
      </trkpt>
      <trkpt lat="43.06815" lon="-1.19732">
        <ele>343.721756</ele>
        <time>2026-05-22T10:27:44.000Z</time>
      </trkpt>
      <trkpt lat="43.06814" lon="-1.19734">
        <ele>343.885544</ele>
        <time>2026-05-22T10:27:45.000Z</time>
      </trkpt>
      <trkpt lat="43.06813" lon="-1.19735">
        <ele>344.028467</ele>
        <time>2026-05-22T10:27:46.000Z</time>
      </trkpt>
      <trkpt lat="43.06812" lon="-1.19737">
        <ele>344.177361</ele>
        <time>2026-05-22T10:27:47.000Z</time>
      </trkpt>
      <trkpt lat="43.06812" lon="-1.19739">
        <ele>344.334044</ele>
        <time>2026-05-22T10:27:48.000Z</time>
      </trkpt>
      <trkpt lat="43.06811" lon="-1.19741">
        <ele>344.510734</ele>
        <time>2026-05-22T10:27:49.000Z</time>
      </trkpt>
      <trkpt lat="43.06811" lon="-1.19743">
        <ele>344.670528</ele>
        <time>2026-05-22T10:27:50.000Z</time>
      </trkpt>
      <trkpt lat="43.0681" lon="-1.19745">
        <ele>344.819227</ele>
        <time>2026-05-22T10:27:51.000Z</time>
      </trkpt>
      <trkpt lat="43.0681" lon="-1.19747">
        <ele>344.991257</ele>
        <time>2026-05-22T10:27:52.000Z</time>
      </trkpt>
      <trkpt lat="43.0681" lon="-1.19749">
        <ele>345.156043</ele>
        <time>2026-05-22T10:27:53.000Z</time>
      </trkpt>
      <trkpt lat="43.06809" lon="-1.19752">
        <ele>345.333044</ele>
        <time>2026-05-22T10:27:54.000Z</time>
      </trkpt>
      <trkpt lat="43.06809" lon="-1.19754">
        <ele>345.495032</ele>
        <time>2026-05-22T10:27:55.000Z</time>
      </trkpt>
      <trkpt lat="43.06809" lon="-1.19756">
        <ele>345.645367</ele>
        <time>2026-05-22T10:27:56.000Z</time>
      </trkpt>
      <trkpt lat="43.06809" lon="-1.19758">
        <ele>345.80292</ele>
        <time>2026-05-22T10:27:57.000Z</time>
      </trkpt>
      <trkpt lat="43.06809" lon="-1.1976">
        <ele>345.972571</ele>
        <time>2026-05-22T10:27:58.000Z</time>
      </trkpt>
      <trkpt lat="43.06809" lon="-1.19763">
        <ele>346.13456</ele>
        <time>2026-05-22T10:27:59.000Z</time>
      </trkpt>
      <trkpt lat="43.06809" lon="-1.19765">
        <ele>346.292113</ele>
        <time>2026-05-22T10:28:00.000Z</time>
      </trkpt>
      <trkpt lat="43.06809" lon="-1.19767">
        <ele>346.440749</ele>
        <time>2026-05-22T10:28:01.000Z</time>
      </trkpt>
      <trkpt lat="43.0681" lon="-1.19769">
        <ele>346.583878</ele>
        <time>2026-05-22T10:28:02.000Z</time>
      </trkpt>
      <trkpt lat="43.0681" lon="-1.1977">
        <ele>346.72241</ele>
        <time>2026-05-22T10:28:03.000Z</time>
      </trkpt>
      <trkpt lat="43.06811" lon="-1.19772">
        <ele>346.883882</ele>
        <time>2026-05-22T10:28:04.000Z</time>
      </trkpt>
      <trkpt lat="43.06812" lon="-1.19775">
        <ele>347.074666</ele>
        <time>2026-05-22T10:28:05.000Z</time>
      </trkpt>
      <trkpt lat="43.06812" lon="-1.19776">
        <ele>347.220346</ele>
        <time>2026-05-22T10:28:06.000Z</time>
      </trkpt>
      <trkpt lat="43.06813" lon="-1.19778">
        <ele>347.375387</ele>
        <time>2026-05-22T10:28:07.000Z</time>
      </trkpt>
      <trkpt lat="43.06814" lon="-1.19779">
        <ele>347.49222</ele>
        <time>2026-05-22T10:28:08.000Z</time>
      </trkpt>
      <trkpt lat="43.06815" lon="-1.1978">
        <ele>347.621383</ele>
        <time>2026-05-22T10:28:09.000Z</time>
      </trkpt>
      <trkpt lat="43.06816" lon="-1.19781">
        <ele>347.741001</ele>
        <time>2026-05-22T10:28:10.000Z</time>
      </trkpt>
      <trkpt lat="43.06816" lon="-1.19782">
        <ele>347.827455</ele>
        <time>2026-05-22T10:28:11.000Z</time>
      </trkpt>
      <trkpt lat="43.06817" lon="-1.19783">
        <ele>347.95261</ele>
        <time>2026-05-22T10:28:12.000Z</time>
      </trkpt>
      <trkpt lat="43.06818" lon="-1.19785">
        <ele>348.09161</ele>
        <time>2026-05-22T10:28:13.000Z</time>
      </trkpt>
      <trkpt lat="43.06819" lon="-1.19786">
        <ele>348.23338</ele>
        <time>2026-05-22T10:28:14.000Z</time>
      </trkpt>
      <trkpt lat="43.06821" lon="-1.19787">
        <ele>348.40849</ele>
        <time>2026-05-22T10:28:15.000Z</time>
      </trkpt>
      <trkpt lat="43.06822" lon="-1.19788">
        <ele>348.578998</ele>
        <time>2026-05-22T10:28:16.000Z</time>
      </trkpt>
      <trkpt lat="43.06823" lon="-1.1979">
        <ele>348.728782</ele>
        <time>2026-05-22T10:28:17.000Z</time>
      </trkpt>
      <trkpt lat="43.06825" lon="-1.19791">
        <ele>348.861874</ele>
        <time>2026-05-22T10:28:18.000Z</time>
      </trkpt>
      <trkpt lat="43.06826" lon="-1.19791">
        <ele>348.978614</ele>
        <time>2026-05-22T10:28:19.000Z</time>
      </trkpt>
      <trkpt lat="43.06827" lon="-1.19792">
        <ele>349.128838</ele>
        <time>2026-05-22T10:28:20.000Z</time>
      </trkpt>
      <trkpt lat="43.06828" lon="-1.19793">
        <ele>349.274667</ele>
        <time>2026-05-22T10:28:21.000Z</time>
      </trkpt>
      <trkpt lat="43.0683" lon="-1.19794">
        <ele>349.421497</ele>
        <time>2026-05-22T10:28:22.000Z</time>
      </trkpt>
      <trkpt lat="43.06831" lon="-1.19794">
        <ele>349.543761</ele>
        <time>2026-05-22T10:28:23.000Z</time>
      </trkpt>
      <trkpt lat="43.06832" lon="-1.19795">
        <ele>349.668243</ele>
        <time>2026-05-22T10:28:24.000Z</time>
      </trkpt>
      <trkpt lat="43.06833" lon="-1.19796">
        <ele>349.788866</ele>
        <time>2026-05-22T10:28:25.000Z</time>
      </trkpt>
      <trkpt lat="43.06834" lon="-1.19796">
        <ele>349.893234</ele>
        <time>2026-05-22T10:28:26.000Z</time>
      </trkpt>
      <trkpt lat="43.06835" lon="-1.19798">
        <ele>350.019865</ele>
        <time>2026-05-22T10:28:27.000Z</time>
      </trkpt>
      <trkpt lat="43.06836" lon="-1.19799">
        <ele>350.144685</ele>
        <time>2026-05-22T10:28:28.000Z</time>
      </trkpt>
      <trkpt lat="43.06837" lon="-1.198">
        <ele>350.282597</ele>
        <time>2026-05-22T10:28:29.000Z</time>
      </trkpt>
      <trkpt lat="43.06838" lon="-1.198">
        <ele>350.40322</ele>
        <time>2026-05-22T10:28:30.000Z</time>
      </trkpt>
      <trkpt lat="43.06839" lon="-1.19802">
        <ele>350.554606</ele>
        <time>2026-05-22T10:28:31.000Z</time>
      </trkpt>
      <trkpt lat="43.0684" lon="-1.19803">
        <ele>350.691353</ele>
        <time>2026-05-22T10:28:32.000Z</time>
      </trkpt>
      <trkpt lat="43.06841" lon="-1.19805">
        <ele>350.828665</ele>
        <time>2026-05-22T10:28:33.000Z</time>
      </trkpt>
      <trkpt lat="43.06841" lon="-1.19806">
        <ele>350.95358</ele>
        <time>2026-05-22T10:28:34.000Z</time>
      </trkpt>
      <trkpt lat="43.06842" lon="-1.19807">
        <ele>351.078735</ele>
        <time>2026-05-22T10:28:35.000Z</time>
      </trkpt>
      <trkpt lat="43.06843" lon="-1.19809">
        <ele>351.191957</ele>
        <time>2026-05-22T10:28:36.000Z</time>
      </trkpt>
      <trkpt lat="43.06843" lon="-1.1981">
        <ele>351.323014</ele>
        <time>2026-05-22T10:28:37.000Z</time>
      </trkpt>
      <trkpt lat="43.06844" lon="-1.19812">
        <ele>351.453886</ele>
        <time>2026-05-22T10:28:38.000Z</time>
      </trkpt>
      <trkpt lat="43.06845" lon="-1.19813">
        <ele>351.595656</ele>
        <time>2026-05-22T10:28:39.000Z</time>
      </trkpt>
      <trkpt lat="43.06846" lon="-1.19814">
        <ele>351.709943</ele>
        <time>2026-05-22T10:28:40.000Z</time>
      </trkpt>
      <trkpt lat="43.06847" lon="-1.19815">
        <ele>351.835098</ele>
        <time>2026-05-22T10:28:41.000Z</time>
      </trkpt>
      <trkpt lat="43.06847" lon="-1.19817">
        <ele>351.959614</ele>
        <time>2026-05-22T10:28:42.000Z</time>
      </trkpt>
      <trkpt lat="43.06848" lon="-1.19819">
        <ele>352.098145</ele>
        <time>2026-05-22T10:28:43.000Z</time>
      </trkpt>
      <trkpt lat="43.06848" lon="-1.1982">
        <ele>352.229202</ele>
        <time>2026-05-22T10:28:44.000Z</time>
      </trkpt>
      <trkpt lat="43.06849" lon="-1.19822">
        <ele>352.343944</ele>
        <time>2026-05-22T10:28:45.000Z</time>
      </trkpt>
      <trkpt lat="43.0685" lon="-1.19823">
        <ele>352.481263</ele>
        <time>2026-05-22T10:28:46.000Z</time>
      </trkpt>
      <trkpt lat="43.0685" lon="-1.19825">
        <ele>352.618582</ele>
        <time>2026-05-22T10:28:47.000Z</time>
      </trkpt>
      <trkpt lat="43.06851" lon="-1.19826">
        <ele>352.733092</ele>
        <time>2026-05-22T10:28:48.000Z</time>
      </trkpt>
      <trkpt lat="43.06851" lon="-1.19828">
        <ele>352.876778</ele>
        <time>2026-05-22T10:28:49.000Z</time>
      </trkpt>
      <trkpt lat="43.06852" lon="-1.1983">
        <ele>353.035973</ele>
        <time>2026-05-22T10:28:50.000Z</time>
      </trkpt>
      <trkpt lat="43.06852" lon="-1.19832">
        <ele>353.191618</ele>
        <time>2026-05-22T10:28:51.000Z</time>
      </trkpt>
      <trkpt lat="43.06853" lon="-1.19834">
        <ele>353.347263</ele>
        <time>2026-05-22T10:28:52.000Z</time>
      </trkpt>
      <trkpt lat="43.06853" lon="-1.19836">
        <ele>353.509892</ele>
        <time>2026-05-22T10:28:53.000Z</time>
      </trkpt>
      <trkpt lat="43.06853" lon="-1.19838">
        <ele>353.650153</ele>
        <time>2026-05-22T10:28:54.000Z</time>
      </trkpt>
      <trkpt lat="43.06853" lon="-1.1984">
        <ele>353.791495</ele>
        <time>2026-05-22T10:28:55.000Z</time>
      </trkpt>
      <trkpt lat="43.06853" lon="-1.19842">
        <ele>353.934624</ele>
        <time>2026-05-22T10:28:56.000Z</time>
      </trkpt>
      <trkpt lat="43.06852" lon="-1.19844">
        <ele>354.087304</ele>
        <time>2026-05-22T10:28:57.000Z</time>
      </trkpt>
      <trkpt lat="43.06852" lon="-1.19846">
        <ele>354.259332</ele>
        <time>2026-05-22T10:28:58.000Z</time>
      </trkpt>
      <trkpt lat="43.06852" lon="-1.19848">
        <ele>354.416885</ele>
        <time>2026-05-22T10:28:59.000Z</time>
      </trkpt>
      <trkpt lat="43.06851" lon="-1.1985">
        <ele>354.583813</ele>
        <time>2026-05-22T10:29:00.000Z</time>
      </trkpt>
      <trkpt lat="43.06851" lon="-1.19852">
        <ele>354.739458</ele>
        <time>2026-05-22T10:29:01.000Z</time>
      </trkpt>
      <trkpt lat="43.0685" lon="-1.19854">
        <ele>354.895104</ele>
        <time>2026-05-22T10:29:02.000Z</time>
      </trkpt>
      <trkpt lat="43.0685" lon="-1.19856">
        <ele>355.051785</ele>
        <time>2026-05-22T10:29:03.000Z</time>
      </trkpt>
      <trkpt lat="43.06849" lon="-1.19858">
        <ele>355.195471</ele>
        <time>2026-05-22T10:29:04.000Z</time>
      </trkpt>
      <trkpt lat="43.06848" lon="-1.1986">
        <ele>355.33279</ele>
        <time>2026-05-22T10:29:05.000Z</time>
      </trkpt>
      <trkpt lat="43.06848" lon="-1.19861">
        <ele>355.47555</ele>
        <time>2026-05-22T10:29:06.000Z</time>
      </trkpt>
      <trkpt lat="43.06847" lon="-1.19863">
        <ele>355.630686</ele>
        <time>2026-05-22T10:29:07.000Z</time>
      </trkpt>
      <trkpt lat="43.06846" lon="-1.19865">
        <ele>355.78083</ele>
        <time>2026-05-22T10:29:08.000Z</time>
      </trkpt>
      <trkpt lat="43.06845" lon="-1.19867">
        <ele>355.942301</ele>
        <time>2026-05-22T10:29:09.000Z</time>
      </trkpt>
      <trkpt lat="43.06845" lon="-1.19868">
        <ele>356.092445</ele>
        <time>2026-05-22T10:29:10.000Z</time>
      </trkpt>
      <trkpt lat="43.06844" lon="-1.19871">
        <ele>356.27339</ele>
        <time>2026-05-22T10:29:11.000Z</time>
      </trkpt>
      <trkpt lat="43.06843" lon="-1.19873">
        <ele>356.430072</ele>
        <time>2026-05-22T10:29:12.000Z</time>
      </trkpt>
      <trkpt lat="43.06842" lon="-1.19874">
        <ele>356.580216</ele>
        <time>2026-05-22T10:29:13.000Z</time>
      </trkpt>
      <trkpt lat="43.06842" lon="-1.19876">
        <ele>356.722009</ele>
        <time>2026-05-22T10:29:14.000Z</time>
      </trkpt>
      <trkpt lat="43.06841" lon="-1.19878">
        <ele>356.901277</ele>
        <time>2026-05-22T10:29:15.000Z</time>
      </trkpt>
      <trkpt lat="43.0684" lon="-1.1988">
        <ele>357.080553</ele>
        <time>2026-05-22T10:29:16.000Z</time>
      </trkpt>
      <trkpt lat="43.06839" lon="-1.19882">
        <ele>357.255351</ele>
        <time>2026-05-22T10:29:17.000Z</time>
      </trkpt>
      <trkpt lat="43.06838" lon="-1.19885">
        <ele>357.450111</ele>
        <time>2026-05-22T10:29:18.000Z</time>
      </trkpt>
      <trkpt lat="43.06837" lon="-1.19887">
        <ele>357.640259</ele>
        <time>2026-05-22T10:29:19.000Z</time>
      </trkpt>
      <trkpt lat="43.06836" lon="-1.19889">
        <ele>357.827373</ele>
        <time>2026-05-22T10:29:20.000Z</time>
      </trkpt>
      <trkpt lat="43.06835" lon="-1.19891">
        <ele>358.00828</ele>
        <time>2026-05-22T10:29:21.000Z</time>
      </trkpt>
      <trkpt lat="43.06835" lon="-1.19893">
        <ele>358.185066</ele>
        <time>2026-05-22T10:29:22.000Z</time>
      </trkpt>
      <trkpt lat="43.06834" lon="-1.19895">
        <ele>358.361852</ele>
        <time>2026-05-22T10:29:23.000Z</time>
      </trkpt>
      <trkpt lat="43.06833" lon="-1.19897">
        <ele>358.537191</ele>
        <time>2026-05-22T10:29:24.000Z</time>
      </trkpt>
      <trkpt lat="43.06832" lon="-1.19899">
        <ele>358.724059</ele>
        <time>2026-05-22T10:29:25.000Z</time>
      </trkpt>
      <trkpt lat="43.06831" lon="-1.19901">
        <ele>358.905956</ele>
        <time>2026-05-22T10:29:26.000Z</time>
      </trkpt>
      <trkpt lat="43.06829" lon="-1.19903">
        <ele>359.084583</ele>
        <time>2026-05-22T10:29:27.000Z</time>
      </trkpt>
      <trkpt lat="43.06828" lon="-1.19905">
        <ele>359.26549</ele>
        <time>2026-05-22T10:29:28.000Z</time>
      </trkpt>
      <trkpt lat="43.06828" lon="-1.19907">
        <ele>359.433805</ele>
        <time>2026-05-22T10:29:29.000Z</time>
      </trkpt>
      <trkpt lat="43.06827" lon="-1.19908">
        <ele>359.591077</ele>
        <time>2026-05-22T10:29:30.000Z</time>
      </trkpt>
      <trkpt lat="43.06826" lon="-1.1991">
        <ele>359.756615</ele>
        <time>2026-05-22T10:29:31.000Z</time>
      </trkpt>
      <trkpt lat="43.06825" lon="-1.19912">
        <ele>359.931413</ele>
        <time>2026-05-22T10:29:32.000Z</time>
      </trkpt>
      <trkpt lat="43.06824" lon="-1.19914">
        <ele>360.088685</ele>
        <time>2026-05-22T10:29:33.000Z</time>
      </trkpt>
      <trkpt lat="43.06824" lon="-1.19916">
        <ele>360.247524</ele>
        <time>2026-05-22T10:29:34.000Z</time>
      </trkpt>
      <trkpt lat="43.06823" lon="-1.19918">
        <ele>360.422863</ele>
        <time>2026-05-22T10:29:35.000Z</time>
      </trkpt>
      <trkpt lat="43.06822" lon="-1.1992">
        <ele>360.591179</ele>
        <time>2026-05-22T10:29:36.000Z</time>
      </trkpt>
      <trkpt lat="43.06822" lon="-1.19923">
        <ele>360.777468</ele>
        <time>2026-05-22T10:29:37.000Z</time>
      </trkpt>
      <trkpt lat="43.06821" lon="-1.19925">
        <ele>360.968502</ele>
        <time>2026-05-22T10:29:38.000Z</time>
      </trkpt>
      <trkpt lat="43.06821" lon="-1.19928">
        <ele>361.155393</ele>
        <time>2026-05-22T10:29:39.000Z</time>
      </trkpt>
      <trkpt lat="43.06821" lon="-1.1993">
        <ele>361.349469</ele>
        <time>2026-05-22T10:29:40.000Z</time>
      </trkpt>
      <trkpt lat="43.06821" lon="-1.19933">
        <ele>361.53636</ele>
        <time>2026-05-22T10:29:41.000Z</time>
      </trkpt>
      <trkpt lat="43.06821" lon="-1.19935">
        <ele>361.731509</ele>
        <time>2026-05-22T10:29:42.000Z</time>
      </trkpt>
      <trkpt lat="43.06822" lon="-1.19938">
        <ele>361.917798</ele>
        <time>2026-05-22T10:29:43.000Z</time>
      </trkpt>
      <trkpt lat="43.06823" lon="-1.1994">
        <ele>362.117586</ele>
        <time>2026-05-22T10:29:44.000Z</time>
      </trkpt>
      <trkpt lat="43.06824" lon="-1.19942">
        <ele>362.3119</ele>
        <time>2026-05-22T10:29:45.000Z</time>
      </trkpt>
      <trkpt lat="43.06826" lon="-1.19944">
        <ele>362.50312</ele>
        <time>2026-05-22T10:29:46.000Z</time>
      </trkpt>
      <trkpt lat="43.06827" lon="-1.19945">
        <ele>362.672635</ele>
        <time>2026-05-22T10:29:47.000Z</time>
      </trkpt>
      <trkpt lat="43.06828" lon="-1.19947">
        <ele>362.86157</ele>
        <time>2026-05-22T10:29:48.000Z</time>
      </trkpt>
      <trkpt lat="43.06829" lon="-1.19949">
        <ele>363.032735</ele>
        <time>2026-05-22T10:29:49.000Z</time>
      </trkpt>
      <trkpt lat="43.06831" lon="-1.1995">
        <ele>363.230885</ele>
        <time>2026-05-22T10:29:50.000Z</time>
      </trkpt>
      <trkpt lat="43.06832" lon="-1.19952">
        <ele>363.412542</ele>
        <time>2026-05-22T10:29:51.000Z</time>
      </trkpt>
      <trkpt lat="43.06833" lon="-1.19953">
        <ele>363.557432</ele>
        <time>2026-05-22T10:29:52.000Z</time>
      </trkpt>
      <trkpt lat="43.06834" lon="-1.19955">
        <ele>363.736059</ele>
        <time>2026-05-22T10:29:53.000Z</time>
      </trkpt>
      <trkpt lat="43.06836" lon="-1.19956">
        <ele>363.900559</ele>
        <time>2026-05-22T10:29:54.000Z</time>
      </trkpt>
      <trkpt lat="43.06837" lon="-1.19957">
        <ele>364.046195</ele>
        <time>2026-05-22T10:29:55.000Z</time>
      </trkpt>
      <trkpt lat="43.06838" lon="-1.19958">
        <ele>364.19183</ele>
        <time>2026-05-22T10:29:56.000Z</time>
      </trkpt>
      <trkpt lat="43.0684" lon="-1.19959">
        <ele>364.349868</ele>
        <time>2026-05-22T10:29:57.000Z</time>
      </trkpt>
      <trkpt lat="43.06841" lon="-1.1996">
        <ele>364.510078</ele>
        <time>2026-05-22T10:29:58.000Z</time>
      </trkpt>
      <trkpt lat="43.06842" lon="-1.19961">
        <ele>364.687231</ele>
        <time>2026-05-22T10:29:59.000Z</time>
      </trkpt>
      <trkpt lat="43.06844" lon="-1.19962">
        <ele>364.868633</ele>
        <time>2026-05-22T10:30:00.000Z</time>
      </trkpt>
      <trkpt lat="43.06845" lon="-1.19964">
        <ele>365.042358</ele>
        <time>2026-05-22T10:30:01.000Z</time>
      </trkpt>
      <trkpt lat="43.06846" lon="-1.19966">
        <ele>365.213523</ele>
        <time>2026-05-22T10:30:02.000Z</time>
      </trkpt>
      <trkpt lat="43.06848" lon="-1.19967">
        <ele>365.397225</ele>
        <time>2026-05-22T10:30:03.000Z</time>
      </trkpt>
      <trkpt lat="43.06848" lon="-1.19969">
        <ele>365.56554</ele>
        <time>2026-05-22T10:30:04.000Z</time>
      </trkpt>
      <trkpt lat="43.06849" lon="-1.19971">
        <ele>365.716285</ele>
        <time>2026-05-22T10:30:05.000Z</time>
      </trkpt>
      <trkpt lat="43.06849" lon="-1.19973">
        <ele>365.883339</ele>
        <time>2026-05-22T10:30:06.000Z</time>
      </trkpt>
      <trkpt lat="43.06849" lon="-1.19976">
        <ele>366.071065</ele>
        <time>2026-05-22T10:30:07.000Z</time>
      </trkpt>
      <trkpt lat="43.06849" lon="-1.19978">
        <ele>366.223468</ele>
        <time>2026-05-22T10:30:08.000Z</time>
      </trkpt>
      <trkpt lat="43.06848" lon="-1.1998">
        <ele>366.368193</ele>
        <time>2026-05-22T10:30:09.000Z</time>
      </trkpt>
      <trkpt lat="43.06847" lon="-1.19981">
        <ele>366.509106</ele>
        <time>2026-05-22T10:30:10.000Z</time>
      </trkpt>
      <trkpt lat="43.06846" lon="-1.19982">
        <ele>366.611577</ele>
        <time>2026-05-22T10:30:11.000Z</time>
      </trkpt>
      <trkpt lat="43.06845" lon="-1.19983">
        <ele>366.744251</ele>
        <time>2026-05-22T10:30:12.000Z</time>
      </trkpt>
      <trkpt lat="43.06845" lon="-1.19985">
        <ele>366.865408</ele>
        <time>2026-05-22T10:30:13.000Z</time>
      </trkpt>
      <trkpt lat="43.06844" lon="-1.19986">
        <ele>366.99827</ele>
        <time>2026-05-22T10:30:14.000Z</time>
      </trkpt>
      <trkpt lat="43.06843" lon="-1.19988">
        <ele>367.131959</ele>
        <time>2026-05-22T10:30:15.000Z</time>
      </trkpt>
      <trkpt lat="43.06843" lon="-1.19989">
        <ele>367.235077</ele>
        <time>2026-05-22T10:30:16.000Z</time>
      </trkpt>
      <trkpt lat="43.06842" lon="-1.1999">
        <ele>367.347287</ele>
        <time>2026-05-22T10:30:17.000Z</time>
      </trkpt>
      <trkpt lat="43.06842" lon="-1.19992">
        <ele>367.463374</ele>
        <time>2026-05-22T10:30:18.000Z</time>
      </trkpt>
      <trkpt lat="43.06841" lon="-1.19994">
        <ele>367.62476</ele>
        <time>2026-05-22T10:30:19.000Z</time>
      </trkpt>
      <trkpt lat="43.06841" lon="-1.19996">
        <ele>367.799157</ele>
        <time>2026-05-22T10:30:20.000Z</time>
      </trkpt>
      <trkpt lat="43.06841" lon="-1.19998">
        <ele>367.948795</ele>
        <time>2026-05-22T10:30:21.000Z</time>
      </trkpt>
      <trkpt lat="43.06841" lon="-1.2">
        <ele>368.089234</ele>
        <time>2026-05-22T10:30:22.000Z</time>
      </trkpt>
      <trkpt lat="43.0684" lon="-1.20001">
        <ele>368.1884</ele>
        <time>2026-05-22T10:30:23.000Z</time>
      </trkpt>
      <trkpt lat="43.06841" lon="-1.20002">
        <ele>368.2934</ele>
        <time>2026-05-22T10:30:24.000Z</time>
      </trkpt>
      <trkpt lat="43.06841" lon="-1.20004">
        <ele>368.405832</ele>
        <time>2026-05-22T10:30:25.000Z</time>
      </trkpt>
      <trkpt lat="43.0684" lon="-1.20005">
        <ele>368.518042</ele>
        <time>2026-05-22T10:30:26.000Z</time>
      </trkpt>
      <trkpt lat="43.0684" lon="-1.20007">
        <ele>368.661787</ele>
        <time>2026-05-22T10:30:27.000Z</time>
      </trkpt>
      <trkpt lat="43.06839" lon="-1.20009">
        <ele>368.831014</ele>
        <time>2026-05-22T10:30:28.000Z</time>
      </trkpt>
      <trkpt lat="43.06839" lon="-1.20011">
        <ele>369.003314</ele>
        <time>2026-05-22T10:30:29.000Z</time>
      </trkpt>
      <trkpt lat="43.06838" lon="-1.20013">
        <ele>369.161102</ele>
        <time>2026-05-22T10:30:30.000Z</time>
      </trkpt>
      <trkpt lat="43.06838" lon="-1.20015">
        <ele>369.297896</ele>
        <time>2026-05-22T10:30:31.000Z</time>
      </trkpt>
      <trkpt lat="43.06837" lon="-1.20017">
        <ele>369.441641</ele>
        <time>2026-05-22T10:30:32.000Z</time>
      </trkpt>
      <trkpt lat="43.06837" lon="-1.20019">
        <ele>369.589326</ele>
        <time>2026-05-22T10:30:33.000Z</time>
      </trkpt>
      <trkpt lat="43.06836" lon="-1.2002">
        <ele>369.719872</ele>
        <time>2026-05-22T10:30:34.000Z</time>
      </trkpt>
      <trkpt lat="43.06836" lon="-1.20022">
        <ele>369.853187</ele>
        <time>2026-05-22T10:30:35.000Z</time>
      </trkpt>
      <trkpt lat="43.06836" lon="-1.20024">
        <ele>369.974353</ele>
        <time>2026-05-22T10:30:36.000Z</time>
      </trkpt>
      <trkpt lat="43.06835" lon="-1.20026">
        <ele>370.128861</ele>
        <time>2026-05-22T10:30:37.000Z</time>
      </trkpt>
      <trkpt lat="43.06835" lon="-1.20027">
        <ele>370.272606</ele>
        <time>2026-05-22T10:30:38.000Z</time>
      </trkpt>
      <trkpt lat="43.06835" lon="-1.2003">
        <ele>370.429692</ele>
        <time>2026-05-22T10:30:39.000Z</time>
      </trkpt>
      <trkpt lat="43.06835" lon="-1.20031">
        <ele>370.549123</ele>
        <time>2026-05-22T10:30:40.000Z</time>
      </trkpt>
      <trkpt lat="43.06834" lon="-1.20033">
        <ele>370.701334</ele>
        <time>2026-05-22T10:30:41.000Z</time>
      </trkpt>
      <trkpt lat="43.06834" lon="-1.20035">
        <ele>370.829865</ele>
        <time>2026-05-22T10:30:42.000Z</time>
      </trkpt>
      <trkpt lat="43.06834" lon="-1.20037">
        <ele>370.973154</ele>
        <time>2026-05-22T10:30:43.000Z</time>
      </trkpt>
      <trkpt lat="43.06834" lon="-1.20038">
        <ele>371.107514</ele>
        <time>2026-05-22T10:30:44.000Z</time>
      </trkpt>
      <trkpt lat="43.06833" lon="-1.2004">
        <ele>371.243419</ele>
        <time>2026-05-22T10:30:45.000Z</time>
      </trkpt>
      <trkpt lat="43.06833" lon="-1.20042">
        <ele>371.385611</ele>
        <time>2026-05-22T10:30:46.000Z</time>
      </trkpt>
      <trkpt lat="43.06833" lon="-1.20044">
        <ele>371.550479</ele>
        <time>2026-05-22T10:30:47.000Z</time>
      </trkpt>
      <trkpt lat="43.06832" lon="-1.20046">
        <ele>371.708268</ele>
        <time>2026-05-22T10:30:48.000Z</time>
      </trkpt>
      <trkpt lat="43.06832" lon="-1.20048">
        <ele>371.844173</ele>
        <time>2026-05-22T10:30:49.000Z</time>
      </trkpt>
      <trkpt lat="43.06832" lon="-1.2005">
        <ele>371.978921</ele>
        <time>2026-05-22T10:30:50.000Z</time>
      </trkpt>
      <trkpt lat="43.06832" lon="-1.20052">
        <ele>372.128559</ele>
        <time>2026-05-22T10:30:51.000Z</time>
      </trkpt>
      <trkpt lat="43.06832" lon="-1.20053">
        <ele>372.269488</ele>
        <time>2026-05-22T10:30:52.000Z</time>
      </trkpt>
      <trkpt lat="43.06831" lon="-1.20055">
        <ele>372.417173</ele>
        <time>2026-05-22T10:30:53.000Z</time>
      </trkpt>
      <trkpt lat="43.0683" lon="-1.20057">
        <ele>372.558102</ele>
        <time>2026-05-22T10:30:54.000Z</time>
      </trkpt>
      <trkpt lat="43.0683" lon="-1.20059">
        <ele>372.705788</ele>
        <time>2026-05-22T10:30:55.000Z</time>
      </trkpt>
      <trkpt lat="43.06829" lon="-1.20061">
        <ele>372.864627</ele>
        <time>2026-05-22T10:30:56.000Z</time>
      </trkpt>
      <trkpt lat="43.06828" lon="-1.20063">
        <ele>373.041413</ele>
        <time>2026-05-22T10:30:57.000Z</time>
      </trkpt>
      <trkpt lat="43.06828" lon="-1.20065">
        <ele>373.195921</ele>
        <time>2026-05-22T10:30:58.000Z</time>
      </trkpt>
      <trkpt lat="43.06827" lon="-1.20066">
        <ele>373.332715</ele>
        <time>2026-05-22T10:30:59.000Z</time>
      </trkpt>
      <trkpt lat="43.06827" lon="-1.20068">
        <ele>373.477814</ele>
        <time>2026-05-22T10:31:00.000Z</time>
      </trkpt>
      <trkpt lat="43.06826" lon="-1.2007">
        <ele>373.621559</ele>
        <time>2026-05-22T10:31:01.000Z</time>
      </trkpt>
      <trkpt lat="43.06826" lon="-1.20072">
        <ele>373.755806</ele>
        <time>2026-05-22T10:31:02.000Z</time>
      </trkpt>
      <trkpt lat="43.06826" lon="-1.20073">
        <ele>373.852844</ele>
        <time>2026-05-22T10:31:03.000Z</time>
      </trkpt>
      <trkpt lat="43.06825" lon="-1.20074">
        <ele>373.967626</ele>
        <time>2026-05-22T10:31:04.000Z</time>
      </trkpt>
      <trkpt lat="43.06825" lon="-1.20076">
        <ele>374.088175</ele>
        <time>2026-05-22T10:31:05.000Z</time>
      </trkpt>
      <trkpt lat="43.06824" lon="-1.20077">
        <ele>374.19784</ele>
        <time>2026-05-22T10:31:06.000Z</time>
      </trkpt>
      <trkpt lat="43.06823" lon="-1.20078">
        <ele>374.325491</ele>
        <time>2026-05-22T10:31:07.000Z</time>
      </trkpt>
      <trkpt lat="43.06822" lon="-1.2008">
        <ele>374.488411</ele>
        <time>2026-05-22T10:31:08.000Z</time>
      </trkpt>
      <trkpt lat="43.06822" lon="-1.20082">
        <ele>374.627621</ele>
        <time>2026-05-22T10:31:09.000Z</time>
      </trkpt>
      <trkpt lat="43.06821" lon="-1.20083">
        <ele>374.76855</ele>
        <time>2026-05-22T10:31:10.000Z</time>
      </trkpt>
      <trkpt lat="43.0682" lon="-1.20085">
        <ele>374.931366</ele>
        <time>2026-05-22T10:31:11.000Z</time>
      </trkpt>
      <trkpt lat="43.06819" lon="-1.20087">
        <ele>375.088638</ele>
        <time>2026-05-22T10:31:12.000Z</time>
      </trkpt>
      <trkpt lat="43.06819" lon="-1.20089">
        <ele>375.254176</ele>
        <time>2026-05-22T10:31:13.000Z</time>
      </trkpt>
      <trkpt lat="43.06818" lon="-1.20091">
        <ele>375.39097</ele>
        <time>2026-05-22T10:31:14.000Z</time>
      </trkpt>
      <trkpt lat="43.06818" lon="-1.20092">
        <ele>375.515517</ele>
        <time>2026-05-22T10:31:15.000Z</time>
      </trkpt>
      <trkpt lat="43.06817" lon="-1.20094">
        <ele>375.639169</ele>
        <time>2026-05-22T10:31:16.000Z</time>
      </trkpt>
      <trkpt lat="43.06816" lon="-1.20096">
        <ele>375.761602</ele>
        <time>2026-05-22T10:31:17.000Z</time>
      </trkpt>
      <trkpt lat="43.06815" lon="-1.20098">
        <ele>375.879108</ele>
        <time>2026-05-22T10:31:18.000Z</time>
      </trkpt>
      <trkpt lat="43.06815" lon="-1.201">
        <ele>375.99101</ele>
        <time>2026-05-22T10:31:19.000Z</time>
      </trkpt>
      <trkpt lat="43.06814" lon="-1.20101">
        <ele>376.114663</ele>
        <time>2026-05-22T10:31:20.000Z</time>
      </trkpt>
      <trkpt lat="43.06813" lon="-1.20103">
        <ele>376.238315</ele>
        <time>2026-05-22T10:31:21.000Z</time>
      </trkpt>
      <trkpt lat="43.06813" lon="-1.20105">
        <ele>376.353285</ele>
        <time>2026-05-22T10:31:22.000Z</time>
      </trkpt>
      <trkpt lat="43.06812" lon="-1.20107">
        <ele>376.471778</ele>
        <time>2026-05-22T10:31:23.000Z</time>
      </trkpt>
      <trkpt lat="43.06811" lon="-1.20109">
        <ele>376.584443</ele>
        <time>2026-05-22T10:31:24.000Z</time>
      </trkpt>
      <trkpt lat="43.06811" lon="-1.2011">
        <ele>376.694153</ele>
        <time>2026-05-22T10:31:25.000Z</time>
      </trkpt>
      <trkpt lat="43.0681" lon="-1.20112">
        <ele>376.803863</ele>
        <time>2026-05-22T10:31:26.000Z</time>
      </trkpt>
      <trkpt lat="43.0681" lon="-1.20113">
        <ele>376.899671</ele>
        <time>2026-05-22T10:31:27.000Z</time>
      </trkpt>
      <trkpt lat="43.06809" lon="-1.20115">
        <ele>377.008043</ele>
        <time>2026-05-22T10:31:28.000Z</time>
      </trkpt>
      <trkpt lat="43.06808" lon="-1.20117">
        <ele>377.117753</ele>
        <time>2026-05-22T10:31:29.000Z</time>
      </trkpt>
      <trkpt lat="43.06808" lon="-1.20118">
        <ele>377.230419</ele>
        <time>2026-05-22T10:31:30.000Z</time>
      </trkpt>
      <trkpt lat="43.06807" lon="-1.2012">
        <ele>377.331542</ele>
        <time>2026-05-22T10:31:31.000Z</time>
      </trkpt>
      <trkpt lat="43.06806" lon="-1.20121">
        <ele>377.439462</ele>
        <time>2026-05-22T10:31:32.000Z</time>
      </trkpt>
      <trkpt lat="43.06806" lon="-1.20123">
        <ele>377.547834</ele>
        <time>2026-05-22T10:31:33.000Z</time>
      </trkpt>
      <trkpt lat="43.06805" lon="-1.20125">
        <ele>377.665176</ele>
        <time>2026-05-22T10:31:34.000Z</time>
      </trkpt>
      <trkpt lat="43.06804" lon="-1.20126">
        <ele>377.774886</ele>
        <time>2026-05-22T10:31:35.000Z</time>
      </trkpt>
      <trkpt lat="43.06804" lon="-1.20128">
        <ele>377.887843</ele>
        <time>2026-05-22T10:31:36.000Z</time>
      </trkpt>
      <trkpt lat="43.06803" lon="-1.2013">
        <ele>378.019583</ele>
        <time>2026-05-22T10:31:37.000Z</time>
      </trkpt>
      <trkpt lat="43.06803" lon="-1.20133">
        <ele>378.153466</ele>
        <time>2026-05-22T10:31:38.000Z</time>
      </trkpt>
      <trkpt lat="43.06802" lon="-1.20135">
        <ele>378.276301</ele>
        <time>2026-05-22T10:31:39.000Z</time>
      </trkpt>
      <trkpt lat="43.06802" lon="-1.20137">
        <ele>378.405169</ele>
        <time>2026-05-22T10:31:40.000Z</time>
      </trkpt>
      <trkpt lat="43.06801" lon="-1.20139">
        <ele>378.520069</ele>
        <time>2026-05-22T10:31:41.000Z</time>
      </trkpt>
      <trkpt lat="43.06801" lon="-1.20141">
        <ele>378.653953</ele>
        <time>2026-05-22T10:31:42.000Z</time>
      </trkpt>
      <trkpt lat="43.068" lon="-1.20143">
        <ele>378.768853</ele>
        <time>2026-05-22T10:31:43.000Z</time>
      </trkpt>
      <trkpt lat="43.068" lon="-1.20145">
        <ele>378.8972</ele>
        <time>2026-05-22T10:31:44.000Z</time>
      </trkpt>
      <trkpt lat="43.06799" lon="-1.20147">
        <ele>379.0121</ele>
        <time>2026-05-22T10:31:45.000Z</time>
      </trkpt>
      <trkpt lat="43.06799" lon="-1.20149">
        <ele>379.122793</ele>
        <time>2026-05-22T10:31:46.000Z</time>
      </trkpt>
      <trkpt lat="43.06799" lon="-1.20151">
        <ele>379.247134</ele>
        <time>2026-05-22T10:31:47.000Z</time>
      </trkpt>
      <trkpt lat="43.06799" lon="-1.20153">
        <ele>379.367629</ele>
        <time>2026-05-22T10:31:48.000Z</time>
      </trkpt>
      <trkpt lat="43.06798" lon="-1.20155">
        <ele>379.49069</ele>
        <time>2026-05-22T10:31:49.000Z</time>
      </trkpt>
      <trkpt lat="43.06798" lon="-1.20157">
        <ele>379.615031</ele>
        <time>2026-05-22T10:31:50.000Z</time>
      </trkpt>
      <trkpt lat="43.06798" lon="-1.20159">
        <ele>379.735526</ele>
        <time>2026-05-22T10:31:51.000Z</time>
      </trkpt>
      <trkpt lat="43.06798" lon="-1.20161">
        <ele>379.863613</ele>
        <time>2026-05-22T10:31:52.000Z</time>
      </trkpt>
      <trkpt lat="43.06798" lon="-1.20163">
        <ele>379.980103</ele>
        <time>2026-05-22T10:31:53.000Z</time>
      </trkpt>
      <trkpt lat="43.06798" lon="-1.20165">
        <ele>380.107943</ele>
        <time>2026-05-22T10:31:54.000Z</time>
      </trkpt>
      <trkpt lat="43.06798" lon="-1.20167">
        <ele>380.236769</ele>
        <time>2026-05-22T10:31:55.000Z</time>
      </trkpt>
      <trkpt lat="43.06798" lon="-1.20169">
        <ele>380.352988</ele>
        <time>2026-05-22T10:31:56.000Z</time>
      </trkpt>
      <trkpt lat="43.06798" lon="-1.20172">
        <ele>380.481075</ele>
        <time>2026-05-22T10:31:57.000Z</time>
      </trkpt>
      <trkpt lat="43.06798" lon="-1.20174">
        <ele>380.597293</ele>
        <time>2026-05-22T10:31:58.000Z</time>
      </trkpt>
      <trkpt lat="43.06797" lon="-1.20176">
        <ele>380.708841</ele>
        <time>2026-05-22T10:31:59.000Z</time>
      </trkpt>
      <trkpt lat="43.06797" lon="-1.20178">
        <ele>380.825059</ele>
        <time>2026-05-22T10:32:00.000Z</time>
      </trkpt>
      <trkpt lat="43.06798" lon="-1.2018">
        <ele>380.941549</ele>
        <time>2026-05-22T10:32:01.000Z</time>
      </trkpt>
      <trkpt lat="43.06797" lon="-1.20181">
        <ele>381.052243</ele>
        <time>2026-05-22T10:32:02.000Z</time>
      </trkpt>
      <trkpt lat="43.06798" lon="-1.20183">
        <ele>381.169545</ele>
        <time>2026-05-22T10:32:03.000Z</time>
      </trkpt>
      <trkpt lat="43.06798" lon="-1.20185">
        <ele>381.286847</ele>
        <time>2026-05-22T10:32:04.000Z</time>
      </trkpt>
      <trkpt lat="43.06798" lon="-1.20187">
        <ele>381.40549</ele>
        <time>2026-05-22T10:32:05.000Z</time>
      </trkpt>
      <trkpt lat="43.06798" lon="-1.20189">
        <ele>381.524132</ele>
        <time>2026-05-22T10:32:06.000Z</time>
      </trkpt>
      <trkpt lat="43.06799" lon="-1.20191">
        <ele>381.625759</ele>
        <time>2026-05-22T10:32:07.000Z</time>
      </trkpt>
      <trkpt lat="43.06799" lon="-1.20193">
        <ele>381.737307</ele>
        <time>2026-05-22T10:32:08.000Z</time>
      </trkpt>
      <trkpt lat="43.06799" lon="-1.20195">
        <ele>381.853797</ele>
        <time>2026-05-22T10:32:09.000Z</time>
      </trkpt>
      <trkpt lat="43.06799" lon="-1.20197">
        <ele>381.976859</ele>
        <time>2026-05-22T10:32:10.000Z</time>
      </trkpt>
      <trkpt lat="43.06799" lon="-1.20199">
        <ele>382.106907</ele>
        <time>2026-05-22T10:32:11.000Z</time>
      </trkpt>
      <trkpt lat="43.068" lon="-1.20201">
        <ele>382.229969</ele>
        <time>2026-05-22T10:32:12.000Z</time>
      </trkpt>
      <trkpt lat="43.068" lon="-1.20204">
        <ele>382.354309</ele>
        <time>2026-05-22T10:32:13.000Z</time>
      </trkpt>
      <trkpt lat="43.068" lon="-1.20206">
        <ele>382.476338</ele>
        <time>2026-05-22T10:32:14.000Z</time>
      </trkpt>
      <trkpt lat="43.068" lon="-1.20208">
        <ele>382.600679</ele>
        <time>2026-05-22T10:32:15.000Z</time>
      </trkpt>
      <trkpt lat="43.068" lon="-1.2021">
        <ele>382.717169</ele>
        <time>2026-05-22T10:32:16.000Z</time>
      </trkpt>
      <trkpt lat="43.068" lon="-1.20212">
        <ele>382.828716</ele>
        <time>2026-05-22T10:32:17.000Z</time>
      </trkpt>
      <trkpt lat="43.068" lon="-1.20213">
        <ele>382.934515</ele>
        <time>2026-05-22T10:32:18.000Z</time>
      </trkpt>
      <trkpt lat="43.068" lon="-1.20215">
        <ele>383.045209</ele>
        <time>2026-05-22T10:32:19.000Z</time>
      </trkpt>
      <trkpt lat="43.068" lon="-1.20217">
        <ele>383.167497</ele>
        <time>2026-05-22T10:32:20.000Z</time>
      </trkpt>
      <trkpt lat="43.06799" lon="-1.2022">
        <ele>383.290559</ele>
        <time>2026-05-22T10:32:21.000Z</time>
      </trkpt>
      <trkpt lat="43.068" lon="-1.20222">
        <ele>383.412847</ele>
        <time>2026-05-22T10:32:22.000Z</time>
      </trkpt>
      <trkpt lat="43.068" lon="-1.20224">
        <ele>383.535682</ele>
        <time>2026-05-22T10:32:23.000Z</time>
      </trkpt>
      <trkpt lat="43.06801" lon="-1.20225">
        <ele>383.647584</ele>
        <time>2026-05-22T10:32:24.000Z</time>
      </trkpt>
      <trkpt lat="43.06801" lon="-1.20228">
        <ele>383.773693</ele>
        <time>2026-05-22T10:32:25.000Z</time>
      </trkpt>
      <trkpt lat="43.06801" lon="-1.2023">
        <ele>383.894188</ele>
        <time>2026-05-22T10:32:26.000Z</time>
      </trkpt>
      <trkpt lat="43.06802" lon="-1.20232">
        <ele>384.033627</ele>
        <time>2026-05-22T10:32:27.000Z</time>
      </trkpt>
      <trkpt lat="43.06802" lon="-1.20234">
        <ele>384.169391</ele>
        <time>2026-05-22T10:32:28.000Z</time>
      </trkpt>
      <trkpt lat="43.06803" lon="-1.20236">
        <ele>384.307015</ele>
        <time>2026-05-22T10:32:29.000Z</time>
      </trkpt>
      <trkpt lat="43.06804" lon="-1.20238">
        <ele>384.438421</ele>
        <time>2026-05-22T10:32:30.000Z</time>
      </trkpt>
      <trkpt lat="43.06805" lon="-1.2024">
        <ele>384.570384</ele>
        <time>2026-05-22T10:32:31.000Z</time>
      </trkpt>
      <trkpt lat="43.06806" lon="-1.20241">
        <ele>384.702347</ele>
        <time>2026-05-22T10:32:32.000Z</time>
      </trkpt>
      <trkpt lat="43.06807" lon="-1.20243">
        <ele>384.82084</ele>
        <time>2026-05-22T10:32:33.000Z</time>
      </trkpt>
      <trkpt lat="43.06808" lon="-1.20245">
        <ele>384.944492</ele>
        <time>2026-05-22T10:32:34.000Z</time>
      </trkpt>
      <trkpt lat="43.06809" lon="-1.20247">
        <ele>385.061999</ele>
        <time>2026-05-22T10:32:35.000Z</time>
      </trkpt>
      <trkpt lat="43.06809" lon="-1.20248">
        <ele>385.174792</ele>
        <time>2026-05-22T10:32:36.000Z</time>
      </trkpt>
      <trkpt lat="43.0681" lon="-1.2025">
        <ele>385.287458</ele>
        <time>2026-05-22T10:32:37.000Z</time>
      </trkpt>
      <trkpt lat="43.06811" lon="-1.20251">
        <ele>385.390741</ele>
        <time>2026-05-22T10:32:38.000Z</time>
      </trkpt>
      <trkpt lat="43.06812" lon="-1.20252">
        <ele>385.499099</ele>
        <time>2026-05-22T10:32:39.000Z</time>
      </trkpt>
      <trkpt lat="43.06813" lon="-1.20253">
        <ele>385.613975</ele>
        <time>2026-05-22T10:32:40.000Z</time>
      </trkpt>
      <trkpt lat="43.06815" lon="-1.20254">
        <ele>385.732589</ele>
        <time>2026-05-22T10:32:41.000Z</time>
      </trkpt>
      <trkpt lat="43.06816" lon="-1.20255">
        <ele>385.862861</ele>
        <time>2026-05-22T10:32:42.000Z</time>
      </trkpt>
      <trkpt lat="43.06818" lon="-1.20256">
        <ele>386.000455</ele>
        <time>2026-05-22T10:32:43.000Z</time>
      </trkpt>
      <trkpt lat="43.06819" lon="-1.20257">
        <ele>386.119011</ele>
        <time>2026-05-22T10:32:44.000Z</time>
      </trkpt>
      <trkpt lat="43.06821" lon="-1.20258">
        <ele>386.239684</ele>
        <time>2026-05-22T10:32:45.000Z</time>
      </trkpt>
      <trkpt lat="43.06822" lon="-1.20259">
        <ele>386.367743</ele>
        <time>2026-05-22T10:32:46.000Z</time>
      </trkpt>
      <trkpt lat="43.06823" lon="-1.2026">
        <ele>386.490771</ele>
        <time>2026-05-22T10:32:47.000Z</time>
      </trkpt>
      <trkpt lat="43.06824" lon="-1.20261">
        <ele>386.608979</ele>
        <time>2026-05-22T10:32:48.000Z</time>
      </trkpt>
      <trkpt lat="43.06826" lon="-1.20262">
        <ele>386.741691</ele>
        <time>2026-05-22T10:32:49.000Z</time>
      </trkpt>
      <trkpt lat="43.06827" lon="-1.20263">
        <ele>386.85053</ele>
        <time>2026-05-22T10:32:50.000Z</time>
      </trkpt>
      <trkpt lat="43.06828" lon="-1.20264">
        <ele>386.972096</ele>
        <time>2026-05-22T10:32:51.000Z</time>
      </trkpt>
      <trkpt lat="43.0683" lon="-1.20265">
        <ele>387.114513</ele>
        <time>2026-05-22T10:32:52.000Z</time>
      </trkpt>
      <trkpt lat="43.06832" lon="-1.20266">
        <ele>387.265047</ele>
        <time>2026-05-22T10:32:53.000Z</time>
      </trkpt>
      <trkpt lat="43.06833" lon="-1.20267">
        <ele>387.395319</ele>
        <time>2026-05-22T10:32:54.000Z</time>
      </trkpt>
      <trkpt lat="43.06835" lon="-1.20268">
        <ele>387.530811</ele>
        <time>2026-05-22T10:32:55.000Z</time>
      </trkpt>
      <trkpt lat="43.06836" lon="-1.20269">
        <ele>387.65642</ele>
        <time>2026-05-22T10:32:56.000Z</time>
      </trkpt>
      <trkpt lat="43.06838" lon="-1.2027">
        <ele>387.794615</ele>
        <time>2026-05-22T10:32:57.000Z</time>
      </trkpt>
      <trkpt lat="43.0684" lon="-1.20271">
        <ele>387.943457</ele>
        <time>2026-05-22T10:32:58.000Z</time>
      </trkpt>
      <trkpt lat="43.06841" lon="-1.20271">
        <ele>388.078949</ele>
        <time>2026-05-22T10:32:59.000Z</time>
      </trkpt>
      <trkpt lat="43.06843" lon="-1.20272">
        <ele>388.237068</ele>
        <time>2026-05-22T10:33:00.000Z</time>
      </trkpt>
      <trkpt lat="43.06845" lon="-1.20273">
        <ele>388.406433</ele>
        <time>2026-05-22T10:33:01.000Z</time>
      </trkpt>
      <trkpt lat="43.06847" lon="-1.20274">
        <ele>388.578353</ele>
        <time>2026-05-22T10:33:02.000Z</time>
      </trkpt>
      <trkpt lat="43.06849" lon="-1.20275">
        <ele>388.748991</ele>
        <time>2026-05-22T10:33:03.000Z</time>
      </trkpt>
      <trkpt lat="43.06852" lon="-1.20275">
        <ele>388.933409</ele>
        <time>2026-05-22T10:33:04.000Z</time>
      </trkpt>
      <trkpt lat="43.06854" lon="-1.20275">
        <ele>389.109268</ele>
        <time>2026-05-22T10:33:05.000Z</time>
      </trkpt>
      <trkpt lat="43.06856" lon="-1.20276">
        <ele>389.277214</ele>
        <time>2026-05-22T10:33:06.000Z</time>
      </trkpt>
      <trkpt lat="43.06858" lon="-1.20276">
        <ele>389.460162</ele>
        <time>2026-05-22T10:33:07.000Z</time>
      </trkpt>
      <trkpt lat="43.06861" lon="-1.20276">
        <ele>389.667298</ele>
        <time>2026-05-22T10:33:08.000Z</time>
      </trkpt>
      <trkpt lat="43.06863" lon="-1.20276">
        <ele>389.863374</ele>
        <time>2026-05-22T10:33:09.000Z</time>
      </trkpt>
      <trkpt lat="43.06866" lon="-1.20277">
        <ele>390.048849</ele>
        <time>2026-05-22T10:33:10.000Z</time>
      </trkpt>
      <trkpt lat="43.06869" lon="-1.20277">
        <ele>390.248419</ele>
        <time>2026-05-22T10:33:11.000Z</time>
      </trkpt>
      <trkpt lat="43.06872" lon="-1.20278">
        <ele>390.444255</ele>
        <time>2026-05-22T10:33:12.000Z</time>
      </trkpt>
      <trkpt lat="43.06874" lon="-1.20279">
        <ele>390.649392</ele>
        <time>2026-05-22T10:33:13.000Z</time>
      </trkpt>
      <trkpt lat="43.06877" lon="-1.2028">
        <ele>390.830523</ele>
        <time>2026-05-22T10:33:14.000Z</time>
      </trkpt>
      <trkpt lat="43.0688" lon="-1.20281">
        <ele>391.080576</ele>
        <time>2026-05-22T10:33:15.000Z</time>
      </trkpt>
      <trkpt lat="43.06883" lon="-1.20281">
        <ele>391.294817</ele>
        <time>2026-05-22T10:33:16.000Z</time>
      </trkpt>
      <trkpt lat="43.06886" lon="-1.20281">
        <ele>391.522609</ele>
        <time>2026-05-22T10:33:17.000Z</time>
      </trkpt>
      <trkpt lat="43.0689" lon="-1.20282">
        <ele>391.749694</ele>
        <time>2026-05-22T10:33:18.000Z</time>
      </trkpt>
      <trkpt lat="43.06893" lon="-1.20282">
        <ele>391.962427</ele>
        <time>2026-05-22T10:33:19.000Z</time>
      </trkpt>
      <trkpt lat="43.06896" lon="-1.20282">
        <ele>392.182248</ele>
        <time>2026-05-22T10:33:20.000Z</time>
      </trkpt>
      <trkpt lat="43.06899" lon="-1.20282">
        <ele>392.402007</ele>
        <time>2026-05-22T10:33:21.000Z</time>
      </trkpt>
      <trkpt lat="43.06902" lon="-1.20282">
        <ele>392.601106</ele>
        <time>2026-05-22T10:33:22.000Z</time>
      </trkpt>
      <trkpt lat="43.06904" lon="-1.20283">
        <ele>392.795912</ele>
        <time>2026-05-22T10:33:23.000Z</time>
      </trkpt>
      <trkpt lat="43.06907" lon="-1.20284">
        <ele>392.985494</ele>
        <time>2026-05-22T10:33:24.000Z</time>
      </trkpt>
      <trkpt lat="43.06909" lon="-1.20286">
        <ele>393.158448</ele>
        <time>2026-05-22T10:33:25.000Z</time>
      </trkpt>
      <trkpt lat="43.0691" lon="-1.20288">
        <ele>393.318118</ele>
        <time>2026-05-22T10:33:26.000Z</time>
      </trkpt>
      <trkpt lat="43.06911" lon="-1.20291">
        <ele>393.471378</ele>
        <time>2026-05-22T10:33:27.000Z</time>
      </trkpt>
      <trkpt lat="43.06911" lon="-1.20294">
        <ele>393.628189</ele>
        <time>2026-05-22T10:33:28.000Z</time>
      </trkpt>
      <trkpt lat="43.06912" lon="-1.20297">
        <ele>393.783713</ele>
        <time>2026-05-22T10:33:29.000Z</time>
      </trkpt>
      <trkpt lat="43.06911" lon="-1.20299">
        <ele>393.882364</ele>
        <time>2026-05-22T10:33:30.000Z</time>
      </trkpt>
      <trkpt lat="43.06911" lon="-1.20301">
        <ele>393.976654</ele>
        <time>2026-05-22T10:33:31.000Z</time>
      </trkpt>
      <trkpt lat="43.06911" lon="-1.20303">
        <ele>394.093429</ele>
        <time>2026-05-22T10:33:32.000Z</time>
      </trkpt>
      <trkpt lat="43.0691" lon="-1.20305">
        <ele>394.214702</ele>
        <time>2026-05-22T10:33:33.000Z</time>
      </trkpt>
      <trkpt lat="43.06909" lon="-1.20307">
        <ele>394.33635</ele>
        <time>2026-05-22T10:33:34.000Z</time>
      </trkpt>
      <trkpt lat="43.06908" lon="-1.20308">
        <ele>394.455104</ele>
        <time>2026-05-22T10:33:35.000Z</time>
      </trkpt>
      <trkpt lat="43.06905" lon="-1.2031">
        <ele>394.618488</ele>
        <time>2026-05-22T10:33:36.000Z</time>
      </trkpt>
      <trkpt lat="43.06904" lon="-1.20311">
        <ele>394.766825</ele>
        <time>2026-05-22T10:33:37.000Z</time>
      </trkpt>
      <trkpt lat="43.06902" lon="-1.20312">
        <ele>394.921627</ele>
        <time>2026-05-22T10:33:38.000Z</time>
      </trkpt>
      <trkpt lat="43.06899" lon="-1.20313">
        <ele>395.094339</ele>
        <time>2026-05-22T10:33:39.000Z</time>
      </trkpt>
      <trkpt lat="43.06898" lon="-1.20314">
        <ele>395.188959</ele>
        <time>2026-05-22T10:33:40.000Z</time>
      </trkpt>
      <trkpt lat="43.06896" lon="-1.20315">
        <ele>395.314807</ele>
        <time>2026-05-22T10:33:41.000Z</time>
      </trkpt>
      <trkpt lat="43.06894" lon="-1.20315">
        <ele>395.451964</ele>
        <time>2026-05-22T10:33:42.000Z</time>
      </trkpt>
      <trkpt lat="43.06893" lon="-1.20316">
        <ele>395.577812</ele>
        <time>2026-05-22T10:33:43.000Z</time>
      </trkpt>
      <trkpt lat="43.06891" lon="-1.20317">
        <ele>395.693913</ele>
        <time>2026-05-22T10:33:44.000Z</time>
      </trkpt>
      <trkpt lat="43.06889" lon="-1.20317">
        <ele>395.834832</ele>
        <time>2026-05-22T10:33:45.000Z</time>
      </trkpt>
      <trkpt lat="43.06887" lon="-1.20318">
        <ele>395.990827</ele>
        <time>2026-05-22T10:33:46.000Z</time>
      </trkpt>
      <trkpt lat="43.06886" lon="-1.20319">
        <ele>396.111581</ele>
        <time>2026-05-22T10:33:47.000Z</time>
      </trkpt>
      <trkpt lat="43.06884" lon="-1.2032">
        <ele>396.239017</ele>
        <time>2026-05-22T10:33:48.000Z</time>
      </trkpt>
      <trkpt lat="43.06882" lon="-1.20321">
        <ele>396.37706</ele>
        <time>2026-05-22T10:33:49.000Z</time>
      </trkpt>
      <trkpt lat="43.0688" lon="-1.20322">
        <ele>396.509712</ele>
        <time>2026-05-22T10:33:50.000Z</time>
      </trkpt>
      <trkpt lat="43.06879" lon="-1.20323">
        <ele>396.628788</ele>
        <time>2026-05-22T10:33:51.000Z</time>
      </trkpt>
      <trkpt lat="43.06877" lon="-1.20323">
        <ele>396.756224</ele>
        <time>2026-05-22T10:33:52.000Z</time>
      </trkpt>
      <trkpt lat="43.06876" lon="-1.20324">
        <ele>396.876978</ele>
        <time>2026-05-22T10:33:53.000Z</time>
      </trkpt>
      <trkpt lat="43.06874" lon="-1.20325">
        <ele>397.00619</ele>
        <time>2026-05-22T10:33:54.000Z</time>
      </trkpt>
      <trkpt lat="43.06873" lon="-1.20326">
        <ele>397.117343</ele>
        <time>2026-05-22T10:33:55.000Z</time>
      </trkpt>
      <trkpt lat="43.06871" lon="-1.20327">
        <ele>397.231464</ele>
        <time>2026-05-22T10:33:56.000Z</time>
      </trkpt>
      <trkpt lat="43.0687" lon="-1.20328">
        <ele>397.332849</ele>
        <time>2026-05-22T10:33:57.000Z</time>
      </trkpt>
      <trkpt lat="43.06868" lon="-1.20328">
        <ele>397.46418</ele>
        <time>2026-05-22T10:33:58.000Z</time>
      </trkpt>
      <trkpt lat="43.06867" lon="-1.20329">
        <ele>397.572523</ele>
        <time>2026-05-22T10:33:59.000Z</time>
      </trkpt>
      <trkpt lat="43.06865" lon="-1.2033">
        <ele>397.701856</ele>
        <time>2026-05-22T10:34:00.000Z</time>
      </trkpt>
      <trkpt lat="43.06863" lon="-1.20331">
        <ele>397.826544</ele>
        <time>2026-05-22T10:34:01.000Z</time>
      </trkpt>
      <trkpt lat="43.06862" lon="-1.20332">
        <ele>397.949171</ele>
        <time>2026-05-22T10:34:02.000Z</time>
      </trkpt>
      <trkpt lat="43.0686" lon="-1.20333">
        <ele>398.068248</ele>
        <time>2026-05-22T10:34:03.000Z</time>
      </trkpt>
      <trkpt lat="43.06859" lon="-1.20334">
        <ele>398.187324</ele>
        <time>2026-05-22T10:34:04.000Z</time>
      </trkpt>
      <trkpt lat="43.06857" lon="-1.20335">
        <ele>398.321484</ele>
        <time>2026-05-22T10:34:05.000Z</time>
      </trkpt>
      <trkpt lat="43.06855" lon="-1.20335">
        <ele>398.421938</ele>
        <time>2026-05-22T10:34:06.000Z</time>
      </trkpt>
      <trkpt lat="43.06854" lon="-1.20335">
        <ele>398.515396</ele>
        <time>2026-05-22T10:34:07.000Z</time>
      </trkpt>
      <trkpt lat="43.06852" lon="-1.20336">
        <ele>398.644669</ele>
        <time>2026-05-22T10:34:08.000Z</time>
      </trkpt>
      <trkpt lat="43.06851" lon="-1.20336">
        <ele>398.759969</ele>
        <time>2026-05-22T10:34:09.000Z</time>
      </trkpt>
      <trkpt lat="43.06849" lon="-1.20336">
        <ele>398.862537</ele>
        <time>2026-05-22T10:34:10.000Z</time>
      </trkpt>
      <trkpt lat="43.06848" lon="-1.20337">
        <ele>398.958263</ele>
        <time>2026-05-22T10:34:11.000Z</time>
      </trkpt>
      <trkpt lat="43.06847" lon="-1.20338">
        <ele>399.061536</ele>
        <time>2026-05-22T10:34:12.000Z</time>
      </trkpt>
      <trkpt lat="43.06845" lon="-1.20339">
        <ele>399.163917</ele>
        <time>2026-05-22T10:34:13.000Z</time>
      </trkpt>
      <trkpt lat="43.06844" lon="-1.2034">
        <ele>399.271464</ele>
        <time>2026-05-22T10:34:14.000Z</time>
      </trkpt>
      <trkpt lat="43.06843" lon="-1.2034">
        <ele>399.382246</ele>
        <time>2026-05-22T10:34:15.000Z</time>
      </trkpt>
      <trkpt lat="43.06841" lon="-1.20341">
        <ele>399.491688</ele>
        <time>2026-05-22T10:34:16.000Z</time>
      </trkpt>
      <trkpt lat="43.06839" lon="-1.20341">
        <ele>399.606172</ele>
        <time>2026-05-22T10:34:17.000Z</time>
      </trkpt>
      <trkpt lat="43.06838" lon="-1.20342">
        <ele>399.730626</ele>
        <time>2026-05-22T10:34:18.000Z</time>
      </trkpt>
      <trkpt lat="43.06836" lon="-1.20343">
        <ele>399.85138</ele>
        <time>2026-05-22T10:34:19.000Z</time>
      </trkpt>
      <trkpt lat="43.06834" lon="-1.20343">
        <ele>399.977228</ele>
        <time>2026-05-22T10:34:20.000Z</time>
      </trkpt>
      <trkpt lat="43.06833" lon="-1.20344">
        <ele>400.101916</ele>
        <time>2026-05-22T10:34:21.000Z</time>
      </trkpt>
      <trkpt lat="43.06831" lon="-1.20346">
        <ele>400.227772</ele>
        <time>2026-05-22T10:34:22.000Z</time>
      </trkpt>
      <trkpt lat="43.0683" lon="-1.20347">
        <ele>400.336257</ele>
        <time>2026-05-22T10:34:23.000Z</time>
      </trkpt>
      <trkpt lat="43.06829" lon="-1.20347">
        <ele>400.431983</ele>
        <time>2026-05-22T10:34:24.000Z</time>
      </trkpt>
      <trkpt lat="43.06827" lon="-1.20348">
        <ele>400.543929</ele>
        <time>2026-05-22T10:34:25.000Z</time>
      </trkpt>
      <trkpt lat="43.06826" lon="-1.20349">
        <ele>400.658362</ele>
        <time>2026-05-22T10:34:26.000Z</time>
      </trkpt>
      <trkpt lat="43.06825" lon="-1.20351">
        <ele>400.772796</ele>
        <time>2026-05-22T10:34:27.000Z</time>
      </trkpt>
      <trkpt lat="43.06824" lon="-1.20352">
        <ele>400.87251</ele>
        <time>2026-05-22T10:34:28.000Z</time>
      </trkpt>
      <trkpt lat="43.06823" lon="-1.20353">
        <ele>400.970275</ele>
        <time>2026-05-22T10:34:29.000Z</time>
      </trkpt>
      <trkpt lat="43.06821" lon="-1.20354">
        <ele>401.076752</ele>
        <time>2026-05-22T10:34:30.000Z</time>
      </trkpt>
      <trkpt lat="43.06821" lon="-1.20356">
        <ele>401.181477</ele>
        <time>2026-05-22T10:34:31.000Z</time>
      </trkpt>
      <trkpt lat="43.0682" lon="-1.20358">
        <ele>401.287214</ele>
        <time>2026-05-22T10:34:32.000Z</time>
      </trkpt>
      <trkpt lat="43.0682" lon="-1.2036">
        <ele>401.406534</ele>
        <time>2026-05-22T10:34:33.000Z</time>
      </trkpt>
      <trkpt lat="43.0682" lon="-1.20362">
        <ele>401.510353</ele>
        <time>2026-05-22T10:34:34.000Z</time>
      </trkpt>
      <trkpt lat="43.06819" lon="-1.20364">
        <ele>401.61609</ele>
        <time>2026-05-22T10:34:35.000Z</time>
      </trkpt>
      <trkpt lat="43.06819" lon="-1.20366">
        <ele>401.715504</ele>
        <time>2026-05-22T10:34:36.000Z</time>
      </trkpt>
      <trkpt lat="43.06819" lon="-1.20368">
        <ele>401.82449</ele>
        <time>2026-05-22T10:34:37.000Z</time>
      </trkpt>
      <trkpt lat="43.06819" lon="-1.2037">
        <ele>401.933476</ele>
        <time>2026-05-22T10:34:38.000Z</time>
      </trkpt>
      <trkpt lat="43.06819" lon="-1.20373">
        <ele>402.042461</ele>
        <time>2026-05-22T10:34:39.000Z</time>
      </trkpt>
      <trkpt lat="43.06819" lon="-1.20375">
        <ele>402.151447</ele>
        <time>2026-05-22T10:34:40.000Z</time>
      </trkpt>
      <trkpt lat="43.06819" lon="-1.20377">
        <ele>402.267349</ele>
        <time>2026-05-22T10:34:41.000Z</time>
      </trkpt>
      <trkpt lat="43.0682" lon="-1.20379">
        <ele>402.376823</ele>
        <time>2026-05-22T10:34:42.000Z</time>
      </trkpt>
      <trkpt lat="43.0682" lon="-1.20381">
        <ele>402.492724</ele>
        <time>2026-05-22T10:34:43.000Z</time>
      </trkpt>
      <trkpt lat="43.0682" lon="-1.20383">
        <ele>402.631188</ele>
        <time>2026-05-22T10:34:44.000Z</time>
      </trkpt>
      <trkpt lat="43.06821" lon="-1.20386">
        <ele>402.784562</ele>
        <time>2026-05-22T10:34:45.000Z</time>
      </trkpt>
      <trkpt lat="43.06821" lon="-1.20388">
        <ele>402.937936</ele>
        <time>2026-05-22T10:34:46.000Z</time>
      </trkpt>
      <trkpt lat="43.06821" lon="-1.20391">
        <ele>403.08042</ele>
        <time>2026-05-22T10:34:47.000Z</time>
      </trkpt>
      <trkpt lat="43.06821" lon="-1.20393">
        <ele>403.233794</ele>
        <time>2026-05-22T10:34:48.000Z</time>
      </trkpt>
      <trkpt lat="43.06822" lon="-1.20396">
        <ele>403.382285</ele>
        <time>2026-05-22T10:34:49.000Z</time>
      </trkpt>
      <trkpt lat="43.06822" lon="-1.20398">
        <ele>403.529598</ele>
        <time>2026-05-22T10:34:50.000Z</time>
      </trkpt>
      <trkpt lat="43.06822" lon="-1.204">
        <ele>403.664025</ele>
        <time>2026-05-22T10:34:51.000Z</time>
      </trkpt>
      <trkpt lat="43.06822" lon="-1.20402">
        <ele>403.798451</ele>
        <time>2026-05-22T10:34:52.000Z</time>
      </trkpt>
      <trkpt lat="43.06822" lon="-1.20404">
        <ele>403.92652</ele>
        <time>2026-05-22T10:34:53.000Z</time>
      </trkpt>
      <trkpt lat="43.06822" lon="-1.20407">
        <ele>404.079894</ele>
        <time>2026-05-22T10:34:54.000Z</time>
      </trkpt>
      <trkpt lat="43.06821" lon="-1.20409">
        <ele>404.230019</ele>
        <time>2026-05-22T10:34:55.000Z</time>
      </trkpt>
      <trkpt lat="43.06821" lon="-1.20412">
        <ele>404.372502</ele>
        <time>2026-05-22T10:34:56.000Z</time>
      </trkpt>
      <trkpt lat="43.06821" lon="-1.20414">
        <ele>404.504852</ele>
        <time>2026-05-22T10:34:57.000Z</time>
      </trkpt>
      <trkpt lat="43.0682" lon="-1.20416">
        <ele>404.635347</ele>
        <time>2026-05-22T10:34:58.000Z</time>
      </trkpt>
      <trkpt lat="43.0682" lon="-1.20418">
        <ele>404.769514</ele>
        <time>2026-05-22T10:34:59.000Z</time>
      </trkpt>
      <trkpt lat="43.0682" lon="-1.2042">
        <ele>404.91077</ele>
        <time>2026-05-22T10:35:00.000Z</time>
      </trkpt>
      <trkpt lat="43.0682" lon="-1.20422">
        <ele>405.04312</ele>
        <time>2026-05-22T10:35:01.000Z</time>
      </trkpt>
      <trkpt lat="43.06819" lon="-1.20425">
        <ele>405.180635</ele>
        <time>2026-05-22T10:35:02.000Z</time>
      </trkpt>
      <trkpt lat="43.06819" lon="-1.20427">
        <ele>405.326979</ele>
        <time>2026-05-22T10:35:03.000Z</time>
      </trkpt>
      <trkpt lat="43.06818" lon="-1.20429">
        <ele>405.453437</ele>
        <time>2026-05-22T10:35:04.000Z</time>
      </trkpt>
      <trkpt lat="43.06818" lon="-1.20431">
        <ele>405.608135</ele>
        <time>2026-05-22T10:35:05.000Z</time>
      </trkpt>
      <trkpt lat="43.06818" lon="-1.20434">
        <ele>405.74939</ele>
        <time>2026-05-22T10:35:06.000Z</time>
      </trkpt>
      <trkpt lat="43.06818" lon="-1.20436">
        <ele>405.889904</ele>
        <time>2026-05-22T10:35:07.000Z</time>
      </trkpt>
      <trkpt lat="43.06818" lon="-1.20438">
        <ele>406.036268</ele>
        <time>2026-05-22T10:35:08.000Z</time>
      </trkpt>
      <trkpt lat="43.06818" lon="-1.20441">
        <ele>406.18287</ele>
        <time>2026-05-22T10:35:09.000Z</time>
      </trkpt>
      <trkpt lat="43.06818" lon="-1.20443">
        <ele>406.335562</ele>
        <time>2026-05-22T10:35:10.000Z</time>
      </trkpt>
      <trkpt lat="43.06818" lon="-1.20446">
        <ele>406.494999</ele>
        <time>2026-05-22T10:35:11.000Z</time>
      </trkpt>
      <trkpt lat="43.06818" lon="-1.20448">
        <ele>406.657038</ele>
        <time>2026-05-22T10:35:12.000Z</time>
      </trkpt>
      <trkpt lat="43.06819" lon="-1.20451">
        <ele>406.815111</ele>
        <time>2026-05-22T10:35:13.000Z</time>
      </trkpt>
      <trkpt lat="43.06819" lon="-1.20453">
        <ele>406.973184</ele>
        <time>2026-05-22T10:35:14.000Z</time>
      </trkpt>
      <trkpt lat="43.0682" lon="-1.20456">
        <ele>407.132304</ele>
        <time>2026-05-22T10:35:15.000Z</time>
      </trkpt>
      <trkpt lat="43.06821" lon="-1.20458">
        <ele>407.284255</ele>
        <time>2026-05-22T10:35:16.000Z</time>
      </trkpt>
      <trkpt lat="43.06822" lon="-1.2046">
        <ele>407.441853</ele>
        <time>2026-05-22T10:35:17.000Z</time>
      </trkpt>
      <trkpt lat="43.06822" lon="-1.20463">
        <ele>407.585065</ele>
        <time>2026-05-22T10:35:18.000Z</time>
      </trkpt>
      <trkpt lat="43.06823" lon="-1.20465">
        <ele>407.731409</ele>
        <time>2026-05-22T10:35:19.000Z</time>
      </trkpt>
      <trkpt lat="43.06823" lon="-1.20467">
        <ele>407.889482</ele>
        <time>2026-05-22T10:35:20.000Z</time>
      </trkpt>
      <trkpt lat="43.06824" lon="-1.2047">
        <ele>408.049961</ele>
        <time>2026-05-22T10:35:21.000Z</time>
      </trkpt>
      <trkpt lat="43.06825" lon="-1.20472">
        <ele>408.199831</ele>
        <time>2026-05-22T10:35:22.000Z</time>
      </trkpt>
      <trkpt lat="43.06826" lon="-1.20474">
        <ele>408.347677</ele>
        <time>2026-05-22T10:35:23.000Z</time>
      </trkpt>
      <trkpt lat="43.06827" lon="-1.20476">
        <ele>408.495479</ele>
        <time>2026-05-22T10:35:24.000Z</time>
      </trkpt>
      <trkpt lat="43.06828" lon="-1.20478">
        <ele>408.656359</ele>
        <time>2026-05-22T10:35:25.000Z</time>
      </trkpt>
      <trkpt lat="43.06828" lon="-1.20481">
        <ele>408.802699</ele>
        <time>2026-05-22T10:35:26.000Z</time>
      </trkpt>
      <trkpt lat="43.06829" lon="-1.20483">
        <ele>408.965977</ele>
        <time>2026-05-22T10:35:27.000Z</time>
      </trkpt>
      <trkpt lat="43.06829" lon="-1.20486">
        <ele>409.126503</ele>
        <time>2026-05-22T10:35:28.000Z</time>
      </trkpt>
      <trkpt lat="43.0683" lon="-1.20488">
        <ele>409.284576</ele>
        <time>2026-05-22T10:35:29.000Z</time>
      </trkpt>
      <trkpt lat="43.0683" lon="-1.20491">
        <ele>409.445055</ele>
        <time>2026-05-22T10:35:30.000Z</time>
      </trkpt>
      <trkpt lat="43.06831" lon="-1.20493">
        <ele>409.605935</ele>
        <time>2026-05-22T10:35:31.000Z</time>
      </trkpt>
      <trkpt lat="43.06832" lon="-1.20495">
        <ele>409.770456</ele>
        <time>2026-05-22T10:35:32.000Z</time>
      </trkpt>
      <trkpt lat="43.06833" lon="-1.20498">
        <ele>409.913667</ele>
        <time>2026-05-22T10:35:33.000Z</time>
      </trkpt>
      <trkpt lat="43.06833" lon="-1.205">
        <ele>410.057852</ele>
        <time>2026-05-22T10:35:34.000Z</time>
      </trkpt>
      <trkpt lat="43.06833" lon="-1.20502">
        <ele>410.194336</ele>
        <time>2026-05-22T10:35:35.000Z</time>
      </trkpt>
      <trkpt lat="43.06834" lon="-1.20504">
        <ele>410.311404</ele>
        <time>2026-05-22T10:35:36.000Z</time>
      </trkpt>
      <trkpt lat="43.06834" lon="-1.20506">
        <ele>410.449664</ele>
        <time>2026-05-22T10:35:37.000Z</time>
      </trkpt>
      <trkpt lat="43.06835" lon="-1.20508">
        <ele>410.584363</ele>
        <time>2026-05-22T10:35:38.000Z</time>
      </trkpt>
      <trkpt lat="43.06835" lon="-1.2051">
        <ele>410.716713</ele>
        <time>2026-05-22T10:35:39.000Z</time>
      </trkpt>
      <trkpt lat="43.06835" lon="-1.20512">
        <ele>410.845627</ele>
        <time>2026-05-22T10:35:40.000Z</time>
      </trkpt>
      <trkpt lat="43.06836" lon="-1.20515">
        <ele>410.986136</ele>
        <time>2026-05-22T10:35:41.000Z</time>
      </trkpt>
      <trkpt lat="43.06836" lon="-1.20517">
        <ele>411.112594</ele>
        <time>2026-05-22T10:35:42.000Z</time>
      </trkpt>
      <trkpt lat="43.06837" lon="-1.20519">
        <ele>411.241746</ele>
        <time>2026-05-22T10:35:43.000Z</time>
      </trkpt>
      <trkpt lat="43.06837" lon="-1.20521">
        <ele>411.356485</ele>
        <time>2026-05-22T10:35:44.000Z</time>
      </trkpt>
      <trkpt lat="43.06837" lon="-1.20523">
        <ele>411.496995</ele>
        <time>2026-05-22T10:35:45.000Z</time>
      </trkpt>
      <trkpt lat="43.06838" lon="-1.20525">
        <ele>411.639478</ele>
        <time>2026-05-22T10:35:46.000Z</time>
      </trkpt>
      <trkpt lat="43.06838" lon="-1.20527">
        <ele>411.781962</ele>
        <time>2026-05-22T10:35:47.000Z</time>
      </trkpt>
      <trkpt lat="43.06838" lon="-1.2053">
        <ele>411.922475</ele>
        <time>2026-05-22T10:35:48.000Z</time>
      </trkpt>
      <trkpt lat="43.06838" lon="-1.20532">
        <ele>412.046989</ele>
        <time>2026-05-22T10:35:49.000Z</time>
      </trkpt>
      <trkpt lat="43.06839" lon="-1.20534">
        <ele>412.191174</ele>
        <time>2026-05-22T10:35:50.000Z</time>
      </trkpt>
      <trkpt lat="43.0684" lon="-1.20536">
        <ele>412.329272</ele>
        <time>2026-05-22T10:35:51.000Z</time>
      </trkpt>
      <trkpt lat="43.0684" lon="-1.20538">
        <ele>412.458185</ele>
        <time>2026-05-22T10:35:52.000Z</time>
      </trkpt>
      <trkpt lat="43.06841" lon="-1.2054">
        <ele>412.572925</ele>
        <time>2026-05-22T10:35:53.000Z</time>
      </trkpt>
      <trkpt lat="43.06841" lon="-1.20541">
        <ele>412.687664</ele>
        <time>2026-05-22T10:35:54.000Z</time>
      </trkpt>
      <trkpt lat="43.06841" lon="-1.20543">
        <ele>412.802403</ele>
        <time>2026-05-22T10:35:55.000Z</time>
      </trkpt>
      <trkpt lat="43.06842" lon="-1.20545">
        <ele>412.937101</ele>
        <time>2026-05-22T10:35:56.000Z</time>
      </trkpt>
      <trkpt lat="43.06843" lon="-1.20547">
        <ele>413.052241</ele>
        <time>2026-05-22T10:35:57.000Z</time>
      </trkpt>
      <trkpt lat="43.06843" lon="-1.20549">
        <ele>413.161921</ele>
        <time>2026-05-22T10:35:58.000Z</time>
      </trkpt>
      <trkpt lat="43.06844" lon="-1.2055">
        <ele>413.273682</ele>
        <time>2026-05-22T10:35:59.000Z</time>
      </trkpt>
      <trkpt lat="43.06844" lon="-1.20552">
        <ele>413.388421</ele>
        <time>2026-05-22T10:36:00.000Z</time>
      </trkpt>
      <trkpt lat="43.06845" lon="-1.20554">
        <ele>413.517335</ele>
        <time>2026-05-22T10:36:01.000Z</time>
      </trkpt>
      <trkpt lat="43.06845" lon="-1.20556">
        <ele>413.646249</ele>
        <time>2026-05-22T10:36:02.000Z</time>
      </trkpt>
      <trkpt lat="43.06846" lon="-1.20558">
        <ele>413.778102</ele>
        <time>2026-05-22T10:36:03.000Z</time>
      </trkpt>
      <trkpt lat="43.06846" lon="-1.2056">
        <ele>413.907016</ele>
        <time>2026-05-22T10:36:04.000Z</time>
      </trkpt>
      <trkpt lat="43.06846" lon="-1.20563">
        <ele>414.108957</ele>
        <time>2026-05-22T10:36:05.000Z</time>
      </trkpt>
      <trkpt lat="43.06846" lon="-1.20566">
        <ele>414.269483</ele>
        <time>2026-05-22T10:36:06.000Z</time>
      </trkpt>
      <trkpt lat="43.06846" lon="-1.20568">
        <ele>414.409997</ele>
        <time>2026-05-22T10:36:07.000Z</time>
      </trkpt>
      <trkpt lat="43.06846" lon="-1.2057">
        <ele>414.516653</ele>
        <time>2026-05-22T10:36:08.000Z</time>
      </trkpt>
      <trkpt lat="43.06846" lon="-1.20572">
        <ele>414.617391</ele>
        <time>2026-05-22T10:36:09.000Z</time>
      </trkpt>
      <trkpt lat="43.06847" lon="-1.20573">
        <ele>414.720522</ele>
        <time>2026-05-22T10:36:10.000Z</time>
      </trkpt>
      <trkpt lat="43.06847" lon="-1.20575">
        <ele>414.809498</ele>
        <time>2026-05-22T10:36:11.000Z</time>
      </trkpt>
      <trkpt lat="43.06847" lon="-1.20576">
        <ele>414.908492</ele>
        <time>2026-05-22T10:36:12.000Z</time>
      </trkpt>
      <trkpt lat="43.06847" lon="-1.20578">
        <ele>415.012501</ele>
        <time>2026-05-22T10:36:13.000Z</time>
      </trkpt>
      <trkpt lat="43.06847" lon="-1.2058">
        <ele>415.140569</ele>
        <time>2026-05-22T10:36:14.000Z</time>
      </trkpt>
      <trkpt lat="43.06847" lon="-1.20582">
        <ele>415.250659</ele>
        <time>2026-05-22T10:36:15.000Z</time>
      </trkpt>
      <trkpt lat="43.06848" lon="-1.20584">
        <ele>415.359578</ele>
        <time>2026-05-22T10:36:16.000Z</time>
      </trkpt>
      <trkpt lat="43.06848" lon="-1.20585">
        <ele>415.458572</ele>
        <time>2026-05-22T10:36:17.000Z</time>
      </trkpt>
      <trkpt lat="43.06848" lon="-1.20587">
        <ele>415.56749</ele>
        <time>2026-05-22T10:36:18.000Z</time>
      </trkpt>
      <trkpt lat="43.06849" lon="-1.20589">
        <ele>415.674146</ele>
        <time>2026-05-22T10:36:19.000Z</time>
      </trkpt>
      <trkpt lat="43.06849" lon="-1.2059">
        <ele>415.774696</ele>
        <time>2026-05-22T10:36:20.000Z</time>
      </trkpt>
      <trkpt lat="43.0685" lon="-1.20592">
        <ele>415.899054</ele>
        <time>2026-05-22T10:36:21.000Z</time>
      </trkpt>
      <trkpt lat="43.06851" lon="-1.20594">
        <ele>416.027545</ele>
        <time>2026-05-22T10:36:22.000Z</time>
      </trkpt>
      <trkpt lat="43.06851" lon="-1.20595">
        <ele>416.14128</ele>
        <time>2026-05-22T10:36:23.000Z</time>
      </trkpt>
      <trkpt lat="43.06852" lon="-1.20597">
        <ele>416.260289</ele>
        <time>2026-05-22T10:36:24.000Z</time>
      </trkpt>
      <trkpt lat="43.06853" lon="-1.20599">
        <ele>416.39331</ele>
        <time>2026-05-22T10:36:25.000Z</time>
      </trkpt>
      <trkpt lat="43.06854" lon="-1.206">
        <ele>416.521345</ele>
        <time>2026-05-22T10:36:26.000Z</time>
      </trkpt>
      <trkpt lat="43.06855" lon="-1.20602">
        <ele>416.644494</ele>
        <time>2026-05-22T10:36:27.000Z</time>
      </trkpt>
      <trkpt lat="43.06856" lon="-1.20604">
        <ele>416.772986</ele>
        <time>2026-05-22T10:36:28.000Z</time>
      </trkpt>
      <trkpt lat="43.06857" lon="-1.20605">
        <ele>416.906975</ele>
        <time>2026-05-22T10:36:29.000Z</time>
      </trkpt>
      <trkpt lat="43.06858" lon="-1.20607">
        <ele>417.030297</ele>
        <time>2026-05-22T10:36:30.000Z</time>
      </trkpt>
      <trkpt lat="43.06858" lon="-1.20609">
        <ele>417.153619</ele>
        <time>2026-05-22T10:36:31.000Z</time>
      </trkpt>
      <trkpt lat="43.06859" lon="-1.20611">
        <ele>417.276941</ele>
        <time>2026-05-22T10:36:32.000Z</time>
      </trkpt>
      <trkpt lat="43.0686" lon="-1.20612">
        <ele>417.410047</ele>
        <time>2026-05-22T10:36:33.000Z</time>
      </trkpt>
      <trkpt lat="43.06861" lon="-1.20614">
        <ele>417.530667</ele>
        <time>2026-05-22T10:36:34.000Z</time>
      </trkpt>
      <trkpt lat="43.06862" lon="-1.20616">
        <ele>417.650705</ele>
        <time>2026-05-22T10:36:35.000Z</time>
      </trkpt>
      <trkpt lat="43.06862" lon="-1.20618">
        <ele>417.77139</ele>
        <time>2026-05-22T10:36:36.000Z</time>
      </trkpt>
      <trkpt lat="43.06863" lon="-1.2062">
        <ele>417.877368</ele>
        <time>2026-05-22T10:36:37.000Z</time>
      </trkpt>
      <trkpt lat="43.06864" lon="-1.20621">
        <ele>417.989587</ele>
        <time>2026-05-22T10:36:38.000Z</time>
      </trkpt>
      <trkpt lat="43.06864" lon="-1.20623">
        <ele>418.110273</ele>
        <time>2026-05-22T10:36:39.000Z</time>
      </trkpt>
      <trkpt lat="43.06865" lon="-1.20625">
        <ele>418.230311</ele>
        <time>2026-05-22T10:36:40.000Z</time>
      </trkpt>
      <trkpt lat="43.06866" lon="-1.20627">
        <ele>418.350425</ele>
        <time>2026-05-22T10:36:41.000Z</time>
      </trkpt>
      <trkpt lat="43.06867" lon="-1.20628">
        <ele>418.461554</ele>
        <time>2026-05-22T10:36:42.000Z</time>
      </trkpt>
      <trkpt lat="43.06868" lon="-1.2063">
        <ele>418.562406</ele>
        <time>2026-05-22T10:36:43.000Z</time>
      </trkpt>
      <trkpt lat="43.06868" lon="-1.20632">
        <ele>418.674625</ele>
        <time>2026-05-22T10:36:44.000Z</time>
      </trkpt>
      <trkpt lat="43.06869" lon="-1.20633">
        <ele>418.7736</ele>
        <time>2026-05-22T10:36:45.000Z</time>
      </trkpt>
      <trkpt lat="43.06869" lon="-1.20635">
        <ele>418.866665</ele>
        <time>2026-05-22T10:36:46.000Z</time>
      </trkpt>
      <trkpt lat="43.0687" lon="-1.20637">
        <ele>418.974058</ele>
        <time>2026-05-22T10:36:47.000Z</time>
      </trkpt>
      <trkpt lat="43.06871" lon="-1.20639">
        <ele>419.085196</ele>
        <time>2026-05-22T10:36:48.000Z</time>
      </trkpt>
      <trkpt lat="43.06871" lon="-1.20641">
        <ele>419.209288</ele>
        <time>2026-05-22T10:36:49.000Z</time>
      </trkpt>
      <trkpt lat="43.06872" lon="-1.20643">
        <ele>419.328272</ele>
        <time>2026-05-22T10:36:50.000Z</time>
      </trkpt>
      <trkpt lat="43.06873" lon="-1.20644">
        <ele>419.435664</ele>
        <time>2026-05-22T10:36:51.000Z</time>
      </trkpt>
      <trkpt lat="43.06873" lon="-1.20646">
        <ele>419.561148</ele>
        <time>2026-05-22T10:36:52.000Z</time>
      </trkpt>
      <trkpt lat="43.06874" lon="-1.20649">
        <ele>419.69038</ele>
        <time>2026-05-22T10:36:53.000Z</time>
      </trkpt>
      <trkpt lat="43.06874" lon="-1.20651">
        <ele>419.822672</ele>
        <time>2026-05-22T10:36:54.000Z</time>
      </trkpt>
      <trkpt lat="43.06874" lon="-1.20653">
        <ele>419.944677</ele>
        <time>2026-05-22T10:36:55.000Z</time>
      </trkpt>
      <trkpt lat="43.06874" lon="-1.20656">
        <ele>420.073253</ele>
        <time>2026-05-22T10:36:56.000Z</time>
      </trkpt>
      <trkpt lat="43.06874" lon="-1.20658">
        <ele>420.189066</ele>
        <time>2026-05-22T10:36:57.000Z</time>
      </trkpt>
      <trkpt lat="43.06875" lon="-1.2066">
        <ele>420.317642</ele>
        <time>2026-05-22T10:36:58.000Z</time>
      </trkpt>
      <trkpt lat="43.06875" lon="-1.20662">
        <ele>420.445109</ele>
        <time>2026-05-22T10:36:59.000Z</time>
      </trkpt>
      <trkpt lat="43.06875" lon="-1.20664">
        <ele>420.5562</ele>
        <time>2026-05-22T10:37:00.000Z</time>
      </trkpt>
      <trkpt lat="43.06875" lon="-1.20667">
        <ele>420.688492</ele>
        <time>2026-05-22T10:37:01.000Z</time>
      </trkpt>
      <trkpt lat="43.06875" lon="-1.20669">
        <ele>420.810497</ele>
        <time>2026-05-22T10:37:02.000Z</time>
      </trkpt>
      <trkpt lat="43.06876" lon="-1.20671">
        <ele>420.943431</ele>
        <time>2026-05-22T10:37:03.000Z</time>
      </trkpt>
      <trkpt lat="43.06876" lon="-1.20674">
        <ele>421.087305</ele>
        <time>2026-05-22T10:37:04.000Z</time>
      </trkpt>
      <trkpt lat="43.06876" lon="-1.20677">
        <ele>421.237601</ele>
        <time>2026-05-22T10:37:05.000Z</time>
      </trkpt>
      <trkpt lat="43.06876" lon="-1.20679">
        <ele>421.381476</ele>
        <time>2026-05-22T10:37:06.000Z</time>
      </trkpt>
      <trkpt lat="43.06877" lon="-1.20682">
        <ele>421.531771</ele>
        <time>2026-05-22T10:37:07.000Z</time>
      </trkpt>
      <trkpt lat="43.06877" lon="-1.20685">
        <ele>421.690398</ele>
        <time>2026-05-22T10:37:08.000Z</time>
      </trkpt>
      <trkpt lat="43.06878" lon="-1.20687">
        <ele>421.83662</ele>
        <time>2026-05-22T10:37:09.000Z</time>
      </trkpt>
      <trkpt lat="43.06878" lon="-1.2069">
        <ele>422.004444</ele>
        <time>2026-05-22T10:37:10.000Z</time>
      </trkpt>
      <trkpt lat="43.06878" lon="-1.20693">
        <ele>422.163071</ele>
        <time>2026-05-22T10:37:11.000Z</time>
      </trkpt>
      <trkpt lat="43.06879" lon="-1.20696">
        <ele>422.316358</ele>
        <time>2026-05-22T10:37:12.000Z</time>
      </trkpt>
      <trkpt lat="43.0688" lon="-1.20698">
        <ele>422.45076</ele>
        <time>2026-05-22T10:37:13.000Z</time>
      </trkpt>
      <trkpt lat="43.0688" lon="-1.20701">
        <ele>422.595574</ele>
        <time>2026-05-22T10:37:14.000Z</time>
      </trkpt>
      <trkpt lat="43.06881" lon="-1.20703">
        <ele>422.745627</ele>
        <time>2026-05-22T10:37:15.000Z</time>
      </trkpt>
      <trkpt lat="43.06881" lon="-1.20705">
        <ele>422.877683</ele>
        <time>2026-05-22T10:37:16.000Z</time>
      </trkpt>
      <trkpt lat="43.06882" lon="-1.20708">
        <ele>423.012085</ele>
        <time>2026-05-22T10:37:17.000Z</time>
      </trkpt>
      <trkpt lat="43.06883" lon="-1.2071">
        <ele>423.149428</ele>
        <time>2026-05-22T10:37:18.000Z</time>
      </trkpt>
      <trkpt lat="43.06883" lon="-1.20712">
        <ele>423.278661</ele>
        <time>2026-05-22T10:37:19.000Z</time>
      </trkpt>
      <trkpt lat="43.06884" lon="-1.20715">
        <ele>423.423475</ele>
        <time>2026-05-22T10:37:20.000Z</time>
      </trkpt>
      <trkpt lat="43.06884" lon="-1.20717">
        <ele>423.571433</ele>
        <time>2026-05-22T10:37:21.000Z</time>
      </trkpt>
      <trkpt lat="43.06885" lon="-1.2072">
        <ele>423.708552</ele>
        <time>2026-05-22T10:37:22.000Z</time>
      </trkpt>
      <trkpt lat="43.06886" lon="-1.20722">
        <ele>423.85214</ele>
        <time>2026-05-22T10:37:23.000Z</time>
      </trkpt>
      <trkpt lat="43.06887" lon="-1.20724">
        <ele>423.990902</ele>
        <time>2026-05-22T10:37:24.000Z</time>
      </trkpt>
      <trkpt lat="43.06887" lon="-1.20727">
        <ele>424.133116</ele>
        <time>2026-05-22T10:37:25.000Z</time>
      </trkpt>
      <trkpt lat="43.06888" lon="-1.20729">
        <ele>424.266492</ele>
        <time>2026-05-22T10:37:26.000Z</time>
      </trkpt>
      <trkpt lat="43.06889" lon="-1.20731">
        <ele>424.404443</ele>
        <time>2026-05-22T10:37:27.000Z</time>
      </trkpt>
      <trkpt lat="43.0689" lon="-1.20733">
        <ele>424.548031</ele>
        <time>2026-05-22T10:37:28.000Z</time>
      </trkpt>
      <trkpt lat="43.06892" lon="-1.20735">
        <ele>424.712454</ele>
        <time>2026-05-22T10:37:29.000Z</time>
      </trkpt>
      <trkpt lat="43.06893" lon="-1.20737">
        <ele>424.850405</ele>
        <time>2026-05-22T10:37:30.000Z</time>
      </trkpt>
      <trkpt lat="43.06894" lon="-1.2074">
        <ele>425.001691</ele>
        <time>2026-05-22T10:37:31.000Z</time>
      </trkpt>
      <trkpt lat="43.06895" lon="-1.20742">
        <ele>425.132028</ele>
        <time>2026-05-22T10:37:32.000Z</time>
      </trkpt>
      <trkpt lat="43.06895" lon="-1.20744">
        <ele>425.275616</ele>
        <time>2026-05-22T10:37:33.000Z</time>
      </trkpt>
      <trkpt lat="43.06897" lon="-1.20747">
        <ele>425.435666</ele>
        <time>2026-05-22T10:37:34.000Z</time>
      </trkpt>
      <trkpt lat="43.06898" lon="-1.20749">
        <ele>425.595716</ele>
        <time>2026-05-22T10:37:35.000Z</time>
      </trkpt>
      <trkpt lat="43.06899" lon="-1.20751">
        <ele>425.755766</ele>
        <time>2026-05-22T10:37:36.000Z</time>
      </trkpt>
      <trkpt lat="43.069" lon="-1.20753">
        <ele>425.899026</ele>
        <time>2026-05-22T10:37:37.000Z</time>
      </trkpt>
      <trkpt lat="43.06902" lon="-1.20755">
        <ele>426.055482</ele>
        <time>2026-05-22T10:37:38.000Z</time>
      </trkpt>
      <trkpt lat="43.06903" lon="-1.20758">
        <ele>426.225612</ele>
        <time>2026-05-22T10:37:39.000Z</time>
      </trkpt>
      <trkpt lat="43.06904" lon="-1.2076">
        <ele>426.385648</ele>
        <time>2026-05-22T10:37:40.000Z</time>
      </trkpt>
      <trkpt lat="43.06905" lon="-1.20763">
        <ele>426.53236</ele>
        <time>2026-05-22T10:37:41.000Z</time>
      </trkpt>
      <trkpt lat="43.06907" lon="-1.20765">
        <ele>426.688816</ele>
        <time>2026-05-22T10:37:42.000Z</time>
      </trkpt>
      <trkpt lat="43.06908" lon="-1.20767">
        <ele>426.854162</ele>
        <time>2026-05-22T10:37:43.000Z</time>
      </trkpt>
      <trkpt lat="43.06909" lon="-1.2077">
        <ele>427.017485</ele>
        <time>2026-05-22T10:37:44.000Z</time>
      </trkpt>
      <trkpt lat="43.0691" lon="-1.20773">
        <ele>427.187615</ele>
        <time>2026-05-22T10:37:45.000Z</time>
      </trkpt>
      <trkpt lat="43.06911" lon="-1.20775">
        <ele>427.357746</ele>
        <time>2026-05-22T10:37:46.000Z</time>
      </trkpt>
      <trkpt lat="43.06912" lon="-1.20778">
        <ele>427.500339</ele>
        <time>2026-05-22T10:37:47.000Z</time>
      </trkpt>
      <trkpt lat="43.06913" lon="-1.2078">
        <ele>427.637457</ele>
        <time>2026-05-22T10:37:48.000Z</time>
      </trkpt>
      <trkpt lat="43.06913" lon="-1.20782">
        <ele>427.769513</ele>
        <time>2026-05-22T10:37:49.000Z</time>
      </trkpt>
      <trkpt lat="43.06914" lon="-1.20784">
        <ele>427.899849</ele>
        <time>2026-05-22T10:37:50.000Z</time>
      </trkpt>
      <trkpt lat="43.06914" lon="-1.20786">
        <ele>428.021853</ele>
        <time>2026-05-22T10:37:51.000Z</time>
      </trkpt>
      <trkpt lat="43.06915" lon="-1.20788">
        <ele>428.135967</ele>
        <time>2026-05-22T10:37:52.000Z</time>
      </trkpt>
      <trkpt lat="43.06916" lon="-1.20791">
        <ele>428.27856</ele>
        <time>2026-05-22T10:37:53.000Z</time>
      </trkpt>
      <trkpt lat="43.06916" lon="-1.20793">
        <ele>428.40011</ele>
        <time>2026-05-22T10:37:54.000Z</time>
      </trkpt>
      <trkpt lat="43.06916" lon="-1.20795">
        <ele>428.51247</ele>
        <time>2026-05-22T10:37:55.000Z</time>
      </trkpt>
      <trkpt lat="43.06917" lon="-1.20797">
        <ele>428.637953</ele>
        <time>2026-05-22T10:37:56.000Z</time>
      </trkpt>
      <trkpt lat="43.06918" lon="-1.20799">
        <ele>428.755708</ele>
        <time>2026-05-22T10:37:57.000Z</time>
      </trkpt>
      <trkpt lat="43.06918" lon="-1.20801">
        <ele>428.877012</ele>
        <time>2026-05-22T10:37:58.000Z</time>
      </trkpt>
      <trkpt lat="43.06918" lon="-1.20803">
        <ele>429.004479</ele>
        <time>2026-05-22T10:37:59.000Z</time>
      </trkpt>
      <trkpt lat="43.06918" lon="-1.20805">
        <ele>429.131273</ele>
        <time>2026-05-22T10:38:00.000Z</time>
      </trkpt>
      <trkpt lat="43.06919" lon="-1.20807">
        <ele>429.242363</ele>
        <time>2026-05-22T10:38:01.000Z</time>
      </trkpt>
      <trkpt lat="43.06919" lon="-1.20809">
        <ele>429.346923</ele>
        <time>2026-05-22T10:38:02.000Z</time>
      </trkpt>
      <trkpt lat="43.06919" lon="-1.20811">
        <ele>429.446267</ele>
        <time>2026-05-22T10:38:03.000Z</time>
      </trkpt>
      <trkpt lat="43.06919" lon="-1.20813">
        <ele>429.537002</ele>
        <time>2026-05-22T10:38:04.000Z</time>
      </trkpt>
      <trkpt lat="43.0692" lon="-1.20815">
        <ele>429.655985</ele>
        <time>2026-05-22T10:38:05.000Z</time>
      </trkpt>
      <trkpt lat="43.0692" lon="-1.20817">
        <ele>429.7648</ele>
        <time>2026-05-22T10:38:06.000Z</time>
      </trkpt>
      <trkpt lat="43.0692" lon="-1.20819">
        <ele>429.87589</ele>
        <time>2026-05-22T10:38:07.000Z</time>
      </trkpt>
      <trkpt lat="43.0692" lon="-1.2082">
        <ele>429.975234</ele>
        <time>2026-05-22T10:38:08.000Z</time>
      </trkpt>
      <trkpt lat="43.06921" lon="-1.20822">
        <ele>430.086371</ele>
        <time>2026-05-22T10:38:09.000Z</time>
      </trkpt>
      <trkpt lat="43.06922" lon="-1.20824">
        <ele>430.20232</ele>
        <time>2026-05-22T10:38:10.000Z</time>
      </trkpt>
      <trkpt lat="43.06922" lon="-1.20826">
        <ele>430.306221</ele>
        <time>2026-05-22T10:38:11.000Z</time>
      </trkpt>
      <trkpt lat="43.06923" lon="-1.20827">
        <ele>430.407072</ele>
        <time>2026-05-22T10:38:12.000Z</time>
      </trkpt>
      <trkpt lat="43.06923" lon="-1.20829">
        <ele>430.495445</ele>
        <time>2026-05-22T10:38:13.000Z</time>
      </trkpt>
      <trkpt lat="43.06923" lon="-1.20831">
        <ele>430.59169</ele>
        <time>2026-05-22T10:38:14.000Z</time>
      </trkpt>
      <trkpt lat="43.06924" lon="-1.20832">
        <ele>430.679565</ele>
        <time>2026-05-22T10:38:15.000Z</time>
      </trkpt>
      <trkpt lat="43.06924" lon="-1.20834">
        <ele>430.759856</ele>
        <time>2026-05-22T10:38:16.000Z</time>
      </trkpt>
      <trkpt lat="43.06925" lon="-1.20836">
        <ele>430.883947</ele>
        <time>2026-05-22T10:38:17.000Z</time>
      </trkpt>
      <trkpt lat="43.06925" lon="-1.20838">
        <ele>430.992829</ele>
        <time>2026-05-22T10:38:18.000Z</time>
      </trkpt>
      <trkpt lat="43.06926" lon="-1.20839">
        <ele>431.089034</ele>
        <time>2026-05-22T10:38:19.000Z</time>
      </trkpt>
      <trkpt lat="43.06926" lon="-1.20841">
        <ele>431.177079</ele>
        <time>2026-05-22T10:38:20.000Z</time>
      </trkpt>
      <trkpt lat="43.06926" lon="-1.20842">
        <ele>431.272462</ele>
        <time>2026-05-22T10:38:21.000Z</time>
      </trkpt>
      <trkpt lat="43.06926" lon="-1.20844">
        <ele>431.373448</ele>
        <time>2026-05-22T10:38:22.000Z</time>
      </trkpt>
      <trkpt lat="43.06927" lon="-1.20846">
        <ele>431.474433</ele>
        <time>2026-05-22T10:38:23.000Z</time>
      </trkpt>
      <trkpt lat="43.06927" lon="-1.20847">
        <ele>431.572914</ele>
        <time>2026-05-22T10:38:24.000Z</time>
      </trkpt>
      <trkpt lat="43.06927" lon="-1.20849">
        <ele>431.685158</ele>
        <time>2026-05-22T10:38:25.000Z</time>
      </trkpt>
      <trkpt lat="43.06928" lon="-1.20851">
        <ele>431.793797</ele>
        <time>2026-05-22T10:38:26.000Z</time>
      </trkpt>
      <trkpt lat="43.06928" lon="-1.20853">
        <ele>431.899616</ele>
        <time>2026-05-22T10:38:27.000Z</time>
      </trkpt>
      <trkpt lat="43.06929" lon="-1.20854">
        <ele>432.012298</ele>
        <time>2026-05-22T10:38:28.000Z</time>
      </trkpt>
      <trkpt lat="43.06929" lon="-1.20856">
        <ele>432.119987</ele>
        <time>2026-05-22T10:38:29.000Z</time>
      </trkpt>
      <trkpt lat="43.0693" lon="-1.20858">
        <ele>432.223837</ele>
        <time>2026-05-22T10:38:30.000Z</time>
      </trkpt>
      <trkpt lat="43.06931" lon="-1.20859">
        <ele>432.335034</ele>
        <time>2026-05-22T10:38:31.000Z</time>
      </trkpt>
      <trkpt lat="43.06931" lon="-1.20861">
        <ele>432.457907</ele>
        <time>2026-05-22T10:38:32.000Z</time>
      </trkpt>
      <trkpt lat="43.06932" lon="-1.20863">
        <ele>432.588111</ele>
        <time>2026-05-22T10:38:33.000Z</time>
      </trkpt>
      <trkpt lat="43.06932" lon="-1.20865">
        <ele>432.697129</ele>
        <time>2026-05-22T10:38:34.000Z</time>
      </trkpt>
      <trkpt lat="43.06933" lon="-1.20867">
        <ele>432.813691</ele>
        <time>2026-05-22T10:38:35.000Z</time>
      </trkpt>
      <trkpt lat="43.06933" lon="-1.20869">
        <ele>432.931585</ele>
        <time>2026-05-22T10:38:36.000Z</time>
      </trkpt>
      <trkpt lat="43.06933" lon="-1.20871">
        <ele>433.059123</ele>
        <time>2026-05-22T10:38:37.000Z</time>
      </trkpt>
      <trkpt lat="43.06934" lon="-1.20873">
        <ele>433.189326</ele>
        <time>2026-05-22T10:38:38.000Z</time>
      </trkpt>
      <trkpt lat="43.06935" lon="-1.20875">
        <ele>433.31417</ele>
        <time>2026-05-22T10:38:39.000Z</time>
      </trkpt>
      <trkpt lat="43.06935" lon="-1.20878">
        <ele>433.447915</ele>
        <time>2026-05-22T10:38:40.000Z</time>
      </trkpt>
      <trkpt lat="43.06935" lon="-1.2088">
        <ele>433.569432</ele>
        <time>2026-05-22T10:38:41.000Z</time>
      </trkpt>
      <trkpt lat="43.06935" lon="-1.20882">
        <ele>433.692988</ele>
        <time>2026-05-22T10:38:42.000Z</time>
      </trkpt>
      <trkpt lat="43.06935" lon="-1.20884">
        <ele>433.814247</ele>
        <time>2026-05-22T10:38:43.000Z</time>
      </trkpt>
      <trkpt lat="43.06935" lon="-1.20886">
        <ele>433.935764</ele>
        <time>2026-05-22T10:38:44.000Z</time>
      </trkpt>
      <trkpt lat="43.06935" lon="-1.20888">
        <ele>434.048008</ele>
        <time>2026-05-22T10:38:45.000Z</time>
      </trkpt>
      <trkpt lat="43.06936" lon="-1.2089">
        <ele>434.159205</ele>
        <time>2026-05-22T10:38:46.000Z</time>
      </trkpt>
      <trkpt lat="43.06937" lon="-1.20892">
        <ele>434.295961</ele>
        <time>2026-05-22T10:38:47.000Z</time>
      </trkpt>
      <trkpt lat="43.06937" lon="-1.20894">
        <ele>434.429</ele>
        <time>2026-05-22T10:38:48.000Z</time>
      </trkpt>
      <trkpt lat="43.06937" lon="-1.20896">
        <ele>434.539844</ele>
        <time>2026-05-22T10:38:49.000Z</time>
      </trkpt>
      <trkpt lat="43.06938" lon="-1.20898">
        <ele>434.64083</ele>
        <time>2026-05-22T10:38:50.000Z</time>
      </trkpt>
      <trkpt lat="43.06937" lon="-1.209">
        <ele>434.760564</ele>
        <time>2026-05-22T10:38:51.000Z</time>
      </trkpt>
      <trkpt lat="43.06937" lon="-1.20902">
        <ele>434.872809</ele>
        <time>2026-05-22T10:38:52.000Z</time>
      </trkpt>
      <trkpt lat="43.06937" lon="-1.20904">
        <ele>434.990703</ele>
        <time>2026-05-22T10:38:53.000Z</time>
      </trkpt>
      <trkpt lat="43.06937" lon="-1.20905">
        <ele>435.09013</ele>
        <time>2026-05-22T10:38:54.000Z</time>
      </trkpt>
      <trkpt lat="43.06936" lon="-1.20907">
        <ele>435.205885</ele>
        <time>2026-05-22T10:38:55.000Z</time>
      </trkpt>
      <trkpt lat="43.06937" lon="-1.20909">
        <ele>435.333164</ele>
        <time>2026-05-22T10:38:56.000Z</time>
      </trkpt>
      <trkpt lat="43.06937" lon="-1.20911">
        <ele>435.442875</ele>
        <time>2026-05-22T10:38:57.000Z</time>
      </trkpt>
      <trkpt lat="43.06936" lon="-1.20913">
        <ele>435.560769</ele>
        <time>2026-05-22T10:38:58.000Z</time>
      </trkpt>
      <trkpt lat="43.06936" lon="-1.20915">
        <ele>435.673013</ele>
        <time>2026-05-22T10:38:59.000Z</time>
      </trkpt>
      <trkpt lat="43.06936" lon="-1.20917">
        <ele>435.771176</ele>
        <time>2026-05-22T10:39:00.000Z</time>
      </trkpt>
      <trkpt lat="43.06936" lon="-1.20919">
        <ele>435.875412</ele>
        <time>2026-05-22T10:39:01.000Z</time>
      </trkpt>
      <trkpt lat="43.06936" lon="-1.20921">
        <ele>435.979349</ele>
        <time>2026-05-22T10:39:02.000Z</time>
      </trkpt>
      <trkpt lat="43.06936" lon="-1.20922">
        <ele>436.089344</ele>
        <time>2026-05-22T10:39:03.000Z</time>
      </trkpt>
      <trkpt lat="43.06936" lon="-1.20924">
        <ele>436.187824</ele>
        <time>2026-05-22T10:39:04.000Z</time>
      </trkpt>
      <trkpt lat="43.06936" lon="-1.20926">
        <ele>436.297535</ele>
        <time>2026-05-22T10:39:05.000Z</time>
      </trkpt>
      <trkpt lat="43.06936" lon="-1.20928">
        <ele>436.396962</ele>
        <time>2026-05-22T10:39:06.000Z</time>
      </trkpt>
      <trkpt lat="43.06936" lon="-1.2093">
        <ele>436.509206</ele>
        <time>2026-05-22T10:39:07.000Z</time>
      </trkpt>
      <trkpt lat="43.06936" lon="-1.20931">
        <ele>436.614338</ele>
        <time>2026-05-22T10:39:08.000Z</time>
      </trkpt>
      <trkpt lat="43.06936" lon="-1.20933">
        <ele>436.725181</ele>
        <time>2026-05-22T10:39:09.000Z</time>
      </trkpt>
      <trkpt lat="43.06936" lon="-1.20935">
        <ele>436.840937</ele>
        <time>2026-05-22T10:39:10.000Z</time>
      </trkpt>
      <trkpt lat="43.06936" lon="-1.20937">
        <ele>436.950932</ele>
        <time>2026-05-22T10:39:11.000Z</time>
      </trkpt>
      <trkpt lat="43.06936" lon="-1.20939">
        <ele>437.066687</ele>
        <time>2026-05-22T10:39:12.000Z</time>
      </trkpt>
      <trkpt lat="43.06936" lon="-1.20941">
        <ele>437.183249</ele>
        <time>2026-05-22T10:39:13.000Z</time>
      </trkpt>
      <trkpt lat="43.06936" lon="-1.20943">
        <ele>437.299811</ele>
        <time>2026-05-22T10:39:14.000Z</time>
      </trkpt>
      <trkpt lat="43.06937" lon="-1.20946">
        <ele>437.446102</ele>
        <time>2026-05-22T10:39:15.000Z</time>
      </trkpt>
      <trkpt lat="43.06937" lon="-1.20948">
        <ele>437.573381</ele>
        <time>2026-05-22T10:39:16.000Z</time>
      </trkpt>
      <trkpt lat="43.06937" lon="-1.2095">
        <ele>437.708289</ele>
        <time>2026-05-22T10:39:17.000Z</time>
      </trkpt>
      <trkpt lat="43.06938" lon="-1.20953">
        <ele>437.860616</ele>
        <time>2026-05-22T10:39:18.000Z</time>
      </trkpt>
      <trkpt lat="43.06938" lon="-1.20955">
        <ele>437.996213</ele>
        <time>2026-05-22T10:39:19.000Z</time>
      </trkpt>
      <trkpt lat="43.06939" lon="-1.20957">
        <ele>438.142685</ele>
        <time>2026-05-22T10:39:20.000Z</time>
      </trkpt>
      <trkpt lat="43.0694" lon="-1.2096">
        <ele>438.294632</ele>
        <time>2026-05-22T10:39:21.000Z</time>
      </trkpt>
      <trkpt lat="43.0694" lon="-1.20962">
        <ele>438.43874</ele>
        <time>2026-05-22T10:39:22.000Z</time>
      </trkpt>
      <trkpt lat="43.06941" lon="-1.20965">
        <ele>438.601643</ele>
        <time>2026-05-22T10:39:23.000Z</time>
      </trkpt>
      <trkpt lat="43.06942" lon="-1.20967">
        <ele>438.762576</ele>
        <time>2026-05-22T10:39:24.000Z</time>
      </trkpt>
      <trkpt lat="43.06943" lon="-1.2097">
        <ele>438.913236</ele>
        <time>2026-05-22T10:39:25.000Z</time>
      </trkpt>
      <trkpt lat="43.06944" lon="-1.20972">
        <ele>439.062445</ele>
        <time>2026-05-22T10:39:26.000Z</time>
      </trkpt>
      <trkpt lat="43.06945" lon="-1.20974">
        <ele>439.207001</ele>
        <time>2026-05-22T10:39:27.000Z</time>
      </trkpt>
      <trkpt lat="43.06946" lon="-1.20976">
        <ele>439.351748</ele>
        <time>2026-05-22T10:39:28.000Z</time>
      </trkpt>
      <trkpt lat="43.06947" lon="-1.20978">
        <ele>439.506297</ele>
        <time>2026-05-22T10:39:29.000Z</time>
      </trkpt>
      <trkpt lat="43.06948" lon="-1.2098">
        <ele>439.660846</ele>
        <time>2026-05-22T10:39:30.000Z</time>
      </trkpt>
      <trkpt lat="43.06949" lon="-1.20983">
        <ele>439.824047</ele>
        <time>2026-05-22T10:39:31.000Z</time>
      </trkpt>
      <trkpt lat="43.0695" lon="-1.20985">
        <ele>439.983991</ele>
        <time>2026-05-22T10:39:32.000Z</time>
      </trkpt>
      <trkpt lat="43.06952" lon="-1.20986">
        <ele>440.131914</ele>
        <time>2026-05-22T10:39:33.000Z</time>
      </trkpt>
      <trkpt lat="43.06953" lon="-1.20988">
        <ele>440.279837</ele>
        <time>2026-05-22T10:39:34.000Z</time>
      </trkpt>
      <trkpt lat="43.06955" lon="-1.2099">
        <ele>440.423993</ele>
        <time>2026-05-22T10:39:35.000Z</time>
      </trkpt>
      <trkpt lat="43.06956" lon="-1.20991">
        <ele>440.574302</ele>
        <time>2026-05-22T10:39:36.000Z</time>
      </trkpt>
      <trkpt lat="43.06958" lon="-1.20993">
        <ele>440.734395</ele>
        <time>2026-05-22T10:39:37.000Z</time>
      </trkpt>
      <trkpt lat="43.06959" lon="-1.20995">
        <ele>440.870895</ele>
        <time>2026-05-22T10:39:38.000Z</time>
      </trkpt>
      <trkpt lat="43.0696" lon="-1.20997">
        <ele>441.025476</ele>
        <time>2026-05-22T10:39:39.000Z</time>
      </trkpt>
      <trkpt lat="43.06962" lon="-1.20999">
        <ele>441.184417</ele>
        <time>2026-05-22T10:39:40.000Z</time>
      </trkpt>
      <trkpt lat="43.06963" lon="-1.21001">
        <ele>441.342954</ele>
        <time>2026-05-22T10:39:41.000Z</time>
      </trkpt>
      <trkpt lat="43.06964" lon="-1.21003">
        <ele>441.496893</ele>
        <time>2026-05-22T10:39:42.000Z</time>
      </trkpt>
      <trkpt lat="43.06965" lon="-1.21005">
        <ele>441.633649</ele>
        <time>2026-05-22T10:39:43.000Z</time>
      </trkpt>
      <trkpt lat="43.06966" lon="-1.21007">
        <ele>441.783092</ele>
        <time>2026-05-22T10:39:44.000Z</time>
      </trkpt>
      <trkpt lat="43.06967" lon="-1.21009">
        <ele>441.937673</ele>
        <time>2026-05-22T10:39:45.000Z</time>
      </trkpt>
      <trkpt lat="43.06968" lon="-1.21011">
        <ele>442.063702</ele>
        <time>2026-05-22T10:39:46.000Z</time>
      </trkpt>
      <trkpt lat="43.06969" lon="-1.21013">
        <ele>442.180468</ele>
        <time>2026-05-22T10:39:47.000Z</time>
      </trkpt>
      <trkpt lat="43.0697" lon="-1.21015">
        <ele>442.307097</ele>
        <time>2026-05-22T10:39:48.000Z</time>
      </trkpt>
      <trkpt lat="43.0697" lon="-1.21016">
        <ele>442.40082</ele>
        <time>2026-05-22T10:39:49.000Z</time>
      </trkpt>
      <trkpt lat="43.06971" lon="-1.21018">
        <ele>442.513502</ele>
        <time>2026-05-22T10:39:50.000Z</time>
      </trkpt>
      <trkpt lat="43.06972" lon="-1.21019">
        <ele>442.602293</ele>
        <time>2026-05-22T10:39:51.000Z</time>
      </trkpt>
      <trkpt lat="43.06972" lon="-1.21021">
        <ele>442.716537</ele>
        <time>2026-05-22T10:39:52.000Z</time>
      </trkpt>
      <trkpt lat="43.06973" lon="-1.21023">
        <ele>442.851756</ele>
        <time>2026-05-22T10:39:53.000Z</time>
      </trkpt>
      <trkpt lat="43.06974" lon="-1.21025">
        <ele>442.97981</ele>
        <time>2026-05-22T10:39:54.000Z</time>
      </trkpt>
      <trkpt lat="43.06974" lon="-1.21027">
        <ele>443.103366</ele>
        <time>2026-05-22T10:39:55.000Z</time>
      </trkpt>
      <trkpt lat="43.06975" lon="-1.21029">
        <ele>443.226238</ele>
        <time>2026-05-22T10:39:56.000Z</time>
      </trkpt>
      <trkpt lat="43.06975" lon="-1.21031">
        <ele>443.357146</ele>
        <time>2026-05-22T10:39:57.000Z</time>
      </trkpt>
      <trkpt lat="43.06976" lon="-1.21033">
        <ele>443.496626</ele>
        <time>2026-05-22T10:39:58.000Z</time>
      </trkpt>
      <trkpt lat="43.06976" lon="-1.21036">
        <ele>443.645844</ele>
        <time>2026-05-22T10:39:59.000Z</time>
      </trkpt>
      <trkpt lat="43.06977" lon="-1.21038">
        <ele>443.777507</ele>
        <time>2026-05-22T10:40:00.000Z</time>
      </trkpt>
      <trkpt lat="43.06978" lon="-1.21039">
        <ele>443.891752</ele>
        <time>2026-05-22T10:40:01.000Z</time>
      </trkpt>
      <trkpt lat="43.06978" lon="-1.21041">
        <ele>444.000769</ele>
        <time>2026-05-22T10:40:02.000Z</time>
      </trkpt>
      <trkpt lat="43.06979" lon="-1.21043">
        <ele>444.09873</ele>
        <time>2026-05-22T10:40:03.000Z</time>
      </trkpt>
      <trkpt lat="43.06979" lon="-1.21044">
        <ele>444.201858</ele>
        <time>2026-05-22T10:40:04.000Z</time>
      </trkpt>
      <trkpt lat="43.0698" lon="-1.21046">
        <ele>444.310875</ele>
        <time>2026-05-22T10:40:05.000Z</time>
      </trkpt>
      <trkpt lat="43.06981" lon="-1.21048">
        <ele>444.437504</ele>
        <time>2026-05-22T10:40:06.000Z</time>
      </trkpt>
      <trkpt lat="43.06981" lon="-1.2105">
        <ele>444.543323</ele>
        <time>2026-05-22T10:40:07.000Z</time>
      </trkpt>
      <trkpt lat="43.06981" lon="-1.21052">
        <ele>444.664838</ele>
        <time>2026-05-22T10:40:08.000Z</time>
      </trkpt>
      <trkpt lat="43.06981" lon="-1.21054">
        <ele>444.788394</ele>
        <time>2026-05-22T10:40:09.000Z</time>
      </trkpt>
      <trkpt lat="43.06981" lon="-1.21056">
        <ele>444.899237</ele>
        <time>2026-05-22T10:40:10.000Z</time>
      </trkpt>
      <trkpt lat="43.06982" lon="-1.21057">
        <ele>445.020465</ele>
        <time>2026-05-22T10:40:11.000Z</time>
      </trkpt>
      <trkpt lat="43.06983" lon="-1.21059">
        <ele>445.152128</ele>
        <time>2026-05-22T10:40:12.000Z</time>
      </trkpt>
      <trkpt lat="43.06984" lon="-1.21061">
        <ele>445.275</ele>
        <time>2026-05-22T10:40:13.000Z</time>
      </trkpt>
      <trkpt lat="43.06985" lon="-1.21063">
        <ele>445.394318</ele>
        <time>2026-05-22T10:40:14.000Z</time>
      </trkpt>
      <trkpt lat="43.06986" lon="-1.21065">
        <ele>445.524109</ele>
        <time>2026-05-22T10:40:15.000Z</time>
      </trkpt>
      <trkpt lat="43.06987" lon="-1.21067">
        <ele>445.645732</ele>
        <time>2026-05-22T10:40:16.000Z</time>
      </trkpt>
      <trkpt lat="43.06987" lon="-1.21069">
        <ele>445.74612</ele>
        <time>2026-05-22T10:40:17.000Z</time>
      </trkpt>
      <trkpt lat="43.06988" lon="-1.21071">
        <ele>445.8517</ele>
        <time>2026-05-22T10:40:18.000Z</time>
      </trkpt>
      <trkpt lat="43.06989" lon="-1.21072">
        <ele>445.948263</ele>
        <time>2026-05-22T10:40:19.000Z</time>
      </trkpt>
      <trkpt lat="43.0699" lon="-1.21074">
        <ele>446.061199</ele>
        <time>2026-05-22T10:40:20.000Z</time>
      </trkpt>
      <trkpt lat="43.0699" lon="-1.21076">
        <ele>446.16678</ele>
        <time>2026-05-22T10:40:21.000Z</time>
      </trkpt>
      <trkpt lat="43.0699" lon="-1.21079">
        <ele>446.312445</ele>
        <time>2026-05-22T10:40:22.000Z</time>
      </trkpt>
      <trkpt lat="43.06991" lon="-1.2108">
        <ele>446.421535</ele>
        <time>2026-05-22T10:40:23.000Z</time>
      </trkpt>
      <trkpt lat="43.06992" lon="-1.21082">
        <ele>446.530559</ele>
        <time>2026-05-22T10:40:24.000Z</time>
      </trkpt>
      <trkpt lat="43.06993" lon="-1.21083">
        <ele>446.622588</ele>
        <time>2026-05-22T10:40:25.000Z</time>
      </trkpt>
      <trkpt lat="43.06994" lon="-1.21085">
        <ele>446.719145</ele>
        <time>2026-05-22T10:40:26.000Z</time>
      </trkpt>
      <trkpt lat="43.06995" lon="-1.21086">
        <ele>446.842028</ele>
        <time>2026-05-22T10:40:27.000Z</time>
      </trkpt>
      <trkpt lat="43.06997" lon="-1.21088">
        <ele>446.983408</ele>
        <time>2026-05-22T10:40:28.000Z</time>
      </trkpt>
      <trkpt lat="43.06998" lon="-1.21089">
        <ele>447.103912</ele>
        <time>2026-05-22T10:40:29.000Z</time>
      </trkpt>
      <trkpt lat="43.06999" lon="-1.21091">
        <ele>447.216921</ele>
        <time>2026-05-22T10:40:30.000Z</time>
      </trkpt>
      <trkpt lat="43.07" lon="-1.21092">
        <ele>447.322249</ele>
        <time>2026-05-22T10:40:31.000Z</time>
      </trkpt>
      <trkpt lat="43.07002" lon="-1.21094">
        <ele>447.453909</ele>
        <time>2026-05-22T10:40:32.000Z</time>
      </trkpt>
      <trkpt lat="43.07003" lon="-1.21096">
        <ele>447.581333</ele>
        <time>2026-05-22T10:40:33.000Z</time>
      </trkpt>
      <trkpt lat="43.07004" lon="-1.21097">
        <ele>447.724886</ele>
        <time>2026-05-22T10:40:34.000Z</time>
      </trkpt>
      <trkpt lat="43.07006" lon="-1.21099">
        <ele>447.87167</ele>
        <time>2026-05-22T10:40:35.000Z</time>
      </trkpt>
      <trkpt lat="43.07007" lon="-1.21101">
        <ele>448.001713</ele>
        <time>2026-05-22T10:40:36.000Z</time>
      </trkpt>
      <trkpt lat="43.07008" lon="-1.21102">
        <ele>448.116889</ele>
        <time>2026-05-22T10:40:37.000Z</time>
      </trkpt>
      <trkpt lat="43.0701" lon="-1.21104">
        <ele>448.243061</ele>
        <time>2026-05-22T10:40:38.000Z</time>
      </trkpt>
      <trkpt lat="43.07011" lon="-1.21106">
        <ele>448.355997</ele>
        <time>2026-05-22T10:40:39.000Z</time>
      </trkpt>
      <trkpt lat="43.07011" lon="-1.21108">
        <ele>448.460515</ele>
        <time>2026-05-22T10:40:40.000Z</time>
      </trkpt>
      <trkpt lat="43.07011" lon="-1.2111">
        <ele>448.582102</ele>
        <time>2026-05-22T10:40:41.000Z</time>
      </trkpt>
      <trkpt lat="43.07012" lon="-1.21112">
        <ele>448.699485</ele>
        <time>2026-05-22T10:40:42.000Z</time>
      </trkpt>
      <trkpt lat="43.07012" lon="-1.21114">
        <ele>448.778432</ele>
        <time>2026-05-22T10:40:43.000Z</time>
      </trkpt>
      <trkpt lat="43.07012" lon="-1.21116">
        <ele>448.876806</ele>
        <time>2026-05-22T10:40:44.000Z</time>
      </trkpt>
      <trkpt lat="43.07012" lon="-1.21118">
        <ele>448.981369</ele>
        <time>2026-05-22T10:40:45.000Z</time>
      </trkpt>
      <trkpt lat="43.07012" lon="-1.2112">
        <ele>449.081077</ele>
        <time>2026-05-22T10:40:46.000Z</time>
      </trkpt>
      <trkpt lat="43.07011" lon="-1.21121">
        <ele>449.163754</ele>
        <time>2026-05-22T10:40:47.000Z</time>
      </trkpt>
      <trkpt lat="43.07011" lon="-1.21122">
        <ele>449.247794</ele>
        <time>2026-05-22T10:40:48.000Z</time>
      </trkpt>
      <trkpt lat="43.0701" lon="-1.21123">
        <ele>449.321633</ele>
        <time>2026-05-22T10:40:49.000Z</time>
      </trkpt>
      <trkpt lat="43.07009" lon="-1.21123">
        <ele>449.368934</ele>
        <time>2026-05-22T10:40:50.000Z</time>
      </trkpt>
      <trkpt lat="43.07008" lon="-1.21124">
        <ele>449.471293</ele>
        <time>2026-05-22T10:40:51.000Z</time>
      </trkpt>
      <trkpt lat="43.07006" lon="-1.21126">
        <ele>449.585399</ele>
        <time>2026-05-22T10:40:52.000Z</time>
      </trkpt>
      <trkpt lat="43.07005" lon="-1.21127">
        <ele>449.714705</ele>
        <time>2026-05-22T10:40:53.000Z</time>
      </trkpt>
      <trkpt lat="43.07003" lon="-1.21129">
        <ele>449.863116</ele>
        <time>2026-05-22T10:40:54.000Z</time>
      </trkpt>
      <trkpt lat="43.07002" lon="-1.2113">
        <ele>449.994776</ele>
        <time>2026-05-22T10:40:55.000Z</time>
      </trkpt>
      <trkpt lat="43.07" lon="-1.21132">
        <ele>450.126436</ele>
        <time>2026-05-22T10:40:56.000Z</time>
      </trkpt>
      <trkpt lat="43.06999" lon="-1.21134">
        <ele>450.247943</ele>
        <time>2026-05-22T10:40:57.000Z</time>
      </trkpt>
      <trkpt lat="43.06998" lon="-1.21135">
        <ele>450.352498</ele>
        <time>2026-05-22T10:40:58.000Z</time>
      </trkpt>
      <trkpt lat="43.06998" lon="-1.21137">
        <ele>450.462676</ele>
        <time>2026-05-22T10:40:59.000Z</time>
      </trkpt>
      <trkpt lat="43.06997" lon="-1.21139">
        <ele>450.580259</ele>
        <time>2026-05-22T10:41:00.000Z</time>
      </trkpt>
      <trkpt lat="43.06996" lon="-1.2114">
        <ele>450.662936</ele>
        <time>2026-05-22T10:41:01.000Z</time>
      </trkpt>
      <trkpt lat="43.06996" lon="-1.21142">
        <ele>450.751481</ele>
        <time>2026-05-22T10:41:02.000Z</time>
      </trkpt>
      <trkpt lat="43.06995" lon="-1.21143">
        <ele>450.841584</ele>
        <time>2026-05-22T10:41:03.000Z</time>
      </trkpt>
      <trkpt lat="43.06995" lon="-1.21145">
        <ele>450.929889</ele>
        <time>2026-05-22T10:41:04.000Z</time>
      </trkpt>
      <trkpt lat="43.06995" lon="-1.21147">
        <ele>451.025481</ele>
        <time>2026-05-22T10:41:05.000Z</time>
      </trkpt>
      <trkpt lat="43.06994" lon="-1.21149">
        <ele>451.137846</ele>
        <time>2026-05-22T10:41:06.000Z</time>
      </trkpt>
      <trkpt lat="43.06994" lon="-1.21151">
        <ele>451.249791</ele>
        <time>2026-05-22T10:41:07.000Z</time>
      </trkpt>
      <trkpt lat="43.06993" lon="-1.21153">
        <ele>451.357154</ele>
        <time>2026-05-22T10:41:08.000Z</time>
      </trkpt>
      <trkpt lat="43.06992" lon="-1.21155">
        <ele>451.478402</ele>
        <time>2026-05-22T10:41:09.000Z</time>
      </trkpt>
      <trkpt lat="43.06992" lon="-1.21157">
        <ele>451.585765</ele>
        <time>2026-05-22T10:41:10.000Z</time>
      </trkpt>
      <trkpt lat="43.06992" lon="-1.21159">
        <ele>451.676317</ele>
        <time>2026-05-22T10:41:11.000Z</time>
      </trkpt>
      <trkpt lat="43.06991" lon="-1.2116">
        <ele>451.774071</ele>
        <time>2026-05-22T10:41:12.000Z</time>
      </trkpt>
      <trkpt lat="43.06991" lon="-1.21162">
        <ele>451.86834</ele>
        <time>2026-05-22T10:41:13.000Z</time>
      </trkpt>
      <trkpt lat="43.06991" lon="-1.21164">
        <ele>451.961807</ele>
        <time>2026-05-22T10:41:14.000Z</time>
      </trkpt>
      <trkpt lat="43.06991" lon="-1.21166">
        <ele>452.060437</ele>
        <time>2026-05-22T10:41:15.000Z</time>
      </trkpt>
      <trkpt lat="43.0699" lon="-1.21168">
        <ele>452.150988</ele>
        <time>2026-05-22T10:41:16.000Z</time>
      </trkpt>
      <trkpt lat="43.06991" lon="-1.2117">
        <ele>452.258352</ele>
        <time>2026-05-22T10:41:17.000Z</time>
      </trkpt>
      <trkpt lat="43.06991" lon="-1.21172">
        <ele>452.36287</ele>
        <time>2026-05-22T10:41:18.000Z</time>
      </trkpt>
      <trkpt lat="43.06991" lon="-1.21174">
        <ele>452.471831</ele>
        <time>2026-05-22T10:41:19.000Z</time>
      </trkpt>
      <trkpt lat="43.06991" lon="-1.21176">
        <ele>452.571222</ele>
        <time>2026-05-22T10:41:20.000Z</time>
      </trkpt>
      <trkpt lat="43.0699" lon="-1.21178">
        <ele>452.676935</ele>
        <time>2026-05-22T10:41:21.000Z</time>
      </trkpt>
      <trkpt lat="43.0699" lon="-1.21179">
        <ele>452.790481</ele>
        <time>2026-05-22T10:41:22.000Z</time>
      </trkpt>
      <trkpt lat="43.06989" lon="-1.21181">
        <ele>452.887895</ele>
        <time>2026-05-22T10:41:23.000Z</time>
      </trkpt>
      <trkpt lat="43.06989" lon="-1.21183">
        <ele>452.99169</ele>
        <time>2026-05-22T10:41:24.000Z</time>
      </trkpt>
      <trkpt lat="43.06989" lon="-1.21185">
        <ele>453.105818</ele>
        <time>2026-05-22T10:41:25.000Z</time>
      </trkpt>
      <trkpt lat="43.06989" lon="-1.21187">
        <ele>453.204448</ele>
        <time>2026-05-22T10:41:26.000Z</time>
      </trkpt>
      <trkpt lat="43.06989" lon="-1.21189">
        <ele>453.308</ele>
        <time>2026-05-22T10:41:27.000Z</time>
      </trkpt>
      <trkpt lat="43.06989" lon="-1.21191">
        <ele>453.413714</ele>
        <time>2026-05-22T10:41:28.000Z</time>
      </trkpt>
      <trkpt lat="43.06989" lon="-1.21193">
        <ele>453.507983</ele>
        <time>2026-05-22T10:41:29.000Z</time>
      </trkpt>
      <trkpt lat="43.0699" lon="-1.21195">
        <ele>453.610361</ele>
        <time>2026-05-22T10:41:30.000Z</time>
      </trkpt>
      <trkpt lat="43.0699" lon="-1.21197">
        <ele>453.71274</ele>
        <time>2026-05-22T10:41:31.000Z</time>
      </trkpt>
      <trkpt lat="43.0699" lon="-1.21199">
        <ele>453.820103</ele>
        <time>2026-05-22T10:41:32.000Z</time>
      </trkpt>
      <trkpt lat="43.0699" lon="-1.21201">
        <ele>453.913301</ele>
        <time>2026-05-22T10:41:33.000Z</time>
      </trkpt>
      <trkpt lat="43.0699" lon="-1.21202">
        <ele>453.996446</ele>
        <time>2026-05-22T10:41:34.000Z</time>
      </trkpt>
      <trkpt lat="43.06991" lon="-1.21204">
        <ele>454.100964</ele>
        <time>2026-05-22T10:41:35.000Z</time>
      </trkpt>
      <trkpt lat="43.06991" lon="-1.21207">
        <ele>454.218347</ele>
        <time>2026-05-22T10:41:36.000Z</time>
      </trkpt>
      <trkpt lat="43.06991" lon="-1.21209">
        <ele>454.327997</ele>
        <time>2026-05-22T10:41:37.000Z</time>
      </trkpt>
      <trkpt lat="43.06991" lon="-1.21211">
        <ele>454.436727</ele>
        <time>2026-05-22T10:41:38.000Z</time>
      </trkpt>
      <trkpt lat="43.06991" lon="-1.21213">
        <ele>454.536435</ele>
        <time>2026-05-22T10:41:39.000Z</time>
      </trkpt>
      <trkpt lat="43.06991" lon="-1.21215">
        <ele>454.645165</ele>
        <time>2026-05-22T10:41:40.000Z</time>
      </trkpt>
      <trkpt lat="43.06991" lon="-1.21216">
        <ele>454.738632</ele>
        <time>2026-05-22T10:41:41.000Z</time>
      </trkpt>
      <trkpt lat="43.0699" lon="-1.21218">
        <ele>454.832098</ele>
        <time>2026-05-22T10:41:42.000Z</time>
      </trkpt>
      <trkpt lat="43.0699" lon="-1.2122">
        <ele>454.942888</ele>
        <time>2026-05-22T10:41:43.000Z</time>
      </trkpt>
      <trkpt lat="43.0699" lon="-1.21223">
        <ele>455.061974</ele>
        <time>2026-05-22T10:41:44.000Z</time>
      </trkpt>
      <trkpt lat="43.06991" lon="-1.21225">
        <ele>455.184387</ele>
        <time>2026-05-22T10:41:45.000Z</time>
      </trkpt>
      <trkpt lat="43.06991" lon="-1.21227">
        <ele>455.300263</ele>
        <time>2026-05-22T10:41:46.000Z</time>
      </trkpt>
      <trkpt lat="43.06991" lon="-1.21229">
        <ele>455.414391</ele>
        <time>2026-05-22T10:41:47.000Z</time>
      </trkpt>
      <trkpt lat="43.06991" lon="-1.21231">
        <ele>455.518909</ele>
        <time>2026-05-22T10:41:48.000Z</time>
      </trkpt>
      <trkpt lat="43.06991" lon="-1.21234">
        <ele>455.637995</ele>
        <time>2026-05-22T10:41:49.000Z</time>
      </trkpt>
      <trkpt lat="43.06991" lon="-1.21236">
        <ele>455.774282</ele>
        <time>2026-05-22T10:41:50.000Z</time>
      </trkpt>
      <trkpt lat="43.06991" lon="-1.21239">
        <ele>455.894208</ele>
        <time>2026-05-22T10:41:51.000Z</time>
      </trkpt>
      <trkpt lat="43.06991" lon="-1.21241">
        <ele>456.014134</ele>
        <time>2026-05-22T10:41:52.000Z</time>
      </trkpt>
      <trkpt lat="43.06992" lon="-1.21243">
        <ele>456.136548</ele>
        <time>2026-05-22T10:41:53.000Z</time>
      </trkpt>
      <trkpt lat="43.06992" lon="-1.21245">
        <ele>456.245509</ele>
        <time>2026-05-22T10:41:54.000Z</time>
      </trkpt>
      <trkpt lat="43.06992" lon="-1.21248">
        <ele>456.369756</ele>
        <time>2026-05-22T10:41:55.000Z</time>
      </trkpt>
      <trkpt lat="43.06993" lon="-1.2125">
        <ele>456.500931</ele>
        <time>2026-05-22T10:41:56.000Z</time>
      </trkpt>
      <trkpt lat="43.06993" lon="-1.21253">
        <ele>456.635736</ele>
        <time>2026-05-22T10:41:57.000Z</time>
      </trkpt>
      <trkpt lat="43.06993" lon="-1.21255">
        <ele>456.775532</ele>
        <time>2026-05-22T10:41:58.000Z</time>
      </trkpt>
      <trkpt lat="43.06992" lon="-1.21258">
        <ele>456.931506</ele>
        <time>2026-05-22T10:41:59.000Z</time>
      </trkpt>
      <trkpt lat="43.06993" lon="-1.21261">
        <ele>457.092169</ele>
        <time>2026-05-22T10:42:00.000Z</time>
      </trkpt>
      <trkpt lat="43.06993" lon="-1.21264">
        <ele>457.244974</ele>
        <time>2026-05-22T10:42:01.000Z</time>
      </trkpt>
      <trkpt lat="43.06993" lon="-1.21267">
        <ele>457.387615</ele>
        <time>2026-05-22T10:42:02.000Z</time>
      </trkpt>
      <trkpt lat="43.06994" lon="-1.2127">
        <ele>457.548116</ele>
        <time>2026-05-22T10:42:03.000Z</time>
      </trkpt>
      <trkpt lat="43.06995" lon="-1.21273">
        <ele>457.718343</ele>
        <time>2026-05-22T10:42:04.000Z</time>
      </trkpt>
      <trkpt lat="43.06996" lon="-1.21276">
        <ele>457.903288</ele>
        <time>2026-05-22T10:42:05.000Z</time>
      </trkpt>
      <trkpt lat="43.06997" lon="-1.2128">
        <ele>458.08284</ele>
        <time>2026-05-22T10:42:06.000Z</time>
      </trkpt>
      <trkpt lat="43.06997" lon="-1.21283">
        <ele>458.228417</ele>
        <time>2026-05-22T10:42:07.000Z</time>
      </trkpt>
      <trkpt lat="43.06998" lon="-1.21287">
        <ele>458.372795</ele>
        <time>2026-05-22T10:42:08.000Z</time>
      </trkpt>
      <trkpt lat="43.06998" lon="-1.2129">
        <ele>458.507749</ele>
        <time>2026-05-22T10:42:09.000Z</time>
      </trkpt>
      <trkpt lat="43.06998" lon="-1.21293">
        <ele>458.637132</ele>
        <time>2026-05-22T10:42:10.000Z</time>
      </trkpt>
      <trkpt lat="43.06999" lon="-1.21297">
        <ele>458.77174</ele>
        <time>2026-05-22T10:42:11.000Z</time>
      </trkpt>
      <trkpt lat="43.06998" lon="-1.213">
        <ele>458.921086</ele>
        <time>2026-05-22T10:42:12.000Z</time>
      </trkpt>
      <trkpt lat="43.06997" lon="-1.21304">
        <ele>459.079532</ele>
        <time>2026-05-22T10:42:13.000Z</time>
      </trkpt>
      <trkpt lat="43.06996" lon="-1.21307">
        <ele>459.228065</ele>
        <time>2026-05-22T10:42:14.000Z</time>
      </trkpt>
      <trkpt lat="43.06994" lon="-1.2131">
        <ele>459.403225</ele>
        <time>2026-05-22T10:42:15.000Z</time>
      </trkpt>
      <trkpt lat="43.0699" lon="-1.21311">
        <ele>459.597213</ele>
        <time>2026-05-22T10:42:16.000Z</time>
      </trkpt>
      <trkpt lat="43.06987" lon="-1.21312">
        <ele>459.804276</ele>
        <time>2026-05-22T10:42:17.000Z</time>
      </trkpt>
      <trkpt lat="43.06984" lon="-1.2131">
        <ele>459.962647</ele>
        <time>2026-05-22T10:42:18.000Z</time>
      </trkpt>
      <trkpt lat="43.06981" lon="-1.21309">
        <ele>460.130191</ele>
        <time>2026-05-22T10:42:19.000Z</time>
      </trkpt>
      <trkpt lat="43.06978" lon="-1.21306">
        <ele>460.309793</ele>
        <time>2026-05-22T10:42:20.000Z</time>
      </trkpt>
      <trkpt lat="43.06976" lon="-1.21304">
        <ele>460.473238</ele>
        <time>2026-05-22T10:42:21.000Z</time>
      </trkpt>
      <trkpt lat="43.06974" lon="-1.21301">
        <ele>460.613422</ele>
        <time>2026-05-22T10:42:22.000Z</time>
      </trkpt>
      <trkpt lat="43.06973" lon="-1.21299">
        <ele>460.76496</ele>
        <time>2026-05-22T10:42:23.000Z</time>
      </trkpt>
      <trkpt lat="43.06971" lon="-1.21296">
        <ele>460.90647</ele>
        <time>2026-05-22T10:42:24.000Z</time>
      </trkpt>
      <trkpt lat="43.0697" lon="-1.21293">
        <ele>461.055697</ele>
        <time>2026-05-22T10:42:25.000Z</time>
      </trkpt>
      <trkpt lat="43.06968" lon="-1.21289">
        <ele>461.226708</ele>
        <time>2026-05-22T10:42:26.000Z</time>
      </trkpt>
      <trkpt lat="43.06967" lon="-1.21285">
        <ele>461.382234</ele>
        <time>2026-05-22T10:42:27.000Z</time>
      </trkpt>
      <trkpt lat="43.06965" lon="-1.21282">
        <ele>461.543653</ele>
        <time>2026-05-22T10:42:28.000Z</time>
      </trkpt>
      <trkpt lat="43.06964" lon="-1.21279">
        <ele>461.703675</ele>
        <time>2026-05-22T10:42:29.000Z</time>
      </trkpt>
      <trkpt lat="43.06962" lon="-1.21275">
        <ele>461.884679</ele>
        <time>2026-05-22T10:42:30.000Z</time>
      </trkpt>
      <trkpt lat="43.06961" lon="-1.21272">
        <ele>462.050058</ele>
        <time>2026-05-22T10:42:31.000Z</time>
      </trkpt>
      <trkpt lat="43.0696" lon="-1.21268">
        <ele>462.22629</ele>
        <time>2026-05-22T10:42:32.000Z</time>
      </trkpt>
      <trkpt lat="43.06958" lon="-1.21264">
        <ele>462.405919</ele>
        <time>2026-05-22T10:42:33.000Z</time>
      </trkpt>
      <trkpt lat="43.06957" lon="-1.2126">
        <ele>462.585549</ele>
        <time>2026-05-22T10:42:34.000Z</time>
      </trkpt>
      <trkpt lat="43.06954" lon="-1.21256">
        <ele>462.786302</ele>
        <time>2026-05-22T10:42:35.000Z</time>
      </trkpt>
      <trkpt lat="43.06953" lon="-1.21252">
        <ele>462.981252</ele>
        <time>2026-05-22T10:42:36.000Z</time>
      </trkpt>
      <trkpt lat="43.06951" lon="-1.21247">
        <ele>463.183233</ele>
        <time>2026-05-22T10:42:37.000Z</time>
      </trkpt>
      <trkpt lat="43.06949" lon="-1.21243">
        <ele>463.384822</ele>
        <time>2026-05-22T10:42:38.000Z</time>
      </trkpt>
      <trkpt lat="43.06948" lon="-1.21239">
        <ele>463.576958</ele>
        <time>2026-05-22T10:42:39.000Z</time>
      </trkpt>
      <trkpt lat="43.06946" lon="-1.21234">
        <ele>463.786051</ele>
        <time>2026-05-22T10:42:40.000Z</time>
      </trkpt>
      <trkpt lat="43.06944" lon="-1.21231">
        <ele>463.967509</ele>
        <time>2026-05-22T10:42:41.000Z</time>
      </trkpt>
      <trkpt lat="43.06942" lon="-1.21228">
        <ele>464.129326</ele>
        <time>2026-05-22T10:42:42.000Z</time>
      </trkpt>
      <trkpt lat="43.0694" lon="-1.21225">
        <ele>464.277437</ele>
        <time>2026-05-22T10:42:43.000Z</time>
      </trkpt>
      <trkpt lat="43.06938" lon="-1.21222">
        <ele>464.442963</ele>
        <time>2026-05-22T10:42:44.000Z</time>
      </trkpt>
      <trkpt lat="43.06937" lon="-1.21219">
        <ele>464.594506</ele>
        <time>2026-05-22T10:42:45.000Z</time>
      </trkpt>
      <trkpt lat="43.06935" lon="-1.21216">
        <ele>464.732751</ele>
        <time>2026-05-22T10:42:46.000Z</time>
      </trkpt>
      <trkpt lat="43.06934" lon="-1.21214">
        <ele>464.867774</ele>
        <time>2026-05-22T10:42:47.000Z</time>
      </trkpt>
      <trkpt lat="43.06932" lon="-1.21211">
        <ele>465.009441</ele>
        <time>2026-05-22T10:42:48.000Z</time>
      </trkpt>
      <trkpt lat="43.06931" lon="-1.21208">
        <ele>465.146813</ele>
        <time>2026-05-22T10:42:49.000Z</time>
      </trkpt>
      <trkpt lat="43.06929" lon="-1.21206">
        <ele>465.267692</ele>
        <time>2026-05-22T10:42:50.000Z</time>
      </trkpt>
      <trkpt lat="43.06927" lon="-1.21205">
        <ele>465.373633</ele>
        <time>2026-05-22T10:42:51.000Z</time>
      </trkpt>
      <trkpt lat="43.06926" lon="-1.21203">
        <ele>465.473934</ele>
        <time>2026-05-22T10:42:52.000Z</time>
      </trkpt>
      <trkpt lat="43.06925" lon="-1.21202">
        <ele>465.570278</ele>
        <time>2026-05-22T10:42:53.000Z</time>
      </trkpt>
      <trkpt lat="43.06924" lon="-1.212">
        <ele>465.665922</ele>
        <time>2026-05-22T10:42:54.000Z</time>
      </trkpt>
      <trkpt lat="43.06923" lon="-1.21197">
        <ele>465.770226</ele>
        <time>2026-05-22T10:42:55.000Z</time>
      </trkpt>
      <trkpt lat="43.06923" lon="-1.21196">
        <ele>465.852641</ele>
        <time>2026-05-22T10:42:56.000Z</time>
      </trkpt>
      <trkpt lat="43.06921" lon="-1.21194">
        <ele>465.956444</ele>
        <time>2026-05-22T10:42:57.000Z</time>
      </trkpt>
      <trkpt lat="43.0692" lon="-1.21192">
        <ele>466.042314</ele>
        <time>2026-05-22T10:42:58.000Z</time>
      </trkpt>
      <trkpt lat="43.0692" lon="-1.21191">
        <ele>466.12295</ele>
        <time>2026-05-22T10:42:59.000Z</time>
      </trkpt>
      <trkpt lat="43.06919" lon="-1.21188">
        <ele>466.220748</ele>
        <time>2026-05-22T10:43:00.000Z</time>
      </trkpt>
      <trkpt lat="43.06918" lon="-1.21187">
        <ele>466.310124</ele>
        <time>2026-05-22T10:43:01.000Z</time>
      </trkpt>
      <trkpt lat="43.06917" lon="-1.21184">
        <ele>466.419241</ele>
        <time>2026-05-22T10:43:02.000Z</time>
      </trkpt>
      <trkpt lat="43.06916" lon="-1.21183">
        <ele>466.505863</ele>
        <time>2026-05-22T10:43:03.000Z</time>
      </trkpt>
      <trkpt lat="43.06915" lon="-1.2118">
        <ele>466.602388</ele>
        <time>2026-05-22T10:43:04.000Z</time>
      </trkpt>
      <trkpt lat="43.06915" lon="-1.21178">
        <ele>466.708026</ele>
        <time>2026-05-22T10:43:05.000Z</time>
      </trkpt>
      <trkpt lat="43.06915" lon="-1.21175">
        <ele>466.814138</ele>
        <time>2026-05-22T10:43:06.000Z</time>
      </trkpt>
      <trkpt lat="43.06914" lon="-1.21173">
        <ele>466.913673</ele>
        <time>2026-05-22T10:43:07.000Z</time>
      </trkpt>
      <trkpt lat="43.06914" lon="-1.21171">
        <ele>467.00179</ele>
        <time>2026-05-22T10:43:08.000Z</time>
      </trkpt>
      <trkpt lat="43.06914" lon="-1.21168">
        <ele>467.107754</ele>
        <time>2026-05-22T10:43:09.000Z</time>
      </trkpt>
      <trkpt lat="43.06913" lon="-1.21167">
        <ele>467.190061</ele>
        <time>2026-05-22T10:43:10.000Z</time>
      </trkpt>
      <trkpt lat="43.06913" lon="-1.21164">
        <ele>467.279897</ele>
        <time>2026-05-22T10:43:11.000Z</time>
      </trkpt>
      <trkpt lat="43.06913" lon="-1.21162">
        <ele>467.362168</ele>
        <time>2026-05-22T10:43:12.000Z</time>
      </trkpt>
      <trkpt lat="43.06913" lon="-1.2116">
        <ele>467.447937</ele>
        <time>2026-05-22T10:43:13.000Z</time>
      </trkpt>
      <trkpt lat="43.06913" lon="-1.21158">
        <ele>467.529639</ele>
        <time>2026-05-22T10:43:14.000Z</time>
      </trkpt>
      <trkpt lat="43.06913" lon="-1.21157">
        <ele>467.599336</ele>
        <time>2026-05-22T10:43:15.000Z</time>
      </trkpt>
      <trkpt lat="43.06912" lon="-1.21155">
        <ele>467.672635</ele>
        <time>2026-05-22T10:43:16.000Z</time>
      </trkpt>
      <trkpt lat="43.06912" lon="-1.21153">
        <ele>467.758787</ele>
        <time>2026-05-22T10:43:17.000Z</time>
      </trkpt>
      <trkpt lat="43.06911" lon="-1.21151">
        <ele>467.835734</ele>
        <time>2026-05-22T10:43:18.000Z</time>
      </trkpt>
      <trkpt lat="43.0691" lon="-1.2115">
        <ele>467.902931</ele>
        <time>2026-05-22T10:43:19.000Z</time>
      </trkpt>
      <trkpt lat="43.0691" lon="-1.21149">
        <ele>467.959233</ele>
        <time>2026-05-22T10:43:20.000Z</time>
      </trkpt>
      <trkpt lat="43.0691" lon="-1.21147">
        <ele>468.042445</ele>
        <time>2026-05-22T10:43:21.000Z</time>
      </trkpt>
      <trkpt lat="43.0691" lon="-1.21145">
        <ele>468.176914</ele>
        <time>2026-05-22T10:43:22.000Z</time>
      </trkpt>
      <trkpt lat="43.0691" lon="-1.21143">
        <ele>468.310796</ele>
        <time>2026-05-22T10:43:23.000Z</time>
      </trkpt>
      <trkpt lat="43.06909" lon="-1.21142">
        <ele>468.470657</ele>
        <time>2026-05-22T10:43:24.000Z</time>
      </trkpt>
      <trkpt lat="43.06909" lon="-1.2114">
        <ele>468.59604</ele>
        <time>2026-05-22T10:43:25.000Z</time>
      </trkpt>
      <trkpt lat="43.06908" lon="-1.21139">
        <ele>468.734275</ele>
        <time>2026-05-22T10:43:26.000Z</time>
      </trkpt>
      <trkpt lat="43.06908" lon="-1.21137">
        <ele>468.859308</ele>
        <time>2026-05-22T10:43:27.000Z</time>
      </trkpt>
      <trkpt lat="43.06908" lon="-1.21136">
        <ele>469.014761</ele>
        <time>2026-05-22T10:43:28.000Z</time>
      </trkpt>
      <trkpt lat="43.06907" lon="-1.21134">
        <ele>469.190517</ele>
        <time>2026-05-22T10:43:29.000Z</time>
      </trkpt>
      <trkpt lat="43.06907" lon="-1.21132">
        <ele>469.371997</ele>
        <time>2026-05-22T10:43:30.000Z</time>
      </trkpt>
      <trkpt lat="43.06907" lon="-1.2113">
        <ele>469.522312</ele>
        <time>2026-05-22T10:43:31.000Z</time>
      </trkpt>
      <trkpt lat="43.06906" lon="-1.21129">
        <ele>469.639554</ele>
        <time>2026-05-22T10:43:32.000Z</time>
      </trkpt>
      <trkpt lat="43.06906" lon="-1.21128">
        <ele>469.77605</ele>
        <time>2026-05-22T10:43:33.000Z</time>
      </trkpt>
      <trkpt lat="43.06905" lon="-1.21127">
        <ele>469.893292</ele>
        <time>2026-05-22T10:43:34.000Z</time>
      </trkpt>
      <trkpt lat="43.06904" lon="-1.21125">
        <ele>470.044378</ele>
        <time>2026-05-22T10:43:35.000Z</time>
      </trkpt>
      <trkpt lat="43.06903" lon="-1.21124">
        <ele>470.212177</ele>
        <time>2026-05-22T10:43:36.000Z</time>
      </trkpt>
      <trkpt lat="43.06903" lon="-1.21123">
        <ele>470.362973</ele>
        <time>2026-05-22T10:43:37.000Z</time>
      </trkpt>
      <trkpt lat="43.06902" lon="-1.21121">
        <ele>470.513769</ele>
        <time>2026-05-22T10:43:38.000Z</time>
      </trkpt>
      <trkpt lat="43.06902" lon="-1.2112">
        <ele>470.676663</ele>
        <time>2026-05-22T10:43:39.000Z</time>
      </trkpt>
      <trkpt lat="43.06901" lon="-1.21118">
        <ele>470.810282</ele>
        <time>2026-05-22T10:43:40.000Z</time>
      </trkpt>
      <trkpt lat="43.06901" lon="-1.21116">
        <ele>470.965734</ele>
        <time>2026-05-22T10:43:41.000Z</time>
      </trkpt>
      <trkpt lat="43.06901" lon="-1.21114">
        <ele>471.162792</ele>
        <time>2026-05-22T10:43:42.000Z</time>
      </trkpt>
      <trkpt lat="43.06901" lon="-1.21112">
        <ele>471.324626</ele>
        <time>2026-05-22T10:43:43.000Z</time>
      </trkpt>
      <trkpt lat="43.069" lon="-1.21111">
        <ele>471.474941</ele>
        <time>2026-05-22T10:43:44.000Z</time>
      </trkpt>
      <trkpt lat="43.069" lon="-1.21109">
        <ele>471.647476</ele>
        <time>2026-05-22T10:43:45.000Z</time>
      </trkpt>
      <trkpt lat="43.06898" lon="-1.21108">
        <ele>471.824296</ele>
        <time>2026-05-22T10:43:46.000Z</time>
      </trkpt>
      <trkpt lat="43.06897" lon="-1.21108">
        <ele>472.008743</ele>
        <time>2026-05-22T10:43:47.000Z</time>
      </trkpt>
      <trkpt lat="43.06896" lon="-1.21107">
        <ele>472.194698</ele>
        <time>2026-05-22T10:43:48.000Z</time>
      </trkpt>
      <trkpt lat="43.06894" lon="-1.21106">
        <ele>472.379286</ele>
        <time>2026-05-22T10:43:49.000Z</time>
      </trkpt>
      <trkpt lat="43.06893" lon="-1.21105">
        <ele>472.524902</ele>
        <time>2026-05-22T10:43:50.000Z</time>
      </trkpt>
      <trkpt lat="43.06892" lon="-1.21104">
        <ele>472.640428</ele>
        <time>2026-05-22T10:43:51.000Z</time>
      </trkpt>
      <trkpt lat="43.06892" lon="-1.21103">
        <ele>472.755584</ele>
        <time>2026-05-22T10:43:52.000Z</time>
      </trkpt>
      <trkpt lat="43.06891" lon="-1.21102">
        <ele>472.91739</ele>
        <time>2026-05-22T10:43:53.000Z</time>
      </trkpt>
      <trkpt lat="43.0689" lon="-1.21101">
        <ele>473.053004</ele>
        <time>2026-05-22T10:43:54.000Z</time>
      </trkpt>
      <trkpt lat="43.06889" lon="-1.211">
        <ele>473.17355</ele>
        <time>2026-05-22T10:43:55.000Z</time>
      </trkpt>
      <trkpt lat="43.06889" lon="-1.211">
        <ele>473.234386</ele>
        <time>2026-05-22T10:43:56.000Z</time>
      </trkpt>
      <trkpt lat="43.06887" lon="-1.21102">
        <ele>473.475478</ele>
        <time>2026-05-22T10:45:30.000Z</time>
      </trkpt>
      <trkpt lat="43.06886" lon="-1.21101">
        <ele>473.678481</ele>
        <time>2026-05-22T10:45:31.000Z</time>
      </trkpt>
      <trkpt lat="43.06885" lon="-1.211">
        <ele>473.837678</ele>
        <time>2026-05-22T10:45:32.000Z</time>
      </trkpt>
      <trkpt lat="43.06884" lon="-1.21099">
        <ele>474.004165</ele>
        <time>2026-05-22T10:45:33.000Z</time>
      </trkpt>
      <trkpt lat="43.06883" lon="-1.21097">
        <ele>474.169927</ele>
        <time>2026-05-22T10:45:34.000Z</time>
      </trkpt>
      <trkpt lat="43.06882" lon="-1.21096">
        <ele>474.28088</ele>
        <time>2026-05-22T10:45:35.000Z</time>
      </trkpt>
      <trkpt lat="43.06881" lon="-1.21095">
        <ele>474.412696</ele>
        <time>2026-05-22T10:45:36.000Z</time>
      </trkpt>
      <trkpt lat="43.0688" lon="-1.21095">
        <ele>474.579183</ele>
        <time>2026-05-22T10:45:37.000Z</time>
      </trkpt>
      <trkpt lat="43.06878" lon="-1.21094">
        <ele>474.816434</ele>
        <time>2026-05-22T10:45:38.000Z</time>
      </trkpt>
      <trkpt lat="43.06876" lon="-1.21093">
        <ele>475.04916</ele>
        <time>2026-05-22T10:45:39.000Z</time>
      </trkpt>
      <trkpt lat="43.06875" lon="-1.21092">
        <ele>475.252164</ele>
        <time>2026-05-22T10:45:40.000Z</time>
      </trkpt>
      <trkpt lat="43.06874" lon="-1.2109">
        <ele>475.428985</ele>
        <time>2026-05-22T10:45:41.000Z</time>
      </trkpt>
      <trkpt lat="43.06873" lon="-1.21089">
        <ele>475.637134</ele>
        <time>2026-05-22T10:45:42.000Z</time>
      </trkpt>
      <trkpt lat="43.06872" lon="-1.21087">
        <ele>475.816626</ele>
        <time>2026-05-22T10:45:43.000Z</time>
      </trkpt>
      <trkpt lat="43.06871" lon="-1.21086">
        <ele>475.998065</ele>
        <time>2026-05-22T10:45:44.000Z</time>
      </trkpt>
      <trkpt lat="43.06869" lon="-1.21085">
        <ele>476.158733</ele>
        <time>2026-05-22T10:45:45.000Z</time>
      </trkpt>
      <trkpt lat="43.06868" lon="-1.21084">
        <ele>476.372742</ele>
        <time>2026-05-22T10:45:46.000Z</time>
      </trkpt>
      <trkpt lat="43.06866" lon="-1.21083">
        <ele>476.594724</ele>
        <time>2026-05-22T10:45:47.000Z</time>
      </trkpt>
      <trkpt lat="43.06865" lon="-1.21082">
        <ele>476.785503</ele>
        <time>2026-05-22T10:45:48.000Z</time>
      </trkpt>
      <trkpt lat="43.06864" lon="-1.21081">
        <ele>476.926529</ele>
        <time>2026-05-22T10:45:49.000Z</time>
      </trkpt>
      <trkpt lat="43.06863" lon="-1.2108">
        <ele>477.097465</ele>
        <time>2026-05-22T10:45:50.000Z</time>
      </trkpt>
      <trkpt lat="43.06861" lon="-1.21079">
        <ele>477.264389</ele>
        <time>2026-05-22T10:45:51.000Z</time>
      </trkpt>
      <trkpt lat="43.0686" lon="-1.21079">
        <ele>477.448836</ele>
        <time>2026-05-22T10:45:52.000Z</time>
      </trkpt>
      <trkpt lat="43.06859" lon="-1.21079">
        <ele>477.609243</ele>
        <time>2026-05-22T10:45:53.000Z</time>
      </trkpt>
      <trkpt lat="43.06857" lon="-1.21078">
        <ele>477.782667</ele>
        <time>2026-05-22T10:45:54.000Z</time>
      </trkpt>
      <trkpt lat="43.06856" lon="-1.21077">
        <ele>477.920633</ele>
        <time>2026-05-22T10:45:55.000Z</time>
      </trkpt>
      <trkpt lat="43.06855" lon="-1.21076">
        <ele>478.071315</ele>
        <time>2026-05-22T10:45:56.000Z</time>
      </trkpt>
      <trkpt lat="43.06854" lon="-1.21076">
        <ele>478.257256</ele>
        <time>2026-05-22T10:45:57.000Z</time>
      </trkpt>
      <trkpt lat="43.06853" lon="-1.21075">
        <ele>478.41568</ele>
        <time>2026-05-22T10:45:58.000Z</time>
      </trkpt>
      <trkpt lat="43.06851" lon="-1.21076">
        <ele>478.574105</ele>
        <time>2026-05-22T10:45:59.000Z</time>
      </trkpt>
      <trkpt lat="43.0685" lon="-1.21075">
        <ele>478.696102</ele>
        <time>2026-05-22T10:46:00.000Z</time>
      </trkpt>
      <trkpt lat="43.06849" lon="-1.21075">
        <ele>478.832573</ele>
        <time>2026-05-22T10:46:01.000Z</time>
      </trkpt>
      <trkpt lat="43.06848" lon="-1.21074">
        <ele>478.964389</ele>
        <time>2026-05-22T10:46:02.000Z</time>
      </trkpt>
      <trkpt lat="43.06847" lon="-1.21074">
        <ele>479.135657</ele>
        <time>2026-05-22T10:46:03.000Z</time>
      </trkpt>
      <trkpt lat="43.06846" lon="-1.21074">
        <ele>479.25733</ele>
        <time>2026-05-22T10:46:04.000Z</time>
      </trkpt>
      <trkpt lat="43.06845" lon="-1.21074">
        <ele>479.367196</ele>
        <time>2026-05-22T10:46:05.000Z</time>
      </trkpt>
      <trkpt lat="43.06844" lon="-1.21074">
        <ele>479.52537</ele>
        <time>2026-05-22T10:46:06.000Z</time>
      </trkpt>
      <trkpt lat="43.06843" lon="-1.21074">
        <ele>479.684541</ele>
        <time>2026-05-22T10:46:07.000Z</time>
      </trkpt>
      <trkpt lat="43.06842" lon="-1.21074">
        <ele>479.807506</ele>
        <time>2026-05-22T10:46:08.000Z</time>
      </trkpt>
      <trkpt lat="43.06841" lon="-1.21074">
        <ele>479.933454</ele>
        <time>2026-05-22T10:46:09.000Z</time>
      </trkpt>
      <trkpt lat="43.0684" lon="-1.21073">
        <ele>480.048587</ele>
        <time>2026-05-22T10:46:10.000Z</time>
      </trkpt>
      <trkpt lat="43.06839" lon="-1.21072">
        <ele>480.208449</ele>
        <time>2026-05-22T10:46:11.000Z</time>
      </trkpt>
      <trkpt lat="43.06838" lon="-1.21071">
        <ele>480.36454</ele>
        <time>2026-05-22T10:46:12.000Z</time>
      </trkpt>
      <trkpt lat="43.06837" lon="-1.21069">
        <ele>480.517408</ele>
        <time>2026-05-22T10:46:13.000Z</time>
      </trkpt>
      <trkpt lat="43.06836" lon="-1.21069">
        <ele>480.641969</ele>
        <time>2026-05-22T10:46:14.000Z</time>
      </trkpt>
      <trkpt lat="43.06836" lon="-1.21068">
        <ele>480.780486</ele>
        <time>2026-05-22T10:46:15.000Z</time>
      </trkpt>
      <trkpt lat="43.06835" lon="-1.21067">
        <ele>480.942293</ele>
        <time>2026-05-22T10:46:16.000Z</time>
      </trkpt>
      <trkpt lat="43.06834" lon="-1.21065">
        <ele>481.119114</ele>
        <time>2026-05-22T10:46:17.000Z</time>
      </trkpt>
      <trkpt lat="43.06832" lon="-1.21064">
        <ele>481.315523</ele>
        <time>2026-05-22T10:46:18.000Z</time>
      </trkpt>
      <trkpt lat="43.06831" lon="-1.21063">
        <ele>481.48201</ele>
        <time>2026-05-22T10:46:19.000Z</time>
      </trkpt>
      <trkpt lat="43.0683" lon="-1.21062">
        <ele>481.647773</ele>
        <time>2026-05-22T10:46:20.000Z</time>
      </trkpt>
      <trkpt lat="43.0683" lon="-1.21061">
        <ele>481.756075</ele>
        <time>2026-05-22T10:46:21.000Z</time>
      </trkpt>
      <trkpt lat="43.06829" lon="-1.2106">
        <ele>481.899625</ele>
        <time>2026-05-22T10:46:22.000Z</time>
      </trkpt>
      <trkpt lat="43.06828" lon="-1.21059">
        <ele>482.037592</ele>
        <time>2026-05-22T10:46:23.000Z</time>
      </trkpt>
      <trkpt lat="43.06827" lon="-1.21058">
        <ele>482.159394</ele>
        <time>2026-05-22T10:46:24.000Z</time>
      </trkpt>
      <trkpt lat="43.06826" lon="-1.21057">
        <ele>482.312016</ele>
        <time>2026-05-22T10:46:25.000Z</time>
      </trkpt>
      <trkpt lat="43.06825" lon="-1.21057">
        <ele>482.48544</ele>
        <time>2026-05-22T10:46:26.000Z</time>
      </trkpt>
      <trkpt lat="43.06824" lon="-1.21055">
        <ele>482.666694</ele>
        <time>2026-05-22T10:46:27.000Z</time>
      </trkpt>
      <trkpt lat="43.06823" lon="-1.21053">
        <ele>482.840152</ele>
        <time>2026-05-22T10:46:28.000Z</time>
      </trkpt>
      <trkpt lat="43.06823" lon="-1.21052">
        <ele>482.994837</ele>
        <time>2026-05-22T10:46:29.000Z</time>
      </trkpt>
      <trkpt lat="43.06822" lon="-1.2105">
        <ele>483.141642</ele>
        <time>2026-05-22T10:46:30.000Z</time>
      </trkpt>
      <trkpt lat="43.0682" lon="-1.2105">
        <ele>483.326089</ele>
        <time>2026-05-22T10:46:31.000Z</time>
      </trkpt>
      <trkpt lat="43.0682" lon="-1.21049">
        <ele>483.491171</ele>
        <time>2026-05-22T10:46:32.000Z</time>
      </trkpt>
      <trkpt lat="43.06819" lon="-1.21047">
        <ele>483.663706</ele>
        <time>2026-05-22T10:46:33.000Z</time>
      </trkpt>
      <trkpt lat="43.06818" lon="-1.21045">
        <ele>483.822459</ele>
        <time>2026-05-22T10:46:34.000Z</time>
      </trkpt>
      <trkpt lat="43.06818" lon="-1.21044">
        <ele>483.951714</ele>
        <time>2026-05-22T10:46:35.000Z</time>
      </trkpt>
      <trkpt lat="43.06817" lon="-1.21043">
        <ele>484.088211</ele>
        <time>2026-05-22T10:46:36.000Z</time>
      </trkpt>
      <trkpt lat="43.06816" lon="-1.21041">
        <ele>484.26167</ele>
        <time>2026-05-22T10:46:37.000Z</time>
      </trkpt>
      <trkpt lat="43.06815" lon="-1.2104">
        <ele>484.441415</ele>
        <time>2026-05-22T10:46:38.000Z</time>
      </trkpt>
      <trkpt lat="43.06815" lon="-1.21038">
        <ele>484.599628</ele>
        <time>2026-05-22T10:46:39.000Z</time>
      </trkpt>
      <trkpt lat="43.06814" lon="-1.21036">
        <ele>484.767447</ele>
        <time>2026-05-22T10:46:40.000Z</time>
      </trkpt>
      <trkpt lat="43.06814" lon="-1.21035">
        <ele>484.919456</ele>
        <time>2026-05-22T10:46:41.000Z</time>
      </trkpt>
      <trkpt lat="43.06814" lon="-1.21033">
        <ele>485.132756</ele>
        <time>2026-05-22T10:46:42.000Z</time>
      </trkpt>
      <trkpt lat="43.06814" lon="-1.21031">
        <ele>485.288211</ele>
        <time>2026-05-22T10:46:43.000Z</time>
      </trkpt>
      <trkpt lat="43.06813" lon="-1.21029">
        <ele>485.472527</ele>
        <time>2026-05-22T10:46:44.000Z</time>
      </trkpt>
      <trkpt lat="43.06813" lon="-1.21027">
        <ele>485.669651</ele>
        <time>2026-05-22T10:46:45.000Z</time>
      </trkpt>
      <trkpt lat="43.06812" lon="-1.21025">
        <ele>485.85364</ele>
        <time>2026-05-22T10:46:46.000Z</time>
      </trkpt>
      <trkpt lat="43.06811" lon="-1.21023">
        <ele>486.013502</ele>
        <time>2026-05-22T10:46:47.000Z</time>
      </trkpt>
      <trkpt lat="43.06811" lon="-1.21022">
        <ele>486.157778</ele>
        <time>2026-05-22T10:46:48.000Z</time>
      </trkpt>
      <trkpt lat="43.0681" lon="-1.21021">
        <ele>486.316976</ele>
        <time>2026-05-22T10:46:49.000Z</time>
      </trkpt>
      <trkpt lat="43.0681" lon="-1.21019">
        <ele>486.467293</ele>
        <time>2026-05-22T10:46:50.000Z</time>
      </trkpt>
      <trkpt lat="43.06808" lon="-1.21018">
        <ele>486.623219</ele>
        <time>2026-05-22T10:46:51.000Z</time>
      </trkpt>
      <trkpt lat="43.06807" lon="-1.21017">
        <ele>486.804658</ele>
        <time>2026-05-22T10:46:52.000Z</time>
      </trkpt>
      <trkpt lat="43.06807" lon="-1.21015">
        <ele>486.975831</ele>
        <time>2026-05-22T10:46:53.000Z</time>
      </trkpt>
      <trkpt lat="43.06806" lon="-1.21014">
        <ele>487.137669</ele>
        <time>2026-05-22T10:46:54.000Z</time>
      </trkpt>
      <trkpt lat="43.06806" lon="-1.21012">
        <ele>487.274166</ele>
        <time>2026-05-22T10:46:55.000Z</time>
      </trkpt>
      <trkpt lat="43.06805" lon="-1.21011">
        <ele>487.439939</ele>
        <time>2026-05-22T10:46:56.000Z</time>
      </trkpt>
      <trkpt lat="43.06804" lon="-1.2101">
        <ele>487.599137</ele>
        <time>2026-05-22T10:46:57.000Z</time>
      </trkpt>
      <trkpt lat="43.06803" lon="-1.21009">
        <ele>487.725131</ele>
        <time>2026-05-22T10:46:58.000Z</time>
      </trkpt>
      <trkpt lat="43.06803" lon="-1.21007">
        <ele>487.875929</ele>
        <time>2026-05-22T10:46:59.000Z</time>
      </trkpt>
      <trkpt lat="43.06802" lon="-1.21006">
        <ele>488.035792</ele>
        <time>2026-05-22T10:47:00.000Z</time>
      </trkpt>
      <trkpt lat="43.06801" lon="-1.21005">
        <ele>488.19646</ele>
        <time>2026-05-22T10:47:01.000Z</time>
      </trkpt>
      <trkpt lat="43.068" lon="-1.21003">
        <ele>488.362223</ele>
        <time>2026-05-22T10:47:02.000Z</time>
      </trkpt>
      <trkpt lat="43.06799" lon="-1.21002">
        <ele>488.49872</ele>
        <time>2026-05-22T10:47:03.000Z</time>
      </trkpt>
      <trkpt lat="43.06798" lon="-1.21001">
        <ele>488.629289</ele>
        <time>2026-05-22T10:47:04.000Z</time>
      </trkpt>
      <trkpt lat="43.06798" lon="-1.21">
        <ele>488.787501</ele>
        <time>2026-05-22T10:47:05.000Z</time>
      </trkpt>
      <trkpt lat="43.06797" lon="-1.20999">
        <ele>488.948169</ele>
        <time>2026-05-22T10:47:06.000Z</time>
      </trkpt>
      <trkpt lat="43.06796" lon="-1.20998">
        <ele>489.070193</ele>
        <time>2026-05-22T10:47:07.000Z</time>
      </trkpt>
      <trkpt lat="43.06795" lon="-1.20996">
        <ele>489.222202</ele>
        <time>2026-05-22T10:47:08.000Z</time>
      </trkpt>
      <trkpt lat="43.06794" lon="-1.20995">
        <ele>489.38401</ele>
        <time>2026-05-22T10:47:09.000Z</time>
      </trkpt>
      <trkpt lat="43.06794" lon="-1.20994">
        <ele>489.530815</ele>
        <time>2026-05-22T10:47:10.000Z</time>
      </trkpt>
      <trkpt lat="43.06793" lon="-1.20993">
        <ele>489.667474</ele>
        <time>2026-05-22T10:47:11.000Z</time>
      </trkpt>
      <trkpt lat="43.06792" lon="-1.20992">
        <ele>489.814279</ele>
        <time>2026-05-22T10:47:12.000Z</time>
      </trkpt>
      <trkpt lat="43.06791" lon="-1.20991">
        <ele>489.965734</ele>
        <time>2026-05-22T10:47:13.000Z</time>
      </trkpt>
      <trkpt lat="43.0679" lon="-1.2099">
        <ele>490.068832</ele>
        <time>2026-05-22T10:47:14.000Z</time>
      </trkpt>
      <trkpt lat="43.06789" lon="-1.20988">
        <ele>490.210009</ele>
        <time>2026-05-22T10:47:15.000Z</time>
      </trkpt>
      <trkpt lat="43.06788" lon="-1.20987">
        <ele>490.355643</ele>
        <time>2026-05-22T10:47:16.000Z</time>
      </trkpt>
      <trkpt lat="43.06787" lon="-1.20985">
        <ele>490.486885</ele>
        <time>2026-05-22T10:47:17.000Z</time>
      </trkpt>
      <trkpt lat="43.06786" lon="-1.20984">
        <ele>490.623008</ele>
        <time>2026-05-22T10:47:18.000Z</time>
      </trkpt>
      <trkpt lat="43.06786" lon="-1.20982">
        <ele>490.750414</ele>
        <time>2026-05-22T10:47:19.000Z</time>
      </trkpt>
      <trkpt lat="43.06784" lon="-1.20981">
        <ele>490.880628</ele>
        <time>2026-05-22T10:47:20.000Z</time>
      </trkpt>
      <trkpt lat="43.06784" lon="-1.2098">
        <ele>490.988537</ele>
        <time>2026-05-22T10:47:21.000Z</time>
      </trkpt>
      <trkpt lat="43.06783" lon="-1.2098">
        <ele>491.083802</ele>
        <time>2026-05-22T10:47:22.000Z</time>
      </trkpt>
      <trkpt lat="43.06781" lon="-1.20979">
        <ele>491.214017</ele>
        <time>2026-05-22T10:47:23.000Z</time>
      </trkpt>
      <trkpt lat="43.06781" lon="-1.20977">
        <ele>491.341423</ele>
        <time>2026-05-22T10:47:24.000Z</time>
      </trkpt>
      <trkpt lat="43.0678" lon="-1.20976">
        <ele>491.479721</ele>
        <time>2026-05-22T10:47:25.000Z</time>
      </trkpt>
      <trkpt lat="43.06779" lon="-1.20975">
        <ele>491.618019</ele>
        <time>2026-05-22T10:47:26.000Z</time>
      </trkpt>
      <trkpt lat="43.06777" lon="-1.20974">
        <ele>491.75096</ele>
        <time>2026-05-22T10:47:27.000Z</time>
      </trkpt>
      <trkpt lat="43.06776" lon="-1.20973">
        <ele>491.908154</ele>
        <time>2026-05-22T10:47:28.000Z</time>
      </trkpt>
      <trkpt lat="43.06775" lon="-1.20972">
        <ele>492.064011</ele>
        <time>2026-05-22T10:47:29.000Z</time>
      </trkpt>
      <trkpt lat="43.06773" lon="-1.20971">
        <ele>492.197706</ele>
        <time>2026-05-22T10:47:30.000Z</time>
      </trkpt>
      <trkpt lat="43.06773" lon="-1.20969">
        <ele>492.326822</ele>
        <time>2026-05-22T10:47:31.000Z</time>
      </trkpt>
      <trkpt lat="43.06772" lon="-1.20968">
        <ele>492.461615</ele>
        <time>2026-05-22T10:47:32.000Z</time>
      </trkpt>
      <trkpt lat="43.06771" lon="-1.20966">
        <ele>492.592857</ele>
        <time>2026-05-22T10:47:33.000Z</time>
      </trkpt>
      <trkpt lat="43.0677" lon="-1.20964">
        <ele>492.766901</ele>
        <time>2026-05-22T10:47:34.000Z</time>
      </trkpt>
      <trkpt lat="43.06768" lon="-1.20963">
        <ele>492.937995</ele>
        <time>2026-05-22T10:47:35.000Z</time>
      </trkpt>
      <trkpt lat="43.06767" lon="-1.20961">
        <ele>493.062509</ele>
        <time>2026-05-22T10:47:36.000Z</time>
      </trkpt>
      <trkpt lat="43.06766" lon="-1.20961">
        <ele>493.197362</ele>
        <time>2026-05-22T10:47:37.000Z</time>
      </trkpt>
      <trkpt lat="43.06765" lon="-1.2096">
        <ele>493.331056</ele>
        <time>2026-05-22T10:47:38.000Z</time>
      </trkpt>
      <trkpt lat="43.06764" lon="-1.20959">
        <ele>493.469692</ele>
        <time>2026-05-22T10:47:39.000Z</time>
      </trkpt>
      <trkpt lat="43.06762" lon="-1.20959">
        <ele>493.653815</ele>
        <time>2026-05-22T10:47:40.000Z</time>
      </trkpt>
      <trkpt lat="43.0676" lon="-1.20958">
        <ele>493.807433</ele>
        <time>2026-05-22T10:47:41.000Z</time>
      </trkpt>
      <trkpt lat="43.06759" lon="-1.20957">
        <ele>493.949343</ele>
        <time>2026-05-22T10:47:42.000Z</time>
      </trkpt>
      <trkpt lat="43.06758" lon="-1.20955">
        <ele>494.073857</ele>
        <time>2026-05-22T10:47:43.000Z</time>
      </trkpt>
      <trkpt lat="43.06757" lon="-1.20954">
        <ele>494.215282</ele>
        <time>2026-05-22T10:47:44.000Z</time>
      </trkpt>
      <trkpt lat="43.06756" lon="-1.20953">
        <ele>494.35272</ele>
        <time>2026-05-22T10:47:45.000Z</time>
      </trkpt>
      <trkpt lat="43.06754" lon="-1.20952">
        <ele>494.517716</ele>
        <time>2026-05-22T10:47:46.000Z</time>
      </trkpt>
      <trkpt lat="43.06753" lon="-1.2095">
        <ele>494.686668</ele>
        <time>2026-05-22T10:47:47.000Z</time>
      </trkpt>
      <trkpt lat="43.06751" lon="-1.20949">
        <ele>494.874259</ele>
        <time>2026-05-22T10:47:48.000Z</time>
      </trkpt>
      <trkpt lat="43.0675" lon="-1.20948">
        <ele>495.022019</ele>
        <time>2026-05-22T10:47:49.000Z</time>
      </trkpt>
      <trkpt lat="43.06749" lon="-1.20946">
        <ele>495.17943</ele>
        <time>2026-05-22T10:47:50.000Z</time>
      </trkpt>
      <trkpt lat="43.06748" lon="-1.20944">
        <ele>495.325909</ele>
        <time>2026-05-22T10:47:51.000Z</time>
      </trkpt>
      <trkpt lat="43.06747" lon="-1.20943">
        <ele>495.478655</ele>
        <time>2026-05-22T10:47:52.000Z</time>
      </trkpt>
      <trkpt lat="43.06746" lon="-1.20941">
        <ele>495.641961</ele>
        <time>2026-05-22T10:47:53.000Z</time>
      </trkpt>
      <trkpt lat="43.06745" lon="-1.20939">
        <ele>495.798726</ele>
        <time>2026-05-22T10:47:54.000Z</time>
      </trkpt>
      <trkpt lat="43.06744" lon="-1.20937">
        <ele>495.939904</ele>
        <time>2026-05-22T10:47:55.000Z</time>
      </trkpt>
      <trkpt lat="43.06743" lon="-1.20936">
        <ele>496.087095</ele>
        <time>2026-05-22T10:47:56.000Z</time>
      </trkpt>
      <trkpt lat="43.06741" lon="-1.20935">
        <ele>496.260552</ele>
        <time>2026-05-22T10:47:57.000Z</time>
      </trkpt>
      <trkpt lat="43.0674" lon="-1.20934">
        <ele>496.429505</ele>
        <time>2026-05-22T10:47:58.000Z</time>
      </trkpt>
      <trkpt lat="43.06739" lon="-1.20932">
        <ele>496.592307</ele>
        <time>2026-05-22T10:47:59.000Z</time>
      </trkpt>
      <trkpt lat="43.06737" lon="-1.20931">
        <ele>496.746955</ele>
        <time>2026-05-22T10:48:00.000Z</time>
      </trkpt>
      <trkpt lat="43.06736" lon="-1.20928">
        <ele>496.934506</ele>
        <time>2026-05-22T10:48:01.000Z</time>
      </trkpt>
      <trkpt lat="43.06736" lon="-1.20927">
        <ele>497.075092</ele>
        <time>2026-05-22T10:48:02.000Z</time>
      </trkpt>
      <trkpt lat="43.06735" lon="-1.20925">
        <ele>497.221481</ele>
        <time>2026-05-22T10:48:03.000Z</time>
      </trkpt>
      <trkpt lat="43.06734" lon="-1.20924">
        <ele>497.347145</ele>
        <time>2026-05-22T10:48:04.000Z</time>
      </trkpt>
      <trkpt lat="43.06733" lon="-1.20922">
        <ele>497.505667</ele>
        <time>2026-05-22T10:48:05.000Z</time>
      </trkpt>
      <trkpt lat="43.06732" lon="-1.2092">
        <ele>497.653606</ele>
        <time>2026-05-22T10:48:06.000Z</time>
      </trkpt>
      <trkpt lat="43.06731" lon="-1.20918">
        <ele>497.816912</ele>
        <time>2026-05-22T10:48:07.000Z</time>
      </trkpt>
      <trkpt lat="43.0673" lon="-1.20916">
        <ele>497.957498</ele>
        <time>2026-05-22T10:48:08.000Z</time>
      </trkpt>
      <trkpt lat="43.0673" lon="-1.20915">
        <ele>498.064258</ele>
        <time>2026-05-22T10:48:09.000Z</time>
      </trkpt>
      <trkpt lat="43.06729" lon="-1.20913">
        <ele>498.206024</ele>
        <time>2026-05-22T10:48:10.000Z</time>
      </trkpt>
      <trkpt lat="43.06728" lon="-1.20911">
        <ele>498.362789</ele>
        <time>2026-05-22T10:48:11.000Z</time>
      </trkpt>
      <trkpt lat="43.06728" lon="-1.2091">
        <ele>498.487824</ele>
        <time>2026-05-22T10:48:12.000Z</time>
      </trkpt>
      <trkpt lat="43.06727" lon="-1.20908">
        <ele>498.622618</ele>
        <time>2026-05-22T10:48:13.000Z</time>
      </trkpt>
      <trkpt lat="43.06726" lon="-1.20907">
        <ele>498.728686</ele>
        <time>2026-05-22T10:48:14.000Z</time>
      </trkpt>
      <trkpt lat="43.06725" lon="-1.20905">
        <ele>498.876626</ele>
        <time>2026-05-22T10:48:15.000Z</time>
      </trkpt>
      <trkpt lat="43.06725" lon="-1.20904">
        <ele>498.984535</ele>
        <time>2026-05-22T10:48:16.000Z</time>
      </trkpt>
      <trkpt lat="43.06724" lon="-1.20903">
        <ele>499.11109</ele>
        <time>2026-05-22T10:48:17.000Z</time>
      </trkpt>
      <trkpt lat="43.06722" lon="-1.20903">
        <ele>499.23046</ele>
        <time>2026-05-22T10:48:18.000Z</time>
      </trkpt>
      <trkpt lat="43.06721" lon="-1.20902">
        <ele>499.340773</ele>
        <time>2026-05-22T10:48:19.000Z</time>
      </trkpt>
      <trkpt lat="43.0672" lon="-1.209">
        <ele>499.476897</ele>
        <time>2026-05-22T10:48:20.000Z</time>
      </trkpt>
      <trkpt lat="43.0672" lon="-1.20898">
        <ele>499.614448</ele>
        <time>2026-05-22T10:48:21.000Z</time>
      </trkpt>
      <trkpt lat="43.06719" lon="-1.20897">
        <ele>499.756215</ele>
        <time>2026-05-22T10:48:22.000Z</time>
      </trkpt>
      <trkpt lat="43.06718" lon="-1.20895">
        <ele>499.879784</ele>
        <time>2026-05-22T10:48:23.000Z</time>
      </trkpt>
      <trkpt lat="43.06717" lon="-1.20894">
        <ele>499.981906</ele>
        <time>2026-05-22T10:48:24.000Z</time>
      </trkpt>
      <trkpt lat="43.06716" lon="-1.20893">
        <ele>500.095797</ele>
        <time>2026-05-22T10:48:25.000Z</time>
      </trkpt>
      <trkpt lat="43.06715" lon="-1.20893">
        <ele>500.241227</ele>
        <time>2026-05-22T10:48:26.000Z</time>
      </trkpt>
      <trkpt lat="43.06714" lon="-1.20892">
        <ele>500.356048</ele>
        <time>2026-05-22T10:48:27.000Z</time>
      </trkpt>
      <trkpt lat="43.06713" lon="-1.20892">
        <ele>500.473583</ele>
        <time>2026-05-22T10:48:28.000Z</time>
      </trkpt>
      <trkpt lat="43.06712" lon="-1.20891">
        <ele>500.600604</ele>
        <time>2026-05-22T10:48:29.000Z</time>
      </trkpt>
      <trkpt lat="43.06711" lon="-1.2089">
        <ele>500.734462</ele>
        <time>2026-05-22T10:48:30.000Z</time>
      </trkpt>
      <trkpt lat="43.0671" lon="-1.20888">
        <ele>500.886201</ele>
        <time>2026-05-22T10:48:31.000Z</time>
      </trkpt>
      <trkpt lat="43.06708" lon="-1.20886">
        <ele>501.051197</ele>
        <time>2026-05-22T10:48:32.000Z</time>
      </trkpt>
      <trkpt lat="43.06707" lon="-1.20885">
        <ele>501.189495</ele>
        <time>2026-05-22T10:48:33.000Z</time>
      </trkpt>
      <trkpt lat="43.06706" lon="-1.20884">
        <ele>501.323354</ele>
        <time>2026-05-22T10:48:34.000Z</time>
      </trkpt>
      <trkpt lat="43.06705" lon="-1.20882">
        <ele>501.464532</ele>
        <time>2026-05-22T10:48:35.000Z</time>
      </trkpt>
      <trkpt lat="43.06704" lon="-1.20881">
        <ele>501.610492</ele>
        <time>2026-05-22T10:48:36.000Z</time>
      </trkpt>
      <trkpt lat="43.06703" lon="-1.2088">
        <ele>501.723434</ele>
        <time>2026-05-22T10:48:37.000Z</time>
      </trkpt>
      <trkpt lat="43.06703" lon="-1.20878">
        <ele>501.842005</ele>
        <time>2026-05-22T10:48:38.000Z</time>
      </trkpt>
      <trkpt lat="43.06703" lon="-1.20876">
        <ele>501.956632</ele>
        <time>2026-05-22T10:48:39.000Z</time>
      </trkpt>
      <trkpt lat="43.06702" lon="-1.20875">
        <ele>502.074803</ele>
        <time>2026-05-22T10:48:40.000Z</time>
      </trkpt>
      <trkpt lat="43.06701" lon="-1.20874">
        <ele>502.204443</ele>
        <time>2026-05-22T10:48:41.000Z</time>
      </trkpt>
      <trkpt lat="43.067" lon="-1.20873">
        <ele>502.314756</ele>
        <time>2026-05-22T10:48:42.000Z</time>
      </trkpt>
      <trkpt lat="43.06699" lon="-1.20872">
        <ele>502.44042</ele>
        <time>2026-05-22T10:48:43.000Z</time>
      </trkpt>
      <trkpt lat="43.06698" lon="-1.20871">
        <ele>502.558274</ele>
        <time>2026-05-22T10:48:44.000Z</time>
      </trkpt>
      <trkpt lat="43.06697" lon="-1.2087">
        <ele>502.67055</ele>
        <time>2026-05-22T10:48:45.000Z</time>
      </trkpt>
      <trkpt lat="43.06697" lon="-1.20868">
        <ele>502.817512</ele>
        <time>2026-05-22T10:48:46.000Z</time>
      </trkpt>
      <trkpt lat="43.06696" lon="-1.20866">
        <ele>502.94877</ele>
        <time>2026-05-22T10:48:47.000Z</time>
      </trkpt>
      <trkpt lat="43.06695" lon="-1.20865">
        <ele>503.061047</ele>
        <time>2026-05-22T10:48:48.000Z</time>
      </trkpt>
      <trkpt lat="43.06695" lon="-1.20864">
        <ele>503.151012</ele>
        <time>2026-05-22T10:48:49.000Z</time>
      </trkpt>
      <trkpt lat="43.06694" lon="-1.20862">
        <ele>503.269183</ele>
        <time>2026-05-22T10:48:50.000Z</time>
      </trkpt>
      <trkpt lat="43.06693" lon="-1.20861">
        <ele>503.393351</ele>
        <time>2026-05-22T10:48:51.000Z</time>
      </trkpt>
      <trkpt lat="43.06693" lon="-1.20859">
        <ele>503.504365</ele>
        <time>2026-05-22T10:48:52.000Z</time>
      </trkpt>
      <trkpt lat="43.06693" lon="-1.20858">
        <ele>503.606505</ele>
        <time>2026-05-22T10:48:53.000Z</time>
      </trkpt>
      <trkpt lat="43.06692" lon="-1.20856">
        <ele>503.745876</ele>
        <time>2026-05-22T10:48:54.000Z</time>
      </trkpt>
      <trkpt lat="43.06692" lon="-1.20854">
        <ele>503.898826</ele>
        <time>2026-05-22T10:48:55.000Z</time>
      </trkpt>
      <trkpt lat="43.06693" lon="-1.20852">
        <ele>504.045133</ele>
        <time>2026-05-22T10:48:56.000Z</time>
      </trkpt>
      <trkpt lat="43.06692" lon="-1.20849">
        <ele>504.211965</ele>
        <time>2026-05-22T10:48:57.000Z</time>
      </trkpt>
      <trkpt lat="43.06691" lon="-1.20847">
        <ele>504.391895</ele>
        <time>2026-05-22T10:48:58.000Z</time>
      </trkpt>
      <trkpt lat="43.0669" lon="-1.20845">
        <ele>504.543539</ele>
        <time>2026-05-22T10:48:59.000Z</time>
      </trkpt>
      <trkpt lat="43.06689" lon="-1.20844">
        <ele>504.673196</ele>
        <time>2026-05-22T10:49:00.000Z</time>
      </trkpt>
      <trkpt lat="43.06688" lon="-1.20842">
        <ele>504.814375</ele>
        <time>2026-05-22T10:49:01.000Z</time>
      </trkpt>
      <trkpt lat="43.06687" lon="-1.20841">
        <ele>504.966019</ele>
        <time>2026-05-22T10:49:02.000Z</time>
      </trkpt>
      <trkpt lat="43.06686" lon="-1.20839">
        <ele>505.123449</ele>
        <time>2026-05-22T10:49:03.000Z</time>
      </trkpt>
      <trkpt lat="43.06686" lon="-1.20837">
        <ele>505.264035</ele>
        <time>2026-05-22T10:49:04.000Z</time>
      </trkpt>
      <trkpt lat="43.06685" lon="-1.20835">
        <ele>505.424513</ele>
        <time>2026-05-22T10:49:05.000Z</time>
      </trkpt>
      <trkpt lat="43.06684" lon="-1.20833">
        <ele>505.578069</ele>
        <time>2026-05-22T10:49:06.000Z</time>
      </trkpt>
      <trkpt lat="43.06684" lon="-1.20831">
        <ele>505.730531</ele>
        <time>2026-05-22T10:49:07.000Z</time>
      </trkpt>
      <trkpt lat="43.06683" lon="-1.2083">
        <ele>505.868829</ele>
        <time>2026-05-22T10:49:08.000Z</time>
      </trkpt>
      <trkpt lat="43.06681" lon="-1.20829">
        <ele>506.027606</ele>
        <time>2026-05-22T10:49:09.000Z</time>
      </trkpt>
      <trkpt lat="43.0668" lon="-1.20827">
        <ele>506.170545</ele>
        <time>2026-05-22T10:49:10.000Z</time>
      </trkpt>
      <trkpt lat="43.06679" lon="-1.20826">
        <ele>506.296209</ele>
        <time>2026-05-22T10:49:11.000Z</time>
      </trkpt>
      <trkpt lat="43.06678" lon="-1.20825">
        <ele>506.445424</ele>
        <time>2026-05-22T10:49:12.000Z</time>
      </trkpt>
      <trkpt lat="43.06676" lon="-1.20823">
        <ele>506.607227</ele>
        <time>2026-05-22T10:49:13.000Z</time>
      </trkpt>
      <trkpt lat="43.06675" lon="-1.20822">
        <ele>506.774611</ele>
        <time>2026-05-22T10:49:14.000Z</time>
      </trkpt>
      <trkpt lat="43.06673" lon="-1.20821">
        <ele>506.945707</ele>
        <time>2026-05-22T10:49:15.000Z</time>
      </trkpt>
      <trkpt lat="43.06672" lon="-1.2082">
        <ele>507.072262</ele>
        <time>2026-05-22T10:49:16.000Z</time>
      </trkpt>
      <trkpt lat="43.06671" lon="-1.20818">
        <ele>507.227491</ele>
        <time>2026-05-22T10:49:17.000Z</time>
      </trkpt>
      <trkpt lat="43.06669" lon="-1.20817">
        <ele>507.410204</ele>
        <time>2026-05-22T10:49:18.000Z</time>
      </trkpt>
      <trkpt lat="43.06668" lon="-1.20815">
        <ele>507.583193</ele>
        <time>2026-05-22T10:49:19.000Z</time>
      </trkpt>
      <trkpt lat="43.06667" lon="-1.20814">
        <ele>507.751402</ele>
        <time>2026-05-22T10:49:20.000Z</time>
      </trkpt>
      <trkpt lat="43.06666" lon="-1.20812">
        <ele>507.891231</ele>
        <time>2026-05-22T10:49:21.000Z</time>
      </trkpt>
      <trkpt lat="43.06665" lon="-1.20812">
        <ele>507.998474</ele>
        <time>2026-05-22T10:49:22.000Z</time>
      </trkpt>
      <trkpt lat="43.06664" lon="-1.20811">
        <ele>508.117632</ele>
        <time>2026-05-22T10:49:23.000Z</time>
      </trkpt>
      <trkpt lat="43.06663" lon="-1.2081">
        <ele>508.203277</ele>
        <time>2026-05-22T10:49:24.000Z</time>
      </trkpt>
      <trkpt lat="43.06662" lon="-1.20809">
        <ele>508.298604</ele>
        <time>2026-05-22T10:49:25.000Z</time>
      </trkpt>
      <trkpt lat="43.06661" lon="-1.20808">
        <ele>508.442013</ele>
        <time>2026-05-22T10:49:26.000Z</time>
      </trkpt>
      <trkpt lat="43.06659" lon="-1.20807">
        <ele>508.620751</ele>
        <time>2026-05-22T10:49:27.000Z</time>
      </trkpt>
      <trkpt lat="43.06658" lon="-1.20805">
        <ele>508.793739</ele>
        <time>2026-05-22T10:49:28.000Z</time>
      </trkpt>
      <trkpt lat="43.06657" lon="-1.20804">
        <ele>508.929079</ele>
        <time>2026-05-22T10:49:29.000Z</time>
      </trkpt>
      <trkpt lat="43.06656" lon="-1.20802">
        <ele>509.085439</ele>
        <time>2026-05-22T10:49:30.000Z</time>
      </trkpt>
      <trkpt lat="43.06655" lon="-1.20801">
        <ele>509.211858</ele>
        <time>2026-05-22T10:49:31.000Z</time>
      </trkpt>
      <trkpt lat="43.06655" lon="-1.20799">
        <ele>509.325951</ele>
        <time>2026-05-22T10:49:32.000Z</time>
      </trkpt>
      <trkpt lat="43.06654" lon="-1.20798">
        <ele>509.457026</ele>
        <time>2026-05-22T10:49:33.000Z</time>
      </trkpt>
      <trkpt lat="43.06652" lon="-1.20797">
        <ele>509.5881</ele>
        <time>2026-05-22T10:49:34.000Z</time>
      </trkpt>
      <trkpt lat="43.06651" lon="-1.20796">
        <ele>509.722512</ele>
        <time>2026-05-22T10:49:35.000Z</time>
      </trkpt>
      <trkpt lat="43.0665" lon="-1.20796">
        <ele>509.84802</ele>
        <time>2026-05-22T10:49:36.000Z</time>
      </trkpt>
      <trkpt lat="43.06649" lon="-1.20795">
        <ele>509.959465</ele>
        <time>2026-05-22T10:49:37.000Z</time>
      </trkpt>
      <trkpt lat="43.06648" lon="-1.20794">
        <ele>510.082901</ele>
        <time>2026-05-22T10:49:38.000Z</time>
      </trkpt>
      <trkpt lat="43.06647" lon="-1.20792">
        <ele>510.208794</ele>
        <time>2026-05-22T10:49:39.000Z</time>
      </trkpt>
      <trkpt lat="43.06646" lon="-1.20791">
        <ele>510.335849</ele>
        <time>2026-05-22T10:49:40.000Z</time>
      </trkpt>
      <trkpt lat="43.06645" lon="-1.20791">
        <ele>510.45654</ele>
        <time>2026-05-22T10:49:41.000Z</time>
      </trkpt>
      <trkpt lat="43.06644" lon="-1.2079">
        <ele>510.556175</ele>
        <time>2026-05-22T10:49:42.000Z</time>
      </trkpt>
      <trkpt lat="43.06643" lon="-1.20789">
        <ele>510.665279</ele>
        <time>2026-05-22T10:49:43.000Z</time>
      </trkpt>
      <trkpt lat="43.06643" lon="-1.20787">
        <ele>510.787604</ele>
        <time>2026-05-22T10:49:44.000Z</time>
      </trkpt>
      <trkpt lat="43.06642" lon="-1.20786">
        <ele>510.899138</ele>
        <time>2026-05-22T10:49:45.000Z</time>
      </trkpt>
      <trkpt lat="43.06641" lon="-1.20785">
        <ele>511.030213</ele>
        <time>2026-05-22T10:49:46.000Z</time>
      </trkpt>
      <trkpt lat="43.0664" lon="-1.20785">
        <ele>511.144145</ele>
        <time>2026-05-22T10:49:47.000Z</time>
      </trkpt>
      <trkpt lat="43.06638" lon="-1.20784">
        <ele>511.291197</ele>
        <time>2026-05-22T10:49:48.000Z</time>
      </trkpt>
      <trkpt lat="43.06637" lon="-1.20783">
        <ele>511.426371</ele>
        <time>2026-05-22T10:49:49.000Z</time>
      </trkpt>
      <trkpt lat="43.06636" lon="-1.20782">
        <ele>511.549294</ele>
        <time>2026-05-22T10:49:50.000Z</time>
      </trkpt>
      <trkpt lat="43.06635" lon="-1.20781">
        <ele>511.676348</ele>
        <time>2026-05-22T10:49:51.000Z</time>
      </trkpt>
      <trkpt lat="43.06634" lon="-1.2078">
        <ele>511.787882</ele>
        <time>2026-05-22T10:49:52.000Z</time>
      </trkpt>
      <trkpt lat="43.06633" lon="-1.20779">
        <ele>511.895125</ele>
        <time>2026-05-22T10:49:53.000Z</time>
      </trkpt>
      <trkpt lat="43.06632" lon="-1.20778">
        <ele>512.023082</ele>
        <time>2026-05-22T10:49:54.000Z</time>
      </trkpt>
      <trkpt lat="43.06631" lon="-1.20777">
        <ele>512.12268</ele>
        <time>2026-05-22T10:49:55.000Z</time>
      </trkpt>
      <trkpt lat="43.0663" lon="-1.20777">
        <ele>512.228519</ele>
        <time>2026-05-22T10:49:56.000Z</time>
      </trkpt>
      <trkpt lat="43.06628" lon="-1.20776">
        <ele>512.381002</ele>
        <time>2026-05-22T10:49:57.000Z</time>
      </trkpt>
      <trkpt lat="43.06627" lon="-1.20776">
        <ele>512.524411</ele>
        <time>2026-05-22T10:49:58.000Z</time>
      </trkpt>
      <trkpt lat="43.06626" lon="-1.20775">
        <ele>512.647716</ele>
        <time>2026-05-22T10:49:59.000Z</time>
      </trkpt>
      <trkpt lat="43.06625" lon="-1.20774">
        <ele>512.767566</ele>
        <time>2026-05-22T10:50:00.000Z</time>
      </trkpt>
      <trkpt lat="43.06623" lon="-1.20774">
        <ele>512.905173</ele>
        <time>2026-05-22T10:50:01.000Z</time>
      </trkpt>
      <trkpt lat="43.06622" lon="-1.20773">
        <ele>513.024008</ele>
        <time>2026-05-22T10:50:02.000Z</time>
      </trkpt>
      <trkpt lat="43.06621" lon="-1.20773">
        <ele>513.180502</ele>
        <time>2026-05-22T10:50:03.000Z</time>
      </trkpt>
      <trkpt lat="43.0662" lon="-1.20772">
        <ele>513.291947</ele>
        <time>2026-05-22T10:50:04.000Z</time>
      </trkpt>
      <trkpt lat="43.06619" lon="-1.20771">
        <ele>513.423022</ele>
        <time>2026-05-22T10:50:05.000Z</time>
      </trkpt>
      <trkpt lat="43.06617" lon="-1.2077">
        <ele>513.554678</ele>
        <time>2026-05-22T10:50:06.000Z</time>
      </trkpt>
      <trkpt lat="43.06616" lon="-1.20769">
        <ele>513.694849</ele>
        <time>2026-05-22T10:50:07.000Z</time>
      </trkpt>
      <trkpt lat="43.06615" lon="-1.20768">
        <ele>513.818154</ele>
        <time>2026-05-22T10:50:08.000Z</time>
      </trkpt>
      <trkpt lat="43.06614" lon="-1.20767">
        <ele>513.94611</ele>
        <time>2026-05-22T10:50:09.000Z</time>
      </trkpt>
      <trkpt lat="43.06613" lon="-1.20766">
        <ele>514.082552</ele>
        <time>2026-05-22T10:50:10.000Z</time>
      </trkpt>
      <trkpt lat="43.06612" lon="-1.20764">
        <ele>514.235971</ele>
        <time>2026-05-22T10:50:11.000Z</time>
      </trkpt>
      <trkpt lat="43.06611" lon="-1.20762">
        <ele>514.378713</ele>
        <time>2026-05-22T10:50:12.000Z</time>
      </trkpt>
      <trkpt lat="43.0661" lon="-1.20761">
        <ele>514.475209</ele>
        <time>2026-05-22T10:50:13.000Z</time>
      </trkpt>
      <trkpt lat="43.0661" lon="-1.2076">
        <ele>514.555348</ele>
        <time>2026-05-22T10:50:14.000Z</time>
      </trkpt>
      <trkpt lat="43.06609" lon="-1.2076">
        <ele>514.663417</ele>
        <time>2026-05-22T10:50:15.000Z</time>
      </trkpt>
      <trkpt lat="43.06608" lon="-1.20759">
        <ele>514.782576</ele>
        <time>2026-05-22T10:50:16.000Z</time>
      </trkpt>
      <trkpt lat="43.06607" lon="-1.20757">
        <ele>514.913669</ele>
        <time>2026-05-22T10:50:17.000Z</time>
      </trkpt>
      <trkpt lat="43.06606" lon="-1.20756">
        <ele>515.025203</ele>
        <time>2026-05-22T10:50:18.000Z</time>
      </trkpt>
      <trkpt lat="43.06605" lon="-1.20755">
        <ele>515.157899</ele>
        <time>2026-05-22T10:50:19.000Z</time>
      </trkpt>
      <trkpt lat="43.06604" lon="-1.20753">
        <ele>515.300641</ele>
        <time>2026-05-22T10:50:20.000Z</time>
      </trkpt>
      <trkpt lat="43.06603" lon="-1.20752">
        <ele>515.459795</ele>
        <time>2026-05-22T10:50:21.000Z</time>
      </trkpt>
      <trkpt lat="43.06602" lon="-1.2075">
        <ele>515.628006</ele>
        <time>2026-05-22T10:50:22.000Z</time>
      </trkpt>
      <trkpt lat="43.06601" lon="-1.20748">
        <ele>515.798365</ele>
        <time>2026-05-22T10:50:23.000Z</time>
      </trkpt>
      <trkpt lat="43.066" lon="-1.20747">
        <ele>515.953271</ele>
        <time>2026-05-22T10:50:24.000Z</time>
      </trkpt>
      <trkpt lat="43.06598" lon="-1.20746">
        <ele>516.131305</ele>
        <time>2026-05-22T10:50:25.000Z</time>
      </trkpt>
      <trkpt lat="43.06596" lon="-1.20745">
        <ele>516.313396</ele>
        <time>2026-05-22T10:50:26.000Z</time>
      </trkpt>
      <trkpt lat="43.06595" lon="-1.20743">
        <ele>516.461406</ele>
        <time>2026-05-22T10:50:27.000Z</time>
      </trkpt>
      <trkpt lat="43.06594" lon="-1.20742">
        <ele>516.610803</ele>
        <time>2026-05-22T10:50:28.000Z</time>
      </trkpt>
      <trkpt lat="43.06593" lon="-1.2074">
        <ele>516.781944</ele>
        <time>2026-05-22T10:50:29.000Z</time>
      </trkpt>
      <trkpt lat="43.06592" lon="-1.20738">
        <ele>516.931522</ele>
        <time>2026-05-22T10:50:30.000Z</time>
      </trkpt>
      <trkpt lat="43.06592" lon="-1.20736">
        <ele>517.0835</ele>
        <time>2026-05-22T10:50:31.000Z</time>
      </trkpt>
      <trkpt lat="43.06591" lon="-1.20734">
        <ele>517.287931</ele>
        <time>2026-05-22T10:50:32.000Z</time>
      </trkpt>
      <trkpt lat="43.06589" lon="-1.20732">
        <ele>517.432453</ele>
        <time>2026-05-22T10:50:33.000Z</time>
      </trkpt>
      <trkpt lat="43.06589" lon="-1.20731">
        <ele>517.558347</ele>
        <time>2026-05-22T10:50:34.000Z</time>
      </trkpt>
      <trkpt lat="43.06588" lon="-1.20729">
        <ele>517.70029</ele>
        <time>2026-05-22T10:50:35.000Z</time>
      </trkpt>
      <trkpt lat="43.06587" lon="-1.20728">
        <ele>517.842434</ele>
        <time>2026-05-22T10:50:36.000Z</time>
      </trkpt>
      <trkpt lat="43.06586" lon="-1.20726">
        <ele>517.991831</ele>
        <time>2026-05-22T10:50:37.000Z</time>
      </trkpt>
      <trkpt lat="43.06585" lon="-1.20725">
        <ele>518.131661</ele>
        <time>2026-05-22T10:50:38.000Z</time>
      </trkpt>
      <trkpt lat="43.06583" lon="-1.20724">
        <ele>518.283602</ele>
        <time>2026-05-22T10:50:39.000Z</time>
      </trkpt>
      <trkpt lat="43.06582" lon="-1.20722">
        <ele>518.442558</ele>
        <time>2026-05-22T10:50:40.000Z</time>
      </trkpt>
      <trkpt lat="43.06582" lon="-1.2072">
        <ele>518.568979</ele>
        <time>2026-05-22T10:50:41.000Z</time>
      </trkpt>
      <trkpt lat="43.06581" lon="-1.20719">
        <ele>518.697798</ele>
        <time>2026-05-22T10:50:42.000Z</time>
      </trkpt>
      <trkpt lat="43.0658" lon="-1.20717">
        <ele>518.818686</ele>
        <time>2026-05-22T10:50:43.000Z</time>
      </trkpt>
      <trkpt lat="43.06579" lon="-1.20716">
        <ele>518.968083</ele>
        <time>2026-05-22T10:50:44.000Z</time>
      </trkpt>
      <trkpt lat="43.06578" lon="-1.20715">
        <ele>519.100779</ele>
        <time>2026-05-22T10:50:45.000Z</time>
      </trkpt>
      <trkpt lat="43.06577" lon="-1.20714">
        <ele>519.231854</ele>
        <time>2026-05-22T10:50:46.000Z</time>
      </trkpt>
      <trkpt lat="43.06576" lon="-1.20712">
        <ele>519.376376</ele>
        <time>2026-05-22T10:50:47.000Z</time>
      </trkpt>
      <trkpt lat="43.06575" lon="-1.20711">
        <ele>519.509072</ele>
        <time>2026-05-22T10:50:48.000Z</time>
      </trkpt>
      <trkpt lat="43.06574" lon="-1.2071">
        <ele>519.656319</ele>
        <time>2026-05-22T10:50:49.000Z</time>
      </trkpt>
      <trkpt lat="43.06573" lon="-1.20708">
        <ele>519.815949</ele>
        <time>2026-05-22T10:50:50.000Z</time>
      </trkpt>
      <trkpt lat="43.06572" lon="-1.20706">
        <ele>519.946496</ele>
        <time>2026-05-22T10:50:51.000Z</time>
      </trkpt>
      <trkpt lat="43.06571" lon="-1.20705">
        <ele>520.073551</ele>
        <time>2026-05-22T10:50:52.000Z</time>
      </trkpt>
      <trkpt lat="43.0657" lon="-1.20704">
        <ele>520.208726</ele>
        <time>2026-05-22T10:50:53.000Z</time>
      </trkpt>
      <trkpt lat="43.06568" lon="-1.20703">
        <ele>520.351717</ele>
        <time>2026-05-22T10:50:54.000Z</time>
      </trkpt>
      <trkpt lat="43.06567" lon="-1.20702">
        <ele>520.494708</ele>
        <time>2026-05-22T10:50:55.000Z</time>
      </trkpt>
      <trkpt lat="43.06566" lon="-1.20701">
        <ele>520.60986</ele>
        <time>2026-05-22T10:50:56.000Z</time>
      </trkpt>
      <trkpt lat="43.06565" lon="-1.207">
        <ele>520.721395</ele>
        <time>2026-05-22T10:50:57.000Z</time>
      </trkpt>
      <trkpt lat="43.06564" lon="-1.20699">
        <ele>520.859026</ele>
        <time>2026-05-22T10:50:58.000Z</time>
      </trkpt>
      <trkpt lat="43.06563" lon="-1.20697">
        <ele>521.01235</ele>
        <time>2026-05-22T10:50:59.000Z</time>
      </trkpt>
      <trkpt lat="43.06563" lon="-1.20695">
        <ele>521.161929</ele>
        <time>2026-05-22T10:51:00.000Z</time>
      </trkpt>
      <trkpt lat="43.06562" lon="-1.20693">
        <ele>521.320885</ele>
        <time>2026-05-22T10:51:01.000Z</time>
      </trkpt>
      <trkpt lat="43.06561" lon="-1.20691">
        <ele>521.474209</ele>
        <time>2026-05-22T10:51:02.000Z</time>
      </trkpt>
      <trkpt lat="43.0656" lon="-1.2069">
        <ele>521.599147</ele>
        <time>2026-05-22T10:51:03.000Z</time>
      </trkpt>
      <trkpt lat="43.06559" lon="-1.20688">
        <ele>521.73632</ele>
        <time>2026-05-22T10:51:04.000Z</time>
      </trkpt>
      <trkpt lat="43.06558" lon="-1.20687">
        <ele>521.879062</ele>
        <time>2026-05-22T10:51:05.000Z</time>
      </trkpt>
      <trkpt lat="43.06557" lon="-1.20685">
        <ele>522.010148</ele>
        <time>2026-05-22T10:51:06.000Z</time>
      </trkpt>
      <trkpt lat="43.06556" lon="-1.20684">
        <ele>522.166509</ele>
        <time>2026-05-22T10:51:07.000Z</time>
      </trkpt>
      <trkpt lat="43.06555" lon="-1.20682">
        <ele>522.325683</ele>
        <time>2026-05-22T10:51:08.000Z</time>
      </trkpt>
      <trkpt lat="43.06554" lon="-1.2068">
        <ele>522.461971</ele>
        <time>2026-05-22T10:51:09.000Z</time>
      </trkpt>
      <trkpt lat="43.06554" lon="-1.20679">
        <ele>522.571076</ele>
        <time>2026-05-22T10:51:10.000Z</time>
      </trkpt>
      <trkpt lat="43.06553" lon="-1.20678">
        <ele>522.694512</ele>
        <time>2026-05-22T10:51:11.000Z</time>
      </trkpt>
      <trkpt lat="43.06552" lon="-1.20677">
        <ele>522.8308</ele>
        <time>2026-05-22T10:51:12.000Z</time>
      </trkpt>
      <trkpt lat="43.06551" lon="-1.20676">
        <ele>522.965975</ele>
        <time>2026-05-22T10:51:13.000Z</time>
      </trkpt>
      <trkpt lat="43.0655" lon="-1.20674">
        <ele>523.101316</ele>
        <time>2026-05-22T10:51:14.000Z</time>
      </trkpt>
      <trkpt lat="43.06548" lon="-1.20673">
        <ele>523.240276</ele>
        <time>2026-05-22T10:51:15.000Z</time>
      </trkpt>
      <trkpt lat="43.06547" lon="-1.20672">
        <ele>523.383267</ele>
        <time>2026-05-22T10:51:16.000Z</time>
      </trkpt>
      <trkpt lat="43.06546" lon="-1.20671">
        <ele>523.502748</ele>
        <time>2026-05-22T10:51:17.000Z</time>
      </trkpt>
      <trkpt lat="43.06546" lon="-1.2067">
        <ele>523.616942</ele>
        <time>2026-05-22T10:51:18.000Z</time>
      </trkpt>
      <trkpt lat="43.06545" lon="-1.20668">
        <ele>523.736194</ele>
        <time>2026-05-22T10:51:19.000Z</time>
      </trkpt>
      <trkpt lat="43.06544" lon="-1.20667">
        <ele>523.866741</ele>
        <time>2026-05-22T10:51:20.000Z</time>
      </trkpt>
      <trkpt lat="43.06543" lon="-1.20665">
        <ele>524.003914</ele>
        <time>2026-05-22T10:51:21.000Z</time>
      </trkpt>
      <trkpt lat="43.06543" lon="-1.20663">
        <ele>524.119811</ele>
        <time>2026-05-22T10:51:22.000Z</time>
      </trkpt>
      <trkpt lat="43.06542" lon="-1.20662">
        <ele>524.244927</ele>
        <time>2026-05-22T10:51:23.000Z</time>
      </trkpt>
      <trkpt lat="43.06541" lon="-1.20661">
        <ele>524.383887</ele>
        <time>2026-05-22T10:51:24.000Z</time>
      </trkpt>
      <trkpt lat="43.0654" lon="-1.20659">
        <ele>524.507655</ele>
        <time>2026-05-22T10:51:25.000Z</time>
      </trkpt>
      <trkpt lat="43.06539" lon="-1.20658">
        <ele>524.641507</ele>
        <time>2026-05-22T10:51:26.000Z</time>
      </trkpt>
      <trkpt lat="43.06538" lon="-1.20657">
        <ele>524.759447</ele>
        <time>2026-05-22T10:51:27.000Z</time>
      </trkpt>
      <trkpt lat="43.06538" lon="-1.20655">
        <ele>524.877613</ele>
        <time>2026-05-22T10:51:28.000Z</time>
      </trkpt>
      <trkpt lat="43.06537" lon="-1.20654">
        <ele>525.013277</ele>
        <time>2026-05-22T10:51:29.000Z</time>
      </trkpt>
      <trkpt lat="43.06536" lon="-1.20652">
        <ele>525.176531</ele>
        <time>2026-05-22T10:51:30.000Z</time>
      </trkpt>
      <trkpt lat="43.06536" lon="-1.2065">
        <ele>525.314078</ele>
        <time>2026-05-22T10:51:31.000Z</time>
      </trkpt>
      <trkpt lat="43.06535" lon="-1.20648">
        <ele>525.467629</ele>
        <time>2026-05-22T10:51:32.000Z</time>
      </trkpt>
      <trkpt lat="43.06534" lon="-1.20646">
        <ele>525.597273</ele>
        <time>2026-05-22T10:51:33.000Z</time>
      </trkpt>
      <trkpt lat="43.06533" lon="-1.20645">
        <ele>525.731125</ele>
        <time>2026-05-22T10:51:34.000Z</time>
      </trkpt>
      <trkpt lat="43.06532" lon="-1.20644">
        <ele>525.889893</ele>
        <time>2026-05-22T10:51:35.000Z</time>
      </trkpt>
      <trkpt lat="43.0653" lon="-1.20643">
        <ele>526.04708</ele>
        <time>2026-05-22T10:51:36.000Z</time>
      </trkpt>
      <trkpt lat="43.06529" lon="-1.20642">
        <ele>526.185372</ele>
        <time>2026-05-22T10:51:37.000Z</time>
      </trkpt>
      <trkpt lat="43.06528" lon="-1.2064">
        <ele>526.316609</ele>
        <time>2026-05-22T10:51:38.000Z</time>
      </trkpt>
      <trkpt lat="43.06527" lon="-1.20639">
        <ele>526.447845</ele>
        <time>2026-05-22T10:51:39.000Z</time>
      </trkpt>
      <trkpt lat="43.06526" lon="-1.20638">
        <ele>526.601049</ele>
        <time>2026-05-22T10:51:40.000Z</time>
      </trkpt>
      <trkpt lat="43.06524" lon="-1.20636">
        <ele>526.766378</ele>
        <time>2026-05-22T10:51:41.000Z</time>
      </trkpt>
      <trkpt lat="43.06523" lon="-1.20635">
        <ele>526.937465</ele>
        <time>2026-05-22T10:51:42.000Z</time>
      </trkpt>
      <trkpt lat="43.06522" lon="-1.20633">
        <ele>527.101804</ele>
        <time>2026-05-22T10:51:43.000Z</time>
      </trkpt>
      <trkpt lat="43.06521" lon="-1.20632">
        <ele>527.259208</ele>
        <time>2026-05-22T10:51:44.000Z</time>
      </trkpt>
      <trkpt lat="43.06519" lon="-1.2063">
        <ele>527.400626</ele>
        <time>2026-05-22T10:51:45.000Z</time>
      </trkpt>
      <trkpt lat="43.06518" lon="-1.20629">
        <ele>527.534479</ele>
        <time>2026-05-22T10:51:46.000Z</time>
      </trkpt>
      <trkpt lat="43.06517" lon="-1.20628">
        <ele>527.656428</ele>
        <time>2026-05-22T10:51:47.000Z</time>
      </trkpt>
      <trkpt lat="43.06517" lon="-1.20627">
        <ele>527.763329</ele>
        <time>2026-05-22T10:51:48.000Z</time>
      </trkpt>
      <trkpt lat="43.06516" lon="-1.20626">
        <ele>527.864744</ele>
        <time>2026-05-22T10:51:49.000Z</time>
      </trkpt>
      <trkpt lat="43.06515" lon="-1.20625">
        <ele>527.998433</ele>
        <time>2026-05-22T10:51:50.000Z</time>
      </trkpt>
      <trkpt lat="43.06513" lon="-1.20624">
        <ele>528.151636</ele>
        <time>2026-05-22T10:51:51.000Z</time>
      </trkpt>
      <trkpt lat="43.06513" lon="-1.20623">
        <ele>528.266452</ele>
        <time>2026-05-22T10:51:52.000Z</time>
      </trkpt>
      <trkpt lat="43.06512" lon="-1.20621">
        <ele>528.393002</ele>
        <time>2026-05-22T10:51:53.000Z</time>
      </trkpt>
      <trkpt lat="43.06511" lon="-1.2062">
        <ele>528.524239</ele>
        <time>2026-05-22T10:51:54.000Z</time>
      </trkpt>
      <trkpt lat="43.0651" lon="-1.20619">
        <ele>528.643127</ele>
        <time>2026-05-22T10:51:55.000Z</time>
      </trkpt>
      <trkpt lat="43.0651" lon="-1.20617">
        <ele>528.767291</ele>
        <time>2026-05-22T10:51:56.000Z</time>
      </trkpt>
      <trkpt lat="43.06509" lon="-1.20615">
        <ele>528.90208</ele>
        <time>2026-05-22T10:51:57.000Z</time>
      </trkpt>
      <trkpt lat="43.06508" lon="-1.20614">
        <ele>529.037022</ele>
        <time>2026-05-22T10:51:58.000Z</time>
      </trkpt>
      <trkpt lat="43.06507" lon="-1.20612">
        <ele>529.18866</ele>
        <time>2026-05-22T10:51:59.000Z</time>
      </trkpt>
      <trkpt lat="43.06506" lon="-1.2061">
        <ele>529.307548</ele>
        <time>2026-05-22T10:52:00.000Z</time>
      </trkpt>
      <trkpt lat="43.06506" lon="-1.20609">
        <ele>529.402327</ele>
        <time>2026-05-22T10:52:01.000Z</time>
      </trkpt>
      <trkpt lat="43.06505" lon="-1.20608">
        <ele>529.514599</ele>
        <time>2026-05-22T10:52:02.000Z</time>
      </trkpt>
      <trkpt lat="43.06505" lon="-1.20606">
        <ele>529.635581</ele>
        <time>2026-05-22T10:52:03.000Z</time>
      </trkpt>
      <trkpt lat="43.06504" lon="-1.20605">
        <ele>529.746592</ele>
        <time>2026-05-22T10:52:04.000Z</time>
      </trkpt>
      <trkpt lat="43.06504" lon="-1.20603">
        <ele>529.861215</ele>
        <time>2026-05-22T10:52:05.000Z</time>
      </trkpt>
      <trkpt lat="43.06503" lon="-1.20602">
        <ele>529.990859</ele>
        <time>2026-05-22T10:52:06.000Z</time>
      </trkpt>
      <trkpt lat="43.06502" lon="-1.206">
        <ele>530.138794</ele>
        <time>2026-05-22T10:52:07.000Z</time>
      </trkpt>
      <trkpt lat="43.06502" lon="-1.20598">
        <ele>530.262534</ele>
        <time>2026-05-22T10:52:08.000Z</time>
      </trkpt>
      <trkpt lat="43.06501" lon="-1.20597">
        <ele>530.392187</ele>
        <time>2026-05-22T10:52:09.000Z</time>
      </trkpt>
      <trkpt lat="43.065" lon="-1.20596">
        <ele>530.504459</ele>
        <time>2026-05-22T10:52:10.000Z</time>
      </trkpt>
      <trkpt lat="43.06499" lon="-1.20595">
        <ele>530.631474</ele>
        <time>2026-05-22T10:52:11.000Z</time>
      </trkpt>
      <trkpt lat="43.06498" lon="-1.20594">
        <ele>530.739378</ele>
        <time>2026-05-22T10:52:12.000Z</time>
      </trkpt>
      <trkpt lat="43.06497" lon="-1.20592">
        <ele>530.862943</ele>
        <time>2026-05-22T10:52:13.000Z</time>
      </trkpt>
      <trkpt lat="43.06496" lon="-1.20591">
        <ele>531.010698</ele>
        <time>2026-05-22T10:52:14.000Z</time>
      </trkpt>
      <trkpt lat="43.06496" lon="-1.20589">
        <ele>531.145487</ele>
        <time>2026-05-22T10:52:15.000Z</time>
      </trkpt>
      <trkpt lat="43.06494" lon="-1.20588">
        <ele>531.275121</ele>
        <time>2026-05-22T10:52:16.000Z</time>
      </trkpt>
      <trkpt lat="43.06493" lon="-1.20587">
        <ele>531.425391</ele>
        <time>2026-05-22T10:52:17.000Z</time>
      </trkpt>
      <trkpt lat="43.06492" lon="-1.20586">
        <ele>531.549131</ele>
        <time>2026-05-22T10:52:18.000Z</time>
      </trkpt>
      <trkpt lat="43.06492" lon="-1.20584">
        <ele>531.67993</ele>
        <time>2026-05-22T10:52:19.000Z</time>
      </trkpt>
      <trkpt lat="43.06491" lon="-1.20582">
        <ele>531.832387</ele>
        <time>2026-05-22T10:52:20.000Z</time>
      </trkpt>
      <trkpt lat="43.06491" lon="-1.2058">
        <ele>531.95979</ele>
        <time>2026-05-22T10:52:21.000Z</time>
      </trkpt>
      <trkpt lat="43.0649" lon="-1.20579">
        <ele>532.05583</ele>
        <time>2026-05-22T10:52:22.000Z</time>
      </trkpt>
      <trkpt lat="43.0649" lon="-1.20577">
        <ele>532.187084</ele>
        <time>2026-05-22T10:52:23.000Z</time>
      </trkpt>
      <trkpt lat="43.06489" lon="-1.20575">
        <ele>532.328846</ele>
        <time>2026-05-22T10:52:24.000Z</time>
      </trkpt>
      <trkpt lat="43.06488" lon="-1.20574">
        <ele>532.452587</ele>
        <time>2026-05-22T10:52:25.000Z</time>
      </trkpt>
      <trkpt lat="43.06487" lon="-1.20572">
        <ele>532.576327</ele>
        <time>2026-05-22T10:52:26.000Z</time>
      </trkpt>
      <trkpt lat="43.06487" lon="-1.20571">
        <ele>532.711117</ele>
        <time>2026-05-22T10:52:27.000Z</time>
      </trkpt>
      <trkpt lat="43.06486" lon="-1.20569">
        <ele>532.851514</ele>
        <time>2026-05-22T10:52:28.000Z</time>
      </trkpt>
      <trkpt lat="43.06486" lon="-1.20567">
        <ele>532.978918</ele>
        <time>2026-05-22T10:52:29.000Z</time>
      </trkpt>
      <trkpt lat="43.06485" lon="-1.20565">
        <ele>533.12282</ele>
        <time>2026-05-22T10:52:30.000Z</time>
      </trkpt>
      <trkpt lat="43.06485" lon="-1.20563">
        <ele>533.263217</ele>
        <time>2026-05-22T10:52:31.000Z</time>
      </trkpt>
      <trkpt lat="43.06484" lon="-1.20562">
        <ele>533.403615</ele>
        <time>2026-05-22T10:52:32.000Z</time>
      </trkpt>
      <trkpt lat="43.06483" lon="-1.2056">
        <ele>533.53487</ele>
        <time>2026-05-22T10:52:33.000Z</time>
      </trkpt>
      <trkpt lat="43.06483" lon="-1.20558">
        <ele>533.692294</ele>
        <time>2026-05-22T10:52:34.000Z</time>
      </trkpt>
      <trkpt lat="43.06482" lon="-1.20556">
        <ele>533.829842</ele>
        <time>2026-05-22T10:52:35.000Z</time>
      </trkpt>
      <trkpt lat="43.06482" lon="-1.20554">
        <ele>533.987454</ele>
        <time>2026-05-22T10:52:36.000Z</time>
      </trkpt>
      <trkpt lat="43.06481" lon="-1.20552">
        <ele>534.118253</ele>
        <time>2026-05-22T10:52:37.000Z</time>
      </trkpt>
      <trkpt lat="43.06481" lon="-1.2055">
        <ele>534.252131</ele>
        <time>2026-05-22T10:52:38.000Z</time>
      </trkpt>
      <trkpt lat="43.0648" lon="-1.20549">
        <ele>534.381775</ele>
        <time>2026-05-22T10:52:39.000Z</time>
      </trkpt>
      <trkpt lat="43.06479" lon="-1.20547">
        <ele>534.522159</ele>
        <time>2026-05-22T10:52:40.000Z</time>
      </trkpt>
      <trkpt lat="43.06478" lon="-1.20546">
        <ele>534.6459</ele>
        <time>2026-05-22T10:52:41.000Z</time>
      </trkpt>
      <trkpt lat="43.06478" lon="-1.20544">
        <ele>534.779778</ele>
        <time>2026-05-22T10:52:42.000Z</time>
      </trkpt>
      <trkpt lat="43.06477" lon="-1.20542">
        <ele>534.930086</ele>
        <time>2026-05-22T10:52:43.000Z</time>
      </trkpt>
      <trkpt lat="43.06476" lon="-1.2054">
        <ele>535.065751</ele>
        <time>2026-05-22T10:52:44.000Z</time>
      </trkpt>
      <trkpt lat="43.06476" lon="-1.20539">
        <ele>535.194863</ele>
        <time>2026-05-22T10:52:45.000Z</time>
      </trkpt>
      <trkpt lat="43.06475" lon="-1.20537">
        <ele>535.345172</ele>
        <time>2026-05-22T10:52:46.000Z</time>
      </trkpt>
      <trkpt lat="43.06475" lon="-1.20535">
        <ele>535.48933</ele>
        <time>2026-05-22T10:52:47.000Z</time>
      </trkpt>
      <trkpt lat="43.06474" lon="-1.20533">
        <ele>535.62447</ele>
        <time>2026-05-22T10:52:48.000Z</time>
      </trkpt>
      <trkpt lat="43.06474" lon="-1.20531">
        <ele>535.784943</ele>
        <time>2026-05-22T10:52:49.000Z</time>
      </trkpt>
      <trkpt lat="43.06473" lon="-1.20529">
        <ele>535.92249</ele>
        <time>2026-05-22T10:52:50.000Z</time>
      </trkpt>
      <trkpt lat="43.06473" lon="-1.20527">
        <ele>536.066649</ele>
        <time>2026-05-22T10:52:51.000Z</time>
      </trkpt>
      <trkpt lat="43.06472" lon="-1.20525">
        <ele>536.200527</ele>
        <time>2026-05-22T10:52:52.000Z</time>
      </trkpt>
      <trkpt lat="43.06471" lon="-1.20523">
        <ele>536.338075</ele>
        <time>2026-05-22T10:52:53.000Z</time>
      </trkpt>
      <trkpt lat="43.06471" lon="-1.20521">
        <ele>536.498547</ele>
        <time>2026-05-22T10:52:54.000Z</time>
      </trkpt>
      <trkpt lat="43.0647" lon="-1.2052">
        <ele>536.650186</ele>
        <time>2026-05-22T10:52:55.000Z</time>
      </trkpt>
      <trkpt lat="43.06469" lon="-1.20518">
        <ele>536.780985</ele>
        <time>2026-05-22T10:52:56.000Z</time>
      </trkpt>
      <trkpt lat="43.06469" lon="-1.20516">
        <ele>536.931294</ele>
        <time>2026-05-22T10:52:57.000Z</time>
      </trkpt>
      <trkpt lat="43.06468" lon="-1.20514">
        <ele>537.09983</ele>
        <time>2026-05-22T10:52:58.000Z</time>
      </trkpt>
      <trkpt lat="43.06467" lon="-1.20512">
        <ele>537.243732</ele>
        <time>2026-05-22T10:52:59.000Z</time>
      </trkpt>
      <trkpt lat="43.06467" lon="-1.2051">
        <ele>537.397859</ele>
        <time>2026-05-22T10:53:00.000Z</time>
      </trkpt>
      <trkpt lat="43.06467" lon="-1.20507">
        <ele>537.55804</ele>
        <time>2026-05-22T10:53:01.000Z</time>
      </trkpt>
      <trkpt lat="43.06467" lon="-1.20506">
        <ele>537.693181</ele>
        <time>2026-05-22T10:53:02.000Z</time>
      </trkpt>
      <trkpt lat="43.06466" lon="-1.20504">
        <ele>537.833579</ele>
        <time>2026-05-22T10:53:03.000Z</time>
      </trkpt>
      <trkpt lat="43.06465" lon="-1.20502">
        <ele>537.979533</ele>
        <time>2026-05-22T10:53:04.000Z</time>
      </trkpt>
      <trkpt lat="43.06464" lon="-1.205">
        <ele>538.148941</ele>
        <time>2026-05-22T10:53:05.000Z</time>
      </trkpt>
      <trkpt lat="43.06463" lon="-1.20499">
        <ele>538.291874</ele>
        <time>2026-05-22T10:53:06.000Z</time>
      </trkpt>
      <trkpt lat="43.06462" lon="-1.20497">
        <ele>538.439629</ele>
        <time>2026-05-22T10:53:07.000Z</time>
      </trkpt>
      <trkpt lat="43.06461" lon="-1.20496">
        <ele>538.594271</ele>
        <time>2026-05-22T10:53:08.000Z</time>
      </trkpt>
      <trkpt lat="43.0646" lon="-1.20494">
        <ele>538.754744</ele>
        <time>2026-05-22T10:53:09.000Z</time>
      </trkpt>
      <trkpt lat="43.06459" lon="-1.20492">
        <ele>538.902679</ele>
        <time>2026-05-22T10:53:10.000Z</time>
      </trkpt>
      <trkpt lat="43.06458" lon="-1.2049">
        <ele>539.049154</ele>
        <time>2026-05-22T10:53:11.000Z</time>
      </trkpt>
      <trkpt lat="43.06458" lon="-1.20488">
        <ele>539.19709</ele>
        <time>2026-05-22T10:53:12.000Z</time>
      </trkpt>
      <trkpt lat="43.06457" lon="-1.20487">
        <ele>539.309931</ele>
        <time>2026-05-22T10:53:13.000Z</time>
      </trkpt>
      <trkpt lat="43.06456" lon="-1.20485">
        <ele>539.478418</ele>
        <time>2026-05-22T10:53:14.000Z</time>
      </trkpt>
      <trkpt lat="43.06455" lon="-1.20483">
        <ele>539.636937</ele>
        <time>2026-05-22T10:53:15.000Z</time>
      </trkpt>
      <trkpt lat="43.06454" lon="-1.20481">
        <ele>539.788671</ele>
        <time>2026-05-22T10:53:16.000Z</time>
      </trkpt>
      <trkpt lat="43.06453" lon="-1.20479">
        <ele>539.969644</ele>
        <time>2026-05-22T10:53:17.000Z</time>
      </trkpt>
      <trkpt lat="43.06452" lon="-1.20477">
        <ele>540.111406</ele>
        <time>2026-05-22T10:53:18.000Z</time>
      </trkpt>
      <trkpt lat="43.06452" lon="-1.20475">
        <ele>540.292162</ele>
        <time>2026-05-22T10:53:19.000Z</time>
      </trkpt>
      <trkpt lat="43.06452" lon="-1.20474">
        <ele>540.382229</ele>
        <time>2026-05-22T10:53:20.000Z</time>
      </trkpt>
      <trkpt lat="43.06451" lon="-1.20472">
        <ele>540.503814</ele>
        <time>2026-05-22T10:53:21.000Z</time>
      </trkpt>
      <trkpt lat="43.06451" lon="-1.2047">
        <ele>540.673601</ele>
        <time>2026-05-22T10:53:22.000Z</time>
      </trkpt>
      <trkpt lat="43.0645" lon="-1.20468">
        <ele>540.827776</ele>
        <time>2026-05-22T10:53:23.000Z</time>
      </trkpt>
      <trkpt lat="43.0645" lon="-1.20466">
        <ele>540.965325</ele>
        <time>2026-05-22T10:53:24.000Z</time>
      </trkpt>
      <trkpt lat="43.06449" lon="-1.20464">
        <ele>541.111279</ele>
        <time>2026-05-22T10:53:25.000Z</time>
      </trkpt>
      <trkpt lat="43.06448" lon="-1.20462">
        <ele>541.28054</ele>
        <time>2026-05-22T10:53:26.000Z</time>
      </trkpt>
      <trkpt lat="43.06447" lon="-1.2046">
        <ele>541.437303</ele>
        <time>2026-05-22T10:53:27.000Z</time>
      </trkpt>
      <trkpt lat="43.06447" lon="-1.20457">
        <ele>541.612657</ele>
        <time>2026-05-22T10:53:28.000Z</time>
      </trkpt>
      <trkpt lat="43.06446" lon="-1.20455">
        <ele>541.797136</ele>
        <time>2026-05-22T10:53:29.000Z</time>
      </trkpt>
      <trkpt lat="43.06445" lon="-1.20454">
        <ele>541.947406</ele>
        <time>2026-05-22T10:53:30.000Z</time>
      </trkpt>
      <trkpt lat="43.06444" lon="-1.20452">
        <ele>542.107969</ele>
        <time>2026-05-22T10:53:31.000Z</time>
      </trkpt>
      <trkpt lat="43.06443" lon="-1.2045">
        <ele>542.277632</ele>
        <time>2026-05-22T10:53:32.000Z</time>
      </trkpt>
      <trkpt lat="43.06443" lon="-1.20447">
        <ele>542.4476</ele>
        <time>2026-05-22T10:53:33.000Z</time>
      </trkpt>
      <trkpt lat="43.06442" lon="-1.20445">
        <ele>542.624056</ele>
        <time>2026-05-22T10:53:34.000Z</time>
      </trkpt>
      <trkpt lat="43.06441" lon="-1.20443">
        <ele>542.810576</ele>
        <time>2026-05-22T10:53:35.000Z</time>
      </trkpt>
      <trkpt lat="43.0644" lon="-1.20441">
        <ele>542.981932</ele>
        <time>2026-05-22T10:53:36.000Z</time>
      </trkpt>
      <trkpt lat="43.0644" lon="-1.20439">
        <ele>543.132387</ele>
        <time>2026-05-22T10:53:37.000Z</time>
      </trkpt>
      <trkpt lat="43.06439" lon="-1.20437">
        <ele>543.265413</ele>
        <time>2026-05-22T10:53:38.000Z</time>
      </trkpt>
      <trkpt lat="43.06439" lon="-1.20435">
        <ele>543.386326</ele>
        <time>2026-05-22T10:53:39.000Z</time>
      </trkpt>
      <trkpt lat="43.06438" lon="-1.20433">
        <ele>543.532678</ele>
        <time>2026-05-22T10:53:40.000Z</time>
      </trkpt>
      <trkpt lat="43.06437" lon="-1.20432">
        <ele>543.669763</ele>
        <time>2026-05-22T10:53:41.000Z</time>
      </trkpt>
      <trkpt lat="43.06437" lon="-1.2043">
        <ele>543.795432</ele>
        <time>2026-05-22T10:53:42.000Z</time>
      </trkpt>
      <trkpt lat="43.06435" lon="-1.20429">
        <ele>543.950773</ele>
        <time>2026-05-22T10:53:43.000Z</time>
      </trkpt>
      <trkpt lat="43.06434" lon="-1.20427">
        <ele>544.09435</ele>
        <time>2026-05-22T10:53:44.000Z</time>
      </trkpt>
      <trkpt lat="43.06433" lon="-1.20426">
        <ele>544.214206</ele>
        <time>2026-05-22T10:53:45.000Z</time>
      </trkpt>
      <trkpt lat="43.06433" lon="-1.20425">
        <ele>544.329067</ele>
        <time>2026-05-22T10:53:46.000Z</time>
      </trkpt>
      <trkpt lat="43.06432" lon="-1.20423">
        <ele>544.472043</ele>
        <time>2026-05-22T10:53:47.000Z</time>
      </trkpt>
      <trkpt lat="43.06431" lon="-1.20422">
        <ele>544.620482</ele>
        <time>2026-05-22T10:53:48.000Z</time>
      </trkpt>
      <trkpt lat="43.0643" lon="-1.20421">
        <ele>544.74464</ele>
        <time>2026-05-22T10:53:49.000Z</time>
      </trkpt>
      <trkpt lat="43.06429" lon="-1.20419">
        <ele>544.880771</ele>
        <time>2026-05-22T10:53:50.000Z</time>
      </trkpt>
      <trkpt lat="43.06428" lon="-1.20418">
        <ele>544.997543</ele>
        <time>2026-05-22T10:53:51.000Z</time>
      </trkpt>
      <trkpt lat="43.06427" lon="-1.20417">
        <ele>545.134783</ele>
        <time>2026-05-22T10:53:52.000Z</time>
      </trkpt>
      <trkpt lat="43.06426" lon="-1.20416">
        <ele>545.249644</ele>
        <time>2026-05-22T10:53:53.000Z</time>
      </trkpt>
      <trkpt lat="43.06426" lon="-1.20414">
        <ele>545.363828</ele>
        <time>2026-05-22T10:53:54.000Z</time>
      </trkpt>
      <trkpt lat="43.06425" lon="-1.20413">
        <ele>545.501068</ele>
        <time>2026-05-22T10:53:55.000Z</time>
      </trkpt>
      <trkpt lat="43.06424" lon="-1.20411">
        <ele>545.655289</ele>
        <time>2026-05-22T10:53:56.000Z</time>
      </trkpt>
      <trkpt lat="43.06423" lon="-1.20409">
        <ele>545.793264</ele>
        <time>2026-05-22T10:53:57.000Z</time>
      </trkpt>
      <trkpt lat="43.06422" lon="-1.20408">
        <ele>545.920425</ele>
        <time>2026-05-22T10:53:58.000Z</time>
      </trkpt>
      <trkpt lat="43.06422" lon="-1.20406">
        <ele>546.046272</ele>
        <time>2026-05-22T10:53:59.000Z</time>
      </trkpt>
      <trkpt lat="43.06421" lon="-1.20405">
        <ele>546.184248</ele>
        <time>2026-05-22T10:54:00.000Z</time>
      </trkpt>
      <trkpt lat="43.0642" lon="-1.20403">
        <ele>546.344134</ele>
        <time>2026-05-22T10:54:01.000Z</time>
      </trkpt>
      <trkpt lat="43.06419" lon="-1.20401">
        <ele>546.510057</ele>
        <time>2026-05-22T10:54:02.000Z</time>
      </trkpt>
      <trkpt lat="43.06418" lon="-1.20399">
        <ele>546.664278</ele>
        <time>2026-05-22T10:54:03.000Z</time>
      </trkpt>
      <trkpt lat="43.06417" lon="-1.20398">
        <ele>546.801518</ele>
        <time>2026-05-22T10:54:04.000Z</time>
      </trkpt>
      <trkpt lat="43.06416" lon="-1.20397">
        <ele>546.94129</ele>
        <time>2026-05-22T10:54:05.000Z</time>
      </trkpt>
      <trkpt lat="43.06415" lon="-1.20395">
        <ele>547.09156</ele>
        <time>2026-05-22T10:54:06.000Z</time>
      </trkpt>
      <trkpt lat="43.06414" lon="-1.20393">
        <ele>547.228645</ele>
        <time>2026-05-22T10:54:07.000Z</time>
      </trkpt>
      <trkpt lat="43.06413" lon="-1.20392">
        <ele>547.348595</ele>
        <time>2026-05-22T10:54:08.000Z</time>
      </trkpt>
      <trkpt lat="43.06413" lon="-1.2039">
        <ele>547.48568</ele>
        <time>2026-05-22T10:54:09.000Z</time>
      </trkpt>
      <trkpt lat="43.06412" lon="-1.20389">
        <ele>547.636135</ele>
        <time>2026-05-22T10:54:10.000Z</time>
      </trkpt>
      <trkpt lat="43.06411" lon="-1.20387">
        <ele>547.765709</ele>
        <time>2026-05-22T10:54:11.000Z</time>
      </trkpt>
      <trkpt lat="43.06411" lon="-1.20385">
        <ele>547.899199</ele>
        <time>2026-05-22T10:54:12.000Z</time>
      </trkpt>
      <trkpt lat="43.0641" lon="-1.20383">
        <ele>548.039089</ele>
        <time>2026-05-22T10:54:13.000Z</time>
      </trkpt>
      <trkpt lat="43.06409" lon="-1.20382">
        <ele>548.164937</ele>
        <time>2026-05-22T10:54:14.000Z</time>
      </trkpt>
      <trkpt lat="43.06409" lon="-1.2038">
        <ele>548.298428</ele>
        <time>2026-05-22T10:54:15.000Z</time>
      </trkpt>
      <trkpt lat="43.06408" lon="-1.20379">
        <ele>548.429739</ele>
        <time>2026-05-22T10:54:16.000Z</time>
      </trkpt>
      <trkpt lat="43.06407" lon="-1.20377">
        <ele>548.5569</ele>
        <time>2026-05-22T10:54:17.000Z</time>
      </trkpt>
      <trkpt lat="43.06407" lon="-1.20375">
        <ele>548.694341</ele>
        <time>2026-05-22T10:54:18.000Z</time>
      </trkpt>
      <trkpt lat="43.06407" lon="-1.20373">
        <ele>548.845635</ele>
        <time>2026-05-22T10:54:19.000Z</time>
      </trkpt>
      <trkpt lat="43.06406" lon="-1.20371">
        <ele>548.977496</ele>
        <time>2026-05-22T10:54:20.000Z</time>
      </trkpt>
      <trkpt lat="43.06405" lon="-1.2037">
        <ele>549.131814</ele>
        <time>2026-05-22T10:54:21.000Z</time>
      </trkpt>
      <trkpt lat="43.06404" lon="-1.20368">
        <ele>549.304107</ele>
        <time>2026-05-22T10:54:22.000Z</time>
      </trkpt>
      <trkpt lat="43.06403" lon="-1.20366">
        <ele>549.447684</ele>
        <time>2026-05-22T10:54:23.000Z</time>
      </trkpt>
      <trkpt lat="43.06402" lon="-1.20365">
        <ele>549.576389</ele>
        <time>2026-05-22T10:54:24.000Z</time>
      </trkpt>
      <trkpt lat="43.06401" lon="-1.20364">
        <ele>549.708241</ele>
        <time>2026-05-22T10:54:25.000Z</time>
      </trkpt>
      <trkpt lat="43.064" lon="-1.20362">
        <ele>549.862462</ele>
        <time>2026-05-22T10:54:26.000Z</time>
      </trkpt>
      <trkpt lat="43.06399" lon="-1.2036">
        <ele>550.005237</ele>
        <time>2026-05-22T10:54:27.000Z</time>
      </trkpt>
      <trkpt lat="43.06398" lon="-1.20359">
        <ele>550.148213</ele>
        <time>2026-05-22T10:54:28.000Z</time>
      </trkpt>
      <trkpt lat="43.06398" lon="-1.20357">
        <ele>550.303267</ele>
        <time>2026-05-22T10:54:29.000Z</time>
      </trkpt>
      <trkpt lat="43.06397" lon="-1.20355">
        <ele>550.458321</ele>
        <time>2026-05-22T10:54:30.000Z</time>
      </trkpt>
      <trkpt lat="43.06396" lon="-1.20353">
        <ele>550.595406</ele>
        <time>2026-05-22T10:54:31.000Z</time>
      </trkpt>
      <trkpt lat="43.06395" lon="-1.20351">
        <ele>550.741759</ele>
        <time>2026-05-22T10:54:32.000Z</time>
      </trkpt>
      <trkpt lat="43.06395" lon="-1.2035">
        <ele>550.884735</ele>
        <time>2026-05-22T10:54:33.000Z</time>
      </trkpt>
      <trkpt lat="43.06394" lon="-1.20348">
        <ele>551.021976</ele>
        <time>2026-05-22T10:54:34.000Z</time>
      </trkpt>
      <trkpt lat="43.06393" lon="-1.20347">
        <ele>551.150681</ele>
        <time>2026-05-22T10:54:35.000Z</time>
      </trkpt>
      <trkpt lat="43.06392" lon="-1.20346">
        <ele>551.289117</ele>
        <time>2026-05-22T10:54:36.000Z</time>
      </trkpt>
      <trkpt lat="43.06391" lon="-1.20344">
        <ele>551.414966</ele>
        <time>2026-05-22T10:54:37.000Z</time>
      </trkpt>
      <trkpt lat="43.06391" lon="-1.20343">
        <ele>551.525148</ele>
        <time>2026-05-22T10:54:38.000Z</time>
      </trkpt>
      <trkpt lat="43.0639" lon="-1.20341">
        <ele>551.63387</ele>
        <time>2026-05-22T10:54:39.000Z</time>
      </trkpt>
      <trkpt lat="43.06389" lon="-1.2034">
        <ele>551.73872</ele>
        <time>2026-05-22T10:54:40.000Z</time>
      </trkpt>
      <trkpt lat="43.06388" lon="-1.2034">
        <ele>551.826975</ele>
        <time>2026-05-22T10:54:41.000Z</time>
      </trkpt>
      <trkpt lat="43.06388" lon="-1.20338">
        <ele>551.947155</ele>
        <time>2026-05-22T10:54:42.000Z</time>
      </trkpt>
      <trkpt lat="43.06387" lon="-1.20337">
        <ele>552.073785</ele>
        <time>2026-05-22T10:54:43.000Z</time>
      </trkpt>
      <trkpt lat="43.06386" lon="-1.20336">
        <ele>552.214433</ele>
        <time>2026-05-22T10:54:44.000Z</time>
      </trkpt>
      <trkpt lat="43.06384" lon="-1.20335">
        <ele>552.366181</ele>
        <time>2026-05-22T10:54:45.000Z</time>
      </trkpt>
      <trkpt lat="43.06383" lon="-1.20334">
        <ele>552.486037</ele>
        <time>2026-05-22T10:54:46.000Z</time>
      </trkpt>
      <trkpt lat="43.06382" lon="-1.20332">
        <ele>552.631404</ele>
        <time>2026-05-22T10:54:47.000Z</time>
      </trkpt>
      <trkpt lat="43.06381" lon="-1.20331">
        <ele>552.757074</ele>
        <time>2026-05-22T10:54:48.000Z</time>
      </trkpt>
      <trkpt lat="43.0638" lon="-1.2033">
        <ele>552.901393</ele>
        <time>2026-05-22T10:54:49.000Z</time>
      </trkpt>
      <trkpt lat="43.06379" lon="-1.20329">
        <ele>553.051082</ele>
        <time>2026-05-22T10:54:50.000Z</time>
      </trkpt>
      <trkpt lat="43.06377" lon="-1.20328">
        <ele>553.198994</ele>
        <time>2026-05-22T10:54:51.000Z</time>
      </trkpt>
      <trkpt lat="43.06376" lon="-1.20327">
        <ele>553.323152</ele>
        <time>2026-05-22T10:54:52.000Z</time>
      </trkpt>
      <trkpt lat="43.06375" lon="-1.20326">
        <ele>553.443007</ele>
        <time>2026-05-22T10:54:53.000Z</time>
      </trkpt>
      <trkpt lat="43.06374" lon="-1.20324">
        <ele>553.600283</ele>
        <time>2026-05-22T10:54:54.000Z</time>
      </trkpt>
      <trkpt lat="43.06373" lon="-1.20323">
        <ele>553.740055</ele>
        <time>2026-05-22T10:54:55.000Z</time>
      </trkpt>
      <trkpt lat="43.06372" lon="-1.20321">
        <ele>553.882831</ele>
        <time>2026-05-22T10:54:56.000Z</time>
      </trkpt>
      <trkpt lat="43.06372" lon="-1.2032">
        <ele>554.009992</ele>
        <time>2026-05-22T10:54:57.000Z</time>
      </trkpt>
      <trkpt lat="43.06371" lon="-1.20319">
        <ele>554.122088</ele>
        <time>2026-05-22T10:54:58.000Z</time>
      </trkpt>
      <trkpt lat="43.06369" lon="-1.20318">
        <ele>554.262736</ele>
        <time>2026-05-22T10:54:59.000Z</time>
      </trkpt>
      <trkpt lat="43.06369" lon="-1.20316">
        <ele>554.389898</ele>
        <time>2026-05-22T10:55:00.000Z</time>
      </trkpt>
      <trkpt lat="43.06368" lon="-1.20315">
        <ele>554.49964</ele>
        <time>2026-05-22T10:55:01.000Z</time>
      </trkpt>
      <trkpt lat="43.06367" lon="-1.20314">
        <ele>554.603496</ele>
        <time>2026-05-22T10:55:02.000Z</time>
      </trkpt>
      <trkpt lat="43.06366" lon="-1.20313">
        <ele>554.740582</ele>
        <time>2026-05-22T10:55:03.000Z</time>
      </trkpt>
      <trkpt lat="43.06366" lon="-1.20311">
        <ele>554.897384</ele>
        <time>2026-05-22T10:55:04.000Z</time>
      </trkpt>
      <trkpt lat="43.06365" lon="-1.20309">
        <ele>555.063468</ele>
        <time>2026-05-22T10:55:05.000Z</time>
      </trkpt>
      <trkpt lat="43.06364" lon="-1.20307">
        <ele>555.240471</ele>
        <time>2026-05-22T10:55:06.000Z</time>
      </trkpt>
      <trkpt lat="43.06362" lon="-1.20305">
        <ele>555.423459</ele>
        <time>2026-05-22T10:55:07.000Z</time>
      </trkpt>
      <trkpt lat="43.06361" lon="-1.20302">
        <ele>555.635893</ele>
        <time>2026-05-22T10:55:08.000Z</time>
      </trkpt>
      <trkpt lat="43.06361" lon="-1.20301">
        <ele>555.756073</ele>
        <time>2026-05-22T10:55:09.000Z</time>
      </trkpt>
      <trkpt lat="43.0636" lon="-1.203">
        <ele>555.863943</ele>
        <time>2026-05-22T10:55:10.000Z</time>
      </trkpt>
      <trkpt lat="43.06359" lon="-1.20298">
        <ele>556.007521</ele>
        <time>2026-05-22T10:55:11.000Z</time>
      </trkpt>
      <trkpt lat="43.06358" lon="-1.20297">
        <ele>556.127701</ele>
        <time>2026-05-22T10:55:12.000Z</time>
      </trkpt>
      <trkpt lat="43.06357" lon="-1.20295">
        <ele>556.281922</ele>
        <time>2026-05-22T10:55:13.000Z</time>
      </trkpt>
      <trkpt lat="43.06356" lon="-1.20293">
        <ele>556.424713</ele>
        <time>2026-05-22T10:55:14.000Z</time>
      </trkpt>
      <trkpt lat="43.06356" lon="-1.20292">
        <ele>556.554288</ele>
        <time>2026-05-22T10:55:15.000Z</time>
      </trkpt>
      <trkpt lat="43.06355" lon="-1.2029">
        <ele>556.66905</ele>
        <time>2026-05-22T10:55:16.000Z</time>
      </trkpt>
      <trkpt lat="43.06355" lon="-1.20289">
        <ele>556.777773</ele>
        <time>2026-05-22T10:55:17.000Z</time>
      </trkpt>
      <trkpt lat="43.06354" lon="-1.20288">
        <ele>556.877992</ele>
        <time>2026-05-22T10:55:18.000Z</time>
      </trkpt>
      <trkpt lat="43.06353" lon="-1.20287">
        <ele>557.009845</ele>
        <time>2026-05-22T10:55:19.000Z</time>
      </trkpt>
      <trkpt lat="43.06352" lon="-1.20285">
        <ele>557.153672</ele>
        <time>2026-05-22T10:55:20.000Z</time>
      </trkpt>
      <trkpt lat="43.06351" lon="-1.20284">
        <ele>557.297499</ele>
        <time>2026-05-22T10:55:21.000Z</time>
      </trkpt>
      <trkpt lat="43.0635" lon="-1.20283">
        <ele>557.424661</ele>
        <time>2026-05-22T10:55:22.000Z</time>
      </trkpt>
      <trkpt lat="43.06349" lon="-1.20281">
        <ele>557.551822</ele>
        <time>2026-05-22T10:55:23.000Z</time>
      </trkpt>
      <trkpt lat="43.06349" lon="-1.20279">
        <ele>557.694613</ele>
        <time>2026-05-22T10:55:24.000Z</time>
      </trkpt>
      <trkpt lat="43.06349" lon="-1.20278">
        <ele>557.804574</ele>
        <time>2026-05-22T10:55:25.000Z</time>
      </trkpt>
      <trkpt lat="43.06348" lon="-1.20276">
        <ele>557.936437</ele>
        <time>2026-05-22T10:55:26.000Z</time>
      </trkpt>
      <trkpt lat="43.06347" lon="-1.20274">
        <ele>558.059481</ele>
        <time>2026-05-22T10:55:27.000Z</time>
      </trkpt>
      <trkpt lat="43.06347" lon="-1.20273">
        <ele>558.180396</ele>
        <time>2026-05-22T10:55:28.000Z</time>
      </trkpt>
      <trkpt lat="43.06346" lon="-1.20272">
        <ele>558.301992</ele>
        <time>2026-05-22T10:55:29.000Z</time>
      </trkpt>
      <trkpt lat="43.06345" lon="-1.2027">
        <ele>558.447359</ele>
        <time>2026-05-22T10:55:30.000Z</time>
      </trkpt>
      <trkpt lat="43.06344" lon="-1.20268">
        <ele>558.604161</ele>
        <time>2026-05-22T10:55:31.000Z</time>
      </trkpt>
      <trkpt lat="43.06343" lon="-1.20267">
        <ele>558.742137</ele>
        <time>2026-05-22T10:55:32.000Z</time>
      </trkpt>
      <trkpt lat="43.06342" lon="-1.20265">
        <ele>558.891015</ele>
        <time>2026-05-22T10:55:33.000Z</time>
      </trkpt>
      <trkpt lat="43.06342" lon="-1.20264">
        <ele>558.971168</ele>
        <time>2026-05-22T10:55:34.000Z</time>
      </trkpt>
      <trkpt lat="43.06341" lon="-1.20262">
        <ele>559.033811</ele>
        <time>2026-05-22T10:55:35.000Z</time>
      </trkpt>
      <trkpt lat="43.0634" lon="-1.20261">
        <ele>559.066952</ele>
        <time>2026-05-22T10:55:36.000Z</time>
      </trkpt>
      <trkpt lat="43.06341" lon="-1.20261">
        <ele>559.086058</ele>
        <time>2026-05-22T10:55:37.000Z</time>
      </trkpt>
      <trkpt lat="43.06343" lon="-1.20259">
        <ele>559.217282</ele>
        <time>2026-05-22T11:04:57.000Z</time>
      </trkpt>
      <trkpt lat="43.06342" lon="-1.20257">
        <ele>559.286622</ele>
        <time>2026-05-22T11:04:58.000Z</time>
      </trkpt>
      <trkpt lat="43.06342" lon="-1.20255">
        <ele>559.389277</ele>
        <time>2026-05-22T11:04:59.000Z</time>
      </trkpt>
      <trkpt lat="43.06341" lon="-1.20253">
        <ele>559.449097</ele>
        <time>2026-05-22T11:05:00.000Z</time>
      </trkpt>
      <trkpt lat="43.0634" lon="-1.20252">
        <ele>559.512478</ele>
        <time>2026-05-22T11:05:01.000Z</time>
      </trkpt>
      <trkpt lat="43.0634" lon="-1.2025">
        <ele>559.574803</ele>
        <time>2026-05-22T11:05:02.000Z</time>
      </trkpt>
      <trkpt lat="43.06339" lon="-1.20249">
        <ele>559.64353</ele>
        <time>2026-05-22T11:05:03.000Z</time>
      </trkpt>
      <trkpt lat="43.06339" lon="-1.20247">
        <ele>559.710632</ele>
        <time>2026-05-22T11:05:04.000Z</time>
      </trkpt>
      <trkpt lat="43.06338" lon="-1.20245">
        <ele>559.790314</ele>
        <time>2026-05-22T11:05:05.000Z</time>
      </trkpt>
      <trkpt lat="43.06337" lon="-1.20243">
        <ele>559.874349</ele>
        <time>2026-05-22T11:05:06.000Z</time>
      </trkpt>
      <trkpt lat="43.06337" lon="-1.20241">
        <ele>559.947267</ele>
        <time>2026-05-22T11:05:07.000Z</time>
      </trkpt>
      <trkpt lat="43.06336" lon="-1.20239">
        <ele>560.021695</ele>
        <time>2026-05-22T11:05:08.000Z</time>
      </trkpt>
      <trkpt lat="43.06336" lon="-1.20238">
        <ele>560.092667</ele>
        <time>2026-05-22T11:05:09.000Z</time>
      </trkpt>
      <trkpt lat="43.06335" lon="-1.20236">
        <ele>560.165585</ele>
        <time>2026-05-22T11:05:10.000Z</time>
      </trkpt>
      <trkpt lat="43.06335" lon="-1.20234">
        <ele>560.241871</ele>
        <time>2026-05-22T11:05:11.000Z</time>
      </trkpt>
      <trkpt lat="43.06334" lon="-1.20232">
        <ele>560.320295</ele>
        <time>2026-05-22T11:05:12.000Z</time>
      </trkpt>
      <trkpt lat="43.06333" lon="-1.2023">
        <ele>560.401697</ele>
        <time>2026-05-22T11:05:13.000Z</time>
      </trkpt>
      <trkpt lat="43.06333" lon="-1.20228">
        <ele>560.473338</ele>
        <time>2026-05-22T11:05:14.000Z</time>
      </trkpt>
      <trkpt lat="43.06333" lon="-1.20226">
        <ele>560.5522</ele>
        <time>2026-05-22T11:05:15.000Z</time>
      </trkpt>
      <trkpt lat="43.06333" lon="-1.20224">
        <ele>560.631061</ele>
        <time>2026-05-22T11:05:16.000Z</time>
      </trkpt>
      <trkpt lat="43.06332" lon="-1.20222">
        <ele>560.714616</ele>
        <time>2026-05-22T11:05:17.000Z</time>
      </trkpt>
      <trkpt lat="43.06332" lon="-1.2022">
        <ele>560.792522</ele>
        <time>2026-05-22T11:05:18.000Z</time>
      </trkpt>
      <trkpt lat="43.06331" lon="-1.20217">
        <ele>560.879068</ele>
        <time>2026-05-22T11:05:19.000Z</time>
      </trkpt>
      <trkpt lat="43.0633" lon="-1.20215">
        <ele>560.972555</ele>
        <time>2026-05-22T11:05:20.000Z</time>
      </trkpt>
      <trkpt lat="43.0633" lon="-1.20212">
        <ele>561.075211</ele>
        <time>2026-05-22T11:05:21.000Z</time>
      </trkpt>
      <trkpt lat="43.0633" lon="-1.20209">
        <ele>561.189573</ele>
        <time>2026-05-22T11:05:22.000Z</time>
      </trkpt>
      <trkpt lat="43.06329" lon="-1.20206">
        <ele>561.304207</ele>
        <time>2026-05-22T11:05:23.000Z</time>
      </trkpt>
      <trkpt lat="43.06328" lon="-1.20203">
        <ele>561.421907</ele>
        <time>2026-05-22T11:05:24.000Z</time>
      </trkpt>
      <trkpt lat="43.06328" lon="-1.202">
        <ele>561.543076</ele>
        <time>2026-05-22T11:05:25.000Z</time>
      </trkpt>
      <trkpt lat="43.06327" lon="-1.20197">
        <ele>561.667285</ele>
        <time>2026-05-22T11:05:26.000Z</time>
      </trkpt>
      <trkpt lat="43.06327" lon="-1.20193">
        <ele>561.794207</ele>
        <time>2026-05-22T11:05:27.000Z</time>
      </trkpt>
      <trkpt lat="43.06326" lon="-1.2019">
        <ele>561.906599</ele>
        <time>2026-05-22T11:05:28.000Z</time>
      </trkpt>
      <trkpt lat="43.06326" lon="-1.20188">
        <ele>562.012831</ele>
        <time>2026-05-22T11:05:29.000Z</time>
      </trkpt>
      <trkpt lat="43.06325" lon="-1.20185">
        <ele>562.107152</ele>
        <time>2026-05-22T11:05:30.000Z</time>
      </trkpt>
      <trkpt lat="43.06325" lon="-1.20183">
        <ele>562.193699</ele>
        <time>2026-05-22T11:05:31.000Z</time>
      </trkpt>
      <trkpt lat="43.06324" lon="-1.20181">
        <ele>562.282135</ele>
        <time>2026-05-22T11:05:32.000Z</time>
      </trkpt>
      <trkpt lat="43.06323" lon="-1.20179">
        <ele>562.362957</ele>
        <time>2026-05-22T11:05:33.000Z</time>
      </trkpt>
      <trkpt lat="43.06323" lon="-1.20178">
        <ele>562.419628</ele>
        <time>2026-05-22T11:05:34.000Z</time>
      </trkpt>
      <trkpt lat="43.06322" lon="-1.20175">
        <ele>562.499611</ele>
        <time>2026-05-22T11:05:35.000Z</time>
      </trkpt>
      <trkpt lat="43.06322" lon="-1.20173">
        <ele>562.577171</ele>
        <time>2026-05-22T11:05:36.000Z</time>
      </trkpt>
      <trkpt lat="43.06322" lon="-1.20171">
        <ele>562.658252</ele>
        <time>2026-05-22T11:05:37.000Z</time>
      </trkpt>
      <trkpt lat="43.06322" lon="-1.20169">
        <ele>562.729894</ele>
        <time>2026-05-22T11:05:38.000Z</time>
      </trkpt>
      <trkpt lat="43.06321" lon="-1.20168">
        <ele>562.780487</ele>
        <time>2026-05-22T11:05:39.000Z</time>
      </trkpt>
      <trkpt lat="43.0632" lon="-1.20168">
        <ele>562.835566</ele>
        <time>2026-05-22T11:05:40.000Z</time>
      </trkpt>
      <trkpt lat="43.06319" lon="-1.20167">
        <ele>562.903684</ele>
        <time>2026-05-22T11:05:41.000Z</time>
      </trkpt>
      <trkpt lat="43.06318" lon="-1.20166">
        <ele>562.957818</ele>
        <time>2026-05-22T11:05:42.000Z</time>
      </trkpt>
      <trkpt lat="43.06317" lon="-1.20166">
        <ele>563.003836</ele>
        <time>2026-05-22T11:05:43.000Z</time>
      </trkpt>
      <trkpt lat="43.06317" lon="-1.20165">
        <ele>563.054877</ele>
        <time>2026-05-22T11:05:44.000Z</time>
      </trkpt>
      <trkpt lat="43.06316" lon="-1.20164">
        <ele>563.081673</ele>
        <time>2026-05-22T11:05:45.000Z</time>
      </trkpt>
      <trkpt lat="43.06313" lon="-1.20161">
        <ele>563.304425</ele>
        <time>2026-05-22T11:07:53.000Z</time>
      </trkpt>
      <trkpt lat="43.06311" lon="-1.20158">
        <ele>563.411951</ele>
        <time>2026-05-22T11:07:54.000Z</time>
      </trkpt>
      <trkpt lat="43.06309" lon="-1.20155">
        <ele>563.577262</ele>
        <time>2026-05-22T11:07:55.000Z</time>
      </trkpt>
      <trkpt lat="43.06315" lon="-1.20152">
        <ele>563.904238</ele>
        <time>2026-05-22T11:07:56.000Z</time>
      </trkpt>
      <trkpt lat="43.06319" lon="-1.20149">
        <ele>564.160957</ele>
        <time>2026-05-22T11:07:57.000Z</time>
      </trkpt>
      <trkpt lat="43.06324" lon="-1.20148">
        <ele>564.416419</ele>
        <time>2026-05-22T11:07:58.000Z</time>
      </trkpt>
      <trkpt lat="43.06328" lon="-1.20146">
        <ele>564.598746</ele>
        <time>2026-05-22T11:07:59.000Z</time>
      </trkpt>
      <trkpt lat="43.06331" lon="-1.20145">
        <ele>564.771246</ele>
        <time>2026-05-22T11:08:00.000Z</time>
      </trkpt>
      <trkpt lat="43.06335" lon="-1.20139">
        <ele>565.072214</ele>
        <time>2026-05-22T11:08:01.000Z</time>
      </trkpt>
      <trkpt lat="43.06312" lon="-1.20163">
        <ele>566.534409</ele>
        <time>2026-05-22T11:11:57.000Z</time>
      </trkpt>
      <trkpt lat="43.06312" lon="-1.20164">
        <ele>566.578922</ele>
        <time>2026-05-22T11:11:58.000Z</time>
      </trkpt>
      <trkpt lat="43.06311" lon="-1.20165">
        <ele>566.627534</ele>
        <time>2026-05-22T11:11:59.000Z</time>
      </trkpt>
      <trkpt lat="43.06311" lon="-1.20166">
        <ele>566.670807</ele>
        <time>2026-05-22T11:12:00.000Z</time>
      </trkpt>
      <trkpt lat="43.06311" lon="-1.20168">
        <ele>566.724578</ele>
        <time>2026-05-22T11:12:01.000Z</time>
      </trkpt>
      <trkpt lat="43.0631" lon="-1.20169">
        <ele>566.786903</ele>
        <time>2026-05-22T11:12:02.000Z</time>
      </trkpt>
      <trkpt lat="43.0631" lon="-1.20171">
        <ele>566.856485</ele>
        <time>2026-05-22T11:12:03.000Z</time>
      </trkpt>
      <trkpt lat="43.06309" lon="-1.20172">
        <ele>566.916003</ele>
        <time>2026-05-22T11:12:04.000Z</time>
      </trkpt>
      <trkpt lat="43.06308" lon="-1.20174">
        <ele>566.978527</ele>
        <time>2026-05-22T11:12:05.000Z</time>
      </trkpt>
      <trkpt lat="43.06308" lon="-1.20175">
        <ele>567.04435</ele>
        <time>2026-05-22T11:12:06.000Z</time>
      </trkpt>
      <trkpt lat="43.06308" lon="-1.20177">
        <ele>567.114556</ele>
        <time>2026-05-22T11:12:07.000Z</time>
      </trkpt>
      <trkpt lat="43.06308" lon="-1.20179">
        <ele>567.185304</ele>
        <time>2026-05-22T11:12:08.000Z</time>
      </trkpt>
      <trkpt lat="43.06308" lon="-1.20181">
        <ele>567.259187</ele>
        <time>2026-05-22T11:12:09.000Z</time>
      </trkpt>
      <trkpt lat="43.06309" lon="-1.20183">
        <ele>567.326289</ele>
        <time>2026-05-22T11:12:10.000Z</time>
      </trkpt>
      <trkpt lat="43.06309" lon="-1.20185">
        <ele>567.394333</ele>
        <time>2026-05-22T11:12:11.000Z</time>
      </trkpt>
      <trkpt lat="43.0631" lon="-1.20187">
        <ele>567.468859</ele>
        <time>2026-05-22T11:12:12.000Z</time>
      </trkpt>
      <trkpt lat="43.0631" lon="-1.20189">
        <ele>567.552894</ele>
        <time>2026-05-22T11:12:13.000Z</time>
      </trkpt>
      <trkpt lat="43.06311" lon="-1.20191">
        <ele>567.6308</ele>
        <time>2026-05-22T11:12:14.000Z</time>
      </trkpt>
      <trkpt lat="43.06311" lon="-1.20193">
        <ele>567.715714</ele>
        <time>2026-05-22T11:12:15.000Z</time>
      </trkpt>
      <trkpt lat="43.06312" lon="-1.20195">
        <ele>567.795397</ele>
        <time>2026-05-22T11:12:16.000Z</time>
      </trkpt>
      <trkpt lat="43.06313" lon="-1.20197">
        <ele>567.880468</ele>
        <time>2026-05-22T11:12:17.000Z</time>
      </trkpt>
      <trkpt lat="43.06314" lon="-1.20199">
        <ele>567.979109</ele>
        <time>2026-05-22T11:12:18.000Z</time>
      </trkpt>
      <trkpt lat="43.06315" lon="-1.20201">
        <ele>568.140534</ele>
        <time>2026-05-22T11:12:19.000Z</time>
      </trkpt>
      <trkpt lat="43.06316" lon="-1.20204">
        <ele>568.285217</ele>
        <time>2026-05-22T11:12:20.000Z</time>
      </trkpt>
      <trkpt lat="43.06317" lon="-1.20206">
        <ele>568.438352</ele>
        <time>2026-05-22T11:12:21.000Z</time>
      </trkpt>
      <trkpt lat="43.06317" lon="-1.20208">
        <ele>568.588478</ele>
        <time>2026-05-22T11:12:22.000Z</time>
      </trkpt>
      <trkpt lat="43.06318" lon="-1.2021">
        <ele>568.746347</ele>
        <time>2026-05-22T11:12:23.000Z</time>
      </trkpt>
      <trkpt lat="43.06319" lon="-1.20213">
        <ele>568.909906</ele>
        <time>2026-05-22T11:12:24.000Z</time>
      </trkpt>
      <trkpt lat="43.06319" lon="-1.20215">
        <ele>569.073465</ele>
        <time>2026-05-22T11:12:25.000Z</time>
      </trkpt>
      <trkpt lat="43.0632" lon="-1.20218">
        <ele>569.248487</ele>
        <time>2026-05-22T11:12:26.000Z</time>
      </trkpt>
      <trkpt lat="43.06321" lon="-1.20221">
        <ele>569.429278</ele>
        <time>2026-05-22T11:12:27.000Z</time>
      </trkpt>
      <trkpt lat="43.06322" lon="-1.20223">
        <ele>569.608779</ele>
        <time>2026-05-22T11:12:28.000Z</time>
      </trkpt>
      <trkpt lat="43.06322" lon="-1.20226">
        <ele>569.767124</ele>
        <time>2026-05-22T11:12:29.000Z</time>
      </trkpt>
      <trkpt lat="43.06323" lon="-1.20229">
        <ele>569.935426</ele>
        <time>2026-05-22T11:12:30.000Z</time>
      </trkpt>
      <trkpt lat="43.06323" lon="-1.20232">
        <ele>570.118888</ele>
        <time>2026-05-22T11:12:31.000Z</time>
      </trkpt>
      <trkpt lat="43.06323" lon="-1.20234">
        <ele>570.289049</ele>
        <time>2026-05-22T11:12:32.000Z</time>
      </trkpt>
      <trkpt lat="43.06324" lon="-1.20237">
        <ele>570.445395</ele>
        <time>2026-05-22T11:12:33.000Z</time>
      </trkpt>
      <trkpt lat="43.06324" lon="-1.20239">
        <ele>570.612236</ele>
        <time>2026-05-22T11:12:34.000Z</time>
      </trkpt>
      <trkpt lat="43.06324" lon="-1.20242">
        <ele>570.779077</ele>
        <time>2026-05-22T11:12:35.000Z</time>
      </trkpt>
      <trkpt lat="43.06325" lon="-1.20245">
        <ele>570.939882</ele>
        <time>2026-05-22T11:12:36.000Z</time>
      </trkpt>
      <trkpt lat="43.06325" lon="-1.20247">
        <ele>571.098717</ele>
        <time>2026-05-22T11:12:37.000Z</time>
      </trkpt>
      <trkpt lat="43.06325" lon="-1.2025">
        <ele>571.245573</ele>
        <time>2026-05-22T11:12:38.000Z</time>
      </trkpt>
      <trkpt lat="43.06325" lon="-1.20252">
        <ele>571.394321</ele>
        <time>2026-05-22T11:12:39.000Z</time>
      </trkpt>
      <trkpt lat="43.06325" lon="-1.20255">
        <ele>571.547047</ele>
        <time>2026-05-22T11:12:40.000Z</time>
      </trkpt>
      <trkpt lat="43.06325" lon="-1.20257">
        <ele>571.670368</ele>
        <time>2026-05-22T11:12:41.000Z</time>
      </trkpt>
      <trkpt lat="43.06325" lon="-1.20258">
        <ele>571.767917</ele>
        <time>2026-05-22T11:12:42.000Z</time>
      </trkpt>
      <trkpt lat="43.06326" lon="-1.20261">
        <ele>571.916665</ele>
        <time>2026-05-22T11:12:43.000Z</time>
      </trkpt>
      <trkpt lat="43.06326" lon="-1.20263">
        <ele>572.061099</ele>
        <time>2026-05-22T11:12:44.000Z</time>
      </trkpt>
      <trkpt lat="43.06326" lon="-1.20265">
        <ele>572.189661</ele>
        <time>2026-05-22T11:12:45.000Z</time>
      </trkpt>
      <trkpt lat="43.06326" lon="-1.20267">
        <ele>572.306932</ele>
        <time>2026-05-22T11:12:46.000Z</time>
      </trkpt>
      <trkpt lat="43.06327" lon="-1.20269">
        <ele>572.443652</ele>
        <time>2026-05-22T11:12:47.000Z</time>
      </trkpt>
      <trkpt lat="43.06327" lon="-1.20271">
        <ele>572.580372</ele>
        <time>2026-05-22T11:12:48.000Z</time>
      </trkpt>
      <trkpt lat="43.06327" lon="-1.20273">
        <ele>572.697643</ele>
        <time>2026-05-22T11:12:49.000Z</time>
      </trkpt>
      <trkpt lat="43.06327" lon="-1.20275">
        <ele>572.814914</ele>
        <time>2026-05-22T11:12:50.000Z</time>
      </trkpt>
      <trkpt lat="43.06327" lon="-1.20277">
        <ele>572.924877</ele>
        <time>2026-05-22T11:12:51.000Z</time>
      </trkpt>
      <trkpt lat="43.06328" lon="-1.20279">
        <ele>573.043629</ele>
        <time>2026-05-22T11:12:52.000Z</time>
      </trkpt>
      <trkpt lat="43.06328" lon="-1.20281">
        <ele>573.16581</ele>
        <time>2026-05-22T11:12:53.000Z</time>
      </trkpt>
      <trkpt lat="43.06327" lon="-1.20283">
        <ele>573.282183</ele>
        <time>2026-05-22T11:12:54.000Z</time>
      </trkpt>
      <trkpt lat="43.06328" lon="-1.20285">
        <ele>573.412902</ele>
        <time>2026-05-22T11:12:55.000Z</time>
      </trkpt>
      <trkpt lat="43.06327" lon="-1.20286">
        <ele>573.519743</ele>
        <time>2026-05-22T11:12:56.000Z</time>
      </trkpt>
      <trkpt lat="43.06328" lon="-1.20288">
        <ele>573.646419</ele>
        <time>2026-05-22T11:12:57.000Z</time>
      </trkpt>
      <trkpt lat="43.06328" lon="-1.2029">
        <ele>573.767214</ele>
        <time>2026-05-22T11:12:58.000Z</time>
      </trkpt>
      <trkpt lat="43.06328" lon="-1.20292">
        <ele>573.884485</ele>
        <time>2026-05-22T11:12:59.000Z</time>
      </trkpt>
      <trkpt lat="43.06328" lon="-1.20294">
        <ele>574.009214</ele>
        <time>2026-05-22T11:13:00.000Z</time>
      </trkpt>
      <trkpt lat="43.06328" lon="-1.20296">
        <ele>574.125286</ele>
        <time>2026-05-22T11:13:01.000Z</time>
      </trkpt>
      <trkpt lat="43.06328" lon="-1.20298">
        <ele>574.241358</ele>
        <time>2026-05-22T11:13:02.000Z</time>
      </trkpt>
      <trkpt lat="43.06328" lon="-1.203">
        <ele>574.342271</ele>
        <time>2026-05-22T11:13:03.000Z</time>
      </trkpt>
      <trkpt lat="43.06329" lon="-1.20301">
        <ele>574.465804</ele>
        <time>2026-05-22T11:13:04.000Z</time>
      </trkpt>
      <trkpt lat="43.0633" lon="-1.20304">
        <ele>574.610238</ele>
        <time>2026-05-22T11:13:05.000Z</time>
      </trkpt>
      <trkpt lat="43.0633" lon="-1.20306">
        <ele>574.765857</ele>
        <time>2026-05-22T11:13:06.000Z</time>
      </trkpt>
      <trkpt lat="43.06331" lon="-1.20308">
        <ele>574.898436</ele>
        <time>2026-05-22T11:13:07.000Z</time>
      </trkpt>
      <trkpt lat="43.06332" lon="-1.2031">
        <ele>575.05247</ele>
        <time>2026-05-22T11:13:08.000Z</time>
      </trkpt>
      <trkpt lat="43.06332" lon="-1.20313">
        <ele>575.201218</ele>
        <time>2026-05-22T11:13:09.000Z</time>
      </trkpt>
      <trkpt lat="43.06332" lon="-1.20315">
        <ele>575.360273</ele>
        <time>2026-05-22T11:13:10.000Z</time>
      </trkpt>
      <trkpt lat="43.06332" lon="-1.20318">
        <ele>575.513912</ele>
        <time>2026-05-22T11:13:11.000Z</time>
      </trkpt>
      <trkpt lat="43.06333" lon="-1.2032">
        <ele>575.652056</ele>
        <time>2026-05-22T11:13:12.000Z</time>
      </trkpt>
      <trkpt lat="43.06333" lon="-1.20322">
        <ele>575.811111</ele>
        <time>2026-05-22T11:13:13.000Z</time>
      </trkpt>
      <trkpt lat="43.06334" lon="-1.20324">
        <ele>575.944443</ele>
        <time>2026-05-22T11:13:14.000Z</time>
      </trkpt>
      <trkpt lat="43.06335" lon="-1.20326">
        <ele>576.082586</ele>
        <time>2026-05-22T11:13:15.000Z</time>
      </trkpt>
      <trkpt lat="43.06335" lon="-1.20328">
        <ele>576.220338</ele>
        <time>2026-05-22T11:13:16.000Z</time>
      </trkpt>
      <trkpt lat="43.06336" lon="-1.2033">
        <ele>576.355815</ele>
        <time>2026-05-22T11:13:17.000Z</time>
      </trkpt>
      <trkpt lat="43.06336" lon="-1.20331">
        <ele>576.464922</ele>
        <time>2026-05-22T11:13:18.000Z</time>
      </trkpt>
      <trkpt lat="43.06337" lon="-1.20333">
        <ele>576.582192</ele>
        <time>2026-05-22T11:13:19.000Z</time>
      </trkpt>
      <trkpt lat="43.06337" lon="-1.20336">
        <ele>576.728789</ele>
        <time>2026-05-22T11:13:20.000Z</time>
      </trkpt>
      <trkpt lat="43.06337" lon="-1.20338">
        <ele>576.877536</ele>
        <time>2026-05-22T11:13:21.000Z</time>
      </trkpt>
      <trkpt lat="43.06338" lon="-1.2034">
        <ele>577.02627</ele>
        <time>2026-05-22T11:13:22.000Z</time>
      </trkpt>
      <trkpt lat="43.06339" lon="-1.20342">
        <ele>577.136138</ele>
        <time>2026-05-22T11:13:23.000Z</time>
      </trkpt>
      <trkpt lat="43.0634" lon="-1.20344">
        <ele>577.284192</ele>
        <time>2026-05-22T11:13:24.000Z</time>
      </trkpt>
      <trkpt lat="43.06341" lon="-1.20346">
        <ele>577.422336</ele>
        <time>2026-05-22T11:13:25.000Z</time>
      </trkpt>
      <trkpt lat="43.06342" lon="-1.20347">
        <ele>577.560669</ele>
        <time>2026-05-22T11:13:26.000Z</time>
      </trkpt>
      <trkpt lat="43.06342" lon="-1.20349">
        <ele>577.687119</ele>
        <time>2026-05-22T11:13:27.000Z</time>
      </trkpt>
      <trkpt lat="43.06343" lon="-1.20351">
        <ele>577.81357</ele>
        <time>2026-05-22T11:13:28.000Z</time>
      </trkpt>
      <trkpt lat="43.06343" lon="-1.20353">
        <ele>577.900716</ele>
        <time>2026-05-22T11:13:29.000Z</time>
      </trkpt>
      <trkpt lat="43.06344" lon="-1.20354">
        <ele>578.004552</ele>
        <time>2026-05-22T11:13:30.000Z</time>
      </trkpt>
      <trkpt lat="43.06345" lon="-1.20355">
        <ele>578.098489</ele>
        <time>2026-05-22T11:13:31.000Z</time>
      </trkpt>
      <trkpt lat="43.06345" lon="-1.20357">
        <ele>578.210442</ele>
        <time>2026-05-22T11:13:32.000Z</time>
      </trkpt>
      <trkpt lat="43.06346" lon="-1.20359">
        <ele>578.339578</ele>
        <time>2026-05-22T11:13:33.000Z</time>
      </trkpt>
      <trkpt lat="43.06346" lon="-1.20361">
        <ele>578.468289</ele>
        <time>2026-05-22T11:13:34.000Z</time>
      </trkpt>
      <trkpt lat="43.06347" lon="-1.20363">
        <ele>578.603767</ele>
        <time>2026-05-22T11:13:35.000Z</time>
      </trkpt>
      <trkpt lat="43.06348" lon="-1.20364">
        <ele>578.719104</ele>
        <time>2026-05-22T11:13:36.000Z</time>
      </trkpt>
      <trkpt lat="43.06349" lon="-1.20366">
        <ele>578.847357</ele>
        <time>2026-05-22T11:13:37.000Z</time>
      </trkpt>
      <trkpt lat="43.06349" lon="-1.20368">
        <ele>578.948269</ele>
        <time>2026-05-22T11:13:38.000Z</time>
      </trkpt>
      <trkpt lat="43.06349" lon="-1.20369">
        <ele>579.043467</ele>
        <time>2026-05-22T11:13:39.000Z</time>
      </trkpt>
      <trkpt lat="43.0635" lon="-1.20371">
        <ele>579.156255</ele>
        <time>2026-05-22T11:13:40.000Z</time>
      </trkpt>
      <trkpt lat="43.0635" lon="-1.20373">
        <ele>579.268208</ele>
        <time>2026-05-22T11:13:41.000Z</time>
      </trkpt>
      <trkpt lat="43.06351" lon="-1.20375">
        <ele>579.402176</ele>
        <time>2026-05-22T11:13:42.000Z</time>
      </trkpt>
      <trkpt lat="43.06351" lon="-1.20376">
        <ele>579.505485</ele>
        <time>2026-05-22T11:13:43.000Z</time>
      </trkpt>
      <trkpt lat="43.06352" lon="-1.20377">
        <ele>579.577213</ele>
        <time>2026-05-22T11:13:44.000Z</time>
      </trkpt>
      <trkpt lat="43.06352" lon="-1.20379">
        <ele>579.678126</ele>
        <time>2026-05-22T11:13:45.000Z</time>
      </trkpt>
      <trkpt lat="43.06353" lon="-1.2038">
        <ele>579.786859</ele>
        <time>2026-05-22T11:13:46.000Z</time>
      </trkpt>
      <trkpt lat="43.06353" lon="-1.20382">
        <ele>579.897139</ele>
        <time>2026-05-22T11:13:47.000Z</time>
      </trkpt>
      <trkpt lat="43.06354" lon="-1.20384">
        <ele>580.026974</ele>
        <time>2026-05-22T11:13:48.000Z</time>
      </trkpt>
      <trkpt lat="43.06355" lon="-1.20385">
        <ele>580.150507</ele>
        <time>2026-05-22T11:13:49.000Z</time>
      </trkpt>
      <trkpt lat="43.06356" lon="-1.20387">
        <ele>580.270117</ele>
        <time>2026-05-22T11:13:50.000Z</time>
      </trkpt>
      <trkpt lat="43.06357" lon="-1.20388">
        <ele>580.388694</ele>
        <time>2026-05-22T11:13:51.000Z</time>
      </trkpt>
      <trkpt lat="43.06357" lon="-1.2039">
        <ele>580.512226</ele>
        <time>2026-05-22T11:13:52.000Z</time>
      </trkpt>
      <trkpt lat="43.06358" lon="-1.20392">
        <ele>580.624179</ele>
        <time>2026-05-22T11:13:53.000Z</time>
      </trkpt>
      <trkpt lat="43.06359" lon="-1.20393">
        <ele>580.762908</ele>
        <time>2026-05-22T11:13:54.000Z</time>
      </trkpt>
      <trkpt lat="43.0636" lon="-1.20395">
        <ele>580.892743</ele>
        <time>2026-05-22T11:13:55.000Z</time>
      </trkpt>
      <trkpt lat="43.06361" lon="-1.20396">
        <ele>580.991898</ele>
        <time>2026-05-22T11:13:56.000Z</time>
      </trkpt>
      <trkpt lat="43.06361" lon="-1.20398">
        <ele>581.083914</ele>
        <time>2026-05-22T11:13:57.000Z</time>
      </trkpt>
      <trkpt lat="43.06361" lon="-1.20399">
        <ele>581.183079</ele>
        <time>2026-05-22T11:13:58.000Z</time>
      </trkpt>
      <trkpt lat="43.06362" lon="-1.20401">
        <ele>581.331133</ele>
        <time>2026-05-22T11:13:59.000Z</time>
      </trkpt>
      <trkpt lat="43.06362" lon="-1.20403">
        <ele>581.443086</ele>
        <time>2026-05-22T11:14:00.000Z</time>
      </trkpt>
      <trkpt lat="43.06363" lon="-1.20405">
        <ele>581.558022</ele>
        <time>2026-05-22T11:14:01.000Z</time>
      </trkpt>
      <trkpt lat="43.06363" lon="-1.20407">
        <ele>581.699521</ele>
        <time>2026-05-22T11:14:02.000Z</time>
      </trkpt>
      <trkpt lat="43.06364" lon="-1.20409">
        <ele>581.840272</ele>
        <time>2026-05-22T11:14:03.000Z</time>
      </trkpt>
      <trkpt lat="43.06364" lon="-1.20411">
        <ele>581.943581</ele>
        <time>2026-05-22T11:14:04.000Z</time>
      </trkpt>
      <trkpt lat="43.06364" lon="-1.20413">
        <ele>582.056368</ele>
        <time>2026-05-22T11:14:05.000Z</time>
      </trkpt>
      <trkpt lat="43.06364" lon="-1.20415">
        <ele>582.17244</ele>
        <time>2026-05-22T11:14:06.000Z</time>
      </trkpt>
      <trkpt lat="43.06364" lon="-1.20417">
        <ele>582.301001</ele>
        <time>2026-05-22T11:14:07.000Z</time>
      </trkpt>
      <trkpt lat="43.06364" lon="-1.20419">
        <ele>582.4354</ele>
        <time>2026-05-22T11:14:08.000Z</time>
      </trkpt>
      <trkpt lat="43.06365" lon="-1.2042">
        <ele>582.573714</ele>
        <time>2026-05-22T11:14:09.000Z</time>
      </trkpt>
      <trkpt lat="43.06366" lon="-1.20422">
        <ele>582.694581</ele>
        <time>2026-05-22T11:14:10.000Z</time>
      </trkpt>
      <trkpt lat="43.06367" lon="-1.20424">
        <ele>582.823292</ele>
        <time>2026-05-22T11:14:11.000Z</time>
      </trkpt>
      <trkpt lat="43.06368" lon="-1.20426">
        <ele>582.957259</ele>
        <time>2026-05-22T11:14:12.000Z</time>
      </trkpt>
      <trkpt lat="43.06369" lon="-1.20428">
        <ele>583.112443</ele>
        <time>2026-05-22T11:14:13.000Z</time>
      </trkpt>
      <trkpt lat="43.06369" lon="-1.2043">
        <ele>583.2883</ele>
        <time>2026-05-22T11:14:14.000Z</time>
      </trkpt>
      <trkpt lat="43.06369" lon="-1.20432">
        <ele>583.444377</ele>
        <time>2026-05-22T11:14:15.000Z</time>
      </trkpt>
      <trkpt lat="43.06369" lon="-1.20434">
        <ele>583.587759</ele>
        <time>2026-05-22T11:14:16.000Z</time>
      </trkpt>
      <trkpt lat="43.0637" lon="-1.20436">
        <ele>583.723635</ele>
        <time>2026-05-22T11:14:17.000Z</time>
      </trkpt>
      <trkpt lat="43.06368" lon="-1.20437">
        <ele>583.894563</ele>
        <time>2026-05-22T11:14:18.000Z</time>
      </trkpt>
      <trkpt lat="43.06369" lon="-1.20439">
        <ele>584.045454</ele>
        <time>2026-05-22T11:14:19.000Z</time>
      </trkpt>
      <trkpt lat="43.06368" lon="-1.20441">
        <ele>584.203855</ele>
        <time>2026-05-22T11:14:20.000Z</time>
      </trkpt>
      <trkpt lat="43.06369" lon="-1.20443">
        <ele>584.368031</ele>
        <time>2026-05-22T11:14:21.000Z</time>
      </trkpt>
      <trkpt lat="43.06369" lon="-1.20445">
        <ele>584.503907</ele>
        <time>2026-05-22T11:14:22.000Z</time>
      </trkpt>
      <trkpt lat="43.0637" lon="-1.20447">
        <ele>584.655849</ele>
        <time>2026-05-22T11:14:23.000Z</time>
      </trkpt>
      <trkpt lat="43.0637" lon="-1.20449">
        <ele>584.819198</ele>
        <time>2026-05-22T11:14:24.000Z</time>
      </trkpt>
      <trkpt lat="43.0637" lon="-1.20451">
        <ele>584.972877</ele>
        <time>2026-05-22T11:14:25.000Z</time>
      </trkpt>
      <trkpt lat="43.0637" lon="-1.20453">
        <ele>585.108753</ele>
        <time>2026-05-22T11:14:26.000Z</time>
      </trkpt>
      <trkpt lat="43.06371" lon="-1.20455">
        <ele>585.255067</ele>
        <time>2026-05-22T11:14:27.000Z</time>
      </trkpt>
      <trkpt lat="43.06371" lon="-1.20457">
        <ele>585.390943</ele>
        <time>2026-05-22T11:14:28.000Z</time>
      </trkpt>
      <trkpt lat="43.06371" lon="-1.20459">
        <ele>585.535431</ele>
        <time>2026-05-22T11:14:29.000Z</time>
      </trkpt>
      <trkpt lat="43.06372" lon="-1.2046">
        <ele>585.666416</ele>
        <time>2026-05-22T11:14:30.000Z</time>
      </trkpt>
      <trkpt lat="43.06372" lon="-1.20462">
        <ele>585.793703</ele>
        <time>2026-05-22T11:14:31.000Z</time>
      </trkpt>
      <trkpt lat="43.06372" lon="-1.20464">
        <ele>585.932668</ele>
        <time>2026-05-22T11:14:32.000Z</time>
      </trkpt>
      <trkpt lat="43.06373" lon="-1.20465">
        <ele>586.074775</ele>
        <time>2026-05-22T11:14:33.000Z</time>
      </trkpt>
      <trkpt lat="43.06373" lon="-1.20467">
        <ele>586.21374</ele>
        <time>2026-05-22T11:14:34.000Z</time>
      </trkpt>
      <trkpt lat="43.06374" lon="-1.20469">
        <ele>586.358688</ele>
        <time>2026-05-22T11:14:35.000Z</time>
      </trkpt>
      <trkpt lat="43.06374" lon="-1.20471">
        <ele>586.490325</ele>
        <time>2026-05-22T11:14:36.000Z</time>
      </trkpt>
      <trkpt lat="43.06374" lon="-1.20472">
        <ele>586.614659</ele>
        <time>2026-05-22T11:14:37.000Z</time>
      </trkpt>
      <trkpt lat="43.06374" lon="-1.20474">
        <ele>586.73684</ele>
        <time>2026-05-22T11:14:38.000Z</time>
      </trkpt>
      <trkpt lat="43.06375" lon="-1.20475">
        <ele>586.868477</ele>
        <time>2026-05-22T11:14:39.000Z</time>
      </trkpt>
      <trkpt lat="43.06375" lon="-1.20477">
        <ele>587.022156</ele>
        <time>2026-05-22T11:14:40.000Z</time>
      </trkpt>
      <trkpt lat="43.06375" lon="-1.2048">
        <ele>587.195582</ele>
        <time>2026-05-22T11:14:41.000Z</time>
      </trkpt>
      <trkpt lat="43.06375" lon="-1.20482">
        <ele>587.346473</ele>
        <time>2026-05-22T11:14:42.000Z</time>
      </trkpt>
      <trkpt lat="43.06376" lon="-1.20484">
        <ele>587.507531</ele>
        <time>2026-05-22T11:14:43.000Z</time>
      </trkpt>
      <trkpt lat="43.06375" lon="-1.20486">
        <ele>587.690803</ele>
        <time>2026-05-22T11:14:44.000Z</time>
      </trkpt>
      <trkpt lat="43.06375" lon="-1.20489">
        <ele>587.886503</ele>
        <time>2026-05-22T11:14:45.000Z</time>
      </trkpt>
      <trkpt lat="43.06376" lon="-1.20491">
        <ele>588.063257</ele>
        <time>2026-05-22T11:14:46.000Z</time>
      </trkpt>
      <trkpt lat="43.06376" lon="-1.20493">
        <ele>588.251104</ele>
        <time>2026-05-22T11:14:47.000Z</time>
      </trkpt>
      <trkpt lat="43.06377" lon="-1.20495">
        <ele>588.399935</ele>
        <time>2026-05-22T11:14:48.000Z</time>
      </trkpt>
      <trkpt lat="43.06377" lon="-1.20497">
        <ele>588.562671</ele>
        <time>2026-05-22T11:14:49.000Z</time>
      </trkpt>
      <trkpt lat="43.06377" lon="-1.20499">
        <ele>588.721071</ele>
        <time>2026-05-22T11:14:50.000Z</time>
      </trkpt>
      <trkpt lat="43.06377" lon="-1.20502">
        <ele>588.886984</ele>
        <time>2026-05-22T11:14:51.000Z</time>
      </trkpt>
      <trkpt lat="43.06377" lon="-1.20504">
        <ele>589.040663</ele>
        <time>2026-05-22T11:14:52.000Z</time>
      </trkpt>
      <trkpt lat="43.06377" lon="-1.20505">
        <ele>589.1786</ele>
        <time>2026-05-22T11:14:53.000Z</time>
      </trkpt>
      <trkpt lat="43.06378" lon="-1.20507">
        <ele>589.295658</ele>
        <time>2026-05-22T11:14:54.000Z</time>
      </trkpt>
      <trkpt lat="43.06378" lon="-1.20508">
        <ele>589.419992</ele>
        <time>2026-05-22T11:14:55.000Z</time>
      </trkpt>
      <trkpt lat="43.06378" lon="-1.2051">
        <ele>589.571998</ele>
        <time>2026-05-22T11:14:56.000Z</time>
      </trkpt>
      <trkpt lat="43.06379" lon="-1.20512">
        <ele>589.702983</ele>
        <time>2026-05-22T11:14:57.000Z</time>
      </trkpt>
      <trkpt lat="43.06379" lon="-1.20515">
        <ele>589.898954</ele>
        <time>2026-05-22T11:14:58.000Z</time>
      </trkpt>
      <trkpt lat="43.06379" lon="-1.20516">
        <ele>590.047874</ele>
        <time>2026-05-22T11:14:59.000Z</time>
      </trkpt>
      <trkpt lat="43.0638" lon="-1.20518">
        <ele>590.168063</ele>
        <time>2026-05-22T11:15:00.000Z</time>
      </trkpt>
      <trkpt lat="43.0638" lon="-1.20519">
        <ele>590.281436</ele>
        <time>2026-05-22T11:15:01.000Z</time>
      </trkpt>
      <trkpt lat="43.0638" lon="-1.20521">
        <ele>590.397176</ele>
        <time>2026-05-22T11:15:02.000Z</time>
      </trkpt>
      <trkpt lat="43.06381" lon="-1.20522">
        <ele>590.543274</ele>
        <time>2026-05-22T11:15:03.000Z</time>
      </trkpt>
      <trkpt lat="43.06382" lon="-1.20524">
        <ele>590.667608</ele>
        <time>2026-05-22T11:15:04.000Z</time>
      </trkpt>
      <trkpt lat="43.06382" lon="-1.20525">
        <ele>590.795566</ele>
        <time>2026-05-22T11:15:05.000Z</time>
      </trkpt>
      <trkpt lat="43.06382" lon="-1.20527">
        <ele>590.922852</ele>
        <time>2026-05-22T11:15:06.000Z</time>
      </trkpt>
      <trkpt lat="43.06382" lon="-1.20529">
        <ele>591.050138</ele>
        <time>2026-05-22T11:15:07.000Z</time>
      </trkpt>
      <trkpt lat="43.06383" lon="-1.2053">
        <ele>591.149418</ele>
        <time>2026-05-22T11:15:08.000Z</time>
      </trkpt>
      <trkpt lat="43.06383" lon="-1.20531">
        <ele>591.273518</ele>
        <time>2026-05-22T11:15:09.000Z</time>
      </trkpt>
      <trkpt lat="43.06384" lon="-1.20533">
        <ele>591.402236</ele>
        <time>2026-05-22T11:15:10.000Z</time>
      </trkpt>
      <trkpt lat="43.06384" lon="-1.20535">
        <ele>591.530608</ele>
        <time>2026-05-22T11:15:11.000Z</time>
      </trkpt>
      <trkpt lat="43.06384" lon="-1.20536">
        <ele>591.651479</ele>
        <time>2026-05-22T11:15:12.000Z</time>
      </trkpt>
      <trkpt lat="43.06384" lon="-1.20538">
        <ele>591.797792</ele>
        <time>2026-05-22T11:15:13.000Z</time>
      </trkpt>
      <trkpt lat="43.06384" lon="-1.2054">
        <ele>591.939405</ele>
        <time>2026-05-22T11:15:14.000Z</time>
      </trkpt>
      <trkpt lat="43.06385" lon="-1.20541">
        <ele>592.049986</ele>
        <time>2026-05-22T11:15:15.000Z</time>
      </trkpt>
      <trkpt lat="43.06385" lon="-1.20542">
        <ele>592.159436</ele>
        <time>2026-05-22T11:15:16.000Z</time>
      </trkpt>
      <trkpt lat="43.06386" lon="-1.20544">
        <ele>592.28377</ele>
        <time>2026-05-22T11:15:17.000Z</time>
      </trkpt>
      <trkpt lat="43.06386" lon="-1.20545">
        <ele>592.398538</ele>
        <time>2026-05-22T11:15:18.000Z</time>
      </trkpt>
      <trkpt lat="43.06386" lon="-1.20547">
        <ele>592.511911</ele>
        <time>2026-05-22T11:15:19.000Z</time>
      </trkpt>
      <trkpt lat="43.06387" lon="-1.20549">
        <ele>592.642896</ele>
        <time>2026-05-22T11:15:20.000Z</time>
      </trkpt>
      <trkpt lat="43.06387" lon="-1.2055">
        <ele>592.783259</ele>
        <time>2026-05-22T11:15:21.000Z</time>
      </trkpt>
      <trkpt lat="43.06388" lon="-1.20552">
        <ele>592.923631</ele>
        <time>2026-05-22T11:15:22.000Z</time>
      </trkpt>
      <trkpt lat="43.06389" lon="-1.20553">
        <ele>593.075621</ele>
        <time>2026-05-22T11:15:23.000Z</time>
      </trkpt>
      <trkpt lat="43.0639" lon="-1.20555">
        <ele>593.206606</ele>
        <time>2026-05-22T11:15:24.000Z</time>
      </trkpt>
      <trkpt lat="43.0639" lon="-1.20556">
        <ele>593.337591</ele>
        <time>2026-05-22T11:15:25.000Z</time>
      </trkpt>
      <trkpt lat="43.0639" lon="-1.20558">
        <ele>593.474633</ele>
        <time>2026-05-22T11:15:26.000Z</time>
      </trkpt>
      <trkpt lat="43.06391" lon="-1.2056">
        <ele>593.61257</ele>
        <time>2026-05-22T11:15:27.000Z</time>
      </trkpt>
      <trkpt lat="43.06391" lon="-1.20561">
        <ele>593.747939</ele>
        <time>2026-05-22T11:15:28.000Z</time>
      </trkpt>
      <trkpt lat="43.06392" lon="-1.20563">
        <ele>593.899881</ele>
        <time>2026-05-22T11:15:29.000Z</time>
      </trkpt>
      <trkpt lat="43.06393" lon="-1.20565">
        <ele>594.095814</ele>
        <time>2026-05-22T11:15:30.000Z</time>
      </trkpt>
      <trkpt lat="43.06393" lon="-1.20567">
        <ele>594.244734</ele>
        <time>2026-05-22T11:15:31.000Z</time>
      </trkpt>
      <trkpt lat="43.06394" lon="-1.20569">
        <ele>594.380102</ele>
        <time>2026-05-22T11:15:32.000Z</time>
      </trkpt>
      <trkpt lat="43.06395" lon="-1.20571">
        <ele>594.545164</ele>
        <time>2026-05-22T11:15:33.000Z</time>
      </trkpt>
      <trkpt lat="43.06395" lon="-1.20573">
        <ele>594.697105</ele>
        <time>2026-05-22T11:15:34.000Z</time>
      </trkpt>
      <trkpt lat="43.06396" lon="-1.20574">
        <ele>594.839212</ele>
        <time>2026-05-22T11:15:35.000Z</time>
      </trkpt>
      <trkpt lat="43.06396" lon="-1.20576">
        <ele>594.985145</ele>
        <time>2026-05-22T11:15:36.000Z</time>
      </trkpt>
      <trkpt lat="43.06397" lon="-1.20577">
        <ele>595.112836</ele>
        <time>2026-05-22T11:15:37.000Z</time>
      </trkpt>
      <trkpt lat="43.06398" lon="-1.20579">
        <ele>595.247266</ele>
        <time>2026-05-22T11:15:38.000Z</time>
      </trkpt>
      <trkpt lat="43.06398" lon="-1.20581">
        <ele>595.414187</ele>
        <time>2026-05-22T11:15:39.000Z</time>
      </trkpt>
      <trkpt lat="43.06399" lon="-1.20583">
        <ele>595.569986</ele>
        <time>2026-05-22T11:15:40.000Z</time>
      </trkpt>
      <trkpt lat="43.06399" lon="-1.20585">
        <ele>595.718816</ele>
        <time>2026-05-22T11:15:41.000Z</time>
      </trkpt>
      <trkpt lat="43.064" lon="-1.20587">
        <ele>595.867646</ele>
        <time>2026-05-22T11:15:42.000Z</time>
      </trkpt>
      <trkpt lat="43.064" lon="-1.20589">
        <ele>596.009259</ele>
        <time>2026-05-22T11:15:43.000Z</time>
      </trkpt>
      <trkpt lat="43.06401" lon="-1.2059">
        <ele>596.15614</ele>
        <time>2026-05-22T11:15:44.000Z</time>
      </trkpt>
      <trkpt lat="43.06401" lon="-1.20592">
        <ele>596.311939</ele>
        <time>2026-05-22T11:15:45.000Z</time>
      </trkpt>
      <trkpt lat="43.06402" lon="-1.20594">
        <ele>596.45882</ele>
        <time>2026-05-22T11:15:46.000Z</time>
      </trkpt>
      <trkpt lat="43.06403" lon="-1.20596">
        <ele>596.611024</ele>
        <time>2026-05-22T11:15:47.000Z</time>
      </trkpt>
      <trkpt lat="43.06404" lon="-1.20597">
        <ele>596.757904</ele>
        <time>2026-05-22T11:15:48.000Z</time>
      </trkpt>
      <trkpt lat="43.06404" lon="-1.20599">
        <ele>596.903838</ele>
        <time>2026-05-22T11:15:49.000Z</time>
      </trkpt>
      <trkpt lat="43.06405" lon="-1.206">
        <ele>597.04421</ele>
        <time>2026-05-22T11:15:50.000Z</time>
      </trkpt>
      <trkpt lat="43.06406" lon="-1.20602">
        <ele>597.175194</ele>
        <time>2026-05-22T11:15:51.000Z</time>
      </trkpt>
      <trkpt lat="43.06406" lon="-1.20604">
        <ele>597.292252</ele>
        <time>2026-05-22T11:15:52.000Z</time>
      </trkpt>
      <trkpt lat="43.06406" lon="-1.20605">
        <ele>597.427736</ele>
        <time>2026-05-22T11:15:53.000Z</time>
      </trkpt>
      <trkpt lat="43.06406" lon="-1.20607">
        <ele>597.563611</ele>
        <time>2026-05-22T11:15:54.000Z</time>
      </trkpt>
      <trkpt lat="43.06406" lon="-1.20608">
        <ele>597.679351</ele>
        <time>2026-05-22T11:15:55.000Z</time>
      </trkpt>
      <trkpt lat="43.06407" lon="-1.2061">
        <ele>597.837836</ele>
        <time>2026-05-22T11:15:56.000Z</time>
      </trkpt>
      <trkpt lat="43.06408" lon="-1.20612">
        <ele>597.978208</ele>
        <time>2026-05-22T11:15:57.000Z</time>
      </trkpt>
      <trkpt lat="43.06409" lon="-1.20614">
        <ele>598.138374</ele>
        <time>2026-05-22T11:15:58.000Z</time>
      </trkpt>
      <trkpt lat="43.0641" lon="-1.20615">
        <ele>598.302651</ele>
        <time>2026-05-22T11:15:59.000Z</time>
      </trkpt>
      <trkpt lat="43.0641" lon="-1.20617">
        <ele>598.419944</ele>
        <time>2026-05-22T11:16:00.000Z</time>
      </trkpt>
      <trkpt lat="43.0641" lon="-1.20619">
        <ele>598.586813</ele>
        <time>2026-05-22T11:16:01.000Z</time>
      </trkpt>
      <trkpt lat="43.0641" lon="-1.20621">
        <ele>598.71845</ele>
        <time>2026-05-22T11:16:02.000Z</time>
      </trkpt>
      <trkpt lat="43.0641" lon="-1.20622">
        <ele>598.860063</ele>
        <time>2026-05-22T11:16:03.000Z</time>
      </trkpt>
      <trkpt lat="43.0641" lon="-1.20624">
        <ele>598.97712</ele>
        <time>2026-05-22T11:16:04.000Z</time>
      </trkpt>
      <trkpt lat="43.0641" lon="-1.20625">
        <ele>599.09755</ele>
        <time>2026-05-22T11:16:05.000Z</time>
      </trkpt>
      <trkpt lat="43.0641" lon="-1.20627">
        <ele>599.240932</ele>
        <time>2026-05-22T11:16:06.000Z</time>
      </trkpt>
      <trkpt lat="43.0641" lon="-1.20629">
        <ele>599.387244</ele>
        <time>2026-05-22T11:16:07.000Z</time>
      </trkpt>
      <trkpt lat="43.06411" lon="-1.20631">
        <ele>599.518881</ele>
        <time>2026-05-22T11:16:08.000Z</time>
      </trkpt>
      <trkpt lat="43.06411" lon="-1.20633">
        <ele>599.655923</ele>
        <time>2026-05-22T11:16:09.000Z</time>
      </trkpt>
      <trkpt lat="43.06411" lon="-1.20635">
        <ele>599.802235</ele>
        <time>2026-05-22T11:16:10.000Z</time>
      </trkpt>
      <trkpt lat="43.06412" lon="-1.20636">
        <ele>599.951155</ele>
        <time>2026-05-22T11:16:11.000Z</time>
      </trkpt>
      <trkpt lat="43.06413" lon="-1.20639">
        <ele>600.151825</ele>
        <time>2026-05-22T11:16:12.000Z</time>
      </trkpt>
      <trkpt lat="43.06414" lon="-1.2064">
        <ele>600.316886</ele>
        <time>2026-05-22T11:16:13.000Z</time>
      </trkpt>
      <trkpt lat="43.06415" lon="-1.20642">
        <ele>600.46909</ele>
        <time>2026-05-22T11:16:14.000Z</time>
      </trkpt>
      <trkpt lat="43.06415" lon="-1.20644">
        <ele>600.582463</ele>
        <time>2026-05-22T11:16:15.000Z</time>
      </trkpt>
      <trkpt lat="43.06415" lon="-1.20645">
        <ele>600.697231</ele>
        <time>2026-05-22T11:16:16.000Z</time>
      </trkpt>
      <trkpt lat="43.06415" lon="-1.20647">
        <ele>600.834272</ele>
        <time>2026-05-22T11:16:17.000Z</time>
      </trkpt>
      <trkpt lat="43.06415" lon="-1.20649">
        <ele>600.971314</ele>
        <time>2026-05-22T11:16:18.000Z</time>
      </trkpt>
      <trkpt lat="43.06415" lon="-1.2065">
        <ele>601.077193</ele>
        <time>2026-05-22T11:16:19.000Z</time>
      </trkpt>
      <trkpt lat="43.06415" lon="-1.20652">
        <ele>601.214235</ele>
        <time>2026-05-22T11:16:20.000Z</time>
      </trkpt>
      <trkpt lat="43.06416" lon="-1.20654">
        <ele>601.359181</ele>
        <time>2026-05-22T11:16:21.000Z</time>
      </trkpt>
      <trkpt lat="43.06416" lon="-1.20656">
        <ele>601.512663</ele>
        <time>2026-05-22T11:16:22.000Z</time>
      </trkpt>
      <trkpt lat="43.06417" lon="-1.20657">
        <ele>601.662807</ele>
        <time>2026-05-22T11:16:23.000Z</time>
      </trkpt>
      <trkpt lat="43.06418" lon="-1.20659">
        <ele>601.800031</ele>
        <time>2026-05-22T11:16:24.000Z</time>
      </trkpt>
      <trkpt lat="43.06418" lon="-1.2066">
        <ele>601.919971</ele>
        <time>2026-05-22T11:16:25.000Z</time>
      </trkpt>
      <trkpt lat="43.06419" lon="-1.20662">
        <ele>602.049195</ele>
        <time>2026-05-22T11:16:26.000Z</time>
      </trkpt>
      <trkpt lat="43.06419" lon="-1.20664">
        <ele>602.193384</ele>
        <time>2026-05-22T11:16:27.000Z</time>
      </trkpt>
      <trkpt lat="43.0642" lon="-1.20665">
        <ele>602.331183</ele>
        <time>2026-05-22T11:16:28.000Z</time>
      </trkpt>
      <trkpt lat="43.0642" lon="-1.20667">
        <ele>602.438986</ele>
        <time>2026-05-22T11:16:29.000Z</time>
      </trkpt>
      <trkpt lat="43.06421" lon="-1.20668">
        <ele>602.536446</ele>
        <time>2026-05-22T11:16:30.000Z</time>
      </trkpt>
      <trkpt lat="43.06421" lon="-1.20669">
        <ele>602.655772</ele>
        <time>2026-05-22T11:16:31.000Z</time>
      </trkpt>
      <trkpt lat="43.06422" lon="-1.20671">
        <ele>602.766846</ele>
        <time>2026-05-22T11:16:32.000Z</time>
      </trkpt>
      <trkpt lat="43.06423" lon="-1.20672">
        <ele>602.911516</ele>
        <time>2026-05-22T11:16:33.000Z</time>
      </trkpt>
      <trkpt lat="43.06423" lon="-1.20674">
        <ele>603.062377</ele>
        <time>2026-05-22T11:16:34.000Z</time>
      </trkpt>
      <trkpt lat="43.06423" lon="-1.20676">
        <ele>603.173671</ele>
        <time>2026-05-22T11:16:35.000Z</time>
      </trkpt>
      <trkpt lat="43.06423" lon="-1.20677">
        <ele>603.284965</ele>
        <time>2026-05-22T11:16:36.000Z</time>
      </trkpt>
      <trkpt lat="43.06423" lon="-1.20679">
        <ele>603.435826</ele>
        <time>2026-05-22T11:16:37.000Z</time>
      </trkpt>
      <trkpt lat="43.06423" lon="-1.20681">
        <ele>603.590994</ele>
        <time>2026-05-22T11:16:38.000Z</time>
      </trkpt>
      <trkpt lat="43.06423" lon="-1.20683">
        <ele>603.74015</ele>
        <time>2026-05-22T11:16:39.000Z</time>
      </trkpt>
      <trkpt lat="43.06423" lon="-1.20685">
        <ele>603.876567</ele>
        <time>2026-05-22T11:16:40.000Z</time>
      </trkpt>
      <trkpt lat="43.06423" lon="-1.20687">
        <ele>604.024691</ele>
        <time>2026-05-22T11:16:41.000Z</time>
      </trkpt>
      <trkpt lat="43.06424" lon="-1.20689">
        <ele>604.181171</ele>
        <time>2026-05-22T11:16:42.000Z</time>
      </trkpt>
      <trkpt lat="43.06424" lon="-1.20691">
        <ele>604.32536</ele>
        <time>2026-05-22T11:16:43.000Z</time>
      </trkpt>
      <trkpt lat="43.06425" lon="-1.20693">
        <ele>604.481037</ele>
        <time>2026-05-22T11:16:44.000Z</time>
      </trkpt>
      <trkpt lat="43.06426" lon="-1.20694">
        <ele>604.631706</ele>
        <time>2026-05-22T11:16:45.000Z</time>
      </trkpt>
      <trkpt lat="43.06427" lon="-1.20696">
        <ele>604.774964</ele>
        <time>2026-05-22T11:16:46.000Z</time>
      </trkpt>
      <trkpt lat="43.06427" lon="-1.20698">
        <ele>604.917254</ele>
        <time>2026-05-22T11:16:47.000Z</time>
      </trkpt>
      <trkpt lat="43.06427" lon="-1.20699">
        <ele>605.043272</ele>
        <time>2026-05-22T11:16:48.000Z</time>
      </trkpt>
      <trkpt lat="43.06427" lon="-1.20701">
        <ele>605.177801</ele>
        <time>2026-05-22T11:16:49.000Z</time>
      </trkpt>
      <trkpt lat="43.06428" lon="-1.20703">
        <ele>605.306385</ele>
        <time>2026-05-22T11:16:50.000Z</time>
      </trkpt>
      <trkpt lat="43.06428" lon="-1.20704">
        <ele>605.419049</ele>
        <time>2026-05-22T11:16:51.000Z</time>
      </trkpt>
      <trkpt lat="43.06429" lon="-1.20706">
        <ele>605.568268</ele>
        <time>2026-05-22T11:16:52.000Z</time>
      </trkpt>
      <trkpt lat="43.06429" lon="-1.20708">
        <ele>605.717472</ele>
        <time>2026-05-22T11:16:53.000Z</time>
      </trkpt>
      <trkpt lat="43.0643" lon="-1.20709">
        <ele>605.850359</ele>
        <time>2026-05-22T11:16:54.000Z</time>
      </trkpt>
      <trkpt lat="43.0643" lon="-1.20711">
        <ele>605.99646</ele>
        <time>2026-05-22T11:16:55.000Z</time>
      </trkpt>
      <trkpt lat="43.06431" lon="-1.20713">
        <ele>606.118285</ele>
        <time>2026-05-22T11:16:56.000Z</time>
      </trkpt>
      <trkpt lat="43.06431" lon="-1.20714">
        <ele>606.243238</ele>
        <time>2026-05-22T11:16:57.000Z</time>
      </trkpt>
      <trkpt lat="43.06432" lon="-1.20716">
        <ele>606.344669</ele>
        <time>2026-05-22T11:16:58.000Z</time>
      </trkpt>
      <trkpt lat="43.06432" lon="-1.20717">
        <ele>606.457334</ele>
        <time>2026-05-22T11:16:59.000Z</time>
      </trkpt>
      <trkpt lat="43.06432" lon="-1.20719">
        <ele>606.591863</ele>
        <time>2026-05-22T11:17:00.000Z</time>
      </trkpt>
      <trkpt lat="43.06433" lon="-1.2072">
        <ele>606.729662</ele>
        <time>2026-05-22T11:17:01.000Z</time>
      </trkpt>
      <trkpt lat="43.06433" lon="-1.20722">
        <ele>606.868679</ele>
        <time>2026-05-22T11:17:02.000Z</time>
      </trkpt>
      <trkpt lat="43.06434" lon="-1.20724">
        <ele>606.993632</ele>
        <time>2026-05-22T11:17:03.000Z</time>
      </trkpt>
      <trkpt lat="43.06435" lon="-1.20725">
        <ele>607.119222</ele>
        <time>2026-05-22T11:17:04.000Z</time>
      </trkpt>
      <trkpt lat="43.06435" lon="-1.20727">
        <ele>607.252606</ele>
        <time>2026-05-22T11:17:05.000Z</time>
      </trkpt>
      <trkpt lat="43.06434" lon="-1.20729">
        <ele>607.37466</ele>
        <time>2026-05-22T11:17:06.000Z</time>
      </trkpt>
      <trkpt lat="43.06434" lon="-1.2073">
        <ele>607.500678</ele>
        <time>2026-05-22T11:17:07.000Z</time>
      </trkpt>
      <trkpt lat="43.06435" lon="-1.20732">
        <ele>607.627908</ele>
        <time>2026-05-22T11:17:08.000Z</time>
      </trkpt>
      <trkpt lat="43.06435" lon="-1.20734">
        <ele>607.796385</ele>
        <time>2026-05-22T11:17:09.000Z</time>
      </trkpt>
      <trkpt lat="43.06436" lon="-1.20736">
        <ele>607.935886</ele>
        <time>2026-05-22T11:17:10.000Z</time>
      </trkpt>
      <trkpt lat="43.06436" lon="-1.20737">
        <ele>608.067851</ele>
        <time>2026-05-22T11:17:11.000Z</time>
      </trkpt>
      <trkpt lat="43.06437" lon="-1.20739">
        <ele>608.214041</ele>
        <time>2026-05-22T11:17:12.000Z</time>
      </trkpt>
      <trkpt lat="43.06437" lon="-1.20741">
        <ele>608.353057</ele>
        <time>2026-05-22T11:17:13.000Z</time>
      </trkpt>
      <trkpt lat="43.06437" lon="-1.20743">
        <ele>608.49381</ele>
        <time>2026-05-22T11:17:14.000Z</time>
      </trkpt>
      <trkpt lat="43.06438" lon="-1.20745">
        <ele>608.619828</ele>
        <time>2026-05-22T11:17:15.000Z</time>
      </trkpt>
      <trkpt lat="43.06438" lon="-1.20746">
        <ele>608.764016</ele>
        <time>2026-05-22T11:17:16.000Z</time>
      </trkpt>
      <trkpt lat="43.06439" lon="-1.20748">
        <ele>608.907274</ele>
        <time>2026-05-22T11:17:17.000Z</time>
      </trkpt>
      <trkpt lat="43.0644" lon="-1.20749">
        <ele>609.050694</ele>
        <time>2026-05-22T11:17:18.000Z</time>
      </trkpt>
      <trkpt lat="43.0644" lon="-1.20751">
        <ele>609.187111</ele>
        <time>2026-05-22T11:17:19.000Z</time>
      </trkpt>
      <trkpt lat="43.06441" lon="-1.20753">
        <ele>609.350971</ele>
        <time>2026-05-22T11:17:20.000Z</time>
      </trkpt>
      <trkpt lat="43.06441" lon="-1.20755">
        <ele>609.50019</ele>
        <time>2026-05-22T11:17:21.000Z</time>
      </trkpt>
      <trkpt lat="43.06442" lon="-1.20757">
        <ele>609.649346</ele>
        <time>2026-05-22T11:17:22.000Z</time>
      </trkpt>
      <trkpt lat="43.06442" lon="-1.20759">
        <ele>609.8097</ele>
        <time>2026-05-22T11:17:23.000Z</time>
      </trkpt>
      <trkpt lat="43.06443" lon="-1.20761">
        <ele>609.97631</ele>
        <time>2026-05-22T11:17:24.000Z</time>
      </trkpt>
      <trkpt lat="43.06443" lon="-1.20763">
        <ele>610.126979</ele>
        <time>2026-05-22T11:17:25.000Z</time>
      </trkpt>
      <trkpt lat="43.06444" lon="-1.20765">
        <ele>610.290178</ele>
        <time>2026-05-22T11:17:26.000Z</time>
      </trkpt>
      <trkpt lat="43.06444" lon="-1.20767">
        <ele>610.461322</ele>
        <time>2026-05-22T11:17:27.000Z</time>
      </trkpt>
      <trkpt lat="43.06444" lon="-1.2077">
        <ele>610.624192</ele>
        <time>2026-05-22T11:17:28.000Z</time>
      </trkpt>
      <trkpt lat="43.06444" lon="-1.20772">
        <ele>610.779688</ele>
        <time>2026-05-22T11:17:29.000Z</time>
      </trkpt>
      <trkpt lat="43.06444" lon="-1.20774">
        <ele>610.949927</ele>
        <time>2026-05-22T11:17:30.000Z</time>
      </trkpt>
      <trkpt lat="43.06445" lon="-1.20776">
        <ele>611.093557</ele>
        <time>2026-05-22T11:17:31.000Z</time>
      </trkpt>
      <trkpt lat="43.06445" lon="-1.20778">
        <ele>611.244226</ele>
        <time>2026-05-22T11:17:32.000Z</time>
      </trkpt>
      <trkpt lat="43.06446" lon="-1.2078">
        <ele>611.403977</ele>
        <time>2026-05-22T11:17:33.000Z</time>
      </trkpt>
      <trkpt lat="43.06446" lon="-1.20781">
        <ele>611.542994</ele>
        <time>2026-05-22T11:17:34.000Z</time>
      </trkpt>
      <trkpt lat="43.06447" lon="-1.20783">
        <ele>611.67588</ele>
        <time>2026-05-22T11:17:35.000Z</time>
      </trkpt>
      <trkpt lat="43.06447" lon="-1.20785">
        <ele>611.814897</ele>
        <time>2026-05-22T11:17:36.000Z</time>
      </trkpt>
      <trkpt lat="43.06448" lon="-1.20787">
        <ele>611.950305</ele>
        <time>2026-05-22T11:17:37.000Z</time>
      </trkpt>
      <trkpt lat="43.06448" lon="-1.20788">
        <ele>612.070245</ele>
        <time>2026-05-22T11:17:38.000Z</time>
      </trkpt>
      <trkpt lat="43.06448" lon="-1.2079">
        <ele>612.181539</ele>
        <time>2026-05-22T11:17:39.000Z</time>
      </trkpt>
      <trkpt lat="43.06448" lon="-1.20791">
        <ele>612.308768</ele>
        <time>2026-05-22T11:17:40.000Z</time>
      </trkpt>
      <trkpt lat="43.06448" lon="-1.20794">
        <ele>612.495965</ele>
        <time>2026-05-22T11:17:41.000Z</time>
      </trkpt>
      <trkpt lat="43.06447" lon="-1.20796">
        <ele>612.69229</ele>
        <time>2026-05-22T11:17:42.000Z</time>
      </trkpt>
      <trkpt lat="43.06447" lon="-1.20799">
        <ele>612.903979</ele>
        <time>2026-05-22T11:17:43.000Z</time>
      </trkpt>
      <trkpt lat="43.06446" lon="-1.20802">
        <ele>613.114786</ele>
        <time>2026-05-22T11:17:44.000Z</time>
      </trkpt>
      <trkpt lat="43.06446" lon="-1.20804">
        <ele>613.293269</ele>
        <time>2026-05-22T11:17:45.000Z</time>
      </trkpt>
      <trkpt lat="43.06446" lon="-1.20807">
        <ele>613.487761</ele>
        <time>2026-05-22T11:17:46.000Z</time>
      </trkpt>
      <trkpt lat="43.06446" lon="-1.20809">
        <ele>613.665383</ele>
        <time>2026-05-22T11:17:47.000Z</time>
      </trkpt>
      <trkpt lat="43.06445" lon="-1.20811">
        <ele>613.820879</ele>
        <time>2026-05-22T11:17:48.000Z</time>
      </trkpt>
      <trkpt lat="43.06445" lon="-1.20814">
        <ele>613.983434</ele>
        <time>2026-05-22T11:17:49.000Z</time>
      </trkpt>
      <trkpt lat="43.06445" lon="-1.20816">
        <ele>614.131212</ele>
        <time>2026-05-22T11:17:50.000Z</time>
      </trkpt>
      <trkpt lat="43.06445" lon="-1.20817">
        <ele>614.256165</ele>
        <time>2026-05-22T11:17:51.000Z</time>
      </trkpt>
      <trkpt lat="43.06445" lon="-1.20819">
        <ele>614.396917</ele>
        <time>2026-05-22T11:17:52.000Z</time>
      </trkpt>
      <trkpt lat="43.06445" lon="-1.20821">
        <ele>614.525501</ele>
        <time>2026-05-22T11:17:53.000Z</time>
      </trkpt>
      <trkpt lat="43.06445" lon="-1.20822">
        <ele>614.622087</ele>
        <time>2026-05-22T11:17:54.000Z</time>
      </trkpt>
      <trkpt lat="43.06444" lon="-1.20823">
        <ele>614.720249</ele>
        <time>2026-05-22T11:17:55.000Z</time>
      </trkpt>
      <trkpt lat="43.06444" lon="-1.20825">
        <ele>614.831543</ele>
        <time>2026-05-22T11:17:56.000Z</time>
      </trkpt>
      <trkpt lat="43.06445" lon="-1.20826">
        <ele>614.942617</ele>
        <time>2026-05-22T11:17:57.000Z</time>
      </trkpt>
      <trkpt lat="43.06445" lon="-1.20828">
        <ele>615.057528</ele>
        <time>2026-05-22T11:17:58.000Z</time>
      </trkpt>
      <trkpt lat="43.06445" lon="-1.2083">
        <ele>615.201158</ele>
        <time>2026-05-22T11:17:59.000Z</time>
      </trkpt>
      <trkpt lat="43.06446" lon="-1.20831">
        <ele>615.323212</ele>
        <time>2026-05-22T11:18:00.000Z</time>
      </trkpt>
      <trkpt lat="43.06445" lon="-1.20832">
        <ele>615.416926</ele>
        <time>2026-05-22T11:18:01.000Z</time>
      </trkpt>
      <trkpt lat="43.06445" lon="-1.20834">
        <ele>615.549813</ele>
        <time>2026-05-22T11:18:02.000Z</time>
      </trkpt>
      <trkpt lat="43.06445" lon="-1.20836">
        <ele>615.662477</ele>
        <time>2026-05-22T11:18:03.000Z</time>
      </trkpt>
      <trkpt lat="43.06445" lon="-1.20837">
        <ele>615.753266</ele>
        <time>2026-05-22T11:18:04.000Z</time>
      </trkpt>
      <trkpt lat="43.06446" lon="-1.20838">
        <ele>615.827844</ele>
        <time>2026-05-22T11:18:05.000Z</time>
      </trkpt>
      <trkpt lat="43.06446" lon="-1.20838">
        <ele>615.879566</ele>
        <time>2026-05-22T11:18:06.000Z</time>
      </trkpt>
      <trkpt lat="43.06446" lon="-1.2084">
        <ele>615.977728</ele>
        <time>2026-05-22T11:18:07.000Z</time>
      </trkpt>
      <trkpt lat="43.06446" lon="-1.20841">
        <ele>616.07916</ele>
        <time>2026-05-22T11:18:08.000Z</time>
      </trkpt>
      <trkpt lat="43.06447" lon="-1.20843">
        <ele>616.229828</ele>
        <time>2026-05-22T11:18:09.000Z</time>
      </trkpt>
      <trkpt lat="43.06447" lon="-1.20844">
        <ele>616.333766</ele>
        <time>2026-05-22T11:18:10.000Z</time>
      </trkpt>
      <trkpt lat="43.06447" lon="-1.20846">
        <ele>616.477396</ele>
        <time>2026-05-22T11:18:11.000Z</time>
      </trkpt>
      <trkpt lat="43.06447" lon="-1.20848">
        <ele>616.621026</ele>
        <time>2026-05-22T11:18:12.000Z</time>
      </trkpt>
      <trkpt lat="43.06447" lon="-1.2085">
        <ele>616.761779</ele>
        <time>2026-05-22T11:18:13.000Z</time>
      </trkpt>
      <trkpt lat="43.06448" lon="-1.20852">
        <ele>616.919008</ele>
        <time>2026-05-22T11:18:14.000Z</time>
      </trkpt>
      <trkpt lat="43.06449" lon="-1.20853">
        <ele>617.065197</ele>
        <time>2026-05-22T11:18:15.000Z</time>
      </trkpt>
      <trkpt lat="43.0645" lon="-1.20855">
        <ele>617.226463</ele>
        <time>2026-05-22T11:18:16.000Z</time>
      </trkpt>
      <trkpt lat="43.0645" lon="-1.20857">
        <ele>617.39494</ele>
        <time>2026-05-22T11:18:17.000Z</time>
      </trkpt>
      <trkpt lat="43.06451" lon="-1.20859">
        <ele>617.554692</ele>
        <time>2026-05-22T11:18:18.000Z</time>
      </trkpt>
      <trkpt lat="43.06451" lon="-1.20861">
        <ele>617.710882</ele>
        <time>2026-05-22T11:18:19.000Z</time>
      </trkpt>
      <trkpt lat="43.06452" lon="-1.20863">
        <ele>617.878396</ele>
        <time>2026-05-22T11:18:20.000Z</time>
      </trkpt>
      <trkpt lat="43.06451" lon="-1.20867">
        <ele>618.152558</ele>
        <time>2026-05-22T11:18:21.000Z</time>
      </trkpt>
      <trkpt lat="43.06451" lon="-1.20869">
        <ele>618.285558</ele>
        <time>2026-05-22T11:18:22.000Z</time>
      </trkpt>
      <trkpt lat="43.0645" lon="-1.20871">
        <ele>618.448757</ele>
        <time>2026-05-22T11:18:23.000Z</time>
      </trkpt>
      <trkpt lat="43.0645" lon="-1.20873">
        <ele>618.603923</ele>
        <time>2026-05-22T11:18:24.000Z</time>
      </trkpt>
      <trkpt lat="43.0645" lon="-1.20875">
        <ele>618.795442</ele>
        <time>2026-05-22T11:18:25.000Z</time>
      </trkpt>
      <trkpt lat="43.0645" lon="-1.20877">
        <ele>618.936194</ele>
        <time>2026-05-22T11:18:26.000Z</time>
      </trkpt>
      <trkpt lat="43.0645" lon="-1.20879">
        <ele>619.091361</ele>
        <time>2026-05-22T11:18:27.000Z</time>
      </trkpt>
      <trkpt lat="43.0645" lon="-1.20881">
        <ele>619.24058</ele>
        <time>2026-05-22T11:18:28.000Z</time>
      </trkpt>
      <trkpt lat="43.06451" lon="-1.20883">
        <ele>619.382418</ele>
        <time>2026-05-22T11:18:29.000Z</time>
      </trkpt>
      <trkpt lat="43.06451" lon="-1.20885">
        <ele>619.514383</ele>
        <time>2026-05-22T11:18:30.000Z</time>
      </trkpt>
      <trkpt lat="43.06451" lon="-1.20886">
        <ele>619.643606</ele>
        <time>2026-05-22T11:18:31.000Z</time>
      </trkpt>
      <trkpt lat="43.0645" lon="-1.20888">
        <ele>619.764262</ele>
        <time>2026-05-22T11:18:32.000Z</time>
      </trkpt>
      <trkpt lat="43.0645" lon="-1.20891">
        <ele>619.963168</ele>
        <time>2026-05-22T11:18:33.000Z</time>
      </trkpt>
      <trkpt lat="43.0645" lon="-1.20892">
        <ele>620.079816</ele>
        <time>2026-05-22T11:18:34.000Z</time>
      </trkpt>
      <trkpt lat="43.0645" lon="-1.20894">
        <ele>620.22517</ele>
        <time>2026-05-22T11:18:35.000Z</time>
      </trkpt>
      <trkpt lat="43.06451" lon="-1.20896">
        <ele>620.386884</ele>
        <time>2026-05-22T11:18:36.000Z</time>
      </trkpt>
      <trkpt lat="43.0645" lon="-1.20898">
        <ele>620.545518</ele>
        <time>2026-05-22T11:18:37.000Z</time>
      </trkpt>
      <trkpt lat="43.0645" lon="-1.209">
        <ele>620.668368</ele>
        <time>2026-05-22T11:18:38.000Z</time>
      </trkpt>
      <trkpt lat="43.0645" lon="-1.20902">
        <ele>620.824564</ele>
        <time>2026-05-22T11:18:39.000Z</time>
      </trkpt>
      <trkpt lat="43.0645" lon="-1.20903">
        <ele>620.948746</ele>
        <time>2026-05-22T11:18:40.000Z</time>
      </trkpt>
      <trkpt lat="43.0645" lon="-1.20905">
        <ele>621.103176</ele>
        <time>2026-05-22T11:18:41.000Z</time>
      </trkpt>
      <trkpt lat="43.0645" lon="-1.20907">
        <ele>621.26489</ele>
        <time>2026-05-22T11:18:42.000Z</time>
      </trkpt>
      <trkpt lat="43.0645" lon="-1.20909">
        <ele>621.406132</ele>
        <time>2026-05-22T11:18:43.000Z</time>
      </trkpt>
      <trkpt lat="43.06451" lon="-1.20911">
        <ele>621.532502</ele>
        <time>2026-05-22T11:18:44.000Z</time>
      </trkpt>
      <trkpt lat="43.06451" lon="-1.20912">
        <ele>621.654905</ele>
        <time>2026-05-22T11:18:45.000Z</time>
      </trkpt>
      <trkpt lat="43.0645" lon="-1.20914">
        <ele>621.784277</ele>
        <time>2026-05-22T11:18:46.000Z</time>
      </trkpt>
      <trkpt lat="43.0645" lon="-1.20915">
        <ele>621.90668</ele>
        <time>2026-05-22T11:18:47.000Z</time>
      </trkpt>
      <trkpt lat="43.0645" lon="-1.20918">
        <ele>622.067334</ele>
        <time>2026-05-22T11:18:48.000Z</time>
      </trkpt>
      <trkpt lat="43.0645" lon="-1.2092">
        <ele>622.220338</ele>
        <time>2026-05-22T11:18:49.000Z</time>
      </trkpt>
      <trkpt lat="43.0645" lon="-1.20922">
        <ele>622.373342</ele>
        <time>2026-05-22T11:18:50.000Z</time>
      </trkpt>
      <trkpt lat="43.06451" lon="-1.20923">
        <ele>622.509974</ele>
        <time>2026-05-22T11:18:51.000Z</time>
      </trkpt>
      <trkpt lat="43.06451" lon="-1.20925">
        <ele>622.643768</ele>
        <time>2026-05-22T11:18:52.000Z</time>
      </trkpt>
      <trkpt lat="43.06451" lon="-1.20926">
        <ele>622.758998</ele>
        <time>2026-05-22T11:18:53.000Z</time>
      </trkpt>
      <trkpt lat="43.06451" lon="-1.20928">
        <ele>622.866611</ele>
        <time>2026-05-22T11:18:54.000Z</time>
      </trkpt>
      <trkpt lat="43.06451" lon="-1.2093">
        <ele>622.996665</ele>
        <time>2026-05-22T11:18:55.000Z</time>
      </trkpt>
      <trkpt lat="43.06451" lon="-1.20931">
        <ele>623.133297</ele>
        <time>2026-05-22T11:18:56.000Z</time>
      </trkpt>
      <trkpt lat="43.06452" lon="-1.20933">
        <ele>623.31448</ele>
        <time>2026-05-22T11:18:57.000Z</time>
      </trkpt>
      <trkpt lat="43.06453" lon="-1.20935">
        <ele>623.468975</ele>
        <time>2026-05-22T11:18:58.000Z</time>
      </trkpt>
      <trkpt lat="43.06453" lon="-1.20937">
        <ele>623.623471</ele>
        <time>2026-05-22T11:18:59.000Z</time>
      </trkpt>
      <trkpt lat="43.06454" lon="-1.20939">
        <ele>623.763668</ele>
        <time>2026-05-22T11:19:00.000Z</time>
      </trkpt>
      <trkpt lat="43.06453" lon="-1.20941">
        <ele>623.910523</ele>
        <time>2026-05-22T11:19:01.000Z</time>
      </trkpt>
      <trkpt lat="43.06454" lon="-1.20942">
        <ele>623.99774</ele>
        <time>2026-05-22T11:19:02.000Z</time>
      </trkpt>
      <trkpt lat="43.06455" lon="-1.20942">
        <ele>624.127069</ele>
        <time>2026-05-22T11:19:03.000Z</time>
      </trkpt>
      <trkpt lat="43.06456" lon="-1.20943">
        <ele>624.235504</ele>
        <time>2026-05-22T11:19:04.000Z</time>
      </trkpt>
      <trkpt lat="43.06457" lon="-1.20944">
        <ele>624.35679</ele>
        <time>2026-05-22T11:19:05.000Z</time>
      </trkpt>
      <trkpt lat="43.06458" lon="-1.20945">
        <ele>624.5315</ele>
        <time>2026-05-22T11:19:06.000Z</time>
      </trkpt>
      <trkpt lat="43.06459" lon="-1.20946">
        <ele>624.675915</ele>
        <time>2026-05-22T11:19:07.000Z</time>
      </trkpt>
      <trkpt lat="43.06461" lon="-1.20947">
        <ele>624.854108</ele>
        <time>2026-05-22T11:19:08.000Z</time>
      </trkpt>
      <trkpt lat="43.06462" lon="-1.20948">
        <ele>624.992383</ele>
        <time>2026-05-22T11:19:09.000Z</time>
      </trkpt>
      <trkpt lat="43.06463" lon="-1.20949">
        <ele>625.12616</ele>
        <time>2026-05-22T11:19:10.000Z</time>
      </trkpt>
      <trkpt lat="43.06464" lon="-1.2095">
        <ele>625.22527</ele>
        <time>2026-05-22T11:19:11.000Z</time>
      </trkpt>
      <trkpt lat="43.06465" lon="-1.20951">
        <ele>625.362282</ele>
        <time>2026-05-22T11:19:12.000Z</time>
      </trkpt>
      <trkpt lat="43.06466" lon="-1.20952">
        <ele>625.524245</ele>
        <time>2026-05-22T11:19:13.000Z</time>
      </trkpt>
      <trkpt lat="43.06467" lon="-1.20953">
        <ele>625.688434</ele>
        <time>2026-05-22T11:19:14.000Z</time>
      </trkpt>
      <trkpt lat="43.06469" lon="-1.20954">
        <ele>625.847295</ele>
        <time>2026-05-22T11:19:15.000Z</time>
      </trkpt>
      <trkpt lat="43.06469" lon="-1.20955">
        <ele>625.933781</ele>
        <time>2026-05-22T11:19:16.000Z</time>
      </trkpt>
      <trkpt lat="43.0647" lon="-1.20956">
        <ele>626.020278</ele>
        <time>2026-05-22T11:19:17.000Z</time>
      </trkpt>
      <trkpt lat="43.06471" lon="-1.20956">
        <ele>626.128672</ele>
        <time>2026-05-22T11:19:18.000Z</time>
      </trkpt>
      <trkpt lat="43.06471" lon="-1.20957">
        <ele>626.227782</ele>
        <time>2026-05-22T11:19:19.000Z</time>
      </trkpt>
      <trkpt lat="43.06472" lon="-1.20958">
        <ele>626.320991</ele>
        <time>2026-05-22T11:19:20.000Z</time>
      </trkpt>
      <trkpt lat="43.06473" lon="-1.20959">
        <ele>626.433361</ele>
        <time>2026-05-22T11:19:21.000Z</time>
      </trkpt>
      <trkpt lat="43.06474" lon="-1.2096">
        <ele>626.558683</ele>
        <time>2026-05-22T11:19:22.000Z</time>
      </trkpt>
      <trkpt lat="43.06475" lon="-1.20961">
        <ele>626.685028</ele>
        <time>2026-05-22T11:19:23.000Z</time>
      </trkpt>
      <trkpt lat="43.06476" lon="-1.20962">
        <ele>626.854062</ele>
        <time>2026-05-22T11:19:24.000Z</time>
      </trkpt>
      <trkpt lat="43.06476" lon="-1.20963">
        <ele>626.922855</ele>
        <time>2026-05-22T11:19:25.000Z</time>
      </trkpt>
      <trkpt lat="43.06477" lon="-1.20964">
        <ele>626.98494</ele>
        <time>2026-05-22T11:19:26.000Z</time>
      </trkpt>
      <trkpt lat="43.06477" lon="-1.20965">
        <ele>627.114972</ele>
        <time>2026-05-22T11:19:27.000Z</time>
      </trkpt>
      <trkpt lat="43.06478" lon="-1.20966">
        <ele>627.244654</ele>
        <time>2026-05-22T11:19:28.000Z</time>
      </trkpt>
      <trkpt lat="43.0648" lon="-1.20968">
        <ele>627.436168</ele>
        <time>2026-05-22T11:19:29.000Z</time>
      </trkpt>
      <trkpt lat="43.0648" lon="-1.2097">
        <ele>627.572333</ele>
        <time>2026-05-22T11:19:30.000Z</time>
      </trkpt>
      <trkpt lat="43.0648" lon="-1.20971">
        <ele>627.681464</ele>
        <time>2026-05-22T11:19:31.000Z</time>
      </trkpt>
      <trkpt lat="43.06481" lon="-1.20972">
        <ele>627.831249</ele>
        <time>2026-05-22T11:19:32.000Z</time>
      </trkpt>
      <trkpt lat="43.06482" lon="-1.20974">
        <ele>627.979741</ele>
        <time>2026-05-22T11:19:33.000Z</time>
      </trkpt>
      <trkpt lat="43.06484" lon="-1.20975">
        <ele>628.170721</ele>
        <time>2026-05-22T11:19:34.000Z</time>
      </trkpt>
      <trkpt lat="43.06485" lon="-1.20977">
        <ele>628.343953</ele>
        <time>2026-05-22T11:19:35.000Z</time>
      </trkpt>
      <trkpt lat="43.06485" lon="-1.20981">
        <ele>628.596625</ele>
        <time>2026-05-22T11:19:36.000Z</time>
      </trkpt>
      <trkpt lat="43.06486" lon="-1.20982">
        <ele>628.757234</ele>
        <time>2026-05-22T11:19:37.000Z</time>
      </trkpt>
      <trkpt lat="43.06487" lon="-1.20984">
        <ele>628.9403</ele>
        <time>2026-05-22T11:19:38.000Z</time>
      </trkpt>
      <trkpt lat="43.06489" lon="-1.20986">
        <ele>629.19299</ele>
        <time>2026-05-22T11:19:39.000Z</time>
      </trkpt>
      <trkpt lat="43.0649" lon="-1.20988">
        <ele>629.378449</ele>
        <time>2026-05-22T11:19:40.000Z</time>
      </trkpt>
      <trkpt lat="43.06491" lon="-1.20989">
        <ele>629.51546</ele>
        <time>2026-05-22T11:19:41.000Z</time>
      </trkpt>
      <trkpt lat="43.06492" lon="-1.20991">
        <ele>629.659875</ele>
        <time>2026-05-22T11:19:42.000Z</time>
      </trkpt>
      <trkpt lat="43.06493" lon="-1.20992">
        <ele>629.802537</ele>
        <time>2026-05-22T11:19:43.000Z</time>
      </trkpt>
      <trkpt lat="43.06493" lon="-1.20994">
        <ele>629.953895</ele>
        <time>2026-05-22T11:19:44.000Z</time>
      </trkpt>
      <trkpt lat="43.06494" lon="-1.20995">
        <ele>630.08024</ele>
        <time>2026-05-22T11:19:45.000Z</time>
      </trkpt>
      <trkpt lat="43.06495" lon="-1.20996">
        <ele>630.197876</ele>
        <time>2026-05-22T11:19:46.000Z</time>
      </trkpt>
      <trkpt lat="43.06496" lon="-1.20998">
        <ele>630.350054</ele>
        <time>2026-05-22T11:19:47.000Z</time>
      </trkpt>
      <trkpt lat="43.06496" lon="-1.20998">
        <ele>630.432607</ele>
        <time>2026-05-22T11:19:48.000Z</time>
      </trkpt>
      <trkpt lat="43.06497" lon="-1.21">
        <ele>630.56239</ele>
        <time>2026-05-22T11:19:49.000Z</time>
      </trkpt>
      <trkpt lat="43.06498" lon="-1.21001">
        <ele>630.70504</ele>
        <time>2026-05-22T11:19:50.000Z</time>
      </trkpt>
      <trkpt lat="43.06499" lon="-1.21002">
        <ele>630.880459</ele>
        <time>2026-05-22T11:19:51.000Z</time>
      </trkpt>
      <trkpt lat="43.065" lon="-1.21004">
        <ele>631.024874</ele>
        <time>2026-05-22T11:19:52.000Z</time>
      </trkpt>
      <trkpt lat="43.06501" lon="-1.21005">
        <ele>631.137265</ele>
        <time>2026-05-22T11:19:53.000Z</time>
      </trkpt>
      <trkpt lat="43.06502" lon="-1.21007">
        <ele>631.366286</ele>
        <time>2026-05-22T11:19:54.000Z</time>
      </trkpt>
      <trkpt lat="43.06503" lon="-1.21009">
        <ele>631.508958</ele>
        <time>2026-05-22T11:19:55.000Z</time>
      </trkpt>
      <trkpt lat="43.06504" lon="-1.21011">
        <ele>631.663655</ele>
        <time>2026-05-22T11:19:56.000Z</time>
      </trkpt>
      <trkpt lat="43.06505" lon="-1.21012">
        <ele>631.812146</ele>
        <time>2026-05-22T11:19:57.000Z</time>
      </trkpt>
      <trkpt lat="43.06505" lon="-1.21014">
        <ele>631.956579</ele>
        <time>2026-05-22T11:19:58.000Z</time>
      </trkpt>
      <trkpt lat="43.06505" lon="-1.21016">
        <ele>632.132843</ele>
        <time>2026-05-22T11:19:59.000Z</time>
      </trkpt>
      <trkpt lat="43.06506" lon="-1.21018">
        <ele>632.316421</ele>
        <time>2026-05-22T11:20:00.000Z</time>
      </trkpt>
      <trkpt lat="43.06507" lon="-1.21021">
        <ele>632.509313</ele>
        <time>2026-05-22T11:20:01.000Z</time>
      </trkpt>
      <trkpt lat="43.06507" lon="-1.21022">
        <ele>632.645944</ele>
        <time>2026-05-22T11:20:02.000Z</time>
      </trkpt>
      <trkpt lat="43.06508" lon="-1.21024">
        <ele>632.811344</ele>
        <time>2026-05-22T11:20:03.000Z</time>
      </trkpt>
      <trkpt lat="43.06508" lon="-1.21026">
        <ele>632.940714</ele>
        <time>2026-05-22T11:20:04.000Z</time>
      </trkpt>
      <trkpt lat="43.06509" lon="-1.21027">
        <ele>633.070084</ele>
        <time>2026-05-22T11:20:05.000Z</time>
      </trkpt>
      <trkpt lat="43.06509" lon="-1.21029">
        <ele>633.192242</ele>
        <time>2026-05-22T11:20:06.000Z</time>
      </trkpt>
      <trkpt lat="43.0651" lon="-1.21031">
        <ele>633.332437</ele>
        <time>2026-05-22T11:20:07.000Z</time>
      </trkpt>
      <trkpt lat="43.0651" lon="-1.21032">
        <ele>633.481723</ele>
        <time>2026-05-22T11:20:08.000Z</time>
      </trkpt>
      <trkpt lat="43.06511" lon="-1.21034">
        <ele>633.642805</ele>
        <time>2026-05-22T11:20:09.000Z</time>
      </trkpt>
      <trkpt lat="43.06512" lon="-1.21035">
        <ele>633.774368</ele>
        <time>2026-05-22T11:20:10.000Z</time>
      </trkpt>
      <trkpt lat="43.06513" lon="-1.21036">
        <ele>633.923621</ele>
        <time>2026-05-22T11:20:11.000Z</time>
      </trkpt>
      <trkpt lat="43.06514" lon="-1.21037">
        <ele>634.068035</ele>
        <time>2026-05-22T11:20:12.000Z</time>
      </trkpt>
      <trkpt lat="43.06515" lon="-1.21039">
        <ele>634.228644</ele>
        <time>2026-05-22T11:20:13.000Z</time>
      </trkpt>
      <trkpt lat="43.06516" lon="-1.21041">
        <ele>634.387276</ele>
        <time>2026-05-22T11:20:14.000Z</time>
      </trkpt>
      <trkpt lat="43.06517" lon="-1.21043">
        <ele>634.548457</ele>
        <time>2026-05-22T11:20:15.000Z</time>
      </trkpt>
      <trkpt lat="43.06517" lon="-1.21045">
        <ele>634.695777</ele>
        <time>2026-05-22T11:20:16.000Z</time>
      </trkpt>
      <trkpt lat="43.06517" lon="-1.21046">
        <ele>634.839708</ele>
        <time>2026-05-22T11:20:17.000Z</time>
      </trkpt>
      <trkpt lat="43.06518" lon="-1.21048">
        <ele>634.994202</ele>
        <time>2026-05-22T11:20:18.000Z</time>
      </trkpt>
      <trkpt lat="43.06519" lon="-1.2105">
        <ele>635.150198</ele>
        <time>2026-05-22T11:20:19.000Z</time>
      </trkpt>
      <trkpt lat="43.06519" lon="-1.21052">
        <ele>635.291438</ele>
        <time>2026-05-22T11:20:20.000Z</time>
      </trkpt>
      <trkpt lat="43.0652" lon="-1.21054">
        <ele>635.440724</ele>
        <time>2026-05-22T11:20:21.000Z</time>
      </trkpt>
      <trkpt lat="43.0652" lon="-1.21055">
        <ele>635.595421</ele>
        <time>2026-05-22T11:20:22.000Z</time>
      </trkpt>
      <trkpt lat="43.06521" lon="-1.21057">
        <ele>635.762284</ele>
        <time>2026-05-22T11:20:23.000Z</time>
      </trkpt>
      <trkpt lat="43.06523" lon="-1.21059">
        <ele>635.979771</ele>
        <time>2026-05-22T11:20:24.000Z</time>
      </trkpt>
      <trkpt lat="43.06524" lon="-1.21061">
        <ele>636.196234</ele>
        <time>2026-05-22T11:20:25.000Z</time>
      </trkpt>
      <trkpt lat="43.06525" lon="-1.21063">
        <ele>636.357415</ele>
        <time>2026-05-22T11:20:26.000Z</time>
      </trkpt>
      <trkpt lat="43.06525" lon="-1.21065">
        <ele>636.469029</ele>
        <time>2026-05-22T11:20:27.000Z</time>
      </trkpt>
      <trkpt lat="43.06526" lon="-1.21066">
        <ele>636.588243</ele>
        <time>2026-05-22T11:20:28.000Z</time>
      </trkpt>
      <trkpt lat="43.06526" lon="-1.21067">
        <ele>636.687352</ele>
        <time>2026-05-22T11:20:29.000Z</time>
      </trkpt>
      <trkpt lat="43.06527" lon="-1.21068">
        <ele>636.781351</ele>
        <time>2026-05-22T11:20:30.000Z</time>
      </trkpt>
      <trkpt lat="43.06527" lon="-1.2107">
        <ele>636.903508</ele>
        <time>2026-05-22T11:20:31.000Z</time>
      </trkpt>
      <trkpt lat="43.06528" lon="-1.21072">
        <ele>637.066296</ele>
        <time>2026-05-22T11:20:32.000Z</time>
      </trkpt>
      <trkpt lat="43.06528" lon="-1.21074">
        <ele>637.219656</ele>
        <time>2026-05-22T11:20:33.000Z</time>
      </trkpt>
      <trkpt lat="43.06528" lon="-1.21075">
        <ele>637.368147</ele>
        <time>2026-05-22T11:20:34.000Z</time>
      </trkpt>
      <trkpt lat="43.06529" lon="-1.21077">
        <ele>637.529859</ele>
        <time>2026-05-22T11:20:35.000Z</time>
      </trkpt>
      <trkpt lat="43.0653" lon="-1.21079">
        <ele>637.679145</ele>
        <time>2026-05-22T11:20:36.000Z</time>
      </trkpt>
      <trkpt lat="43.0653" lon="-1.2108">
        <ele>637.808928</ele>
        <time>2026-05-22T11:20:37.000Z</time>
      </trkpt>
      <trkpt lat="43.06531" lon="-1.21081">
        <ele>637.926562</ele>
        <time>2026-05-22T11:20:38.000Z</time>
      </trkpt>
      <trkpt lat="43.06531" lon="-1.21083">
        <ele>638.049411</ele>
        <time>2026-05-22T11:20:39.000Z</time>
      </trkpt>
      <trkpt lat="43.06531" lon="-1.21085">
        <ele>638.218039</ele>
        <time>2026-05-22T11:20:40.000Z</time>
      </trkpt>
      <trkpt lat="43.06532" lon="-1.21087">
        <ele>638.387693</ele>
        <time>2026-05-22T11:20:41.000Z</time>
      </trkpt>
      <trkpt lat="43.06532" lon="-1.21089">
        <ele>638.524323</ele>
        <time>2026-05-22T11:20:42.000Z</time>
      </trkpt>
      <trkpt lat="43.06533" lon="-1.2109">
        <ele>638.640069</ele>
        <time>2026-05-22T11:20:43.000Z</time>
      </trkpt>
      <trkpt lat="43.06533" lon="-1.21092">
        <ele>638.763579</ele>
        <time>2026-05-22T11:20:44.000Z</time>
      </trkpt>
      <trkpt lat="43.06534" lon="-1.21093">
        <ele>638.877989</ele>
        <time>2026-05-22T11:20:45.000Z</time>
      </trkpt>
      <trkpt lat="43.06535" lon="-1.21095">
        <ele>638.990052</ele>
        <time>2026-05-22T11:20:46.000Z</time>
      </trkpt>
      <trkpt lat="43.06535" lon="-1.21096">
        <ele>639.09128</ele>
        <time>2026-05-22T11:20:47.000Z</time>
      </trkpt>
      <trkpt lat="43.06536" lon="-1.21097">
        <ele>639.181074</ele>
        <time>2026-05-22T11:20:48.000Z</time>
      </trkpt>
      <trkpt lat="43.06537" lon="-1.21098">
        <ele>639.28694</ele>
        <time>2026-05-22T11:20:49.000Z</time>
      </trkpt>
      <trkpt lat="43.06537" lon="-1.21099">
        <ele>639.383043</ele>
        <time>2026-05-22T11:20:50.000Z</time>
      </trkpt>
      <trkpt lat="43.06538" lon="-1.211">
        <ele>639.506378</ele>
        <time>2026-05-22T11:20:51.000Z</time>
      </trkpt>
      <trkpt lat="43.06539" lon="-1.21101">
        <ele>639.619107</ele>
        <time>2026-05-22T11:20:52.000Z</time>
      </trkpt>
      <trkpt lat="43.0654" lon="-1.21102">
        <ele>639.726811</ele>
        <time>2026-05-22T11:20:53.000Z</time>
      </trkpt>
      <trkpt lat="43.06541" lon="-1.21103">
        <ele>639.844441</ele>
        <time>2026-05-22T11:20:54.000Z</time>
      </trkpt>
      <trkpt lat="43.06542" lon="-1.21105">
        <ele>639.975434</ele>
        <time>2026-05-22T11:20:55.000Z</time>
      </trkpt>
      <trkpt lat="43.06543" lon="-1.21106">
        <ele>640.118101</ele>
        <time>2026-05-22T11:20:56.000Z</time>
      </trkpt>
      <trkpt lat="43.06544" lon="-1.21108">
        <ele>640.278274</ele>
        <time>2026-05-22T11:20:57.000Z</time>
      </trkpt>
      <trkpt lat="43.06545" lon="-1.2111">
        <ele>640.435856</ele>
        <time>2026-05-22T11:20:58.000Z</time>
      </trkpt>
      <trkpt lat="43.06545" lon="-1.21112">
        <ele>640.583515</ele>
        <time>2026-05-22T11:20:59.000Z</time>
      </trkpt>
      <trkpt lat="43.06546" lon="-1.21115">
        <ele>640.773027</ele>
        <time>2026-05-22T11:21:00.000Z</time>
      </trkpt>
      <trkpt lat="43.06546" lon="-1.21117">
        <ele>640.921508</ele>
        <time>2026-05-22T11:21:01.000Z</time>
      </trkpt>
      <trkpt lat="43.06547" lon="-1.21118">
        <ele>641.048675</ele>
        <time>2026-05-22T11:21:02.000Z</time>
      </trkpt>
      <trkpt lat="43.06547" lon="-1.2112">
        <ele>641.190173</ele>
        <time>2026-05-22T11:21:03.000Z</time>
      </trkpt>
      <trkpt lat="43.06548" lon="-1.21122">
        <ele>641.327464</ele>
        <time>2026-05-22T11:21:04.000Z</time>
      </trkpt>
      <trkpt lat="43.06548" lon="-1.21124">
        <ele>641.451397</ele>
        <time>2026-05-22T11:21:05.000Z</time>
      </trkpt>
      <trkpt lat="43.06549" lon="-1.21125">
        <ele>641.608313</ele>
        <time>2026-05-22T11:21:06.000Z</time>
      </trkpt>
      <trkpt lat="43.0655" lon="-1.21127">
        <ele>641.755792</ele>
        <time>2026-05-22T11:21:07.000Z</time>
      </trkpt>
      <trkpt lat="43.06551" lon="-1.21128">
        <ele>641.868521</ele>
        <time>2026-05-22T11:21:08.000Z</time>
      </trkpt>
      <trkpt lat="43.06552" lon="-1.2113">
        <ele>642.011187</ele>
        <time>2026-05-22T11:21:09.000Z</time>
      </trkpt>
      <trkpt lat="43.06553" lon="-1.21131">
        <ele>642.137502</ele>
        <time>2026-05-22T11:21:10.000Z</time>
      </trkpt>
      <trkpt lat="43.06555" lon="-1.21132">
        <ele>642.284412</ele>
        <time>2026-05-22T11:21:11.000Z</time>
      </trkpt>
      <trkpt lat="43.06556" lon="-1.21132">
        <ele>642.38634</ele>
        <time>2026-05-22T11:21:12.000Z</time>
      </trkpt>
      <trkpt lat="43.06557" lon="-1.21133">
        <ele>642.527908</ele>
        <time>2026-05-22T11:21:13.000Z</time>
      </trkpt>
      <trkpt lat="43.06558" lon="-1.21134">
        <ele>642.620165</ele>
        <time>2026-05-22T11:21:14.000Z</time>
      </trkpt>
      <trkpt lat="43.06559" lon="-1.21135">
        <ele>642.737795</ele>
        <time>2026-05-22T11:21:15.000Z</time>
      </trkpt>
      <trkpt lat="43.0656" lon="-1.21136">
        <ele>642.867206</ele>
        <time>2026-05-22T11:21:16.000Z</time>
      </trkpt>
      <trkpt lat="43.0656" lon="-1.21137">
        <ele>642.948682</ele>
        <time>2026-05-22T11:21:17.000Z</time>
      </trkpt>
      <trkpt lat="43.06561" lon="-1.21138">
        <ele>643.049802</ele>
        <time>2026-05-22T11:21:18.000Z</time>
      </trkpt>
      <trkpt lat="43.06562" lon="-1.21138">
        <ele>643.193788</ele>
        <time>2026-05-22T11:21:19.000Z</time>
      </trkpt>
      <trkpt lat="43.06564" lon="-1.21139">
        <ele>643.362406</ele>
        <time>2026-05-22T11:21:20.000Z</time>
      </trkpt>
      <trkpt lat="43.06565" lon="-1.2114">
        <ele>643.512397</ele>
        <time>2026-05-22T11:21:21.000Z</time>
      </trkpt>
      <trkpt lat="43.06566" lon="-1.21141">
        <ele>643.652519</ele>
        <time>2026-05-22T11:21:22.000Z</time>
      </trkpt>
      <trkpt lat="43.06568" lon="-1.21143">
        <ele>643.818571</ele>
        <time>2026-05-22T11:21:23.000Z</time>
      </trkpt>
      <trkpt lat="43.06569" lon="-1.21144">
        <ele>643.968333</ele>
        <time>2026-05-22T11:21:24.000Z</time>
      </trkpt>
      <trkpt lat="43.0657" lon="-1.21145">
        <ele>644.118325</ele>
        <time>2026-05-22T11:21:25.000Z</time>
      </trkpt>
      <trkpt lat="43.06571" lon="-1.21146">
        <ele>644.243749</ele>
        <time>2026-05-22T11:21:26.000Z</time>
      </trkpt>
      <trkpt lat="43.06573" lon="-1.21148">
        <ele>644.405244</ele>
        <time>2026-05-22T11:21:27.000Z</time>
      </trkpt>
      <trkpt lat="43.06574" lon="-1.2115">
        <ele>644.551354</ele>
        <time>2026-05-22T11:21:28.000Z</time>
      </trkpt>
      <trkpt lat="43.06575" lon="-1.2115">
        <ele>644.706914</ele>
        <time>2026-05-22T11:21:29.000Z</time>
      </trkpt>
      <trkpt lat="43.06576" lon="-1.21151">
        <ele>644.824544</ele>
        <time>2026-05-22T11:21:30.000Z</time>
      </trkpt>
      <trkpt lat="43.06577" lon="-1.21153">
        <ele>644.978898</ele>
        <time>2026-05-22T11:21:31.000Z</time>
      </trkpt>
      <trkpt lat="43.06579" lon="-1.21155">
        <ele>645.1639</ele>
        <time>2026-05-22T11:21:32.000Z</time>
      </trkpt>
      <trkpt lat="43.0658" lon="-1.21157">
        <ele>645.360245</ele>
        <time>2026-05-22T11:21:33.000Z</time>
      </trkpt>
      <trkpt lat="43.06581" lon="-1.2116">
        <ele>645.568731</ele>
        <time>2026-05-22T11:21:34.000Z</time>
      </trkpt>
      <trkpt lat="43.06582" lon="-1.21162">
        <ele>645.731572</ele>
        <time>2026-05-22T11:21:35.000Z</time>
      </trkpt>
      <trkpt lat="43.06583" lon="-1.21163">
        <ele>645.884028</ele>
        <time>2026-05-22T11:21:36.000Z</time>
      </trkpt>
      <trkpt lat="43.06584" lon="-1.21164">
        <ele>646.021204</ele>
        <time>2026-05-22T11:21:37.000Z</time>
      </trkpt>
      <trkpt lat="43.06585" lon="-1.21166">
        <ele>646.158412</ele>
        <time>2026-05-22T11:21:38.000Z</time>
      </trkpt>
      <trkpt lat="43.06585" lon="-1.21169">
        <ele>646.334431</ele>
        <time>2026-05-22T11:21:39.000Z</time>
      </trkpt>
      <trkpt lat="43.06586" lon="-1.21171">
        <ele>646.519421</ele>
        <time>2026-05-22T11:21:40.000Z</time>
      </trkpt>
      <trkpt lat="43.06587" lon="-1.21173">
        <ele>646.673307</ele>
        <time>2026-05-22T11:21:41.000Z</time>
      </trkpt>
      <trkpt lat="43.06588" lon="-1.21175">
        <ele>646.836304</ele>
        <time>2026-05-22T11:21:42.000Z</time>
      </trkpt>
      <trkpt lat="43.06589" lon="-1.21177">
        <ele>646.987754</ele>
        <time>2026-05-22T11:21:43.000Z</time>
      </trkpt>
      <trkpt lat="43.0659" lon="-1.21178">
        <ele>647.125045</ele>
        <time>2026-05-22T11:21:44.000Z</time>
      </trkpt>
      <trkpt lat="43.0659" lon="-1.2118">
        <ele>647.278309</ele>
        <time>2026-05-22T11:21:45.000Z</time>
      </trkpt>
      <trkpt lat="43.06591" lon="-1.21182">
        <ele>647.452023</ele>
        <time>2026-05-22T11:21:46.000Z</time>
      </trkpt>
      <trkpt lat="43.06592" lon="-1.21184">
        <ele>647.614864</ele>
        <time>2026-05-22T11:21:47.000Z</time>
      </trkpt>
      <trkpt lat="43.06593" lon="-1.21187">
        <ele>647.776986</ele>
        <time>2026-05-22T11:21:48.000Z</time>
      </trkpt>
      <trkpt lat="43.06594" lon="-1.21189">
        <ele>647.950929</ele>
        <time>2026-05-22T11:21:49.000Z</time>
      </trkpt>
      <trkpt lat="43.06595" lon="-1.21191">
        <ele>648.124643</ele>
        <time>2026-05-22T11:21:50.000Z</time>
      </trkpt>
      <trkpt lat="43.06596" lon="-1.21192">
        <ele>648.270844</ele>
        <time>2026-05-22T11:21:51.000Z</time>
      </trkpt>
      <trkpt lat="43.06596" lon="-1.21194">
        <ele>648.412341</ele>
        <time>2026-05-22T11:21:52.000Z</time>
      </trkpt>
      <trkpt lat="43.06597" lon="-1.21196">
        <ele>648.576683</ele>
        <time>2026-05-22T11:21:53.000Z</time>
      </trkpt>
      <trkpt lat="43.06598" lon="-1.21198">
        <ele>648.738178</ele>
        <time>2026-05-22T11:21:54.000Z</time>
      </trkpt>
      <trkpt lat="43.06599" lon="-1.212">
        <ele>648.871382</ele>
        <time>2026-05-22T11:21:55.000Z</time>
      </trkpt>
      <trkpt lat="43.06599" lon="-1.21202">
        <ele>649.008589</ele>
        <time>2026-05-22T11:21:56.000Z</time>
      </trkpt>
      <trkpt lat="43.066" lon="-1.21203">
        <ele>649.150087</ele>
        <time>2026-05-22T11:21:57.000Z</time>
      </trkpt>
      <trkpt lat="43.066" lon="-1.21205">
        <ele>649.285498</ele>
        <time>2026-05-22T11:21:58.000Z</time>
      </trkpt>
      <trkpt lat="43.06601" lon="-1.21207">
        <ele>649.425633</ele>
        <time>2026-05-22T11:21:59.000Z</time>
      </trkpt>
      <trkpt lat="43.06602" lon="-1.21209">
        <ele>649.577083</ele>
        <time>2026-05-22T11:22:00.000Z</time>
      </trkpt>
      <trkpt lat="43.06603" lon="-1.2121">
        <ele>649.719749</ele>
        <time>2026-05-22T11:22:01.000Z</time>
      </trkpt>
      <trkpt lat="43.06604" lon="-1.21212">
        <ele>649.860659</ele>
        <time>2026-05-22T11:22:02.000Z</time>
      </trkpt>
      <trkpt lat="43.06605" lon="-1.21213">
        <ele>650.012109</ele>
        <time>2026-05-22T11:22:03.000Z</time>
      </trkpt>
      <trkpt lat="43.06606" lon="-1.21215">
        <ele>650.15779</ele>
        <time>2026-05-22T11:22:04.000Z</time>
      </trkpt>
      <trkpt lat="43.06607" lon="-1.21217">
        <ele>650.3039</ele>
        <time>2026-05-22T11:22:05.000Z</time>
      </trkpt>
      <trkpt lat="43.06608" lon="-1.21218">
        <ele>650.449582</ele>
        <time>2026-05-22T11:22:06.000Z</time>
      </trkpt>
      <trkpt lat="43.06609" lon="-1.2122">
        <ele>650.601753</ele>
        <time>2026-05-22T11:22:07.000Z</time>
      </trkpt>
      <trkpt lat="43.06608" lon="-1.21222">
        <ele>650.733937</ele>
        <time>2026-05-22T11:22:08.000Z</time>
      </trkpt>
      <trkpt lat="43.06609" lon="-1.21224">
        <ele>650.86205</ele>
        <time>2026-05-22T11:22:09.000Z</time>
      </trkpt>
      <trkpt lat="43.06609" lon="-1.21226">
        <ele>651.015314</ele>
        <time>2026-05-22T11:22:10.000Z</time>
      </trkpt>
      <trkpt lat="43.0661" lon="-1.21228">
        <ele>651.152604</ele>
        <time>2026-05-22T11:22:11.000Z</time>
      </trkpt>
      <trkpt lat="43.0661" lon="-1.2123">
        <ele>651.272088</ele>
        <time>2026-05-22T11:22:12.000Z</time>
      </trkpt>
      <trkpt lat="43.0661" lon="-1.21231">
        <ele>651.393445</ele>
        <time>2026-05-22T11:22:13.000Z</time>
      </trkpt>
      <trkpt lat="43.06611" lon="-1.21233">
        <ele>651.521557</ele>
        <time>2026-05-22T11:22:14.000Z</time>
      </trkpt>
      <trkpt lat="43.06611" lon="-1.21235">
        <ele>651.650968</ele>
        <time>2026-05-22T11:22:15.000Z</time>
      </trkpt>
      <trkpt lat="43.06611" lon="-1.21236">
        <ele>651.761993</ele>
        <time>2026-05-22T11:22:16.000Z</time>
      </trkpt>
      <trkpt lat="43.06612" lon="-1.21238">
        <ele>651.879339</ele>
        <time>2026-05-22T11:22:17.000Z</time>
      </trkpt>
      <trkpt lat="43.06612" lon="-1.2124">
        <ele>652.023226</ele>
        <time>2026-05-22T11:22:18.000Z</time>
      </trkpt>
      <trkpt lat="43.06613" lon="-1.21242">
        <ele>652.189741</ele>
        <time>2026-05-22T11:22:19.000Z</time>
      </trkpt>
      <trkpt lat="43.06613" lon="-1.21244">
        <ele>652.353799</ele>
        <time>2026-05-22T11:22:20.000Z</time>
      </trkpt>
      <trkpt lat="43.06614" lon="-1.21246">
        <ele>652.503826</ele>
        <time>2026-05-22T11:22:21.000Z</time>
      </trkpt>
      <trkpt lat="43.06615" lon="-1.21249">
        <ele>652.672769</ele>
        <time>2026-05-22T11:22:22.000Z</time>
      </trkpt>
      <trkpt lat="43.06615" lon="-1.21251">
        <ele>652.826655</ele>
        <time>2026-05-22T11:22:23.000Z</time>
      </trkpt>
      <trkpt lat="43.06616" lon="-1.21252">
        <ele>652.989148</ele>
        <time>2026-05-22T11:22:24.000Z</time>
      </trkpt>
      <trkpt lat="43.06617" lon="-1.21254">
        <ele>653.152144</ele>
        <time>2026-05-22T11:22:25.000Z</time>
      </trkpt>
      <trkpt lat="43.06618" lon="-1.21256">
        <ele>653.304316</ele>
        <time>2026-05-22T11:22:26.000Z</time>
      </trkpt>
      <trkpt lat="43.06618" lon="-1.21258">
        <ele>653.454907</ele>
        <time>2026-05-22T11:22:27.000Z</time>
      </trkpt>
      <trkpt lat="43.06619" lon="-1.2126">
        <ele>653.604934</ele>
        <time>2026-05-22T11:22:28.000Z</time>
      </trkpt>
      <trkpt lat="43.06619" lon="-1.21262">
        <ele>653.735487</ele>
        <time>2026-05-22T11:22:29.000Z</time>
      </trkpt>
      <trkpt lat="43.0662" lon="-1.21264">
        <ele>653.875806</ele>
        <time>2026-05-22T11:22:30.000Z</time>
      </trkpt>
      <trkpt lat="43.06622" lon="-1.21266">
        <ele>654.049037</ele>
        <time>2026-05-22T11:22:31.000Z</time>
      </trkpt>
      <trkpt lat="43.06622" lon="-1.21267">
        <ele>654.195237</ele>
        <time>2026-05-22T11:22:32.000Z</time>
      </trkpt>
      <trkpt lat="43.06623" lon="-1.21269">
        <ele>654.320034</ele>
        <time>2026-05-22T11:22:33.000Z</time>
      </trkpt>
      <trkpt lat="43.06623" lon="-1.21271">
        <ele>654.439518</ele>
        <time>2026-05-22T11:22:34.000Z</time>
      </trkpt>
      <trkpt lat="43.06623" lon="-1.21272">
        <ele>654.557863</ele>
        <time>2026-05-22T11:22:35.000Z</time>
      </trkpt>
      <trkpt lat="43.06623" lon="-1.21274">
        <ele>654.703584</ele>
        <time>2026-05-22T11:22:36.000Z</time>
      </trkpt>
      <trkpt lat="43.06624" lon="-1.21277">
        <ele>654.866533</ele>
        <time>2026-05-22T11:22:37.000Z</time>
      </trkpt>
      <trkpt lat="43.06624" lon="-1.21279">
        <ele>655.020419</ele>
        <time>2026-05-22T11:22:38.000Z</time>
      </trkpt>
      <trkpt lat="43.06624" lon="-1.21281">
        <ele>655.173373</ele>
        <time>2026-05-22T11:22:39.000Z</time>
      </trkpt>
      <trkpt lat="43.06625" lon="-1.21283">
        <ele>655.306577</ele>
        <time>2026-05-22T11:22:40.000Z</time>
      </trkpt>
      <trkpt lat="43.06625" lon="-1.21284">
        <ele>655.424922</ele>
        <time>2026-05-22T11:22:41.000Z</time>
      </trkpt>
      <trkpt lat="43.06625" lon="-1.21286">
        <ele>655.551261</ele>
        <time>2026-05-22T11:22:42.000Z</time>
      </trkpt>
      <trkpt lat="43.06625" lon="-1.21288">
        <ele>655.699074</ele>
        <time>2026-05-22T11:22:43.000Z</time>
      </trkpt>
      <trkpt lat="43.06625" lon="-1.21291">
        <ele>655.870722</ele>
        <time>2026-05-22T11:22:44.000Z</time>
      </trkpt>
      <trkpt lat="43.06626" lon="-1.21293">
        <ele>656.044421</ele>
        <time>2026-05-22T11:22:45.000Z</time>
      </trkpt>
      <trkpt lat="43.06626" lon="-1.21295">
        <ele>656.21098</ele>
        <time>2026-05-22T11:22:46.000Z</time>
      </trkpt>
      <trkpt lat="43.06627" lon="-1.21297">
        <ele>656.389851</ele>
        <time>2026-05-22T11:22:47.000Z</time>
      </trkpt>
      <trkpt lat="43.06628" lon="-1.21299">
        <ele>656.550964</ele>
        <time>2026-05-22T11:22:48.000Z</time>
      </trkpt>
      <trkpt lat="43.06628" lon="-1.21301">
        <ele>656.689189</ele>
        <time>2026-05-22T11:22:49.000Z</time>
      </trkpt>
      <trkpt lat="43.06628" lon="-1.21303">
        <ele>656.822952</ele>
        <time>2026-05-22T11:22:50.000Z</time>
      </trkpt>
      <trkpt lat="43.06628" lon="-1.21305">
        <ele>656.971258</ele>
        <time>2026-05-22T11:22:51.000Z</time>
      </trkpt>
      <trkpt lat="43.06629" lon="-1.21307">
        <ele>657.126559</ele>
        <time>2026-05-22T11:22:52.000Z</time>
      </trkpt>
      <trkpt lat="43.06629" lon="-1.21309">
        <ele>657.287673</ele>
        <time>2026-05-22T11:22:53.000Z</time>
      </trkpt>
      <trkpt lat="43.0663" lon="-1.21311">
        <ele>657.427623</ele>
        <time>2026-05-22T11:22:54.000Z</time>
      </trkpt>
      <trkpt lat="43.06629" lon="-1.21312">
        <ele>657.560248</ele>
        <time>2026-05-22T11:22:55.000Z</time>
      </trkpt>
      <trkpt lat="43.06629" lon="-1.21314">
        <ele>657.701726</ele>
        <time>2026-05-22T11:22:56.000Z</time>
      </trkpt>
      <trkpt lat="43.06628" lon="-1.21316">
        <ele>657.829578</ele>
        <time>2026-05-22T11:22:57.000Z</time>
      </trkpt>
      <trkpt lat="43.06628" lon="-1.21317">
        <ele>657.983819</ele>
        <time>2026-05-22T11:22:58.000Z</time>
      </trkpt>
      <trkpt lat="43.06627" lon="-1.21319">
        <ele>658.105178</ele>
        <time>2026-05-22T11:22:59.000Z</time>
      </trkpt>
      <trkpt lat="43.06627" lon="-1.21321">
        <ele>658.238941</ele>
        <time>2026-05-22T11:23:00.000Z</time>
      </trkpt>
      <trkpt lat="43.06626" lon="-1.21323">
        <ele>658.391013</ele>
        <time>2026-05-22T11:23:01.000Z</time>
      </trkpt>
      <trkpt lat="43.06626" lon="-1.21325">
        <ele>658.532492</ele>
        <time>2026-05-22T11:23:02.000Z</time>
      </trkpt>
      <trkpt lat="43.06625" lon="-1.21326">
        <ele>658.680861</ele>
        <time>2026-05-22T11:23:03.000Z</time>
      </trkpt>
      <trkpt lat="43.06625" lon="-1.21328">
        <ele>658.795348</ele>
        <time>2026-05-22T11:23:04.000Z</time>
      </trkpt>
      <trkpt lat="43.06625" lon="-1.21329">
        <ele>658.900152</ele>
        <time>2026-05-22T11:23:05.000Z</time>
      </trkpt>
      <trkpt lat="43.06624" lon="-1.21331">
        <ele>659.00734</ele>
        <time>2026-05-22T11:23:06.000Z</time>
      </trkpt>
      <trkpt lat="43.06624" lon="-1.21332">
        <ele>659.110974</ele>
        <time>2026-05-22T11:23:07.000Z</time>
      </trkpt>
      <trkpt lat="43.06624" lon="-1.21333">
        <ele>659.204155</ele>
        <time>2026-05-22T11:23:08.000Z</time>
      </trkpt>
      <trkpt lat="43.06623" lon="-1.21335">
        <ele>659.342861</ele>
        <time>2026-05-22T11:23:09.000Z</time>
      </trkpt>
      <trkpt lat="43.06623" lon="-1.21337">
        <ele>659.481568</ele>
        <time>2026-05-22T11:23:10.000Z</time>
      </trkpt>
      <trkpt lat="43.06622" lon="-1.21339">
        <ele>659.63157</ele>
        <time>2026-05-22T11:23:11.000Z</time>
      </trkpt>
      <trkpt lat="43.06622" lon="-1.21341">
        <ele>659.783912</ele>
        <time>2026-05-22T11:23:12.000Z</time>
      </trkpt>
      <trkpt lat="43.06621" lon="-1.21343">
        <ele>659.936255</ele>
        <time>2026-05-22T11:23:13.000Z</time>
      </trkpt>
      <trkpt lat="43.06621" lon="-1.21345">
        <ele>660.115126</ele>
        <time>2026-05-22T11:23:14.000Z</time>
      </trkpt>
      <trkpt lat="43.0662" lon="-1.21347">
        <ele>660.284396</ele>
        <time>2026-05-22T11:23:15.000Z</time>
      </trkpt>
      <trkpt lat="43.0662" lon="-1.21349">
        <ele>660.409696</ele>
        <time>2026-05-22T11:23:16.000Z</time>
      </trkpt>
      <trkpt lat="43.0662" lon="-1.2135">
        <ele>660.528953</ele>
        <time>2026-05-22T11:23:17.000Z</time>
      </trkpt>
      <trkpt lat="43.0662" lon="-1.21352">
        <ele>660.676233</ele>
        <time>2026-05-22T11:23:18.000Z</time>
      </trkpt>
      <trkpt lat="43.06619" lon="-1.21354">
        <ele>660.811873</ele>
        <time>2026-05-22T11:23:19.000Z</time>
      </trkpt>
      <trkpt lat="43.06619" lon="-1.21356">
        <ele>660.954686</ele>
        <time>2026-05-22T11:23:20.000Z</time>
      </trkpt>
      <trkpt lat="43.06618" lon="-1.21358">
        <ele>661.113528</ele>
        <time>2026-05-22T11:23:21.000Z</time>
      </trkpt>
      <trkpt lat="43.06618" lon="-1.2136">
        <ele>661.273777</ele>
        <time>2026-05-22T11:23:22.000Z</time>
      </trkpt>
      <trkpt lat="43.06617" lon="-1.21361">
        <ele>661.404543</ele>
        <time>2026-05-22T11:23:23.000Z</time>
      </trkpt>
      <trkpt lat="43.06617" lon="-1.21363">
        <ele>661.522521</ele>
        <time>2026-05-22T11:23:24.000Z</time>
      </trkpt>
      <trkpt lat="43.06617" lon="-1.21364">
        <ele>661.627325</ele>
        <time>2026-05-22T11:23:25.000Z</time>
      </trkpt>
      <trkpt lat="43.06616" lon="-1.21366">
        <ele>661.739347</ele>
        <time>2026-05-22T11:23:26.000Z</time>
      </trkpt>
      <trkpt lat="43.06616" lon="-1.21367">
        <ele>661.856661</ele>
        <time>2026-05-22T11:23:27.000Z</time>
      </trkpt>
      <trkpt lat="43.06615" lon="-1.21369">
        <ele>662.006473</ele>
        <time>2026-05-22T11:23:28.000Z</time>
      </trkpt>
      <trkpt lat="43.06615" lon="-1.21371">
        <ele>662.147952</ele>
        <time>2026-05-22T11:23:29.000Z</time>
      </trkpt>
      <trkpt lat="43.06614" lon="-1.21372">
        <ele>662.269311</ele>
        <time>2026-05-22T11:23:30.000Z</time>
      </trkpt>
      <trkpt lat="43.06614" lon="-1.21374">
        <ele>662.38686</ele>
        <time>2026-05-22T11:23:31.000Z</time>
      </trkpt>
      <trkpt lat="43.06614" lon="-1.21376">
        <ele>662.520623</ele>
        <time>2026-05-22T11:23:32.000Z</time>
      </trkpt>
      <trkpt lat="43.06614" lon="-1.21378">
        <ele>662.677828</ele>
        <time>2026-05-22T11:23:33.000Z</time>
      </trkpt>
      <trkpt lat="43.06614" lon="-1.2138">
        <ele>662.809042</ele>
        <time>2026-05-22T11:23:34.000Z</time>
      </trkpt>
      <trkpt lat="43.06614" lon="-1.21381">
        <ele>662.906645</ele>
        <time>2026-05-22T11:23:35.000Z</time>
      </trkpt>
      <trkpt lat="43.06614" lon="-1.21382">
        <ele>663.016848</ele>
        <time>2026-05-22T11:23:36.000Z</time>
      </trkpt>
      <trkpt lat="43.06614" lon="-1.21384">
        <ele>663.107275</ele>
        <time>2026-05-22T11:23:37.000Z</time>
      </trkpt>
      <trkpt lat="43.06613" lon="-1.21385">
        <ele>663.217716</ele>
        <time>2026-05-22T11:23:38.000Z</time>
      </trkpt>
      <trkpt lat="43.06612" lon="-1.21386">
        <ele>663.348483</ele>
        <time>2026-05-22T11:23:39.000Z</time>
      </trkpt>
      <trkpt lat="43.06612" lon="-1.21388">
        <ele>663.504818</ele>
        <time>2026-05-22T11:23:40.000Z</time>
      </trkpt>
      <trkpt lat="43.06611" lon="-1.2139">
        <ele>663.632669</ele>
        <time>2026-05-22T11:23:41.000Z</time>
      </trkpt>
      <trkpt lat="43.06611" lon="-1.21392">
        <ele>663.788258</ele>
        <time>2026-05-22T11:23:42.000Z</time>
      </trkpt>
      <trkpt lat="43.06611" lon="-1.21395">
        <ele>663.974389</ele>
        <time>2026-05-22T11:23:43.000Z</time>
      </trkpt>
      <trkpt lat="43.06611" lon="-1.21397">
        <ele>664.158335</ele>
        <time>2026-05-22T11:23:44.000Z</time>
      </trkpt>
      <trkpt lat="43.06611" lon="-1.21399">
        <ele>664.321212</ele>
        <time>2026-05-22T11:23:45.000Z</time>
      </trkpt>
      <trkpt lat="43.06611" lon="-1.21401">
        <ele>664.461163</ele>
        <time>2026-05-22T11:23:46.000Z</time>
      </trkpt>
      <trkpt lat="43.0661" lon="-1.21403">
        <ele>664.623433</ele>
        <time>2026-05-22T11:23:47.000Z</time>
      </trkpt>
      <trkpt lat="43.0661" lon="-1.21405">
        <ele>664.76214</ele>
        <time>2026-05-22T11:23:48.000Z</time>
      </trkpt>
      <trkpt lat="43.0661" lon="-1.21406">
        <ele>664.872342</ele>
        <time>2026-05-22T11:23:49.000Z</time>
      </trkpt>
      <trkpt lat="43.06609" lon="-1.21408">
        <ele>664.977146</ele>
        <time>2026-05-22T11:23:50.000Z</time>
      </trkpt>
      <trkpt lat="43.06609" lon="-1.2141">
        <ele>665.134351</ele>
        <time>2026-05-22T11:23:51.000Z</time>
      </trkpt>
      <trkpt lat="43.06609" lon="-1.21412">
        <ele>665.268989</ele>
        <time>2026-05-22T11:23:52.000Z</time>
      </trkpt>
      <trkpt lat="43.06608" lon="-1.21413">
        <ele>665.383246</ele>
        <time>2026-05-22T11:23:53.000Z</time>
      </trkpt>
      <trkpt lat="43.06608" lon="-1.21415">
        <ele>665.533247</ele>
        <time>2026-05-22T11:23:54.000Z</time>
      </trkpt>
      <trkpt lat="43.06608" lon="-1.21417">
        <ele>665.647505</ele>
        <time>2026-05-22T11:23:55.000Z</time>
      </trkpt>
      <trkpt lat="43.06607" lon="-1.21418">
        <ele>665.74441</ele>
        <time>2026-05-22T11:23:56.000Z</time>
      </trkpt>
      <trkpt lat="43.06607" lon="-1.21421">
        <ele>665.954894</ele>
        <time>2026-05-22T11:23:57.000Z</time>
      </trkpt>
      <trkpt lat="43.06606" lon="-1.21423">
        <ele>666.134321</ele>
        <time>2026-05-22T11:23:58.000Z</time>
      </trkpt>
      <trkpt lat="43.06605" lon="-1.21425">
        <ele>666.310615</ele>
        <time>2026-05-22T11:23:59.000Z</time>
      </trkpt>
      <trkpt lat="43.06605" lon="-1.21427">
        <ele>666.479886</ele>
        <time>2026-05-22T11:24:00.000Z</time>
      </trkpt>
      <trkpt lat="43.06604" lon="-1.21429">
        <ele>666.642814</ele>
        <time>2026-05-22T11:24:01.000Z</time>
      </trkpt>
      <trkpt lat="43.06604" lon="-1.21431">
        <ele>666.801657</ele>
        <time>2026-05-22T11:24:02.000Z</time>
      </trkpt>
      <trkpt lat="43.06603" lon="-1.21433">
        <ele>666.939882</ele>
        <time>2026-05-22T11:24:03.000Z</time>
      </trkpt>
      <trkpt lat="43.06603" lon="-1.21435">
        <ele>667.072013</ele>
        <time>2026-05-22T11:24:04.000Z</time>
      </trkpt>
      <trkpt lat="43.06602" lon="-1.21436">
        <ele>667.232262</ele>
        <time>2026-05-22T11:24:05.000Z</time>
      </trkpt>
      <trkpt lat="43.06601" lon="-1.21438">
        <ele>667.398398</ele>
        <time>2026-05-22T11:24:06.000Z</time>
      </trkpt>
      <trkpt lat="43.066" lon="-1.2144">
        <ele>667.558647</ele>
        <time>2026-05-22T11:24:07.000Z</time>
      </trkpt>
      <trkpt lat="43.06599" lon="-1.21442">
        <ele>667.697354</ele>
        <time>2026-05-22T11:24:08.000Z</time>
      </trkpt>
      <trkpt lat="43.06599" lon="-1.21443">
        <ele>667.823859</ele>
        <time>2026-05-22T11:24:09.000Z</time>
      </trkpt>
      <trkpt lat="43.06599" lon="-1.21446">
        <ele>667.988281</ele>
        <time>2026-05-22T11:24:10.000Z</time>
      </trkpt>
      <trkpt lat="43.06598" lon="-1.21448">
        <ele>668.159931</ele>
        <time>2026-05-22T11:24:11.000Z</time>
      </trkpt>
      <trkpt lat="43.06598" lon="-1.2145">
        <ele>668.349787</ele>
        <time>2026-05-22T11:24:12.000Z</time>
      </trkpt>
      <trkpt lat="43.06597" lon="-1.21452">
        <ele>668.505089</ele>
        <time>2026-05-22T11:24:13.000Z</time>
      </trkpt>
      <trkpt lat="43.06597" lon="-1.21454">
        <ele>668.633577</ele>
        <time>2026-05-22T11:24:14.000Z</time>
      </trkpt>
      <trkpt lat="43.06596" lon="-1.21456">
        <ele>668.757819</ele>
        <time>2026-05-22T11:24:15.000Z</time>
      </trkpt>
      <trkpt lat="43.06597" lon="-1.21457">
        <ele>668.861165</ele>
        <time>2026-05-22T11:24:16.000Z</time>
      </trkpt>
      <trkpt lat="43.06597" lon="-1.21458">
        <ele>668.96402</ele>
        <time>2026-05-22T11:24:17.000Z</time>
      </trkpt>
      <trkpt lat="43.06597" lon="-1.2146">
        <ele>669.10361</ele>
        <time>2026-05-22T11:24:18.000Z</time>
      </trkpt>
      <trkpt lat="43.06597" lon="-1.21462">
        <ele>669.222868</ele>
        <time>2026-05-22T11:24:19.000Z</time>
      </trkpt>
      <trkpt lat="43.06596" lon="-1.21464">
        <ele>669.351356</ele>
        <time>2026-05-22T11:24:20.000Z</time>
      </trkpt>
      <trkpt lat="43.06596" lon="-1.21466">
        <ele>669.498293</ele>
        <time>2026-05-22T11:24:21.000Z</time>
      </trkpt>
      <trkpt lat="43.06596" lon="-1.21467">
        <ele>669.630918</ele>
        <time>2026-05-22T11:24:22.000Z</time>
      </trkpt>
      <trkpt lat="43.06597" lon="-1.2147">
        <ele>669.788123</ele>
        <time>2026-05-22T11:24:23.000Z</time>
      </trkpt>
      <trkpt lat="43.06597" lon="-1.21472">
        <ele>669.987505</ele>
        <time>2026-05-22T11:24:24.000Z</time>
      </trkpt>
      <trkpt lat="43.06597" lon="-1.21474">
        <ele>670.142116</ele>
        <time>2026-05-22T11:24:25.000Z</time>
      </trkpt>
      <trkpt lat="43.06597" lon="-1.21477">
        <ele>670.335501</ele>
        <time>2026-05-22T11:24:26.000Z</time>
      </trkpt>
      <trkpt lat="43.06598" lon="-1.2148">
        <ele>670.590874</ele>
        <time>2026-05-22T11:24:27.000Z</time>
      </trkpt>
      <trkpt lat="43.06599" lon="-1.21482">
        <ele>670.749717</ele>
        <time>2026-05-22T11:24:28.000Z</time>
      </trkpt>
      <trkpt lat="43.06599" lon="-1.21484">
        <ele>670.898024</ele>
        <time>2026-05-22T11:24:29.000Z</time>
      </trkpt>
      <trkpt lat="43.06599" lon="-1.21486">
        <ele>671.032661</ele>
        <time>2026-05-22T11:24:30.000Z</time>
      </trkpt>
      <trkpt lat="43.066" lon="-1.21487">
        <ele>671.168302</ele>
        <time>2026-05-22T11:24:31.000Z</time>
      </trkpt>
      <trkpt lat="43.066" lon="-1.21489">
        <ele>671.299069</ele>
        <time>2026-05-22T11:24:32.000Z</time>
      </trkpt>
      <trkpt lat="43.066" lon="-1.21491">
        <ele>671.453352</ele>
        <time>2026-05-22T11:24:33.000Z</time>
      </trkpt>
      <trkpt lat="43.06601" lon="-1.21493">
        <ele>671.617774</ele>
        <time>2026-05-22T11:24:34.000Z</time>
      </trkpt>
      <trkpt lat="43.06601" lon="-1.21495">
        <ele>671.757726</ele>
        <time>2026-05-22T11:24:35.000Z</time>
      </trkpt>
      <trkpt lat="43.06601" lon="-1.21497">
        <ele>671.875704</ele>
        <time>2026-05-22T11:24:36.000Z</time>
      </trkpt>
      <trkpt lat="43.06601" lon="-1.21498">
        <ele>671.993683</ele>
        <time>2026-05-22T11:24:37.000Z</time>
      </trkpt>
      <trkpt lat="43.06601" lon="-1.215">
        <ele>672.10794</ele>
        <time>2026-05-22T11:24:38.000Z</time>
      </trkpt>
      <trkpt lat="43.06601" lon="-1.21501">
        <ele>672.236428</ele>
        <time>2026-05-22T11:24:39.000Z</time>
      </trkpt>
      <trkpt lat="43.06601" lon="-1.21503">
        <ele>672.369053</ele>
        <time>2026-05-22T11:24:40.000Z</time>
      </trkpt>
      <trkpt lat="43.06601" lon="-1.21505">
        <ele>672.495558</ele>
        <time>2026-05-22T11:24:41.000Z</time>
      </trkpt>
      <trkpt lat="43.06602" lon="-1.21507">
        <ele>672.656672</ele>
        <time>2026-05-22T11:24:42.000Z</time>
      </trkpt>
      <trkpt lat="43.06603" lon="-1.21509">
        <ele>672.79131</ele>
        <time>2026-05-22T11:24:43.000Z</time>
      </trkpt>
      <trkpt lat="43.06603" lon="-1.2151">
        <ele>672.886379</ele>
        <time>2026-05-22T11:24:44.000Z</time>
      </trkpt>
      <trkpt lat="43.06603" lon="-1.21511">
        <ele>673.01168</ele>
        <time>2026-05-22T11:24:45.000Z</time>
      </trkpt>
      <trkpt lat="43.06603" lon="-1.21513">
        <ele>673.167269</ele>
        <time>2026-05-22T11:24:46.000Z</time>
      </trkpt>
      <trkpt lat="43.06603" lon="-1.21515">
        <ele>673.299893</ele>
        <time>2026-05-22T11:24:47.000Z</time>
      </trkpt>
      <trkpt lat="43.06603" lon="-1.21517">
        <ele>673.426398</ele>
        <time>2026-05-22T11:24:48.000Z</time>
      </trkpt>
      <trkpt lat="43.06603" lon="-1.21518">
        <ele>673.537059</ele>
        <time>2026-05-22T11:24:49.000Z</time>
      </trkpt>
      <trkpt lat="43.06603" lon="-1.2152">
        <ele>673.669683</ele>
        <time>2026-05-22T11:24:50.000Z</time>
      </trkpt>
      <trkpt lat="43.06604" lon="-1.21521">
        <ele>673.770924</ele>
        <time>2026-05-22T11:24:51.000Z</time>
      </trkpt>
      <trkpt lat="43.06604" lon="-1.21523">
        <ele>673.895057</ele>
        <time>2026-05-22T11:24:52.000Z</time>
      </trkpt>
      <trkpt lat="43.06604" lon="-1.21525">
        <ele>674.020535</ele>
        <time>2026-05-22T11:24:53.000Z</time>
      </trkpt>
      <trkpt lat="43.06604" lon="-1.21526">
        <ele>674.136486</ele>
        <time>2026-05-22T11:24:54.000Z</time>
      </trkpt>
      <trkpt lat="43.06604" lon="-1.21527">
        <ele>674.22005</ele>
        <time>2026-05-22T11:24:55.000Z</time>
      </trkpt>
      <trkpt lat="43.06604" lon="-1.21529">
        <ele>674.345528</ele>
        <time>2026-05-22T11:24:56.000Z</time>
      </trkpt>
      <trkpt lat="43.06605" lon="-1.2153">
        <ele>674.496374</ele>
        <time>2026-05-22T11:24:57.000Z</time>
      </trkpt>
      <trkpt lat="43.06605" lon="-1.21532">
        <ele>674.62821</ele>
        <time>2026-05-22T11:24:58.000Z</time>
      </trkpt>
      <trkpt lat="43.06605" lon="-1.21534">
        <ele>674.751644</ele>
        <time>2026-05-22T11:24:59.000Z</time>
      </trkpt>
      <trkpt lat="43.06605" lon="-1.21535">
        <ele>674.875777</ele>
        <time>2026-05-22T11:25:00.000Z</time>
      </trkpt>
      <trkpt lat="43.06605" lon="-1.21537">
        <ele>674.991727</ele>
        <time>2026-05-22T11:25:01.000Z</time>
      </trkpt>
      <trkpt lat="43.06605" lon="-1.21539">
        <ele>675.134443</ele>
        <time>2026-05-22T11:25:02.000Z</time>
      </trkpt>
      <trkpt lat="43.06605" lon="-1.2154">
        <ele>675.282831</ele>
        <time>2026-05-22T11:25:03.000Z</time>
      </trkpt>
      <trkpt lat="43.06605" lon="-1.21542">
        <ele>675.406512</ele>
        <time>2026-05-22T11:25:04.000Z</time>
      </trkpt>
      <trkpt lat="43.06606" lon="-1.21544">
        <ele>675.549228</ele>
        <time>2026-05-22T11:25:05.000Z</time>
      </trkpt>
      <trkpt lat="43.06607" lon="-1.21546">
        <ele>675.730243</ele>
        <time>2026-05-22T11:25:06.000Z</time>
      </trkpt>
      <trkpt lat="43.06608" lon="-1.21547">
        <ele>675.894533</ele>
        <time>2026-05-22T11:25:07.000Z</time>
      </trkpt>
      <trkpt lat="43.06608" lon="-1.21549">
        <ele>676.026726</ele>
        <time>2026-05-22T11:25:08.000Z</time>
      </trkpt>
      <trkpt lat="43.06609" lon="-1.2155">
        <ele>676.170287</ele>
        <time>2026-05-22T11:25:09.000Z</time>
      </trkpt>
      <trkpt lat="43.0661" lon="-1.21552">
        <ele>676.32638</ele>
        <time>2026-05-22T11:25:10.000Z</time>
      </trkpt>
      <trkpt lat="43.06611" lon="-1.21554">
        <ele>676.500684</ele>
        <time>2026-05-22T11:25:11.000Z</time>
      </trkpt>
      <trkpt lat="43.06611" lon="-1.21556">
        <ele>676.632095</ele>
        <time>2026-05-22T11:25:12.000Z</time>
      </trkpt>
      <trkpt lat="43.06611" lon="-1.21557">
        <ele>676.748045</ele>
        <time>2026-05-22T11:25:13.000Z</time>
      </trkpt>
      <trkpt lat="43.06611" lon="-1.21559">
        <ele>676.873523</ele>
        <time>2026-05-22T11:25:14.000Z</time>
      </trkpt>
      <trkpt lat="43.06611" lon="-1.2156">
        <ele>677.001213</ele>
        <time>2026-05-22T11:25:15.000Z</time>
      </trkpt>
      <trkpt lat="43.06612" lon="-1.21562">
        <ele>677.151086</ele>
        <time>2026-05-22T11:25:16.000Z</time>
      </trkpt>
      <trkpt lat="43.06612" lon="-1.21563">
        <ele>677.278536</ele>
        <time>2026-05-22T11:25:17.000Z</time>
      </trkpt>
      <trkpt lat="43.06613" lon="-1.21565">
        <ele>677.422097</ele>
        <time>2026-05-22T11:25:18.000Z</time>
      </trkpt>
      <trkpt lat="43.06614" lon="-1.21566">
        <ele>677.565657</ele>
        <time>2026-05-22T11:25:19.000Z</time>
      </trkpt>
      <trkpt lat="43.06615" lon="-1.21568">
        <ele>677.709218</ele>
        <time>2026-05-22T11:25:20.000Z</time>
      </trkpt>
      <trkpt lat="43.06616" lon="-1.21569">
        <ele>677.862987</ele>
        <time>2026-05-22T11:25:21.000Z</time>
      </trkpt>
      <trkpt lat="43.06617" lon="-1.21571">
        <ele>677.994378</ele>
        <time>2026-05-22T11:25:22.000Z</time>
      </trkpt>
      <trkpt lat="43.06618" lon="-1.21572">
        <ele>678.13509</ele>
        <time>2026-05-22T11:25:23.000Z</time>
      </trkpt>
      <trkpt lat="43.06619" lon="-1.21573">
        <ele>678.270831</ele>
        <time>2026-05-22T11:25:24.000Z</time>
      </trkpt>
      <trkpt lat="43.06619" lon="-1.21574">
        <ele>678.395668</ele>
        <time>2026-05-22T11:25:25.000Z</time>
      </trkpt>
      <trkpt lat="43.0662" lon="-1.21576">
        <ele>678.551981</ele>
        <time>2026-05-22T11:25:26.000Z</time>
      </trkpt>
      <trkpt lat="43.06621" lon="-1.21578">
        <ele>678.730081</ele>
        <time>2026-05-22T11:25:27.000Z</time>
      </trkpt>
      <trkpt lat="43.06621" lon="-1.2158">
        <ele>678.887907</ele>
        <time>2026-05-22T11:25:28.000Z</time>
      </trkpt>
      <trkpt lat="43.06621" lon="-1.21582">
        <ele>679.035158</ele>
        <time>2026-05-22T11:25:29.000Z</time>
      </trkpt>
      <trkpt lat="43.06621" lon="-1.21584">
        <ele>679.183545</ele>
        <time>2026-05-22T11:25:30.000Z</time>
      </trkpt>
      <trkpt lat="43.06621" lon="-1.21586">
        <ele>679.341371</ele>
        <time>2026-05-22T11:25:31.000Z</time>
      </trkpt>
      <trkpt lat="43.06621" lon="-1.21588">
        <ele>679.497413</ele>
        <time>2026-05-22T11:25:32.000Z</time>
      </trkpt>
      <trkpt lat="43.06621" lon="-1.2159">
        <ele>679.645801</ele>
        <time>2026-05-22T11:25:33.000Z</time>
      </trkpt>
      <trkpt lat="43.06621" lon="-1.21592">
        <ele>679.792671</ele>
        <time>2026-05-22T11:25:34.000Z</time>
      </trkpt>
      <trkpt lat="43.06622" lon="-1.21593">
        <ele>679.938106</ele>
        <time>2026-05-22T11:25:35.000Z</time>
      </trkpt>
      <trkpt lat="43.06622" lon="-1.21595">
        <ele>680.085357</ele>
        <time>2026-05-22T11:25:36.000Z</time>
      </trkpt>
      <trkpt lat="43.06622" lon="-1.21597">
        <ele>680.226098</ele>
        <time>2026-05-22T11:25:37.000Z</time>
      </trkpt>
      <trkpt lat="43.06622" lon="-1.21599">
        <ele>680.349779</ele>
        <time>2026-05-22T11:25:38.000Z</time>
      </trkpt>
      <trkpt lat="43.06623" lon="-1.216">
        <ele>680.470238</ele>
        <time>2026-05-22T11:25:39.000Z</time>
      </trkpt>
      <trkpt lat="43.06623" lon="-1.21602">
        <ele>680.58667</ele>
        <time>2026-05-22T11:25:40.000Z</time>
      </trkpt>
      <trkpt lat="43.06623" lon="-1.21603">
        <ele>680.710351</ele>
        <time>2026-05-22T11:25:41.000Z</time>
      </trkpt>
      <trkpt lat="43.06622" lon="-1.21605">
        <ele>680.866459</ele>
        <time>2026-05-22T11:25:42.000Z</time>
      </trkpt>
      <trkpt lat="43.06622" lon="-1.21607">
        <ele>681.021422</ele>
        <time>2026-05-22T11:25:43.000Z</time>
      </trkpt>
      <trkpt lat="43.06622" lon="-1.21609">
        <ele>681.162162</ele>
        <time>2026-05-22T11:25:44.000Z</time>
      </trkpt>
      <trkpt lat="43.06622" lon="-1.2161">
        <ele>681.278594</ele>
        <time>2026-05-22T11:25:45.000Z</time>
      </trkpt>
      <trkpt lat="43.06622" lon="-1.21612">
        <ele>681.416652</ele>
        <time>2026-05-22T11:25:46.000Z</time>
      </trkpt>
      <trkpt lat="43.06622" lon="-1.21614">
        <ele>681.578983</ele>
        <time>2026-05-22T11:25:47.000Z</time>
      </trkpt>
      <trkpt lat="43.06622" lon="-1.21616">
        <ele>681.703115</ele>
        <time>2026-05-22T11:25:48.000Z</time>
      </trkpt>
      <trkpt lat="43.06623" lon="-1.21618">
        <ele>681.850366</ele>
        <time>2026-05-22T11:25:49.000Z</time>
      </trkpt>
      <trkpt lat="43.06623" lon="-1.21619">
        <ele>681.982202</ele>
        <time>2026-05-22T11:25:50.000Z</time>
      </trkpt>
      <trkpt lat="43.06623" lon="-1.21621">
        <ele>682.122943</ele>
        <time>2026-05-22T11:25:51.000Z</time>
      </trkpt>
      <trkpt lat="43.06623" lon="-1.21623">
        <ele>682.247075</ele>
        <time>2026-05-22T11:25:52.000Z</time>
      </trkpt>
      <trkpt lat="43.06623" lon="-1.21624">
        <ele>682.364941</ele>
        <time>2026-05-22T11:25:53.000Z</time>
      </trkpt>
      <trkpt lat="43.06623" lon="-1.21626">
        <ele>682.473677</ele>
        <time>2026-05-22T11:25:54.000Z</time>
      </trkpt>
      <trkpt lat="43.06623" lon="-1.21628">
        <ele>682.612818</ele>
        <time>2026-05-22T11:25:55.000Z</time>
      </trkpt>
      <trkpt lat="43.06623" lon="-1.21629">
        <ele>682.733035</ele>
        <time>2026-05-22T11:25:56.000Z</time>
      </trkpt>
      <trkpt lat="43.06624" lon="-1.2163">
        <ele>682.858502</ele>
        <time>2026-05-22T11:25:57.000Z</time>
      </trkpt>
      <trkpt lat="43.06624" lon="-1.21632">
        <ele>682.971281</ele>
        <time>2026-05-22T11:25:58.000Z</time>
      </trkpt>
      <trkpt lat="43.06624" lon="-1.21633">
        <ele>683.081551</ele>
        <time>2026-05-22T11:25:59.000Z</time>
      </trkpt>
      <trkpt lat="43.06625" lon="-1.21635">
        <ele>683.207029</ele>
        <time>2026-05-22T11:26:00.000Z</time>
      </trkpt>
      <trkpt lat="43.06625" lon="-1.21636">
        <ele>683.327246</ele>
        <time>2026-05-22T11:26:01.000Z</time>
      </trkpt>
      <trkpt lat="43.06625" lon="-1.21638">
        <ele>683.459082</ele>
        <time>2026-05-22T11:26:02.000Z</time>
      </trkpt>
      <trkpt lat="43.06625" lon="-1.21639">
        <ele>683.560128</ele>
        <time>2026-05-22T11:26:03.000Z</time>
      </trkpt>
      <trkpt lat="43.06625" lon="-1.21641">
        <ele>683.683808</ele>
        <time>2026-05-22T11:26:04.000Z</time>
      </trkpt>
      <trkpt lat="43.06626" lon="-1.21643">
        <ele>683.848297</ele>
        <time>2026-05-22T11:26:05.000Z</time>
      </trkpt>
      <trkpt lat="43.06626" lon="-1.21644">
        <ele>683.98732</ele>
        <time>2026-05-22T11:26:06.000Z</time>
      </trkpt>
      <trkpt lat="43.06627" lon="-1.21647">
        <ele>684.155077</ele>
        <time>2026-05-22T11:26:07.000Z</time>
      </trkpt>
      <trkpt lat="43.06626" lon="-1.21649">
        <ele>684.352908</ele>
        <time>2026-05-22T11:26:08.000Z</time>
      </trkpt>
      <trkpt lat="43.06626" lon="-1.21651">
        <ele>684.47704</ele>
        <time>2026-05-22T11:26:09.000Z</time>
      </trkpt>
      <trkpt lat="43.06626" lon="-1.21652">
        <ele>684.575081</ele>
        <time>2026-05-22T11:26:10.000Z</time>
      </trkpt>
      <trkpt lat="43.06626" lon="-1.21654">
        <ele>684.731123</ele>
        <time>2026-05-22T11:26:11.000Z</time>
      </trkpt>
      <trkpt lat="43.06626" lon="-1.21656">
        <ele>684.909229</ele>
        <time>2026-05-22T11:26:12.000Z</time>
      </trkpt>
      <trkpt lat="43.06626" lon="-1.21658">
        <ele>685.036678</ele>
        <time>2026-05-22T11:26:13.000Z</time>
      </trkpt>
      <trkpt lat="43.06627" lon="-1.21659">
        <ele>685.186551</ele>
        <time>2026-05-22T11:26:14.000Z</time>
      </trkpt>
      <trkpt lat="43.06628" lon="-1.21661">
        <ele>685.321072</ele>
        <time>2026-05-22T11:26:15.000Z</time>
      </trkpt>
      <trkpt lat="43.06628" lon="-1.21663">
        <ele>685.462732</ele>
        <time>2026-05-22T11:26:16.000Z</time>
      </trkpt>
      <trkpt lat="43.06629" lon="-1.21664">
        <ele>685.604392</ele>
        <time>2026-05-22T11:26:17.000Z</time>
      </trkpt>
      <trkpt lat="43.06629" lon="-1.21667">
        <ele>685.783437</ele>
        <time>2026-05-22T11:26:18.000Z</time>
      </trkpt>
      <trkpt lat="43.06629" lon="-1.21669">
        <ele>685.943726</ele>
        <time>2026-05-22T11:26:19.000Z</time>
      </trkpt>
      <trkpt lat="43.06629" lon="-1.2167">
        <ele>686.083268</ele>
        <time>2026-05-22T11:26:20.000Z</time>
      </trkpt>
      <trkpt lat="43.06629" lon="-1.21672">
        <ele>686.245599</ele>
        <time>2026-05-22T11:26:21.000Z</time>
      </trkpt>
      <trkpt lat="43.06629" lon="-1.21674">
        <ele>686.385141</ele>
        <time>2026-05-22T11:26:22.000Z</time>
      </trkpt>
      <trkpt lat="43.06629" lon="-1.21676">
        <ele>686.487835</ele>
        <time>2026-05-22T11:26:23.000Z</time>
      </trkpt>
      <trkpt lat="43.0663" lon="-1.21677">
        <ele>686.598105</ele>
        <time>2026-05-22T11:26:24.000Z</time>
      </trkpt>
      <trkpt lat="43.0663" lon="-1.21679">
        <ele>686.723583</ele>
        <time>2026-05-22T11:26:25.000Z</time>
      </trkpt>
      <trkpt lat="43.06629" lon="-1.21681">
        <ele>686.881408</ele>
        <time>2026-05-22T11:26:26.000Z</time>
      </trkpt>
      <trkpt lat="43.06629" lon="-1.21682">
        <ele>687.020549</ele>
        <time>2026-05-22T11:26:27.000Z</time>
      </trkpt>
      <trkpt lat="43.0663" lon="-1.21684">
        <ele>687.15127</ele>
        <time>2026-05-22T11:26:28.000Z</time>
      </trkpt>
      <trkpt lat="43.0663" lon="-1.21686">
        <ele>687.301532</ele>
        <time>2026-05-22T11:26:29.000Z</time>
      </trkpt>
      <trkpt lat="43.0663" lon="-1.21688">
        <ele>687.434635</ele>
        <time>2026-05-22T11:26:30.000Z</time>
      </trkpt>
      <trkpt lat="43.0663" lon="-1.21689">
        <ele>687.560113</ele>
        <time>2026-05-22T11:26:31.000Z</time>
      </trkpt>
      <trkpt lat="43.0663" lon="-1.21691">
        <ele>687.699655</ele>
        <time>2026-05-22T11:26:32.000Z</time>
      </trkpt>
      <trkpt lat="43.0663" lon="-1.21693">
        <ele>687.832758</ele>
        <time>2026-05-22T11:26:33.000Z</time>
      </trkpt>
      <trkpt lat="43.0663" lon="-1.21694">
        <ele>687.964594</ele>
        <time>2026-05-22T11:26:34.000Z</time>
      </trkpt>
      <trkpt lat="43.0663" lon="-1.21697">
        <ele>688.134654</ele>
        <time>2026-05-22T11:26:35.000Z</time>
      </trkpt>
      <trkpt lat="43.06631" lon="-1.21698">
        <ele>688.273676</ele>
        <time>2026-05-22T11:26:36.000Z</time>
      </trkpt>
      <trkpt lat="43.06631" lon="-1.217">
        <ele>688.399154</ele>
        <time>2026-05-22T11:26:37.000Z</time>
      </trkpt>
      <trkpt lat="43.06631" lon="-1.21701">
        <ele>688.53099</ele>
        <time>2026-05-22T11:26:38.000Z</time>
      </trkpt>
      <trkpt lat="43.06631" lon="-1.21703">
        <ele>688.64694</ele>
        <time>2026-05-22T11:26:39.000Z</time>
      </trkpt>
      <trkpt lat="43.06631" lon="-1.21705">
        <ele>688.771072</ele>
        <time>2026-05-22T11:26:40.000Z</time>
      </trkpt>
      <trkpt lat="43.06631" lon="-1.21706">
        <ele>688.921333</ele>
        <time>2026-05-22T11:26:41.000Z</time>
      </trkpt>
      <trkpt lat="43.06632" lon="-1.21708">
        <ele>689.070192</ele>
        <time>2026-05-22T11:26:42.000Z</time>
      </trkpt>
      <trkpt lat="43.06632" lon="-1.2171">
        <ele>689.190409</ele>
        <time>2026-05-22T11:26:43.000Z</time>
      </trkpt>
      <trkpt lat="43.06632" lon="-1.21711">
        <ele>689.291455</ele>
        <time>2026-05-22T11:26:44.000Z</time>
      </trkpt>
      <trkpt lat="43.06632" lon="-1.21713">
        <ele>689.407887</ele>
        <time>2026-05-22T11:26:45.000Z</time>
      </trkpt>
      <trkpt lat="43.06632" lon="-1.21714">
        <ele>689.553829</ele>
        <time>2026-05-22T11:26:46.000Z</time>
      </trkpt>
      <trkpt lat="43.06633" lon="-1.21716">
        <ele>689.692851</ele>
        <time>2026-05-22T11:26:47.000Z</time>
      </trkpt>
      <trkpt lat="43.06633" lon="-1.21718">
        <ele>689.840102</ele>
        <time>2026-05-22T11:26:48.000Z</time>
      </trkpt>
      <trkpt lat="43.06634" lon="-1.2172">
        <ele>690.007859</ele>
        <time>2026-05-22T11:26:49.000Z</time>
      </trkpt>
      <trkpt lat="43.06634" lon="-1.21722">
        <ele>690.160706</ele>
        <time>2026-05-22T11:26:50.000Z</time>
      </trkpt>
      <trkpt lat="43.06634" lon="-1.21723">
        <ele>690.276908</ele>
        <time>2026-05-22T11:26:51.000Z</time>
      </trkpt>
      <trkpt lat="43.06635" lon="-1.21724">
        <ele>690.389313</ele>
        <time>2026-05-22T11:26:52.000Z</time>
      </trkpt>
      <trkpt lat="43.06635" lon="-1.21726">
        <ele>690.494697</ele>
        <time>2026-05-22T11:26:53.000Z</time>
      </trkpt>
      <trkpt lat="43.06636" lon="-1.21728">
        <ele>690.650805</ele>
        <time>2026-05-22T11:26:54.000Z</time>
      </trkpt>
      <trkpt lat="43.06636" lon="-1.21729">
        <ele>690.79624</ele>
        <time>2026-05-22T11:26:55.000Z</time>
      </trkpt>
      <trkpt lat="43.06636" lon="-1.21732">
        <ele>690.975285</ele>
        <time>2026-05-22T11:26:56.000Z</time>
      </trkpt>
      <trkpt lat="43.06636" lon="-1.21734">
        <ele>691.135574</ele>
        <time>2026-05-22T11:26:57.000Z</time>
      </trkpt>
      <trkpt lat="43.06635" lon="-1.21736">
        <ele>691.291616</ele>
        <time>2026-05-22T11:26:58.000Z</time>
      </trkpt>
      <trkpt lat="43.06636" lon="-1.21737">
        <ele>691.417093</ele>
        <time>2026-05-22T11:26:59.000Z</time>
      </trkpt>
      <trkpt lat="43.06636" lon="-1.21739">
        <ele>691.558753</ele>
        <time>2026-05-22T11:27:00.000Z</time>
      </trkpt>
      <trkpt lat="43.06636" lon="-1.2174">
        <ele>691.667793</ele>
        <time>2026-05-22T11:27:01.000Z</time>
      </trkpt>
      <trkpt lat="43.06637" lon="-1.21742">
        <ele>691.778062</ele>
        <time>2026-05-22T11:27:02.000Z</time>
      </trkpt>
      <trkpt lat="43.06638" lon="-1.21743">
        <ele>691.940349</ele>
        <time>2026-05-22T11:27:03.000Z</time>
      </trkpt>
      <trkpt lat="43.06638" lon="-1.21745">
        <ele>692.098174</ele>
        <time>2026-05-22T11:27:04.000Z</time>
      </trkpt>
      <trkpt lat="43.06638" lon="-1.21747">
        <ele>692.24089</ele>
        <time>2026-05-22T11:27:05.000Z</time>
      </trkpt>
      <trkpt lat="43.06638" lon="-1.21749">
        <ele>692.366367</ele>
        <time>2026-05-22T11:27:06.000Z</time>
      </trkpt>
      <trkpt lat="43.06638" lon="-1.2175">
        <ele>692.494056</ele>
        <time>2026-05-22T11:27:07.000Z</time>
      </trkpt>
      <trkpt lat="43.06639" lon="-1.21752">
        <ele>692.610258</ele>
        <time>2026-05-22T11:27:08.000Z</time>
      </trkpt>
      <trkpt lat="43.06638" lon="-1.21753">
        <ele>692.720527</ele>
        <time>2026-05-22T11:27:09.000Z</time>
      </trkpt>
      <trkpt lat="43.06639" lon="-1.21755">
        <ele>692.839183</ele>
        <time>2026-05-22T11:27:10.000Z</time>
      </trkpt>
      <trkpt lat="43.06638" lon="-1.21756">
        <ele>692.960082</ele>
        <time>2026-05-22T11:27:11.000Z</time>
      </trkpt>
      <trkpt lat="43.06639" lon="-1.21758">
        <ele>693.099052</ele>
        <time>2026-05-22T11:27:12.000Z</time>
      </trkpt>
      <trkpt lat="43.06639" lon="-1.2176">
        <ele>693.247296</ele>
        <time>2026-05-22T11:27:13.000Z</time>
      </trkpt>
      <trkpt lat="43.06639" lon="-1.21762">
        <ele>693.376353</ele>
        <time>2026-05-22T11:27:14.000Z</time>
      </trkpt>
      <trkpt lat="43.0664" lon="-1.21764">
        <ele>693.511328</ele>
        <time>2026-05-22T11:27:15.000Z</time>
      </trkpt>
      <trkpt lat="43.0664" lon="-1.21766">
        <ele>693.665897</ele>
        <time>2026-05-22T11:27:16.000Z</time>
      </trkpt>
      <trkpt lat="43.0664" lon="-1.21768">
        <ele>693.824392</ele>
        <time>2026-05-22T11:27:17.000Z</time>
      </trkpt>
      <trkpt lat="43.0664" lon="-1.2177">
        <ele>693.946321</ele>
        <time>2026-05-22T11:27:18.000Z</time>
      </trkpt>
      <trkpt lat="43.06641" lon="-1.21771">
        <ele>694.087682</ele>
        <time>2026-05-22T11:27:19.000Z</time>
      </trkpt>
      <trkpt lat="43.06641" lon="-1.21773">
        <ele>694.222189</ele>
        <time>2026-05-22T11:27:20.000Z</time>
      </trkpt>
      <trkpt lat="43.06641" lon="-1.21775">
        <ele>694.370433</ele>
        <time>2026-05-22T11:27:21.000Z</time>
      </trkpt>
      <trkpt lat="43.06641" lon="-1.21777">
        <ele>694.521556</ele>
        <time>2026-05-22T11:27:22.000Z</time>
      </trkpt>
      <trkpt lat="43.06641" lon="-1.21779">
        <ele>694.637595</ele>
        <time>2026-05-22T11:27:23.000Z</time>
      </trkpt>
      <trkpt lat="43.06641" lon="-1.2178">
        <ele>694.765279</ele>
        <time>2026-05-22T11:27:24.000Z</time>
      </trkpt>
      <trkpt lat="43.06641" lon="-1.21782">
        <ele>694.872962</ele>
        <time>2026-05-22T11:27:25.000Z</time>
      </trkpt>
      <trkpt lat="43.06641" lon="-1.21783">
        <ele>694.965901</ele>
        <time>2026-05-22T11:27:26.000Z</time>
      </trkpt>
      <trkpt lat="43.06641" lon="-1.21784">
        <ele>695.052247</ele>
        <time>2026-05-22T11:27:27.000Z</time>
      </trkpt>
      <trkpt lat="43.06641" lon="-1.21786">
        <ele>695.152812</ele>
        <time>2026-05-22T11:27:28.000Z</time>
      </trkpt>
      <trkpt lat="43.06641" lon="-1.21787">
        <ele>695.260495</ele>
        <time>2026-05-22T11:27:29.000Z</time>
      </trkpt>
      <trkpt lat="43.06641" lon="-1.21789">
        <ele>695.39066</ele>
        <time>2026-05-22T11:27:30.000Z</time>
      </trkpt>
      <trkpt lat="43.06642" lon="-1.21791">
        <ele>695.549205</ele>
        <time>2026-05-22T11:27:31.000Z</time>
      </trkpt>
      <trkpt lat="43.06642" lon="-1.21793">
        <ele>695.672306</ele>
        <time>2026-05-22T11:27:32.000Z</time>
      </trkpt>
      <trkpt lat="43.06643" lon="-1.21795">
        <ele>695.82055</ele>
        <time>2026-05-22T11:27:33.000Z</time>
      </trkpt>
      <trkpt lat="43.06643" lon="-1.21797">
        <ele>695.966331</ele>
        <time>2026-05-22T11:27:34.000Z</time>
      </trkpt>
      <trkpt lat="43.06644" lon="-1.21798">
        <ele>696.128219</ele>
        <time>2026-05-22T11:27:35.000Z</time>
      </trkpt>
      <trkpt lat="43.06645" lon="-1.218">
        <ele>696.263194</ele>
        <time>2026-05-22T11:27:36.000Z</time>
      </trkpt>
      <trkpt lat="43.06645" lon="-1.21802">
        <ele>696.397701</ele>
        <time>2026-05-22T11:27:37.000Z</time>
      </trkpt>
      <trkpt lat="43.06645" lon="-1.21804">
        <ele>696.548151</ele>
        <time>2026-05-22T11:27:38.000Z</time>
      </trkpt>
      <trkpt lat="43.06646" lon="-1.21806">
        <ele>696.699275</ele>
        <time>2026-05-22T11:27:39.000Z</time>
      </trkpt>
      <trkpt lat="43.06647" lon="-1.21808">
        <ele>696.873486</ele>
        <time>2026-05-22T11:27:40.000Z</time>
      </trkpt>
      <trkpt lat="43.06648" lon="-1.2181">
        <ele>697.019267</ele>
        <time>2026-05-22T11:27:41.000Z</time>
      </trkpt>
      <trkpt lat="43.06648" lon="-1.21813">
        <ele>697.22866</ele>
        <time>2026-05-22T11:27:42.000Z</time>
      </trkpt>
      <trkpt lat="43.06649" lon="-1.21814">
        <ele>697.363166</ele>
        <time>2026-05-22T11:27:43.000Z</time>
      </trkpt>
      <trkpt lat="43.06649" lon="-1.21816">
        <ele>697.486268</ele>
        <time>2026-05-22T11:27:44.000Z</time>
      </trkpt>
      <trkpt lat="43.06649" lon="-1.21818">
        <ele>697.634248</ele>
        <time>2026-05-22T11:27:45.000Z</time>
      </trkpt>
      <trkpt lat="43.0665" lon="-1.2182">
        <ele>697.789399</ele>
        <time>2026-05-22T11:27:46.000Z</time>
      </trkpt>
      <trkpt lat="43.0665" lon="-1.21822">
        <ele>697.928369</ele>
        <time>2026-05-22T11:27:47.000Z</time>
      </trkpt>
      <trkpt lat="43.0665" lon="-1.21824">
        <ele>698.049905</ele>
        <time>2026-05-22T11:27:48.000Z</time>
      </trkpt>
      <trkpt lat="43.0665" lon="-1.21825">
        <ele>698.157375</ele>
        <time>2026-05-22T11:27:49.000Z</time>
      </trkpt>
      <trkpt lat="43.06651" lon="-1.21827">
        <ele>698.285058</ele>
        <time>2026-05-22T11:27:50.000Z</time>
      </trkpt>
      <trkpt lat="43.06651" lon="-1.21829">
        <ele>698.431024</ele>
        <time>2026-05-22T11:27:51.000Z</time>
      </trkpt>
      <trkpt lat="43.06652" lon="-1.2183">
        <ele>698.558707</ele>
        <time>2026-05-22T11:27:52.000Z</time>
      </trkpt>
      <trkpt lat="43.06651" lon="-1.21832">
        <ele>698.694893</ele>
        <time>2026-05-22T11:27:53.000Z</time>
      </trkpt>
      <trkpt lat="43.06652" lon="-1.21834">
        <ele>698.849462</ele>
        <time>2026-05-22T11:27:54.000Z</time>
      </trkpt>
      <trkpt lat="43.06653" lon="-1.21836">
        <ele>699.010667</ele>
        <time>2026-05-22T11:27:55.000Z</time>
      </trkpt>
      <trkpt lat="43.06653" lon="-1.21838">
        <ele>699.140831</ele>
        <time>2026-05-22T11:27:56.000Z</time>
      </trkpt>
      <trkpt lat="43.06653" lon="-1.2184">
        <ele>699.269887</ele>
        <time>2026-05-22T11:27:57.000Z</time>
      </trkpt>
      <trkpt lat="43.06653" lon="-1.21842">
        <ele>699.394299</ele>
        <time>2026-05-22T11:27:58.000Z</time>
      </trkpt>
      <trkpt lat="43.06654" lon="-1.21843">
        <ele>699.529274</ele>
        <time>2026-05-22T11:27:59.000Z</time>
      </trkpt>
      <trkpt lat="43.06655" lon="-1.21845">
        <ele>699.653686</ele>
        <time>2026-05-22T11:28:00.000Z</time>
      </trkpt>
      <trkpt lat="43.06655" lon="-1.21847">
        <ele>699.782261</ele>
        <time>2026-05-22T11:28:01.000Z</time>
      </trkpt>
      <trkpt lat="43.06655" lon="-1.21848">
        <ele>699.918095</ele>
        <time>2026-05-22T11:28:02.000Z</time>
      </trkpt>
      <trkpt lat="43.06655" lon="-1.2185">
        <ele>700.055331</ele>
        <time>2026-05-22T11:28:03.000Z</time>
      </trkpt>
      <trkpt lat="43.06655" lon="-1.21852">
        <ele>700.193004</ele>
        <time>2026-05-22T11:28:04.000Z</time>
      </trkpt>
      <trkpt lat="43.06656" lon="-1.21854">
        <ele>700.326333</ele>
        <time>2026-05-22T11:28:05.000Z</time>
      </trkpt>
      <trkpt lat="43.06656" lon="-1.21856">
        <ele>700.491923</ele>
        <time>2026-05-22T11:28:06.000Z</time>
      </trkpt>
      <trkpt lat="43.06656" lon="-1.21858">
        <ele>700.640167</ele>
        <time>2026-05-22T11:28:07.000Z</time>
      </trkpt>
      <trkpt lat="43.06657" lon="-1.2186">
        <ele>700.781529</ele>
        <time>2026-05-22T11:28:08.000Z</time>
      </trkpt>
      <trkpt lat="43.06658" lon="-1.21862">
        <ele>700.920139</ele>
        <time>2026-05-22T11:28:09.000Z</time>
      </trkpt>
      <trkpt lat="43.06658" lon="-1.21863">
        <ele>701.05965</ele>
        <time>2026-05-22T11:28:10.000Z</time>
      </trkpt>
      <trkpt lat="43.06659" lon="-1.21865">
        <ele>701.186898</ele>
        <time>2026-05-22T11:28:11.000Z</time>
      </trkpt>
      <trkpt lat="43.06659" lon="-1.21867">
        <ele>701.335142</ele>
        <time>2026-05-22T11:28:12.000Z</time>
      </trkpt>
      <trkpt lat="43.0666" lon="-1.21869">
        <ele>701.493046</ele>
        <time>2026-05-22T11:28:13.000Z</time>
      </trkpt>
      <trkpt lat="43.06661" lon="-1.21871">
        <ele>701.660458</ele>
        <time>2026-05-22T11:28:14.000Z</time>
      </trkpt>
      <trkpt lat="43.06662" lon="-1.21872">
        <ele>701.81055</ele>
        <time>2026-05-22T11:28:15.000Z</time>
      </trkpt>
      <trkpt lat="43.06663" lon="-1.21874">
        <ele>701.949161</ele>
        <time>2026-05-22T11:28:16.000Z</time>
      </trkpt>
      <trkpt lat="43.06663" lon="-1.21876">
        <ele>702.060344</ele>
        <time>2026-05-22T11:28:17.000Z</time>
      </trkpt>
      <trkpt lat="43.06662" lon="-1.21877">
        <ele>702.174502</ele>
        <time>2026-05-22T11:28:18.000Z</time>
      </trkpt>
      <trkpt lat="43.06662" lon="-1.21879">
        <ele>702.289305</ele>
        <time>2026-05-22T11:28:19.000Z</time>
      </trkpt>
      <trkpt lat="43.06663" lon="-1.2188">
        <ele>702.407399</ele>
        <time>2026-05-22T11:28:20.000Z</time>
      </trkpt>
      <trkpt lat="43.06663" lon="-1.21882">
        <ele>702.525492</ele>
        <time>2026-05-22T11:28:21.000Z</time>
      </trkpt>
      <trkpt lat="43.06664" lon="-1.21883">
        <ele>702.654067</ele>
        <time>2026-05-22T11:28:22.000Z</time>
      </trkpt>
      <trkpt lat="43.06664" lon="-1.21885">
        <ele>702.772161</ele>
        <time>2026-05-22T11:28:23.000Z</time>
      </trkpt>
      <trkpt lat="43.06664" lon="-1.21887">
        <ele>702.888209</ele>
        <time>2026-05-22T11:28:24.000Z</time>
      </trkpt>
      <trkpt lat="43.06665" lon="-1.21888">
        <ele>703.010468</ele>
        <time>2026-05-22T11:28:25.000Z</time>
      </trkpt>
      <trkpt lat="43.06665" lon="-1.2189">
        <ele>703.142458</ele>
        <time>2026-05-22T11:28:26.000Z</time>
      </trkpt>
      <trkpt lat="43.06665" lon="-1.21892">
        <ele>703.272623</ele>
        <time>2026-05-22T11:28:27.000Z</time>
      </trkpt>
      <trkpt lat="43.06665" lon="-1.21893">
        <ele>703.387426</ele>
        <time>2026-05-22T11:28:28.000Z</time>
      </trkpt>
      <trkpt lat="43.06665" lon="-1.21895">
        <ele>703.542577</ele>
        <time>2026-05-22T11:28:29.000Z</time>
      </trkpt>
      <trkpt lat="43.06665" lon="-1.21897">
        <ele>703.664112</ele>
        <time>2026-05-22T11:28:30.000Z</time>
      </trkpt>
      <trkpt lat="43.06665" lon="-1.21899">
        <ele>703.814244</ele>
        <time>2026-05-22T11:28:31.000Z</time>
      </trkpt>
      <trkpt lat="43.06665" lon="-1.21901">
        <ele>703.916227</ele>
        <time>2026-05-22T11:28:32.000Z</time>
      </trkpt>
      <trkpt lat="43.06665" lon="-1.21903">
        <ele>704.053463</ele>
        <time>2026-05-22T11:28:33.000Z</time>
      </trkpt>
      <trkpt lat="43.06666" lon="-1.21904">
        <ele>704.19491</ele>
        <time>2026-05-22T11:28:34.000Z</time>
      </trkpt>
      <trkpt lat="43.06666" lon="-1.21906">
        <ele>704.33388</ele>
        <time>2026-05-22T11:28:35.000Z</time>
      </trkpt>
      <trkpt lat="43.06667" lon="-1.21908">
        <ele>704.484506</ele>
        <time>2026-05-22T11:28:36.000Z</time>
      </trkpt>
      <trkpt lat="43.06668" lon="-1.2191">
        <ele>704.647518</ele>
        <time>2026-05-22T11:28:37.000Z</time>
      </trkpt>
      <trkpt lat="43.06668" lon="-1.21912">
        <ele>704.802086</ele>
        <time>2026-05-22T11:28:38.000Z</time>
      </trkpt>
      <trkpt lat="43.0667" lon="-1.21914">
        <ele>704.995992</ele>
        <time>2026-05-22T11:28:39.000Z</time>
      </trkpt>
      <trkpt lat="43.06671" lon="-1.21915">
        <ele>705.134759</ele>
        <time>2026-05-22T11:28:40.000Z</time>
      </trkpt>
      <trkpt lat="43.06671" lon="-1.21917">
        <ele>705.263335</ele>
        <time>2026-05-22T11:28:41.000Z</time>
      </trkpt>
      <trkpt lat="43.06672" lon="-1.21918">
        <ele>705.374742</ele>
        <time>2026-05-22T11:28:42.000Z</time>
      </trkpt>
      <trkpt lat="43.06672" lon="-1.2192">
        <ele>705.476725</ele>
        <time>2026-05-22T11:28:43.000Z</time>
      </trkpt>
      <trkpt lat="43.06672" lon="-1.21922">
        <ele>705.627848</ele>
        <time>2026-05-22T11:28:44.000Z</time>
      </trkpt>
      <trkpt lat="43.06673" lon="-1.21923">
        <ele>705.755531</ele>
        <time>2026-05-22T11:28:45.000Z</time>
      </trkpt>
      <trkpt lat="43.06673" lon="-1.21925">
        <ele>705.880561</ele>
        <time>2026-05-22T11:28:46.000Z</time>
      </trkpt>
      <trkpt lat="43.06673" lon="-1.21926">
        <ele>705.982545</ele>
        <time>2026-05-22T11:28:47.000Z</time>
      </trkpt>
      <trkpt lat="43.06673" lon="-1.21928">
        <ele>706.1116</ele>
        <time>2026-05-22T11:28:48.000Z</time>
      </trkpt>
      <trkpt lat="43.06674" lon="-1.2193">
        <ele>706.270145</ele>
        <time>2026-05-22T11:28:49.000Z</time>
      </trkpt>
      <trkpt lat="43.06675" lon="-1.21933">
        <ele>706.454892</ele>
        <time>2026-05-22T11:28:50.000Z</time>
      </trkpt>
      <trkpt lat="43.06676" lon="-1.21935">
        <ele>706.66319</ele>
        <time>2026-05-22T11:28:51.000Z</time>
      </trkpt>
      <trkpt lat="43.06676" lon="-1.21938">
        <ele>706.841317</ele>
        <time>2026-05-22T11:28:52.000Z</time>
      </trkpt>
      <trkpt lat="43.06677" lon="-1.21939">
        <ele>706.993445</ele>
        <time>2026-05-22T11:28:53.000Z</time>
      </trkpt>
      <trkpt lat="43.06678" lon="-1.21941">
        <ele>707.126774</ele>
        <time>2026-05-22T11:28:54.000Z</time>
      </trkpt>
      <trkpt lat="43.06679" lon="-1.21943">
        <ele>707.2774</ele>
        <time>2026-05-22T11:28:55.000Z</time>
      </trkpt>
      <trkpt lat="43.06679" lon="-1.21945">
        <ele>707.423365</ele>
        <time>2026-05-22T11:28:56.000Z</time>
      </trkpt>
      <trkpt lat="43.06679" lon="-1.21946">
        <ele>707.539413</ele>
        <time>2026-05-22T11:28:57.000Z</time>
      </trkpt>
      <trkpt lat="43.0668" lon="-1.21948">
        <ele>707.661672</ele>
        <time>2026-05-22T11:28:58.000Z</time>
      </trkpt>
      <trkpt lat="43.0668" lon="-1.21949">
        <ele>707.777711</ele>
        <time>2026-05-22T11:28:59.000Z</time>
      </trkpt>
      <trkpt lat="43.06681" lon="-1.21951">
        <ele>707.906286</ele>
        <time>2026-05-22T11:29:00.000Z</time>
      </trkpt>
      <trkpt lat="43.06682" lon="-1.21953">
        <ele>708.050649</ele>
        <time>2026-05-22T11:29:01.000Z</time>
      </trkpt>
      <trkpt lat="43.06683" lon="-1.21954">
        <ele>708.172166</ele>
        <time>2026-05-22T11:29:02.000Z</time>
      </trkpt>
      <trkpt lat="43.06683" lon="-1.21956">
        <ele>708.297196</ele>
        <time>2026-05-22T11:29:03.000Z</time>
      </trkpt>
      <trkpt lat="43.06682" lon="-1.21957">
        <ele>708.438642</ele>
        <time>2026-05-22T11:29:04.000Z</time>
      </trkpt>
      <trkpt lat="43.06682" lon="-1.21959">
        <ele>708.567217</ele>
        <time>2026-05-22T11:29:05.000Z</time>
      </trkpt>
      <trkpt lat="43.06681" lon="-1.21961">
        <ele>708.749332</ele>
        <time>2026-05-22T11:29:06.000Z</time>
      </trkpt>
      <trkpt lat="43.0668" lon="-1.21964">
        <ele>708.944262</ele>
        <time>2026-05-22T11:29:07.000Z</time>
      </trkpt>
      <trkpt lat="43.0668" lon="-1.21966">
        <ele>709.088639</ele>
        <time>2026-05-22T11:29:08.000Z</time>
      </trkpt>
      <trkpt lat="43.0668" lon="-1.21968">
        <ele>709.231956</ele>
        <time>2026-05-22T11:29:09.000Z</time>
      </trkpt>
      <trkpt lat="43.06679" lon="-1.2197">
        <ele>709.369191</ele>
        <time>2026-05-22T11:29:10.000Z</time>
      </trkpt>
      <trkpt lat="43.06679" lon="-1.21972">
        <ele>709.505377</ele>
        <time>2026-05-22T11:29:11.000Z</time>
      </trkpt>
      <trkpt lat="43.06679" lon="-1.21974">
        <ele>709.665373</ele>
        <time>2026-05-22T11:29:12.000Z</time>
      </trkpt>
      <trkpt lat="43.06679" lon="-1.21976">
        <ele>709.794429</ele>
        <time>2026-05-22T11:29:13.000Z</time>
      </trkpt>
      <trkpt lat="43.06679" lon="-1.21977">
        <ele>709.902111</ele>
        <time>2026-05-22T11:29:14.000Z</time>
      </trkpt>
      <trkpt lat="43.0668" lon="-1.21978">
        <ele>710.017566</ele>
        <time>2026-05-22T11:29:15.000Z</time>
      </trkpt>
      <trkpt lat="43.0668" lon="-1.2198">
        <ele>710.168193</ele>
        <time>2026-05-22T11:29:16.000Z</time>
      </trkpt>
      <trkpt lat="43.06681" lon="-1.21982">
        <ele>710.322761</ele>
        <time>2026-05-22T11:29:17.000Z</time>
      </trkpt>
      <trkpt lat="43.06681" lon="-1.21984">
        <ele>710.449227</ele>
        <time>2026-05-22T11:29:18.000Z</time>
      </trkpt>
      <trkpt lat="43.06682" lon="-1.21986">
        <ele>710.560421</ele>
        <time>2026-05-22T11:29:19.000Z</time>
      </trkpt>
      <trkpt lat="43.06683" lon="-1.21988">
        <ele>710.70791</ele>
        <time>2026-05-22T11:29:20.000Z</time>
      </trkpt>
      <trkpt lat="43.06683" lon="-1.2199">
        <ele>710.85091</ele>
        <time>2026-05-22T11:29:21.000Z</time>
      </trkpt>
      <trkpt lat="43.06683" lon="-1.21992">
        <ele>710.998131</ele>
        <time>2026-05-22T11:29:22.000Z</time>
      </trkpt>
      <trkpt lat="43.06683" lon="-1.21994">
        <ele>711.120787</ele>
        <time>2026-05-22T11:29:23.000Z</time>
      </trkpt>
      <trkpt lat="43.06683" lon="-1.21996">
        <ele>711.244993</ele>
        <time>2026-05-22T11:29:24.000Z</time>
      </trkpt>
      <trkpt lat="43.06684" lon="-1.21998">
        <ele>711.36765</ele>
        <time>2026-05-22T11:29:25.000Z</time>
      </trkpt>
      <trkpt lat="43.06684" lon="-1.22">
        <ele>711.495442</ele>
        <time>2026-05-22T11:29:26.000Z</time>
      </trkpt>
      <trkpt lat="43.06684" lon="-1.22003">
        <ele>711.681565</ele>
        <time>2026-05-22T11:29:27.000Z</time>
      </trkpt>
      <trkpt lat="43.06684" lon="-1.22005">
        <ele>711.822408</ele>
        <time>2026-05-22T11:29:28.000Z</time>
      </trkpt>
      <trkpt lat="43.06684" lon="-1.22007">
        <ele>711.95659</ele>
        <time>2026-05-22T11:29:29.000Z</time>
      </trkpt>
      <trkpt lat="43.06683" lon="-1.22009">
        <ele>712.075754</ele>
        <time>2026-05-22T11:29:30.000Z</time>
      </trkpt>
      <trkpt lat="43.06682" lon="-1.22011">
        <ele>712.215877</ele>
        <time>2026-05-22T11:29:31.000Z</time>
      </trkpt>
      <trkpt lat="43.06683" lon="-1.22012">
        <ele>712.331222</ele>
        <time>2026-05-22T11:29:32.000Z</time>
      </trkpt>
      <trkpt lat="43.06683" lon="-1.22014">
        <ele>712.434933</ele>
        <time>2026-05-22T11:29:33.000Z</time>
      </trkpt>
      <trkpt lat="43.06683" lon="-1.22015">
        <ele>712.524814</ele>
        <time>2026-05-22T11:29:34.000Z</time>
      </trkpt>
      <trkpt lat="43.06684" lon="-1.22017">
        <ele>712.634084</ele>
        <time>2026-05-22T11:29:35.000Z</time>
      </trkpt>
      <trkpt lat="43.06684" lon="-1.22018">
        <ele>712.745279</ele>
        <time>2026-05-22T11:29:36.000Z</time>
      </trkpt>
      <trkpt lat="43.06685" lon="-1.2202">
        <ele>712.883946</ele>
        <time>2026-05-22T11:29:37.000Z</time>
      </trkpt>
      <trkpt lat="43.06685" lon="-1.22022">
        <ele>713.019264</ele>
        <time>2026-05-22T11:29:38.000Z</time>
      </trkpt>
      <trkpt lat="43.06685" lon="-1.22025">
        <ele>713.159835</ele>
        <time>2026-05-22T11:29:39.000Z</time>
      </trkpt>
      <trkpt lat="43.06685" lon="-1.22027">
        <ele>713.304695</ele>
        <time>2026-05-22T11:29:40.000Z</time>
      </trkpt>
      <trkpt lat="43.06685" lon="-1.22029">
        <ele>713.426412</ele>
        <time>2026-05-22T11:29:41.000Z</time>
      </trkpt>
      <trkpt lat="43.06685" lon="-1.2203">
        <ele>713.528442</ele>
        <time>2026-05-22T11:29:42.000Z</time>
      </trkpt>
      <trkpt lat="43.06685" lon="-1.22032">
        <ele>713.662624</ele>
        <time>2026-05-22T11:29:43.000Z</time>
      </trkpt>
      <trkpt lat="43.06685" lon="-1.22034">
        <ele>713.791608</ele>
        <time>2026-05-22T11:29:44.000Z</time>
      </trkpt>
      <trkpt lat="43.06685" lon="-1.22036">
        <ele>713.895327</ele>
        <time>2026-05-22T11:29:45.000Z</time>
      </trkpt>
      <trkpt lat="43.06686" lon="-1.22038">
        <ele>714.024311</ele>
        <time>2026-05-22T11:29:46.000Z</time>
      </trkpt>
      <trkpt lat="43.06686" lon="-1.2204">
        <ele>714.145714</ele>
        <time>2026-05-22T11:29:47.000Z</time>
      </trkpt>
      <trkpt lat="43.06686" lon="-1.22042">
        <ele>714.26837</ele>
        <time>2026-05-22T11:29:48.000Z</time>
      </trkpt>
      <trkpt lat="43.06686" lon="-1.22044">
        <ele>714.396461</ele>
        <time>2026-05-22T11:29:49.000Z</time>
      </trkpt>
      <trkpt lat="43.06686" lon="-1.22046">
        <ele>714.524553</ele>
        <time>2026-05-22T11:29:50.000Z</time>
      </trkpt>
      <trkpt lat="43.06687" lon="-1.22048">
        <ele>714.665681</ele>
        <time>2026-05-22T11:29:51.000Z</time>
      </trkpt>
      <trkpt lat="43.06687" lon="-1.2205">
        <ele>714.794665</ele>
        <time>2026-05-22T11:29:52.000Z</time>
      </trkpt>
      <trkpt lat="43.06687" lon="-1.22052">
        <ele>714.923649</ele>
        <time>2026-05-22T11:29:53.000Z</time>
      </trkpt>
      <trkpt lat="43.06687" lon="-1.22054">
        <ele>715.058716</ele>
        <time>2026-05-22T11:29:54.000Z</time>
      </trkpt>
      <trkpt lat="43.06687" lon="-1.22056">
        <ele>715.174061</ele>
        <time>2026-05-22T11:29:55.000Z</time>
      </trkpt>
      <trkpt lat="43.06687" lon="-1.22057">
        <ele>715.289407</ele>
        <time>2026-05-22T11:29:56.000Z</time>
      </trkpt>
      <trkpt lat="43.06688" lon="-1.22059">
        <ele>715.428777</ele>
        <time>2026-05-22T11:29:57.000Z</time>
      </trkpt>
      <trkpt lat="43.06689" lon="-1.22061">
        <ele>715.561036</ele>
        <time>2026-05-22T11:29:58.000Z</time>
      </trkpt>
      <trkpt lat="43.06689" lon="-1.22063">
        <ele>715.687379</ele>
        <time>2026-05-22T11:29:59.000Z</time>
      </trkpt>
      <trkpt lat="43.06689" lon="-1.22065">
        <ele>715.815171</ele>
        <time>2026-05-22T11:30:00.000Z</time>
      </trkpt>
      <trkpt lat="43.0669" lon="-1.22067">
        <ele>715.9563</ele>
        <time>2026-05-22T11:30:01.000Z</time>
      </trkpt>
      <trkpt lat="43.06691" lon="-1.22069">
        <ele>716.10639</ele>
        <time>2026-05-22T11:30:02.000Z</time>
      </trkpt>
      <trkpt lat="43.06691" lon="-1.22071">
        <ele>716.247518</ele>
        <time>2026-05-22T11:30:03.000Z</time>
      </trkpt>
      <trkpt lat="43.06691" lon="-1.22074">
        <ele>716.398586</ele>
        <time>2026-05-22T11:30:04.000Z</time>
      </trkpt>
      <trkpt lat="43.06692" lon="-1.22076">
        <ele>716.548633</ele>
        <time>2026-05-22T11:30:05.000Z</time>
      </trkpt>
      <trkpt lat="43.06693" lon="-1.22078">
        <ele>716.692711</ele>
        <time>2026-05-22T11:30:06.000Z</time>
      </trkpt>
      <trkpt lat="43.06693" lon="-1.22079">
        <ele>716.811875</ele>
        <time>2026-05-22T11:30:07.000Z</time>
      </trkpt>
      <trkpt lat="43.06694" lon="-1.22081">
        <ele>716.966777</ele>
        <time>2026-05-22T11:30:08.000Z</time>
      </trkpt>
      <trkpt lat="43.06695" lon="-1.22084">
        <ele>717.139151</ele>
        <time>2026-05-22T11:30:09.000Z</time>
      </trkpt>
      <trkpt lat="43.06696" lon="-1.22086">
        <ele>717.298354</ele>
        <time>2026-05-22T11:30:10.000Z</time>
      </trkpt>
      <trkpt lat="43.06697" lon="-1.22088">
        <ele>717.465069</ele>
        <time>2026-05-22T11:30:11.000Z</time>
      </trkpt>
      <trkpt lat="43.06698" lon="-1.2209">
        <ele>717.595362</ele>
        <time>2026-05-22T11:30:12.000Z</time>
      </trkpt>
      <trkpt lat="43.06698" lon="-1.22092">
        <ele>717.700711</ele>
        <time>2026-05-22T11:30:13.000Z</time>
      </trkpt>
      <trkpt lat="43.06698" lon="-1.22093">
        <ele>717.809686</ele>
        <time>2026-05-22T11:30:14.000Z</time>
      </trkpt>
      <trkpt lat="43.06698" lon="-1.22095">
        <ele>717.923804</ele>
        <time>2026-05-22T11:30:15.000Z</time>
      </trkpt>
      <trkpt lat="43.06698" lon="-1.22097">
        <ele>718.038817</ele>
        <time>2026-05-22T11:30:16.000Z</time>
      </trkpt>
      <trkpt lat="43.06699" lon="-1.22099">
        <ele>718.155913</ele>
        <time>2026-05-22T11:30:17.000Z</time>
      </trkpt>
      <trkpt lat="43.067" lon="-1.221">
        <ele>718.282332</ele>
        <time>2026-05-22T11:30:18.000Z</time>
      </trkpt>
      <trkpt lat="43.067" lon="-1.22102">
        <ele>718.391306</ele>
        <time>2026-05-22T11:30:19.000Z</time>
      </trkpt>
      <trkpt lat="43.067" lon="-1.22104">
        <ele>718.513024</ele>
        <time>2026-05-22T11:30:20.000Z</time>
      </trkpt>
      <trkpt lat="43.067" lon="-1.22106">
        <ele>718.641114</ele>
        <time>2026-05-22T11:30:21.000Z</time>
      </trkpt>
      <trkpt lat="43.067" lon="-1.22108">
        <ele>718.762831</ele>
        <time>2026-05-22T11:30:22.000Z</time>
      </trkpt>
      <trkpt lat="43.067" lon="-1.2211">
        <ele>718.893289</ele>
        <time>2026-05-22T11:30:23.000Z</time>
      </trkpt>
      <trkpt lat="43.067" lon="-1.22112">
        <ele>719.025784</ele>
        <time>2026-05-22T11:30:24.000Z</time>
      </trkpt>
      <trkpt lat="43.06701" lon="-1.22114">
        <ele>719.158278</ele>
        <time>2026-05-22T11:30:25.000Z</time>
      </trkpt>
      <trkpt lat="43.06701" lon="-1.22116">
        <ele>719.276246</ele>
        <time>2026-05-22T11:30:26.000Z</time>
      </trkpt>
      <trkpt lat="43.06701" lon="-1.22117">
        <ele>719.390364</ele>
        <time>2026-05-22T11:30:27.000Z</time>
      </trkpt>
      <trkpt lat="43.06702" lon="-1.22119">
        <ele>719.508332</ele>
        <time>2026-05-22T11:30:28.000Z</time>
      </trkpt>
      <trkpt lat="43.06702" lon="-1.22121">
        <ele>719.638789</ele>
        <time>2026-05-22T11:30:29.000Z</time>
      </trkpt>
      <trkpt lat="43.06702" lon="-1.22123">
        <ele>719.786787</ele>
        <time>2026-05-22T11:30:30.000Z</time>
      </trkpt>
      <trkpt lat="43.06703" lon="-1.22125">
        <ele>719.91708</ele>
        <time>2026-05-22T11:30:31.000Z</time>
      </trkpt>
      <trkpt lat="43.06703" lon="-1.22127">
        <ele>720.025134</ele>
        <time>2026-05-22T11:30:32.000Z</time>
      </trkpt>
      <trkpt lat="43.06704" lon="-1.22129">
        <ele>720.157628</ele>
        <time>2026-05-22T11:30:33.000Z</time>
      </trkpt>
      <trkpt lat="43.06704" lon="-1.22131">
        <ele>720.293595</ele>
        <time>2026-05-22T11:30:34.000Z</time>
      </trkpt>
      <trkpt lat="43.06705" lon="-1.22133">
        <ele>720.434723</ele>
        <time>2026-05-22T11:30:35.000Z</time>
      </trkpt>
      <trkpt lat="43.06705" lon="-1.22135">
        <ele>720.562813</ele>
        <time>2026-05-22T11:30:36.000Z</time>
      </trkpt>
      <trkpt lat="43.06705" lon="-1.22137">
        <ele>720.717158</ele>
        <time>2026-05-22T11:30:37.000Z</time>
      </trkpt>
      <trkpt lat="43.06705" lon="-1.22139">
        <ele>720.838875</ele>
        <time>2026-05-22T11:30:38.000Z</time>
      </trkpt>
      <trkpt lat="43.06705" lon="-1.22141">
        <ele>720.928756</ele>
        <time>2026-05-22T11:30:39.000Z</time>
      </trkpt>
      <trkpt lat="43.06706" lon="-1.22142">
        <ele>721.032475</ele>
        <time>2026-05-22T11:30:40.000Z</time>
      </trkpt>
      <trkpt lat="43.06706" lon="-1.22144">
        <ele>721.140529</ele>
        <time>2026-05-22T11:30:41.000Z</time>
      </trkpt>
      <trkpt lat="43.06706" lon="-1.22145">
        <ele>721.257625</ele>
        <time>2026-05-22T11:30:42.000Z</time>
      </trkpt>
      <trkpt lat="43.06707" lon="-1.22147">
        <ele>721.368819</ele>
        <time>2026-05-22T11:30:43.000Z</time>
      </trkpt>
      <trkpt lat="43.06707" lon="-1.22149">
        <ele>721.485914</ele>
        <time>2026-05-22T11:30:44.000Z</time>
      </trkpt>
      <trkpt lat="43.06708" lon="-1.22151">
        <ele>721.631607</ele>
        <time>2026-05-22T11:30:45.000Z</time>
      </trkpt>
      <trkpt lat="43.06709" lon="-1.22153">
        <ele>721.766675</ele>
        <time>2026-05-22T11:30:46.000Z</time>
      </trkpt>
      <trkpt lat="43.06709" lon="-1.22155">
        <ele>721.907802</ele>
        <time>2026-05-22T11:30:47.000Z</time>
      </trkpt>
      <trkpt lat="43.0671" lon="-1.22157">
        <ele>722.040061</ele>
        <time>2026-05-22T11:30:48.000Z</time>
      </trkpt>
      <trkpt lat="43.06711" lon="-1.22159">
        <ele>722.189688</ele>
        <time>2026-05-22T11:30:49.000Z</time>
      </trkpt>
      <trkpt lat="43.06712" lon="-1.22161">
        <ele>722.32981</ele>
        <time>2026-05-22T11:30:50.000Z</time>
      </trkpt>
      <trkpt lat="43.06712" lon="-1.22162">
        <ele>722.458848</ele>
        <time>2026-05-22T11:30:51.000Z</time>
      </trkpt>
      <trkpt lat="43.06712" lon="-1.22164">
        <ele>722.583053</ele>
        <time>2026-05-22T11:30:52.000Z</time>
      </trkpt>
      <trkpt lat="43.06712" lon="-1.22166">
        <ele>722.704456</ele>
        <time>2026-05-22T11:30:53.000Z</time>
      </trkpt>
      <trkpt lat="43.06713" lon="-1.22168">
        <ele>722.833439</ele>
        <time>2026-05-22T11:30:54.000Z</time>
      </trkpt>
      <trkpt lat="43.06713" lon="-1.2217">
        <ele>722.954841</ele>
        <time>2026-05-22T11:30:55.000Z</time>
      </trkpt>
      <trkpt lat="43.06713" lon="-1.22172">
        <ele>723.077497</ele>
        <time>2026-05-22T11:30:56.000Z</time>
      </trkpt>
      <trkpt lat="43.06713" lon="-1.22174">
        <ele>723.187519</ele>
        <time>2026-05-22T11:30:57.000Z</time>
      </trkpt>
      <trkpt lat="43.06713" lon="-1.22176">
        <ele>723.33474</ele>
        <time>2026-05-22T11:30:58.000Z</time>
      </trkpt>
      <trkpt lat="43.06713" lon="-1.22178">
        <ele>723.489084</ele>
        <time>2026-05-22T11:30:59.000Z</time>
      </trkpt>
      <trkpt lat="43.06714" lon="-1.22181">
        <ele>723.65261</ele>
        <time>2026-05-22T11:31:00.000Z</time>
      </trkpt>
      <trkpt lat="43.06714" lon="-1.22183">
        <ele>723.791277</ele>
        <time>2026-05-22T11:31:01.000Z</time>
      </trkpt>
      <trkpt lat="43.06715" lon="-1.22185">
        <ele>723.931399</ele>
        <time>2026-05-22T11:31:02.000Z</time>
      </trkpt>
      <trkpt lat="43.06716" lon="-1.22187">
        <ele>724.082728</ele>
        <time>2026-05-22T11:31:03.000Z</time>
      </trkpt>
      <trkpt lat="43.06716" lon="-1.22189">
        <ele>724.197741</ele>
        <time>2026-05-22T11:31:04.000Z</time>
      </trkpt>
      <trkpt lat="43.06715" lon="-1.22191">
        <ele>724.314076</ele>
        <time>2026-05-22T11:31:05.000Z</time>
      </trkpt>
      <trkpt lat="43.06716" lon="-1.22193">
        <ele>724.443114</ele>
        <time>2026-05-22T11:31:06.000Z</time>
      </trkpt>
      <trkpt lat="43.06716" lon="-1.22194">
        <ele>724.56577</ele>
        <time>2026-05-22T11:31:07.000Z</time>
      </trkpt>
      <trkpt lat="43.06716" lon="-1.22196">
        <ele>724.683737</ele>
        <time>2026-05-22T11:31:08.000Z</time>
      </trkpt>
      <trkpt lat="43.06717" lon="-1.22198">
        <ele>724.791791</ele>
        <time>2026-05-22T11:31:09.000Z</time>
      </trkpt>
      <trkpt lat="43.06717" lon="-1.222">
        <ele>724.915996</ele>
        <time>2026-05-22T11:31:10.000Z</time>
      </trkpt>
      <trkpt lat="43.06718" lon="-1.22202">
        <ele>725.045034</ele>
        <time>2026-05-22T11:31:11.000Z</time>
      </trkpt>
      <trkpt lat="43.06718" lon="-1.22203">
        <ele>725.156781</ele>
        <time>2026-05-22T11:31:12.000Z</time>
      </trkpt>
      <trkpt lat="43.06718" lon="-1.22205">
        <ele>725.293504</ele>
        <time>2026-05-22T11:31:13.000Z</time>
      </trkpt>
      <trkpt lat="43.06719" lon="-1.22207">
        <ele>725.425998</ele>
        <time>2026-05-22T11:31:14.000Z</time>
      </trkpt>
      <trkpt lat="43.06719" lon="-1.22209">
        <ele>725.561065</ele>
        <time>2026-05-22T11:31:15.000Z</time>
      </trkpt>
      <trkpt lat="43.06719" lon="-1.22212">
        <ele>725.70272</ele>
        <time>2026-05-22T11:31:16.000Z</time>
      </trkpt>
      <trkpt lat="43.06719" lon="-1.22214">
        <ele>725.83081</ele>
        <time>2026-05-22T11:31:17.000Z</time>
      </trkpt>
      <trkpt lat="43.06719" lon="-1.22216">
        <ele>725.957153</ele>
        <time>2026-05-22T11:31:18.000Z</time>
      </trkpt>
      <trkpt lat="43.06719" lon="-1.22217">
        <ele>726.07127</ele>
        <time>2026-05-22T11:31:19.000Z</time>
      </trkpt>
      <trkpt lat="43.06718" lon="-1.22219">
        <ele>726.208079</ele>
        <time>2026-05-22T11:31:20.000Z</time>
      </trkpt>
      <trkpt lat="43.06717" lon="-1.22221">
        <ele>726.321921</ele>
        <time>2026-05-22T11:31:21.000Z</time>
      </trkpt>
      <trkpt lat="43.06717" lon="-1.22222">
        <ele>726.424966</ele>
        <time>2026-05-22T11:31:22.000Z</time>
      </trkpt>
      <trkpt lat="43.06715" lon="-1.22223">
        <ele>726.564317</ele>
        <time>2026-05-22T11:31:23.000Z</time>
      </trkpt>
      <trkpt lat="43.06714" lon="-1.22222">
        <ele>726.69361</ele>
        <time>2026-05-22T11:31:24.000Z</time>
      </trkpt>
      <trkpt lat="43.06712" lon="-1.22222">
        <ele>726.841187</ele>
        <time>2026-05-22T11:31:25.000Z</time>
      </trkpt>
      <trkpt lat="43.06711" lon="-1.22221">
        <ele>726.972109</ele>
        <time>2026-05-22T11:31:26.000Z</time>
      </trkpt>
      <trkpt lat="43.0671" lon="-1.2222">
        <ele>727.082039</ele>
        <time>2026-05-22T11:31:27.000Z</time>
      </trkpt>
      <trkpt lat="43.06709" lon="-1.22219">
        <ele>727.196099</ele>
        <time>2026-05-22T11:31:28.000Z</time>
      </trkpt>
      <trkpt lat="43.06708" lon="-1.22218">
        <ele>727.321246</ele>
        <time>2026-05-22T11:31:29.000Z</time>
      </trkpt>
      <trkpt lat="43.06708" lon="-1.22216">
        <ele>727.444221</ele>
        <time>2026-05-22T11:31:30.000Z</time>
      </trkpt>
      <trkpt lat="43.06707" lon="-1.22214">
        <ele>727.583367</ele>
        <time>2026-05-22T11:31:31.000Z</time>
      </trkpt>
      <trkpt lat="43.06707" lon="-1.22212">
        <ele>727.735499</ele>
        <time>2026-05-22T11:31:32.000Z</time>
      </trkpt>
      <trkpt lat="43.06706" lon="-1.22209">
        <ele>727.905718</ele>
        <time>2026-05-22T11:31:33.000Z</time>
      </trkpt>
      <trkpt lat="43.06706" lon="-1.22207">
        <ele>728.058726</ele>
        <time>2026-05-22T11:31:34.000Z</time>
      </trkpt>
      <trkpt lat="43.06705" lon="-1.22205">
        <ele>728.205095</ele>
        <time>2026-05-22T11:31:35.000Z</time>
      </trkpt>
      <trkpt lat="43.06704" lon="-1.22203">
        <ele>728.350178</ele>
        <time>2026-05-22T11:31:36.000Z</time>
      </trkpt>
      <trkpt lat="43.06703" lon="-1.22202">
        <ele>728.491059</ele>
        <time>2026-05-22T11:31:37.000Z</time>
      </trkpt>
      <trkpt lat="43.06703" lon="-1.222">
        <ele>728.633852</ele>
        <time>2026-05-22T11:31:38.000Z</time>
      </trkpt>
      <trkpt lat="43.06702" lon="-1.22197">
        <ele>728.79904</ele>
        <time>2026-05-22T11:31:39.000Z</time>
      </trkpt>
      <trkpt lat="43.06702" lon="-1.22195">
        <ele>728.94467</ele>
        <time>2026-05-22T11:31:40.000Z</time>
      </trkpt>
      <trkpt lat="43.06701" lon="-1.22193">
        <ele>729.096623</ele>
        <time>2026-05-22T11:31:41.000Z</time>
      </trkpt>
      <trkpt lat="43.067" lon="-1.22192">
        <ele>729.232128</ele>
        <time>2026-05-22T11:31:42.000Z</time>
      </trkpt>
      <trkpt lat="43.067" lon="-1.2219">
        <ele>729.371275</ele>
        <time>2026-05-22T11:31:43.000Z</time>
      </trkpt>
      <trkpt lat="43.06699" lon="-1.22188">
        <ele>729.503961</ele>
        <time>2026-05-22T11:31:44.000Z</time>
      </trkpt>
      <trkpt lat="43.06699" lon="-1.22186">
        <ele>729.633185</ele>
        <time>2026-05-22T11:31:45.000Z</time>
      </trkpt>
      <trkpt lat="43.06698" lon="-1.22184">
        <ele>729.781399</ele>
        <time>2026-05-22T11:31:46.000Z</time>
      </trkpt>
      <trkpt lat="43.06698" lon="-1.22182">
        <ele>729.931578</ele>
        <time>2026-05-22T11:31:47.000Z</time>
      </trkpt>
      <trkpt lat="43.06697" lon="-1.2218">
        <ele>730.070725</ele>
        <time>2026-05-22T11:31:48.000Z</time>
      </trkpt>
      <trkpt lat="43.06697" lon="-1.22178">
        <ele>730.203411</ele>
        <time>2026-05-22T11:31:49.000Z</time>
      </trkpt>
      <trkpt lat="43.06696" lon="-1.22176">
        <ele>730.348495</ele>
        <time>2026-05-22T11:31:50.000Z</time>
      </trkpt>
      <trkpt lat="43.06696" lon="-1.22174">
        <ele>730.499807</ele>
        <time>2026-05-22T11:31:51.000Z</time>
      </trkpt>
      <trkpt lat="43.06695" lon="-1.22172">
        <ele>730.658734</ele>
        <time>2026-05-22T11:31:52.000Z</time>
      </trkpt>
      <trkpt lat="43.06694" lon="-1.2217">
        <ele>730.817662</ele>
        <time>2026-05-22T11:31:53.000Z</time>
      </trkpt>
      <trkpt lat="43.06693" lon="-1.22168">
        <ele>730.97067</ele>
        <time>2026-05-22T11:31:54.000Z</time>
      </trkpt>
      <trkpt lat="43.06693" lon="-1.22165">
        <ele>731.131694</ele>
        <time>2026-05-22T11:31:55.000Z</time>
      </trkpt>
      <trkpt lat="43.06692" lon="-1.22163">
        <ele>731.288474</ele>
        <time>2026-05-22T11:31:56.000Z</time>
      </trkpt>
      <trkpt lat="43.06692" lon="-1.22161">
        <ele>731.438653</ele>
        <time>2026-05-22T11:31:57.000Z</time>
      </trkpt>
      <trkpt lat="43.06691" lon="-1.22159">
        <ele>731.585811</ele>
        <time>2026-05-22T11:31:58.000Z</time>
      </trkpt>
      <trkpt lat="43.0669" lon="-1.22157">
        <ele>731.737765</ele>
        <time>2026-05-22T11:31:59.000Z</time>
      </trkpt>
      <trkpt lat="43.0669" lon="-1.22155">
        <ele>731.879148</ele>
        <time>2026-05-22T11:32:00.000Z</time>
      </trkpt>
      <trkpt lat="43.06689" lon="-1.22153">
        <ele>732.00959</ele>
        <time>2026-05-22T11:32:01.000Z</time>
      </trkpt>
      <trkpt lat="43.06689" lon="-1.22151">
        <ele>732.15144</ele>
        <time>2026-05-22T11:32:02.000Z</time>
      </trkpt>
      <trkpt lat="43.06688" lon="-1.2215">
        <ele>732.284206</ele>
        <time>2026-05-22T11:32:03.000Z</time>
      </trkpt>
      <trkpt lat="43.06688" lon="-1.22148">
        <ele>732.409353</ele>
        <time>2026-05-22T11:32:04.000Z</time>
      </trkpt>
      <trkpt lat="43.06687" lon="-1.22146">
        <ele>732.54212</ele>
        <time>2026-05-22T11:32:05.000Z</time>
      </trkpt>
      <trkpt lat="43.06686" lon="-1.22144">
        <ele>732.68102</ele>
        <time>2026-05-22T11:32:06.000Z</time>
      </trkpt>
      <trkpt lat="43.06686" lon="-1.22143">
        <ele>732.80046</ele>
        <time>2026-05-22T11:32:07.000Z</time>
      </trkpt>
      <trkpt lat="43.06685" lon="-1.22141">
        <ele>732.914302</ele>
        <time>2026-05-22T11:32:08.000Z</time>
      </trkpt>
      <trkpt lat="43.06684" lon="-1.2214">
        <ele>733.06067</ele>
        <time>2026-05-22T11:32:09.000Z</time>
      </trkpt>
      <trkpt lat="43.06684" lon="-1.22138">
        <ele>733.208885</ele>
        <time>2026-05-22T11:32:10.000Z</time>
      </trkpt>
      <trkpt lat="43.06683" lon="-1.22136">
        <ele>733.350734</ele>
        <time>2026-05-22T11:32:11.000Z</time>
      </trkpt>
      <trkpt lat="43.06682" lon="-1.22133">
        <ele>733.514619</ele>
        <time>2026-05-22T11:32:12.000Z</time>
      </trkpt>
      <trkpt lat="43.06681" lon="-1.22131">
        <ele>733.67725</ele>
        <time>2026-05-22T11:32:13.000Z</time>
      </trkpt>
      <trkpt lat="43.06681" lon="-1.22129">
        <ele>733.834877</ele>
        <time>2026-05-22T11:32:14.000Z</time>
      </trkpt>
      <trkpt lat="43.0668" lon="-1.22128">
        <ele>733.975758</ele>
        <time>2026-05-22T11:32:15.000Z</time>
      </trkpt>
      <trkpt lat="43.06678" lon="-1.22126">
        <ele>734.116327</ele>
        <time>2026-05-22T11:32:16.000Z</time>
      </trkpt>
      <trkpt lat="43.06677" lon="-1.22125">
        <ele>734.261155</ele>
        <time>2026-05-22T11:32:17.000Z</time>
      </trkpt>
      <trkpt lat="43.06676" lon="-1.22123">
        <ele>734.385781</ele>
        <time>2026-05-22T11:32:18.000Z</time>
      </trkpt>
      <trkpt lat="43.06675" lon="-1.22122">
        <ele>734.517169</ele>
        <time>2026-05-22T11:32:19.000Z</time>
      </trkpt>
      <trkpt lat="43.06674" lon="-1.2212">
        <ele>734.653437</ele>
        <time>2026-05-22T11:32:20.000Z</time>
      </trkpt>
      <trkpt lat="43.06674" lon="-1.22119">
        <ele>734.772708</ele>
        <time>2026-05-22T11:32:21.000Z</time>
      </trkpt>
      <trkpt lat="43.06673" lon="-1.22117">
        <ele>734.909543</ele>
        <time>2026-05-22T11:32:22.000Z</time>
      </trkpt>
      <trkpt lat="43.06673" lon="-1.22116">
        <ele>735.016696</ele>
        <time>2026-05-22T11:32:23.000Z</time>
      </trkpt>
      <trkpt lat="43.06672" lon="-1.22115">
        <ele>735.12571</ele>
        <time>2026-05-22T11:32:24.000Z</time>
      </trkpt>
      <trkpt lat="43.06671" lon="-1.22113">
        <ele>735.261406</ele>
        <time>2026-05-22T11:32:25.000Z</time>
      </trkpt>
      <trkpt lat="43.0667" lon="-1.22111">
        <ele>735.388099</ele>
        <time>2026-05-22T11:32:26.000Z</time>
      </trkpt>
      <trkpt lat="43.0667" lon="-1.22109">
        <ele>735.517324</ele>
        <time>2026-05-22T11:32:27.000Z</time>
      </trkpt>
      <trkpt lat="43.06669" lon="-1.22108">
        <ele>735.640299</ele>
        <time>2026-05-22T11:32:28.000Z</time>
      </trkpt>
      <trkpt lat="43.06669" lon="-1.22106">
        <ele>735.76419</ele>
        <time>2026-05-22T11:32:29.000Z</time>
      </trkpt>
      <trkpt lat="43.06668" lon="-1.22104">
        <ele>735.896958</ele>
        <time>2026-05-22T11:32:30.000Z</time>
      </trkpt>
      <trkpt lat="43.06668" lon="-1.22102">
        <ele>736.029725</ele>
        <time>2026-05-22T11:32:31.000Z</time>
      </trkpt>
      <trkpt lat="43.06667" lon="-1.22101">
        <ele>736.1527</ele>
        <time>2026-05-22T11:32:32.000Z</time>
      </trkpt>
      <trkpt lat="43.06667" lon="-1.22099">
        <ele>736.288396</ele>
        <time>2026-05-22T11:32:33.000Z</time>
      </trkpt>
      <trkpt lat="43.06666" lon="-1.22097">
        <ele>736.419785</ele>
        <time>2026-05-22T11:32:34.000Z</time>
      </trkpt>
      <trkpt lat="43.06664" lon="-1.22096">
        <ele>736.553273</ele>
        <time>2026-05-22T11:32:35.000Z</time>
      </trkpt>
      <trkpt lat="43.06664" lon="-1.22095">
        <ele>736.64793</ele>
        <time>2026-05-22T11:32:36.000Z</time>
      </trkpt>
      <trkpt lat="43.06663" lon="-1.22094">
        <ele>736.763336</ele>
        <time>2026-05-22T11:32:37.000Z</time>
      </trkpt>
      <trkpt lat="43.06662" lon="-1.22092">
        <ele>736.883519</ele>
        <time>2026-05-22T11:32:38.000Z</time>
      </trkpt>
      <trkpt lat="43.06662" lon="-1.22091">
        <ele>737.00296</ele>
        <time>2026-05-22T11:32:39.000Z</time>
      </trkpt>
      <trkpt lat="43.06661" lon="-1.22089">
        <ele>737.119737</ele>
        <time>2026-05-22T11:32:40.000Z</time>
      </trkpt>
      <trkpt lat="43.0666" lon="-1.22088">
        <ele>737.250687</ele>
        <time>2026-05-22T11:32:41.000Z</time>
      </trkpt>
      <trkpt lat="43.0666" lon="-1.22086">
        <ele>737.381637</ele>
        <time>2026-05-22T11:32:42.000Z</time>
      </trkpt>
      <trkpt lat="43.06659" lon="-1.22084">
        <ele>737.524431</ele>
        <time>2026-05-22T11:32:43.000Z</time>
      </trkpt>
      <trkpt lat="43.06658" lon="-1.22082">
        <ele>737.681571</ele>
        <time>2026-05-22T11:32:44.000Z</time>
      </trkpt>
      <trkpt lat="43.06657" lon="-1.2208">
        <ele>737.814339</ele>
        <time>2026-05-22T11:32:45.000Z</time>
      </trkpt>
      <trkpt lat="43.06657" lon="-1.22079">
        <ele>737.911918</ele>
        <time>2026-05-22T11:32:46.000Z</time>
      </trkpt>
      <trkpt lat="43.06656" lon="-1.22078">
        <ele>737.998854</ele>
        <time>2026-05-22T11:32:47.000Z</time>
      </trkpt>
      <trkpt lat="43.06655" lon="-1.22077">
        <ele>738.107869</ele>
        <time>2026-05-22T11:32:48.000Z</time>
      </trkpt>
      <trkpt lat="43.06654" lon="-1.22075">
        <ele>738.245835</ele>
        <time>2026-05-22T11:32:49.000Z</time>
      </trkpt>
      <trkpt lat="43.06653" lon="-1.22074">
        <ele>738.387132</ele>
        <time>2026-05-22T11:32:50.000Z</time>
      </trkpt>
      <trkpt lat="43.06652" lon="-1.22072">
        <ele>738.518521</ele>
        <time>2026-05-22T11:32:51.000Z</time>
      </trkpt>
      <trkpt lat="43.06651" lon="-1.22071">
        <ele>738.658904</ele>
        <time>2026-05-22T11:32:52.000Z</time>
      </trkpt>
      <trkpt lat="43.06651" lon="-1.2207">
        <ele>738.74584</ele>
        <time>2026-05-22T11:32:53.000Z</time>
      </trkpt>
      <trkpt lat="43.0665" lon="-1.22069">
        <ele>738.84816</ele>
        <time>2026-05-22T11:32:54.000Z</time>
      </trkpt>
      <trkpt lat="43.0665" lon="-1.22067">
        <ele>738.949036</ele>
        <time>2026-05-22T11:32:55.000Z</time>
      </trkpt>
      <trkpt lat="43.06649" lon="-1.22066">
        <ele>739.05805</ele>
        <time>2026-05-22T11:32:56.000Z</time>
      </trkpt>
      <trkpt lat="43.06649" lon="-1.22064">
        <ele>739.190737</ele>
        <time>2026-05-22T11:32:57.000Z</time>
      </trkpt>
      <trkpt lat="43.06648" lon="-1.22063">
        <ele>739.327005</ele>
        <time>2026-05-22T11:32:58.000Z</time>
      </trkpt>
      <trkpt lat="43.06647" lon="-1.22062">
        <ele>739.413841</ele>
        <time>2026-05-22T11:32:59.000Z</time>
      </trkpt>
      <trkpt lat="43.06646" lon="-1.2206">
        <ele>739.527901</ele>
        <time>2026-05-22T11:33:00.000Z</time>
      </trkpt>
      <trkpt lat="43.06645" lon="-1.22059">
        <ele>739.675335</ele>
        <time>2026-05-22T11:33:01.000Z</time>
      </trkpt>
      <trkpt lat="43.06645" lon="-1.22057">
        <ele>739.802028</ele>
        <time>2026-05-22T11:33:02.000Z</time>
      </trkpt>
      <trkpt lat="43.06644" lon="-1.22055">
        <ele>739.915508</ele>
        <time>2026-05-22T11:33:03.000Z</time>
      </trkpt>
      <trkpt lat="43.06644" lon="-1.22054">
        <ele>740.00821</ele>
        <time>2026-05-22T11:33:04.000Z</time>
      </trkpt>
      <trkpt lat="43.06643" lon="-1.22053">
        <ele>740.127482</ele>
        <time>2026-05-22T11:33:05.000Z</time>
      </trkpt>
      <trkpt lat="43.06642" lon="-1.22051">
        <ele>740.257588</ele>
        <time>2026-05-22T11:33:06.000Z</time>
      </trkpt>
      <trkpt lat="43.06641" lon="-1.2205">
        <ele>740.391076</ele>
        <time>2026-05-22T11:33:07.000Z</time>
      </trkpt>
      <trkpt lat="43.0664" lon="-1.22048">
        <ele>740.538509</ele>
        <time>2026-05-22T11:33:08.000Z</time>
      </trkpt>
      <trkpt lat="43.06639" lon="-1.22047">
        <ele>740.687779</ele>
        <time>2026-05-22T11:33:09.000Z</time>
      </trkpt>
      <trkpt lat="43.06638" lon="-1.22045">
        <ele>740.828661</ele>
        <time>2026-05-22T11:33:10.000Z</time>
      </trkpt>
      <trkpt lat="43.06637" lon="-1.22043">
        <ele>740.993805</ele>
        <time>2026-05-22T11:33:11.000Z</time>
      </trkpt>
      <trkpt lat="43.06635" lon="-1.22042">
        <ele>741.141239</ele>
        <time>2026-05-22T11:33:12.000Z</time>
      </trkpt>
      <trkpt lat="43.06634" lon="-1.22041">
        <ele>741.262531</ele>
        <time>2026-05-22T11:33:13.000Z</time>
      </trkpt>
      <trkpt lat="43.06633" lon="-1.2204">
        <ele>741.379879</ele>
        <time>2026-05-22T11:33:14.000Z</time>
      </trkpt>
      <trkpt lat="43.06633" lon="-1.22039">
        <ele>741.471999</ele>
        <time>2026-05-22T11:33:15.000Z</time>
      </trkpt>
      <trkpt lat="43.06632" lon="-1.22038">
        <ele>741.585479</ele>
        <time>2026-05-22T11:33:16.000Z</time>
      </trkpt>
      <trkpt lat="43.06632" lon="-1.22036">
        <ele>741.68984</ele>
        <time>2026-05-22T11:33:17.000Z</time>
      </trkpt>
      <trkpt lat="43.06631" lon="-1.22034">
        <ele>741.816534</ele>
        <time>2026-05-22T11:33:18.000Z</time>
      </trkpt>
      <trkpt lat="43.06631" lon="-1.22033">
        <ele>741.947484</ele>
        <time>2026-05-22T11:33:19.000Z</time>
      </trkpt>
      <trkpt lat="43.0663" lon="-1.22031">
        <ele>742.07211</ele>
        <time>2026-05-22T11:33:20.000Z</time>
      </trkpt>
      <trkpt lat="43.06629" lon="-1.2203">
        <ele>742.185953</ele>
        <time>2026-05-22T11:33:21.000Z</time>
      </trkpt>
      <trkpt lat="43.06628" lon="-1.22028">
        <ele>742.310579</ele>
        <time>2026-05-22T11:33:22.000Z</time>
      </trkpt>
      <trkpt lat="43.06627" lon="-1.22027">
        <ele>742.410092</ele>
        <time>2026-05-22T11:33:23.000Z</time>
      </trkpt>
      <trkpt lat="43.06627" lon="-1.22026">
        <ele>742.550975</ele>
        <time>2026-05-22T11:33:24.000Z</time>
      </trkpt>
      <trkpt lat="43.06626" lon="-1.22024">
        <ele>742.68371</ele>
        <time>2026-05-22T11:33:25.000Z</time>
      </trkpt>
      <trkpt lat="43.06625" lon="-1.22022">
        <ele>742.806607</ele>
        <time>2026-05-22T11:33:26.000Z</time>
      </trkpt>
      <trkpt lat="43.06625" lon="-1.2202">
        <ele>742.922081</ele>
        <time>2026-05-22T11:33:27.000Z</time>
      </trkpt>
      <trkpt lat="43.06625" lon="-1.22019">
        <ele>743.048692</ele>
        <time>2026-05-22T11:33:28.000Z</time>
      </trkpt>
      <trkpt lat="43.06624" lon="-1.22017">
        <ele>743.168799</ele>
        <time>2026-05-22T11:33:29.000Z</time>
      </trkpt>
      <trkpt lat="43.06623" lon="-1.22016">
        <ele>743.304218</ele>
        <time>2026-05-22T11:33:30.000Z</time>
      </trkpt>
      <trkpt lat="43.06622" lon="-1.22014">
        <ele>743.439636</ele>
        <time>2026-05-22T11:33:31.000Z</time>
      </trkpt>
      <trkpt lat="43.06621" lon="-1.22013">
        <ele>743.542757</ele>
        <time>2026-05-22T11:33:32.000Z</time>
      </trkpt>
      <trkpt lat="43.06621" lon="-1.22012">
        <ele>743.635634</ele>
        <time>2026-05-22T11:33:33.000Z</time>
      </trkpt>
      <trkpt lat="43.0662" lon="-1.22011">
        <ele>743.735082</ele>
        <time>2026-05-22T11:33:34.000Z</time>
      </trkpt>
      <trkpt lat="43.06618" lon="-1.2201">
        <ele>743.882856</ele>
        <time>2026-05-22T11:33:35.000Z</time>
      </trkpt>
      <trkpt lat="43.06617" lon="-1.22009">
        <ele>743.989263</ele>
        <time>2026-05-22T11:33:36.000Z</time>
      </trkpt>
      <trkpt lat="43.06617" lon="-1.22008">
        <ele>744.08214</ele>
        <time>2026-05-22T11:33:37.000Z</time>
      </trkpt>
      <trkpt lat="43.06616" lon="-1.22007">
        <ele>744.202247</ele>
        <time>2026-05-22T11:33:38.000Z</time>
      </trkpt>
      <trkpt lat="43.06615" lon="-1.22006">
        <ele>744.324322</ele>
        <time>2026-05-22T11:33:39.000Z</time>
      </trkpt>
      <trkpt lat="43.06614" lon="-1.22004">
        <ele>744.439653</ele>
        <time>2026-05-22T11:33:40.000Z</time>
      </trkpt>
      <trkpt lat="43.06613" lon="-1.22003">
        <ele>744.55976</ele>
        <time>2026-05-22T11:33:41.000Z</time>
      </trkpt>
      <trkpt lat="43.06612" lon="-1.22001">
        <ele>744.731552</ele>
        <time>2026-05-22T11:33:42.000Z</time>
      </trkpt>
      <trkpt lat="43.06611" lon="-1.22">
        <ele>744.888927</ele>
        <time>2026-05-22T11:33:43.000Z</time>
      </trkpt>
      <trkpt lat="43.0661" lon="-1.21998">
        <ele>745.019793</ele>
        <time>2026-05-22T11:33:44.000Z</time>
      </trkpt>
      <trkpt lat="43.06609" lon="-1.21996">
        <ele>745.151097</ele>
        <time>2026-05-22T11:33:45.000Z</time>
      </trkpt>
      <trkpt lat="43.06608" lon="-1.21995">
        <ele>745.287278</ele>
        <time>2026-05-22T11:33:46.000Z</time>
      </trkpt>
      <trkpt lat="43.06606" lon="-1.21994">
        <ele>745.44257</ele>
        <time>2026-05-22T11:33:47.000Z</time>
      </trkpt>
      <trkpt lat="43.06605" lon="-1.21992">
        <ele>745.594409</ele>
        <time>2026-05-22T11:33:48.000Z</time>
      </trkpt>
      <trkpt lat="43.06604" lon="-1.21991">
        <ele>745.746038</ele>
        <time>2026-05-22T11:33:49.000Z</time>
      </trkpt>
      <trkpt lat="43.06603" lon="-1.21989">
        <ele>745.871106</ele>
        <time>2026-05-22T11:33:50.000Z</time>
      </trkpt>
      <trkpt lat="43.06603" lon="-1.21987">
        <ele>746.014603</ele>
        <time>2026-05-22T11:33:51.000Z</time>
      </trkpt>
      <trkpt lat="43.06602" lon="-1.21986">
        <ele>746.160878</ele>
        <time>2026-05-22T11:33:52.000Z</time>
      </trkpt>
      <trkpt lat="43.06601" lon="-1.21985">
        <ele>746.253755</ele>
        <time>2026-05-22T11:33:53.000Z</time>
      </trkpt>
      <trkpt lat="43.066" lon="-1.21983">
        <ele>746.369086</ele>
        <time>2026-05-22T11:33:54.000Z</time>
      </trkpt>
      <trkpt lat="43.06599" lon="-1.21982">
        <ele>746.494146</ele>
        <time>2026-05-22T11:33:55.000Z</time>
      </trkpt>
      <trkpt lat="43.06598" lon="-1.21981">
        <ele>746.642325</ele>
        <time>2026-05-22T11:33:56.000Z</time>
      </trkpt>
      <trkpt lat="43.06597" lon="-1.2198">
        <ele>746.714804</ele>
        <time>2026-05-22T11:33:57.000Z</time>
      </trkpt>
      <trkpt lat="43.06596" lon="-1.2198">
        <ele>746.807573</ele>
        <time>2026-05-22T11:33:58.000Z</time>
      </trkpt>
      <trkpt lat="43.06595" lon="-1.2198">
        <ele>746.894433</ele>
        <time>2026-05-22T11:33:59.000Z</time>
      </trkpt>
      <trkpt lat="43.06595" lon="-1.21978">
        <ele>747.008203</ele>
        <time>2026-05-22T11:34:00.000Z</time>
      </trkpt>
      <trkpt lat="43.06594" lon="-1.21976">
        <ele>747.150906</ele>
        <time>2026-05-22T11:34:01.000Z</time>
      </trkpt>
      <trkpt lat="43.06593" lon="-1.21975">
        <ele>747.2922</ele>
        <time>2026-05-22T11:34:02.000Z</time>
      </trkpt>
      <trkpt lat="43.06593" lon="-1.21973">
        <ele>747.408904</ele>
        <time>2026-05-22T11:34:03.000Z</time>
      </trkpt>
      <trkpt lat="43.06593" lon="-1.21972">
        <ele>747.4899</ele>
        <time>2026-05-22T11:34:04.000Z</time>
      </trkpt>
      <trkpt lat="43.06592" lon="-1.2197">
        <ele>747.596985</ele>
        <time>2026-05-22T11:34:05.000Z</time>
      </trkpt>
      <trkpt lat="43.06591" lon="-1.21969">
        <ele>747.71618</ele>
        <time>2026-05-22T11:34:06.000Z</time>
      </trkpt>
      <trkpt lat="43.06591" lon="-1.21967">
        <ele>747.852928</ele>
        <time>2026-05-22T11:34:07.000Z</time>
      </trkpt>
      <trkpt lat="43.0659" lon="-1.21966">
        <ele>747.988347</ele>
        <time>2026-05-22T11:34:08.000Z</time>
      </trkpt>
      <trkpt lat="43.06589" lon="-1.21964">
        <ele>748.107542</ele>
        <time>2026-05-22T11:34:09.000Z</time>
      </trkpt>
      <trkpt lat="43.06588" lon="-1.21963">
        <ele>748.24396</ele>
        <time>2026-05-22T11:34:10.000Z</time>
      </trkpt>
      <trkpt lat="43.06588" lon="-1.21961">
        <ele>748.352819</ele>
        <time>2026-05-22T11:34:11.000Z</time>
      </trkpt>
      <trkpt lat="43.06587" lon="-1.2196">
        <ele>748.466589</ele>
        <time>2026-05-22T11:34:12.000Z</time>
      </trkpt>
      <trkpt lat="43.06586" lon="-1.21959">
        <ele>748.610521</ele>
        <time>2026-05-22T11:34:13.000Z</time>
      </trkpt>
      <trkpt lat="43.06585" lon="-1.21957">
        <ele>748.719379</ele>
        <time>2026-05-22T11:34:14.000Z</time>
      </trkpt>
      <trkpt lat="43.06585" lon="-1.21955">
        <ele>748.839152</ele>
        <time>2026-05-22T11:34:15.000Z</time>
      </trkpt>
      <trkpt lat="43.06584" lon="-1.21954">
        <ele>748.96422</ele>
        <time>2026-05-22T11:34:16.000Z</time>
      </trkpt>
      <trkpt lat="43.06584" lon="-1.21952">
        <ele>749.096903</ele>
        <time>2026-05-22T11:34:17.000Z</time>
      </trkpt>
      <trkpt lat="43.06583" lon="-1.2195">
        <ele>749.239606</ele>
        <time>2026-05-22T11:34:18.000Z</time>
      </trkpt>
      <trkpt lat="43.06582" lon="-1.21948">
        <ele>749.380398</ele>
        <time>2026-05-22T11:34:19.000Z</time>
      </trkpt>
      <trkpt lat="43.06581" lon="-1.21946">
        <ele>749.537924</ele>
        <time>2026-05-22T11:34:20.000Z</time>
      </trkpt>
      <trkpt lat="43.06581" lon="-1.21945">
        <ele>749.673356</ele>
        <time>2026-05-22T11:34:21.000Z</time>
      </trkpt>
      <trkpt lat="43.0658" lon="-1.21943">
        <ele>749.793129</ele>
        <time>2026-05-22T11:34:22.000Z</time>
      </trkpt>
      <trkpt lat="43.06579" lon="-1.21941">
        <ele>749.923299</ele>
        <time>2026-05-22T11:34:23.000Z</time>
      </trkpt>
      <trkpt lat="43.06579" lon="-1.21939">
        <ele>750.078096</ele>
        <time>2026-05-22T11:34:24.000Z</time>
      </trkpt>
      <trkpt lat="43.06579" lon="-1.21937">
        <ele>750.218926</ele>
        <time>2026-05-22T11:34:25.000Z</time>
      </trkpt>
      <trkpt lat="43.06578" lon="-1.21935">
        <ele>750.373723</ele>
        <time>2026-05-22T11:34:26.000Z</time>
      </trkpt>
      <trkpt lat="43.06577" lon="-1.21933">
        <ele>750.502866</ele>
        <time>2026-05-22T11:34:27.000Z</time>
      </trkpt>
      <trkpt lat="43.06577" lon="-1.21932">
        <ele>750.62223</ele>
        <time>2026-05-22T11:34:28.000Z</time>
      </trkpt>
      <trkpt lat="43.06576" lon="-1.2193">
        <ele>750.791323</ele>
        <time>2026-05-22T11:34:29.000Z</time>
      </trkpt>
      <trkpt lat="43.06575" lon="-1.21928">
        <ele>750.94318</ele>
        <time>2026-05-22T11:34:30.000Z</time>
      </trkpt>
      <trkpt lat="43.06574" lon="-1.21925">
        <ele>751.116942</ele>
        <time>2026-05-22T11:34:31.000Z</time>
      </trkpt>
      <trkpt lat="43.06573" lon="-1.21924">
        <ele>751.259646</ele>
        <time>2026-05-22T11:34:32.000Z</time>
      </trkpt>
      <trkpt lat="43.06573" lon="-1.21922">
        <ele>751.392329</ele>
        <time>2026-05-22T11:34:33.000Z</time>
      </trkpt>
      <trkpt lat="43.06572" lon="-1.2192">
        <ele>751.490853</ele>
        <time>2026-05-22T11:34:34.000Z</time>
      </trkpt>
      <trkpt lat="43.06572" lon="-1.21919">
        <ele>751.619996</ele>
        <time>2026-05-22T11:34:35.000Z</time>
      </trkpt>
      <trkpt lat="43.06571" lon="-1.21917">
        <ele>751.761291</ele>
        <time>2026-05-22T11:34:36.000Z</time>
      </trkpt>
      <trkpt lat="43.0657" lon="-1.21915">
        <ele>751.891314</ele>
        <time>2026-05-22T11:34:37.000Z</time>
      </trkpt>
      <trkpt lat="43.06569" lon="-1.21914">
        <ele>752.016382</ele>
        <time>2026-05-22T11:34:38.000Z</time>
      </trkpt>
      <trkpt lat="43.06568" lon="-1.21912">
        <ele>752.184266</ele>
        <time>2026-05-22T11:34:39.000Z</time>
      </trkpt>
      <trkpt lat="43.06567" lon="-1.2191">
        <ele>752.346795</ele>
        <time>2026-05-22T11:34:40.000Z</time>
      </trkpt>
      <trkpt lat="43.06567" lon="-1.21908">
        <ele>752.492333</ele>
        <time>2026-05-22T11:34:41.000Z</time>
      </trkpt>
      <trkpt lat="43.06566" lon="-1.21905">
        <ele>752.657418</ele>
        <time>2026-05-22T11:34:42.000Z</time>
      </trkpt>
      <trkpt lat="43.06566" lon="-1.21903">
        <ele>752.816245</ele>
        <time>2026-05-22T11:34:43.000Z</time>
      </trkpt>
      <trkpt lat="43.06565" lon="-1.21901">
        <ele>752.968538</ele>
        <time>2026-05-22T11:34:44.000Z</time>
      </trkpt>
      <trkpt lat="43.06564" lon="-1.219">
        <ele>753.104148</ele>
        <time>2026-05-22T11:34:45.000Z</time>
      </trkpt>
      <trkpt lat="43.06563" lon="-1.21898">
        <ele>753.25287</ele>
        <time>2026-05-22T11:34:46.000Z</time>
      </trkpt>
      <trkpt lat="43.06562" lon="-1.21895">
        <ele>753.423702</ele>
        <time>2026-05-22T11:34:47.000Z</time>
      </trkpt>
      <trkpt lat="43.06561" lon="-1.21893">
        <ele>753.608989</ele>
        <time>2026-05-22T11:34:48.000Z</time>
      </trkpt>
      <trkpt lat="43.0656" lon="-1.21891">
        <ele>753.783561</ele>
        <time>2026-05-22T11:34:49.000Z</time>
      </trkpt>
      <trkpt lat="43.06559" lon="-1.21889">
        <ele>753.951446</ele>
        <time>2026-05-22T11:34:50.000Z</time>
      </trkpt>
      <trkpt lat="43.06558" lon="-1.21887">
        <ele>754.130972</ele>
        <time>2026-05-22T11:34:51.000Z</time>
      </trkpt>
      <trkpt lat="43.06557" lon="-1.21885">
        <ele>754.285769</ele>
        <time>2026-05-22T11:34:52.000Z</time>
      </trkpt>
      <trkpt lat="43.06557" lon="-1.21883">
        <ele>754.401244</ele>
        <time>2026-05-22T11:34:53.000Z</time>
      </trkpt>
      <trkpt lat="43.06556" lon="-1.21882">
        <ele>754.516719</ele>
        <time>2026-05-22T11:34:54.000Z</time>
      </trkpt>
      <trkpt lat="43.06556" lon="-1.2188">
        <ele>754.611317</ele>
        <time>2026-05-22T11:34:55.000Z</time>
      </trkpt>
      <trkpt lat="43.06556" lon="-1.21879">
        <ele>754.724725</ele>
        <time>2026-05-22T11:34:56.000Z</time>
      </trkpt>
      <trkpt lat="43.06555" lon="-1.21877">
        <ele>754.83181</ele>
        <time>2026-05-22T11:34:57.000Z</time>
      </trkpt>
      <trkpt lat="43.06555" lon="-1.21876">
        <ele>754.930335</ele>
        <time>2026-05-22T11:34:58.000Z</time>
      </trkpt>
      <trkpt lat="43.06554" lon="-1.21874">
        <ele>755.04762</ele>
        <time>2026-05-22T11:34:59.000Z</time>
      </trkpt>
      <trkpt lat="43.06554" lon="-1.21872">
        <ele>755.178487</ele>
        <time>2026-05-22T11:35:00.000Z</time>
      </trkpt>
      <trkpt lat="43.06553" lon="-1.2187">
        <ele>755.31541</ele>
        <time>2026-05-22T11:35:01.000Z</time>
      </trkpt>
      <trkpt lat="43.06553" lon="-1.21869">
        <ele>755.43751</ele>
        <time>2026-05-22T11:35:02.000Z</time>
      </trkpt>
      <trkpt lat="43.06553" lon="-1.21867">
        <ele>755.572943</ele>
        <time>2026-05-22T11:35:03.000Z</time>
      </trkpt>
      <trkpt lat="43.06552" lon="-1.21865">
        <ele>755.712003</ele>
        <time>2026-05-22T11:35:04.000Z</time>
      </trkpt>
      <trkpt lat="43.06552" lon="-1.21863">
        <ele>755.860725</ele>
        <time>2026-05-22T11:35:05.000Z</time>
      </trkpt>
      <trkpt lat="43.06551" lon="-1.21861">
        <ele>755.997648</ele>
        <time>2026-05-22T11:35:06.000Z</time>
      </trkpt>
      <trkpt lat="43.06551" lon="-1.21859">
        <ele>756.117421</ele>
        <time>2026-05-22T11:35:07.000Z</time>
      </trkpt>
      <trkpt lat="43.0655" lon="-1.21857">
        <ele>756.271933</ele>
        <time>2026-05-22T11:35:08.000Z</time>
      </trkpt>
      <trkpt lat="43.0655" lon="-1.21855">
        <ele>756.413228</ele>
        <time>2026-05-22T11:35:09.000Z</time>
      </trkpt>
      <trkpt lat="43.06549" lon="-1.21853">
        <ele>756.55402</ele>
        <time>2026-05-22T11:35:10.000Z</time>
      </trkpt>
      <trkpt lat="43.06548" lon="-1.21852">
        <ele>756.67463</ele>
        <time>2026-05-22T11:35:11.000Z</time>
      </trkpt>
      <trkpt lat="43.06547" lon="-1.2185">
        <ele>756.811379</ele>
        <time>2026-05-22T11:35:12.000Z</time>
      </trkpt>
      <trkpt lat="43.06547" lon="-1.21848">
        <ele>756.968906</ele>
        <time>2026-05-22T11:35:13.000Z</time>
      </trkpt>
      <trkpt lat="43.06545" lon="-1.21846">
        <ele>757.116246</ele>
        <time>2026-05-22T11:35:14.000Z</time>
      </trkpt>
      <trkpt lat="43.06545" lon="-1.21845">
        <ele>757.246269</ele>
        <time>2026-05-22T11:35:15.000Z</time>
      </trkpt>
      <trkpt lat="43.06544" lon="-1.21843">
        <ele>757.37644</ele>
        <time>2026-05-22T11:35:16.000Z</time>
      </trkpt>
      <trkpt lat="43.06543" lon="-1.21842">
        <ele>757.517647</ele>
        <time>2026-05-22T11:35:17.000Z</time>
      </trkpt>
      <trkpt lat="43.06542" lon="-1.2184">
        <ele>757.65308</ele>
        <time>2026-05-22T11:35:18.000Z</time>
      </trkpt>
      <trkpt lat="43.06541" lon="-1.21838">
        <ele>757.767068</ele>
        <time>2026-05-22T11:35:19.000Z</time>
      </trkpt>
      <trkpt lat="43.06541" lon="-1.21838">
        <ele>757.862124</ele>
        <time>2026-05-22T11:35:20.000Z</time>
      </trkpt>
      <trkpt lat="43.0654" lon="-1.21836">
        <ele>757.965246</ele>
        <time>2026-05-22T11:35:21.000Z</time>
      </trkpt>
      <trkpt lat="43.06539" lon="-1.21835">
        <ele>758.089792</ele>
        <time>2026-05-22T11:35:22.000Z</time>
      </trkpt>
      <trkpt lat="43.06538" lon="-1.21833">
        <ele>758.234529</ele>
        <time>2026-05-22T11:35:23.000Z</time>
      </trkpt>
      <trkpt lat="43.06537" lon="-1.21832">
        <ele>758.355744</ele>
        <time>2026-05-22T11:35:24.000Z</time>
      </trkpt>
      <trkpt lat="43.06536" lon="-1.21831">
        <ele>758.442524</ele>
        <time>2026-05-22T11:35:25.000Z</time>
      </trkpt>
      <trkpt lat="43.06536" lon="-1.2183">
        <ele>758.551374</ele>
        <time>2026-05-22T11:35:26.000Z</time>
      </trkpt>
      <trkpt lat="43.06535" lon="-1.21829">
        <ele>758.638255</ele>
        <time>2026-05-22T11:35:27.000Z</time>
      </trkpt>
      <trkpt lat="43.06535" lon="-1.21828">
        <ele>758.741236</ele>
        <time>2026-05-22T11:35:28.000Z</time>
      </trkpt>
      <trkpt lat="43.06533" lon="-1.21826">
        <ele>758.898612</ele>
        <time>2026-05-22T11:35:29.000Z</time>
      </trkpt>
      <trkpt lat="43.06532" lon="-1.21824">
        <ele>759.043349</ele>
        <time>2026-05-22T11:35:30.000Z</time>
      </trkpt>
      <trkpt lat="43.06531" lon="-1.21823">
        <ele>759.158123</ele>
        <time>2026-05-22T11:35:31.000Z</time>
      </trkpt>
      <trkpt lat="43.0653" lon="-1.21822">
        <ele>759.311794</ele>
        <time>2026-05-22T11:35:32.000Z</time>
      </trkpt>
      <trkpt lat="43.06529" lon="-1.21821">
        <ele>759.456633</ele>
        <time>2026-05-22T11:35:33.000Z</time>
      </trkpt>
      <trkpt lat="43.06528" lon="-1.21819">
        <ele>759.594682</ele>
        <time>2026-05-22T11:35:34.000Z</time>
      </trkpt>
      <trkpt lat="43.06528" lon="-1.21817">
        <ele>759.742064</ele>
        <time>2026-05-22T11:35:35.000Z</time>
      </trkpt>
      <trkpt lat="43.06527" lon="-1.21815">
        <ele>759.909154</ele>
        <time>2026-05-22T11:35:36.000Z</time>
      </trkpt>
      <trkpt lat="43.06526" lon="-1.21814">
        <ele>760.053741</ele>
        <time>2026-05-22T11:35:37.000Z</time>
      </trkpt>
      <trkpt lat="43.06525" lon="-1.21812">
        <ele>760.197723</ele>
        <time>2026-05-22T11:35:38.000Z</time>
      </trkpt>
      <trkpt lat="43.06524" lon="-1.21811">
        <ele>760.33936</ele>
        <time>2026-05-22T11:35:39.000Z</time>
      </trkpt>
      <trkpt lat="43.06522" lon="-1.2181">
        <ele>760.496256</ele>
        <time>2026-05-22T11:35:40.000Z</time>
      </trkpt>
      <trkpt lat="43.06522" lon="-1.21809">
        <ele>760.583744</ele>
        <time>2026-05-22T11:35:41.000Z</time>
      </trkpt>
      <trkpt lat="43.06521" lon="-1.21807">
        <ele>760.701139</ele>
        <time>2026-05-22T11:35:42.000Z</time>
      </trkpt>
      <trkpt lat="43.06521" lon="-1.21806">
        <ele>760.821933</ele>
        <time>2026-05-22T11:35:43.000Z</time>
      </trkpt>
      <trkpt lat="43.06519" lon="-1.21805">
        <ele>760.99495</ele>
        <time>2026-05-22T11:35:44.000Z</time>
      </trkpt>
      <trkpt lat="43.06518" lon="-1.21804">
        <ele>761.133864</ele>
        <time>2026-05-22T11:35:45.000Z</time>
      </trkpt>
      <trkpt lat="43.06517" lon="-1.21803">
        <ele>761.244379</ele>
        <time>2026-05-22T11:35:46.000Z</time>
      </trkpt>
      <trkpt lat="43.06516" lon="-1.21802">
        <ele>761.355335</ele>
        <time>2026-05-22T11:35:47.000Z</time>
      </trkpt>
      <trkpt lat="43.06515" lon="-1.218">
        <ele>761.516347</ele>
        <time>2026-05-22T11:35:48.000Z</time>
      </trkpt>
      <trkpt lat="43.06514" lon="-1.21798">
        <ele>761.672491</ele>
        <time>2026-05-22T11:35:49.000Z</time>
      </trkpt>
      <trkpt lat="43.06514" lon="-1.21796">
        <ele>761.830394</ele>
        <time>2026-05-22T11:35:50.000Z</time>
      </trkpt>
      <trkpt lat="43.06513" lon="-1.21794">
        <ele>761.991626</ele>
        <time>2026-05-22T11:35:51.000Z</time>
      </trkpt>
      <trkpt lat="43.06512" lon="-1.21793">
        <ele>762.135405</ele>
        <time>2026-05-22T11:35:52.000Z</time>
      </trkpt>
      <trkpt lat="43.06511" lon="-1.21791">
        <ele>762.262138</ele>
        <time>2026-05-22T11:35:53.000Z</time>
      </trkpt>
      <trkpt lat="43.0651" lon="-1.2179">
        <ele>762.427847</ele>
        <time>2026-05-22T11:35:54.000Z</time>
      </trkpt>
      <trkpt lat="43.06509" lon="-1.21788">
        <ele>762.592726</ele>
        <time>2026-05-22T11:35:55.000Z</time>
      </trkpt>
      <trkpt lat="43.06508" lon="-1.21787">
        <ele>762.717758</ele>
        <time>2026-05-22T11:35:56.000Z</time>
      </trkpt>
      <trkpt lat="43.06507" lon="-1.21786">
        <ele>762.821627</ele>
        <time>2026-05-22T11:35:57.000Z</time>
      </trkpt>
      <trkpt lat="43.06506" lon="-1.21785">
        <ele>762.942651</ele>
        <time>2026-05-22T11:35:58.000Z</time>
      </trkpt>
      <trkpt lat="43.06506" lon="-1.21783">
        <ele>763.056348</ele>
        <time>2026-05-22T11:35:59.000Z</time>
      </trkpt>
      <trkpt lat="43.06505" lon="-1.21782">
        <ele>763.203729</ele>
        <time>2026-05-22T11:36:00.000Z</time>
      </trkpt>
      <trkpt lat="43.06505" lon="-1.2178">
        <ele>763.351374</ele>
        <time>2026-05-22T11:36:01.000Z</time>
      </trkpt>
      <trkpt lat="43.06504" lon="-1.21778">
        <ele>763.4759</ele>
        <time>2026-05-22T11:36:02.000Z</time>
      </trkpt>
      <trkpt lat="43.06504" lon="-1.21776">
        <ele>763.597335</ele>
        <time>2026-05-22T11:36:03.000Z</time>
      </trkpt>
      <trkpt lat="43.06504" lon="-1.21775">
        <ele>763.697494</ele>
        <time>2026-05-22T11:36:04.000Z</time>
      </trkpt>
      <trkpt lat="43.06504" lon="-1.21773">
        <ele>763.802101</ele>
        <time>2026-05-22T11:36:05.000Z</time>
      </trkpt>
      <trkpt lat="43.06503" lon="-1.21772">
        <ele>763.924552</ele>
        <time>2026-05-22T11:36:06.000Z</time>
      </trkpt>
      <trkpt lat="43.06502" lon="-1.21771">
        <ele>764.057342</ele>
        <time>2026-05-22T11:36:07.000Z</time>
      </trkpt>
      <trkpt lat="43.06501" lon="-1.21769">
        <ele>764.202533</ele>
        <time>2026-05-22T11:36:08.000Z</time>
      </trkpt>
      <trkpt lat="43.065" lon="-1.21767">
        <ele>764.369784</ele>
        <time>2026-05-22T11:36:09.000Z</time>
      </trkpt>
      <trkpt lat="43.065" lon="-1.21765">
        <ele>764.496338</ele>
        <time>2026-05-22T11:36:10.000Z</time>
      </trkpt>
      <trkpt lat="43.06499" lon="-1.21765">
        <ele>764.600925</ele>
        <time>2026-05-22T11:36:11.000Z</time>
      </trkpt>
      <trkpt lat="43.06498" lon="-1.21764">
        <ele>764.719151</ele>
        <time>2026-05-22T11:36:12.000Z</time>
      </trkpt>
      <trkpt lat="43.06496" lon="-1.21763">
        <ele>764.873605</ele>
        <time>2026-05-22T11:36:13.000Z</time>
      </trkpt>
      <trkpt lat="43.06495" lon="-1.21762">
        <ele>765.018192</ele>
        <time>2026-05-22T11:36:14.000Z</time>
      </trkpt>
      <trkpt lat="43.06494" lon="-1.21761">
        <ele>765.133862</ele>
        <time>2026-05-22T11:36:15.000Z</time>
      </trkpt>
      <trkpt lat="43.06494" lon="-1.21759">
        <ele>765.266652</ele>
        <time>2026-05-22T11:36:16.000Z</time>
      </trkpt>
      <trkpt lat="43.06493" lon="-1.21757">
        <ele>765.417164</ele>
        <time>2026-05-22T11:36:17.000Z</time>
      </trkpt>
      <trkpt lat="43.06493" lon="-1.21755">
        <ele>765.578588</ele>
        <time>2026-05-22T11:36:18.000Z</time>
      </trkpt>
      <trkpt lat="43.06492" lon="-1.21753">
        <ele>765.702496</ele>
        <time>2026-05-22T11:36:19.000Z</time>
      </trkpt>
      <trkpt lat="43.06492" lon="-1.21751">
        <ele>765.841443</ele>
        <time>2026-05-22T11:36:20.000Z</time>
      </trkpt>
      <trkpt lat="43.06491" lon="-1.2175">
        <ele>765.996846</ele>
        <time>2026-05-22T11:36:21.000Z</time>
      </trkpt>
      <trkpt lat="43.0649" lon="-1.21748">
        <ele>766.15475</ele>
        <time>2026-05-22T11:36:22.000Z</time>
      </trkpt>
      <trkpt lat="43.06489" lon="-1.21746">
        <ele>766.315303</ele>
        <time>2026-05-22T11:36:23.000Z</time>
      </trkpt>
      <trkpt lat="43.06489" lon="-1.21744">
        <ele>766.402942</ele>
        <time>2026-05-22T11:36:24.000Z</time>
      </trkpt>
      <trkpt lat="43.06489" lon="-1.21744">
        <ele>766.47795</ele>
        <time>2026-05-22T11:36:25.000Z</time>
      </trkpt>
      <trkpt lat="43.06488" lon="-1.21743">
        <ele>766.564703</ele>
        <time>2026-05-22T11:36:26.000Z</time>
      </trkpt>
      <trkpt lat="43.06487" lon="-1.21742">
        <ele>766.682297</ele>
        <time>2026-05-22T11:36:27.000Z</time>
      </trkpt>
      <trkpt lat="43.06486" lon="-1.2174">
        <ele>766.808851</ele>
        <time>2026-05-22T11:36:28.000Z</time>
      </trkpt>
      <trkpt lat="43.06485" lon="-1.21739">
        <ele>766.953439</ele>
        <time>2026-05-22T11:36:29.000Z</time>
      </trkpt>
      <trkpt lat="43.06484" lon="-1.21737">
        <ele>767.103363</ele>
        <time>2026-05-22T11:36:30.000Z</time>
      </trkpt>
      <trkpt lat="43.06484" lon="-1.21736">
        <ele>767.224388</ele>
        <time>2026-05-22T11:36:31.000Z</time>
      </trkpt>
      <trkpt lat="43.06483" lon="-1.21734">
        <ele>767.335345</ele>
        <time>2026-05-22T11:36:32.000Z</time>
      </trkpt>
      <trkpt lat="43.06482" lon="-1.21733">
        <ele>767.433956</ele>
        <time>2026-05-22T11:36:33.000Z</time>
      </trkpt>
      <trkpt lat="43.06481" lon="-1.21733">
        <ele>767.561086</ele>
        <time>2026-05-22T11:36:34.000Z</time>
      </trkpt>
      <trkpt lat="43.0648" lon="-1.21731">
        <ele>767.711011</ele>
        <time>2026-05-22T11:36:35.000Z</time>
      </trkpt>
      <trkpt lat="43.06479" lon="-1.21729">
        <ele>767.849957</ele>
        <time>2026-05-22T11:36:36.000Z</time>
      </trkpt>
      <trkpt lat="43.06479" lon="-1.21727">
        <ele>767.9998</ele>
        <time>2026-05-22T11:36:37.000Z</time>
      </trkpt>
      <trkpt lat="43.06479" lon="-1.21725">
        <ele>768.144992</ele>
        <time>2026-05-22T11:36:38.000Z</time>
      </trkpt>
      <trkpt lat="43.06478" lon="-1.21724">
        <ele>768.312083</ele>
        <time>2026-05-22T11:36:39.000Z</time>
      </trkpt>
      <trkpt lat="43.06477" lon="-1.21722">
        <ele>768.467389</ele>
        <time>2026-05-22T11:36:40.000Z</time>
      </trkpt>
      <trkpt lat="43.06476" lon="-1.21721">
        <ele>768.60448</ele>
        <time>2026-05-22T11:36:41.000Z</time>
      </trkpt>
      <trkpt lat="43.06474" lon="-1.21719">
        <ele>768.74157</ele>
        <time>2026-05-22T11:36:42.000Z</time>
      </trkpt>
      <trkpt lat="43.06473" lon="-1.21718">
        <ele>768.890523</ele>
        <time>2026-05-22T11:36:43.000Z</time>
      </trkpt>
      <trkpt lat="43.06472" lon="-1.21717">
        <ele>769.040448</ele>
        <time>2026-05-22T11:36:44.000Z</time>
      </trkpt>
      <trkpt lat="43.06471" lon="-1.21715">
        <ele>769.225798</ele>
        <time>2026-05-22T11:36:45.000Z</time>
      </trkpt>
      <trkpt lat="43.0647" lon="-1.21713">
        <ele>769.394431</ele>
        <time>2026-05-22T11:36:46.000Z</time>
      </trkpt>
      <trkpt lat="43.06469" lon="-1.21711">
        <ele>769.533842</ele>
        <time>2026-05-22T11:36:47.000Z</time>
      </trkpt>
      <trkpt lat="43.06468" lon="-1.2171">
        <ele>769.663454</ele>
        <time>2026-05-22T11:36:48.000Z</time>
      </trkpt>
      <trkpt lat="43.06467" lon="-1.21709">
        <ele>769.832433</ele>
        <time>2026-05-22T11:36:49.000Z</time>
      </trkpt>
      <trkpt lat="43.06466" lon="-1.21708">
        <ele>769.948103</ele>
        <time>2026-05-22T11:36:50.000Z</time>
      </trkpt>
      <trkpt lat="43.06465" lon="-1.21706">
        <ele>770.068514</ele>
        <time>2026-05-22T11:36:51.000Z</time>
      </trkpt>
      <trkpt lat="43.06465" lon="-1.21704">
        <ele>770.199972</ele>
        <time>2026-05-22T11:36:52.000Z</time>
      </trkpt>
      <trkpt lat="43.06464" lon="-1.21702">
        <ele>770.338918</ele>
        <time>2026-05-22T11:36:53.000Z</time>
      </trkpt>
      <trkpt lat="43.06463" lon="-1.21701">
        <ele>770.488843</ele>
        <time>2026-05-22T11:36:54.000Z</time>
      </trkpt>
      <trkpt lat="43.06462" lon="-1.21699">
        <ele>770.633431</ele>
        <time>2026-05-22T11:36:55.000Z</time>
      </trkpt>
      <trkpt lat="43.06461" lon="-1.21698">
        <ele>770.767843</ele>
        <time>2026-05-22T11:36:56.000Z</time>
      </trkpt>
      <trkpt lat="43.0646" lon="-1.21697">
        <ele>770.921514</ele>
        <time>2026-05-22T11:36:57.000Z</time>
      </trkpt>
      <trkpt lat="43.06459" lon="-1.21695">
        <ele>771.049036</ele>
        <time>2026-05-22T11:36:58.000Z</time>
      </trkpt>
      <trkpt lat="43.06459" lon="-1.21694">
        <ele>771.17577</ele>
        <time>2026-05-22T11:36:59.000Z</time>
      </trkpt>
      <trkpt lat="43.06458" lon="-1.21692">
        <ele>771.319565</ele>
        <time>2026-05-22T11:37:00.000Z</time>
      </trkpt>
      <trkpt lat="43.06457" lon="-1.2169">
        <ele>771.483919</ele>
        <time>2026-05-22T11:37:01.000Z</time>
      </trkpt>
      <trkpt lat="43.06457" lon="-1.21687">
        <ele>771.664535</ele>
        <time>2026-05-22T11:37:02.000Z</time>
      </trkpt>
      <trkpt lat="43.06456" lon="-1.21685">
        <ele>771.815048</ele>
        <time>2026-05-22T11:37:03.000Z</time>
      </trkpt>
      <trkpt lat="43.06456" lon="-1.21684">
        <ele>771.936093</ele>
        <time>2026-05-22T11:37:04.000Z</time>
      </trkpt>
      <trkpt lat="43.06456" lon="-1.21683">
        <ele>772.039962</ele>
        <time>2026-05-22T11:37:05.000Z</time>
      </trkpt>
      <trkpt lat="43.06455" lon="-1.21681">
        <ele>772.160988</ele>
        <time>2026-05-22T11:37:06.000Z</time>
      </trkpt>
      <trkpt lat="43.06455" lon="-1.2168">
        <ele>772.264871</ele>
        <time>2026-05-22T11:37:07.000Z</time>
      </trkpt>
      <trkpt lat="43.06454" lon="-1.21678">
        <ele>772.391605</ele>
        <time>2026-05-22T11:37:08.000Z</time>
      </trkpt>
      <trkpt lat="43.06453" lon="-1.21676">
        <ele>772.55303</ele>
        <time>2026-05-22T11:37:09.000Z</time>
      </trkpt>
      <trkpt lat="43.06453" lon="-1.21674">
        <ele>772.693821</ele>
        <time>2026-05-22T11:37:10.000Z</time>
      </trkpt>
      <trkpt lat="43.06452" lon="-1.21673">
        <ele>772.804336</ele>
        <time>2026-05-22T11:37:11.000Z</time>
      </trkpt>
      <trkpt lat="43.06451" lon="-1.21672">
        <ele>772.925362</ele>
        <time>2026-05-22T11:37:12.000Z</time>
      </trkpt>
      <trkpt lat="43.06451" lon="-1.2167">
        <ele>773.063568</ele>
        <time>2026-05-22T11:37:13.000Z</time>
      </trkpt>
      <trkpt lat="43.0645" lon="-1.21669">
        <ele>773.207348</ele>
        <time>2026-05-22T11:37:14.000Z</time>
      </trkpt>
      <trkpt lat="43.06449" lon="-1.21667">
        <ele>773.345555</ele>
        <time>2026-05-22T11:37:15.000Z</time>
      </trkpt>
      <trkpt lat="43.06448" lon="-1.21666">
        <ele>773.46658</ele>
        <time>2026-05-22T11:37:16.000Z</time>
      </trkpt>
      <trkpt lat="43.06447" lon="-1.21664">
        <ele>773.623847</ele>
        <time>2026-05-22T11:37:17.000Z</time>
      </trkpt>
      <trkpt lat="43.06447" lon="-1.21662">
        <ele>773.758277</ele>
        <time>2026-05-22T11:37:18.000Z</time>
      </trkpt>
      <trkpt lat="43.06446" lon="-1.2166">
        <ele>773.903469</ele>
        <time>2026-05-22T11:37:19.000Z</time>
      </trkpt>
      <trkpt lat="43.06445" lon="-1.21659">
        <ele>774.041676</ele>
        <time>2026-05-22T11:37:20.000Z</time>
      </trkpt>
      <trkpt lat="43.06444" lon="-1.21658">
        <ele>774.176088</ele>
        <time>2026-05-22T11:37:21.000Z</time>
      </trkpt>
      <trkpt lat="43.06444" lon="-1.21656">
        <ele>774.291658</ele>
        <time>2026-05-22T11:37:22.000Z</time>
      </trkpt>
      <trkpt lat="43.06443" lon="-1.21655">
        <ele>774.395528</ele>
        <time>2026-05-22T11:37:23.000Z</time>
      </trkpt>
      <trkpt lat="43.06442" lon="-1.21654">
        <ele>774.552437</ele>
        <time>2026-05-22T11:37:24.000Z</time>
      </trkpt>
      <trkpt lat="43.06441" lon="-1.21653">
        <ele>774.677337</ele>
        <time>2026-05-22T11:37:25.000Z</time>
      </trkpt>
      <trkpt lat="43.0644" lon="-1.21652">
        <ele>774.769474</ele>
        <time>2026-05-22T11:37:26.000Z</time>
      </trkpt>
      <trkpt lat="43.06439" lon="-1.21651">
        <ele>774.873012</ele>
        <time>2026-05-22T11:37:27.000Z</time>
      </trkpt>
      <trkpt lat="43.06439" lon="-1.2165">
        <ele>774.982351</ele>
        <time>2026-05-22T11:37:28.000Z</time>
      </trkpt>
      <trkpt lat="43.06438" lon="-1.21648">
        <ele>775.092866</ele>
        <time>2026-05-22T11:37:29.000Z</time>
      </trkpt>
      <trkpt lat="43.06437" lon="-1.21648">
        <ele>775.199279</ele>
        <time>2026-05-22T11:37:30.000Z</time>
      </trkpt>
      <trkpt lat="43.06436" lon="-1.21647">
        <ele>775.316873</ele>
        <time>2026-05-22T11:37:31.000Z</time>
      </trkpt>
      <trkpt lat="43.06435" lon="-1.21645">
        <ele>775.454924</ele>
        <time>2026-05-22T11:37:32.000Z</time>
      </trkpt>
      <trkpt lat="43.06434" lon="-1.21644">
        <ele>775.579957</ele>
        <time>2026-05-22T11:37:33.000Z</time>
      </trkpt>
      <trkpt lat="43.06433" lon="-1.21643">
        <ele>775.695627</ele>
        <time>2026-05-22T11:37:34.000Z</time>
      </trkpt>
      <trkpt lat="43.06432" lon="-1.21642">
        <ele>775.82315</ele>
        <time>2026-05-22T11:37:35.000Z</time>
      </trkpt>
      <trkpt lat="43.06432" lon="-1.2164">
        <ele>775.95594</ele>
        <time>2026-05-22T11:37:36.000Z</time>
      </trkpt>
      <trkpt lat="43.06431" lon="-1.21638">
        <ele>776.083109</ele>
        <time>2026-05-22T11:37:37.000Z</time>
      </trkpt>
      <trkpt lat="43.06431" lon="-1.21637">
        <ele>776.203519</ele>
        <time>2026-05-22T11:37:38.000Z</time>
      </trkpt>
      <trkpt lat="43.0643" lon="-1.21635">
        <ele>776.348108</ele>
        <time>2026-05-22T11:37:39.000Z</time>
      </trkpt>
      <trkpt lat="43.06429" lon="-1.21634">
        <ele>776.468902</ele>
        <time>2026-05-22T11:37:40.000Z</time>
      </trkpt>
      <trkpt lat="43.06428" lon="-1.21632">
        <ele>776.601684</ele>
        <time>2026-05-22T11:37:41.000Z</time>
      </trkpt>
      <trkpt lat="43.06428" lon="-1.21631">
        <ele>776.716833</ele>
        <time>2026-05-22T11:37:42.000Z</time>
      </trkpt>
      <trkpt lat="43.06427" lon="-1.2163">
        <ele>776.815183</ele>
        <time>2026-05-22T11:37:43.000Z</time>
      </trkpt>
      <trkpt lat="43.06426" lon="-1.21628">
        <ele>776.941309</ele>
        <time>2026-05-22T11:37:44.000Z</time>
      </trkpt>
      <trkpt lat="43.06425" lon="-1.21627">
        <ele>777.05596</ele>
        <time>2026-05-22T11:37:45.000Z</time>
      </trkpt>
      <trkpt lat="43.06424" lon="-1.21626">
        <ele>777.179528</ele>
        <time>2026-05-22T11:37:46.000Z</time>
      </trkpt>
      <trkpt lat="43.06423" lon="-1.21625">
        <ele>777.305654</ele>
        <time>2026-05-22T11:37:47.000Z</time>
      </trkpt>
      <trkpt lat="43.06422" lon="-1.21624">
        <ele>777.405</ele>
        <time>2026-05-22T11:37:48.000Z</time>
      </trkpt>
      <trkpt lat="43.06421" lon="-1.21623">
        <ele>777.516701</ele>
        <time>2026-05-22T11:37:49.000Z</time>
      </trkpt>
      <trkpt lat="43.0642" lon="-1.21622">
        <ele>777.639818</ele>
        <time>2026-05-22T11:37:50.000Z</time>
      </trkpt>
      <trkpt lat="43.06419" lon="-1.21621">
        <ele>777.765934</ele>
        <time>2026-05-22T11:37:51.000Z</time>
      </trkpt>
      <trkpt lat="43.06418" lon="-1.2162">
        <ele>777.877634</ele>
        <time>2026-05-22T11:37:52.000Z</time>
      </trkpt>
      <trkpt lat="43.06417" lon="-1.21619">
        <ele>778.007695</ele>
        <time>2026-05-22T11:37:53.000Z</time>
      </trkpt>
      <trkpt lat="43.06416" lon="-1.21617">
        <ele>778.133822</ele>
        <time>2026-05-22T11:37:54.000Z</time>
      </trkpt>
      <trkpt lat="43.06416" lon="-1.21616">
        <ele>778.243696</ele>
        <time>2026-05-22T11:37:55.000Z</time>
      </trkpt>
      <trkpt lat="43.06415" lon="-1.21615">
        <ele>778.369305</ele>
        <time>2026-05-22T11:37:56.000Z</time>
      </trkpt>
      <trkpt lat="43.06414" lon="-1.21613">
        <ele>778.474702</ele>
        <time>2026-05-22T11:37:57.000Z</time>
      </trkpt>
      <trkpt lat="43.06414" lon="-1.21612">
        <ele>778.582702</ele>
        <time>2026-05-22T11:37:58.000Z</time>
      </trkpt>
      <trkpt lat="43.06413" lon="-1.2161">
        <ele>778.712948</ele>
        <time>2026-05-22T11:37:59.000Z</time>
      </trkpt>
      <trkpt lat="43.06412" lon="-1.21608">
        <ele>778.860564</ele>
        <time>2026-05-22T11:38:00.000Z</time>
      </trkpt>
      <trkpt lat="43.06412" lon="-1.21607">
        <ele>778.986173</ele>
        <time>2026-05-22T11:38:01.000Z</time>
      </trkpt>
      <trkpt lat="43.06411" lon="-1.21605">
        <ele>779.122762</ele>
        <time>2026-05-22T11:38:02.000Z</time>
      </trkpt>
      <trkpt lat="43.06411" lon="-1.21603">
        <ele>779.259351</ele>
        <time>2026-05-22T11:38:03.000Z</time>
      </trkpt>
      <trkpt lat="43.0641" lon="-1.21601">
        <ele>779.396119</ele>
        <time>2026-05-22T11:38:04.000Z</time>
      </trkpt>
      <trkpt lat="43.06409" lon="-1.216">
        <ele>779.522246</ele>
        <time>2026-05-22T11:38:05.000Z</time>
      </trkpt>
      <trkpt lat="43.06408" lon="-1.21598">
        <ele>779.65423</ele>
        <time>2026-05-22T11:38:06.000Z</time>
      </trkpt>
      <trkpt lat="43.06407" lon="-1.21596">
        <ele>779.812948</ele>
        <time>2026-05-22T11:38:07.000Z</time>
      </trkpt>
      <trkpt lat="43.06406" lon="-1.21595">
        <ele>779.96654</ele>
        <time>2026-05-22T11:38:08.000Z</time>
      </trkpt>
      <trkpt lat="43.06405" lon="-1.21593">
        <ele>780.11251</ele>
        <time>2026-05-22T11:38:09.000Z</time>
      </trkpt>
      <trkpt lat="43.06404" lon="-1.21592">
        <ele>780.262956</ele>
        <time>2026-05-22T11:38:10.000Z</time>
      </trkpt>
      <trkpt lat="43.06403" lon="-1.2159">
        <ele>780.41048</ele>
        <time>2026-05-22T11:38:11.000Z</time>
      </trkpt>
      <trkpt lat="43.06402" lon="-1.21588">
        <ele>780.563424</ele>
        <time>2026-05-22T11:38:12.000Z</time>
      </trkpt>
      <trkpt lat="43.06401" lon="-1.21587">
        <ele>780.700767</ele>
        <time>2026-05-22T11:38:13.000Z</time>
      </trkpt>
      <trkpt lat="43.064" lon="-1.21585">
        <ele>780.8319</ele>
        <time>2026-05-22T11:38:14.000Z</time>
      </trkpt>
      <trkpt lat="43.06399" lon="-1.21583">
        <ele>780.959593</ele>
        <time>2026-05-22T11:38:15.000Z</time>
      </trkpt>
      <trkpt lat="43.06399" lon="-1.21581">
        <ele>781.106375</ele>
        <time>2026-05-22T11:38:16.000Z</time>
      </trkpt>
      <trkpt lat="43.06398" lon="-1.21579">
        <ele>781.242964</ele>
        <time>2026-05-22T11:38:17.000Z</time>
      </trkpt>
      <trkpt lat="43.06398" lon="-1.21577">
        <ele>781.389195</ele>
        <time>2026-05-22T11:38:18.000Z</time>
      </trkpt>
      <trkpt lat="43.06397" lon="-1.21575">
        <ele>781.537516</ele>
        <time>2026-05-22T11:38:19.000Z</time>
      </trkpt>
      <trkpt lat="43.06396" lon="-1.21574">
        <ele>781.68504</ele>
        <time>2026-05-22T11:38:20.000Z</time>
      </trkpt>
      <trkpt lat="43.06395" lon="-1.21572">
        <ele>781.827541</ele>
        <time>2026-05-22T11:38:21.000Z</time>
      </trkpt>
      <trkpt lat="43.06395" lon="-1.2157">
        <ele>781.965458</ele>
        <time>2026-05-22T11:38:22.000Z</time>
      </trkpt>
      <trkpt lat="43.06394" lon="-1.21568">
        <ele>782.102225</ele>
        <time>2026-05-22T11:38:23.000Z</time>
      </trkpt>
      <trkpt lat="43.06393" lon="-1.21567">
        <ele>782.229902</ele>
        <time>2026-05-22T11:38:24.000Z</time>
      </trkpt>
      <trkpt lat="43.06392" lon="-1.21566">
        <ele>782.345565</ele>
        <time>2026-05-22T11:38:25.000Z</time>
      </trkpt>
      <trkpt lat="43.06391" lon="-1.21564">
        <ele>782.465778</ele>
        <time>2026-05-22T11:38:26.000Z</time>
      </trkpt>
      <trkpt lat="43.0639" lon="-1.21563">
        <ele>782.604833</ele>
        <time>2026-05-22T11:38:27.000Z</time>
      </trkpt>
      <trkpt lat="43.06389" lon="-1.21561">
        <ele>782.746827</ele>
        <time>2026-05-22T11:38:28.000Z</time>
      </trkpt>
      <trkpt lat="43.06388" lon="-1.21559">
        <ele>782.899771</ele>
        <time>2026-05-22T11:38:29.000Z</time>
      </trkpt>
      <trkpt lat="43.06387" lon="-1.21557">
        <ele>783.063687</ele>
        <time>2026-05-22T11:38:30.000Z</time>
      </trkpt>
      <trkpt lat="43.06386" lon="-1.21556">
        <ele>783.207433</ele>
        <time>2026-05-22T11:38:31.000Z</time>
      </trkpt>
      <trkpt lat="43.06386" lon="-1.21554">
        <ele>783.341249</ele>
        <time>2026-05-22T11:38:32.000Z</time>
      </trkpt>
      <trkpt lat="43.06385" lon="-1.21552">
        <ele>783.466121</ele>
        <time>2026-05-22T11:38:33.000Z</time>
      </trkpt>
      <trkpt lat="43.06385" lon="-1.2155">
        <ele>783.594628</ele>
        <time>2026-05-22T11:38:34.000Z</time>
      </trkpt>
      <trkpt lat="43.06385" lon="-1.21548">
        <ele>783.724462</ele>
        <time>2026-05-22T11:38:35.000Z</time>
      </trkpt>
      <trkpt lat="43.06385" lon="-1.21546">
        <ele>783.860049</ele>
        <time>2026-05-22T11:38:36.000Z</time>
      </trkpt>
      <trkpt lat="43.06385" lon="-1.21544">
        <ele>783.993786</ele>
        <time>2026-05-22T11:38:37.000Z</time>
      </trkpt>
      <trkpt lat="43.06384" lon="-1.21543">
        <ele>784.121037</ele>
        <time>2026-05-22T11:38:38.000Z</time>
      </trkpt>
      <trkpt lat="43.06384" lon="-1.21541">
        <ele>784.248731</ele>
        <time>2026-05-22T11:38:39.000Z</time>
      </trkpt>
      <trkpt lat="43.06383" lon="-1.21539">
        <ele>784.374867</ele>
        <time>2026-05-22T11:38:40.000Z</time>
      </trkpt>
      <trkpt lat="43.06382" lon="-1.21538">
        <ele>784.502543</ele>
        <time>2026-05-22T11:38:41.000Z</time>
      </trkpt>
      <trkpt lat="43.06381" lon="-1.21537">
        <ele>784.614245</ele>
        <time>2026-05-22T11:38:42.000Z</time>
      </trkpt>
      <trkpt lat="43.0638" lon="-1.21536">
        <ele>784.736493</ele>
        <time>2026-05-22T11:38:43.000Z</time>
      </trkpt>
      <trkpt lat="43.06379" lon="-1.21535">
        <ele>784.866554</ele>
        <time>2026-05-22T11:38:44.000Z</time>
      </trkpt>
      <trkpt lat="43.06378" lon="-1.21533">
        <ele>784.997687</ele>
        <time>2026-05-22T11:38:45.000Z</time>
      </trkpt>
      <trkpt lat="43.06378" lon="-1.21531">
        <ele>785.131423</ele>
        <time>2026-05-22T11:38:46.000Z</time>
      </trkpt>
      <trkpt lat="43.06377" lon="-1.21529">
        <ele>785.271671</ele>
        <time>2026-05-22T11:38:47.000Z</time>
      </trkpt>
      <trkpt lat="43.06377" lon="-1.21528">
        <ele>785.405407</ele>
        <time>2026-05-22T11:38:48.000Z</time>
      </trkpt>
      <trkpt lat="43.06376" lon="-1.21526">
        <ele>785.529355</ele>
        <time>2026-05-22T11:38:49.000Z</time>
      </trkpt>
      <trkpt lat="43.06376" lon="-1.21524">
        <ele>785.639134</ele>
        <time>2026-05-22T11:38:50.000Z</time>
      </trkpt>
      <trkpt lat="43.06375" lon="-1.21523">
        <ele>785.754095</ele>
        <time>2026-05-22T11:38:51.000Z</time>
      </trkpt>
      <trkpt lat="43.06374" lon="-1.21522">
        <ele>785.885376</ele>
        <time>2026-05-22T11:38:52.000Z</time>
      </trkpt>
      <trkpt lat="43.06373" lon="-1.2152">
        <ele>786.015597</ele>
        <time>2026-05-22T11:38:53.000Z</time>
      </trkpt>
      <trkpt lat="43.06372" lon="-1.21519">
        <ele>786.148023</ele>
        <time>2026-05-22T11:38:54.000Z</time>
      </trkpt>
      <trkpt lat="43.06371" lon="-1.21518">
        <ele>786.273632</ele>
        <time>2026-05-22T11:38:55.000Z</time>
      </trkpt>
      <trkpt lat="43.0637" lon="-1.21516">
        <ele>786.39976</ele>
        <time>2026-05-22T11:38:56.000Z</time>
      </trkpt>
      <trkpt lat="43.06369" lon="-1.21515">
        <ele>786.527436</ele>
        <time>2026-05-22T11:38:57.000Z</time>
      </trkpt>
      <trkpt lat="43.06368" lon="-1.21513">
        <ele>786.664779</ele>
        <time>2026-05-22T11:38:58.000Z</time>
      </trkpt>
      <trkpt lat="43.06367" lon="-1.21512">
        <ele>786.802122</ele>
        <time>2026-05-22T11:38:59.000Z</time>
      </trkpt>
      <trkpt lat="43.06366" lon="-1.2151">
        <ele>786.94974</ele>
        <time>2026-05-22T11:39:00.000Z</time>
      </trkpt>
      <trkpt lat="43.06365" lon="-1.21508">
        <ele>787.097357</ele>
        <time>2026-05-22T11:39:01.000Z</time>
      </trkpt>
      <trkpt lat="43.06364" lon="-1.21507">
        <ele>787.256076</ele>
        <time>2026-05-22T11:39:02.000Z</time>
      </trkpt>
      <trkpt lat="43.06363" lon="-1.21505">
        <ele>787.429334</ele>
        <time>2026-05-22T11:39:03.000Z</time>
      </trkpt>
      <trkpt lat="43.06361" lon="-1.21503">
        <ele>787.605397</ele>
        <time>2026-05-22T11:39:04.000Z</time>
      </trkpt>
      <trkpt lat="43.0636" lon="-1.21501">
        <ele>787.775266</ele>
        <time>2026-05-22T11:39:05.000Z</time>
      </trkpt>
      <trkpt lat="43.06359" lon="-1.21499">
        <ele>787.948524</ele>
        <time>2026-05-22T11:39:06.000Z</time>
      </trkpt>
      <trkpt lat="43.06357" lon="-1.21498">
        <ele>788.120501</ele>
        <time>2026-05-22T11:39:07.000Z</time>
      </trkpt>
      <trkpt lat="43.06356" lon="-1.21497">
        <ele>788.269548</ele>
        <time>2026-05-22T11:39:08.000Z</time>
      </trkpt>
      <trkpt lat="43.06355" lon="-1.21495">
        <ele>788.426954</ele>
        <time>2026-05-22T11:39:09.000Z</time>
      </trkpt>
      <trkpt lat="43.06353" lon="-1.21494">
        <ele>788.564535</ele>
        <time>2026-05-22T11:39:10.000Z</time>
      </trkpt>
      <trkpt lat="43.06352" lon="-1.21493">
        <ele>788.683175</ele>
        <time>2026-05-22T11:39:11.000Z</time>
      </trkpt>
      <trkpt lat="43.06351" lon="-1.21492">
        <ele>788.801816</ele>
        <time>2026-05-22T11:39:12.000Z</time>
      </trkpt>
      <trkpt lat="43.0635" lon="-1.21491">
        <ele>788.954738</ele>
        <time>2026-05-22T11:39:13.000Z</time>
      </trkpt>
      <trkpt lat="43.06348" lon="-1.2149">
        <ele>789.097928</ele>
        <time>2026-05-22T11:39:14.000Z</time>
      </trkpt>
      <trkpt lat="43.06347" lon="-1.21489">
        <ele>789.229881</ele>
        <time>2026-05-22T11:39:15.000Z</time>
      </trkpt>
      <trkpt lat="43.06346" lon="-1.21488">
        <ele>789.370328</ele>
        <time>2026-05-22T11:39:16.000Z</time>
      </trkpt>
      <trkpt lat="43.06344" lon="-1.21488">
        <ele>789.517042</ele>
        <time>2026-05-22T11:39:17.000Z</time>
      </trkpt>
      <trkpt lat="43.06343" lon="-1.21487">
        <ele>789.644048</ele>
        <time>2026-05-22T11:39:18.000Z</time>
      </trkpt>
      <trkpt lat="43.06342" lon="-1.21487">
        <ele>789.769058</ele>
        <time>2026-05-22T11:39:19.000Z</time>
      </trkpt>
      <trkpt lat="43.0634" lon="-1.21486">
        <ele>789.91963</ele>
        <time>2026-05-22T11:39:20.000Z</time>
      </trkpt>
      <trkpt lat="43.06338" lon="-1.21486">
        <ele>790.069135</ele>
        <time>2026-05-22T11:39:21.000Z</time>
      </trkpt>
      <trkpt lat="43.06337" lon="-1.21486">
        <ele>790.191183</ele>
        <time>2026-05-22T11:39:22.000Z</time>
      </trkpt>
      <trkpt lat="43.06336" lon="-1.21486">
        <ele>790.330211</ele>
        <time>2026-05-22T11:39:23.000Z</time>
      </trkpt>
      <trkpt lat="43.06334" lon="-1.21485">
        <ele>790.469733</ele>
        <time>2026-05-22T11:39:24.000Z</time>
      </trkpt>
      <trkpt lat="43.06333" lon="-1.21486">
        <ele>790.600043</ele>
        <time>2026-05-22T11:39:25.000Z</time>
      </trkpt>
      <trkpt lat="43.06331" lon="-1.21486">
        <ele>790.740382</ele>
        <time>2026-05-22T11:39:26.000Z</time>
      </trkpt>
      <trkpt lat="43.0633" lon="-1.21486">
        <ele>790.853311</ele>
        <time>2026-05-22T11:39:27.000Z</time>
      </trkpt>
      <trkpt lat="43.06329" lon="-1.21486">
        <ele>790.964402</ele>
        <time>2026-05-22T11:39:28.000Z</time>
      </trkpt>
      <trkpt lat="43.06328" lon="-1.21486">
        <ele>791.086449</ele>
        <time>2026-05-22T11:39:29.000Z</time>
      </trkpt>
      <trkpt lat="43.06326" lon="-1.21486">
        <ele>791.206798</ele>
        <time>2026-05-22T11:39:30.000Z</time>
      </trkpt>
      <trkpt lat="43.06325" lon="-1.21486">
        <ele>791.308856</ele>
        <time>2026-05-22T11:39:31.000Z</time>
      </trkpt>
      <trkpt lat="43.06324" lon="-1.21486">
        <ele>791.412692</ele>
        <time>2026-05-22T11:39:32.000Z</time>
      </trkpt>
      <trkpt lat="43.06323" lon="-1.21487">
        <ele>791.498445</ele>
        <time>2026-05-22T11:39:33.000Z</time>
      </trkpt>
      <trkpt lat="43.06322" lon="-1.21487">
        <ele>791.611374</ele>
        <time>2026-05-22T11:39:34.000Z</time>
      </trkpt>
      <trkpt lat="43.06321" lon="-1.21487">
        <ele>791.731913</ele>
        <time>2026-05-22T11:39:35.000Z</time>
      </trkpt>
      <trkpt lat="43.0632" lon="-1.21487">
        <ele>791.833747</ele>
        <time>2026-05-22T11:39:36.000Z</time>
      </trkpt>
      <trkpt lat="43.06318" lon="-1.21487">
        <ele>791.946676</ele>
        <time>2026-05-22T11:39:37.000Z</time>
      </trkpt>
      <trkpt lat="43.06317" lon="-1.21487">
        <ele>792.039499</ele>
        <time>2026-05-22T11:39:38.000Z</time>
      </trkpt>
      <trkpt lat="43.06316" lon="-1.21488">
        <ele>792.152428</ele>
        <time>2026-05-22T11:39:39.000Z</time>
      </trkpt>
      <trkpt lat="43.06315" lon="-1.21488">
        <ele>792.279434</ele>
        <time>2026-05-22T11:39:40.000Z</time>
      </trkpt>
      <trkpt lat="43.06314" lon="-1.21489">
        <ele>792.408761</ele>
        <time>2026-05-22T11:39:41.000Z</time>
      </trkpt>
      <trkpt lat="43.06312" lon="-1.2149">
        <ele>792.540714</ele>
        <time>2026-05-22T11:39:42.000Z</time>
      </trkpt>
      <trkpt lat="43.06311" lon="-1.2149">
        <ele>792.662762</ele>
        <time>2026-05-22T11:39:43.000Z</time>
      </trkpt>
      <trkpt lat="43.06309" lon="-1.2149">
        <ele>792.8031</ele>
        <time>2026-05-22T11:39:44.000Z</time>
      </trkpt>
      <trkpt lat="43.06308" lon="-1.21491">
        <ele>792.932427</ele>
        <time>2026-05-22T11:39:45.000Z</time>
      </trkpt>
      <trkpt lat="43.06307" lon="-1.21492">
        <ele>793.06438</ele>
        <time>2026-05-22T11:39:46.000Z</time>
      </trkpt>
      <trkpt lat="43.06306" lon="-1.21493">
        <ele>793.193707</ele>
        <time>2026-05-22T11:39:47.000Z</time>
      </trkpt>
      <trkpt lat="43.06304" lon="-1.21493">
        <ele>793.336796</ele>
        <time>2026-05-22T11:39:48.000Z</time>
      </trkpt>
      <trkpt lat="43.06303" lon="-1.21494">
        <ele>793.476017</ele>
        <time>2026-05-22T11:39:49.000Z</time>
      </trkpt>
      <trkpt lat="43.06301" lon="-1.21495">
        <ele>793.608793</ele>
        <time>2026-05-22T11:39:50.000Z</time>
      </trkpt>
      <trkpt lat="43.063" lon="-1.21495">
        <ele>793.73469</ele>
        <time>2026-05-22T11:39:51.000Z</time>
      </trkpt>
      <trkpt lat="43.06299" lon="-1.21496">
        <ele>793.869315</ele>
        <time>2026-05-22T11:39:52.000Z</time>
      </trkpt>
      <trkpt lat="43.06297" lon="-1.21497">
        <ele>793.98902</ele>
        <time>2026-05-22T11:39:53.000Z</time>
      </trkpt>
      <trkpt lat="43.06297" lon="-1.21498">
        <ele>794.084049</ele>
        <time>2026-05-22T11:39:54.000Z</time>
      </trkpt>
      <trkpt lat="43.06295" lon="-1.21499">
        <ele>794.224302</ele>
        <time>2026-05-22T11:39:55.000Z</time>
      </trkpt>
      <trkpt lat="43.06294" lon="-1.21499">
        <ele>794.369734</ele>
        <time>2026-05-22T11:39:56.000Z</time>
      </trkpt>
      <trkpt lat="43.06293" lon="-1.215">
        <ele>794.495631</ele>
        <time>2026-05-22T11:39:57.000Z</time>
      </trkpt>
      <trkpt lat="43.06291" lon="-1.21501">
        <ele>794.623828</ele>
        <time>2026-05-22T11:39:58.000Z</time>
      </trkpt>
      <trkpt lat="43.0629" lon="-1.21501">
        <ele>794.752026</ele>
        <time>2026-05-22T11:39:59.000Z</time>
      </trkpt>
      <trkpt lat="43.06289" lon="-1.21501">
        <ele>794.86235</ele>
        <time>2026-05-22T11:40:00.000Z</time>
      </trkpt>
      <trkpt lat="43.06287" lon="-1.21501">
        <ele>794.982399</ele>
        <time>2026-05-22T11:40:01.000Z</time>
      </trkpt>
      <trkpt lat="43.06286" lon="-1.21501">
        <ele>795.110873</ele>
        <time>2026-05-22T11:40:02.000Z</time>
      </trkpt>
      <trkpt lat="43.06285" lon="-1.21501">
        <ele>795.239347</ele>
        <time>2026-05-22T11:40:03.000Z</time>
      </trkpt>
      <trkpt lat="43.06283" lon="-1.21502">
        <ele>795.372123</ele>
        <time>2026-05-22T11:40:04.000Z</time>
      </trkpt>
      <trkpt lat="43.06282" lon="-1.21503">
        <ele>795.520261</ele>
        <time>2026-05-22T11:40:05.000Z</time>
      </trkpt>
      <trkpt lat="43.06281" lon="-1.21504">
        <ele>795.641442</ele>
        <time>2026-05-22T11:40:06.000Z</time>
      </trkpt>
      <trkpt lat="43.0628" lon="-1.21505">
        <ele>795.755092</ele>
        <time>2026-05-22T11:40:07.000Z</time>
      </trkpt>
      <trkpt lat="43.06279" lon="-1.21506">
        <ele>795.86492</ele>
        <time>2026-05-22T11:40:08.000Z</time>
      </trkpt>
      <trkpt lat="43.06278" lon="-1.21507">
        <ele>795.974749</ele>
        <time>2026-05-22T11:40:09.000Z</time>
      </trkpt>
      <trkpt lat="43.06277" lon="-1.21507">
        <ele>796.086069</ele>
        <time>2026-05-22T11:40:10.000Z</time>
      </trkpt>
      <trkpt lat="43.06275" lon="-1.21508">
        <ele>796.20118</ele>
        <time>2026-05-22T11:40:11.000Z</time>
      </trkpt>
      <trkpt lat="43.06274" lon="-1.21509">
        <ele>796.323668</ele>
        <time>2026-05-22T11:40:12.000Z</time>
      </trkpt>
      <trkpt lat="43.06273" lon="-1.2151">
        <ele>796.460515</ele>
        <time>2026-05-22T11:40:13.000Z</time>
      </trkpt>
      <trkpt lat="43.06272" lon="-1.2151">
        <ele>796.573854</ele>
        <time>2026-05-22T11:40:14.000Z</time>
      </trkpt>
      <trkpt lat="43.0627" lon="-1.21511">
        <ele>796.702051</ele>
        <time>2026-05-22T11:40:15.000Z</time>
      </trkpt>
      <trkpt lat="43.06269" lon="-1.21511">
        <ele>796.81929</ele>
        <time>2026-05-22T11:40:16.000Z</time>
      </trkpt>
      <trkpt lat="43.06268" lon="-1.21512">
        <ele>796.95009</ele>
        <time>2026-05-22T11:40:17.000Z</time>
      </trkpt>
      <trkpt lat="43.06267" lon="-1.21513">
        <ele>797.082866</ele>
        <time>2026-05-22T11:40:18.000Z</time>
      </trkpt>
      <trkpt lat="43.06265" lon="-1.21514">
        <ele>797.211791</ele>
        <time>2026-05-22T11:40:19.000Z</time>
      </trkpt>
      <trkpt lat="43.06264" lon="-1.21514">
        <ele>797.335709</ele>
        <time>2026-05-22T11:40:20.000Z</time>
      </trkpt>
      <trkpt lat="43.06263" lon="-1.21515">
        <ele>797.442074</ele>
        <time>2026-05-22T11:40:21.000Z</time>
      </trkpt>
      <trkpt lat="43.06262" lon="-1.21515">
        <ele>797.548439</ele>
        <time>2026-05-22T11:40:22.000Z</time>
      </trkpt>
      <trkpt lat="43.06261" lon="-1.21516">
        <ele>797.654732</ele>
        <time>2026-05-22T11:40:23.000Z</time>
      </trkpt>
      <trkpt lat="43.0626" lon="-1.21517">
        <ele>797.77722</ele>
        <time>2026-05-22T11:40:24.000Z</time>
      </trkpt>
      <trkpt lat="43.06258" lon="-1.21517">
        <ele>797.915035</ele>
        <time>2026-05-22T11:40:25.000Z</time>
      </trkpt>
      <trkpt lat="43.06257" lon="-1.21517">
        <ele>798.043684</ele>
        <time>2026-05-22T11:40:26.000Z</time>
      </trkpt>
      <trkpt lat="43.06255" lon="-1.21517">
        <ele>798.181986</ele>
        <time>2026-05-22T11:40:27.000Z</time>
      </trkpt>
      <trkpt lat="43.06254" lon="-1.21517">
        <ele>798.311158</ele>
        <time>2026-05-22T11:40:28.000Z</time>
      </trkpt>
      <trkpt lat="43.06253" lon="-1.21517">
        <ele>798.406764</ele>
        <time>2026-05-22T11:40:29.000Z</time>
      </trkpt>
      <trkpt lat="43.06252" lon="-1.21518">
        <ele>798.49863</ele>
        <time>2026-05-22T11:40:30.000Z</time>
      </trkpt>
      <trkpt lat="43.06251" lon="-1.21518">
        <ele>798.615869</ele>
        <time>2026-05-22T11:40:31.000Z</time>
      </trkpt>
      <trkpt lat="43.06249" lon="-1.21519">
        <ele>798.749559</ele>
        <time>2026-05-22T11:40:32.000Z</time>
      </trkpt>
      <trkpt lat="43.06248" lon="-1.2152">
        <ele>798.855851</ele>
        <time>2026-05-22T11:40:33.000Z</time>
      </trkpt>
      <trkpt lat="43.06248" lon="-1.21521">
        <ele>798.950845</ele>
        <time>2026-05-22T11:40:34.000Z</time>
      </trkpt>
      <trkpt lat="43.06246" lon="-1.21521">
        <ele>799.064185</ele>
        <time>2026-05-22T11:40:35.000Z</time>
      </trkpt>
      <trkpt lat="43.06245" lon="-1.21522">
        <ele>799.179295</ele>
        <time>2026-05-22T11:40:36.000Z</time>
      </trkpt>
      <trkpt lat="43.06244" lon="-1.21522">
        <ele>799.322704</ele>
        <time>2026-05-22T11:40:37.000Z</time>
      </trkpt>
      <trkpt lat="43.06242" lon="-1.21523">
        <ele>799.453947</ele>
        <time>2026-05-22T11:40:38.000Z</time>
      </trkpt>
      <trkpt lat="43.06241" lon="-1.21523">
        <ele>799.583119</ele>
        <time>2026-05-22T11:40:39.000Z</time>
      </trkpt>
      <trkpt lat="43.0624" lon="-1.21523">
        <ele>799.702605</ele>
        <time>2026-05-22T11:40:40.000Z</time>
      </trkpt>
      <trkpt lat="43.06238" lon="-1.21523">
        <ele>799.840907</ele>
        <time>2026-05-22T11:40:41.000Z</time>
      </trkpt>
      <trkpt lat="43.06237" lon="-1.21524">
        <ele>799.982582</ele>
        <time>2026-05-22T11:40:42.000Z</time>
      </trkpt>
      <trkpt lat="43.06235" lon="-1.21524">
        <ele>800.12599</ele>
        <time>2026-05-22T11:40:43.000Z</time>
      </trkpt>
      <trkpt lat="43.06233" lon="-1.21525">
        <ele>800.282308</ele>
        <time>2026-05-22T11:40:44.000Z</time>
      </trkpt>
      <trkpt lat="43.06232" lon="-1.21526">
        <ele>800.416933</ele>
        <time>2026-05-22T11:40:45.000Z</time>
      </trkpt>
      <trkpt lat="43.06231" lon="-1.21526">
        <ele>800.528254</ele>
        <time>2026-05-22T11:40:46.000Z</time>
      </trkpt>
      <trkpt lat="43.0623" lon="-1.21527">
        <ele>800.645493</ele>
        <time>2026-05-22T11:40:47.000Z</time>
      </trkpt>
      <trkpt lat="43.06228" lon="-1.21528">
        <ele>800.798604</ele>
        <time>2026-05-22T11:40:48.000Z</time>
      </trkpt>
      <trkpt lat="43.06227" lon="-1.21529">
        <ele>800.940543</ele>
        <time>2026-05-22T11:40:49.000Z</time>
      </trkpt>
      <trkpt lat="43.06225" lon="-1.21529">
        <ele>801.075168</ele>
        <time>2026-05-22T11:40:50.000Z</time>
      </trkpt>
      <trkpt lat="43.06224" lon="-1.2153">
        <ele>801.195216</ele>
        <time>2026-05-22T11:40:51.000Z</time>
      </trkpt>
      <trkpt lat="43.06223" lon="-1.2153">
        <ele>801.325256</ele>
        <time>2026-05-22T11:40:52.000Z</time>
      </trkpt>
      <trkpt lat="43.06222" lon="-1.2153">
        <ele>801.428184</ele>
        <time>2026-05-22T11:40:53.000Z</time>
      </trkpt>
      <trkpt lat="43.06221" lon="-1.21531">
        <ele>801.528381</ele>
        <time>2026-05-22T11:40:54.000Z</time>
      </trkpt>
      <trkpt lat="43.0622" lon="-1.21532">
        <ele>801.631454</ele>
        <time>2026-05-22T11:40:55.000Z</time>
      </trkpt>
      <trkpt lat="43.06219" lon="-1.21532">
        <ele>801.737819</ele>
        <time>2026-05-22T11:40:56.000Z</time>
      </trkpt>
      <trkpt lat="43.06217" lon="-1.21533">
        <ele>801.855057</ele>
        <time>2026-05-22T11:40:57.000Z</time>
      </trkpt>
      <trkpt lat="43.06217" lon="-1.21533">
        <ele>801.93877</ele>
        <time>2026-05-22T11:40:58.000Z</time>
      </trkpt>
      <trkpt lat="43.06215" lon="-1.21534">
        <ele>802.05308</ele>
        <time>2026-05-22T11:40:59.000Z</time>
      </trkpt>
      <trkpt lat="43.06214" lon="-1.21535">
        <ele>802.189858</ele>
        <time>2026-05-22T11:41:00.000Z</time>
      </trkpt>
      <trkpt lat="43.06213" lon="-1.21535">
        <ele>802.309563</ele>
        <time>2026-05-22T11:41:01.000Z</time>
      </trkpt>
      <trkpt lat="43.06212" lon="-1.21536">
        <ele>802.440363</ele>
        <time>2026-05-22T11:41:02.000Z</time>
      </trkpt>
      <trkpt lat="43.0621" lon="-1.21537">
        <ele>802.565933</ele>
        <time>2026-05-22T11:41:03.000Z</time>
      </trkpt>
      <trkpt lat="43.06209" lon="-1.21538">
        <ele>802.694858</ele>
        <time>2026-05-22T11:41:04.000Z</time>
      </trkpt>
      <trkpt lat="43.06208" lon="-1.21539">
        <ele>802.812463</ele>
        <time>2026-05-22T11:41:05.000Z</time>
      </trkpt>
      <trkpt lat="43.06207" lon="-1.2154">
        <ele>802.932168</ele>
        <time>2026-05-22T11:41:06.000Z</time>
      </trkpt>
      <trkpt lat="43.06205" lon="-1.2154">
        <ele>803.102177</ele>
        <time>2026-05-22T11:41:07.000Z</time>
      </trkpt>
      <trkpt lat="43.06203" lon="-1.21541">
        <ele>803.275848</ele>
        <time>2026-05-22T11:41:08.000Z</time>
      </trkpt>
      <trkpt lat="43.06202" lon="-1.21542">
        <ele>803.427436</ele>
        <time>2026-05-22T11:41:09.000Z</time>
      </trkpt>
      <trkpt lat="43.06201" lon="-1.21544">
        <ele>803.542737</ele>
        <time>2026-05-22T11:41:10.000Z</time>
      </trkpt>
      <trkpt lat="43.062" lon="-1.21544">
        <ele>803.652566</ele>
        <time>2026-05-22T11:41:11.000Z</time>
      </trkpt>
      <trkpt lat="43.06199" lon="-1.21545">
        <ele>803.762395</ele>
        <time>2026-05-22T11:41:12.000Z</time>
      </trkpt>
      <trkpt lat="43.06198" lon="-1.21546">
        <ele>803.883576</ele>
        <time>2026-05-22T11:41:13.000Z</time>
      </trkpt>
      <trkpt lat="43.06197" lon="-1.21547">
        <ele>803.997886</ele>
        <time>2026-05-22T11:41:14.000Z</time>
      </trkpt>
      <trkpt lat="43.06195" lon="-1.21548">
        <ele>804.128686</ele>
        <time>2026-05-22T11:41:15.000Z</time>
      </trkpt>
      <trkpt lat="43.06194" lon="-1.21549">
        <ele>804.261223</ele>
        <time>2026-05-22T11:41:16.000Z</time>
      </trkpt>
      <trkpt lat="43.06193" lon="-1.2155">
        <ele>804.378827</ele>
        <time>2026-05-22T11:41:17.000Z</time>
      </trkpt>
      <trkpt lat="43.06192" lon="-1.21551">
        <ele>804.507753</ele>
        <time>2026-05-22T11:41:18.000Z</time>
      </trkpt>
      <trkpt lat="43.06191" lon="-1.21552">
        <ele>804.606232</ele>
        <time>2026-05-22T11:41:19.000Z</time>
      </trkpt>
      <trkpt lat="43.0619" lon="-1.21553">
        <ele>804.708518</ele>
        <time>2026-05-22T11:41:20.000Z</time>
      </trkpt>
      <trkpt lat="43.06189" lon="-1.21554">
        <ele>804.837603</ele>
        <time>2026-05-22T11:41:21.000Z</time>
      </trkpt>
      <trkpt lat="43.06188" lon="-1.21554">
        <ele>804.933208</ele>
        <time>2026-05-22T11:41:22.000Z</time>
      </trkpt>
      <trkpt lat="43.06187" lon="-1.21554">
        <ele>805.043533</ele>
        <time>2026-05-22T11:41:23.000Z</time>
      </trkpt>
      <trkpt lat="43.06186" lon="-1.21555">
        <ele>805.169431</ele>
        <time>2026-05-22T11:41:24.000Z</time>
      </trkpt>
      <trkpt lat="43.06185" lon="-1.21555">
        <ele>805.267129</ele>
        <time>2026-05-22T11:41:25.000Z</time>
      </trkpt>
      <trkpt lat="43.06184" lon="-1.21556">
        <ele>805.358996</ele>
        <time>2026-05-22T11:41:26.000Z</time>
      </trkpt>
      <trkpt lat="43.06183" lon="-1.21557">
        <ele>805.456695</ele>
        <time>2026-05-22T11:41:27.000Z</time>
      </trkpt>
      <trkpt lat="43.06182" lon="-1.21557">
        <ele>805.568016</ele>
        <time>2026-05-22T11:41:28.000Z</time>
      </trkpt>
      <trkpt lat="43.06181" lon="-1.21558">
        <ele>805.659883</ele>
        <time>2026-05-22T11:41:29.000Z</time>
      </trkpt>
      <trkpt lat="43.0618" lon="-1.21558">
        <ele>805.742745</ele>
        <time>2026-05-22T11:41:30.000Z</time>
      </trkpt>
      <trkpt lat="43.06178" lon="-1.21558">
        <ele>805.862794</ele>
        <time>2026-05-22T11:41:31.000Z</time>
      </trkpt>
      <trkpt lat="43.06177" lon="-1.21559">
        <ele>806.003033</ele>
        <time>2026-05-22T11:41:32.000Z</time>
      </trkpt>
      <trkpt lat="43.06176" lon="-1.21559">
        <ele>806.137658</ele>
        <time>2026-05-22T11:41:33.000Z</time>
      </trkpt>
      <trkpt lat="43.06174" lon="-1.21559">
        <ele>806.266132</ele>
        <time>2026-05-22T11:41:34.000Z</time>
      </trkpt>
      <trkpt lat="43.06173" lon="-1.21559">
        <ele>806.394781</ele>
        <time>2026-05-22T11:41:35.000Z</time>
      </trkpt>
      <trkpt lat="43.06171" lon="-1.21559">
        <ele>806.536455</ele>
        <time>2026-05-22T11:41:36.000Z</time>
      </trkpt>
      <trkpt lat="43.06169" lon="-1.21558">
        <ele>806.705004</ele>
        <time>2026-05-22T11:41:37.000Z</time>
      </trkpt>
      <trkpt lat="43.06168" lon="-1.21557">
        <ele>806.831567</ele>
        <time>2026-05-22T11:41:38.000Z</time>
      </trkpt>
      <trkpt lat="43.06167" lon="-1.21556">
        <ele>806.960493</ele>
        <time>2026-05-22T11:41:39.000Z</time>
      </trkpt>
      <trkpt lat="43.06166" lon="-1.21555">
        <ele>807.064555</ele>
        <time>2026-05-22T11:41:40.000Z</time>
      </trkpt>
      <trkpt lat="43.06166" lon="-1.21554">
        <ele>807.155476</ele>
        <time>2026-05-22T11:41:41.000Z</time>
      </trkpt>
      <trkpt lat="43.06164" lon="-1.21553">
        <ele>807.268815</ele>
        <time>2026-05-22T11:41:42.000Z</time>
      </trkpt>
      <trkpt lat="43.06163" lon="-1.21552">
        <ele>807.421927</ele>
        <time>2026-05-22T11:41:43.000Z</time>
      </trkpt>
      <trkpt lat="43.06161" lon="-1.21551">
        <ele>807.600642</ele>
        <time>2026-05-22T11:41:44.000Z</time>
      </trkpt>
      <trkpt lat="43.0616" lon="-1.21549">
        <ele>807.794031</ele>
        <time>2026-05-22T11:41:45.000Z</time>
      </trkpt>
      <trkpt lat="43.06158" lon="-1.21548">
        <ele>807.964507</ele>
        <time>2026-05-22T11:41:46.000Z</time>
      </trkpt>
      <trkpt lat="43.06157" lon="-1.21546">
        <ele>808.167935</ele>
        <time>2026-05-22T11:41:47.000Z</time>
      </trkpt>
      <trkpt lat="43.06156" lon="-1.21544">
        <ele>808.319546</ele>
        <time>2026-05-22T11:41:48.000Z</time>
      </trkpt>
      <trkpt lat="43.06155" lon="-1.21542">
        <ele>808.456262</ele>
        <time>2026-05-22T11:41:49.000Z</time>
      </trkpt>
      <trkpt lat="43.06154" lon="-1.21539">
        <ele>808.657702</ele>
        <time>2026-05-22T11:41:50.000Z</time>
      </trkpt>
      <trkpt lat="43.06153" lon="-1.21537">
        <ele>808.81519</ele>
        <time>2026-05-22T11:41:51.000Z</time>
      </trkpt>
      <trkpt lat="43.06152" lon="-1.21535">
        <ele>809.00434</ele>
        <time>2026-05-22T11:41:52.000Z</time>
      </trkpt>
      <trkpt lat="43.06152" lon="-1.21532">
        <ele>809.167591</ele>
        <time>2026-05-22T11:41:53.000Z</time>
      </trkpt>
      <trkpt lat="43.06151" lon="-1.2153">
        <ele>809.352832</ele>
        <time>2026-05-22T11:41:54.000Z</time>
      </trkpt>
      <trkpt lat="43.0615" lon="-1.21528">
        <ele>809.526093</ele>
        <time>2026-05-22T11:41:55.000Z</time>
      </trkpt>
      <trkpt lat="43.06149" lon="-1.21525">
        <ele>809.696166</ele>
        <time>2026-05-22T11:41:56.000Z</time>
      </trkpt>
      <trkpt lat="43.06149" lon="-1.21523">
        <ele>809.871034</ele>
        <time>2026-05-22T11:41:57.000Z</time>
      </trkpt>
      <trkpt lat="43.06148" lon="-1.2152">
        <ele>810.051546</ele>
        <time>2026-05-22T11:41:58.000Z</time>
      </trkpt>
      <trkpt lat="43.06147" lon="-1.21518">
        <ele>810.255402</ele>
        <time>2026-05-22T11:41:59.000Z</time>
      </trkpt>
      <trkpt lat="43.06146" lon="-1.21516">
        <ele>810.44888</ele>
        <time>2026-05-22T11:42:00.000Z</time>
      </trkpt>
      <trkpt lat="43.06144" lon="-1.21514">
        <ele>810.629658</ele>
        <time>2026-05-22T11:42:01.000Z</time>
      </trkpt>
      <trkpt lat="43.06143" lon="-1.21512">
        <ele>810.805094</ele>
        <time>2026-05-22T11:42:02.000Z</time>
      </trkpt>
      <trkpt lat="43.06142" lon="-1.2151">
        <ele>810.997117</ele>
        <time>2026-05-22T11:42:03.000Z</time>
      </trkpt>
      <trkpt lat="43.06141" lon="-1.21508">
        <ele>811.164734</ele>
        <time>2026-05-22T11:42:04.000Z</time>
      </trkpt>
      <trkpt lat="43.06141" lon="-1.21506">
        <ele>811.297455</ele>
        <time>2026-05-22T11:42:05.000Z</time>
      </trkpt>
      <trkpt lat="43.06141" lon="-1.21503">
        <ele>811.462607</ele>
        <time>2026-05-22T11:42:06.000Z</time>
      </trkpt>
      <trkpt lat="43.0614" lon="-1.21501">
        <ele>811.623844</ele>
        <time>2026-05-22T11:42:07.000Z</time>
      </trkpt>
      <trkpt lat="43.06139" lon="-1.215">
        <ele>811.77731</ele>
        <time>2026-05-22T11:42:08.000Z</time>
      </trkpt>
      <trkpt lat="43.06138" lon="-1.21499">
        <ele>811.907558</ele>
        <time>2026-05-22T11:42:09.000Z</time>
      </trkpt>
      <trkpt lat="43.06137" lon="-1.21498">
        <ele>812.050133</ele>
        <time>2026-05-22T11:42:10.000Z</time>
      </trkpt>
      <trkpt lat="43.06136" lon="-1.21496">
        <ele>812.175234</ele>
        <time>2026-05-22T11:42:11.000Z</time>
      </trkpt>
      <trkpt lat="43.06135" lon="-1.21495">
        <ele>812.262423</ele>
        <time>2026-05-22T11:42:12.000Z</time>
      </trkpt>
      <trkpt lat="43.06134" lon="-1.21494">
        <ele>812.392671</ele>
        <time>2026-05-22T11:42:13.000Z</time>
      </trkpt>
      <trkpt lat="43.06133" lon="-1.21493">
        <ele>812.519822</ele>
        <time>2026-05-22T11:42:14.000Z</time>
      </trkpt>
      <trkpt lat="43.06132" lon="-1.21492">
        <ele>812.663433</ele>
        <time>2026-05-22T11:42:15.000Z</time>
      </trkpt>
      <trkpt lat="43.06131" lon="-1.2149">
        <ele>812.825181</ele>
        <time>2026-05-22T11:42:16.000Z</time>
      </trkpt>
      <trkpt lat="43.06129" lon="-1.21489">
        <ele>812.968793</ele>
        <time>2026-05-22T11:42:17.000Z</time>
      </trkpt>
      <trkpt lat="43.06129" lon="-1.21487">
        <ele>813.115441</ele>
        <time>2026-05-22T11:42:18.000Z</time>
      </trkpt>
      <trkpt lat="43.06128" lon="-1.21486">
        <ele>813.242592</ele>
        <time>2026-05-22T11:42:19.000Z</time>
      </trkpt>
      <trkpt lat="43.06127" lon="-1.21485">
        <ele>813.372853</ele>
        <time>2026-05-22T11:42:20.000Z</time>
      </trkpt>
      <trkpt lat="43.06126" lon="-1.21484">
        <ele>813.480116</ele>
        <time>2026-05-22T11:42:21.000Z</time>
      </trkpt>
      <trkpt lat="43.06125" lon="-1.21483">
        <ele>813.576856</ele>
        <time>2026-05-22T11:42:22.000Z</time>
      </trkpt>
      <trkpt lat="43.06124" lon="-1.21482">
        <ele>813.687598</ele>
        <time>2026-05-22T11:42:23.000Z</time>
      </trkpt>
      <trkpt lat="43.06123" lon="-1.21481">
        <ele>813.791182</ele>
        <time>2026-05-22T11:42:24.000Z</time>
      </trkpt>
      <trkpt lat="43.06123" lon="-1.2148">
        <ele>813.883004</ele>
        <time>2026-05-22T11:42:25.000Z</time>
      </trkpt>
      <trkpt lat="43.06122" lon="-1.21479">
        <ele>813.996479</ele>
        <time>2026-05-22T11:42:26.000Z</time>
      </trkpt>
      <trkpt lat="43.06121" lon="-1.21478">
        <ele>814.107311</ele>
        <time>2026-05-22T11:42:27.000Z</time>
      </trkpt>
      <trkpt lat="43.0612" lon="-1.21477">
        <ele>814.210895</ele>
        <time>2026-05-22T11:42:28.000Z</time>
      </trkpt>
      <trkpt lat="43.06119" lon="-1.21476">
        <ele>814.317462</ele>
        <time>2026-05-22T11:42:29.000Z</time>
      </trkpt>
      <trkpt lat="43.06118" lon="-1.21475">
        <ele>814.431887</ele>
        <time>2026-05-22T11:42:30.000Z</time>
      </trkpt>
      <trkpt lat="43.06117" lon="-1.21474">
        <ele>814.583406</ele>
        <time>2026-05-22T11:42:31.000Z</time>
      </trkpt>
      <trkpt lat="43.06116" lon="-1.21473">
        <ele>814.709659</ele>
        <time>2026-05-22T11:42:32.000Z</time>
      </trkpt>
      <trkpt lat="43.06115" lon="-1.21472">
        <ele>814.808629</ele>
        <time>2026-05-22T11:42:33.000Z</time>
      </trkpt>
      <trkpt lat="43.06114" lon="-1.21472">
        <ele>814.928557</ele>
        <time>2026-05-22T11:42:34.000Z</time>
      </trkpt>
      <trkpt lat="43.06112" lon="-1.21471">
        <ele>815.062879</ele>
        <time>2026-05-22T11:42:35.000Z</time>
      </trkpt>
      <trkpt lat="43.06112" lon="-1.2147">
        <ele>815.17824</ele>
        <time>2026-05-22T11:42:36.000Z</time>
      </trkpt>
      <trkpt lat="43.0611" lon="-1.21469">
        <ele>815.304494</ele>
        <time>2026-05-22T11:42:37.000Z</time>
      </trkpt>
      <trkpt lat="43.0611" lon="-1.21468">
        <ele>815.415325</ele>
        <time>2026-05-22T11:42:38.000Z</time>
      </trkpt>
      <trkpt lat="43.06109" lon="-1.21467">
        <ele>815.502514</ele>
        <time>2026-05-22T11:42:39.000Z</time>
      </trkpt>
      <trkpt lat="43.06108" lon="-1.21466">
        <ele>815.61599</ele>
        <time>2026-05-22T11:42:40.000Z</time>
      </trkpt>
      <trkpt lat="43.06107" lon="-1.21465">
        <ele>815.74785</ele>
        <time>2026-05-22T11:42:41.000Z</time>
      </trkpt>
      <trkpt lat="43.06106" lon="-1.21463">
        <ele>815.863212</ele>
        <time>2026-05-22T11:42:42.000Z</time>
      </trkpt>
      <trkpt lat="43.06105" lon="-1.21462">
        <ele>815.990363</ele>
        <time>2026-05-22T11:42:43.000Z</time>
      </trkpt>
      <trkpt lat="43.06104" lon="-1.21461">
        <ele>816.124685</ele>
        <time>2026-05-22T11:42:44.000Z</time>
      </trkpt>
      <trkpt lat="43.06103" lon="-1.2146">
        <ele>816.244812</ele>
        <time>2026-05-22T11:42:45.000Z</time>
      </trkpt>
      <trkpt lat="43.06102" lon="-1.21459">
        <ele>816.34382</ele>
        <time>2026-05-22T11:42:46.000Z</time>
      </trkpt>
      <trkpt lat="43.06101" lon="-1.21458">
        <ele>816.468535</ele>
        <time>2026-05-22T11:42:47.000Z</time>
      </trkpt>
      <trkpt lat="43.061" lon="-1.21458">
        <ele>816.579352</ele>
        <time>2026-05-22T11:42:48.000Z</time>
      </trkpt>
      <trkpt lat="43.06099" lon="-1.21457">
        <ele>816.705605</ele>
        <time>2026-05-22T11:42:49.000Z</time>
      </trkpt>
      <trkpt lat="43.06098" lon="-1.21456">
        <ele>816.844554</ele>
        <time>2026-05-22T11:42:50.000Z</time>
      </trkpt>
      <trkpt lat="43.06096" lon="-1.21455">
        <ele>817.007254</ele>
        <time>2026-05-22T11:42:51.000Z</time>
      </trkpt>
      <trkpt lat="43.06095" lon="-1.21453">
        <ele>817.120729</ele>
        <time>2026-05-22T11:42:52.000Z</time>
      </trkpt>
      <trkpt lat="43.06095" lon="-1.21452">
        <ele>817.239458</ele>
        <time>2026-05-22T11:42:53.000Z</time>
      </trkpt>
      <trkpt lat="43.06094" lon="-1.21451">
        <ele>817.324103</ele>
        <time>2026-05-22T11:42:54.000Z</time>
      </trkpt>
      <trkpt lat="43.06094" lon="-1.21451">
        <ele>817.335944</ele>
        <time>2026-05-22T11:42:55.000Z</time>
      </trkpt>
      <trkpt lat="43.06091" lon="-1.21451">
        <ele>817.662881</ele>
        <time>2026-05-22T11:43:05.000Z</time>
      </trkpt>
      <trkpt lat="43.06092" lon="-1.2145">
        <ele>817.832867</ele>
        <time>2026-05-22T11:43:06.000Z</time>
      </trkpt>
      <trkpt lat="43.06092" lon="-1.2145">
        <ele>817.832867</ele>
        <time>2026-05-22T11:43:07.000Z</time>
      </trkpt>
      <trkpt lat="43.06095" lon="-1.21434">
        <ele>819.000378</ele>
        <time>2026-05-22T11:45:44.000Z</time>
      </trkpt>
      <trkpt lat="43.06094" lon="-1.21433">
        <ele>819.11121</ele>
        <time>2026-05-22T11:45:45.000Z</time>
      </trkpt>
      <trkpt lat="43.06093" lon="-1.21432">
        <ele>819.213811</ele>
        <time>2026-05-22T11:45:46.000Z</time>
      </trkpt>
      <trkpt lat="43.06092" lon="-1.21431">
        <ele>819.33254</ele>
        <time>2026-05-22T11:45:47.000Z</time>
      </trkpt>
      <trkpt lat="43.06092" lon="-1.2143">
        <ele>819.417646</ele>
        <time>2026-05-22T11:45:48.000Z</time>
      </trkpt>
      <trkpt lat="43.06091" lon="-1.21428">
        <ele>819.529188</ele>
        <time>2026-05-22T11:45:49.000Z</time>
      </trkpt>
      <trkpt lat="43.06091" lon="-1.21427">
        <ele>819.6205</ele>
        <time>2026-05-22T11:45:50.000Z</time>
      </trkpt>
      <trkpt lat="43.06092" lon="-1.21425">
        <ele>819.742666</ele>
        <time>2026-05-22T11:45:51.000Z</time>
      </trkpt>
      <trkpt lat="43.06092" lon="-1.21424">
        <ele>819.861395</ele>
        <time>2026-05-22T11:45:52.000Z</time>
      </trkpt>
      <trkpt lat="43.06093" lon="-1.21423">
        <ele>819.97487</ele>
        <time>2026-05-22T11:45:53.000Z</time>
      </trkpt>
      <trkpt lat="43.06093" lon="-1.21422">
        <ele>820.040582</ele>
        <time>2026-05-22T11:45:54.000Z</time>
      </trkpt>
      <trkpt lat="43.06093" lon="-1.2142">
        <ele>820.162142</ele>
        <time>2026-05-22T11:45:55.000Z</time>
      </trkpt>
      <trkpt lat="43.06094" lon="-1.21418">
        <ele>820.290154</ele>
        <time>2026-05-22T11:45:56.000Z</time>
      </trkpt>
      <trkpt lat="43.06094" lon="-1.21417">
        <ele>820.411714</ele>
        <time>2026-05-22T11:45:57.000Z</time>
      </trkpt>
      <trkpt lat="43.06095" lon="-1.21416">
        <ele>820.503026</ele>
        <time>2026-05-22T11:45:58.000Z</time>
      </trkpt>
      <trkpt lat="43.06094" lon="-1.21414">
        <ele>820.616416</ele>
        <time>2026-05-22T11:45:59.000Z</time>
      </trkpt>
      <trkpt lat="43.06094" lon="-1.21413">
        <ele>820.714677</ele>
        <time>2026-05-22T11:46:00.000Z</time>
      </trkpt>
      <trkpt lat="43.06095" lon="-1.21411">
        <ele>820.846101</ele>
        <time>2026-05-22T11:46:01.000Z</time>
      </trkpt>
      <trkpt lat="43.06095" lon="-1.21408">
        <ele>821.007049</ele>
        <time>2026-05-22T11:46:02.000Z</time>
      </trkpt>
      <trkpt lat="43.06095" lon="-1.21406">
        <ele>821.160727</ele>
        <time>2026-05-22T11:46:03.000Z</time>
      </trkpt>
      <trkpt lat="43.06095" lon="-1.21405">
        <ele>821.267238</ele>
        <time>2026-05-22T11:46:04.000Z</time>
      </trkpt>
      <trkpt lat="43.06095" lon="-1.21404">
        <ele>821.34467</ele>
        <time>2026-05-22T11:46:05.000Z</time>
      </trkpt>
      <trkpt lat="43.06095" lon="-1.21403">
        <ele>821.422102</ele>
        <time>2026-05-22T11:46:06.000Z</time>
      </trkpt>
      <trkpt lat="43.06095" lon="-1.21401">
        <ele>821.530955</ele>
        <time>2026-05-22T11:46:07.000Z</time>
      </trkpt>
      <trkpt lat="43.06096" lon="-1.21399">
        <ele>821.694876</ele>
        <time>2026-05-22T11:46:08.000Z</time>
      </trkpt>
      <trkpt lat="43.06097" lon="-1.21397">
        <ele>821.839465</ele>
        <time>2026-05-22T11:46:09.000Z</time>
      </trkpt>
      <trkpt lat="43.06097" lon="-1.21396">
        <ele>821.914978</ele>
        <time>2026-05-22T11:46:10.000Z</time>
      </trkpt>
      <trkpt lat="43.06098" lon="-1.21396">
        <ele>821.988564</ele>
        <time>2026-05-22T11:46:11.000Z</time>
      </trkpt>
      <trkpt lat="43.06098" lon="-1.21395">
        <ele>822.073671</ele>
        <time>2026-05-22T11:46:12.000Z</time>
      </trkpt>
      <trkpt lat="43.06099" lon="-1.21393">
        <ele>822.165807</ele>
        <time>2026-05-22T11:46:13.000Z</time>
      </trkpt>
      <trkpt lat="43.06098" lon="-1.21392">
        <ele>822.286088</ele>
        <time>2026-05-22T11:46:14.000Z</time>
      </trkpt>
      <trkpt lat="43.06099" lon="-1.2139">
        <ele>822.42018</ele>
        <time>2026-05-22T11:46:15.000Z</time>
      </trkpt>
      <trkpt lat="43.06098" lon="-1.21388">
        <ele>822.548192</ele>
        <time>2026-05-22T11:46:16.000Z</time>
      </trkpt>
      <trkpt lat="43.06099" lon="-1.21387">
        <ele>822.653199</ele>
        <time>2026-05-22T11:46:17.000Z</time>
      </trkpt>
      <trkpt lat="43.06098" lon="-1.21385">
        <ele>822.77348</ele>
        <time>2026-05-22T11:46:18.000Z</time>
      </trkpt>
      <trkpt lat="43.06099" lon="-1.21383">
        <ele>822.898237</ele>
        <time>2026-05-22T11:46:19.000Z</time>
      </trkpt>
      <trkpt lat="43.06099" lon="-1.21382">
        <ele>822.990373</ele>
        <time>2026-05-22T11:46:20.000Z</time>
      </trkpt>
      <trkpt lat="43.06099" lon="-1.21381">
        <ele>823.092288</ele>
        <time>2026-05-22T11:46:21.000Z</time>
      </trkpt>
      <trkpt lat="43.061" lon="-1.21379">
        <ele>823.214454</ele>
        <time>2026-05-22T11:46:22.000Z</time>
      </trkpt>
      <trkpt lat="43.061" lon="-1.21378">
        <ele>823.300431</ele>
        <time>2026-05-22T11:46:23.000Z</time>
      </trkpt>
      <trkpt lat="43.061" lon="-1.21376">
        <ele>823.398227</ele>
        <time>2026-05-22T11:46:24.000Z</time>
      </trkpt>
      <trkpt lat="43.061" lon="-1.21375">
        <ele>823.527193</ele>
        <time>2026-05-22T11:46:25.000Z</time>
      </trkpt>
      <trkpt lat="43.06101" lon="-1.21373">
        <ele>823.678219</ele>
        <time>2026-05-22T11:46:26.000Z</time>
      </trkpt>
      <trkpt lat="43.06101" lon="-1.21371">
        <ele>823.799779</ele>
        <time>2026-05-22T11:46:27.000Z</time>
      </trkpt>
      <trkpt lat="43.06102" lon="-1.2137">
        <ele>823.919235</ele>
        <time>2026-05-22T11:46:28.000Z</time>
      </trkpt>
      <trkpt lat="43.06103" lon="-1.21368">
        <ele>824.089448</ele>
        <time>2026-05-22T11:46:29.000Z</time>
      </trkpt>
      <trkpt lat="43.06104" lon="-1.21366">
        <ele>824.242631</ele>
        <time>2026-05-22T11:46:30.000Z</time>
      </trkpt>
      <trkpt lat="43.06104" lon="-1.21364">
        <ele>824.360759</ele>
        <time>2026-05-22T11:46:31.000Z</time>
      </trkpt>
      <trkpt lat="43.06105" lon="-1.21363">
        <ele>824.501811</ele>
        <time>2026-05-22T11:46:32.000Z</time>
      </trkpt>
      <trkpt lat="43.06106" lon="-1.21361">
        <ele>824.623371</ele>
        <time>2026-05-22T11:46:33.000Z</time>
      </trkpt>
      <trkpt lat="43.06106" lon="-1.2136">
        <ele>824.738541</ele>
        <time>2026-05-22T11:46:34.000Z</time>
      </trkpt>
      <trkpt lat="43.06107" lon="-1.21358">
        <ele>824.843547</ele>
        <time>2026-05-22T11:46:35.000Z</time>
      </trkpt>
      <trkpt lat="43.06107" lon="-1.21357">
        <ele>824.955089</ele>
        <time>2026-05-22T11:46:36.000Z</time>
      </trkpt>
      <trkpt lat="43.06108" lon="-1.21355">
        <ele>825.063942</ele>
        <time>2026-05-22T11:46:37.000Z</time>
      </trkpt>
      <trkpt lat="43.06108" lon="-1.21354">
        <ele>825.195823</ele>
        <time>2026-05-22T11:46:38.000Z</time>
      </trkpt>
      <trkpt lat="43.06108" lon="-1.21352">
        <ele>825.317989</ele>
        <time>2026-05-22T11:46:39.000Z</time>
      </trkpt>
      <trkpt lat="43.06109" lon="-1.2135">
        <ele>825.4245</ele>
        <time>2026-05-22T11:46:40.000Z</time>
      </trkpt>
      <trkpt lat="43.06109" lon="-1.21349">
        <ele>825.522761</ele>
        <time>2026-05-22T11:46:41.000Z</time>
      </trkpt>
      <trkpt lat="43.06109" lon="-1.21347">
        <ele>825.647518</ele>
        <time>2026-05-22T11:46:42.000Z</time>
      </trkpt>
      <trkpt lat="43.0611" lon="-1.21345">
        <ele>825.78564</ele>
        <time>2026-05-22T11:46:43.000Z</time>
      </trkpt>
      <trkpt lat="43.0611" lon="-1.21343">
        <ele>825.940549</ele>
        <time>2026-05-22T11:46:44.000Z</time>
      </trkpt>
      <trkpt lat="43.0611" lon="-1.21341">
        <ele>826.081559</ele>
        <time>2026-05-22T11:46:45.000Z</time>
      </trkpt>
      <trkpt lat="43.06111" lon="-1.21339">
        <ele>826.237891</ele>
        <time>2026-05-22T11:46:46.000Z</time>
      </trkpt>
      <trkpt lat="43.06111" lon="-1.21337">
        <ele>826.384583</ele>
        <time>2026-05-22T11:46:47.000Z</time>
      </trkpt>
      <trkpt lat="43.0611" lon="-1.21335">
        <ele>826.547786</ele>
        <time>2026-05-22T11:46:48.000Z</time>
      </trkpt>
      <trkpt lat="43.06111" lon="-1.21332">
        <ele>826.715707</ele>
        <time>2026-05-22T11:46:49.000Z</time>
      </trkpt>
      <trkpt lat="43.0611" lon="-1.2133">
        <ele>826.876648</ele>
        <time>2026-05-22T11:46:50.000Z</time>
      </trkpt>
      <trkpt lat="43.0611" lon="-1.21328">
        <ele>827.024582</ele>
        <time>2026-05-22T11:46:51.000Z</time>
      </trkpt>
      <trkpt lat="43.0611" lon="-1.21326">
        <ele>827.152513</ele>
        <time>2026-05-22T11:46:52.000Z</time>
      </trkpt>
      <trkpt lat="43.0611" lon="-1.21324">
        <ele>827.300386</ele>
        <time>2026-05-22T11:46:53.000Z</time>
      </trkpt>
      <trkpt lat="43.06109" lon="-1.21322">
        <ele>827.430733</ele>
        <time>2026-05-22T11:46:54.000Z</time>
      </trkpt>
      <trkpt lat="43.06109" lon="-1.2132">
        <ele>827.564801</ele>
        <time>2026-05-22T11:46:55.000Z</time>
      </trkpt>
      <trkpt lat="43.06109" lon="-1.21318">
        <ele>827.692485</ele>
        <time>2026-05-22T11:46:56.000Z</time>
      </trkpt>
      <trkpt lat="43.06109" lon="-1.21316">
        <ele>827.813785</ele>
        <time>2026-05-22T11:46:57.000Z</time>
      </trkpt>
      <trkpt lat="43.06109" lon="-1.21314">
        <ele>827.937885</ele>
        <time>2026-05-22T11:46:58.000Z</time>
      </trkpt>
      <trkpt lat="43.06109" lon="-1.21312">
        <ele>828.054122</ele>
        <time>2026-05-22T11:46:59.000Z</time>
      </trkpt>
      <trkpt lat="43.06109" lon="-1.2131">
        <ele>828.162653</ele>
        <time>2026-05-22T11:47:00.000Z</time>
      </trkpt>
      <trkpt lat="43.06109" lon="-1.21309">
        <ele>828.285593</ele>
        <time>2026-05-22T11:47:01.000Z</time>
      </trkpt>
      <trkpt lat="43.0611" lon="-1.21307">
        <ele>828.414521</ele>
        <time>2026-05-22T11:47:02.000Z</time>
      </trkpt>
      <trkpt lat="43.0611" lon="-1.21305">
        <ele>828.534635</ele>
        <time>2026-05-22T11:47:03.000Z</time>
      </trkpt>
      <trkpt lat="43.06111" lon="-1.21303">
        <ele>828.664982</ele>
        <time>2026-05-22T11:47:04.000Z</time>
      </trkpt>
      <trkpt lat="43.06111" lon="-1.21301">
        <ele>828.805706</ele>
        <time>2026-05-22T11:47:05.000Z</time>
      </trkpt>
      <trkpt lat="43.06111" lon="-1.21299">
        <ele>828.940058</ele>
        <time>2026-05-22T11:47:06.000Z</time>
      </trkpt>
      <trkpt lat="43.06111" lon="-1.21296">
        <ele>829.074411</ele>
        <time>2026-05-22T11:47:07.000Z</time>
      </trkpt>
      <trkpt lat="43.06111" lon="-1.21295">
        <ele>829.19851</ele>
        <time>2026-05-22T11:47:08.000Z</time>
      </trkpt>
      <trkpt lat="43.06111" lon="-1.21293">
        <ele>829.32261</ele>
        <time>2026-05-22T11:47:09.000Z</time>
      </trkpt>
      <trkpt lat="43.06111" lon="-1.21291">
        <ele>829.445162</ele>
        <time>2026-05-22T11:47:10.000Z</time>
      </trkpt>
      <trkpt lat="43.06112" lon="-1.21289">
        <ele>829.556815</ele>
        <time>2026-05-22T11:47:11.000Z</time>
      </trkpt>
      <trkpt lat="43.06112" lon="-1.21287">
        <ele>829.666744</ele>
        <time>2026-05-22T11:47:12.000Z</time>
      </trkpt>
      <trkpt lat="43.06112" lon="-1.21285">
        <ele>829.807751</ele>
        <time>2026-05-22T11:47:13.000Z</time>
      </trkpt>
      <trkpt lat="43.06113" lon="-1.21283">
        <ele>829.963182</ele>
        <time>2026-05-22T11:47:14.000Z</time>
      </trkpt>
      <trkpt lat="43.06114" lon="-1.21281">
        <ele>830.095563</ele>
        <time>2026-05-22T11:47:15.000Z</time>
      </trkpt>
      <trkpt lat="43.06114" lon="-1.21279">
        <ele>830.224437</ele>
        <time>2026-05-22T11:47:16.000Z</time>
      </trkpt>
      <trkpt lat="43.06114" lon="-1.21277">
        <ele>830.348537</ele>
        <time>2026-05-22T11:47:17.000Z</time>
      </trkpt>
      <trkpt lat="43.06115" lon="-1.21276">
        <ele>830.469068</ele>
        <time>2026-05-22T11:47:18.000Z</time>
      </trkpt>
      <trkpt lat="43.06116" lon="-1.21274">
        <ele>830.598163</ele>
        <time>2026-05-22T11:47:19.000Z</time>
      </trkpt>
      <trkpt lat="43.06116" lon="-1.21272">
        <ele>830.718694</ele>
        <time>2026-05-22T11:47:20.000Z</time>
      </trkpt>
      <trkpt lat="43.06117" lon="-1.2127">
        <ele>830.854543</ele>
        <time>2026-05-22T11:47:21.000Z</time>
      </trkpt>
      <trkpt lat="43.06118" lon="-1.21268">
        <ele>830.98905</ele>
        <time>2026-05-22T11:47:22.000Z</time>
      </trkpt>
      <trkpt lat="43.06118" lon="-1.21267">
        <ele>831.11363</ele>
        <time>2026-05-22T11:47:23.000Z</time>
      </trkpt>
      <trkpt lat="43.06119" lon="-1.21265">
        <ele>831.238625</ele>
        <time>2026-05-22T11:47:24.000Z</time>
      </trkpt>
      <trkpt lat="43.0612" lon="-1.21264">
        <ele>831.373047</ele>
        <time>2026-05-22T11:47:25.000Z</time>
      </trkpt>
      <trkpt lat="43.06121" lon="-1.21262">
        <ele>831.484145</ele>
        <time>2026-05-22T11:47:26.000Z</time>
      </trkpt>
      <trkpt lat="43.06121" lon="-1.2126">
        <ele>831.607085</ele>
        <time>2026-05-22T11:47:27.000Z</time>
      </trkpt>
      <trkpt lat="43.06122" lon="-1.21258">
        <ele>831.736013</ele>
        <time>2026-05-22T11:47:28.000Z</time>
      </trkpt>
      <trkpt lat="43.06122" lon="-1.21256">
        <ele>831.877548</ele>
        <time>2026-05-22T11:47:29.000Z</time>
      </trkpt>
      <trkpt lat="43.06123" lon="-1.21254">
        <ele>832.033463</ele>
        <time>2026-05-22T11:47:30.000Z</time>
      </trkpt>
      <trkpt lat="43.06123" lon="-1.21252">
        <ele>832.198441</ele>
        <time>2026-05-22T11:47:31.000Z</time>
      </trkpt>
      <trkpt lat="43.06124" lon="-1.21249">
        <ele>832.346314</ele>
        <time>2026-05-22T11:47:32.000Z</time>
      </trkpt>
      <trkpt lat="43.06124" lon="-1.21247">
        <ele>832.493404</ele>
        <time>2026-05-22T11:47:33.000Z</time>
      </trkpt>
      <trkpt lat="43.06124" lon="-1.21245">
        <ele>832.627472</ele>
        <time>2026-05-22T11:47:34.000Z</time>
      </trkpt>
      <trkpt lat="43.06124" lon="-1.21243">
        <ele>832.73857</ele>
        <time>2026-05-22T11:47:35.000Z</time>
      </trkpt>
      <trkpt lat="43.06123" lon="-1.21242">
        <ele>832.86151</ele>
        <time>2026-05-22T11:47:36.000Z</time>
      </trkpt>
      <trkpt lat="43.06123" lon="-1.2124">
        <ele>832.98281</ele>
        <time>2026-05-22T11:47:37.000Z</time>
      </trkpt>
      <trkpt lat="43.06123" lon="-1.21238">
        <ele>833.106909</ele>
        <time>2026-05-22T11:47:38.000Z</time>
      </trkpt>
      <trkpt lat="43.06123" lon="-1.21236">
        <ele>833.216838</ele>
        <time>2026-05-22T11:47:39.000Z</time>
      </trkpt>
      <trkpt lat="43.06123" lon="-1.21234">
        <ele>833.325721</ele>
        <time>2026-05-22T11:47:40.000Z</time>
      </trkpt>
      <trkpt lat="43.06123" lon="-1.21232">
        <ele>833.474878</ele>
        <time>2026-05-22T11:47:41.000Z</time>
      </trkpt>
      <trkpt lat="43.06123" lon="-1.2123">
        <ele>833.61008</ele>
        <time>2026-05-22T11:47:42.000Z</time>
      </trkpt>
      <trkpt lat="43.06123" lon="-1.21228">
        <ele>833.727947</ele>
        <time>2026-05-22T11:47:43.000Z</time>
      </trkpt>
      <trkpt lat="43.06122" lon="-1.21226">
        <ele>833.869526</ele>
        <time>2026-05-22T11:47:44.000Z</time>
      </trkpt>
      <trkpt lat="43.06122" lon="-1.21224">
        <ele>834.008075</ele>
        <time>2026-05-22T11:47:45.000Z</time>
      </trkpt>
      <trkpt lat="43.06121" lon="-1.21222">
        <ele>834.119727</ele>
        <time>2026-05-22T11:47:46.000Z</time>
      </trkpt>
      <trkpt lat="43.06121" lon="-1.21221">
        <ele>834.228609</ele>
        <time>2026-05-22T11:47:47.000Z</time>
      </trkpt>
      <trkpt lat="43.06121" lon="-1.21219">
        <ele>834.369616</ele>
        <time>2026-05-22T11:47:48.000Z</time>
      </trkpt>
      <trkpt lat="43.0612" lon="-1.21217">
        <ele>834.504567</ele>
        <time>2026-05-22T11:47:49.000Z</time>
      </trkpt>
      <trkpt lat="43.06119" lon="-1.21215">
        <ele>834.633663</ele>
        <time>2026-05-22T11:47:50.000Z</time>
      </trkpt>
      <trkpt lat="43.06119" lon="-1.21213">
        <ele>834.762758</ele>
        <time>2026-05-22T11:47:51.000Z</time>
      </trkpt>
      <trkpt lat="43.06118" lon="-1.21212">
        <ele>834.876388</ele>
        <time>2026-05-22T11:47:52.000Z</time>
      </trkpt>
      <trkpt lat="43.06117" lon="-1.2121">
        <ele>834.984899</ele>
        <time>2026-05-22T11:47:53.000Z</time>
      </trkpt>
      <trkpt lat="43.06116" lon="-1.21209">
        <ele>835.103959</ele>
        <time>2026-05-22T11:47:54.000Z</time>
      </trkpt>
      <trkpt lat="43.06116" lon="-1.21207">
        <ele>835.217589</ele>
        <time>2026-05-22T11:47:55.000Z</time>
      </trkpt>
      <trkpt lat="43.06115" lon="-1.21206">
        <ele>835.310717</ele>
        <time>2026-05-22T11:47:56.000Z</time>
      </trkpt>
      <trkpt lat="43.06114" lon="-1.21205">
        <ele>835.43123</ele>
        <time>2026-05-22T11:47:57.000Z</time>
      </trkpt>
      <trkpt lat="43.06113" lon="-1.21203">
        <ele>835.562482</ele>
        <time>2026-05-22T11:47:58.000Z</time>
      </trkpt>
      <trkpt lat="43.06112" lon="-1.21202">
        <ele>835.666103</ele>
        <time>2026-05-22T11:47:59.000Z</time>
      </trkpt>
      <trkpt lat="43.06112" lon="-1.21201">
        <ele>835.765588</ele>
        <time>2026-05-22T11:48:00.000Z</time>
      </trkpt>
      <trkpt lat="43.06111" lon="-1.21199">
        <ele>835.880404</ele>
        <time>2026-05-22T11:48:01.000Z</time>
      </trkpt>
      <trkpt lat="43.0611" lon="-1.21197">
        <ele>836.0095</ele>
        <time>2026-05-22T11:48:02.000Z</time>
      </trkpt>
      <trkpt lat="43.0611" lon="-1.21196">
        <ele>836.130031</ele>
        <time>2026-05-22T11:48:03.000Z</time>
      </trkpt>
      <trkpt lat="43.06109" lon="-1.21194">
        <ele>836.243661</ele>
        <time>2026-05-22T11:48:04.000Z</time>
      </trkpt>
      <trkpt lat="43.06108" lon="-1.21193">
        <ele>836.362711</ele>
        <time>2026-05-22T11:48:05.000Z</time>
      </trkpt>
      <trkpt lat="43.06107" lon="-1.21191">
        <ele>836.481274</ele>
        <time>2026-05-22T11:48:06.000Z</time>
      </trkpt>
      <trkpt lat="43.06107" lon="-1.2119">
        <ele>836.615302</ele>
        <time>2026-05-22T11:48:07.000Z</time>
      </trkpt>
      <trkpt lat="43.06105" lon="-1.21188">
        <ele>836.746555</ele>
        <time>2026-05-22T11:48:08.000Z</time>
      </trkpt>
      <trkpt lat="43.06105" lon="-1.21187">
        <ele>836.875468</ele>
        <time>2026-05-22T11:48:09.000Z</time>
      </trkpt>
      <trkpt lat="43.06104" lon="-1.21185">
        <ele>837.00989</ele>
        <time>2026-05-22T11:48:10.000Z</time>
      </trkpt>
      <trkpt lat="43.06102" lon="-1.21184">
        <ele>837.136881</ele>
        <time>2026-05-22T11:48:11.000Z</time>
      </trkpt>
      <trkpt lat="43.06101" lon="-1.21183">
        <ele>837.263081</ele>
        <time>2026-05-22T11:48:12.000Z</time>
      </trkpt>
      <trkpt lat="43.061" lon="-1.21182">
        <ele>837.375063</ele>
        <time>2026-05-22T11:48:13.000Z</time>
      </trkpt>
      <trkpt lat="43.06099" lon="-1.21181">
        <ele>837.487165</ele>
        <time>2026-05-22T11:48:14.000Z</time>
      </trkpt>
      <trkpt lat="43.06098" lon="-1.21179">
        <ele>837.611081</ele>
        <time>2026-05-22T11:48:15.000Z</time>
      </trkpt>
      <trkpt lat="43.06097" lon="-1.21178">
        <ele>837.731594</ele>
        <time>2026-05-22T11:48:16.000Z</time>
      </trkpt>
      <trkpt lat="43.06096" lon="-1.21177">
        <ele>837.850633</ele>
        <time>2026-05-22T11:48:17.000Z</time>
      </trkpt>
      <trkpt lat="43.06095" lon="-1.21175">
        <ele>837.986314</ele>
        <time>2026-05-22T11:48:18.000Z</time>
      </trkpt>
      <trkpt lat="43.06094" lon="-1.21174">
        <ele>838.121994</ele>
        <time>2026-05-22T11:48:19.000Z</time>
      </trkpt>
      <trkpt lat="43.06093" lon="-1.21172">
        <ele>838.248985</ele>
        <time>2026-05-22T11:48:20.000Z</time>
      </trkpt>
      <trkpt lat="43.06092" lon="-1.21171">
        <ele>838.369498</ele>
        <time>2026-05-22T11:48:21.000Z</time>
      </trkpt>
      <trkpt lat="43.06091" lon="-1.21169">
        <ele>838.498412</ele>
        <time>2026-05-22T11:48:22.000Z</time>
      </trkpt>
      <trkpt lat="43.0609" lon="-1.21168">
        <ele>838.612747</ele>
        <time>2026-05-22T11:48:23.000Z</time>
      </trkpt>
      <trkpt lat="43.06089" lon="-1.21167">
        <ele>838.746296</ele>
        <time>2026-05-22T11:48:24.000Z</time>
      </trkpt>
      <trkpt lat="43.06088" lon="-1.21166">
        <ele>838.872496</ele>
        <time>2026-05-22T11:48:25.000Z</time>
      </trkpt>
      <trkpt lat="43.06086" lon="-1.21165">
        <ele>839.010485</ele>
        <time>2026-05-22T11:48:26.000Z</time>
      </trkpt>
      <trkpt lat="43.06085" lon="-1.21164">
        <ele>839.151541</ele>
        <time>2026-05-22T11:48:27.000Z</time>
      </trkpt>
      <trkpt lat="43.06084" lon="-1.21163">
        <ele>839.263523</ele>
        <time>2026-05-22T11:48:28.000Z</time>
      </trkpt>
      <trkpt lat="43.06082" lon="-1.21162">
        <ele>839.396089</ele>
        <time>2026-05-22T11:48:29.000Z</time>
      </trkpt>
      <trkpt lat="43.06081" lon="-1.21161">
        <ele>839.539199</ele>
        <time>2026-05-22T11:48:30.000Z</time>
      </trkpt>
      <trkpt lat="43.06079" lon="-1.2116">
        <ele>839.677188</ele>
        <time>2026-05-22T11:48:31.000Z</time>
      </trkpt>
      <trkpt lat="43.06078" lon="-1.21159">
        <ele>839.796227</ele>
        <time>2026-05-22T11:48:32.000Z</time>
      </trkpt>
      <trkpt lat="43.06077" lon="-1.21158">
        <ele>839.911616</ele>
        <time>2026-05-22T11:48:33.000Z</time>
      </trkpt>
      <trkpt lat="43.06076" lon="-1.21157">
        <ele>840.031182</ele>
        <time>2026-05-22T11:48:34.000Z</time>
      </trkpt>
      <trkpt lat="43.06075" lon="-1.21156">
        <ele>840.147815</ele>
        <time>2026-05-22T11:48:35.000Z</time>
      </trkpt>
      <trkpt lat="43.06073" lon="-1.21156">
        <ele>840.269884</ele>
        <time>2026-05-22T11:48:36.000Z</time>
      </trkpt>
      <trkpt lat="43.06072" lon="-1.21155">
        <ele>840.397182</ele>
        <time>2026-05-22T11:48:37.000Z</time>
      </trkpt>
      <trkpt lat="43.06071" lon="-1.21154">
        <ele>840.527487</ele>
        <time>2026-05-22T11:48:38.000Z</time>
      </trkpt>
      <trkpt lat="43.0607" lon="-1.21153">
        <ele>840.642876</ele>
        <time>2026-05-22T11:48:39.000Z</time>
      </trkpt>
      <trkpt lat="43.06069" lon="-1.21152">
        <ele>840.75172</ele>
        <time>2026-05-22T11:48:40.000Z</time>
      </trkpt>
      <trkpt lat="43.06068" lon="-1.21151">
        <ele>840.85519</ele>
        <time>2026-05-22T11:48:41.000Z</time>
      </trkpt>
      <trkpt lat="43.06066" lon="-1.21151">
        <ele>840.981618</ele>
        <time>2026-05-22T11:48:42.000Z</time>
      </trkpt>
      <trkpt lat="43.06065" lon="-1.21151">
        <ele>841.10544</ele>
        <time>2026-05-22T11:48:43.000Z</time>
      </trkpt>
      <trkpt lat="43.06064" lon="-1.2115">
        <ele>841.215047</ele>
        <time>2026-05-22T11:48:44.000Z</time>
      </trkpt>
      <trkpt lat="43.06062" lon="-1.2115">
        <ele>841.331475</ele>
        <time>2026-05-22T11:48:45.000Z</time>
      </trkpt>
      <trkpt lat="43.06061" lon="-1.21149">
        <ele>841.472144</ele>
        <time>2026-05-22T11:48:46.000Z</time>
      </trkpt>
      <trkpt lat="43.06059" lon="-1.21148">
        <ele>841.613201</ele>
        <time>2026-05-22T11:48:47.000Z</time>
      </trkpt>
      <trkpt lat="43.06058" lon="-1.21147">
        <ele>841.714412</ele>
        <time>2026-05-22T11:48:48.000Z</time>
      </trkpt>
      <trkpt lat="43.06057" lon="-1.21147">
        <ele>841.803866</ele>
        <time>2026-05-22T11:48:49.000Z</time>
      </trkpt>
      <trkpt lat="43.06056" lon="-1.21147">
        <ele>841.918175</ele>
        <time>2026-05-22T11:48:50.000Z</time>
      </trkpt>
      <trkpt lat="43.06055" lon="-1.21146">
        <ele>842.024766</ele>
        <time>2026-05-22T11:48:51.000Z</time>
      </trkpt>
      <trkpt lat="43.06054" lon="-1.21146">
        <ele>842.138539</ele>
        <time>2026-05-22T11:48:52.000Z</time>
      </trkpt>
      <trkpt lat="43.06052" lon="-1.21146">
        <ele>842.260871</ele>
        <time>2026-05-22T11:48:53.000Z</time>
      </trkpt>
      <trkpt lat="43.06051" lon="-1.21146">
        <ele>842.383202</ele>
        <time>2026-05-22T11:48:54.000Z</time>
      </trkpt>
      <trkpt lat="43.06049" lon="-1.21146">
        <ele>842.532296</ele>
        <time>2026-05-22T11:48:55.000Z</time>
      </trkpt>
      <trkpt lat="43.06047" lon="-1.21146">
        <ele>842.672103</ele>
        <time>2026-05-22T11:48:56.000Z</time>
      </trkpt>
      <trkpt lat="43.06046" lon="-1.21146">
        <ele>842.787962</ele>
        <time>2026-05-22T11:48:57.000Z</time>
      </trkpt>
      <trkpt lat="43.06045" lon="-1.21146">
        <ele>842.903022</ele>
        <time>2026-05-22T11:48:58.000Z</time>
      </trkpt>
      <trkpt lat="43.06044" lon="-1.21145">
        <ele>843.031164</ele>
        <time>2026-05-22T11:48:59.000Z</time>
      </trkpt>
      <trkpt lat="43.06042" lon="-1.21144">
        <ele>843.167883</ele>
        <time>2026-05-22T11:49:00.000Z</time>
      </trkpt>
      <trkpt lat="43.06041" lon="-1.21144">
        <ele>843.299069</ele>
        <time>2026-05-22T11:49:01.000Z</time>
      </trkpt>
      <trkpt lat="43.0604" lon="-1.21143">
        <ele>843.407686</ele>
        <time>2026-05-22T11:49:02.000Z</time>
      </trkpt>
      <trkpt lat="43.06038" lon="-1.21143">
        <ele>843.540404</ele>
        <time>2026-05-22T11:49:03.000Z</time>
      </trkpt>
      <trkpt lat="43.06037" lon="-1.21142">
        <ele>843.671591</ele>
        <time>2026-05-22T11:49:04.000Z</time>
      </trkpt>
      <trkpt lat="43.06036" lon="-1.21143">
        <ele>843.800184</ele>
        <time>2026-05-22T11:49:05.000Z</time>
      </trkpt>
      <trkpt lat="43.06034" lon="-1.21142">
        <ele>843.921112</ele>
        <time>2026-05-22T11:49:06.000Z</time>
      </trkpt>
      <trkpt lat="43.06033" lon="-1.21142">
        <ele>844.049254</ele>
        <time>2026-05-22T11:49:07.000Z</time>
      </trkpt>
      <trkpt lat="43.06032" lon="-1.21141">
        <ele>844.16925</ele>
        <time>2026-05-22T11:49:08.000Z</time>
      </trkpt>
      <trkpt lat="43.0603" lon="-1.21141">
        <ele>844.297843</ele>
        <time>2026-05-22T11:49:09.000Z</time>
      </trkpt>
      <trkpt lat="43.06029" lon="-1.21141">
        <ele>844.411133</ele>
        <time>2026-05-22T11:49:10.000Z</time>
      </trkpt>
      <trkpt lat="43.06028" lon="-1.2114">
        <ele>844.534997</ele>
        <time>2026-05-22T11:49:11.000Z</time>
      </trkpt>
      <trkpt lat="43.06026" lon="-1.2114">
        <ele>844.671716</ele>
        <time>2026-05-22T11:49:12.000Z</time>
      </trkpt>
      <trkpt lat="43.06025" lon="-1.21139">
        <ele>844.819384</ele>
        <time>2026-05-22T11:49:13.000Z</time>
      </trkpt>
      <trkpt lat="43.06024" lon="-1.21138">
        <ele>844.925632</ele>
        <time>2026-05-22T11:49:14.000Z</time>
      </trkpt>
      <trkpt lat="43.06023" lon="-1.21137">
        <ele>845.035414</ele>
        <time>2026-05-22T11:49:15.000Z</time>
      </trkpt>
      <trkpt lat="43.06022" lon="-1.21136">
        <ele>845.149674</ele>
        <time>2026-05-22T11:49:16.000Z</time>
      </trkpt>
      <trkpt lat="43.06021" lon="-1.21136">
        <ele>845.258291</ele>
        <time>2026-05-22T11:49:17.000Z</time>
      </trkpt>
      <trkpt lat="43.0602" lon="-1.21135">
        <ele>845.368073</ele>
        <time>2026-05-22T11:49:18.000Z</time>
      </trkpt>
      <trkpt lat="43.06019" lon="-1.21134">
        <ele>845.493036</ele>
        <time>2026-05-22T11:49:19.000Z</time>
      </trkpt>
      <trkpt lat="43.06017" lon="-1.21133">
        <ele>845.61059</ele>
        <time>2026-05-22T11:49:20.000Z</time>
      </trkpt>
      <trkpt lat="43.06016" lon="-1.21132">
        <ele>845.713618</ele>
        <time>2026-05-22T11:49:21.000Z</time>
      </trkpt>
      <trkpt lat="43.06015" lon="-1.21131">
        <ele>845.834747</ele>
        <time>2026-05-22T11:49:22.000Z</time>
      </trkpt>
      <trkpt lat="43.06014" lon="-1.2113">
        <ele>845.952428</ele>
        <time>2026-05-22T11:49:23.000Z</time>
      </trkpt>
      <trkpt lat="43.06013" lon="-1.21129">
        <ele>846.08251</ele>
        <time>2026-05-22T11:49:24.000Z</time>
      </trkpt>
      <trkpt lat="43.06013" lon="-1.21127">
        <ele>846.205327</ele>
        <time>2026-05-22T11:49:25.000Z</time>
      </trkpt>
      <trkpt lat="43.06013" lon="-1.21125">
        <ele>846.320728</ele>
        <time>2026-05-22T11:49:26.000Z</time>
      </trkpt>
      <trkpt lat="43.06012" lon="-1.21124">
        <ele>846.445713</ele>
        <time>2026-05-22T11:49:27.000Z</time>
      </trkpt>
      <trkpt lat="43.06011" lon="-1.21122">
        <ele>846.564998</ele>
        <time>2026-05-22T11:49:28.000Z</time>
      </trkpt>
      <trkpt lat="43.06011" lon="-1.21121">
        <ele>846.675495</ele>
        <time>2026-05-22T11:49:29.000Z</time>
      </trkpt>
      <trkpt lat="43.0601" lon="-1.21119">
        <ele>846.792122</ele>
        <time>2026-05-22T11:49:30.000Z</time>
      </trkpt>
      <trkpt lat="43.0601" lon="-1.21117">
        <ele>846.902828</ele>
        <time>2026-05-22T11:49:31.000Z</time>
      </trkpt>
      <trkpt lat="43.0601" lon="-1.21116">
        <ele>847.01045</ele>
        <time>2026-05-22T11:49:32.000Z</time>
      </trkpt>
      <trkpt lat="43.0601" lon="-1.21114">
        <ele>847.119239</ele>
        <time>2026-05-22T11:49:33.000Z</time>
      </trkpt>
      <trkpt lat="43.0601" lon="-1.21112">
        <ele>847.258209</ele>
        <time>2026-05-22T11:49:34.000Z</time>
      </trkpt>
      <trkpt lat="43.06009" lon="-1.2111">
        <ele>847.38899</ele>
        <time>2026-05-22T11:49:35.000Z</time>
      </trkpt>
      <trkpt lat="43.06008" lon="-1.21109">
        <ele>847.525648</ele>
        <time>2026-05-22T11:49:36.000Z</time>
      </trkpt>
      <trkpt lat="43.06008" lon="-1.21107">
        <ele>847.654707</ele>
        <time>2026-05-22T11:49:37.000Z</time>
      </trkpt>
      <trkpt lat="43.06007" lon="-1.21105">
        <ele>847.778441</ele>
        <time>2026-05-22T11:49:38.000Z</time>
      </trkpt>
      <trkpt lat="43.06007" lon="-1.21103">
        <ele>847.907093</ele>
        <time>2026-05-22T11:49:39.000Z</time>
      </trkpt>
      <trkpt lat="43.06007" lon="-1.21101">
        <ele>848.028076</ele>
        <time>2026-05-22T11:49:40.000Z</time>
      </trkpt>
      <trkpt lat="43.06007" lon="-1.211">
        <ele>848.136865</ele>
        <time>2026-05-22T11:49:41.000Z</time>
      </trkpt>
      <trkpt lat="43.06007" lon="-1.21098">
        <ele>848.258887</ele>
        <time>2026-05-22T11:49:42.000Z</time>
      </trkpt>
      <trkpt lat="43.06007" lon="-1.21096">
        <ele>848.37987</ele>
        <time>2026-05-22T11:49:43.000Z</time>
      </trkpt>
      <trkpt lat="43.06007" lon="-1.21094">
        <ele>848.494171</ele>
        <time>2026-05-22T11:49:44.000Z</time>
      </trkpt>
      <trkpt lat="43.06007" lon="-1.21093">
        <ele>848.601794</ele>
        <time>2026-05-22T11:49:45.000Z</time>
      </trkpt>
      <trkpt lat="43.06006" lon="-1.21091">
        <ele>848.709417</ele>
        <time>2026-05-22T11:49:46.000Z</time>
      </trkpt>
      <trkpt lat="43.06006" lon="-1.2109">
        <ele>848.826626</ele>
        <time>2026-05-22T11:49:47.000Z</time>
      </trkpt>
      <trkpt lat="43.06006" lon="-1.21088">
        <ele>848.947609</ele>
        <time>2026-05-22T11:49:48.000Z</time>
      </trkpt>
      <trkpt lat="43.06006" lon="-1.21086">
        <ele>849.061542</ele>
        <time>2026-05-22T11:49:49.000Z</time>
      </trkpt>
      <trkpt lat="43.06006" lon="-1.21084">
        <ele>849.175844</ele>
        <time>2026-05-22T11:49:50.000Z</time>
      </trkpt>
      <trkpt lat="43.06006" lon="-1.21083">
        <ele>849.296827</ele>
        <time>2026-05-22T11:49:51.000Z</time>
      </trkpt>
      <trkpt lat="43.06006" lon="-1.21081">
        <ele>849.411129</ele>
        <time>2026-05-22T11:49:52.000Z</time>
      </trkpt>
      <trkpt lat="43.06006" lon="-1.21079">
        <ele>849.526529</ele>
        <time>2026-05-22T11:49:53.000Z</time>
      </trkpt>
      <trkpt lat="43.06006" lon="-1.21077">
        <ele>849.640462</ele>
        <time>2026-05-22T11:49:54.000Z</time>
      </trkpt>
      <trkpt lat="43.06006" lon="-1.21076">
        <ele>849.754764</ele>
        <time>2026-05-22T11:49:55.000Z</time>
      </trkpt>
      <trkpt lat="43.06006" lon="-1.21074">
        <ele>849.878498</ele>
        <time>2026-05-22T11:49:56.000Z</time>
      </trkpt>
      <trkpt lat="43.06005" lon="-1.21072">
        <ele>850.001315</ele>
        <time>2026-05-22T11:49:57.000Z</time>
      </trkpt>
      <trkpt lat="43.06005" lon="-1.2107">
        <ele>850.129967</ele>
        <time>2026-05-22T11:49:58.000Z</time>
      </trkpt>
      <trkpt lat="43.06005" lon="-1.21068">
        <ele>850.257634</ele>
        <time>2026-05-22T11:49:59.000Z</time>
      </trkpt>
      <trkpt lat="43.06005" lon="-1.21067">
        <ele>850.379656</ele>
        <time>2026-05-22T11:50:00.000Z</time>
      </trkpt>
      <trkpt lat="43.06005" lon="-1.21065">
        <ele>850.500639</ele>
        <time>2026-05-22T11:50:01.000Z</time>
      </trkpt>
      <trkpt lat="43.06004" lon="-1.21063">
        <ele>850.617848</ele>
        <time>2026-05-22T11:50:02.000Z</time>
      </trkpt>
      <trkpt lat="43.06004" lon="-1.21061">
        <ele>850.737543</ele>
        <time>2026-05-22T11:50:03.000Z</time>
      </trkpt>
      <trkpt lat="43.06004" lon="-1.2106">
        <ele>850.857239</ele>
        <time>2026-05-22T11:50:04.000Z</time>
      </trkpt>
      <trkpt lat="43.06003" lon="-1.21058">
        <ele>850.964861</ele>
        <time>2026-05-22T11:50:05.000Z</time>
      </trkpt>
      <trkpt lat="43.06003" lon="-1.21056">
        <ele>851.085496</ele>
        <time>2026-05-22T11:50:06.000Z</time>
      </trkpt>
      <trkpt lat="43.06003" lon="-1.21055">
        <ele>851.20923</ele>
        <time>2026-05-22T11:50:07.000Z</time>
      </trkpt>
      <trkpt lat="43.06003" lon="-1.21053">
        <ele>851.323532</ele>
        <time>2026-05-22T11:50:08.000Z</time>
      </trkpt>
      <trkpt lat="43.06003" lon="-1.21051">
        <ele>851.430763</ele>
        <time>2026-05-22T11:50:09.000Z</time>
      </trkpt>
      <trkpt lat="43.06003" lon="-1.2105">
        <ele>851.545065</ele>
        <time>2026-05-22T11:50:10.000Z</time>
      </trkpt>
      <trkpt lat="43.06003" lon="-1.21048">
        <ele>851.655771</ele>
        <time>2026-05-22T11:50:11.000Z</time>
      </trkpt>
      <trkpt lat="43.06003" lon="-1.21046">
        <ele>851.763393</ele>
        <time>2026-05-22T11:50:12.000Z</time>
      </trkpt>
      <trkpt lat="43.06002" lon="-1.21045">
        <ele>851.872182</ele>
        <time>2026-05-22T11:50:13.000Z</time>
      </trkpt>
      <trkpt lat="43.06002" lon="-1.21043">
        <ele>851.974372</ele>
        <time>2026-05-22T11:50:14.000Z</time>
      </trkpt>
      <trkpt lat="43.06002" lon="-1.21042">
        <ele>852.076561</ele>
        <time>2026-05-22T11:50:15.000Z</time>
      </trkpt>
      <trkpt lat="43.06002" lon="-1.2104">
        <ele>852.190494</ele>
        <time>2026-05-22T11:50:16.000Z</time>
      </trkpt>
      <trkpt lat="43.06002" lon="-1.21038">
        <ele>852.305895</ele>
        <time>2026-05-22T11:50:17.000Z</time>
      </trkpt>
      <trkpt lat="43.06001" lon="-1.21037">
        <ele>852.423104</ele>
        <time>2026-05-22T11:50:18.000Z</time>
      </trkpt>
      <trkpt lat="43.06001" lon="-1.21035">
        <ele>852.530727</ele>
        <time>2026-05-22T11:50:19.000Z</time>
      </trkpt>
      <trkpt lat="43.06001" lon="-1.21033">
        <ele>852.639516</ele>
        <time>2026-05-22T11:50:20.000Z</time>
      </trkpt>
      <trkpt lat="43.06001" lon="-1.21032">
        <ele>852.759211</ele>
        <time>2026-05-22T11:50:21.000Z</time>
      </trkpt>
      <trkpt lat="43.06" lon="-1.2103">
        <ele>852.891808</ele>
        <time>2026-05-22T11:50:22.000Z</time>
      </trkpt>
      <trkpt lat="43.05999" lon="-1.21028">
        <ele>853.028467</ele>
        <time>2026-05-22T11:50:23.000Z</time>
      </trkpt>
      <trkpt lat="43.05999" lon="-1.21026">
        <ele>853.157526</ele>
        <time>2026-05-22T11:50:24.000Z</time>
      </trkpt>
      <trkpt lat="43.05998" lon="-1.21025">
        <ele>853.268023</ele>
        <time>2026-05-22T11:50:25.000Z</time>
      </trkpt>
      <trkpt lat="43.05998" lon="-1.21023">
        <ele>853.381358</ele>
        <time>2026-05-22T11:50:26.000Z</time>
      </trkpt>
      <trkpt lat="43.05998" lon="-1.21022">
        <ele>853.491855</ele>
        <time>2026-05-22T11:50:27.000Z</time>
      </trkpt>
      <trkpt lat="43.05997" lon="-1.2102">
        <ele>853.61155</ele>
        <time>2026-05-22T11:50:28.000Z</time>
      </trkpt>
      <trkpt lat="43.05997" lon="-1.21018">
        <ele>853.740609</ele>
        <time>2026-05-22T11:50:29.000Z</time>
      </trkpt>
      <trkpt lat="43.05996" lon="-1.21016">
        <ele>853.864343</ele>
        <time>2026-05-22T11:50:30.000Z</time>
      </trkpt>
      <trkpt lat="43.05996" lon="-1.21014">
        <ele>853.999632</ele>
        <time>2026-05-22T11:50:31.000Z</time>
      </trkpt>
      <trkpt lat="43.05996" lon="-1.21013">
        <ele>854.129908</ele>
        <time>2026-05-22T11:50:32.000Z</time>
      </trkpt>
      <trkpt lat="43.05995" lon="-1.21011">
        <ele>854.249194</ele>
        <time>2026-05-22T11:50:33.000Z</time>
      </trkpt>
      <trkpt lat="43.05995" lon="-1.21009">
        <ele>854.369724</ele>
        <time>2026-05-22T11:50:34.000Z</time>
      </trkpt>
      <trkpt lat="43.05994" lon="-1.21008">
        <ele>854.502242</ele>
        <time>2026-05-22T11:50:35.000Z</time>
      </trkpt>
      <trkpt lat="43.05994" lon="-1.21006">
        <ele>854.630893</ele>
        <time>2026-05-22T11:50:36.000Z</time>
      </trkpt>
      <trkpt lat="43.05993" lon="-1.21004">
        <ele>854.753711</ele>
        <time>2026-05-22T11:50:37.000Z</time>
      </trkpt>
      <trkpt lat="43.05993" lon="-1.21002">
        <ele>854.89538</ele>
        <time>2026-05-22T11:50:38.000Z</time>
      </trkpt>
      <trkpt lat="43.05992" lon="-1.21">
        <ele>855.03799</ele>
        <time>2026-05-22T11:50:39.000Z</time>
      </trkpt>
      <trkpt lat="43.05992" lon="-1.20998">
        <ele>855.183435</ele>
        <time>2026-05-22T11:50:40.000Z</time>
      </trkpt>
      <trkpt lat="43.05992" lon="-1.20996">
        <ele>855.312087</ele>
        <time>2026-05-22T11:50:41.000Z</time>
      </trkpt>
      <trkpt lat="43.05992" lon="-1.20994">
        <ele>855.43307</ele>
        <time>2026-05-22T11:50:42.000Z</time>
      </trkpt>
      <trkpt lat="43.05991" lon="-1.20992">
        <ele>855.576476</ele>
        <time>2026-05-22T11:50:43.000Z</time>
      </trkpt>
      <trkpt lat="43.05991" lon="-1.2099">
        <ele>855.724502</ele>
        <time>2026-05-22T11:50:44.000Z</time>
      </trkpt>
      <trkpt lat="43.0599" lon="-1.20988">
        <ele>855.867112</ele>
        <time>2026-05-22T11:50:45.000Z</time>
      </trkpt>
      <trkpt lat="43.0599" lon="-1.20986">
        <ele>856.015137</ele>
        <time>2026-05-22T11:50:46.000Z</time>
      </trkpt>
      <trkpt lat="43.05989" lon="-1.20984">
        <ele>856.147655</ele>
        <time>2026-05-22T11:50:47.000Z</time>
      </trkpt>
      <trkpt lat="43.05989" lon="-1.20982">
        <ele>856.263056</ele>
        <time>2026-05-22T11:50:48.000Z</time>
      </trkpt>
      <trkpt lat="43.05989" lon="-1.20981">
        <ele>856.377358</ele>
        <time>2026-05-22T11:50:49.000Z</time>
      </trkpt>
      <trkpt lat="43.05988" lon="-1.20979">
        <ele>856.497053</ele>
        <time>2026-05-22T11:50:50.000Z</time>
      </trkpt>
      <trkpt lat="43.05988" lon="-1.20977">
        <ele>856.629571</ele>
        <time>2026-05-22T11:50:51.000Z</time>
      </trkpt>
      <trkpt lat="43.05988" lon="-1.20975">
        <ele>856.76486</ele>
        <time>2026-05-22T11:50:52.000Z</time>
      </trkpt>
      <trkpt lat="43.05988" lon="-1.20973">
        <ele>856.900149</ele>
        <time>2026-05-22T11:50:53.000Z</time>
      </trkpt>
      <trkpt lat="43.05987" lon="-1.20971">
        <ele>857.026241</ele>
        <time>2026-05-22T11:50:54.000Z</time>
      </trkpt>
      <trkpt lat="43.05987" lon="-1.20969">
        <ele>857.161529</ele>
        <time>2026-05-22T11:50:55.000Z</time>
      </trkpt>
      <trkpt lat="43.05987" lon="-1.20967">
        <ele>857.291806</ele>
        <time>2026-05-22T11:50:56.000Z</time>
      </trkpt>
      <trkpt lat="43.05986" lon="-1.20966">
        <ele>857.402303</ele>
        <time>2026-05-22T11:50:57.000Z</time>
      </trkpt>
      <trkpt lat="43.05986" lon="-1.20964">
        <ele>857.521999</ele>
        <time>2026-05-22T11:50:58.000Z</time>
      </trkpt>
      <trkpt lat="43.05986" lon="-1.20962">
        <ele>857.663931</ele>
        <time>2026-05-22T11:50:59.000Z</time>
      </trkpt>
      <trkpt lat="43.05986" lon="-1.2096">
        <ele>857.812511</ele>
        <time>2026-05-22T11:51:00.000Z</time>
      </trkpt>
      <trkpt lat="43.05986" lon="-1.20958">
        <ele>857.940178</ele>
        <time>2026-05-22T11:51:01.000Z</time>
      </trkpt>
      <trkpt lat="43.05986" lon="-1.20956">
        <ele>858.074531</ele>
        <time>2026-05-22T11:51:02.000Z</time>
      </trkpt>
      <trkpt lat="43.05985" lon="-1.20954">
        <ele>858.223111</ele>
        <time>2026-05-22T11:51:03.000Z</time>
      </trkpt>
      <trkpt lat="43.05985" lon="-1.20952">
        <ele>858.370839</ele>
        <time>2026-05-22T11:51:04.000Z</time>
      </trkpt>
      <trkpt lat="43.05985" lon="-1.2095">
        <ele>858.498177</ele>
        <time>2026-05-22T11:51:05.000Z</time>
      </trkpt>
      <trkpt lat="43.05985" lon="-1.20948">
        <ele>858.63253</ele>
        <time>2026-05-22T11:51:06.000Z</time>
      </trkpt>
      <trkpt lat="43.05985" lon="-1.20946">
        <ele>858.766882</ele>
        <time>2026-05-22T11:51:07.000Z</time>
      </trkpt>
      <trkpt lat="43.05985" lon="-1.20944">
        <ele>858.901235</ele>
        <time>2026-05-22T11:51:08.000Z</time>
      </trkpt>
      <trkpt lat="43.05985" lon="-1.20941">
        <ele>859.05538</ele>
        <time>2026-05-22T11:51:09.000Z</time>
      </trkpt>
      <trkpt lat="43.05985" lon="-1.20939">
        <ele>859.209525</ele>
        <time>2026-05-22T11:51:10.000Z</time>
      </trkpt>
      <trkpt lat="43.05985" lon="-1.20937">
        <ele>859.335214</ele>
        <time>2026-05-22T11:51:11.000Z</time>
      </trkpt>
      <trkpt lat="43.05985" lon="-1.20935">
        <ele>859.450495</ele>
        <time>2026-05-22T11:51:12.000Z</time>
      </trkpt>
      <trkpt lat="43.05985" lon="-1.20933">
        <ele>859.569526</ele>
        <time>2026-05-22T11:51:13.000Z</time>
      </trkpt>
      <trkpt lat="43.05984" lon="-1.20931">
        <ele>859.699741</ele>
        <time>2026-05-22T11:51:14.000Z</time>
      </trkpt>
      <trkpt lat="43.05983" lon="-1.2093">
        <ele>859.816025</ele>
        <time>2026-05-22T11:51:15.000Z</time>
      </trkpt>
      <trkpt lat="43.05983" lon="-1.20928">
        <ele>859.927809</ele>
        <time>2026-05-22T11:51:16.000Z</time>
      </trkpt>
      <trkpt lat="43.05982" lon="-1.20926">
        <ele>860.039593</ele>
        <time>2026-05-22T11:51:17.000Z</time>
      </trkpt>
      <trkpt lat="43.05982" lon="-1.20924">
        <ele>860.158624</ele>
        <time>2026-05-22T11:51:18.000Z</time>
      </trkpt>
      <trkpt lat="43.05981" lon="-1.20922">
        <ele>860.274907</ele>
        <time>2026-05-22T11:51:19.000Z</time>
      </trkpt>
      <trkpt lat="43.0598" lon="-1.20921">
        <ele>860.391027</ele>
        <time>2026-05-22T11:51:20.000Z</time>
      </trkpt>
      <trkpt lat="43.05979" lon="-1.20919">
        <ele>860.508287</ele>
        <time>2026-05-22T11:51:21.000Z</time>
      </trkpt>
      <trkpt lat="43.05979" lon="-1.20917">
        <ele>860.625699</ele>
        <time>2026-05-22T11:51:22.000Z</time>
      </trkpt>
      <trkpt lat="43.05978" lon="-1.20915">
        <ele>860.739474</ele>
        <time>2026-05-22T11:51:23.000Z</time>
      </trkpt>
      <trkpt lat="43.05978" lon="-1.20914">
        <ele>860.846709</ele>
        <time>2026-05-22T11:51:24.000Z</time>
      </trkpt>
      <trkpt lat="43.05977" lon="-1.20912">
        <ele>860.955261</ele>
        <time>2026-05-22T11:51:25.000Z</time>
      </trkpt>
      <trkpt lat="43.05976" lon="-1.20911">
        <ele>861.071381</ele>
        <time>2026-05-22T11:51:26.000Z</time>
      </trkpt>
      <trkpt lat="43.05975" lon="-1.20909">
        <ele>861.182873</ele>
        <time>2026-05-22T11:51:27.000Z</time>
      </trkpt>
      <trkpt lat="43.05974" lon="-1.20908">
        <ele>861.28508</ele>
        <time>2026-05-22T11:51:28.000Z</time>
      </trkpt>
      <trkpt lat="43.05973" lon="-1.20906">
        <ele>861.373505</ele>
        <time>2026-05-22T11:51:29.000Z</time>
      </trkpt>
      <trkpt lat="43.05973" lon="-1.20905">
        <ele>861.466922</ele>
        <time>2026-05-22T11:51:30.000Z</time>
      </trkpt>
      <trkpt lat="43.05972" lon="-1.20904">
        <ele>861.565815</ele>
        <time>2026-05-22T11:51:31.000Z</time>
      </trkpt>
      <trkpt lat="43.05971" lon="-1.20903">
        <ele>861.663292</ele>
        <time>2026-05-22T11:51:32.000Z</time>
      </trkpt>
      <trkpt lat="43.0597" lon="-1.20902">
        <ele>861.76416</ele>
        <time>2026-05-22T11:51:33.000Z</time>
      </trkpt>
      <trkpt lat="43.05969" lon="-1.20901">
        <ele>861.858358</ele>
        <time>2026-05-22T11:51:34.000Z</time>
      </trkpt>
      <trkpt lat="43.05967" lon="-1.209">
        <ele>861.963415</ele>
        <time>2026-05-22T11:51:35.000Z</time>
      </trkpt>
      <trkpt lat="43.05966" lon="-1.209">
        <ele>862.062143</ele>
        <time>2026-05-22T11:51:36.000Z</time>
      </trkpt>
      <trkpt lat="43.05965" lon="-1.209">
        <ele>862.172931</ele>
        <time>2026-05-22T11:51:37.000Z</time>
      </trkpt>
      <trkpt lat="43.05963" lon="-1.209">
        <ele>862.28327</ele>
        <time>2026-05-22T11:51:38.000Z</time>
      </trkpt>
      <trkpt lat="43.05962" lon="-1.209">
        <ele>862.385589</ele>
        <time>2026-05-22T11:51:39.000Z</time>
      </trkpt>
      <trkpt lat="43.05961" lon="-1.209">
        <ele>862.495929</ele>
        <time>2026-05-22T11:51:40.000Z</time>
      </trkpt>
      <trkpt lat="43.05959" lon="-1.209">
        <ele>862.606118</ele>
        <time>2026-05-22T11:51:41.000Z</time>
      </trkpt>
      <trkpt lat="43.05958" lon="-1.209">
        <ele>862.716457</ele>
        <time>2026-05-22T11:51:42.000Z</time>
      </trkpt>
      <trkpt lat="43.05956" lon="-1.20899">
        <ele>862.842519</ele>
        <time>2026-05-22T11:51:43.000Z</time>
      </trkpt>
      <trkpt lat="43.05955" lon="-1.20899">
        <ele>862.960579</ele>
        <time>2026-05-22T11:51:44.000Z</time>
      </trkpt>
      <trkpt lat="43.05953" lon="-1.209">
        <ele>863.089751</ele>
        <time>2026-05-22T11:51:45.000Z</time>
      </trkpt>
      <trkpt lat="43.05952" lon="-1.20901">
        <ele>863.233214</ele>
        <time>2026-05-22T11:51:46.000Z</time>
      </trkpt>
      <trkpt lat="43.0595" lon="-1.20902">
        <ele>863.352621</ele>
        <time>2026-05-22T11:51:47.000Z</time>
      </trkpt>
      <trkpt lat="43.05949" lon="-1.20903">
        <ele>863.47436</ele>
        <time>2026-05-22T11:51:48.000Z</time>
      </trkpt>
      <trkpt lat="43.05947" lon="-1.20904">
        <ele>863.597775</ele>
        <time>2026-05-22T11:51:49.000Z</time>
      </trkpt>
      <trkpt lat="43.05946" lon="-1.20905">
        <ele>863.724496</ele>
        <time>2026-05-22T11:51:50.000Z</time>
      </trkpt>
      <trkpt lat="43.05945" lon="-1.20906">
        <ele>863.84495</ele>
        <time>2026-05-22T11:51:51.000Z</time>
      </trkpt>
      <trkpt lat="43.05944" lon="-1.20908">
        <ele>863.963176</ele>
        <time>2026-05-22T11:51:52.000Z</time>
      </trkpt>
      <trkpt lat="43.05943" lon="-1.20909">
        <ele>864.089516</ele>
        <time>2026-05-22T11:51:53.000Z</time>
      </trkpt>
      <trkpt lat="43.05942" lon="-1.20911">
        <ele>864.207742</ele>
        <time>2026-05-22T11:51:54.000Z</time>
      </trkpt>
      <trkpt lat="43.0594" lon="-1.20912">
        <ele>864.34157</ele>
        <time>2026-05-22T11:51:55.000Z</time>
      </trkpt>
      <trkpt lat="43.05939" lon="-1.20914">
        <ele>864.475398</ele>
        <time>2026-05-22T11:51:56.000Z</time>
      </trkpt>
      <trkpt lat="43.05938" lon="-1.20915">
        <ele>864.597613</ele>
        <time>2026-05-22T11:51:57.000Z</time>
      </trkpt>
      <trkpt lat="43.05937" lon="-1.20917">
        <ele>864.706165</ele>
        <time>2026-05-22T11:51:58.000Z</time>
      </trkpt>
      <trkpt lat="43.05936" lon="-1.20918">
        <ele>864.823138</ele>
        <time>2026-05-22T11:51:59.000Z</time>
      </trkpt>
      <trkpt lat="43.05935" lon="-1.20919">
        <ele>864.943592</ele>
        <time>2026-05-22T11:52:00.000Z</time>
      </trkpt>
      <trkpt lat="43.05933" lon="-1.2092">
        <ele>865.076749</ele>
        <time>2026-05-22T11:52:01.000Z</time>
      </trkpt>
      <trkpt lat="43.05932" lon="-1.20922">
        <ele>865.193721</ele>
        <time>2026-05-22T11:52:02.000Z</time>
      </trkpt>
      <trkpt lat="43.05931" lon="-1.20923">
        <ele>865.323736</ele>
        <time>2026-05-22T11:52:03.000Z</time>
      </trkpt>
      <trkpt lat="43.05929" lon="-1.20924">
        <ele>865.463674</ele>
        <time>2026-05-22T11:52:04.000Z</time>
      </trkpt>
      <trkpt lat="43.05928" lon="-1.20926">
        <ele>865.58778</ele>
        <time>2026-05-22T11:52:05.000Z</time>
      </trkpt>
      <trkpt lat="43.05927" lon="-1.20927">
        <ele>865.706006</ele>
        <time>2026-05-22T11:52:06.000Z</time>
      </trkpt>
      <trkpt lat="43.05926" lon="-1.20928">
        <ele>865.832726</ele>
        <time>2026-05-22T11:52:07.000Z</time>
      </trkpt>
      <trkpt lat="43.05924" lon="-1.20929">
        <ele>865.964047</ele>
        <time>2026-05-22T11:52:08.000Z</time>
      </trkpt>
      <trkpt lat="43.05923" lon="-1.2093">
        <ele>866.092954</ele>
        <time>2026-05-22T11:52:09.000Z</time>
      </trkpt>
      <trkpt lat="43.05921" lon="-1.20931">
        <ele>866.227025</ele>
        <time>2026-05-22T11:52:10.000Z</time>
      </trkpt>
      <trkpt lat="43.05919" lon="-1.20932">
        <ele>866.363177</ele>
        <time>2026-05-22T11:52:11.000Z</time>
      </trkpt>
      <trkpt lat="43.05918" lon="-1.20933">
        <ele>866.477841</ele>
        <time>2026-05-22T11:52:12.000Z</time>
      </trkpt>
      <trkpt lat="43.05917" lon="-1.20934">
        <ele>866.597248</ele>
        <time>2026-05-22T11:52:13.000Z</time>
      </trkpt>
      <trkpt lat="43.05915" lon="-1.20934">
        <ele>866.712714</ele>
        <time>2026-05-22T11:52:14.000Z</time>
      </trkpt>
      <trkpt lat="43.05914" lon="-1.20935">
        <ele>866.815383</ele>
        <time>2026-05-22T11:52:15.000Z</time>
      </trkpt>
      <trkpt lat="43.05913" lon="-1.20936">
        <ele>866.915936</ele>
        <time>2026-05-22T11:52:16.000Z</time>
      </trkpt>
      <trkpt lat="43.05912" lon="-1.20936">
        <ele>867.020993</ele>
        <time>2026-05-22T11:52:17.000Z</time>
      </trkpt>
      <trkpt lat="43.0591" lon="-1.20937">
        <ele>867.135657</ele>
        <time>2026-05-22T11:52:18.000Z</time>
      </trkpt>
      <trkpt lat="43.05909" lon="-1.20938">
        <ele>867.243356</ele>
        <time>2026-05-22T11:52:19.000Z</time>
      </trkpt>
      <trkpt lat="43.05908" lon="-1.20939">
        <ele>867.358822</ele>
        <time>2026-05-22T11:52:20.000Z</time>
      </trkpt>
      <trkpt lat="43.05906" lon="-1.20939">
        <ele>867.476134</ele>
        <time>2026-05-22T11:52:21.000Z</time>
      </trkpt>
      <trkpt lat="43.05905" lon="-1.2094">
        <ele>867.578803</ele>
        <time>2026-05-22T11:52:22.000Z</time>
      </trkpt>
      <trkpt lat="43.05904" lon="-1.20941">
        <ele>867.676845</ele>
        <time>2026-05-22T11:52:23.000Z</time>
      </trkpt>
      <trkpt lat="43.05903" lon="-1.20942">
        <ele>867.774886</ele>
        <time>2026-05-22T11:52:24.000Z</time>
      </trkpt>
      <trkpt lat="43.05902" lon="-1.20942">
        <ele>867.884839</ele>
        <time>2026-05-22T11:52:25.000Z</time>
      </trkpt>
      <trkpt lat="43.059" lon="-1.20943">
        <ele>867.992539</ele>
        <time>2026-05-22T11:52:26.000Z</time>
      </trkpt>
      <trkpt lat="43.05899" lon="-1.20944">
        <ele>868.112833</ele>
        <time>2026-05-22T11:52:27.000Z</time>
      </trkpt>
      <trkpt lat="43.05898" lon="-1.20945">
        <ele>868.220532</ele>
        <time>2026-05-22T11:52:28.000Z</time>
      </trkpt>
      <trkpt lat="43.05897" lon="-1.20946">
        <ele>868.335196</ele>
        <time>2026-05-22T11:52:29.000Z</time>
      </trkpt>
      <trkpt lat="43.05895" lon="-1.20947">
        <ele>868.45549</ele>
        <time>2026-05-22T11:52:30.000Z</time>
      </trkpt>
      <trkpt lat="43.05894" lon="-1.20949">
        <ele>868.582211</ele>
        <time>2026-05-22T11:52:31.000Z</time>
      </trkpt>
      <trkpt lat="43.05893" lon="-1.2095">
        <ele>868.708932</ele>
        <time>2026-05-22T11:52:32.000Z</time>
      </trkpt>
      <trkpt lat="43.05892" lon="-1.20951">
        <ele>868.827158</ele>
        <time>2026-05-22T11:52:33.000Z</time>
      </trkpt>
      <trkpt lat="43.05891" lon="-1.20953">
        <ele>868.945385</ele>
        <time>2026-05-22T11:52:34.000Z</time>
      </trkpt>
      <trkpt lat="43.05889" lon="-1.20954">
        <ele>869.0561</ele>
        <time>2026-05-22T11:52:35.000Z</time>
      </trkpt>
      <trkpt lat="43.05888" lon="-1.20955">
        <ele>869.174327</ele>
        <time>2026-05-22T11:52:36.000Z</time>
      </trkpt>
      <trkpt lat="43.05887" lon="-1.20956">
        <ele>869.281552</ele>
        <time>2026-05-22T11:52:37.000Z</time>
      </trkpt>
      <trkpt lat="43.05886" lon="-1.20958">
        <ele>869.392267</ele>
        <time>2026-05-22T11:52:38.000Z</time>
      </trkpt>
      <trkpt lat="43.05885" lon="-1.20959">
        <ele>869.503885</ele>
        <time>2026-05-22T11:52:39.000Z</time>
      </trkpt>
      <trkpt lat="43.05884" lon="-1.20961">
        <ele>869.615504</ele>
        <time>2026-05-22T11:52:40.000Z</time>
      </trkpt>
      <trkpt lat="43.05883" lon="-1.20962">
        <ele>869.735959</ele>
        <time>2026-05-22T11:52:41.000Z</time>
      </trkpt>
      <trkpt lat="43.05882" lon="-1.20963">
        <ele>869.859374</ele>
        <time>2026-05-22T11:52:42.000Z</time>
      </trkpt>
      <trkpt lat="43.05881" lon="-1.20965">
        <ele>869.991233</ele>
        <time>2026-05-22T11:52:43.000Z</time>
      </trkpt>
      <trkpt lat="43.0588" lon="-1.20966">
        <ele>870.108005</ele>
        <time>2026-05-22T11:52:44.000Z</time>
      </trkpt>
      <trkpt lat="43.05879" lon="-1.20967">
        <ele>870.21872</ele>
        <time>2026-05-22T11:52:45.000Z</time>
      </trkpt>
      <trkpt lat="43.05877" lon="-1.20969">
        <ele>870.335693</ele>
        <time>2026-05-22T11:52:46.000Z</time>
      </trkpt>
      <trkpt lat="43.05876" lon="-1.2097">
        <ele>870.459108</ele>
        <time>2026-05-22T11:52:47.000Z</time>
      </trkpt>
      <trkpt lat="43.05875" lon="-1.20971">
        <ele>870.581324</ele>
        <time>2026-05-22T11:52:48.000Z</time>
      </trkpt>
      <trkpt lat="43.05874" lon="-1.20973">
        <ele>870.698096</ele>
        <time>2026-05-22T11:52:49.000Z</time>
      </trkpt>
      <trkpt lat="43.05873" lon="-1.20974">
        <ele>870.826008</ele>
        <time>2026-05-22T11:52:50.000Z</time>
      </trkpt>
      <trkpt lat="43.05871" lon="-1.20976">
        <ele>870.959836</ele>
        <time>2026-05-22T11:52:51.000Z</time>
      </trkpt>
      <trkpt lat="43.0587" lon="-1.20977">
        <ele>871.086176</ele>
        <time>2026-05-22T11:52:52.000Z</time>
      </trkpt>
      <trkpt lat="43.05869" lon="-1.20979">
        <ele>871.197795</ele>
        <time>2026-05-22T11:52:53.000Z</time>
      </trkpt>
      <trkpt lat="43.05869" lon="-1.2098">
        <ele>871.309414</ele>
        <time>2026-05-22T11:52:54.000Z</time>
      </trkpt>
      <trkpt lat="43.05868" lon="-1.20982">
        <ele>871.417967</ele>
        <time>2026-05-22T11:52:55.000Z</time>
      </trkpt>
      <trkpt lat="43.05867" lon="-1.20983">
        <ele>871.52652</ele>
        <time>2026-05-22T11:52:56.000Z</time>
      </trkpt>
      <trkpt lat="43.05865" lon="-1.20984">
        <ele>871.650626</ele>
        <time>2026-05-22T11:52:57.000Z</time>
      </trkpt>
      <trkpt lat="43.05864" lon="-1.20986">
        <ele>871.772842</ele>
        <time>2026-05-22T11:52:58.000Z</time>
      </trkpt>
      <trkpt lat="43.05863" lon="-1.20988">
        <ele>871.90343</ele>
        <time>2026-05-22T11:52:59.000Z</time>
      </trkpt>
      <trkpt lat="43.05862" lon="-1.20989">
        <ele>872.033467</ele>
        <time>2026-05-22T11:53:00.000Z</time>
      </trkpt>
      <trkpt lat="43.05861" lon="-1.20991">
        <ele>872.163505</ele>
        <time>2026-05-22T11:53:01.000Z</time>
      </trkpt>
      <trkpt lat="43.0586" lon="-1.20993">
        <ele>872.288936</ele>
        <time>2026-05-22T11:53:02.000Z</time>
      </trkpt>
      <trkpt lat="43.0586" lon="-1.20995">
        <ele>872.407968</ele>
        <time>2026-05-22T11:53:03.000Z</time>
      </trkpt>
      <trkpt lat="43.05859" lon="-1.20997">
        <ele>872.532301</ele>
        <time>2026-05-22T11:53:04.000Z</time>
      </trkpt>
      <trkpt lat="43.05859" lon="-1.20999">
        <ele>872.651547</ele>
        <time>2026-05-22T11:53:05.000Z</time>
      </trkpt>
      <trkpt lat="43.05858" lon="-1.21001">
        <ele>872.763333</ele>
        <time>2026-05-22T11:53:06.000Z</time>
      </trkpt>
      <trkpt lat="43.05858" lon="-1.21003">
        <ele>872.886386</ele>
        <time>2026-05-22T11:53:07.000Z</time>
      </trkpt>
      <trkpt lat="43.05858" lon="-1.21005">
        <ele>873.00167</ele>
        <time>2026-05-22T11:53:08.000Z</time>
      </trkpt>
      <trkpt lat="43.05858" lon="-1.21007">
        <ele>873.113457</ele>
        <time>2026-05-22T11:53:09.000Z</time>
      </trkpt>
      <trkpt lat="43.05857" lon="-1.21009">
        <ele>873.223849</ele>
        <time>2026-05-22T11:53:10.000Z</time>
      </trkpt>
      <trkpt lat="43.05857" lon="-1.21011">
        <ele>873.339133</ele>
        <time>2026-05-22T11:53:11.000Z</time>
      </trkpt>
      <trkpt lat="43.05857" lon="-1.21013">
        <ele>873.449304</ele>
        <time>2026-05-22T11:53:12.000Z</time>
      </trkpt>
      <trkpt lat="43.05857" lon="-1.21014">
        <ele>873.573141</ele>
        <time>2026-05-22T11:53:13.000Z</time>
      </trkpt>
      <trkpt lat="43.05857" lon="-1.21016">
        <ele>873.702466</ele>
        <time>2026-05-22T11:53:14.000Z</time>
      </trkpt>
      <trkpt lat="43.05857" lon="-1.21018">
        <ele>873.818587</ele>
        <time>2026-05-22T11:53:15.000Z</time>
      </trkpt>
      <trkpt lat="43.05857" lon="-1.2102">
        <ele>873.947912</ele>
        <time>2026-05-22T11:53:16.000Z</time>
      </trkpt>
      <trkpt lat="43.05857" lon="-1.21022">
        <ele>874.078138</ele>
        <time>2026-05-22T11:53:17.000Z</time>
      </trkpt>
      <trkpt lat="43.05857" lon="-1.21024">
        <ele>874.20354</ele>
        <time>2026-05-22T11:53:18.000Z</time>
      </trkpt>
      <trkpt lat="43.05858" lon="-1.21026">
        <ele>874.314622</ele>
        <time>2026-05-22T11:53:19.000Z</time>
      </trkpt>
      <trkpt lat="43.05858" lon="-1.21028">
        <ele>874.432844</ele>
        <time>2026-05-22T11:53:20.000Z</time>
      </trkpt>
      <trkpt lat="43.05859" lon="-1.21029">
        <ele>874.551065</ele>
        <time>2026-05-22T11:53:21.000Z</time>
      </trkpt>
      <trkpt lat="43.05859" lon="-1.21031">
        <ele>874.669287</ele>
        <time>2026-05-22T11:53:22.000Z</time>
      </trkpt>
      <trkpt lat="43.0586" lon="-1.21033">
        <ele>874.785306</ele>
        <time>2026-05-22T11:53:23.000Z</time>
      </trkpt>
      <trkpt lat="43.0586" lon="-1.21034">
        <ele>874.909144</ele>
        <time>2026-05-22T11:53:24.000Z</time>
      </trkpt>
      <trkpt lat="43.0586" lon="-1.21036">
        <ele>875.031716</ele>
        <time>2026-05-22T11:53:25.000Z</time>
      </trkpt>
      <trkpt lat="43.0586" lon="-1.21038">
        <ele>875.155554</ele>
        <time>2026-05-22T11:53:26.000Z</time>
      </trkpt>
      <trkpt lat="43.0586" lon="-1.2104">
        <ele>875.291315</ele>
        <time>2026-05-22T11:53:27.000Z</time>
      </trkpt>
      <trkpt lat="43.0586" lon="-1.21042">
        <ele>875.42064</ele>
        <time>2026-05-22T11:53:28.000Z</time>
      </trkpt>
      <trkpt lat="43.0586" lon="-1.21044">
        <ele>875.549965</ele>
        <time>2026-05-22T11:53:29.000Z</time>
      </trkpt>
      <trkpt lat="43.05861" lon="-1.21046">
        <ele>875.67929</ele>
        <time>2026-05-22T11:53:30.000Z</time>
      </trkpt>
      <trkpt lat="43.05861" lon="-1.21048">
        <ele>875.814765</ele>
        <time>2026-05-22T11:53:31.000Z</time>
      </trkpt>
      <trkpt lat="43.0586" lon="-1.21051">
        <ele>875.950526</ele>
        <time>2026-05-22T11:53:32.000Z</time>
      </trkpt>
      <trkpt lat="43.0586" lon="-1.21053">
        <ele>876.087147</ele>
        <time>2026-05-22T11:53:33.000Z</time>
      </trkpt>
      <trkpt lat="43.0586" lon="-1.21055">
        <ele>876.210036</ele>
        <time>2026-05-22T11:53:34.000Z</time>
      </trkpt>
      <trkpt lat="43.0586" lon="-1.21056">
        <ele>876.326492</ele>
        <time>2026-05-22T11:53:35.000Z</time>
      </trkpt>
      <trkpt lat="43.0586" lon="-1.21058">
        <ele>876.451894</ele>
        <time>2026-05-22T11:53:36.000Z</time>
      </trkpt>
      <trkpt lat="43.0586" lon="-1.2106">
        <ele>876.575731</ele>
        <time>2026-05-22T11:53:37.000Z</time>
      </trkpt>
      <trkpt lat="43.0586" lon="-1.21062">
        <ele>876.691852</ele>
        <time>2026-05-22T11:53:38.000Z</time>
      </trkpt>
      <trkpt lat="43.0586" lon="-1.21064">
        <ele>876.820876</ele>
        <time>2026-05-22T11:53:39.000Z</time>
      </trkpt>
      <trkpt lat="43.05859" lon="-1.21066">
        <ele>876.950201</ele>
        <time>2026-05-22T11:53:40.000Z</time>
      </trkpt>
      <trkpt lat="43.0586" lon="-1.21068">
        <ele>877.060225</ele>
        <time>2026-05-22T11:53:41.000Z</time>
      </trkpt>
      <trkpt lat="43.0586" lon="-1.21069">
        <ele>877.184455</ele>
        <time>2026-05-22T11:53:42.000Z</time>
      </trkpt>
      <trkpt lat="43.0586" lon="-1.21071">
        <ele>877.316169</ele>
        <time>2026-05-22T11:53:43.000Z</time>
      </trkpt>
      <trkpt lat="43.05861" lon="-1.21073">
        <ele>877.440006</ele>
        <time>2026-05-22T11:53:44.000Z</time>
      </trkpt>
      <trkpt lat="43.0586" lon="-1.21075">
        <ele>877.556462</ele>
        <time>2026-05-22T11:53:45.000Z</time>
      </trkpt>
      <trkpt lat="43.0586" lon="-1.21077">
        <ele>877.681864</ele>
        <time>2026-05-22T11:53:46.000Z</time>
      </trkpt>
      <trkpt lat="43.0586" lon="-1.21079">
        <ele>877.79932</ele>
        <time>2026-05-22T11:53:47.000Z</time>
      </trkpt>
      <trkpt lat="43.0586" lon="-1.21081">
        <ele>877.918423</ele>
        <time>2026-05-22T11:53:48.000Z</time>
      </trkpt>
      <trkpt lat="43.05859" lon="-1.21083">
        <ele>878.055044</ele>
        <time>2026-05-22T11:53:49.000Z</time>
      </trkpt>
      <trkpt lat="43.05859" lon="-1.21085">
        <ele>878.195046</ele>
        <time>2026-05-22T11:53:50.000Z</time>
      </trkpt>
      <trkpt lat="43.05859" lon="-1.21087">
        <ele>878.343679</ele>
        <time>2026-05-22T11:53:51.000Z</time>
      </trkpt>
      <trkpt lat="43.05858" lon="-1.21089">
        <ele>878.475393</ele>
        <time>2026-05-22T11:53:52.000Z</time>
      </trkpt>
      <trkpt lat="43.05858" lon="-1.21091">
        <ele>878.605619</ele>
        <time>2026-05-22T11:53:53.000Z</time>
      </trkpt>
      <trkpt lat="43.05858" lon="-1.21093">
        <ele>878.728509</ele>
        <time>2026-05-22T11:53:54.000Z</time>
      </trkpt>
      <trkpt lat="43.05858" lon="-1.21095">
        <ele>878.865129</ele>
        <time>2026-05-22T11:53:55.000Z</time>
      </trkpt>
      <trkpt lat="43.05858" lon="-1.21097">
        <ele>879.008149</ele>
        <time>2026-05-22T11:53:56.000Z</time>
      </trkpt>
      <trkpt lat="43.05857" lon="-1.21099">
        <ele>879.131039</ele>
        <time>2026-05-22T11:53:57.000Z</time>
      </trkpt>
      <trkpt lat="43.05857" lon="-1.21101">
        <ele>879.261318</ele>
        <time>2026-05-22T11:53:58.000Z</time>
      </trkpt>
      <trkpt lat="43.05857" lon="-1.21103">
        <ele>879.364914</ele>
        <time>2026-05-22T11:53:59.000Z</time>
      </trkpt>
      <trkpt lat="43.05857" lon="-1.21104">
        <ele>879.48237</ele>
        <time>2026-05-22T11:54:00.000Z</time>
      </trkpt>
      <trkpt lat="43.05857" lon="-1.21106">
        <ele>879.604942</ele>
        <time>2026-05-22T11:54:01.000Z</time>
      </trkpt>
      <trkpt lat="43.05857" lon="-1.21108">
        <ele>879.722398</ele>
        <time>2026-05-22T11:54:02.000Z</time>
      </trkpt>
      <trkpt lat="43.05857" lon="-1.2111">
        <ele>879.831491</ele>
        <time>2026-05-22T11:54:03.000Z</time>
      </trkpt>
      <trkpt lat="43.05858" lon="-1.21112">
        <ele>879.950595</ele>
        <time>2026-05-22T11:54:04.000Z</time>
      </trkpt>
      <trkpt lat="43.05858" lon="-1.21114">
        <ele>880.088635</ele>
        <time>2026-05-22T11:54:05.000Z</time>
      </trkpt>
      <trkpt lat="43.05858" lon="-1.21116">
        <ele>880.218861</ele>
        <time>2026-05-22T11:54:06.000Z</time>
      </trkpt>
      <trkpt lat="43.05858" lon="-1.21118">
        <ele>880.34175</ele>
        <time>2026-05-22T11:54:07.000Z</time>
      </trkpt>
      <trkpt lat="43.05858" lon="-1.21119">
        <ele>880.458206</ele>
        <time>2026-05-22T11:54:08.000Z</time>
      </trkpt>
      <trkpt lat="43.05858" lon="-1.21121">
        <ele>880.581096</ele>
        <time>2026-05-22T11:54:09.000Z</time>
      </trkpt>
      <trkpt lat="43.05859" lon="-1.21123">
        <ele>880.721098</ele>
        <time>2026-05-22T11:54:10.000Z</time>
      </trkpt>
      <trkpt lat="43.05859" lon="-1.21125">
        <ele>880.838554</ele>
        <time>2026-05-22T11:54:11.000Z</time>
      </trkpt>
      <trkpt lat="43.05859" lon="-1.21127">
        <ele>880.938881</ele>
        <time>2026-05-22T11:54:12.000Z</time>
      </trkpt>
      <trkpt lat="43.05859" lon="-1.21128">
        <ele>881.0436</ele>
        <time>2026-05-22T11:54:13.000Z</time>
      </trkpt>
      <trkpt lat="43.05859" lon="-1.2113">
        <ele>881.140769</ele>
        <time>2026-05-22T11:54:14.000Z</time>
      </trkpt>
      <trkpt lat="43.05859" lon="-1.21131">
        <ele>881.251851</ele>
        <time>2026-05-22T11:54:15.000Z</time>
      </trkpt>
      <trkpt lat="43.05859" lon="-1.21133">
        <ele>881.368307</ele>
        <time>2026-05-22T11:54:16.000Z</time>
      </trkpt>
      <trkpt lat="43.05859" lon="-1.21135">
        <ele>881.471903</ele>
        <time>2026-05-22T11:54:17.000Z</time>
      </trkpt>
      <trkpt lat="43.05859" lon="-1.21137">
        <ele>881.588359</ele>
        <time>2026-05-22T11:54:18.000Z</time>
      </trkpt>
      <trkpt lat="43.05859" lon="-1.21138">
        <ele>881.703575</ele>
        <time>2026-05-22T11:54:19.000Z</time>
      </trkpt>
      <trkpt lat="43.0586" lon="-1.2114">
        <ele>881.831134</ele>
        <time>2026-05-22T11:54:20.000Z</time>
      </trkpt>
      <trkpt lat="43.0586" lon="-1.21142">
        <ele>881.941453</ele>
        <time>2026-05-22T11:54:21.000Z</time>
      </trkpt>
      <trkpt lat="43.05861" lon="-1.21144">
        <ele>882.075223</ele>
        <time>2026-05-22T11:54:22.000Z</time>
      </trkpt>
      <trkpt lat="43.05861" lon="-1.21146">
        <ele>882.194326</ele>
        <time>2026-05-22T11:54:23.000Z</time>
      </trkpt>
      <trkpt lat="43.05861" lon="-1.21147">
        <ele>882.318164</ele>
        <time>2026-05-22T11:54:24.000Z</time>
      </trkpt>
      <trkpt lat="43.05861" lon="-1.21149">
        <ele>882.430987</ele>
        <time>2026-05-22T11:54:25.000Z</time>
      </trkpt>
      <trkpt lat="43.05862" lon="-1.21151">
        <ele>882.54325</ele>
        <time>2026-05-22T11:54:26.000Z</time>
      </trkpt>
      <trkpt lat="43.05862" lon="-1.21152">
        <ele>882.661471</ele>
        <time>2026-05-22T11:54:27.000Z</time>
      </trkpt>
      <trkpt lat="43.05863" lon="-1.21154">
        <ele>882.789105</ele>
        <time>2026-05-22T11:54:28.000Z</time>
      </trkpt>
      <trkpt lat="43.05863" lon="-1.21156">
        <ele>882.904322</ele>
        <time>2026-05-22T11:54:29.000Z</time>
      </trkpt>
      <trkpt lat="43.05864" lon="-1.21158">
        <ele>883.029723</ele>
        <time>2026-05-22T11:54:30.000Z</time>
      </trkpt>
      <trkpt lat="43.05864" lon="-1.2116">
        <ele>883.152612</ele>
        <time>2026-05-22T11:54:31.000Z</time>
      </trkpt>
      <trkpt lat="43.05864" lon="-1.21162">
        <ele>883.281937</ele>
        <time>2026-05-22T11:54:32.000Z</time>
      </trkpt>
      <trkpt lat="43.05864" lon="-1.21164">
        <ele>883.401041</ele>
        <time>2026-05-22T11:54:33.000Z</time>
      </trkpt>
      <trkpt lat="43.05865" lon="-1.21165">
        <ele>883.513304</ele>
        <time>2026-05-22T11:54:34.000Z</time>
      </trkpt>
      <trkpt lat="43.05865" lon="-1.21167">
        <ele>883.631525</ele>
        <time>2026-05-22T11:54:35.000Z</time>
      </trkpt>
      <trkpt lat="43.05866" lon="-1.21169">
        <ele>883.759159</ele>
        <time>2026-05-22T11:54:36.000Z</time>
      </trkpt>
      <trkpt lat="43.05866" lon="-1.21171">
        <ele>883.892689</ele>
        <time>2026-05-22T11:54:37.000Z</time>
      </trkpt>
      <trkpt lat="43.05867" lon="-1.21172">
        <ele>884.020324</ele>
        <time>2026-05-22T11:54:38.000Z</time>
      </trkpt>
      <trkpt lat="43.05868" lon="-1.21174">
        <ele>884.142118</ele>
        <time>2026-05-22T11:54:39.000Z</time>
      </trkpt>
      <trkpt lat="43.05868" lon="-1.21176">
        <ele>884.258137</ele>
        <time>2026-05-22T11:54:40.000Z</time>
      </trkpt>
      <trkpt lat="43.05869" lon="-1.21177">
        <ele>884.372794</ele>
        <time>2026-05-22T11:54:41.000Z</time>
      </trkpt>
      <trkpt lat="43.0587" lon="-1.21179">
        <ele>884.503242</ele>
        <time>2026-05-22T11:54:42.000Z</time>
      </trkpt>
      <trkpt lat="43.05871" lon="-1.21181">
        <ele>884.639158</ele>
        <time>2026-05-22T11:54:43.000Z</time>
      </trkpt>
      <trkpt lat="43.05872" lon="-1.21182">
        <ele>884.779865</ele>
        <time>2026-05-22T11:54:44.000Z</time>
      </trkpt>
      <trkpt lat="43.05872" lon="-1.21184">
        <ele>884.915781</ele>
        <time>2026-05-22T11:54:45.000Z</time>
      </trkpt>
      <trkpt lat="43.05873" lon="-1.21186">
        <ele>885.051213</ele>
        <time>2026-05-22T11:54:46.000Z</time>
      </trkpt>
      <trkpt lat="43.05874" lon="-1.21187">
        <ele>885.176286</ele>
        <time>2026-05-22T11:54:47.000Z</time>
      </trkpt>
      <trkpt lat="43.05875" lon="-1.21189">
        <ele>885.306549</ele>
        <time>2026-05-22T11:54:48.000Z</time>
      </trkpt>
      <trkpt lat="43.05876" lon="-1.21191">
        <ele>885.442465</ele>
        <time>2026-05-22T11:54:49.000Z</time>
      </trkpt>
      <trkpt lat="43.05876" lon="-1.21193">
        <ele>885.561568</ele>
        <time>2026-05-22T11:54:50.000Z</time>
      </trkpt>
      <trkpt lat="43.05876" lon="-1.21194">
        <ele>885.680672</ele>
        <time>2026-05-22T11:54:51.000Z</time>
      </trkpt>
      <trkpt lat="43.05877" lon="-1.21196">
        <ele>885.800476</ele>
        <time>2026-05-22T11:54:52.000Z</time>
      </trkpt>
      <trkpt lat="43.05878" lon="-1.21197">
        <ele>885.92225</ele>
        <time>2026-05-22T11:54:53.000Z</time>
      </trkpt>
      <trkpt lat="43.05879" lon="-1.21199">
        <ele>886.042054</ele>
        <time>2026-05-22T11:54:54.000Z</time>
      </trkpt>
      <trkpt lat="43.0588" lon="-1.212">
        <ele>886.156875</ele>
        <time>2026-05-22T11:54:55.000Z</time>
      </trkpt>
      <trkpt lat="43.0588" lon="-1.21202">
        <ele>886.284508</ele>
        <time>2026-05-22T11:54:56.000Z</time>
      </trkpt>
      <trkpt lat="43.05881" lon="-1.21204">
        <ele>886.440849</ele>
        <time>2026-05-22T11:54:57.000Z</time>
      </trkpt>
      <trkpt lat="43.05882" lon="-1.21206">
        <ele>886.565922</ele>
        <time>2026-05-22T11:54:58.000Z</time>
      </trkpt>
      <trkpt lat="43.05883" lon="-1.21208">
        <ele>886.696201</ele>
        <time>2026-05-22T11:54:59.000Z</time>
      </trkpt>
      <trkpt lat="43.05883" lon="-1.21209">
        <ele>886.826481</ele>
        <time>2026-05-22T11:55:00.000Z</time>
      </trkpt>
      <trkpt lat="43.05884" lon="-1.21211">
        <ele>886.962847</ele>
        <time>2026-05-22T11:55:01.000Z</time>
      </trkpt>
      <trkpt lat="43.05884" lon="-1.21213">
        <ele>887.093126</ele>
        <time>2026-05-22T11:55:02.000Z</time>
      </trkpt>
      <trkpt lat="43.05884" lon="-1.21215">
        <ele>887.202796</ele>
        <time>2026-05-22T11:55:03.000Z</time>
      </trkpt>
      <trkpt lat="43.05884" lon="-1.21217">
        <ele>887.326633</ele>
        <time>2026-05-22T11:55:04.000Z</time>
      </trkpt>
      <trkpt lat="43.05885" lon="-1.21219">
        <ele>887.460162</ele>
        <time>2026-05-22T11:55:05.000Z</time>
      </trkpt>
      <trkpt lat="43.05885" lon="-1.21221">
        <ele>887.593931</ele>
        <time>2026-05-22T11:55:06.000Z</time>
      </trkpt>
      <trkpt lat="43.05885" lon="-1.21223">
        <ele>887.729693</ele>
        <time>2026-05-22T11:55:07.000Z</time>
      </trkpt>
      <trkpt lat="43.05885" lon="-1.21225">
        <ele>887.859017</ele>
        <time>2026-05-22T11:55:08.000Z</time>
      </trkpt>
      <trkpt lat="43.05886" lon="-1.21227">
        <ele>887.970099</ele>
        <time>2026-05-22T11:55:09.000Z</time>
      </trkpt>
      <trkpt lat="43.05886" lon="-1.21229">
        <ele>888.093936</ele>
        <time>2026-05-22T11:55:10.000Z</time>
      </trkpt>
      <trkpt lat="43.05886" lon="-1.2123">
        <ele>888.216507</ele>
        <time>2026-05-22T11:55:11.000Z</time>
      </trkpt>
      <trkpt lat="43.05886" lon="-1.21232">
        <ele>888.332628</ele>
        <time>2026-05-22T11:55:12.000Z</time>
      </trkpt>
      <trkpt lat="43.05886" lon="-1.21234">
        <ele>888.442652</ele>
        <time>2026-05-22T11:55:13.000Z</time>
      </trkpt>
      <trkpt lat="43.05886" lon="-1.21236">
        <ele>888.566489</ele>
        <time>2026-05-22T11:55:14.000Z</time>
      </trkpt>
      <trkpt lat="43.05886" lon="-1.21238">
        <ele>888.695813</ele>
        <time>2026-05-22T11:55:15.000Z</time>
      </trkpt>
      <trkpt lat="43.05885" lon="-1.2124">
        <ele>888.827527</ele>
        <time>2026-05-22T11:55:16.000Z</time>
      </trkpt>
      <trkpt lat="43.05885" lon="-1.21242">
        <ele>888.955085</ele>
        <time>2026-05-22T11:55:17.000Z</time>
      </trkpt>
      <trkpt lat="43.05885" lon="-1.21243">
        <ele>889.070301</ele>
        <time>2026-05-22T11:55:18.000Z</time>
      </trkpt>
      <trkpt lat="43.05884" lon="-1.21245">
        <ele>889.192095</ele>
        <time>2026-05-22T11:55:19.000Z</time>
      </trkpt>
      <trkpt lat="43.05883" lon="-1.21247">
        <ele>889.301815</ele>
        <time>2026-05-22T11:55:20.000Z</time>
      </trkpt>
      <trkpt lat="43.05883" lon="-1.21248">
        <ele>889.423596</ele>
        <time>2026-05-22T11:55:21.000Z</time>
      </trkpt>
      <trkpt lat="43.05882" lon="-1.2125">
        <ele>889.540247</ele>
        <time>2026-05-22T11:55:22.000Z</time>
      </trkpt>
      <trkpt lat="43.05881" lon="-1.21251">
        <ele>889.662027</ele>
        <time>2026-05-22T11:55:23.000Z</time>
      </trkpt>
      <trkpt lat="43.0588" lon="-1.21253">
        <ele>889.785006</ele>
        <time>2026-05-22T11:55:24.000Z</time>
      </trkpt>
      <trkpt lat="43.05879" lon="-1.21254">
        <ele>889.902137</ele>
        <time>2026-05-22T11:55:25.000Z</time>
      </trkpt>
      <trkpt lat="43.05878" lon="-1.21256">
        <ele>890.024054</ele>
        <time>2026-05-22T11:55:26.000Z</time>
      </trkpt>
      <trkpt lat="43.05877" lon="-1.21257">
        <ele>890.145972</ele>
        <time>2026-05-22T11:55:27.000Z</time>
      </trkpt>
      <trkpt lat="43.05876" lon="-1.21259">
        <ele>890.267889</ele>
        <time>2026-05-22T11:55:28.000Z</time>
      </trkpt>
      <trkpt lat="43.05875" lon="-1.2126">
        <ele>890.38502</ele>
        <time>2026-05-22T11:55:29.000Z</time>
      </trkpt>
      <trkpt lat="43.05874" lon="-1.21261">
        <ele>890.503589</ele>
        <time>2026-05-22T11:55:30.000Z</time>
      </trkpt>
      <trkpt lat="43.05873" lon="-1.21263">
        <ele>890.626568</ele>
        <time>2026-05-22T11:55:31.000Z</time>
      </trkpt>
      <trkpt lat="43.05873" lon="-1.21264">
        <ele>890.734586</ele>
        <time>2026-05-22T11:55:32.000Z</time>
      </trkpt>
      <trkpt lat="43.05871" lon="-1.21265">
        <ele>890.855517</ele>
        <time>2026-05-22T11:55:33.000Z</time>
      </trkpt>
      <trkpt lat="43.0587" lon="-1.21266">
        <ele>890.979681</ele>
        <time>2026-05-22T11:55:34.000Z</time>
      </trkpt>
      <trkpt lat="43.05869" lon="-1.21268">
        <ele>891.11125</ele>
        <time>2026-05-22T11:55:35.000Z</time>
      </trkpt>
      <trkpt lat="43.05868" lon="-1.21269">
        <ele>891.229819</ele>
        <time>2026-05-22T11:55:36.000Z</time>
      </trkpt>
      <trkpt lat="43.05867" lon="-1.2127">
        <ele>891.352798</ele>
        <time>2026-05-22T11:55:37.000Z</time>
      </trkpt>
      <trkpt lat="43.05866" lon="-1.21271">
        <ele>891.480564</ele>
        <time>2026-05-22T11:55:38.000Z</time>
      </trkpt>
      <trkpt lat="43.05865" lon="-1.21273">
        <ele>891.616121</ele>
        <time>2026-05-22T11:55:39.000Z</time>
      </trkpt>
      <trkpt lat="43.05864" lon="-1.21274">
        <ele>891.7391</ele>
        <time>2026-05-22T11:55:40.000Z</time>
      </trkpt>
      <trkpt lat="43.05862" lon="-1.21276">
        <ele>891.87067</ele>
        <time>2026-05-22T11:55:41.000Z</time>
      </trkpt>
      <trkpt lat="43.05861" lon="-1.21277">
        <ele>892.010383</ele>
        <time>2026-05-22T11:55:42.000Z</time>
      </trkpt>
      <trkpt lat="43.0586" lon="-1.21279">
        <ele>892.137218</ele>
        <time>2026-05-22T11:55:43.000Z</time>
      </trkpt>
      <trkpt lat="43.05859" lon="-1.2128">
        <ele>892.264765</ele>
        <time>2026-05-22T11:55:44.000Z</time>
      </trkpt>
      <trkpt lat="43.05858" lon="-1.21282">
        <ele>892.398257</ele>
        <time>2026-05-22T11:55:45.000Z</time>
      </trkpt>
      <trkpt lat="43.05857" lon="-1.21283">
        <ele>892.50199</ele>
        <time>2026-05-22T11:55:46.000Z</time>
      </trkpt>
      <trkpt lat="43.05856" lon="-1.21284">
        <ele>892.633857</ele>
        <time>2026-05-22T11:55:47.000Z</time>
      </trkpt>
      <trkpt lat="43.05856" lon="-1.21286">
        <ele>892.766196</ele>
        <time>2026-05-22T11:55:48.000Z</time>
      </trkpt>
      <trkpt lat="43.05855" lon="-1.21288">
        <ele>892.893031</ele>
        <time>2026-05-22T11:55:49.000Z</time>
      </trkpt>
      <trkpt lat="43.05854" lon="-1.21289">
        <ele>893.005523</ele>
        <time>2026-05-22T11:55:50.000Z</time>
      </trkpt>
      <trkpt lat="43.05853" lon="-1.2129">
        <ele>893.112284</ele>
        <time>2026-05-22T11:55:51.000Z</time>
      </trkpt>
      <trkpt lat="43.05852" lon="-1.21291">
        <ele>893.205427</ele>
        <time>2026-05-22T11:55:52.000Z</time>
      </trkpt>
      <trkpt lat="43.05852" lon="-1.21292">
        <ele>893.251998</ele>
        <time>2026-05-22T11:55:53.000Z</time>
      </trkpt>
      <trkpt lat="43.05851" lon="-1.21292">
        <ele>893.295439</ele>
        <time>2026-05-22T12:27:43.000Z</time>
      </trkpt>
      <trkpt lat="43.05852" lon="-1.21293">
        <ele>893.346414</ele>
        <time>2026-05-22T12:27:44.000Z</time>
      </trkpt>
      <trkpt lat="43.05852" lon="-1.21293">
        <ele>893.346414</ele>
        <time>2026-05-22T12:27:46.000Z</time>
      </trkpt>
      <trkpt lat="43.0585" lon="-1.213">
        <ele>893.794006</ele>
        <time>2026-05-22T12:29:38.000Z</time>
      </trkpt>
      <trkpt lat="43.05849" lon="-1.21301">
        <ele>893.941404</ele>
        <time>2026-05-22T12:29:39.000Z</time>
      </trkpt>
      <trkpt lat="43.05848" lon="-1.21303">
        <ele>894.079148</ele>
        <time>2026-05-22T12:29:40.000Z</time>
      </trkpt>
      <trkpt lat="43.05847" lon="-1.21306">
        <ele>894.241897</ele>
        <time>2026-05-22T12:29:41.000Z</time>
      </trkpt>
      <trkpt lat="43.05846" lon="-1.21307">
        <ele>894.398697</ele>
        <time>2026-05-22T12:29:42.000Z</time>
      </trkpt>
      <trkpt lat="43.05845" lon="-1.21309">
        <ele>894.563831</ele>
        <time>2026-05-22T12:29:43.000Z</time>
      </trkpt>
      <trkpt lat="43.05843" lon="-1.21311">
        <ele>894.714134</ele>
        <time>2026-05-22T12:29:44.000Z</time>
      </trkpt>
      <trkpt lat="43.05842" lon="-1.21312">
        <ele>894.866404</ele>
        <time>2026-05-22T12:29:45.000Z</time>
      </trkpt>
      <trkpt lat="43.05841" lon="-1.21314">
        <ele>895.003492</ele>
        <time>2026-05-22T12:29:46.000Z</time>
      </trkpt>
      <trkpt lat="43.0584" lon="-1.21316">
        <ele>895.150578</ele>
        <time>2026-05-22T12:29:47.000Z</time>
      </trkpt>
      <trkpt lat="43.05839" lon="-1.21318">
        <ele>895.294603</ele>
        <time>2026-05-22T12:29:48.000Z</time>
      </trkpt>
      <trkpt lat="43.05838" lon="-1.21319">
        <ele>895.433016</ele>
        <time>2026-05-22T12:29:49.000Z</time>
      </trkpt>
      <trkpt lat="43.05836" lon="-1.2132">
        <ele>895.571429</ele>
        <time>2026-05-22T12:29:50.000Z</time>
      </trkpt>
      <trkpt lat="43.05835" lon="-1.21322">
        <ele>895.716872</ele>
        <time>2026-05-22T12:29:51.000Z</time>
      </trkpt>
      <trkpt lat="43.05834" lon="-1.21323">
        <ele>895.844638</ele>
        <time>2026-05-22T12:29:52.000Z</time>
      </trkpt>
      <trkpt lat="43.05833" lon="-1.21324">
        <ele>895.980196</ele>
        <time>2026-05-22T12:29:53.000Z</time>
      </trkpt>
      <trkpt lat="43.05832" lon="-1.21326">
        <ele>896.113688</ele>
        <time>2026-05-22T12:29:54.000Z</time>
      </trkpt>
      <trkpt lat="43.0583" lon="-1.21327">
        <ele>896.242824</ele>
        <time>2026-05-22T12:29:55.000Z</time>
      </trkpt>
      <trkpt lat="43.05829" lon="-1.21328">
        <ele>896.371959</ele>
        <time>2026-05-22T12:29:56.000Z</time>
      </trkpt>
      <trkpt lat="43.05828" lon="-1.2133">
        <ele>896.489078</ele>
        <time>2026-05-22T12:29:57.000Z</time>
      </trkpt>
      <trkpt lat="43.05827" lon="-1.21331">
        <ele>896.610009</ele>
        <time>2026-05-22T12:29:58.000Z</time>
      </trkpt>
      <trkpt lat="43.05826" lon="-1.21332">
        <ele>896.73079</ele>
        <time>2026-05-22T12:29:59.000Z</time>
      </trkpt>
      <trkpt lat="43.05825" lon="-1.21333">
        <ele>896.841084</ele>
        <time>2026-05-22T12:30:00.000Z</time>
      </trkpt>
      <trkpt lat="43.05824" lon="-1.21334">
        <ele>896.958203</ele>
        <time>2026-05-22T12:30:01.000Z</time>
      </trkpt>
      <trkpt lat="43.05823" lon="-1.21335">
        <ele>897.076773</ele>
        <time>2026-05-22T12:30:02.000Z</time>
      </trkpt>
      <trkpt lat="43.05822" lon="-1.21336">
        <ele>897.197704</ele>
        <time>2026-05-22T12:30:03.000Z</time>
      </trkpt>
      <trkpt lat="43.05821" lon="-1.21338">
        <ele>897.331196</ele>
        <time>2026-05-22T12:30:04.000Z</time>
      </trkpt>
      <trkpt lat="43.0582" lon="-1.2134">
        <ele>897.463451</ele>
        <time>2026-05-22T12:30:05.000Z</time>
      </trkpt>
      <trkpt lat="43.05819" lon="-1.21341">
        <ele>897.588394</ele>
        <time>2026-05-22T12:30:06.000Z</time>
      </trkpt>
      <trkpt lat="43.05817" lon="-1.21342">
        <ele>897.713337</ele>
        <time>2026-05-22T12:30:07.000Z</time>
      </trkpt>
      <trkpt lat="43.05816" lon="-1.21343">
        <ele>897.834268</ele>
        <time>2026-05-22T12:30:08.000Z</time>
      </trkpt>
      <trkpt lat="43.05815" lon="-1.21345">
        <ele>897.961815</ele>
        <time>2026-05-22T12:30:09.000Z</time>
      </trkpt>
      <trkpt lat="43.05815" lon="-1.21346">
        <ele>898.078957</ele>
        <time>2026-05-22T12:30:10.000Z</time>
      </trkpt>
      <trkpt lat="43.05814" lon="-1.21348">
        <ele>898.197546</ele>
        <time>2026-05-22T12:30:11.000Z</time>
      </trkpt>
      <trkpt lat="43.05814" lon="-1.2135">
        <ele>898.312657</ele>
        <time>2026-05-22T12:30:12.000Z</time>
      </trkpt>
      <trkpt lat="43.05813" lon="-1.21352">
        <ele>898.43523</ele>
        <time>2026-05-22T12:30:13.000Z</time>
      </trkpt>
      <trkpt lat="43.05812" lon="-1.21353">
        <ele>898.537181</ele>
        <time>2026-05-22T12:30:14.000Z</time>
      </trkpt>
      <trkpt lat="43.05812" lon="-1.21355">
        <ele>898.65577</ele>
        <time>2026-05-22T12:30:15.000Z</time>
      </trkpt>
      <trkpt lat="43.05811" lon="-1.21356">
        <ele>898.768737</ele>
        <time>2026-05-22T12:30:16.000Z</time>
      </trkpt>
      <trkpt lat="43.0581" lon="-1.21358">
        <ele>898.876153</ele>
        <time>2026-05-22T12:30:17.000Z</time>
      </trkpt>
      <trkpt lat="43.0581" lon="-1.2136">
        <ele>899.006169</ele>
        <time>2026-05-22T12:30:18.000Z</time>
      </trkpt>
      <trkpt lat="43.0581" lon="-1.21362">
        <ele>899.132091</ele>
        <time>2026-05-22T12:30:19.000Z</time>
      </trkpt>
      <trkpt lat="43.0581" lon="-1.21363">
        <ele>899.246457</ele>
        <time>2026-05-22T12:30:20.000Z</time>
      </trkpt>
      <trkpt lat="43.05809" lon="-1.21365">
        <ele>899.354616</ele>
        <time>2026-05-22T12:30:21.000Z</time>
      </trkpt>
      <trkpt lat="43.05809" lon="-1.21367">
        <ele>899.46447</ele>
        <time>2026-05-22T12:30:22.000Z</time>
      </trkpt>
      <trkpt lat="43.05809" lon="-1.21369">
        <ele>899.574325</ele>
        <time>2026-05-22T12:30:23.000Z</time>
      </trkpt>
      <trkpt lat="43.05809" lon="-1.2137">
        <ele>899.682484</ele>
        <time>2026-05-22T12:30:24.000Z</time>
      </trkpt>
      <trkpt lat="43.05808" lon="-1.21372">
        <ele>899.795876</ele>
        <time>2026-05-22T12:30:25.000Z</time>
      </trkpt>
      <trkpt lat="43.05809" lon="-1.21374">
        <ele>899.909268</ele>
        <time>2026-05-22T12:30:26.000Z</time>
      </trkpt>
      <trkpt lat="43.05809" lon="-1.21376">
        <ele>900.017427</ele>
        <time>2026-05-22T12:30:27.000Z</time>
      </trkpt>
      <trkpt lat="43.05809" lon="-1.21377">
        <ele>900.12365</ele>
        <time>2026-05-22T12:30:28.000Z</time>
      </trkpt>
      <trkpt lat="43.0581" lon="-1.21379">
        <ele>900.253666</ele>
        <time>2026-05-22T12:30:29.000Z</time>
      </trkpt>
      <trkpt lat="43.0581" lon="-1.21381">
        <ele>900.377868</ele>
        <time>2026-05-22T12:30:30.000Z</time>
      </trkpt>
      <trkpt lat="43.0581" lon="-1.21383">
        <ele>900.498447</ele>
        <time>2026-05-22T12:30:31.000Z</time>
      </trkpt>
      <trkpt lat="43.05811" lon="-1.21385">
        <ele>900.612812</ele>
        <time>2026-05-22T12:30:32.000Z</time>
      </trkpt>
      <trkpt lat="43.05811" lon="-1.21386">
        <ele>900.727178</ele>
        <time>2026-05-22T12:30:33.000Z</time>
      </trkpt>
      <trkpt lat="43.05811" lon="-1.21388">
        <ele>900.840569</ele>
        <time>2026-05-22T12:30:34.000Z</time>
      </trkpt>
      <trkpt lat="43.05811" lon="-1.2139">
        <ele>900.953961</ele>
        <time>2026-05-22T12:30:35.000Z</time>
      </trkpt>
      <trkpt lat="43.05811" lon="-1.21392">
        <ele>901.067353</ele>
        <time>2026-05-22T12:30:36.000Z</time>
      </trkpt>
      <trkpt lat="43.05811" lon="-1.21394">
        <ele>901.187009</ele>
        <time>2026-05-22T12:30:37.000Z</time>
      </trkpt>
      <trkpt lat="43.05811" lon="-1.21396">
        <ele>901.306355</ele>
        <time>2026-05-22T12:30:38.000Z</time>
      </trkpt>
      <trkpt lat="43.05811" lon="-1.21398">
        <ele>901.425702</ele>
        <time>2026-05-22T12:30:39.000Z</time>
      </trkpt>
      <trkpt lat="43.05811" lon="-1.21399">
        <ele>901.545049</ele>
        <time>2026-05-22T12:30:40.000Z</time>
      </trkpt>
      <trkpt lat="43.05811" lon="-1.21401">
        <ele>901.670971</ele>
        <time>2026-05-22T12:30:41.000Z</time>
      </trkpt>
      <trkpt lat="43.05811" lon="-1.21403">
        <ele>901.786941</ele>
        <time>2026-05-22T12:30:42.000Z</time>
      </trkpt>
      <trkpt lat="43.0581" lon="-1.21405">
        <ele>901.90512</ele>
        <time>2026-05-22T12:30:43.000Z</time>
      </trkpt>
      <trkpt lat="43.0581" lon="-1.21407">
        <ele>902.023299</ele>
        <time>2026-05-22T12:30:44.000Z</time>
      </trkpt>
      <trkpt lat="43.05809" lon="-1.21409">
        <ele>902.144259</ele>
        <time>2026-05-22T12:30:45.000Z</time>
      </trkpt>
      <trkpt lat="43.05809" lon="-1.2141">
        <ele>902.262438</ele>
        <time>2026-05-22T12:30:46.000Z</time>
      </trkpt>
      <trkpt lat="43.05809" lon="-1.21413">
        <ele>902.395464</ele>
        <time>2026-05-22T12:30:47.000Z</time>
      </trkpt>
      <trkpt lat="43.05808" lon="-1.21415">
        <ele>902.531782</ele>
        <time>2026-05-22T12:30:48.000Z</time>
      </trkpt>
      <trkpt lat="43.05808" lon="-1.21417">
        <ele>902.658633</ele>
        <time>2026-05-22T12:30:49.000Z</time>
      </trkpt>
      <trkpt lat="43.05807" lon="-1.21419">
        <ele>902.800269</ele>
        <time>2026-05-22T12:30:50.000Z</time>
      </trkpt>
      <trkpt lat="43.05807" lon="-1.2142">
        <ele>902.918859</ele>
        <time>2026-05-22T12:30:51.000Z</time>
      </trkpt>
      <trkpt lat="43.05806" lon="-1.21422">
        <ele>903.045694</ele>
        <time>2026-05-22T12:30:52.000Z</time>
      </trkpt>
      <trkpt lat="43.05805" lon="-1.21423">
        <ele>903.181252</ele>
        <time>2026-05-22T12:30:53.000Z</time>
      </trkpt>
      <trkpt lat="43.05803" lon="-1.21425">
        <ele>903.31681</ele>
        <time>2026-05-22T12:30:54.000Z</time>
      </trkpt>
      <trkpt lat="43.05802" lon="-1.21426">
        <ele>903.444576</ele>
        <time>2026-05-22T12:30:55.000Z</time>
      </trkpt>
      <trkpt lat="43.05801" lon="-1.21427">
        <ele>903.572342</ele>
        <time>2026-05-22T12:30:56.000Z</time>
      </trkpt>
      <trkpt lat="43.058" lon="-1.21428">
        <ele>903.696506</ele>
        <time>2026-05-22T12:30:57.000Z</time>
      </trkpt>
      <trkpt lat="43.05798" lon="-1.21429">
        <ele>903.837307</ele>
        <time>2026-05-22T12:30:58.000Z</time>
      </trkpt>
      <trkpt lat="43.05797" lon="-1.2143">
        <ele>903.963426</ele>
        <time>2026-05-22T12:30:59.000Z</time>
      </trkpt>
      <trkpt lat="43.05796" lon="-1.2143">
        <ele>904.077975</ele>
        <time>2026-05-22T12:31:00.000Z</time>
      </trkpt>
      <trkpt lat="43.05794" lon="-1.21431">
        <ele>904.192524</ele>
        <time>2026-05-22T12:31:01.000Z</time>
      </trkpt>
      <trkpt lat="43.05793" lon="-1.21431">
        <ele>904.322847</ele>
        <time>2026-05-22T12:31:02.000Z</time>
      </trkpt>
      <trkpt lat="43.05791" lon="-1.21431">
        <ele>904.461682</ele>
        <time>2026-05-22T12:31:03.000Z</time>
      </trkpt>
      <trkpt lat="43.0579" lon="-1.21431">
        <ele>904.591246</ele>
        <time>2026-05-22T12:31:04.000Z</time>
      </trkpt>
      <trkpt lat="43.05788" lon="-1.21431">
        <ele>904.720352</ele>
        <time>2026-05-22T12:31:05.000Z</time>
      </trkpt>
      <trkpt lat="43.05787" lon="-1.21431">
        <ele>904.862226</ele>
        <time>2026-05-22T12:31:06.000Z</time>
      </trkpt>
      <trkpt lat="43.05785" lon="-1.21431">
        <ele>905.00569</ele>
        <time>2026-05-22T12:31:07.000Z</time>
      </trkpt>
      <trkpt lat="43.05783" lon="-1.2143">
        <ele>905.148137</ele>
        <time>2026-05-22T12:31:08.000Z</time>
      </trkpt>
      <trkpt lat="43.05782" lon="-1.2143">
        <ele>905.294467</ele>
        <time>2026-05-22T12:31:09.000Z</time>
      </trkpt>
      <trkpt lat="43.0578" lon="-1.2143">
        <ele>905.436183</ele>
        <time>2026-05-22T12:31:10.000Z</time>
      </trkpt>
      <trkpt lat="43.05779" lon="-1.2143">
        <ele>905.568649</ele>
        <time>2026-05-22T12:31:11.000Z</time>
      </trkpt>
      <trkpt lat="43.05777" lon="-1.2143">
        <ele>905.701583</ele>
        <time>2026-05-22T12:31:12.000Z</time>
      </trkpt>
      <trkpt lat="43.05776" lon="-1.2143">
        <ele>905.826575</ele>
        <time>2026-05-22T12:31:13.000Z</time>
      </trkpt>
      <trkpt lat="43.05774" lon="-1.2143">
        <ele>905.95951</ele>
        <time>2026-05-22T12:31:14.000Z</time>
      </trkpt>
      <trkpt lat="43.05773" lon="-1.2143">
        <ele>906.102974</ele>
        <time>2026-05-22T12:31:15.000Z</time>
      </trkpt>
      <trkpt lat="43.05771" lon="-1.21429">
        <ele>906.247735</ele>
        <time>2026-05-22T12:31:16.000Z</time>
      </trkpt>
      <trkpt lat="43.0577" lon="-1.21429">
        <ele>906.385578</ele>
        <time>2026-05-22T12:31:17.000Z</time>
      </trkpt>
      <trkpt lat="43.05768" lon="-1.21428">
        <ele>906.525367</ele>
        <time>2026-05-22T12:31:18.000Z</time>
      </trkpt>
      <trkpt lat="43.05767" lon="-1.21427">
        <ele>906.66321</ele>
        <time>2026-05-22T12:31:19.000Z</time>
      </trkpt>
      <trkpt lat="43.05765" lon="-1.21427">
        <ele>906.798006</ele>
        <time>2026-05-22T12:31:20.000Z</time>
      </trkpt>
      <trkpt lat="43.05764" lon="-1.21426">
        <ele>906.940006</ele>
        <time>2026-05-22T12:31:21.000Z</time>
      </trkpt>
      <trkpt lat="43.05762" lon="-1.21425">
        <ele>907.077849</ele>
        <time>2026-05-22T12:31:22.000Z</time>
      </trkpt>
      <trkpt lat="43.05761" lon="-1.21425">
        <ele>907.215693</ele>
        <time>2026-05-22T12:31:23.000Z</time>
      </trkpt>
      <trkpt lat="43.05759" lon="-1.21424">
        <ele>907.362023</ele>
        <time>2026-05-22T12:31:24.000Z</time>
      </trkpt>
      <trkpt lat="43.05758" lon="-1.21424">
        <ele>907.489646</ele>
        <time>2026-05-22T12:31:25.000Z</time>
      </trkpt>
      <trkpt lat="43.05756" lon="-1.21423">
        <ele>907.632093</ele>
        <time>2026-05-22T12:31:26.000Z</time>
      </trkpt>
      <trkpt lat="43.05755" lon="-1.21423">
        <ele>907.765028</ele>
        <time>2026-05-22T12:31:27.000Z</time>
      </trkpt>
      <trkpt lat="43.05753" lon="-1.21423">
        <ele>907.906744</ele>
        <time>2026-05-22T12:31:28.000Z</time>
      </trkpt>
      <trkpt lat="43.05751" lon="-1.21423">
        <ele>908.04846</ele>
        <time>2026-05-22T12:31:29.000Z</time>
      </trkpt>
      <trkpt lat="43.0575" lon="-1.21423">
        <ele>908.181395</ele>
        <time>2026-05-22T12:31:30.000Z</time>
      </trkpt>
      <trkpt lat="43.05748" lon="-1.21422">
        <ele>908.31433</ele>
        <time>2026-05-22T12:31:31.000Z</time>
      </trkpt>
      <trkpt lat="43.05747" lon="-1.21422">
        <ele>908.448043</ele>
        <time>2026-05-22T12:31:32.000Z</time>
      </trkpt>
      <trkpt lat="43.05745" lon="-1.21422">
        <ele>908.572202</ele>
        <time>2026-05-22T12:31:33.000Z</time>
      </trkpt>
      <trkpt lat="43.05744" lon="-1.21422">
        <ele>908.68705</ele>
        <time>2026-05-22T12:31:34.000Z</time>
      </trkpt>
      <trkpt lat="43.05743" lon="-1.21421">
        <ele>908.814673</ele>
        <time>2026-05-22T12:31:35.000Z</time>
      </trkpt>
      <trkpt lat="43.05741" lon="-1.21421">
        <ele>908.949469</ele>
        <time>2026-05-22T12:31:36.000Z</time>
      </trkpt>
      <trkpt lat="43.0574" lon="-1.21421">
        <ele>909.084266</ele>
        <time>2026-05-22T12:31:37.000Z</time>
      </trkpt>
      <trkpt lat="43.05738" lon="-1.2142">
        <ele>909.219062</ele>
        <time>2026-05-22T12:31:38.000Z</time>
      </trkpt>
      <trkpt lat="43.05737" lon="-1.2142">
        <ele>909.352776</ele>
        <time>2026-05-22T12:31:39.000Z</time>
      </trkpt>
      <trkpt lat="43.05735" lon="-1.2142">
        <ele>909.48571</ele>
        <time>2026-05-22T12:31:40.000Z</time>
      </trkpt>
      <trkpt lat="43.05734" lon="-1.2142">
        <ele>909.618019</ele>
        <time>2026-05-22T12:31:41.000Z</time>
      </trkpt>
      <trkpt lat="43.05732" lon="-1.2142">
        <ele>909.741674</ele>
        <time>2026-05-22T12:31:42.000Z</time>
      </trkpt>
      <trkpt lat="43.05731" lon="-1.2142">
        <ele>909.86533</ele>
        <time>2026-05-22T12:31:43.000Z</time>
      </trkpt>
      <trkpt lat="43.0573" lon="-1.2142">
        <ele>909.979997</ele>
        <time>2026-05-22T12:31:44.000Z</time>
      </trkpt>
      <trkpt lat="43.05728" lon="-1.2142">
        <ele>910.094845</ele>
        <time>2026-05-22T12:31:45.000Z</time>
      </trkpt>
      <trkpt lat="43.05727" lon="-1.2142">
        <ele>910.200692</ele>
        <time>2026-05-22T12:31:46.000Z</time>
      </trkpt>
      <trkpt lat="43.05726" lon="-1.2142">
        <ele>910.315359</ele>
        <time>2026-05-22T12:31:47.000Z</time>
      </trkpt>
      <trkpt lat="43.05724" lon="-1.2142">
        <ele>910.439015</ele>
        <time>2026-05-22T12:31:48.000Z</time>
      </trkpt>
      <trkpt lat="43.05723" lon="-1.2142">
        <ele>910.562503</ele>
        <time>2026-05-22T12:31:49.000Z</time>
      </trkpt>
      <trkpt lat="43.05722" lon="-1.2142">
        <ele>910.695437</ele>
        <time>2026-05-22T12:31:50.000Z</time>
      </trkpt>
      <trkpt lat="43.0572" lon="-1.2142">
        <ele>910.819093</ele>
        <time>2026-05-22T12:31:51.000Z</time>
      </trkpt>
      <trkpt lat="43.05719" lon="-1.2142">
        <ele>910.942749</ele>
        <time>2026-05-22T12:31:52.000Z</time>
      </trkpt>
      <trkpt lat="43.05717" lon="-1.2142">
        <ele>911.066237</ele>
        <time>2026-05-22T12:31:53.000Z</time>
      </trkpt>
      <trkpt lat="43.05716" lon="-1.2142">
        <ele>911.198545</ele>
        <time>2026-05-22T12:31:54.000Z</time>
      </trkpt>
      <trkpt lat="43.05714" lon="-1.2142">
        <ele>911.323537</ele>
        <time>2026-05-22T12:31:55.000Z</time>
      </trkpt>
      <trkpt lat="43.05713" lon="-1.21419">
        <ele>911.444549</ele>
        <time>2026-05-22T12:31:56.000Z</time>
      </trkpt>
      <trkpt lat="43.05712" lon="-1.21419">
        <ele>911.579345</ele>
        <time>2026-05-22T12:31:57.000Z</time>
      </trkpt>
      <trkpt lat="43.0571" lon="-1.21418">
        <ele>911.713059</ele>
        <time>2026-05-22T12:31:58.000Z</time>
      </trkpt>
      <trkpt lat="43.05709" lon="-1.21418">
        <ele>911.828448</ele>
        <time>2026-05-22T12:31:59.000Z</time>
      </trkpt>
      <trkpt lat="43.05707" lon="-1.21418">
        <ele>911.954598</ele>
        <time>2026-05-22T12:32:00.000Z</time>
      </trkpt>
      <trkpt lat="43.05706" lon="-1.21417">
        <ele>912.089395</ele>
        <time>2026-05-22T12:32:01.000Z</time>
      </trkpt>
      <trkpt lat="43.05704" lon="-1.21417">
        <ele>912.222329</ele>
        <time>2026-05-22T12:32:02.000Z</time>
      </trkpt>
      <trkpt lat="43.05703" lon="-1.21417">
        <ele>912.358505</ele>
        <time>2026-05-22T12:32:03.000Z</time>
      </trkpt>
      <trkpt lat="43.05701" lon="-1.21416">
        <ele>912.496349</ele>
        <time>2026-05-22T12:32:04.000Z</time>
      </trkpt>
      <trkpt lat="43.057" lon="-1.21415">
        <ele>912.634192</ele>
        <time>2026-05-22T12:32:05.000Z</time>
      </trkpt>
      <trkpt lat="43.05699" lon="-1.21415">
        <ele>912.750478</ele>
        <time>2026-05-22T12:32:06.000Z</time>
      </trkpt>
      <trkpt lat="43.05697" lon="-1.21415">
        <ele>912.885275</ele>
        <time>2026-05-22T12:32:07.000Z</time>
      </trkpt>
      <trkpt lat="43.05696" lon="-1.21414">
        <ele>913.011425</ele>
        <time>2026-05-22T12:32:08.000Z</time>
      </trkpt>
      <trkpt lat="43.05694" lon="-1.21414">
        <ele>913.132437</ele>
        <time>2026-05-22T12:32:09.000Z</time>
      </trkpt>
      <trkpt lat="43.05693" lon="-1.21413">
        <ele>913.261837</ele>
        <time>2026-05-22T12:32:10.000Z</time>
      </trkpt>
      <trkpt lat="43.05692" lon="-1.21413">
        <ele>913.38683</ele>
        <time>2026-05-22T12:32:11.000Z</time>
      </trkpt>
      <trkpt lat="43.0569" lon="-1.21412">
        <ele>913.512979</ele>
        <time>2026-05-22T12:32:12.000Z</time>
      </trkpt>
      <trkpt lat="43.05689" lon="-1.21412">
        <ele>913.630509</ele>
        <time>2026-05-22T12:32:13.000Z</time>
      </trkpt>
      <trkpt lat="43.05688" lon="-1.21412">
        <ele>913.755501</ele>
        <time>2026-05-22T12:32:14.000Z</time>
      </trkpt>
      <trkpt lat="43.05686" lon="-1.21412">
        <ele>913.870349</ele>
        <time>2026-05-22T12:32:15.000Z</time>
      </trkpt>
      <trkpt lat="43.05685" lon="-1.21411">
        <ele>914.005146</ele>
        <time>2026-05-22T12:32:16.000Z</time>
      </trkpt>
      <trkpt lat="43.05683" lon="-1.21411">
        <ele>914.142989</ele>
        <time>2026-05-22T12:32:17.000Z</time>
      </trkpt>
      <trkpt lat="43.05682" lon="-1.2141">
        <ele>914.269139</ele>
        <time>2026-05-22T12:32:18.000Z</time>
      </trkpt>
      <trkpt lat="43.0568" lon="-1.2141">
        <ele>914.402853</ele>
        <time>2026-05-22T12:32:19.000Z</time>
      </trkpt>
      <trkpt lat="43.05679" lon="-1.2141">
        <ele>914.518242</ele>
        <time>2026-05-22T12:32:20.000Z</time>
      </trkpt>
      <trkpt lat="43.05678" lon="-1.21409">
        <ele>914.637351</ele>
        <time>2026-05-22T12:32:21.000Z</time>
      </trkpt>
      <trkpt lat="43.05676" lon="-1.21409">
        <ele>914.763501</ele>
        <time>2026-05-22T12:32:22.000Z</time>
      </trkpt>
      <trkpt lat="43.05675" lon="-1.21409">
        <ele>914.895966</ele>
        <time>2026-05-22T12:32:23.000Z</time>
      </trkpt>
      <trkpt lat="43.05674" lon="-1.21409">
        <ele>914.9949</ele>
        <time>2026-05-22T12:32:24.000Z</time>
      </trkpt>
      <trkpt lat="43.05672" lon="-1.21409">
        <ele>915.136176</ele>
        <time>2026-05-22T12:32:25.000Z</time>
      </trkpt>
      <trkpt lat="43.05671" lon="-1.21409">
        <ele>915.259664</ele>
        <time>2026-05-22T12:32:26.000Z</time>
      </trkpt>
      <trkpt lat="43.05669" lon="-1.21409">
        <ele>915.375053</ele>
        <time>2026-05-22T12:32:27.000Z</time>
      </trkpt>
      <trkpt lat="43.05668" lon="-1.21409">
        <ele>915.499212</ele>
        <time>2026-05-22T12:32:28.000Z</time>
      </trkpt>
      <trkpt lat="43.05667" lon="-1.21408">
        <ele>915.615498</ele>
        <time>2026-05-22T12:32:29.000Z</time>
      </trkpt>
      <trkpt lat="43.05666" lon="-1.21408">
        <ele>915.722126</ele>
        <time>2026-05-22T12:32:30.000Z</time>
      </trkpt>
      <trkpt lat="43.05664" lon="-1.21408">
        <ele>915.831067</ele>
        <time>2026-05-22T12:32:31.000Z</time>
      </trkpt>
      <trkpt lat="43.05663" lon="-1.21407">
        <ele>915.943756</ele>
        <time>2026-05-22T12:32:32.000Z</time>
      </trkpt>
      <trkpt lat="43.05662" lon="-1.21407">
        <ele>916.052697</ele>
        <time>2026-05-22T12:32:33.000Z</time>
      </trkpt>
      <trkpt lat="43.05661" lon="-1.21407">
        <ele>916.167364</ele>
        <time>2026-05-22T12:32:34.000Z</time>
      </trkpt>
      <trkpt lat="43.05659" lon="-1.21407">
        <ele>916.282213</ele>
        <time>2026-05-22T12:32:35.000Z</time>
      </trkpt>
      <trkpt lat="43.05658" lon="-1.21406">
        <ele>916.397602</ele>
        <time>2026-05-22T12:32:36.000Z</time>
      </trkpt>
      <trkpt lat="43.05657" lon="-1.21406">
        <ele>916.503448</ele>
        <time>2026-05-22T12:32:37.000Z</time>
      </trkpt>
      <trkpt lat="43.05656" lon="-1.21406">
        <ele>916.609295</ele>
        <time>2026-05-22T12:32:38.000Z</time>
      </trkpt>
      <trkpt lat="43.05654" lon="-1.21406">
        <ele>916.716893</ele>
        <time>2026-05-22T12:32:39.000Z</time>
      </trkpt>
      <trkpt lat="43.05653" lon="-1.21406">
        <ele>916.831741</ele>
        <time>2026-05-22T12:32:40.000Z</time>
      </trkpt>
      <trkpt lat="43.05652" lon="-1.21406">
        <ele>916.946589</ele>
        <time>2026-05-22T12:32:41.000Z</time>
      </trkpt>
      <trkpt lat="43.05651" lon="-1.21406">
        <ele>917.05553</ele>
        <time>2026-05-22T12:32:42.000Z</time>
      </trkpt>
      <trkpt lat="43.05649" lon="-1.21405">
        <ele>917.16822</ele>
        <time>2026-05-22T12:32:43.000Z</time>
      </trkpt>
      <trkpt lat="43.05648" lon="-1.21404">
        <ele>917.278863</ele>
        <time>2026-05-22T12:32:44.000Z</time>
      </trkpt>
      <trkpt lat="43.05647" lon="-1.21404">
        <ele>917.389506</ele>
        <time>2026-05-22T12:32:45.000Z</time>
      </trkpt>
      <trkpt lat="43.05646" lon="-1.21403">
        <ele>917.512729</ele>
        <time>2026-05-22T12:32:46.000Z</time>
      </trkpt>
      <trkpt lat="43.05645" lon="-1.21403">
        <ele>917.620328</ele>
        <time>2026-05-22T12:32:47.000Z</time>
      </trkpt>
      <trkpt lat="43.05643" lon="-1.21403">
        <ele>917.735176</ele>
        <time>2026-05-22T12:32:48.000Z</time>
      </trkpt>
      <trkpt lat="43.05642" lon="-1.21403">
        <ele>917.860168</ele>
        <time>2026-05-22T12:32:49.000Z</time>
      </trkpt>
      <trkpt lat="43.05641" lon="-1.21402">
        <ele>917.977697</ele>
        <time>2026-05-22T12:32:50.000Z</time>
      </trkpt>
      <trkpt lat="43.05639" lon="-1.21402">
        <ele>918.096807</ele>
        <time>2026-05-22T12:32:51.000Z</time>
      </trkpt>
      <trkpt lat="43.05638" lon="-1.21402">
        <ele>918.213092</ele>
        <time>2026-05-22T12:32:52.000Z</time>
      </trkpt>
      <trkpt lat="43.05637" lon="-1.21401">
        <ele>918.329378</ele>
        <time>2026-05-22T12:32:53.000Z</time>
      </trkpt>
      <trkpt lat="43.05635" lon="-1.21401">
        <ele>918.445664</ele>
        <time>2026-05-22T12:32:54.000Z</time>
      </trkpt>
      <trkpt lat="43.05634" lon="-1.214">
        <ele>918.564773</ele>
        <time>2026-05-22T12:32:55.000Z</time>
      </trkpt>
      <trkpt lat="43.05633" lon="-1.214">
        <ele>918.690923</ele>
        <time>2026-05-22T12:32:56.000Z</time>
      </trkpt>
      <trkpt lat="43.05631" lon="-1.214">
        <ele>918.806313</ele>
        <time>2026-05-22T12:32:57.000Z</time>
      </trkpt>
      <trkpt lat="43.0563" lon="-1.214">
        <ele>918.929969</ele>
        <time>2026-05-22T12:32:58.000Z</time>
      </trkpt>
      <trkpt lat="43.05629" lon="-1.214">
        <ele>919.044817</ele>
        <time>2026-05-22T12:32:59.000Z</time>
      </trkpt>
      <trkpt lat="43.05627" lon="-1.214">
        <ele>919.161103</ele>
        <time>2026-05-22T12:33:00.000Z</time>
      </trkpt>
      <trkpt lat="43.05626" lon="-1.21399">
        <ele>919.271746</ele>
        <time>2026-05-22T12:33:01.000Z</time>
      </trkpt>
      <trkpt lat="43.05625" lon="-1.21398">
        <ele>919.401147</ele>
        <time>2026-05-22T12:33:02.000Z</time>
      </trkpt>
      <trkpt lat="43.05624" lon="-1.21398">
        <ele>919.516207</ele>
        <time>2026-05-22T12:33:03.000Z</time>
      </trkpt>
      <trkpt lat="43.05622" lon="-1.21397">
        <ele>919.645608</ele>
        <time>2026-05-22T12:33:04.000Z</time>
      </trkpt>
      <trkpt lat="43.05621" lon="-1.21397">
        <ele>919.769767</ele>
        <time>2026-05-22T12:33:05.000Z</time>
      </trkpt>
      <trkpt lat="43.05619" lon="-1.21397">
        <ele>919.893255</ele>
        <time>2026-05-22T12:33:06.000Z</time>
      </trkpt>
      <trkpt lat="43.05618" lon="-1.21397">
        <ele>920.01691</ele>
        <time>2026-05-22T12:33:07.000Z</time>
      </trkpt>
      <trkpt lat="43.05617" lon="-1.21397">
        <ele>920.140398</ele>
        <time>2026-05-22T12:33:08.000Z</time>
      </trkpt>
      <trkpt lat="43.05615" lon="-1.21397">
        <ele>920.272863</ele>
        <time>2026-05-22T12:33:09.000Z</time>
      </trkpt>
      <trkpt lat="43.05614" lon="-1.21397">
        <ele>920.397855</ele>
        <time>2026-05-22T12:33:10.000Z</time>
      </trkpt>
      <trkpt lat="43.05612" lon="-1.21396">
        <ele>920.524006</ele>
        <time>2026-05-22T12:33:11.000Z</time>
      </trkpt>
      <trkpt lat="43.05611" lon="-1.21396">
        <ele>920.644566</ele>
        <time>2026-05-22T12:33:12.000Z</time>
      </trkpt>
      <trkpt lat="43.0561" lon="-1.21395">
        <ele>920.779358</ele>
        <time>2026-05-22T12:33:13.000Z</time>
      </trkpt>
      <trkpt lat="43.05608" lon="-1.21394">
        <ele>920.897035</ele>
        <time>2026-05-22T12:33:14.000Z</time>
      </trkpt>
      <trkpt lat="43.05607" lon="-1.21394">
        <ele>921.001803</ele>
        <time>2026-05-22T12:33:15.000Z</time>
      </trkpt>
      <trkpt lat="43.05606" lon="-1.21394">
        <ele>921.115092</ele>
        <time>2026-05-22T12:33:16.000Z</time>
      </trkpt>
      <trkpt lat="43.05604" lon="-1.21394">
        <ele>921.245964</ele>
        <time>2026-05-22T12:33:17.000Z</time>
      </trkpt>
      <trkpt lat="43.05603" lon="-1.21394">
        <ele>921.376837</ele>
        <time>2026-05-22T12:33:18.000Z</time>
      </trkpt>
      <trkpt lat="43.05601" lon="-1.21394">
        <ele>921.491725</ele>
        <time>2026-05-22T12:33:19.000Z</time>
      </trkpt>
      <trkpt lat="43.056" lon="-1.21393">
        <ele>921.605727</ele>
        <time>2026-05-22T12:33:20.000Z</time>
      </trkpt>
      <trkpt lat="43.05599" lon="-1.21393">
        <ele>921.719194</ele>
        <time>2026-05-22T12:33:21.000Z</time>
      </trkpt>
      <trkpt lat="43.05597" lon="-1.21393">
        <ele>921.841363</ele>
        <time>2026-05-22T12:33:22.000Z</time>
      </trkpt>
      <trkpt lat="43.05596" lon="-1.21393">
        <ele>921.948995</ele>
        <time>2026-05-22T12:33:23.000Z</time>
      </trkpt>
      <trkpt lat="43.05595" lon="-1.21393">
        <ele>922.053762</ele>
        <time>2026-05-22T12:33:24.000Z</time>
      </trkpt>
      <trkpt lat="43.05594" lon="-1.21393">
        <ele>922.167051</ele>
        <time>2026-05-22T12:33:25.000Z</time>
      </trkpt>
      <trkpt lat="43.05592" lon="-1.21393">
        <ele>922.289054</ele>
        <time>2026-05-22T12:33:26.000Z</time>
      </trkpt>
      <trkpt lat="43.05591" lon="-1.21393">
        <ele>922.41172</ele>
        <time>2026-05-22T12:33:27.000Z</time>
      </trkpt>
      <trkpt lat="43.0559" lon="-1.21392">
        <ele>922.533889</ele>
        <time>2026-05-22T12:33:28.000Z</time>
      </trkpt>
      <trkpt lat="43.05588" lon="-1.21392">
        <ele>922.647178</ele>
        <time>2026-05-22T12:33:29.000Z</time>
      </trkpt>
      <trkpt lat="43.05587" lon="-1.21392">
        <ele>922.751945</ele>
        <time>2026-05-22T12:33:30.000Z</time>
      </trkpt>
      <trkpt lat="43.05586" lon="-1.21392">
        <ele>922.878034</ele>
        <time>2026-05-22T12:33:31.000Z</time>
      </trkpt>
      <trkpt lat="43.05584" lon="-1.21391">
        <ele>922.994151</ele>
        <time>2026-05-22T12:33:32.000Z</time>
      </trkpt>
      <trkpt lat="43.05583" lon="-1.21391">
        <ele>923.107618</ele>
        <time>2026-05-22T12:33:33.000Z</time>
      </trkpt>
      <trkpt lat="43.05582" lon="-1.21391">
        <ele>923.213923</ele>
        <time>2026-05-22T12:33:34.000Z</time>
      </trkpt>
      <trkpt lat="43.05581" lon="-1.21391">
        <ele>923.328811</ele>
        <time>2026-05-22T12:33:35.000Z</time>
      </trkpt>
      <trkpt lat="43.05579" lon="-1.2139">
        <ele>923.453444</ele>
        <time>2026-05-22T12:33:36.000Z</time>
      </trkpt>
      <trkpt lat="43.05578" lon="-1.2139">
        <ele>923.573002</ele>
        <time>2026-05-22T12:33:37.000Z</time>
      </trkpt>
      <trkpt lat="43.05577" lon="-1.2139">
        <ele>923.687004</ele>
        <time>2026-05-22T12:33:38.000Z</time>
      </trkpt>
      <trkpt lat="43.05575" lon="-1.21389">
        <ele>923.801006</ele>
        <time>2026-05-22T12:33:39.000Z</time>
      </trkpt>
      <trkpt lat="43.05574" lon="-1.21389">
        <ele>923.923009</ele>
        <time>2026-05-22T12:33:40.000Z</time>
      </trkpt>
      <trkpt lat="43.05573" lon="-1.21389">
        <ele>924.036476</ele>
        <time>2026-05-22T12:33:41.000Z</time>
      </trkpt>
      <trkpt lat="43.05571" lon="-1.21389">
        <ele>924.14105</ele>
        <time>2026-05-22T12:33:42.000Z</time>
      </trkpt>
      <trkpt lat="43.0557" lon="-1.21389">
        <ele>924.263054</ele>
        <time>2026-05-22T12:33:43.000Z</time>
      </trkpt>
      <trkpt lat="43.05569" lon="-1.2139">
        <ele>924.376521</ele>
        <time>2026-05-22T12:33:44.000Z</time>
      </trkpt>
      <trkpt lat="43.05567" lon="-1.2139">
        <ele>924.481289</ele>
        <time>2026-05-22T12:33:45.000Z</time>
      </trkpt>
      <trkpt lat="43.05566" lon="-1.21389">
        <ele>924.579033</ele>
        <time>2026-05-22T12:33:46.000Z</time>
      </trkpt>
      <trkpt lat="43.05565" lon="-1.21389">
        <ele>924.688346</ele>
        <time>2026-05-22T12:33:47.000Z</time>
      </trkpt>
      <trkpt lat="43.05564" lon="-1.21388">
        <ele>924.802024</ele>
        <time>2026-05-22T12:33:48.000Z</time>
      </trkpt>
      <trkpt lat="43.05563" lon="-1.21388">
        <ele>924.921581</ele>
        <time>2026-05-22T12:33:49.000Z</time>
      </trkpt>
      <trkpt lat="43.05561" lon="-1.21387">
        <ele>925.036469</ele>
        <time>2026-05-22T12:33:50.000Z</time>
      </trkpt>
      <trkpt lat="43.0556" lon="-1.21387">
        <ele>925.149936</ele>
        <time>2026-05-22T12:33:51.000Z</time>
      </trkpt>
      <trkpt lat="43.05559" lon="-1.21387">
        <ele>925.255283</ele>
        <time>2026-05-22T12:33:52.000Z</time>
      </trkpt>
      <trkpt lat="43.05558" lon="-1.21387">
        <ele>925.36063</ele>
        <time>2026-05-22T12:33:53.000Z</time>
      </trkpt>
      <trkpt lat="43.05556" lon="-1.21387">
        <ele>925.474097</ele>
        <time>2026-05-22T12:33:54.000Z</time>
      </trkpt>
      <trkpt lat="43.05555" lon="-1.21386">
        <ele>925.591775</ele>
        <time>2026-05-22T12:33:55.000Z</time>
      </trkpt>
      <trkpt lat="43.05554" lon="-1.21385">
        <ele>925.718734</ele>
        <time>2026-05-22T12:33:56.000Z</time>
      </trkpt>
      <trkpt lat="43.05552" lon="-1.21385">
        <ele>925.844823</ele>
        <time>2026-05-22T12:33:57.000Z</time>
      </trkpt>
      <trkpt lat="43.05551" lon="-1.21385">
        <ele>925.984835</ele>
        <time>2026-05-22T12:33:58.000Z</time>
      </trkpt>
      <trkpt lat="43.05549" lon="-1.21384">
        <ele>926.099723</ele>
        <time>2026-05-22T12:33:59.000Z</time>
      </trkpt>
      <trkpt lat="43.05548" lon="-1.21384">
        <ele>926.223938</ele>
        <time>2026-05-22T12:34:00.000Z</time>
      </trkpt>
      <trkpt lat="43.05547" lon="-1.21383">
        <ele>926.348152</ele>
        <time>2026-05-22T12:34:01.000Z</time>
      </trkpt>
      <trkpt lat="43.05546" lon="-1.21382">
        <ele>926.472367</ele>
        <time>2026-05-22T12:34:02.000Z</time>
      </trkpt>
      <trkpt lat="43.05544" lon="-1.21382">
        <ele>926.598456</ele>
        <time>2026-05-22T12:34:03.000Z</time>
      </trkpt>
      <trkpt lat="43.05543" lon="-1.21381">
        <ele>926.726301</ele>
        <time>2026-05-22T12:34:04.000Z</time>
      </trkpt>
      <trkpt lat="43.05542" lon="-1.21381">
        <ele>926.833933</ele>
        <time>2026-05-22T12:34:05.000Z</time>
      </trkpt>
      <trkpt lat="43.0554" lon="-1.2138">
        <ele>926.9474</ele>
        <time>2026-05-22T12:34:06.000Z</time>
      </trkpt>
      <trkpt lat="43.05539" lon="-1.2138">
        <ele>927.060868</ele>
        <time>2026-05-22T12:34:07.000Z</time>
      </trkpt>
      <trkpt lat="43.05538" lon="-1.2138">
        <ele>927.168499</ele>
        <time>2026-05-22T12:34:08.000Z</time>
      </trkpt>
      <trkpt lat="43.05536" lon="-1.2138">
        <ele>927.300605</ele>
        <time>2026-05-22T12:34:09.000Z</time>
      </trkpt>
      <trkpt lat="43.05535" lon="-1.21379">
        <ele>927.418282</ele>
        <time>2026-05-22T12:34:10.000Z</time>
      </trkpt>
      <trkpt lat="43.05534" lon="-1.21379">
        <ele>927.532284</ele>
        <time>2026-05-22T12:34:11.000Z</time>
      </trkpt>
      <trkpt lat="43.05532" lon="-1.21379">
        <ele>927.646287</ele>
        <time>2026-05-22T12:34:12.000Z</time>
      </trkpt>
      <trkpt lat="43.05531" lon="-1.21378">
        <ele>927.765844</ele>
        <time>2026-05-22T12:34:13.000Z</time>
      </trkpt>
      <trkpt lat="43.0553" lon="-1.21377">
        <ele>927.87156</ele>
        <time>2026-05-22T12:34:14.000Z</time>
      </trkpt>
      <trkpt lat="43.05529" lon="-1.21377">
        <ele>927.985237</ele>
        <time>2026-05-22T12:34:15.000Z</time>
      </trkpt>
      <trkpt lat="43.05527" lon="-1.21376">
        <ele>928.109452</ele>
        <time>2026-05-22T12:34:16.000Z</time>
      </trkpt>
      <trkpt lat="43.05526" lon="-1.21375">
        <ele>928.22901</ele>
        <time>2026-05-22T12:34:17.000Z</time>
      </trkpt>
      <trkpt lat="43.05525" lon="-1.21375">
        <ele>928.345331</ele>
        <time>2026-05-22T12:34:18.000Z</time>
      </trkpt>
      <trkpt lat="43.05524" lon="-1.21374">
        <ele>928.469546</ele>
        <time>2026-05-22T12:34:19.000Z</time>
      </trkpt>
      <trkpt lat="43.05522" lon="-1.21373">
        <ele>928.599437</ele>
        <time>2026-05-22T12:34:20.000Z</time>
      </trkpt>
      <trkpt lat="43.05521" lon="-1.21372">
        <ele>928.721179</ele>
        <time>2026-05-22T12:34:21.000Z</time>
      </trkpt>
      <trkpt lat="43.0552" lon="-1.21372">
        <ele>928.842921</ele>
        <time>2026-05-22T12:34:22.000Z</time>
      </trkpt>
      <trkpt lat="43.05518" lon="-1.21371">
        <ele>928.972811</ele>
        <time>2026-05-22T12:34:23.000Z</time>
      </trkpt>
      <trkpt lat="43.05517" lon="-1.2137">
        <ele>929.094553</ele>
        <time>2026-05-22T12:34:24.000Z</time>
      </trkpt>
      <trkpt lat="43.05516" lon="-1.2137">
        <ele>929.220642</ele>
        <time>2026-05-22T12:34:25.000Z</time>
      </trkpt>
      <trkpt lat="43.05514" lon="-1.21369">
        <ele>929.348488</ele>
        <time>2026-05-22T12:34:26.000Z</time>
      </trkpt>
      <trkpt lat="43.05513" lon="-1.21369">
        <ele>929.480594</ele>
        <time>2026-05-22T12:34:27.000Z</time>
      </trkpt>
      <trkpt lat="43.05511" lon="-1.21369">
        <ele>929.602763</ele>
        <time>2026-05-22T12:34:28.000Z</time>
      </trkpt>
      <trkpt lat="43.0551" lon="-1.21369">
        <ele>929.716765</ele>
        <time>2026-05-22T12:34:29.000Z</time>
      </trkpt>
      <trkpt lat="43.05509" lon="-1.21369">
        <ele>929.831653</ele>
        <time>2026-05-22T12:34:30.000Z</time>
      </trkpt>
      <trkpt lat="43.05507" lon="-1.2137">
        <ele>929.946541</ele>
        <time>2026-05-22T12:34:31.000Z</time>
      </trkpt>
      <trkpt lat="43.05506" lon="-1.2137">
        <ele>930.060218</ele>
        <time>2026-05-22T12:34:32.000Z</time>
      </trkpt>
      <trkpt lat="43.05505" lon="-1.21371">
        <ele>930.17654</ele>
        <time>2026-05-22T12:34:33.000Z</time>
      </trkpt>
      <trkpt lat="43.05504" lon="-1.21372">
        <ele>930.308751</ele>
        <time>2026-05-22T12:34:34.000Z</time>
      </trkpt>
      <trkpt lat="43.05502" lon="-1.21373">
        <ele>930.43484</ele>
        <time>2026-05-22T12:34:35.000Z</time>
      </trkpt>
      <trkpt lat="43.05501" lon="-1.21373">
        <ele>930.550957</ele>
        <time>2026-05-22T12:34:36.000Z</time>
      </trkpt>
      <trkpt lat="43.055" lon="-1.21373">
        <ele>930.66027</ele>
        <time>2026-05-22T12:34:37.000Z</time>
      </trkpt>
      <trkpt lat="43.05498" lon="-1.21374">
        <ele>930.782012</ele>
        <time>2026-05-22T12:34:38.000Z</time>
      </trkpt>
      <trkpt lat="43.05497" lon="-1.21375">
        <ele>930.886313</ele>
        <time>2026-05-22T12:34:39.000Z</time>
      </trkpt>
      <trkpt lat="43.05496" lon="-1.21376">
        <ele>931.002214</ele>
        <time>2026-05-22T12:34:40.000Z</time>
      </trkpt>
      <trkpt lat="43.05495" lon="-1.21377">
        <ele>931.120938</ele>
        <time>2026-05-22T12:34:41.000Z</time>
      </trkpt>
      <trkpt lat="43.05494" lon="-1.21379">
        <ele>931.243526</ele>
        <time>2026-05-22T12:34:42.000Z</time>
      </trkpt>
      <trkpt lat="43.05493" lon="-1.2138">
        <ele>931.369391</ele>
        <time>2026-05-22T12:34:43.000Z</time>
      </trkpt>
      <trkpt lat="43.05492" lon="-1.21381">
        <ele>931.496046</ele>
        <time>2026-05-22T12:34:44.000Z</time>
      </trkpt>
      <trkpt lat="43.05491" lon="-1.21382">
        <ele>931.605546</ele>
        <time>2026-05-22T12:34:45.000Z</time>
      </trkpt>
      <trkpt lat="43.0549" lon="-1.21383">
        <ele>931.731411</ele>
        <time>2026-05-22T12:34:46.000Z</time>
      </trkpt>
      <trkpt lat="43.05489" lon="-1.21385">
        <ele>931.868826</ele>
        <time>2026-05-22T12:34:47.000Z</time>
      </trkpt>
      <trkpt lat="43.05487" lon="-1.21386">
        <ele>932.019339</ele>
        <time>2026-05-22T12:34:48.000Z</time>
      </trkpt>
      <trkpt lat="43.05486" lon="-1.21387">
        <ele>932.145204</ele>
        <time>2026-05-22T12:34:49.000Z</time>
      </trkpt>
      <trkpt lat="43.05485" lon="-1.21389">
        <ele>932.271069</ele>
        <time>2026-05-22T12:34:50.000Z</time>
      </trkpt>
      <trkpt lat="43.05484" lon="-1.21389">
        <ele>932.398028</ele>
        <time>2026-05-22T12:34:51.000Z</time>
      </trkpt>
      <trkpt lat="43.05482" lon="-1.2139">
        <ele>932.520464</ele>
        <time>2026-05-22T12:34:52.000Z</time>
      </trkpt>
      <trkpt lat="43.05481" lon="-1.21392">
        <ele>932.643052</ele>
        <time>2026-05-22T12:34:53.000Z</time>
      </trkpt>
      <trkpt lat="43.0548" lon="-1.21393">
        <ele>932.763247</ele>
        <time>2026-05-22T12:34:54.000Z</time>
      </trkpt>
      <trkpt lat="43.05479" lon="-1.21394">
        <ele>932.879148</ele>
        <time>2026-05-22T12:34:55.000Z</time>
      </trkpt>
      <trkpt lat="43.05478" lon="-1.21395">
        <ele>933.012521</ele>
        <time>2026-05-22T12:34:56.000Z</time>
      </trkpt>
      <trkpt lat="43.05477" lon="-1.21397">
        <ele>933.131245</ele>
        <time>2026-05-22T12:34:57.000Z</time>
      </trkpt>
      <trkpt lat="43.05476" lon="-1.21398">
        <ele>933.262151</ele>
        <time>2026-05-22T12:34:58.000Z</time>
      </trkpt>
      <trkpt lat="43.05475" lon="-1.21399">
        <ele>933.380875</ele>
        <time>2026-05-22T12:34:59.000Z</time>
      </trkpt>
      <trkpt lat="43.05474" lon="-1.214">
        <ele>933.514247</ele>
        <time>2026-05-22T12:35:00.000Z</time>
      </trkpt>
      <trkpt lat="43.05472" lon="-1.21402">
        <ele>933.64762</ele>
        <time>2026-05-22T12:35:01.000Z</time>
      </trkpt>
      <trkpt lat="43.05471" lon="-1.21403">
        <ele>933.766344</ele>
        <time>2026-05-22T12:35:02.000Z</time>
      </trkpt>
      <trkpt lat="43.05471" lon="-1.21404">
        <ele>933.856592</ele>
        <time>2026-05-22T12:35:03.000Z</time>
      </trkpt>
      <trkpt lat="43.0547" lon="-1.21404">
        <ele>933.885672</ele>
        <time>2026-05-22T12:35:04.000Z</time>
      </trkpt>
      <trkpt lat="43.05465" lon="-1.21409">
        <ele>934.43392</ele>
        <time>2026-05-22T12:35:31.000Z</time>
      </trkpt>
      <trkpt lat="43.05464" lon="-1.2141">
        <ele>934.552644</ele>
        <time>2026-05-22T12:35:32.000Z</time>
      </trkpt>
      <trkpt lat="43.05463" lon="-1.21411">
        <ele>934.66445</ele>
        <time>2026-05-22T12:35:33.000Z</time>
      </trkpt>
      <trkpt lat="43.05462" lon="-1.21413">
        <ele>934.791105</ele>
        <time>2026-05-22T12:35:34.000Z</time>
      </trkpt>
      <trkpt lat="43.05461" lon="-1.21414">
        <ele>934.907007</ele>
        <time>2026-05-22T12:35:35.000Z</time>
      </trkpt>
      <trkpt lat="43.0546" lon="-1.21415">
        <ele>935.025731</ele>
        <time>2026-05-22T12:35:36.000Z</time>
      </trkpt>
      <trkpt lat="43.05459" lon="-1.21416">
        <ele>935.150397</ele>
        <time>2026-05-22T12:35:37.000Z</time>
      </trkpt>
      <trkpt lat="43.05458" lon="-1.21418">
        <ele>935.269121</ele>
        <time>2026-05-22T12:35:38.000Z</time>
      </trkpt>
      <trkpt lat="43.05457" lon="-1.21419">
        <ele>935.385022</ele>
        <time>2026-05-22T12:35:39.000Z</time>
      </trkpt>
      <trkpt lat="43.05456" lon="-1.2142">
        <ele>935.494522</ele>
        <time>2026-05-22T12:35:40.000Z</time>
      </trkpt>
      <trkpt lat="43.05455" lon="-1.21421">
        <ele>935.578221</ele>
        <time>2026-05-22T12:35:41.000Z</time>
      </trkpt>
      <trkpt lat="43.05455" lon="-1.21421">
        <ele>935.604365</ele>
        <time>2026-05-22T12:35:42.000Z</time>
      </trkpt>
      <trkpt lat="43.05452" lon="-1.21423">
        <ele>935.896457</ele>
        <time>2026-05-22T12:36:13.000Z</time>
      </trkpt>
      <trkpt lat="43.05451" lon="-1.21424">
        <ele>936.034565</ele>
        <time>2026-05-22T12:36:14.000Z</time>
      </trkpt>
      <trkpt lat="43.05449" lon="-1.21425">
        <ele>936.161525</ele>
        <time>2026-05-22T12:36:15.000Z</time>
      </trkpt>
      <trkpt lat="43.05448" lon="-1.21426">
        <ele>936.302427</ele>
        <time>2026-05-22T12:36:16.000Z</time>
      </trkpt>
      <trkpt lat="43.05447" lon="-1.21428">
        <ele>936.394701</ele>
        <time>2026-05-22T12:36:17.000Z</time>
      </trkpt>
      <trkpt lat="43.05446" lon="-1.21429">
        <ele>936.491594</ele>
        <time>2026-05-22T12:36:18.000Z</time>
      </trkpt>
      <trkpt lat="43.05445" lon="-1.2143">
        <ele>936.58534</ele>
        <time>2026-05-22T12:36:19.000Z</time>
      </trkpt>
      <trkpt lat="43.05444" lon="-1.21432">
        <ele>936.687051</ele>
        <time>2026-05-22T12:36:20.000Z</time>
      </trkpt>
      <trkpt lat="43.05443" lon="-1.21433">
        <ele>936.790593</ele>
        <time>2026-05-22T12:36:21.000Z</time>
      </trkpt>
      <trkpt lat="43.05441" lon="-1.21435">
        <ele>936.909877</ele>
        <time>2026-05-22T12:36:22.000Z</time>
      </trkpt>
      <trkpt lat="43.0544" lon="-1.21437">
        <ele>937.028243</ele>
        <time>2026-05-22T12:36:23.000Z</time>
      </trkpt>
      <trkpt lat="43.05439" lon="-1.21439">
        <ele>937.146608</ele>
        <time>2026-05-22T12:36:24.000Z</time>
      </trkpt>
      <trkpt lat="43.05437" lon="-1.21441">
        <ele>937.270511</ele>
        <time>2026-05-22T12:36:25.000Z</time>
      </trkpt>
      <trkpt lat="43.05436" lon="-1.21443">
        <ele>937.399191</ele>
        <time>2026-05-22T12:36:26.000Z</time>
      </trkpt>
      <trkpt lat="43.05435" lon="-1.21444">
        <ele>937.507256</ele>
        <time>2026-05-22T12:36:27.000Z</time>
      </trkpt>
      <trkpt lat="43.05433" lon="-1.21446">
        <ele>937.619098</ele>
        <time>2026-05-22T12:36:28.000Z</time>
      </trkpt>
      <trkpt lat="43.05432" lon="-1.21447">
        <ele>937.723225</ele>
        <time>2026-05-22T12:36:29.000Z</time>
      </trkpt>
      <trkpt lat="43.05431" lon="-1.21448">
        <ele>937.824369</ele>
        <time>2026-05-22T12:36:30.000Z</time>
      </trkpt>
      <trkpt lat="43.0543" lon="-1.2145">
        <ele>937.931393</ele>
        <time>2026-05-22T12:36:31.000Z</time>
      </trkpt>
      <trkpt lat="43.05429" lon="-1.21451">
        <ele>938.030626</ele>
        <time>2026-05-22T12:36:32.000Z</time>
      </trkpt>
      <trkpt lat="43.05427" lon="-1.21453">
        <ele>938.127519</ele>
        <time>2026-05-22T12:36:33.000Z</time>
      </trkpt>
      <trkpt lat="43.05426" lon="-1.21454">
        <ele>938.221266</ele>
        <time>2026-05-22T12:36:34.000Z</time>
      </trkpt>
      <trkpt lat="43.05425" lon="-1.21455">
        <ele>938.31713</ele>
        <time>2026-05-22T12:36:35.000Z</time>
      </trkpt>
      <trkpt lat="43.05424" lon="-1.21456">
        <ele>938.404231</ele>
        <time>2026-05-22T12:36:36.000Z</time>
      </trkpt>
      <trkpt lat="43.05423" lon="-1.21456">
        <ele>938.481777</ele>
        <time>2026-05-22T12:36:37.000Z</time>
      </trkpt>
      <trkpt lat="43.05421" lon="-1.21455">
        <ele>938.56046</ele>
        <time>2026-05-22T12:36:38.000Z</time>
      </trkpt>
      <trkpt lat="43.05421" lon="-1.21455">
        <ele>938.621496</ele>
        <time>2026-05-22T12:36:39.000Z</time>
      </trkpt>
      <trkpt lat="43.0542" lon="-1.21455">
        <ele>938.66881</ele>
        <time>2026-05-22T12:36:40.000Z</time>
      </trkpt>
      <trkpt lat="43.05419" lon="-1.21454">
        <ele>938.729868</ele>
        <time>2026-05-22T12:36:41.000Z</time>
      </trkpt>
      <trkpt lat="43.05419" lon="-1.21452">
        <ele>938.806364</ele>
        <time>2026-05-22T12:36:42.000Z</time>
      </trkpt>
      <trkpt lat="43.05418" lon="-1.21451">
        <ele>938.893891</ele>
        <time>2026-05-22T12:36:43.000Z</time>
      </trkpt>
      <trkpt lat="43.05417" lon="-1.2145">
        <ele>938.971091</ele>
        <time>2026-05-22T12:36:44.000Z</time>
      </trkpt>
      <trkpt lat="43.05416" lon="-1.21449">
        <ele>939.058967</ele>
        <time>2026-05-22T12:36:45.000Z</time>
      </trkpt>
      <trkpt lat="43.05415" lon="-1.21447">
        <ele>939.158201</ele>
        <time>2026-05-22T12:36:46.000Z</time>
      </trkpt>
      <trkpt lat="43.05414" lon="-1.21445">
        <ele>939.262721</ele>
        <time>2026-05-22T12:36:47.000Z</time>
      </trkpt>
      <trkpt lat="43.05414" lon="-1.21443">
        <ele>939.372838</ele>
        <time>2026-05-22T12:36:48.000Z</time>
      </trkpt>
      <trkpt lat="43.05414" lon="-1.2144">
        <ele>939.482956</ele>
        <time>2026-05-22T12:36:49.000Z</time>
      </trkpt>
      <trkpt lat="43.05413" lon="-1.21438">
        <ele>939.57744</ele>
        <time>2026-05-22T12:36:50.000Z</time>
      </trkpt>
      <trkpt lat="43.05414" lon="-1.21436">
        <ele>939.690741</ele>
        <time>2026-05-22T12:36:51.000Z</time>
      </trkpt>
      <trkpt lat="43.05414" lon="-1.21434">
        <ele>939.799337</ele>
        <time>2026-05-22T12:36:52.000Z</time>
      </trkpt>
      <trkpt lat="43.05413" lon="-1.21431">
        <ele>939.914097</ele>
        <time>2026-05-22T12:36:53.000Z</time>
      </trkpt>
      <trkpt lat="43.05413" lon="-1.21429">
        <ele>940.038159</ele>
        <time>2026-05-22T12:36:54.000Z</time>
      </trkpt>
      <trkpt lat="43.05413" lon="-1.21426">
        <ele>940.148276</ele>
        <time>2026-05-22T12:36:55.000Z</time>
      </trkpt>
      <trkpt lat="43.05413" lon="-1.21424">
        <ele>940.266811</ele>
        <time>2026-05-22T12:36:56.000Z</time>
      </trkpt>
      <trkpt lat="43.05412" lon="-1.21422">
        <ele>940.375406</ele>
        <time>2026-05-22T12:36:57.000Z</time>
      </trkpt>
      <trkpt lat="43.05412" lon="-1.21419">
        <ele>940.484575</ele>
        <time>2026-05-22T12:36:58.000Z</time>
      </trkpt>
      <trkpt lat="43.05412" lon="-1.21417">
        <ele>940.58686</ele>
        <time>2026-05-22T12:36:59.000Z</time>
      </trkpt>
      <trkpt lat="43.05412" lon="-1.21415">
        <ele>940.700711</ele>
        <time>2026-05-22T12:37:00.000Z</time>
      </trkpt>
      <trkpt lat="43.05411" lon="-1.21413">
        <ele>940.809879</ele>
        <time>2026-05-22T12:37:01.000Z</time>
      </trkpt>
      <trkpt lat="43.05411" lon="-1.2141">
        <ele>940.91357</ele>
        <time>2026-05-22T12:37:02.000Z</time>
      </trkpt>
      <trkpt lat="43.05411" lon="-1.21408">
        <ele>941.022166</ele>
        <time>2026-05-22T12:37:03.000Z</time>
      </trkpt>
      <trkpt lat="43.05411" lon="-1.21406">
        <ele>941.136016</ele>
        <time>2026-05-22T12:37:04.000Z</time>
      </trkpt>
      <trkpt lat="43.05411" lon="-1.21403">
        <ele>941.240506</ele>
        <time>2026-05-22T12:37:05.000Z</time>
      </trkpt>
      <trkpt lat="43.05411" lon="-1.21401">
        <ele>941.340321</ele>
        <time>2026-05-22T12:37:06.000Z</time>
      </trkpt>
      <trkpt lat="43.05411" lon="-1.21399">
        <ele>941.444212</ele>
        <time>2026-05-22T12:37:07.000Z</time>
      </trkpt>
      <trkpt lat="43.0541" lon="-1.21397">
        <ele>941.549693</ele>
        <time>2026-05-22T12:37:08.000Z</time>
      </trkpt>
      <trkpt lat="43.0541" lon="-1.21395">
        <ele>941.658097</ele>
        <time>2026-05-22T12:37:09.000Z</time>
      </trkpt>
      <trkpt lat="43.05411" lon="-1.21392">
        <ele>941.762587</ele>
        <time>2026-05-22T12:37:10.000Z</time>
      </trkpt>
      <trkpt lat="43.0541" lon="-1.2139">
        <ele>941.866478</ele>
        <time>2026-05-22T12:37:11.000Z</time>
      </trkpt>
      <trkpt lat="43.0541" lon="-1.21388">
        <ele>941.968763</ele>
        <time>2026-05-22T12:37:12.000Z</time>
      </trkpt>
      <trkpt lat="43.0541" lon="-1.21386">
        <ele>942.075616</ele>
        <time>2026-05-22T12:37:13.000Z</time>
      </trkpt>
      <trkpt lat="43.05409" lon="-1.21384">
        <ele>942.189466</ele>
        <time>2026-05-22T12:37:14.000Z</time>
      </trkpt>
      <trkpt lat="43.05409" lon="-1.21381">
        <ele>942.303316</ele>
        <time>2026-05-22T12:37:15.000Z</time>
      </trkpt>
      <trkpt lat="43.05409" lon="-1.21379">
        <ele>942.413434</ele>
        <time>2026-05-22T12:37:16.000Z</time>
      </trkpt>
      <trkpt lat="43.05409" lon="-1.21376">
        <ele>942.534056</ele>
        <time>2026-05-22T12:37:17.000Z</time>
      </trkpt>
      <trkpt lat="43.05408" lon="-1.21374">
        <ele>942.654678</ele>
        <time>2026-05-22T12:37:18.000Z</time>
      </trkpt>
      <trkpt lat="43.05408" lon="-1.21371">
        <ele>942.776842</ele>
        <time>2026-05-22T12:37:19.000Z</time>
      </trkpt>
      <trkpt lat="43.05407" lon="-1.21369">
        <ele>942.900866</ele>
        <time>2026-05-22T12:37:20.000Z</time>
      </trkpt>
      <trkpt lat="43.05406" lon="-1.21367">
        <ele>943.018297</ele>
        <time>2026-05-22T12:37:21.000Z</time>
      </trkpt>
      <trkpt lat="43.05406" lon="-1.21364">
        <ele>943.148894</ele>
        <time>2026-05-22T12:37:22.000Z</time>
      </trkpt>
      <trkpt lat="43.05405" lon="-1.21362">
        <ele>943.267729</ele>
        <time>2026-05-22T12:37:23.000Z</time>
      </trkpt>
      <trkpt lat="43.05404" lon="-1.21359">
        <ele>943.390698</ele>
        <time>2026-05-22T12:37:24.000Z</time>
      </trkpt>
      <trkpt lat="43.05403" lon="-1.21357">
        <ele>943.516841</ele>
        <time>2026-05-22T12:37:25.000Z</time>
      </trkpt>
      <trkpt lat="43.05402" lon="-1.21355">
        <ele>943.64249</ele>
        <time>2026-05-22T12:37:26.000Z</time>
      </trkpt>
      <trkpt lat="43.054" lon="-1.21353">
        <ele>943.769667</ele>
        <time>2026-05-22T12:37:27.000Z</time>
      </trkpt>
      <trkpt lat="43.05399" lon="-1.21351">
        <ele>943.888951</ele>
        <time>2026-05-22T12:37:28.000Z</time>
      </trkpt>
      <trkpt lat="43.05398" lon="-1.21349">
        <ele>944.015114</ele>
        <time>2026-05-22T12:37:29.000Z</time>
      </trkpt>
      <trkpt lat="43.05396" lon="-1.21347">
        <ele>944.141276</ele>
        <time>2026-05-22T12:37:30.000Z</time>
      </trkpt>
      <trkpt lat="43.05395" lon="-1.21345">
        <ele>944.255529</ele>
        <time>2026-05-22T12:37:31.000Z</time>
      </trkpt>
      <trkpt lat="43.05394" lon="-1.21344">
        <ele>944.37821</ele>
        <time>2026-05-22T12:37:32.000Z</time>
      </trkpt>
      <trkpt lat="43.05393" lon="-1.21342">
        <ele>944.505387</ele>
        <time>2026-05-22T12:37:33.000Z</time>
      </trkpt>
      <trkpt lat="43.05391" lon="-1.2134">
        <ele>944.624671</ele>
        <time>2026-05-22T12:37:34.000Z</time>
      </trkpt>
      <trkpt lat="43.0539" lon="-1.21338">
        <ele>944.748575</ele>
        <time>2026-05-22T12:37:35.000Z</time>
      </trkpt>
      <trkpt lat="43.05388" lon="-1.21336">
        <ele>944.872479</ele>
        <time>2026-05-22T12:37:36.000Z</time>
      </trkpt>
      <trkpt lat="43.05387" lon="-1.21335">
        <ele>944.995149</ele>
        <time>2026-05-22T12:37:37.000Z</time>
      </trkpt>
      <trkpt lat="43.05385" lon="-1.21333">
        <ele>945.120772</ele>
        <time>2026-05-22T12:37:38.000Z</time>
      </trkpt>
      <trkpt lat="43.05384" lon="-1.21331">
        <ele>945.251428</ele>
        <time>2026-05-22T12:37:39.000Z</time>
      </trkpt>
      <trkpt lat="43.05382" lon="-1.2133">
        <ele>945.376524</ele>
        <time>2026-05-22T12:37:40.000Z</time>
      </trkpt>
      <trkpt lat="43.05381" lon="-1.21328">
        <ele>945.497249</ele>
        <time>2026-05-22T12:37:41.000Z</time>
      </trkpt>
      <trkpt lat="43.05379" lon="-1.21326">
        <ele>945.622872</ele>
        <time>2026-05-22T12:37:42.000Z</time>
      </trkpt>
      <trkpt lat="43.05378" lon="-1.21324">
        <ele>945.754708</ele>
        <time>2026-05-22T12:37:43.000Z</time>
      </trkpt>
      <trkpt lat="43.05376" lon="-1.21323">
        <ele>945.881885</ele>
        <time>2026-05-22T12:37:44.000Z</time>
      </trkpt>
      <trkpt lat="43.05375" lon="-1.21321">
        <ele>946.009062</ele>
        <time>2026-05-22T12:37:45.000Z</time>
      </trkpt>
      <trkpt lat="43.05374" lon="-1.21319">
        <ele>946.134685</ele>
        <time>2026-05-22T12:37:46.000Z</time>
      </trkpt>
      <trkpt lat="43.05372" lon="-1.21317">
        <ele>946.265154</ele>
        <time>2026-05-22T12:37:47.000Z</time>
      </trkpt>
      <trkpt lat="43.0537" lon="-1.21316">
        <ele>946.392974</ele>
        <time>2026-05-22T12:37:48.000Z</time>
      </trkpt>
      <trkpt lat="43.05369" lon="-1.21314">
        <ele>946.532748</ele>
        <time>2026-05-22T12:37:49.000Z</time>
      </trkpt>
      <trkpt lat="43.05367" lon="-1.21312">
        <ele>946.674322</ele>
        <time>2026-05-22T12:37:50.000Z</time>
      </trkpt>
      <trkpt lat="43.05365" lon="-1.2131">
        <ele>946.815897</ele>
        <time>2026-05-22T12:37:51.000Z</time>
      </trkpt>
      <trkpt lat="43.05364" lon="-1.21308">
        <ele>946.960499</ele>
        <time>2026-05-22T12:37:52.000Z</time>
      </trkpt>
      <trkpt lat="43.05362" lon="-1.21306">
        <ele>947.100273</ele>
        <time>2026-05-22T12:37:53.000Z</time>
      </trkpt>
      <trkpt lat="43.0536" lon="-1.21304">
        <ele>947.243268</ele>
        <time>2026-05-22T12:37:54.000Z</time>
      </trkpt>
      <trkpt lat="43.05359" lon="-1.21302">
        <ele>947.395835</ele>
        <time>2026-05-22T12:37:55.000Z</time>
      </trkpt>
      <trkpt lat="43.05357" lon="-1.213">
        <ele>947.543553</ele>
        <time>2026-05-22T12:37:56.000Z</time>
      </trkpt>
      <trkpt lat="43.05355" lon="-1.21298">
        <ele>947.694469</ele>
        <time>2026-05-22T12:37:57.000Z</time>
      </trkpt>
      <trkpt lat="43.05353" lon="-1.21295">
        <ele>947.850135</ele>
        <time>2026-05-22T12:37:58.000Z</time>
      </trkpt>
      <trkpt lat="43.05351" lon="-1.21293">
        <ele>947.970341</ele>
        <time>2026-05-22T12:37:59.000Z</time>
      </trkpt>
      <trkpt lat="43.05349" lon="-1.21292">
        <ele>948.082652</ele>
        <time>2026-05-22T12:38:00.000Z</time>
      </trkpt>
      <trkpt lat="43.05347" lon="-1.2129">
        <ele>948.194924</ele>
        <time>2026-05-22T12:38:01.000Z</time>
      </trkpt>
      <trkpt lat="43.05345" lon="-1.21288">
        <ele>948.309027</ele>
        <time>2026-05-22T12:38:02.000Z</time>
      </trkpt>
      <trkpt lat="43.05343" lon="-1.21286">
        <ele>948.428896</ele>
        <time>2026-05-22T12:38:03.000Z</time>
      </trkpt>
      <trkpt lat="43.05341" lon="-1.21283">
        <ele>948.550471</ele>
        <time>2026-05-22T12:38:04.000Z</time>
      </trkpt>
      <trkpt lat="43.05339" lon="-1.21281">
        <ele>948.67397</ele>
        <time>2026-05-22T12:38:05.000Z</time>
      </trkpt>
      <trkpt lat="43.05336" lon="-1.21279">
        <ele>948.79747</ele>
        <time>2026-05-22T12:38:06.000Z</time>
      </trkpt>
      <trkpt lat="43.05334" lon="-1.21277">
        <ele>948.919044</ele>
        <time>2026-05-22T12:38:07.000Z</time>
      </trkpt>
      <trkpt lat="43.05332" lon="-1.21275">
        <ele>949.044363</ele>
        <time>2026-05-22T12:38:08.000Z</time>
      </trkpt>
      <trkpt lat="43.05329" lon="-1.21273">
        <ele>949.175616</ele>
        <time>2026-05-22T12:38:09.000Z</time>
      </trkpt>
      <trkpt lat="43.05327" lon="-1.21271">
        <ele>949.295706</ele>
        <time>2026-05-22T12:38:10.000Z</time>
      </trkpt>
      <trkpt lat="43.05325" lon="-1.21269">
        <ele>949.426959</ele>
        <time>2026-05-22T12:38:11.000Z</time>
      </trkpt>
      <trkpt lat="43.05322" lon="-1.21267">
        <ele>949.547959</ele>
        <time>2026-05-22T12:38:12.000Z</time>
      </trkpt>
      <trkpt lat="43.0532" lon="-1.21266">
        <ele>949.663439</ele>
        <time>2026-05-22T12:38:13.000Z</time>
      </trkpt>
      <trkpt lat="43.05318" lon="-1.21265">
        <ele>949.775005</ele>
        <time>2026-05-22T12:38:14.000Z</time>
      </trkpt>
      <trkpt lat="43.05315" lon="-1.21264">
        <ele>949.895085</ele>
        <time>2026-05-22T12:38:15.000Z</time>
      </trkpt>
      <trkpt lat="43.05313" lon="-1.21262">
        <ele>950.013335</ele>
        <time>2026-05-22T12:38:16.000Z</time>
      </trkpt>
      <trkpt lat="43.0531" lon="-1.21261">
        <ele>950.130325</ele>
        <time>2026-05-22T12:38:17.000Z</time>
      </trkpt>
      <trkpt lat="43.05308" lon="-1.2126">
        <ele>950.246138</ele>
        <time>2026-05-22T12:38:18.000Z</time>
      </trkpt>
      <trkpt lat="43.05306" lon="-1.21259">
        <ele>950.356568</ele>
        <time>2026-05-22T12:38:19.000Z</time>
      </trkpt>
      <trkpt lat="43.05303" lon="-1.21258">
        <ele>950.461639</ele>
        <time>2026-05-22T12:38:20.000Z</time>
      </trkpt>
      <trkpt lat="43.05301" lon="-1.21257">
        <ele>950.562419</ele>
        <time>2026-05-22T12:38:21.000Z</time>
      </trkpt>
      <trkpt lat="43.05299" lon="-1.21256">
        <ele>950.666494</ele>
        <time>2026-05-22T12:38:22.000Z</time>
      </trkpt>
      <trkpt lat="43.05297" lon="-1.21255">
        <ele>950.774919</ele>
        <time>2026-05-22T12:38:23.000Z</time>
      </trkpt>
      <trkpt lat="43.05295" lon="-1.21254">
        <ele>950.875698</ele>
        <time>2026-05-22T12:38:24.000Z</time>
      </trkpt>
      <trkpt lat="43.05293" lon="-1.21252">
        <ele>950.980166</ele>
        <time>2026-05-22T12:38:25.000Z</time>
      </trkpt>
      <trkpt lat="43.05291" lon="-1.21251">
        <ele>951.083313</ele>
        <time>2026-05-22T12:38:26.000Z</time>
      </trkpt>
      <trkpt lat="43.05289" lon="-1.2125">
        <ele>951.182292</ele>
        <time>2026-05-22T12:38:27.000Z</time>
      </trkpt>
      <trkpt lat="43.05286" lon="-1.21249">
        <ele>951.284208</ele>
        <time>2026-05-22T12:38:28.000Z</time>
      </trkpt>
      <trkpt lat="43.05284" lon="-1.21248">
        <ele>951.392822</ele>
        <time>2026-05-22T12:38:29.000Z</time>
      </trkpt>
      <trkpt lat="43.05282" lon="-1.21247">
        <ele>951.503252</ele>
        <time>2026-05-22T12:38:30.000Z</time>
      </trkpt>
      <trkpt lat="43.05279" lon="-1.21245">
        <ele>951.623332</ele>
        <time>2026-05-22T12:38:31.000Z</time>
      </trkpt>
      <trkpt lat="43.05277" lon="-1.21244">
        <ele>951.733762</ele>
        <time>2026-05-22T12:38:32.000Z</time>
      </trkpt>
      <trkpt lat="43.05275" lon="-1.21243">
        <ele>951.847472</ele>
        <time>2026-05-22T12:38:33.000Z</time>
      </trkpt>
      <trkpt lat="43.05272" lon="-1.21242">
        <ele>951.967552</ele>
        <time>2026-05-22T12:38:34.000Z</time>
      </trkpt>
      <trkpt lat="43.0527" lon="-1.21241">
        <ele>952.089984</ele>
        <time>2026-05-22T12:38:35.000Z</time>
      </trkpt>
      <trkpt lat="43.05267" lon="-1.21239">
        <ele>952.209571</ele>
        <time>2026-05-22T12:38:36.000Z</time>
      </trkpt>
      <trkpt lat="43.05265" lon="-1.21238">
        <ele>952.329651</ele>
        <time>2026-05-22T12:38:37.000Z</time>
      </trkpt>
      <trkpt lat="43.05262" lon="-1.21237">
        <ele>952.443361</ele>
        <time>2026-05-22T12:38:38.000Z</time>
      </trkpt>
      <trkpt lat="43.0526" lon="-1.21236">
        <ele>952.563465</ele>
        <time>2026-05-22T12:38:39.000Z</time>
      </trkpt>
      <trkpt lat="43.05257" lon="-1.21235">
        <ele>952.677175</ele>
        <time>2026-05-22T12:38:40.000Z</time>
      </trkpt>
      <trkpt lat="43.05255" lon="-1.21234">
        <ele>952.790885</ele>
        <time>2026-05-22T12:38:41.000Z</time>
      </trkpt>
      <trkpt lat="43.05252" lon="-1.21233">
        <ele>952.913295</ele>
        <time>2026-05-22T12:38:42.000Z</time>
      </trkpt>
      <trkpt lat="43.0525" lon="-1.21232">
        <ele>953.028013</ele>
        <time>2026-05-22T12:38:43.000Z</time>
      </trkpt>
      <trkpt lat="43.05248" lon="-1.21231">
        <ele>953.142732</ele>
        <time>2026-05-22T12:38:44.000Z</time>
      </trkpt>
      <trkpt lat="43.05245" lon="-1.2123">
        <ele>953.254298</ele>
        <time>2026-05-22T12:38:45.000Z</time>
      </trkpt>
      <trkpt lat="43.05243" lon="-1.21229">
        <ele>953.361642</ele>
        <time>2026-05-22T12:38:46.000Z</time>
      </trkpt>
      <trkpt lat="43.05241" lon="-1.21227">
        <ele>953.470255</ele>
        <time>2026-05-22T12:38:47.000Z</time>
      </trkpt>
      <trkpt lat="43.05239" lon="-1.21226">
        <ele>953.574723</ele>
        <time>2026-05-22T12:38:48.000Z</time>
      </trkpt>
      <trkpt lat="43.05237" lon="-1.21225">
        <ele>953.684105</ele>
        <time>2026-05-22T12:38:49.000Z</time>
      </trkpt>
      <trkpt lat="43.05234" lon="-1.21224">
        <ele>953.791448</ele>
        <time>2026-05-22T12:38:50.000Z</time>
      </trkpt>
      <trkpt lat="43.05232" lon="-1.21223">
        <ele>953.906167</ele>
        <time>2026-05-22T12:38:51.000Z</time>
      </trkpt>
      <trkpt lat="43.0523" lon="-1.21222">
        <ele>954.013728</ele>
        <time>2026-05-22T12:38:52.000Z</time>
      </trkpt>
      <trkpt lat="43.05227" lon="-1.21221">
        <ele>954.123111</ele>
        <time>2026-05-22T12:38:53.000Z</time>
      </trkpt>
      <trkpt lat="43.05225" lon="-1.2122">
        <ele>954.232493</ele>
        <time>2026-05-22T12:38:54.000Z</time>
      </trkpt>
      <trkpt lat="43.05223" lon="-1.21219">
        <ele>954.347211</ele>
        <time>2026-05-22T12:38:55.000Z</time>
      </trkpt>
      <trkpt lat="43.0522" lon="-1.21218">
        <ele>954.457641</ele>
        <time>2026-05-22T12:38:56.000Z</time>
      </trkpt>
      <trkpt lat="43.05218" lon="-1.21217">
        <ele>954.573454</ele>
        <time>2026-05-22T12:38:57.000Z</time>
      </trkpt>
      <trkpt lat="43.05216" lon="-1.21215">
        <ele>954.686243</ele>
        <time>2026-05-22T12:38:58.000Z</time>
      </trkpt>
      <trkpt lat="43.05213" lon="-1.21214">
        <ele>954.796673</ele>
        <time>2026-05-22T12:38:59.000Z</time>
      </trkpt>
      <trkpt lat="43.05211" lon="-1.21213">
        <ele>954.910383</ele>
        <time>2026-05-22T12:39:00.000Z</time>
      </trkpt>
      <trkpt lat="43.05209" lon="-1.21212">
        <ele>955.023173</ele>
        <time>2026-05-22T12:39:01.000Z</time>
      </trkpt>
      <trkpt lat="43.05206" lon="-1.21211">
        <ele>955.14034</ele>
        <time>2026-05-22T12:39:02.000Z</time>
      </trkpt>
      <trkpt lat="43.05204" lon="-1.21211">
        <ele>955.2523</ele>
        <time>2026-05-22T12:39:03.000Z</time>
      </trkpt>
      <trkpt lat="43.05201" lon="-1.21209">
        <ele>955.371325</ele>
        <time>2026-05-22T12:39:04.000Z</time>
      </trkpt>
      <trkpt lat="43.05199" lon="-1.21208">
        <ele>955.49035</ele>
        <time>2026-05-22T12:39:05.000Z</time>
      </trkpt>
      <trkpt lat="43.05196" lon="-1.21207">
        <ele>955.613698</ele>
        <time>2026-05-22T12:39:06.000Z</time>
      </trkpt>
      <trkpt lat="43.05194" lon="-1.21206">
        <ele>955.731752</ele>
        <time>2026-05-22T12:39:07.000Z</time>
      </trkpt>
      <trkpt lat="43.05191" lon="-1.21205">
        <ele>955.84812</ele>
        <time>2026-05-22T12:39:08.000Z</time>
      </trkpt>
      <trkpt lat="43.05189" lon="-1.21204">
        <ele>955.966174</ele>
        <time>2026-05-22T12:39:09.000Z</time>
      </trkpt>
      <trkpt lat="43.05186" lon="-1.21203">
        <ele>956.022693</ele>
        <time>2026-05-22T12:39:10.000Z</time>
      </trkpt>
      <trkpt lat="43.05183" lon="-1.21202">
        <ele>955.991866</ele>
        <time>2026-05-22T12:39:11.000Z</time>
      </trkpt>
      <trkpt lat="43.0518" lon="-1.21201">
        <ele>955.958916</ele>
        <time>2026-05-22T12:39:12.000Z</time>
      </trkpt>
      <trkpt lat="43.05178" lon="-1.21199">
        <ele>955.926808</ele>
        <time>2026-05-22T12:39:13.000Z</time>
      </trkpt>
      <trkpt lat="43.05175" lon="-1.21198">
        <ele>955.895454</ele>
        <time>2026-05-22T12:39:14.000Z</time>
      </trkpt>
      <trkpt lat="43.05172" lon="-1.21197">
        <ele>955.863346</ele>
        <time>2026-05-22T12:39:15.000Z</time>
      </trkpt>
      <trkpt lat="43.05169" lon="-1.21195">
        <ele>955.830208</ele>
        <time>2026-05-22T12:39:16.000Z</time>
      </trkpt>
      <trkpt lat="43.05166" lon="-1.21194">
        <ele>955.795244</ele>
        <time>2026-05-22T12:39:17.000Z</time>
      </trkpt>
      <trkpt lat="43.05163" lon="-1.21192">
        <ele>955.76129</ele>
        <time>2026-05-22T12:39:18.000Z</time>
      </trkpt>
      <trkpt lat="43.05161" lon="-1.21191">
        <ele>955.728637</ele>
        <time>2026-05-22T12:39:19.000Z</time>
      </trkpt>
      <trkpt lat="43.05158" lon="-1.21189">
        <ele>955.694218</ele>
        <time>2026-05-22T12:39:20.000Z</time>
      </trkpt>
      <trkpt lat="43.05155" lon="-1.21188">
        <ele>955.661318</ele>
        <time>2026-05-22T12:39:21.000Z</time>
      </trkpt>
      <trkpt lat="43.05152" lon="-1.21187">
        <ele>955.629965</ele>
        <time>2026-05-22T12:39:22.000Z</time>
      </trkpt>
      <trkpt lat="43.05149" lon="-1.21185">
        <ele>955.598103</ele>
        <time>2026-05-22T12:39:23.000Z</time>
      </trkpt>
      <trkpt lat="43.05146" lon="-1.21184">
        <ele>955.565627</ele>
        <time>2026-05-22T12:39:24.000Z</time>
      </trkpt>
      <trkpt lat="43.05143" lon="-1.21183">
        <ele>955.533255</ele>
        <time>2026-05-22T12:39:25.000Z</time>
      </trkpt>
      <trkpt lat="43.05141" lon="-1.21181">
        <ele>955.500306</ele>
        <time>2026-05-22T12:39:26.000Z</time>
      </trkpt>
      <trkpt lat="43.05138" lon="-1.2118">
        <ele>955.469224</ele>
        <time>2026-05-22T12:39:27.000Z</time>
      </trkpt>
      <trkpt lat="43.05135" lon="-1.21179">
        <ele>955.438883</ele>
        <time>2026-05-22T12:39:28.000Z</time>
      </trkpt>
      <trkpt lat="43.05133" lon="-1.21177">
        <ele>955.407802</ele>
        <time>2026-05-22T12:39:29.000Z</time>
      </trkpt>
      <trkpt lat="43.0513" lon="-1.21176">
        <ele>955.37543</ele>
        <time>2026-05-22T12:39:30.000Z</time>
      </trkpt>
      <trkpt lat="43.05127" lon="-1.21174">
        <ele>955.34348</ele>
        <time>2026-05-22T12:39:31.000Z</time>
      </trkpt>
      <trkpt lat="43.05124" lon="-1.21173">
        <ele>955.311836</ele>
        <time>2026-05-22T12:39:32.000Z</time>
      </trkpt>
      <trkpt lat="43.05122" lon="-1.21172">
        <ele>955.280755</ele>
        <time>2026-05-22T12:39:33.000Z</time>
      </trkpt>
      <trkpt lat="43.05119" lon="-1.2117">
        <ele>955.248893</ele>
        <time>2026-05-22T12:39:34.000Z</time>
      </trkpt>
      <trkpt lat="43.05116" lon="-1.21169">
        <ele>955.218302</ele>
        <time>2026-05-22T12:39:35.000Z</time>
      </trkpt>
      <trkpt lat="43.05113" lon="-1.21168">
        <ele>955.186194</ele>
        <time>2026-05-22T12:39:36.000Z</time>
      </trkpt>
      <trkpt lat="43.05111" lon="-1.21167">
        <ele>955.153056</ele>
        <time>2026-05-22T12:39:37.000Z</time>
      </trkpt>
      <trkpt lat="43.05107" lon="-1.21165">
        <ele>955.117847</ele>
        <time>2026-05-22T12:39:38.000Z</time>
      </trkpt>
      <trkpt lat="43.05104" lon="-1.21164">
        <ele>955.082018</ele>
        <time>2026-05-22T12:39:39.000Z</time>
      </trkpt>
      <trkpt lat="43.05101" lon="-1.21163">
        <ele>955.045988</ele>
        <time>2026-05-22T12:39:40.000Z</time>
      </trkpt>
      <trkpt lat="43.05098" lon="-1.21162">
        <ele>955.010513</ele>
        <time>2026-05-22T12:39:41.000Z</time>
      </trkpt>
      <trkpt lat="43.05094" lon="-1.21161">
        <ele>954.972907</ele>
        <time>2026-05-22T12:39:42.000Z</time>
      </trkpt>
      <trkpt lat="43.05091" lon="-1.2116">
        <ele>954.934235</ele>
        <time>2026-05-22T12:39:43.000Z</time>
      </trkpt>
      <trkpt lat="43.05087" lon="-1.2116">
        <ele>954.895931</ele>
        <time>2026-05-22T12:39:44.000Z</time>
      </trkpt>
      <trkpt lat="43.05084" lon="-1.21159">
        <ele>954.858933</ele>
        <time>2026-05-22T12:39:45.000Z</time>
      </trkpt>
      <trkpt lat="43.05081" lon="-1.21159">
        <ele>954.823063</ele>
        <time>2026-05-22T12:39:46.000Z</time>
      </trkpt>
      <trkpt lat="43.05078" lon="-1.21159">
        <ele>954.790476</ele>
        <time>2026-05-22T12:39:47.000Z</time>
      </trkpt>
      <trkpt lat="43.05075" lon="-1.21159">
        <ele>954.758975</ele>
        <time>2026-05-22T12:39:48.000Z</time>
      </trkpt>
      <trkpt lat="43.05072" lon="-1.21159">
        <ele>954.725302</ele>
        <time>2026-05-22T12:39:49.000Z</time>
      </trkpt>
      <trkpt lat="43.05068" lon="-1.2116">
        <ele>954.688168</ele>
        <time>2026-05-22T12:39:50.000Z</time>
      </trkpt>
      <trkpt lat="43.05065" lon="-1.2116">
        <ele>954.647794</ele>
        <time>2026-05-22T12:39:51.000Z</time>
      </trkpt>
      <trkpt lat="43.05061" lon="-1.21161">
        <ele>954.607117</ele>
        <time>2026-05-22T12:39:52.000Z</time>
      </trkpt>
      <trkpt lat="43.05057" lon="-1.21162">
        <ele>954.567227</ele>
        <time>2026-05-22T12:39:53.000Z</time>
      </trkpt>
      <trkpt lat="43.05054" lon="-1.21163">
        <ele>954.527622</ele>
        <time>2026-05-22T12:39:54.000Z</time>
      </trkpt>
      <trkpt lat="43.0505" lon="-1.21164">
        <ele>954.486667</ele>
        <time>2026-05-22T12:39:55.000Z</time>
      </trkpt>
      <trkpt lat="43.05046" lon="-1.21165">
        <ele>954.443078</ele>
        <time>2026-05-22T12:39:56.000Z</time>
      </trkpt>
      <trkpt lat="43.05042" lon="-1.21166">
        <ele>954.396642</ele>
        <time>2026-05-22T12:39:57.000Z</time>
      </trkpt>
      <trkpt lat="43.05037" lon="-1.21167">
        <ele>954.346857</ele>
        <time>2026-05-22T12:39:58.000Z</time>
      </trkpt>
      <trkpt lat="43.05033" lon="-1.21169">
        <ele>954.294938</ele>
        <time>2026-05-22T12:39:59.000Z</time>
      </trkpt>
      <trkpt lat="43.05028" lon="-1.2117">
        <ele>954.241803</ele>
        <time>2026-05-22T12:40:00.000Z</time>
      </trkpt>
      <trkpt lat="43.05023" lon="-1.21171">
        <ele>954.187278</ele>
        <time>2026-05-22T12:40:01.000Z</time>
      </trkpt>
      <trkpt lat="43.05018" lon="-1.21173">
        <ele>954.132011</ele>
        <time>2026-05-22T12:40:02.000Z</time>
      </trkpt>
      <trkpt lat="43.05013" lon="-1.21174">
        <ele>954.072912</ele>
        <time>2026-05-22T12:40:03.000Z</time>
      </trkpt>
      <trkpt lat="43.05008" lon="-1.21176">
        <ele>953.984843</ele>
        <time>2026-05-22T12:40:04.000Z</time>
      </trkpt>
      <trkpt lat="43.05003" lon="-1.21177">
        <ele>953.896774</ele>
        <time>2026-05-22T12:40:05.000Z</time>
      </trkpt>
      <trkpt lat="43.04998" lon="-1.21178">
        <ele>953.811129</ele>
        <time>2026-05-22T12:40:06.000Z</time>
      </trkpt>
      <trkpt lat="43.04993" lon="-1.21179">
        <ele>953.728305</ele>
        <time>2026-05-22T12:40:07.000Z</time>
      </trkpt>
      <trkpt lat="43.04989" lon="-1.21179">
        <ele>953.652591</ele>
        <time>2026-05-22T12:40:08.000Z</time>
      </trkpt>
      <trkpt lat="43.04985" lon="-1.21178">
        <ele>953.584544</ele>
        <time>2026-05-22T12:40:09.000Z</time>
      </trkpt>
      <trkpt lat="43.04981" lon="-1.21176">
        <ele>953.516981</ele>
        <time>2026-05-22T12:40:10.000Z</time>
      </trkpt>
      <trkpt lat="43.04978" lon="-1.21174">
        <ele>953.451726</ele>
        <time>2026-05-22T12:40:11.000Z</time>
      </trkpt>
      <trkpt lat="43.04975" lon="-1.21171">
        <ele>953.388009</ele>
        <time>2026-05-22T12:40:12.000Z</time>
      </trkpt>
      <trkpt lat="43.04971" lon="-1.21169">
        <ele>953.323112</ele>
        <time>2026-05-22T12:40:13.000Z</time>
      </trkpt>
      <trkpt lat="43.04969" lon="-1.21166">
        <ele>953.261144</ele>
        <time>2026-05-22T12:40:14.000Z</time>
      </trkpt>
      <trkpt lat="43.04966" lon="-1.21163">
        <ele>953.199689</ele>
        <time>2026-05-22T12:40:15.000Z</time>
      </trkpt>
      <trkpt lat="43.04963" lon="-1.2116">
        <ele>953.145664</ele>
        <time>2026-05-22T12:40:16.000Z</time>
      </trkpt>
      <trkpt lat="43.04961" lon="-1.21158">
        <ele>953.100161</ele>
        <time>2026-05-22T12:40:17.000Z</time>
      </trkpt>
      <trkpt lat="43.04959" lon="-1.21156">
        <ele>953.060401</ele>
        <time>2026-05-22T12:40:18.000Z</time>
      </trkpt>
      <trkpt lat="43.04958" lon="-1.21155">
        <ele>953.026895</ele>
        <time>2026-05-22T12:40:19.000Z</time>
      </trkpt>
      <trkpt lat="43.04956" lon="-1.21154">
        <ele>953.004213</ele>
        <time>2026-05-22T12:40:20.000Z</time>
      </trkpt>
      <trkpt lat="43.04955" lon="-1.21155">
        <ele>952.988275</ele>
        <time>2026-05-22T12:40:21.000Z</time>
      </trkpt>
      <trkpt lat="43.04955" lon="-1.21155">
        <ele>952.980427</ele>
        <time>2026-05-22T12:40:22.000Z</time>
      </trkpt>
      <trkpt lat="43.04955" lon="-1.21154">
        <ele>952.966094</ele>
        <time>2026-05-22T12:40:43.000Z</time>
      </trkpt>
      <trkpt lat="43.04956" lon="-1.21153">
        <ele>952.951761</ele>
        <time>2026-05-22T12:40:44.000Z</time>
      </trkpt>
      <trkpt lat="43.04956" lon="-1.21152">
        <ele>952.932861</ele>
        <time>2026-05-22T12:40:45.000Z</time>
      </trkpt>
      <trkpt lat="43.04957" lon="-1.2115">
        <ele>952.910873</ele>
        <time>2026-05-22T12:40:46.000Z</time>
      </trkpt>
      <trkpt lat="43.04957" lon="-1.21148">
        <ele>952.890464</ele>
        <time>2026-05-22T12:40:47.000Z</time>
      </trkpt>
      <trkpt lat="43.04957" lon="-1.21147">
        <ele>952.872778</ele>
        <time>2026-05-22T12:40:48.000Z</time>
      </trkpt>
      <trkpt lat="43.04957" lon="-1.21145">
        <ele>952.85384</ele>
        <time>2026-05-22T12:40:49.000Z</time>
      </trkpt>
      <trkpt lat="43.04957" lon="-1.21144">
        <ele>952.833723</ele>
        <time>2026-05-22T12:40:50.000Z</time>
      </trkpt>
      <trkpt lat="43.04957" lon="-1.21142">
        <ele>952.814786</ele>
        <time>2026-05-22T12:40:51.000Z</time>
      </trkpt>
      <trkpt lat="43.04957" lon="-1.21141">
        <ele>952.798082</ele>
        <time>2026-05-22T12:40:52.000Z</time>
      </trkpt>
      <trkpt lat="43.04958" lon="-1.2114">
        <ele>952.778007</ele>
        <time>2026-05-22T12:40:53.000Z</time>
      </trkpt>
      <trkpt lat="43.04958" lon="-1.21138">
        <ele>952.759107</ele>
        <time>2026-05-22T12:40:54.000Z</time>
      </trkpt>
      <trkpt lat="43.04959" lon="-1.21137">
        <ele>952.74419</ele>
        <time>2026-05-22T12:40:55.000Z</time>
      </trkpt>
      <trkpt lat="43.04959" lon="-1.21137">
        <ele>952.730604</ele>
        <time>2026-05-22T12:40:56.000Z</time>
      </trkpt>
      <trkpt lat="43.0496" lon="-1.21137">
        <ele>952.721211</ele>
        <time>2026-05-22T12:40:57.000Z</time>
      </trkpt>
      <trkpt lat="43.0496" lon="-1.21137">
        <ele>952.715899</ele>
        <time>2026-05-22T12:40:58.000Z</time>
      </trkpt>
      <trkpt lat="43.0496" lon="-1.21143">
        <ele>952.637022</ele>
        <time>2026-05-22T12:50:45.000Z</time>
      </trkpt>
      <trkpt lat="43.04959" lon="-1.21144">
        <ele>952.616613</ele>
        <time>2026-05-22T12:50:46.000Z</time>
      </trkpt>
      <trkpt lat="43.04959" lon="-1.21146">
        <ele>952.601138</ele>
        <time>2026-05-22T12:50:47.000Z</time>
      </trkpt>
      <trkpt lat="43.04959" lon="-1.21147">
        <ele>952.585663</ele>
        <time>2026-05-22T12:50:48.000Z</time>
      </trkpt>
      <trkpt lat="43.04959" lon="-1.21148">
        <ele>952.571411</ele>
        <time>2026-05-22T12:50:49.000Z</time>
      </trkpt>
      <trkpt lat="43.04959" lon="-1.21148">
        <ele>952.564244</ele>
        <time>2026-05-22T12:50:50.000Z</time>
      </trkpt>
      <trkpt lat="43.04958" lon="-1.21152">
        <ele>952.516935</ele>
        <time>2026-05-22T12:50:59.000Z</time>
      </trkpt>
      <trkpt lat="43.04957" lon="-1.21154">
        <ele>952.494324</ele>
        <time>2026-05-22T12:51:00.000Z</time>
      </trkpt>
      <trkpt lat="43.04956" lon="-1.21155">
        <ele>952.467836</ele>
        <time>2026-05-22T12:51:01.000Z</time>
      </trkpt>
      <trkpt lat="43.04955" lon="-1.21156">
        <ele>952.44277</ele>
        <time>2026-05-22T12:51:02.000Z</time>
      </trkpt>
      <trkpt lat="43.04954" lon="-1.21157">
        <ele>952.422396</ele>
        <time>2026-05-22T12:51:03.000Z</time>
      </trkpt>
      <trkpt lat="43.04953" lon="-1.21157">
        <ele>952.402022</ele>
        <time>2026-05-22T12:51:04.000Z</time>
      </trkpt>
      <trkpt lat="43.04952" lon="-1.21158">
        <ele>952.382079</ele>
        <time>2026-05-22T12:51:05.000Z</time>
      </trkpt>
      <trkpt lat="43.04951" lon="-1.21158">
        <ele>952.363762</ele>
        <time>2026-05-22T12:51:06.000Z</time>
      </trkpt>
      <trkpt lat="43.0495" lon="-1.21159">
        <ele>952.344583</ele>
        <time>2026-05-22T12:51:07.000Z</time>
      </trkpt>
      <trkpt lat="43.04949" lon="-1.2116">
        <ele>952.326765</ele>
        <time>2026-05-22T12:51:08.000Z</time>
      </trkpt>
      <trkpt lat="43.04948" lon="-1.21162">
        <ele>952.306462</ele>
        <time>2026-05-22T12:51:09.000Z</time>
      </trkpt>
      <trkpt lat="43.04948" lon="-1.21163">
        <ele>952.285093</ele>
        <time>2026-05-22T12:51:10.000Z</time>
      </trkpt>
      <trkpt lat="43.04947" lon="-1.21164">
        <ele>952.260691</ele>
        <time>2026-05-22T12:51:11.000Z</time>
      </trkpt>
      <trkpt lat="43.04946" lon="-1.21166">
        <ele>952.239072</ele>
        <time>2026-05-22T12:51:12.000Z</time>
      </trkpt>
      <trkpt lat="43.04945" lon="-1.21167">
        <ele>952.219125</ele>
        <time>2026-05-22T12:51:13.000Z</time>
      </trkpt>
      <trkpt lat="43.04944" lon="-1.21167">
        <ele>952.1998</ele>
        <time>2026-05-22T12:51:14.000Z</time>
      </trkpt>
      <trkpt lat="43.04943" lon="-1.21168">
        <ele>952.181158</ele>
        <time>2026-05-22T12:51:15.000Z</time>
      </trkpt>
      <trkpt lat="43.04942" lon="-1.21169">
        <ele>952.162515</ele>
        <time>2026-05-22T12:51:16.000Z</time>
      </trkpt>
      <trkpt lat="43.04941" lon="-1.2117">
        <ele>952.145468</ele>
        <time>2026-05-22T12:51:17.000Z</time>
      </trkpt>
      <trkpt lat="43.04941" lon="-1.21171">
        <ele>952.12913</ele>
        <time>2026-05-22T12:51:18.000Z</time>
      </trkpt>
      <trkpt lat="43.0494" lon="-1.21171">
        <ele>952.111319</ele>
        <time>2026-05-22T12:51:19.000Z</time>
      </trkpt>
      <trkpt lat="43.04939" lon="-1.21172">
        <ele>952.089887</ele>
        <time>2026-05-22T12:51:20.000Z</time>
      </trkpt>
      <trkpt lat="43.04938" lon="-1.21173">
        <ele>952.066446</ele>
        <time>2026-05-22T12:51:21.000Z</time>
      </trkpt>
      <trkpt lat="43.04936" lon="-1.21174">
        <ele>952.040788</ele>
        <time>2026-05-22T12:51:22.000Z</time>
      </trkpt>
      <trkpt lat="43.04935" lon="-1.21176">
        <ele>952.014941</ele>
        <time>2026-05-22T12:51:23.000Z</time>
      </trkpt>
      <trkpt lat="43.04934" lon="-1.21177">
        <ele>951.987962</ele>
        <time>2026-05-22T12:51:24.000Z</time>
      </trkpt>
      <trkpt lat="43.04932" lon="-1.21178">
        <ele>951.953759</ele>
        <time>2026-05-22T12:51:25.000Z</time>
      </trkpt>
      <trkpt lat="43.0493" lon="-1.21179">
        <ele>951.918264</ele>
        <time>2026-05-22T12:51:26.000Z</time>
      </trkpt>
      <trkpt lat="43.04928" lon="-1.2118">
        <ele>951.883246</ele>
        <time>2026-05-22T12:51:27.000Z</time>
      </trkpt>
      <trkpt lat="43.04926" lon="-1.21181">
        <ele>951.84359</ele>
        <time>2026-05-22T12:51:28.000Z</time>
      </trkpt>
      <trkpt lat="43.04924" lon="-1.21183">
        <ele>951.798702</ele>
        <time>2026-05-22T12:51:29.000Z</time>
      </trkpt>
      <trkpt lat="43.04921" lon="-1.21185">
        <ele>951.752479</ele>
        <time>2026-05-22T12:51:30.000Z</time>
      </trkpt>
      <trkpt lat="43.04919" lon="-1.21187">
        <ele>951.700341</ele>
        <time>2026-05-22T12:51:31.000Z</time>
      </trkpt>
      <trkpt lat="43.04917" lon="-1.2119">
        <ele>951.644758</ele>
        <time>2026-05-22T12:51:32.000Z</time>
      </trkpt>
      <trkpt lat="43.04914" lon="-1.21193">
        <ele>951.587954</ele>
        <time>2026-05-22T12:51:33.000Z</time>
      </trkpt>
      <trkpt lat="43.04911" lon="-1.21196">
        <ele>951.529668</ele>
        <time>2026-05-22T12:51:34.000Z</time>
      </trkpt>
      <trkpt lat="43.04908" lon="-1.21199">
        <ele>951.46787</ele>
        <time>2026-05-22T12:51:35.000Z</time>
      </trkpt>
      <trkpt lat="43.04906" lon="-1.21201">
        <ele>951.407452</ele>
        <time>2026-05-22T12:51:36.000Z</time>
      </trkpt>
      <trkpt lat="43.04903" lon="-1.21204">
        <ele>951.346387</ele>
        <time>2026-05-22T12:51:37.000Z</time>
      </trkpt>
      <trkpt lat="43.049" lon="-1.21207">
        <ele>951.28597</ele>
        <time>2026-05-22T12:51:38.000Z</time>
      </trkpt>
      <trkpt lat="43.04897" lon="-1.2121">
        <ele>951.22533</ele>
        <time>2026-05-22T12:51:39.000Z</time>
      </trkpt>
      <trkpt lat="43.04894" lon="-1.21213">
        <ele>951.160652</ele>
        <time>2026-05-22T12:51:40.000Z</time>
      </trkpt>
      <trkpt lat="43.04891" lon="-1.21216">
        <ele>951.095326</ele>
        <time>2026-05-22T12:51:41.000Z</time>
      </trkpt>
      <trkpt lat="43.04888" lon="-1.21219">
        <ele>951.030717</ele>
        <time>2026-05-22T12:51:42.000Z</time>
      </trkpt>
      <trkpt lat="43.04885" lon="-1.21223">
        <ele>950.990048</ele>
        <time>2026-05-22T12:51:43.000Z</time>
      </trkpt>
      <trkpt lat="43.04882" lon="-1.21226">
        <ele>950.996236</ele>
        <time>2026-05-22T12:51:44.000Z</time>
      </trkpt>
      <trkpt lat="43.04878" lon="-1.21229">
        <ele>951.002232</ele>
        <time>2026-05-22T12:51:45.000Z</time>
      </trkpt>
      <trkpt lat="43.04875" lon="-1.21231">
        <ele>951.008368</ele>
        <time>2026-05-22T12:51:46.000Z</time>
      </trkpt>
      <trkpt lat="43.04871" lon="-1.21233">
        <ele>951.014413</ele>
        <time>2026-05-22T12:51:47.000Z</time>
      </trkpt>
      <trkpt lat="43.04868" lon="-1.21236">
        <ele>951.020598</ele>
        <time>2026-05-22T12:51:48.000Z</time>
      </trkpt>
      <trkpt lat="43.04864" lon="-1.21238">
        <ele>951.026782</ele>
        <time>2026-05-22T12:51:49.000Z</time>
      </trkpt>
      <trkpt lat="43.0486" lon="-1.21241">
        <ele>951.033343</ele>
        <time>2026-05-22T12:51:50.000Z</time>
      </trkpt>
      <trkpt lat="43.04857" lon="-1.21244">
        <ele>951.039984</ele>
        <time>2026-05-22T12:51:51.000Z</time>
      </trkpt>
      <trkpt lat="43.04853" lon="-1.21247">
        <ele>951.046935</ele>
        <time>2026-05-22T12:51:52.000Z</time>
      </trkpt>
      <trkpt lat="43.04849" lon="-1.2125">
        <ele>951.054034</ele>
        <time>2026-05-22T12:51:53.000Z</time>
      </trkpt>
      <trkpt lat="43.04845" lon="-1.21254">
        <ele>951.061045</ele>
        <time>2026-05-22T12:51:54.000Z</time>
      </trkpt>
      <trkpt lat="43.04842" lon="-1.21257">
        <ele>951.067252</ele>
        <time>2026-05-22T12:51:55.000Z</time>
      </trkpt>
      <trkpt lat="43.04839" lon="-1.2126">
        <ele>951.072959</ele>
        <time>2026-05-22T12:51:56.000Z</time>
      </trkpt>
      <trkpt lat="43.04836" lon="-1.21264">
        <ele>951.078591</ele>
        <time>2026-05-22T12:51:57.000Z</time>
      </trkpt>
      <trkpt lat="43.04834" lon="-1.21268">
        <ele>951.084241</ele>
        <time>2026-05-22T12:51:58.000Z</time>
      </trkpt>
      <trkpt lat="43.04833" lon="-1.21272">
        <ele>951.089758</ele>
        <time>2026-05-22T12:51:59.000Z</time>
      </trkpt>
      <trkpt lat="43.04831" lon="-1.21276">
        <ele>951.094534</ele>
        <time>2026-05-22T12:52:00.000Z</time>
      </trkpt>
      <trkpt lat="43.04831" lon="-1.2128">
        <ele>951.099395</ele>
        <time>2026-05-22T12:52:01.000Z</time>
      </trkpt>
      <trkpt lat="43.0483" lon="-1.21284">
        <ele>951.104225</ele>
        <time>2026-05-22T12:52:02.000Z</time>
      </trkpt>
      <trkpt lat="43.04829" lon="-1.21288">
        <ele>951.108867</ele>
        <time>2026-05-22T12:52:03.000Z</time>
      </trkpt>
      <trkpt lat="43.04828" lon="-1.21292">
        <ele>951.113319</ele>
        <time>2026-05-22T12:52:04.000Z</time>
      </trkpt>
      <trkpt lat="43.04827" lon="-1.21296">
        <ele>951.117649</ele>
        <time>2026-05-22T12:52:05.000Z</time>
      </trkpt>
      <trkpt lat="43.04825" lon="-1.21299">
        <ele>951.122114</ele>
        <time>2026-05-22T12:52:06.000Z</time>
      </trkpt>
      <trkpt lat="43.04823" lon="-1.21301">
        <ele>951.126297</ele>
        <time>2026-05-22T12:52:07.000Z</time>
      </trkpt>
      <trkpt lat="43.04821" lon="-1.21303">
        <ele>951.130376</ele>
        <time>2026-05-22T12:52:08.000Z</time>
      </trkpt>
      <trkpt lat="43.04819" lon="-1.21305">
        <ele>951.134468</ele>
        <time>2026-05-22T12:52:09.000Z</time>
      </trkpt>
      <trkpt lat="43.04816" lon="-1.21306">
        <ele>951.138497</ele>
        <time>2026-05-22T12:52:10.000Z</time>
      </trkpt>
      <trkpt lat="43.04814" lon="-1.21308">
        <ele>951.142713</ele>
        <time>2026-05-22T12:52:11.000Z</time>
      </trkpt>
      <trkpt lat="43.04812" lon="-1.21309">
        <ele>951.146514</ele>
        <time>2026-05-22T12:52:12.000Z</time>
      </trkpt>
      <trkpt lat="43.0481" lon="-1.2131">
        <ele>951.149658</ele>
        <time>2026-05-22T12:52:13.000Z</time>
      </trkpt>
      <trkpt lat="43.04809" lon="-1.2131">
        <ele>951.150939</ele>
        <time>2026-05-22T12:52:14.000Z</time>
      </trkpt>
      <trkpt lat="43.04805" lon="-1.21312">
        <ele>951.157765</ele>
        <time>2026-05-22T12:52:44.000Z</time>
      </trkpt>
      <trkpt lat="43.04803" lon="-1.21313">
        <ele>951.160395</ele>
        <time>2026-05-22T12:52:45.000Z</time>
      </trkpt>
      <trkpt lat="43.04801" lon="-1.21314">
        <ele>951.163647</ele>
        <time>2026-05-22T12:52:46.000Z</time>
      </trkpt>
      <trkpt lat="43.04799" lon="-1.21315">
        <ele>951.167081</ele>
        <time>2026-05-22T12:52:47.000Z</time>
      </trkpt>
      <trkpt lat="43.04797" lon="-1.21316">
        <ele>951.170968</ele>
        <time>2026-05-22T12:52:48.000Z</time>
      </trkpt>
      <trkpt lat="43.04794" lon="-1.21317">
        <ele>951.175059</ele>
        <time>2026-05-22T12:52:49.000Z</time>
      </trkpt>
      <trkpt lat="43.04791" lon="-1.21318">
        <ele>951.179678</ele>
        <time>2026-05-22T12:52:50.000Z</time>
      </trkpt>
      <trkpt lat="43.04788" lon="-1.2132">
        <ele>951.184466</ele>
        <time>2026-05-22T12:52:51.000Z</time>
      </trkpt>
      <trkpt lat="43.04785" lon="-1.21321">
        <ele>951.189524</ele>
        <time>2026-05-22T12:52:52.000Z</time>
      </trkpt>
      <trkpt lat="43.04782" lon="-1.21323">
        <ele>951.194682</ele>
        <time>2026-05-22T12:52:53.000Z</time>
      </trkpt>
      <trkpt lat="43.04779" lon="-1.21325">
        <ele>951.199741</ele>
        <time>2026-05-22T12:52:54.000Z</time>
      </trkpt>
      <trkpt lat="43.04776" lon="-1.21327">
        <ele>951.204894</ele>
        <time>2026-05-22T12:52:55.000Z</time>
      </trkpt>
      <trkpt lat="43.04773" lon="-1.21329">
        <ele>951.209772</ele>
        <time>2026-05-22T12:52:56.000Z</time>
      </trkpt>
      <trkpt lat="43.04771" lon="-1.21331">
        <ele>951.214549</ele>
        <time>2026-05-22T12:52:57.000Z</time>
      </trkpt>
      <trkpt lat="43.04768" lon="-1.21333">
        <ele>951.219467</ele>
        <time>2026-05-22T12:52:58.000Z</time>
      </trkpt>
      <trkpt lat="43.04765" lon="-1.21334">
        <ele>951.224385</ele>
        <time>2026-05-22T12:52:59.000Z</time>
      </trkpt>
      <trkpt lat="43.04762" lon="-1.21336">
        <ele>951.229172</ele>
        <time>2026-05-22T12:53:00.000Z</time>
      </trkpt>
      <trkpt lat="43.04759" lon="-1.21337">
        <ele>951.234214</ele>
        <time>2026-05-22T12:53:01.000Z</time>
      </trkpt>
      <trkpt lat="43.04756" lon="-1.21339">
        <ele>951.239186</ele>
        <time>2026-05-22T12:53:02.000Z</time>
      </trkpt>
      <trkpt lat="43.04753" lon="-1.21341">
        <ele>951.244253</ele>
        <time>2026-05-22T12:53:03.000Z</time>
      </trkpt>
      <trkpt lat="43.0475" lon="-1.21343">
        <ele>951.249218</ele>
        <time>2026-05-22T12:53:04.000Z</time>
      </trkpt>
      <trkpt lat="43.04747" lon="-1.21344">
        <ele>951.254191</ele>
        <time>2026-05-22T12:53:05.000Z</time>
      </trkpt>
      <trkpt lat="43.04744" lon="-1.21346">
        <ele>951.259414</ele>
        <time>2026-05-22T12:53:06.000Z</time>
      </trkpt>
      <trkpt lat="43.0474" lon="-1.21347">
        <ele>951.264931</ele>
        <time>2026-05-22T12:53:07.000Z</time>
      </trkpt>
      <trkpt lat="43.04737" lon="-1.21349">
        <ele>951.253764</ele>
        <time>2026-05-22T12:53:08.000Z</time>
      </trkpt>
      <trkpt lat="43.04734" lon="-1.21351">
        <ele>951.240016</ele>
        <time>2026-05-22T12:53:09.000Z</time>
      </trkpt>
      <trkpt lat="43.0473" lon="-1.21353">
        <ele>951.225928</ele>
        <time>2026-05-22T12:53:10.000Z</time>
      </trkpt>
      <trkpt lat="43.04726" lon="-1.21355">
        <ele>951.212023</ele>
        <time>2026-05-22T12:53:11.000Z</time>
      </trkpt>
      <trkpt lat="43.04723" lon="-1.21357">
        <ele>951.198118</ele>
        <time>2026-05-22T12:53:12.000Z</time>
      </trkpt>
      <trkpt lat="43.04719" lon="-1.21359">
        <ele>951.18427</ele>
        <time>2026-05-22T12:53:13.000Z</time>
      </trkpt>
      <trkpt lat="43.04716" lon="-1.21361">
        <ele>951.171092</ele>
        <time>2026-05-22T12:53:14.000Z</time>
      </trkpt>
      <trkpt lat="43.04713" lon="-1.21363">
        <ele>951.157472</ele>
        <time>2026-05-22T12:53:15.000Z</time>
      </trkpt>
      <trkpt lat="43.04709" lon="-1.21364">
        <ele>951.144161</ele>
        <time>2026-05-22T12:53:16.000Z</time>
      </trkpt>
      <trkpt lat="43.04706" lon="-1.21366">
        <ele>951.13077</ele>
        <time>2026-05-22T12:53:17.000Z</time>
      </trkpt>
      <trkpt lat="43.04702" lon="-1.21368">
        <ele>951.116481</ele>
        <time>2026-05-22T12:53:18.000Z</time>
      </trkpt>
      <trkpt lat="43.04698" lon="-1.2137">
        <ele>951.101531</ele>
        <time>2026-05-22T12:53:19.000Z</time>
      </trkpt>
      <trkpt lat="43.04694" lon="-1.21373">
        <ele>951.085917</ele>
        <time>2026-05-22T12:53:20.000Z</time>
      </trkpt>
      <trkpt lat="43.0469" lon="-1.21376">
        <ele>951.069633</ele>
        <time>2026-05-22T12:53:21.000Z</time>
      </trkpt>
      <trkpt lat="43.04686" lon="-1.21378">
        <ele>951.053019</ele>
        <time>2026-05-22T12:53:22.000Z</time>
      </trkpt>
      <trkpt lat="43.04682" lon="-1.21381">
        <ele>951.037072</ele>
        <time>2026-05-22T12:53:23.000Z</time>
      </trkpt>
      <trkpt lat="43.04678" lon="-1.21383">
        <ele>951.020454</ele>
        <time>2026-05-22T12:53:24.000Z</time>
      </trkpt>
      <trkpt lat="43.04674" lon="-1.21386">
        <ele>951.003623</ele>
        <time>2026-05-22T12:53:25.000Z</time>
      </trkpt>
      <trkpt lat="43.0467" lon="-1.21388">
        <ele>950.986458</ele>
        <time>2026-05-22T12:53:26.000Z</time>
      </trkpt>
      <trkpt lat="43.04665" lon="-1.21391">
        <ele>950.969164</ele>
        <time>2026-05-22T12:53:27.000Z</time>
      </trkpt>
      <trkpt lat="43.04661" lon="-1.21393">
        <ele>950.951372</ele>
        <time>2026-05-22T12:53:28.000Z</time>
      </trkpt>
      <trkpt lat="43.04656" lon="-1.21395">
        <ele>950.932862</ele>
        <time>2026-05-22T12:53:29.000Z</time>
      </trkpt>
      <trkpt lat="43.04651" lon="-1.21398">
        <ele>950.91469</ele>
        <time>2026-05-22T12:53:30.000Z</time>
      </trkpt>
      <trkpt lat="43.04647" lon="-1.21401">
        <ele>950.896518</ele>
        <time>2026-05-22T12:53:31.000Z</time>
      </trkpt>
      <trkpt lat="43.04642" lon="-1.21403">
        <ele>950.878786</ele>
        <time>2026-05-22T12:53:32.000Z</time>
      </trkpt>
      <trkpt lat="43.04638" lon="-1.21405">
        <ele>950.861426</ele>
        <time>2026-05-22T12:53:33.000Z</time>
      </trkpt>
      <trkpt lat="43.04633" lon="-1.21407">
        <ele>950.843721</ele>
        <time>2026-05-22T12:53:34.000Z</time>
      </trkpt>
      <trkpt lat="43.04629" lon="-1.2141">
        <ele>950.825746</ele>
        <time>2026-05-22T12:53:35.000Z</time>
      </trkpt>
      <trkpt lat="43.04624" lon="-1.21412">
        <ele>950.807674</ele>
        <time>2026-05-22T12:53:36.000Z</time>
      </trkpt>
      <trkpt lat="43.04619" lon="-1.21415">
        <ele>950.789839</ele>
        <time>2026-05-22T12:53:37.000Z</time>
      </trkpt>
      <trkpt lat="43.04615" lon="-1.21418">
        <ele>950.771564</ele>
        <time>2026-05-22T12:53:38.000Z</time>
      </trkpt>
      <trkpt lat="43.0461" lon="-1.2142">
        <ele>950.754269</ele>
        <time>2026-05-22T12:53:39.000Z</time>
      </trkpt>
      <trkpt lat="43.04606" lon="-1.21422">
        <ele>950.737255</ele>
        <time>2026-05-22T12:53:40.000Z</time>
      </trkpt>
      <trkpt lat="43.04602" lon="-1.21424">
        <ele>950.720673</ele>
        <time>2026-05-22T12:53:41.000Z</time>
      </trkpt>
      <trkpt lat="43.04598" lon="-1.21426">
        <ele>950.70537</ele>
        <time>2026-05-22T12:53:42.000Z</time>
      </trkpt>
      <trkpt lat="43.04594" lon="-1.21428">
        <ele>950.690941</ele>
        <time>2026-05-22T12:53:43.000Z</time>
      </trkpt>
      <trkpt lat="43.04591" lon="-1.2143">
        <ele>950.677531</ele>
        <time>2026-05-22T12:53:44.000Z</time>
      </trkpt>
      <trkpt lat="43.04588" lon="-1.21432">
        <ele>950.665018</ele>
        <time>2026-05-22T12:53:45.000Z</time>
      </trkpt>
      <trkpt lat="43.04584" lon="-1.21434">
        <ele>950.652578</ele>
        <time>2026-05-22T12:53:46.000Z</time>
      </trkpt>
      <trkpt lat="43.04581" lon="-1.21435">
        <ele>950.640949</ele>
        <time>2026-05-22T12:53:47.000Z</time>
      </trkpt>
      <trkpt lat="43.04579" lon="-1.21436">
        <ele>950.630065</ele>
        <time>2026-05-22T12:53:48.000Z</time>
      </trkpt>
      <trkpt lat="43.04576" lon="-1.21438">
        <ele>950.618654</ele>
        <time>2026-05-22T12:53:49.000Z</time>
      </trkpt>
      <trkpt lat="43.04573" lon="-1.2144">
        <ele>950.614537</ele>
        <time>2026-05-22T12:53:50.000Z</time>
      </trkpt>
      <trkpt lat="43.0457" lon="-1.21441">
        <ele>950.649851</ele>
        <time>2026-05-22T12:53:51.000Z</time>
      </trkpt>
      <trkpt lat="43.04567" lon="-1.21442">
        <ele>950.68385</ele>
        <time>2026-05-22T12:53:52.000Z</time>
      </trkpt>
      <trkpt lat="43.04564" lon="-1.21444">
        <ele>950.717604</ele>
        <time>2026-05-22T12:53:53.000Z</time>
      </trkpt>
      <trkpt lat="43.04562" lon="-1.21445">
        <ele>950.747713</ele>
        <time>2026-05-22T12:53:54.000Z</time>
      </trkpt>
      <trkpt lat="43.04559" lon="-1.21447">
        <ele>950.778604</ele>
        <time>2026-05-22T12:53:55.000Z</time>
      </trkpt>
      <trkpt lat="43.04557" lon="-1.21449">
        <ele>950.807671</ele>
        <time>2026-05-22T12:53:56.000Z</time>
      </trkpt>
      <trkpt lat="43.04555" lon="-1.2145">
        <ele>950.834816</ele>
        <time>2026-05-22T12:53:57.000Z</time>
      </trkpt>
      <trkpt lat="43.04553" lon="-1.21451">
        <ele>950.85813</ele>
        <time>2026-05-22T12:53:58.000Z</time>
      </trkpt>
      <trkpt lat="43.04551" lon="-1.21452">
        <ele>950.875601</ele>
        <time>2026-05-22T12:53:59.000Z</time>
      </trkpt>
      <trkpt lat="43.04551" lon="-1.21452">
        <ele>950.880683</ele>
        <time>2026-05-22T12:54:00.000Z</time>
      </trkpt>
      <trkpt lat="43.04547" lon="-1.21454">
        <ele>950.929256</ele>
        <time>2026-05-22T12:55:44.000Z</time>
      </trkpt>
      <trkpt lat="43.04545" lon="-1.21455">
        <ele>950.951563</ele>
        <time>2026-05-22T12:55:45.000Z</time>
      </trkpt>
      <trkpt lat="43.04543" lon="-1.21456">
        <ele>950.978987</ele>
        <time>2026-05-22T12:55:46.000Z</time>
      </trkpt>
      <trkpt lat="43.0454" lon="-1.21457">
        <ele>951.007788</ele>
        <time>2026-05-22T12:55:47.000Z</time>
      </trkpt>
      <trkpt lat="43.04537" lon="-1.21458">
        <ele>951.039656</ele>
        <time>2026-05-22T12:55:48.000Z</time>
      </trkpt>
      <trkpt lat="43.04534" lon="-1.21459">
        <ele>951.07341</ele>
        <time>2026-05-22T12:55:49.000Z</time>
      </trkpt>
      <trkpt lat="43.04531" lon="-1.21461">
        <ele>951.110043</ele>
        <time>2026-05-22T12:55:50.000Z</time>
      </trkpt>
      <trkpt lat="43.04528" lon="-1.21463">
        <ele>951.146224</ele>
        <time>2026-05-22T12:55:51.000Z</time>
      </trkpt>
      <trkpt lat="43.04525" lon="-1.21465">
        <ele>951.184537</ele>
        <time>2026-05-22T12:55:52.000Z</time>
      </trkpt>
      <trkpt lat="43.04522" lon="-1.21467">
        <ele>951.225797</ele>
        <time>2026-05-22T12:55:53.000Z</time>
      </trkpt>
      <trkpt lat="43.04519" lon="-1.21469">
        <ele>951.268054</ele>
        <time>2026-05-22T12:55:54.000Z</time>
      </trkpt>
      <trkpt lat="43.04515" lon="-1.21472">
        <ele>951.31267</ele>
        <time>2026-05-22T12:55:55.000Z</time>
      </trkpt>
      <trkpt lat="43.04511" lon="-1.21474">
        <ele>951.35901</ele>
        <time>2026-05-22T12:55:56.000Z</time>
      </trkpt>
      <trkpt lat="43.04508" lon="-1.21477">
        <ele>951.403956</ele>
        <time>2026-05-22T12:55:57.000Z</time>
      </trkpt>
      <trkpt lat="43.04504" lon="-1.21478">
        <ele>951.447706</ele>
        <time>2026-05-22T12:55:58.000Z</time>
      </trkpt>
      <trkpt lat="43.045" lon="-1.2148">
        <ele>951.49278</ele>
        <time>2026-05-22T12:55:59.000Z</time>
      </trkpt>
      <trkpt lat="43.04497" lon="-1.21482">
        <ele>951.536381</ele>
        <time>2026-05-22T12:56:00.000Z</time>
      </trkpt>
      <trkpt lat="43.04493" lon="-1.21485">
        <ele>951.580368</ele>
        <time>2026-05-22T12:56:01.000Z</time>
      </trkpt>
      <trkpt lat="43.0449" lon="-1.21487">
        <ele>951.624737</ele>
        <time>2026-05-22T12:56:02.000Z</time>
      </trkpt>
      <trkpt lat="43.04486" lon="-1.2149">
        <ele>951.670357</ele>
        <time>2026-05-22T12:56:03.000Z</time>
      </trkpt>
      <trkpt lat="43.04482" lon="-1.21492">
        <ele>951.715976</ele>
        <time>2026-05-22T12:56:04.000Z</time>
      </trkpt>
      <trkpt lat="43.04478" lon="-1.21495">
        <ele>951.762952</ele>
        <time>2026-05-22T12:56:05.000Z</time>
      </trkpt>
      <trkpt lat="43.04474" lon="-1.21497">
        <ele>951.811285</ele>
        <time>2026-05-22T12:56:06.000Z</time>
      </trkpt>
      <trkpt lat="43.0447" lon="-1.215">
        <ele>951.860977</ele>
        <time>2026-05-22T12:56:07.000Z</time>
      </trkpt>
      <trkpt lat="43.04466" lon="-1.21503">
        <ele>951.911323</ele>
        <time>2026-05-22T12:56:08.000Z</time>
      </trkpt>
      <trkpt lat="43.04462" lon="-1.21505">
        <ele>951.962681</ele>
        <time>2026-05-22T12:56:09.000Z</time>
      </trkpt>
      <trkpt lat="43.04458" lon="-1.21508">
        <ele>952.012373</ele>
        <time>2026-05-22T12:56:10.000Z</time>
      </trkpt>
      <trkpt lat="43.04454" lon="-1.21511">
        <ele>952.063732</ele>
        <time>2026-05-22T12:56:11.000Z</time>
      </trkpt>
      <trkpt lat="43.0445" lon="-1.21513">
        <ele>952.115091</ele>
        <time>2026-05-22T12:56:12.000Z</time>
      </trkpt>
      <trkpt lat="43.04445" lon="-1.21516">
        <ele>952.167801</ele>
        <time>2026-05-22T12:56:13.000Z</time>
      </trkpt>
      <trkpt lat="43.04441" lon="-1.21519">
        <ele>952.220585</ele>
        <time>2026-05-22T12:56:14.000Z</time>
      </trkpt>
      <trkpt lat="43.04437" lon="-1.21522">
        <ele>952.27337</ele>
        <time>2026-05-22T12:56:15.000Z</time>
      </trkpt>
      <trkpt lat="43.04433" lon="-1.21525">
        <ele>952.326155</ele>
        <time>2026-05-22T12:56:16.000Z</time>
      </trkpt>
      <trkpt lat="43.04429" lon="-1.21528">
        <ele>952.37921</ele>
        <time>2026-05-22T12:56:17.000Z</time>
      </trkpt>
      <trkpt lat="43.04424" lon="-1.2153">
        <ele>952.431261</ele>
        <time>2026-05-22T12:56:18.000Z</time>
      </trkpt>
      <trkpt lat="43.0442" lon="-1.21533">
        <ele>952.483971</ele>
        <time>2026-05-22T12:56:19.000Z</time>
      </trkpt>
      <trkpt lat="43.04416" lon="-1.21536">
        <ele>952.535671</ele>
        <time>2026-05-22T12:56:20.000Z</time>
      </trkpt>
      <trkpt lat="43.04412" lon="-1.21539">
        <ele>952.589446</ele>
        <time>2026-05-22T12:56:21.000Z</time>
      </trkpt>
      <trkpt lat="43.04407" lon="-1.21542">
        <ele>952.690749</ele>
        <time>2026-05-22T12:56:22.000Z</time>
      </trkpt>
      <trkpt lat="43.04403" lon="-1.21545">
        <ele>952.836728</ele>
        <time>2026-05-22T12:56:23.000Z</time>
      </trkpt>
      <trkpt lat="43.04399" lon="-1.21548">
        <ele>952.981716</ele>
        <time>2026-05-22T12:56:24.000Z</time>
      </trkpt>
      <trkpt lat="43.04395" lon="-1.2155">
        <ele>953.122062</ele>
        <time>2026-05-22T12:56:25.000Z</time>
      </trkpt>
      <trkpt lat="43.0439" lon="-1.21553">
        <ele>953.265151</ele>
        <time>2026-05-22T12:56:26.000Z</time>
      </trkpt>
      <trkpt lat="43.04386" lon="-1.21556">
        <ele>953.395683</ele>
        <time>2026-05-22T12:56:27.000Z</time>
      </trkpt>
      <trkpt lat="43.04383" lon="-1.21559">
        <ele>953.520922</ele>
        <time>2026-05-22T12:56:28.000Z</time>
      </trkpt>
      <trkpt lat="43.04379" lon="-1.21561">
        <ele>953.639282</ele>
        <time>2026-05-22T12:56:29.000Z</time>
      </trkpt>
      <trkpt lat="43.04376" lon="-1.21563">
        <ele>953.74844</ele>
        <time>2026-05-22T12:56:30.000Z</time>
      </trkpt>
      <trkpt lat="43.04373" lon="-1.21565">
        <ele>953.847673</ele>
        <time>2026-05-22T12:56:31.000Z</time>
      </trkpt>
      <trkpt lat="43.0437" lon="-1.21567">
        <ele>953.943983</ele>
        <time>2026-05-22T12:56:32.000Z</time>
      </trkpt>
      <trkpt lat="43.04367" lon="-1.21568">
        <ele>954.039401</ele>
        <time>2026-05-22T12:56:33.000Z</time>
      </trkpt>
      <trkpt lat="43.04365" lon="-1.2157">
        <ele>954.134442</ele>
        <time>2026-05-22T12:56:34.000Z</time>
      </trkpt>
      <trkpt lat="43.04362" lon="-1.21573">
        <ele>954.225754</ele>
        <time>2026-05-22T12:56:35.000Z</time>
      </trkpt>
      <trkpt lat="43.0436" lon="-1.21574">
        <ele>954.309614</ele>
        <time>2026-05-22T12:56:36.000Z</time>
      </trkpt>
      <trkpt lat="43.04357" lon="-1.21576">
        <ele>954.392033</ele>
        <time>2026-05-22T12:56:37.000Z</time>
      </trkpt>
      <trkpt lat="43.04355" lon="-1.21578">
        <ele>954.477473</ele>
        <time>2026-05-22T12:56:38.000Z</time>
      </trkpt>
      <trkpt lat="43.04352" lon="-1.2158">
        <ele>954.554531</ele>
        <time>2026-05-22T12:56:39.000Z</time>
      </trkpt>
      <trkpt lat="43.0435" lon="-1.21582">
        <ele>954.631914</ele>
        <time>2026-05-22T12:56:40.000Z</time>
      </trkpt>
      <trkpt lat="43.04348" lon="-1.21584">
        <ele>954.713042</ele>
        <time>2026-05-22T12:56:41.000Z</time>
      </trkpt>
      <trkpt lat="43.04346" lon="-1.21585">
        <ele>954.791077</ele>
        <time>2026-05-22T12:56:42.000Z</time>
      </trkpt>
      <trkpt lat="43.04344" lon="-1.21587">
        <ele>954.867211</ele>
        <time>2026-05-22T12:56:43.000Z</time>
      </trkpt>
      <trkpt lat="43.04341" lon="-1.21588">
        <ele>954.947011</ele>
        <time>2026-05-22T12:56:44.000Z</time>
      </trkpt>
      <trkpt lat="43.04339" lon="-1.2159">
        <ele>955.025046</ele>
        <time>2026-05-22T12:56:45.000Z</time>
      </trkpt>
      <trkpt lat="43.04337" lon="-1.21592">
        <ele>955.107466</ele>
        <time>2026-05-22T12:56:46.000Z</time>
      </trkpt>
      <trkpt lat="43.04334" lon="-1.21594">
        <ele>955.189886</ele>
        <time>2026-05-22T12:56:47.000Z</time>
      </trkpt>
      <trkpt lat="43.04332" lon="-1.21595">
        <ele>955.272446</ele>
        <time>2026-05-22T12:56:48.000Z</time>
      </trkpt>
      <trkpt lat="43.04329" lon="-1.21597">
        <ele>955.355918</ele>
        <time>2026-05-22T12:56:49.000Z</time>
      </trkpt>
      <trkpt lat="43.04327" lon="-1.21599">
        <ele>955.43498</ele>
        <time>2026-05-22T12:56:50.000Z</time>
      </trkpt>
      <trkpt lat="43.04325" lon="-1.216">
        <ele>955.513046</ele>
        <time>2026-05-22T12:56:51.000Z</time>
      </trkpt>
      <trkpt lat="43.04322" lon="-1.21601">
        <ele>955.591953</ele>
        <time>2026-05-22T12:56:52.000Z</time>
      </trkpt>
      <trkpt lat="43.0432" lon="-1.21603">
        <ele>955.669989</ele>
        <time>2026-05-22T12:56:53.000Z</time>
      </trkpt>
      <trkpt lat="43.04318" lon="-1.21605">
        <ele>955.747514</ele>
        <time>2026-05-22T12:56:54.000Z</time>
      </trkpt>
      <trkpt lat="43.04316" lon="-1.21607">
        <ele>955.824897</ele>
        <time>2026-05-22T12:56:55.000Z</time>
      </trkpt>
      <trkpt lat="43.04313" lon="-1.21609">
        <ele>955.901038</ele>
        <time>2026-05-22T12:56:56.000Z</time>
      </trkpt>
      <trkpt lat="43.04311" lon="-1.21611">
        <ele>955.981174</ele>
        <time>2026-05-22T12:56:57.000Z</time>
      </trkpt>
      <trkpt lat="43.04309" lon="-1.21612">
        <ele>956.058233</ele>
        <time>2026-05-22T12:56:58.000Z</time>
      </trkpt>
      <trkpt lat="43.04307" lon="-1.21614">
        <ele>956.137295</ele>
        <time>2026-05-22T12:56:59.000Z</time>
      </trkpt>
      <trkpt lat="43.04304" lon="-1.21615">
        <ele>956.221727</ele>
        <time>2026-05-22T12:57:00.000Z</time>
      </trkpt>
      <trkpt lat="43.04301" lon="-1.21617">
        <ele>956.309053</ele>
        <time>2026-05-22T12:57:01.000Z</time>
      </trkpt>
      <trkpt lat="43.04299" lon="-1.21618">
        <ele>956.392773</ele>
        <time>2026-05-22T12:57:02.000Z</time>
      </trkpt>
      <trkpt lat="43.04296" lon="-1.2162">
        <ele>956.478995</ele>
        <time>2026-05-22T12:57:03.000Z</time>
      </trkpt>
      <trkpt lat="43.04293" lon="-1.21621">
        <ele>956.567128</ele>
        <time>2026-05-22T12:57:04.000Z</time>
      </trkpt>
      <trkpt lat="43.04291" lon="-1.21623">
        <ele>956.660692</ele>
        <time>2026-05-22T12:57:05.000Z</time>
      </trkpt>
      <trkpt lat="43.04288" lon="-1.21625">
        <ele>956.754257</ele>
        <time>2026-05-22T12:57:06.000Z</time>
      </trkpt>
      <trkpt lat="43.04285" lon="-1.21627">
        <ele>956.849675</ele>
        <time>2026-05-22T12:57:07.000Z</time>
      </trkpt>
      <trkpt lat="43.04282" lon="-1.21628">
        <ele>956.948747</ele>
        <time>2026-05-22T12:57:08.000Z</time>
      </trkpt>
      <trkpt lat="43.04279" lon="-1.2163">
        <ele>957.046966</ele>
        <time>2026-05-22T12:57:09.000Z</time>
      </trkpt>
      <trkpt lat="43.04276" lon="-1.21632">
        <ele>957.141536</ele>
        <time>2026-05-22T12:57:10.000Z</time>
      </trkpt>
      <trkpt lat="43.04273" lon="-1.21634">
        <ele>957.23878</ele>
        <time>2026-05-22T12:57:11.000Z</time>
      </trkpt>
      <trkpt lat="43.04271" lon="-1.21636">
        <ele>957.331637</ele>
        <time>2026-05-22T12:57:12.000Z</time>
      </trkpt>
      <trkpt lat="43.04268" lon="-1.21638">
        <ele>957.42929</ele>
        <time>2026-05-22T12:57:13.000Z</time>
      </trkpt>
      <trkpt lat="43.04265" lon="-1.2164">
        <ele>957.524145</ele>
        <time>2026-05-22T12:57:14.000Z</time>
      </trkpt>
      <trkpt lat="43.04263" lon="-1.21643">
        <ele>957.617796</ele>
        <time>2026-05-22T12:57:15.000Z</time>
      </trkpt>
      <trkpt lat="43.0426" lon="-1.21645">
        <ele>957.712652</ele>
        <time>2026-05-22T12:57:16.000Z</time>
      </trkpt>
      <trkpt lat="43.04258" lon="-1.21648">
        <ele>957.806303</ele>
        <time>2026-05-22T12:57:17.000Z</time>
      </trkpt>
      <trkpt lat="43.04255" lon="-1.21651">
        <ele>957.901692</ele>
        <time>2026-05-22T12:57:18.000Z</time>
      </trkpt>
      <trkpt lat="43.04253" lon="-1.21654">
        <ele>957.996285</ele>
        <time>2026-05-22T12:57:19.000Z</time>
      </trkpt>
      <trkpt lat="43.04251" lon="-1.21656">
        <ele>957.998821</ele>
        <time>2026-05-22T12:57:20.000Z</time>
      </trkpt>
      <trkpt lat="43.04249" lon="-1.21659">
        <ele>957.835418</ele>
        <time>2026-05-22T12:57:21.000Z</time>
      </trkpt>
      <trkpt lat="43.04247" lon="-1.21662">
        <ele>957.665448</ele>
        <time>2026-05-22T12:57:22.000Z</time>
      </trkpt>
      <trkpt lat="43.04244" lon="-1.21666">
        <ele>957.496276</ele>
        <time>2026-05-22T12:57:23.000Z</time>
      </trkpt>
      <trkpt lat="43.04243" lon="-1.21669">
        <ele>957.331133</ele>
        <time>2026-05-22T12:57:24.000Z</time>
      </trkpt>
      <trkpt lat="43.04241" lon="-1.21673">
        <ele>957.165396</ele>
        <time>2026-05-22T12:57:25.000Z</time>
      </trkpt>
      <trkpt lat="43.04239" lon="-1.21676">
        <ele>956.987272</ele>
        <time>2026-05-22T12:57:26.000Z</time>
      </trkpt>
      <trkpt lat="43.04237" lon="-1.2168">
        <ele>956.799618</ele>
        <time>2026-05-22T12:57:27.000Z</time>
      </trkpt>
      <trkpt lat="43.04235" lon="-1.21684">
        <ele>956.615416</ele>
        <time>2026-05-22T12:57:28.000Z</time>
      </trkpt>
      <trkpt lat="43.04233" lon="-1.21688">
        <ele>956.421626</ele>
        <time>2026-05-22T12:57:29.000Z</time>
      </trkpt>
      <trkpt lat="43.04231" lon="-1.21692">
        <ele>956.220509</ele>
        <time>2026-05-22T12:57:30.000Z</time>
      </trkpt>
      <trkpt lat="43.04228" lon="-1.21696">
        <ele>956.015753</ele>
        <time>2026-05-22T12:57:31.000Z</time>
      </trkpt>
      <trkpt lat="43.04226" lon="-1.217">
        <ele>955.815551</ele>
        <time>2026-05-22T12:57:32.000Z</time>
      </trkpt>
      <trkpt lat="43.04223" lon="-1.21704">
        <ele>955.615002</ele>
        <time>2026-05-22T12:57:33.000Z</time>
      </trkpt>
      <trkpt lat="43.04221" lon="-1.21707">
        <ele>955.420922</ele>
        <time>2026-05-22T12:57:34.000Z</time>
      </trkpt>
      <trkpt lat="43.04219" lon="-1.21711">
        <ele>955.229249</ele>
        <time>2026-05-22T12:57:35.000Z</time>
      </trkpt>
      <trkpt lat="43.04216" lon="-1.21715">
        <ele>955.037577</ele>
        <time>2026-05-22T12:57:36.000Z</time>
      </trkpt>
      <trkpt lat="43.04214" lon="-1.21718">
        <ele>954.852986</ele>
        <time>2026-05-22T12:57:37.000Z</time>
      </trkpt>
      <trkpt lat="43.04212" lon="-1.21722">
        <ele>954.67436</ele>
        <time>2026-05-22T12:57:38.000Z</time>
      </trkpt>
      <trkpt lat="43.0421" lon="-1.21725">
        <ele>954.502241</ele>
        <time>2026-05-22T12:57:39.000Z</time>
      </trkpt>
      <trkpt lat="43.04207" lon="-1.21728">
        <ele>954.312526</ele>
        <time>2026-05-22T12:57:40.000Z</time>
      </trkpt>
      <trkpt lat="43.04205" lon="-1.21732">
        <ele>954.109218</ele>
        <time>2026-05-22T12:57:41.000Z</time>
      </trkpt>
      <trkpt lat="43.04203" lon="-1.21738">
        <ele>953.870616</ele>
        <time>2026-05-22T12:57:42.000Z</time>
      </trkpt>
      <trkpt lat="43.04201" lon="-1.21743">
        <ele>953.624893</ele>
        <time>2026-05-22T12:57:43.000Z</time>
      </trkpt>
      <trkpt lat="43.042" lon="-1.2175">
        <ele>953.346196</ele>
        <time>2026-05-22T12:57:44.000Z</time>
      </trkpt>
      <trkpt lat="43.042" lon="-1.21758">
        <ele>953.029262</ele>
        <time>2026-05-22T12:57:45.000Z</time>
      </trkpt>
      <trkpt lat="43.04199" lon="-1.21767">
        <ele>952.684342</ele>
        <time>2026-05-22T12:57:46.000Z</time>
      </trkpt>
      <trkpt lat="43.04198" lon="-1.21776">
        <ele>952.351127</ele>
        <time>2026-05-22T12:57:47.000Z</time>
      </trkpt>
      <trkpt lat="43.04196" lon="-1.21784">
        <ele>952.019629</ele>
        <time>2026-05-22T12:57:48.000Z</time>
      </trkpt>
      <trkpt lat="43.04195" lon="-1.21792">
        <ele>951.679488</ele>
        <time>2026-05-22T12:57:49.000Z</time>
      </trkpt>
      <trkpt lat="43.04192" lon="-1.21801">
        <ele>951.311764</ele>
        <time>2026-05-22T12:57:50.000Z</time>
      </trkpt>
      <trkpt lat="43.0419" lon="-1.21809">
        <ele>950.975232</ele>
        <time>2026-05-22T12:57:51.000Z</time>
      </trkpt>
      <trkpt lat="43.04187" lon="-1.21816">
        <ele>950.663887</ele>
        <time>2026-05-22T12:57:52.000Z</time>
      </trkpt>
      <trkpt lat="43.04183" lon="-1.2182">
        <ele>950.366202</ele>
        <time>2026-05-22T12:57:53.000Z</time>
      </trkpt>
      <trkpt lat="43.04178" lon="-1.21823">
        <ele>950.093247</ele>
        <time>2026-05-22T12:57:54.000Z</time>
      </trkpt>
      <trkpt lat="43.04173" lon="-1.21825">
        <ele>949.794109</ele>
        <time>2026-05-22T12:57:55.000Z</time>
      </trkpt>
      <trkpt lat="43.04166" lon="-1.21826">
        <ele>949.446943</ele>
        <time>2026-05-22T12:57:56.000Z</time>
      </trkpt>
      <trkpt lat="43.04159" lon="-1.21827">
        <ele>949.045874</ele>
        <time>2026-05-22T12:57:57.000Z</time>
      </trkpt>
      <trkpt lat="43.04152" lon="-1.21828">
        <ele>948.645655</ele>
        <time>2026-05-22T12:57:58.000Z</time>
      </trkpt>
      <trkpt lat="43.04145" lon="-1.21829">
        <ele>948.379806</ele>
        <time>2026-05-22T12:57:59.000Z</time>
      </trkpt>
      <trkpt lat="43.04139" lon="-1.2183">
        <ele>948.412333</ele>
        <time>2026-05-22T12:58:00.000Z</time>
      </trkpt>
      <trkpt lat="43.04132" lon="-1.21832">
        <ele>948.446599</ele>
        <time>2026-05-22T12:58:01.000Z</time>
      </trkpt>
      <trkpt lat="43.04125" lon="-1.21833">
        <ele>948.482678</ele>
        <time>2026-05-22T12:58:02.000Z</time>
      </trkpt>
      <trkpt lat="43.04117" lon="-1.21837">
        <ele>948.524775</ele>
        <time>2026-05-22T12:58:03.000Z</time>
      </trkpt>
      <trkpt lat="43.04109" lon="-1.21843">
        <ele>948.569757</ele>
        <time>2026-05-22T12:58:04.000Z</time>
      </trkpt>
      <trkpt lat="43.04101" lon="-1.21849">
        <ele>948.614304</ele>
        <time>2026-05-22T12:58:05.000Z</time>
      </trkpt>
      <trkpt lat="43.04094" lon="-1.21855">
        <ele>948.656663</ele>
        <time>2026-05-22T12:58:06.000Z</time>
      </trkpt>
      <trkpt lat="43.04088" lon="-1.21861">
        <ele>948.695471</ele>
        <time>2026-05-22T12:58:07.000Z</time>
      </trkpt>
      <trkpt lat="43.04082" lon="-1.21867">
        <ele>948.735141</ele>
        <time>2026-05-22T12:58:08.000Z</time>
      </trkpt>
      <trkpt lat="43.04076" lon="-1.21874">
        <ele>948.772581</ele>
        <time>2026-05-22T12:58:09.000Z</time>
      </trkpt>
      <trkpt lat="43.0407" lon="-1.21881">
        <ele>948.810681</ele>
        <time>2026-05-22T12:58:10.000Z</time>
      </trkpt>
      <trkpt lat="43.04065" lon="-1.21886">
        <ele>948.845341</ele>
        <time>2026-05-22T12:58:11.000Z</time>
      </trkpt>
      <trkpt lat="43.0406" lon="-1.21891">
        <ele>948.877904</ele>
        <time>2026-05-22T12:58:12.000Z</time>
      </trkpt>
      <trkpt lat="43.04055" lon="-1.21896">
        <ele>948.908808</ele>
        <time>2026-05-22T12:58:13.000Z</time>
      </trkpt>
      <trkpt lat="43.04051" lon="-1.21901">
        <ele>948.935735</ele>
        <time>2026-05-22T12:58:14.000Z</time>
      </trkpt>
      <trkpt lat="43.04046" lon="-1.21905">
        <ele>948.961614</ele>
        <time>2026-05-22T12:58:15.000Z</time>
      </trkpt>
      <trkpt lat="43.04042" lon="-1.21908">
        <ele>948.983795</ele>
        <time>2026-05-22T12:58:16.000Z</time>
      </trkpt>
      <trkpt lat="43.04038" lon="-1.21909">
        <ele>949.005202</ele>
        <time>2026-05-22T12:58:17.000Z</time>
      </trkpt>
      <trkpt lat="43.04035" lon="-1.21911">
        <ele>949.023744</ele>
        <time>2026-05-22T12:58:18.000Z</time>
      </trkpt>
      <trkpt lat="43.04032" lon="-1.21912">
        <ele>949.040137</ele>
        <time>2026-05-22T12:58:19.000Z</time>
      </trkpt>
      <trkpt lat="43.04029" lon="-1.21913">
        <ele>949.055093</ele>
        <time>2026-05-22T12:58:20.000Z</time>
      </trkpt>
      <trkpt lat="43.04027" lon="-1.21914">
        <ele>949.066435</ele>
        <time>2026-05-22T12:58:21.000Z</time>
      </trkpt>
      <trkpt lat="43.04025" lon="-1.21914">
        <ele>949.077077</ele>
        <time>2026-05-22T12:58:22.000Z</time>
      </trkpt>
      <trkpt lat="43.04022" lon="-1.21914">
        <ele>949.088298</ele>
        <time>2026-05-22T12:58:23.000Z</time>
      </trkpt>
      <trkpt lat="43.04021" lon="-1.21915">
        <ele>949.098246</ele>
        <time>2026-05-22T12:58:24.000Z</time>
      </trkpt>
      <trkpt lat="43.04019" lon="-1.21916">
        <ele>949.106633</ele>
        <time>2026-05-22T12:58:25.000Z</time>
      </trkpt>
      <trkpt lat="43.04017" lon="-1.21916">
        <ele>949.116094</ele>
        <time>2026-05-22T12:58:26.000Z</time>
      </trkpt>
      <trkpt lat="43.04015" lon="-1.21917">
        <ele>949.127513</ele>
        <time>2026-05-22T12:58:27.000Z</time>
      </trkpt>
      <trkpt lat="43.04013" lon="-1.21918">
        <ele>949.138359</ele>
        <time>2026-05-22T12:58:28.000Z</time>
      </trkpt>
      <trkpt lat="43.0401" lon="-1.21918">
        <ele>949.150633</ele>
        <time>2026-05-22T12:58:29.000Z</time>
      </trkpt>
      <trkpt lat="43.04008" lon="-1.21918">
        <ele>949.162817</ele>
        <time>2026-05-22T12:58:30.000Z</time>
      </trkpt>
      <trkpt lat="43.04005" lon="-1.21918">
        <ele>949.175967</ele>
        <time>2026-05-22T12:58:31.000Z</time>
      </trkpt>
      <trkpt lat="43.04003" lon="-1.21918">
        <ele>949.189132</ele>
        <time>2026-05-22T12:58:32.000Z</time>
      </trkpt>
      <trkpt lat="43.04" lon="-1.21918">
        <ele>949.202788</ele>
        <time>2026-05-22T12:58:33.000Z</time>
      </trkpt>
      <trkpt lat="43.03997" lon="-1.21919">
        <ele>949.216518</ele>
        <time>2026-05-22T12:58:34.000Z</time>
      </trkpt>
      <trkpt lat="43.03995" lon="-1.21919">
        <ele>949.229683</ele>
        <time>2026-05-22T12:58:35.000Z</time>
      </trkpt>
      <trkpt lat="43.03992" lon="-1.21919">
        <ele>949.243334</ele>
        <time>2026-05-22T12:58:36.000Z</time>
      </trkpt>
      <trkpt lat="43.03989" lon="-1.21919">
        <ele>949.257567</ele>
        <time>2026-05-22T12:58:37.000Z</time>
      </trkpt>
      <trkpt lat="43.03987" lon="-1.21918">
        <ele>949.270758</ele>
        <time>2026-05-22T12:58:38.000Z</time>
      </trkpt>
      <trkpt lat="43.03984" lon="-1.21918">
        <ele>949.327901</ele>
        <time>2026-05-22T12:58:39.000Z</time>
      </trkpt>
      <trkpt lat="43.03981" lon="-1.21917">
        <ele>949.519165</ele>
        <time>2026-05-22T12:58:40.000Z</time>
      </trkpt>
      <trkpt lat="43.03979" lon="-1.21918">
        <ele>949.702735</ele>
        <time>2026-05-22T12:58:41.000Z</time>
      </trkpt>
      <trkpt lat="43.03976" lon="-1.21918">
        <ele>949.893998</ele>
        <time>2026-05-22T12:58:42.000Z</time>
      </trkpt>
      <trkpt lat="43.03974" lon="-1.21918">
        <ele>950.063951</ele>
        <time>2026-05-22T12:58:43.000Z</time>
      </trkpt>
      <trkpt lat="43.03972" lon="-1.21918">
        <ele>950.23996</ele>
        <time>2026-05-22T12:58:44.000Z</time>
      </trkpt>
      <trkpt lat="43.03969" lon="-1.21918">
        <ele>950.423295</ele>
        <time>2026-05-22T12:58:45.000Z</time>
      </trkpt>
      <trkpt lat="43.03967" lon="-1.21918">
        <ele>950.599954</ele>
        <time>2026-05-22T12:58:46.000Z</time>
      </trkpt>
      <trkpt lat="43.03964" lon="-1.21918">
        <ele>950.768636</ele>
        <time>2026-05-22T12:58:47.000Z</time>
      </trkpt>
      <trkpt lat="43.03962" lon="-1.21918">
        <ele>950.944644</ele>
        <time>2026-05-22T12:58:48.000Z</time>
      </trkpt>
      <trkpt lat="43.0396" lon="-1.21918">
        <ele>951.121871</ele>
        <time>2026-05-22T12:58:49.000Z</time>
      </trkpt>
      <trkpt lat="43.03957" lon="-1.21918">
        <ele>951.298124</ele>
        <time>2026-05-22T12:58:50.000Z</time>
      </trkpt>
      <trkpt lat="43.03955" lon="-1.21918">
        <ele>951.466806</ele>
        <time>2026-05-22T12:58:51.000Z</time>
      </trkpt>
      <trkpt lat="43.03953" lon="-1.21918">
        <ele>951.621578</ele>
        <time>2026-05-22T12:58:52.000Z</time>
      </trkpt>
      <trkpt lat="43.03951" lon="-1.21918">
        <ele>951.769742</ele>
        <time>2026-05-22T12:58:53.000Z</time>
      </trkpt>
      <trkpt lat="43.03949" lon="-1.21919">
        <ele>951.931364</ele>
        <time>2026-05-22T12:58:54.000Z</time>
      </trkpt>
      <trkpt lat="43.03946" lon="-1.21919">
        <ele>952.093429</ele>
        <time>2026-05-22T12:58:55.000Z</time>
      </trkpt>
      <trkpt lat="43.03945" lon="-1.21919">
        <ele>952.233629</ele>
        <time>2026-05-22T12:58:56.000Z</time>
      </trkpt>
      <trkpt lat="43.03943" lon="-1.2192">
        <ele>952.382661</ele>
        <time>2026-05-22T12:58:57.000Z</time>
      </trkpt>
      <trkpt lat="43.03941" lon="-1.2192">
        <ele>952.522861</ele>
        <time>2026-05-22T12:58:58.000Z</time>
      </trkpt>
      <trkpt lat="43.03939" lon="-1.2192">
        <ele>952.67689</ele>
        <time>2026-05-22T12:58:59.000Z</time>
      </trkpt>
      <trkpt lat="43.03937" lon="-1.21921">
        <ele>952.825923</ele>
        <time>2026-05-22T12:59:00.000Z</time>
      </trkpt>
      <trkpt lat="43.03935" lon="-1.21921">
        <ele>952.964655</ele>
        <time>2026-05-22T12:59:01.000Z</time>
      </trkpt>
      <trkpt lat="43.03933" lon="-1.21922">
        <ele>953.129094</ele>
        <time>2026-05-22T12:59:02.000Z</time>
      </trkpt>
      <trkpt lat="43.0393" lon="-1.21922">
        <ele>953.284514</ele>
        <time>2026-05-22T12:59:03.000Z</time>
      </trkpt>
      <trkpt lat="43.03928" lon="-1.21923">
        <ele>953.437257</ele>
        <time>2026-05-22T12:59:04.000Z</time>
      </trkpt>
      <trkpt lat="43.03927" lon="-1.21924">
        <ele>953.581493</ele>
        <time>2026-05-22T12:59:05.000Z</time>
      </trkpt>
      <trkpt lat="43.03925" lon="-1.21925">
        <ele>953.72443</ele>
        <time>2026-05-22T12:59:06.000Z</time>
      </trkpt>
      <trkpt lat="43.03923" lon="-1.21925">
        <ele>953.880679</ele>
        <time>2026-05-22T12:59:07.000Z</time>
      </trkpt>
      <trkpt lat="43.0392" lon="-1.21926">
        <ele>954.036928</ele>
        <time>2026-05-22T12:59:08.000Z</time>
      </trkpt>
      <trkpt lat="43.03918" lon="-1.21926">
        <ele>954.189671</ele>
        <time>2026-05-22T12:59:09.000Z</time>
      </trkpt>
      <trkpt lat="43.03916" lon="-1.21927">
        <ele>954.346927</ele>
        <time>2026-05-22T12:59:10.000Z</time>
      </trkpt>
      <trkpt lat="43.03914" lon="-1.21927">
        <ele>954.503177</ele>
        <time>2026-05-22T12:59:11.000Z</time>
      </trkpt>
      <trkpt lat="43.03912" lon="-1.21928">
        <ele>954.660433</ele>
        <time>2026-05-22T12:59:12.000Z</time>
      </trkpt>
      <trkpt lat="43.0391" lon="-1.21929">
        <ele>954.820225</ele>
        <time>2026-05-22T12:59:13.000Z</time>
      </trkpt>
      <trkpt lat="43.03908" lon="-1.2193">
        <ele>954.974556</ele>
        <time>2026-05-22T12:59:14.000Z</time>
      </trkpt>
      <trkpt lat="43.03906" lon="-1.2193">
        <ele>955.116384</ele>
        <time>2026-05-22T12:59:15.000Z</time>
      </trkpt>
      <trkpt lat="43.03904" lon="-1.2193">
        <ele>955.263381</ele>
        <time>2026-05-22T12:59:16.000Z</time>
      </trkpt>
      <trkpt lat="43.03902" lon="-1.21931">
        <ele>955.412414</ele>
        <time>2026-05-22T12:59:17.000Z</time>
      </trkpt>
      <trkpt lat="43.039" lon="-1.21932">
        <ele>955.555351</ele>
        <time>2026-05-22T12:59:18.000Z</time>
      </trkpt>
      <trkpt lat="43.03898" lon="-1.21932">
        <ele>955.705439</ele>
        <time>2026-05-22T12:59:19.000Z</time>
      </trkpt>
      <trkpt lat="43.03896" lon="-1.21933">
        <ele>955.854472</ele>
        <time>2026-05-22T12:59:20.000Z</time>
      </trkpt>
      <trkpt lat="43.03894" lon="-1.21933">
        <ele>955.995387</ele>
        <time>2026-05-22T12:59:21.000Z</time>
      </trkpt>
      <trkpt lat="43.03892" lon="-1.21933">
        <ele>956.142871</ele>
        <time>2026-05-22T12:59:22.000Z</time>
      </trkpt>
      <trkpt lat="43.0389" lon="-1.21934">
        <ele>956.284699</ele>
        <time>2026-05-22T12:59:23.000Z</time>
      </trkpt>
      <trkpt lat="43.03888" lon="-1.21934">
        <ele>956.440948</ele>
        <time>2026-05-22T12:59:24.000Z</time>
      </trkpt>
      <trkpt lat="43.03886" lon="-1.21935">
        <ele>956.582776</ele>
        <time>2026-05-22T12:59:25.000Z</time>
      </trkpt>
      <trkpt lat="43.03885" lon="-1.21935">
        <ele>956.722976</ele>
        <time>2026-05-22T12:59:26.000Z</time>
      </trkpt>
      <trkpt lat="43.03883" lon="-1.21935">
        <ele>956.869973</ele>
        <time>2026-05-22T12:59:27.000Z</time>
      </trkpt>
      <trkpt lat="43.03881" lon="-1.21936">
        <ele>956.997434</ele>
        <time>2026-05-22T12:59:28.000Z</time>
      </trkpt>
      <trkpt lat="43.03879" lon="-1.21936">
        <ele>957.123081</ele>
        <time>2026-05-22T12:59:29.000Z</time>
      </trkpt>
      <trkpt lat="43.03877" lon="-1.21936">
        <ele>957.247811</ele>
        <time>2026-05-22T12:59:30.000Z</time>
      </trkpt>
      <trkpt lat="43.03876" lon="-1.21936">
        <ele>957.365218</ele>
        <time>2026-05-22T12:59:31.000Z</time>
      </trkpt>
      <trkpt lat="43.03874" lon="-1.21936">
        <ele>957.489948</ele>
        <time>2026-05-22T12:59:32.000Z</time>
      </trkpt>
      <trkpt lat="43.03872" lon="-1.21936">
        <ele>957.614563</ele>
        <time>2026-05-22T12:59:33.000Z</time>
      </trkpt>
      <trkpt lat="43.03871" lon="-1.21936">
        <ele>957.731969</ele>
        <time>2026-05-22T12:59:34.000Z</time>
      </trkpt>
      <trkpt lat="43.03869" lon="-1.21936">
        <ele>957.856584</ele>
        <time>2026-05-22T12:59:35.000Z</time>
      </trkpt>
      <trkpt lat="43.03868" lon="-1.21936">
        <ele>957.974357</ele>
        <time>2026-05-22T12:59:36.000Z</time>
      </trkpt>
      <trkpt lat="43.03866" lon="-1.21937">
        <ele>958.100004</ele>
        <time>2026-05-22T12:59:37.000Z</time>
      </trkpt>
      <trkpt lat="43.03864" lon="-1.21937">
        <ele>958.225651</ele>
        <time>2026-05-22T12:59:38.000Z</time>
      </trkpt>
      <trkpt lat="43.03862" lon="-1.21937">
        <ele>958.350381</ele>
        <time>2026-05-22T12:59:39.000Z</time>
      </trkpt>
      <trkpt lat="43.03861" lon="-1.21937">
        <ele>958.467788</ele>
        <time>2026-05-22T12:59:40.000Z</time>
      </trkpt>
      <trkpt lat="43.03859" lon="-1.21937">
        <ele>958.577873</ele>
        <time>2026-05-22T12:59:41.000Z</time>
      </trkpt>
      <trkpt lat="43.03858" lon="-1.21937">
        <ele>958.688348</ele>
        <time>2026-05-22T12:59:42.000Z</time>
      </trkpt>
      <trkpt lat="43.03856" lon="-1.21937">
        <ele>958.798432</ele>
        <time>2026-05-22T12:59:43.000Z</time>
      </trkpt>
      <trkpt lat="43.03855" lon="-1.21937">
        <ele>958.917659</ele>
        <time>2026-05-22T12:59:44.000Z</time>
      </trkpt>
      <trkpt lat="43.03853" lon="-1.21938">
        <ele>959.036885</ele>
        <time>2026-05-22T12:59:45.000Z</time>
      </trkpt>
      <trkpt lat="43.03851" lon="-1.21938">
        <ele>959.169264</ele>
        <time>2026-05-22T12:59:46.000Z</time>
      </trkpt>
      <trkpt lat="43.0385" lon="-1.21938">
        <ele>959.294339</ele>
        <time>2026-05-22T12:59:47.000Z</time>
      </trkpt>
      <trkpt lat="43.03848" lon="-1.21938">
        <ele>959.411624</ele>
        <time>2026-05-22T12:59:48.000Z</time>
      </trkpt>
      <trkpt lat="43.03846" lon="-1.21938">
        <ele>959.530004</ele>
        <time>2026-05-22T12:59:49.000Z</time>
      </trkpt>
      <trkpt lat="43.03845" lon="-1.21937">
        <ele>959.640479</ele>
        <time>2026-05-22T12:59:50.000Z</time>
      </trkpt>
      <trkpt lat="43.03843" lon="-1.21938">
        <ele>959.765209</ele>
        <time>2026-05-22T12:59:51.000Z</time>
      </trkpt>
      <trkpt lat="43.03842" lon="-1.21938">
        <ele>959.889824</ele>
        <time>2026-05-22T12:59:52.000Z</time>
      </trkpt>
      <trkpt lat="43.0384" lon="-1.21938">
        <ele>960.014899</ele>
        <time>2026-05-22T12:59:53.000Z</time>
      </trkpt>
      <trkpt lat="43.03838" lon="-1.21938">
        <ele>960.14236</ele>
        <time>2026-05-22T12:59:54.000Z</time>
      </trkpt>
      <trkpt lat="43.03837" lon="-1.21938">
        <ele>960.260133</ele>
        <time>2026-05-22T12:59:55.000Z</time>
      </trkpt>
      <trkpt lat="43.03835" lon="-1.21938">
        <ele>960.380438</ele>
        <time>2026-05-22T12:59:56.000Z</time>
      </trkpt>
      <trkpt lat="43.03833" lon="-1.21937">
        <ele>960.499664</ele>
        <time>2026-05-22T12:59:57.000Z</time>
      </trkpt>
      <trkpt lat="43.03832" lon="-1.21937">
        <ele>960.617437</ele>
        <time>2026-05-22T12:59:58.000Z</time>
      </trkpt>
      <trkpt lat="43.0383" lon="-1.21937">
        <ele>960.742167</ele>
        <time>2026-05-22T12:59:59.000Z</time>
      </trkpt>
      <trkpt lat="43.03828" lon="-1.21937">
        <ele>960.859574</ele>
        <time>2026-05-22T13:00:00.000Z</time>
      </trkpt>
      <trkpt lat="43.03827" lon="-1.21937">
        <ele>960.962338</ele>
        <time>2026-05-22T13:00:01.000Z</time>
      </trkpt>
      <trkpt lat="43.03826" lon="-1.21937">
        <ele>961.072292</ele>
        <time>2026-05-22T13:00:02.000Z</time>
      </trkpt>
      <trkpt lat="43.03824" lon="-1.21937">
        <ele>961.196907</ele>
        <time>2026-05-22T13:00:03.000Z</time>
      </trkpt>
      <trkpt lat="43.03822" lon="-1.21937">
        <ele>961.328961</ele>
        <time>2026-05-22T13:00:04.000Z</time>
      </trkpt>
      <trkpt lat="43.03821" lon="-1.21936">
        <ele>961.439436</ele>
        <time>2026-05-22T13:00:05.000Z</time>
      </trkpt>
      <trkpt lat="43.03819" lon="-1.21936">
        <ele>961.54952</ele>
        <time>2026-05-22T13:00:06.000Z</time>
      </trkpt>
      <trkpt lat="43.03817" lon="-1.21936">
        <ele>961.667293</ele>
        <time>2026-05-22T13:00:07.000Z</time>
      </trkpt>
      <trkpt lat="43.03816" lon="-1.21937">
        <ele>961.785674</ele>
        <time>2026-05-22T13:00:08.000Z</time>
      </trkpt>
      <trkpt lat="43.03814" lon="-1.21937">
        <ele>961.910404</ele>
        <time>2026-05-22T13:00:09.000Z</time>
      </trkpt>
      <trkpt lat="43.03813" lon="-1.21937">
        <ele>962.020488</ele>
        <time>2026-05-22T13:00:10.000Z</time>
      </trkpt>
      <trkpt lat="43.03811" lon="-1.21937">
        <ele>962.130573</ele>
        <time>2026-05-22T13:00:11.000Z</time>
      </trkpt>
      <trkpt lat="43.0381" lon="-1.21937">
        <ele>962.233755</ele>
        <time>2026-05-22T13:00:12.000Z</time>
      </trkpt>
      <trkpt lat="43.03808" lon="-1.21937">
        <ele>962.34384</ele>
        <time>2026-05-22T13:00:13.000Z</time>
      </trkpt>
      <trkpt lat="43.03807" lon="-1.21937">
        <ele>962.461246</ele>
        <time>2026-05-22T13:00:14.000Z</time>
      </trkpt>
      <trkpt lat="43.03805" lon="-1.21937">
        <ele>962.596267</ele>
        <time>2026-05-22T13:00:15.000Z</time>
      </trkpt>
      <trkpt lat="43.03803" lon="-1.21936">
        <ele>962.74945</ele>
        <time>2026-05-22T13:00:16.000Z</time>
      </trkpt>
      <trkpt lat="43.03802" lon="-1.21936">
        <ele>962.894251</ele>
        <time>2026-05-22T13:00:17.000Z</time>
      </trkpt>
      <trkpt lat="43.038" lon="-1.21936">
        <ele>963.046811</ele>
        <time>2026-05-22T13:00:18.000Z</time>
      </trkpt>
      <trkpt lat="43.03798" lon="-1.21936">
        <ele>963.174873</ele>
        <time>2026-05-22T13:00:19.000Z</time>
      </trkpt>
      <trkpt lat="43.03797" lon="-1.21935">
        <ele>963.306894</ele>
        <time>2026-05-22T13:00:20.000Z</time>
      </trkpt>
      <trkpt lat="43.03795" lon="-1.21934">
        <ele>963.4508</ele>
        <time>2026-05-22T13:00:21.000Z</time>
      </trkpt>
      <trkpt lat="43.03794" lon="-1.21933">
        <ele>963.592706</ele>
        <time>2026-05-22T13:00:22.000Z</time>
      </trkpt>
      <trkpt lat="43.03792" lon="-1.21933">
        <ele>963.720022</ele>
        <time>2026-05-22T13:00:23.000Z</time>
      </trkpt>
      <trkpt lat="43.03791" lon="-1.21933">
        <ele>963.849123</ele>
        <time>2026-05-22T13:00:24.000Z</time>
      </trkpt>
      <trkpt lat="43.03789" lon="-1.21932">
        <ele>963.971354</ele>
        <time>2026-05-22T13:00:25.000Z</time>
      </trkpt>
      <trkpt lat="43.03788" lon="-1.21932">
        <ele>964.083917</ele>
        <time>2026-05-22T13:00:26.000Z</time>
      </trkpt>
      <trkpt lat="43.03786" lon="-1.21932">
        <ele>964.219081</ele>
        <time>2026-05-22T13:00:27.000Z</time>
      </trkpt>
      <trkpt lat="43.03785" lon="-1.21932">
        <ele>964.355508</ele>
        <time>2026-05-22T13:00:28.000Z</time>
      </trkpt>
      <trkpt lat="43.03783" lon="-1.21932">
        <ele>964.482824</ele>
        <time>2026-05-22T13:00:29.000Z</time>
      </trkpt>
      <trkpt lat="43.03782" lon="-1.21932">
        <ele>964.60969</ele>
        <time>2026-05-22T13:00:30.000Z</time>
      </trkpt>
      <trkpt lat="43.0378" lon="-1.21932">
        <ele>964.737753</ele>
        <time>2026-05-22T13:00:31.000Z</time>
      </trkpt>
      <trkpt lat="43.03779" lon="-1.21932">
        <ele>964.865069</ele>
        <time>2026-05-22T13:00:32.000Z</time>
      </trkpt>
      <trkpt lat="43.03777" lon="-1.21932">
        <ele>965.001496</ele>
        <time>2026-05-22T13:00:33.000Z</time>
      </trkpt>
      <trkpt lat="43.03775" lon="-1.21931">
        <ele>965.137223</ele>
        <time>2026-05-22T13:00:34.000Z</time>
      </trkpt>
      <trkpt lat="43.03774" lon="-1.21931">
        <ele>965.281364</ele>
        <time>2026-05-22T13:00:35.000Z</time>
      </trkpt>
      <trkpt lat="43.03772" lon="-1.21931">
        <ele>965.425505</ele>
        <time>2026-05-22T13:00:36.000Z</time>
      </trkpt>
      <trkpt lat="43.0377" lon="-1.21931">
        <ele>965.569647</ele>
        <time>2026-05-22T13:00:37.000Z</time>
      </trkpt>
      <trkpt lat="43.03769" lon="-1.2193">
        <ele>965.708291</ele>
        <time>2026-05-22T13:00:38.000Z</time>
      </trkpt>
      <trkpt lat="43.03767" lon="-1.2193">
        <ele>965.846936</ele>
        <time>2026-05-22T13:00:39.000Z</time>
      </trkpt>
      <trkpt lat="43.03766" lon="-1.21929">
        <ele>965.983363</ele>
        <time>2026-05-22T13:00:40.000Z</time>
      </trkpt>
      <trkpt lat="43.03764" lon="-1.21929">
        <ele>966.119089</ele>
        <time>2026-05-22T13:00:41.000Z</time>
      </trkpt>
      <trkpt lat="43.03762" lon="-1.21929">
        <ele>966.255516</ele>
        <time>2026-05-22T13:00:42.000Z</time>
      </trkpt>
      <trkpt lat="43.03761" lon="-1.21929">
        <ele>966.399657</ele>
        <time>2026-05-22T13:00:43.000Z</time>
      </trkpt>
      <trkpt lat="43.03759" lon="-1.21929">
        <ele>966.535384</ele>
        <time>2026-05-22T13:00:44.000Z</time>
      </trkpt>
      <trkpt lat="43.03758" lon="-1.21928">
        <ele>966.653813</ele>
        <time>2026-05-22T13:00:45.000Z</time>
      </trkpt>
      <trkpt lat="43.03756" lon="-1.21928">
        <ele>966.78954</ele>
        <time>2026-05-22T13:00:46.000Z</time>
      </trkpt>
      <trkpt lat="43.03754" lon="-1.21928">
        <ele>966.933284</ele>
        <time>2026-05-22T13:00:47.000Z</time>
      </trkpt>
      <trkpt lat="43.03753" lon="-1.21928">
        <ele>967.086467</ele>
        <time>2026-05-22T13:00:48.000Z</time>
      </trkpt>
      <trkpt lat="43.03751" lon="-1.21928">
        <ele>967.21453</ele>
        <time>2026-05-22T13:00:49.000Z</time>
      </trkpt>
      <trkpt lat="43.0375" lon="-1.21927">
        <ele>967.34363</ele>
        <time>2026-05-22T13:00:50.000Z</time>
      </trkpt>
      <trkpt lat="43.03748" lon="-1.21927">
        <ele>967.46334</ele>
        <time>2026-05-22T13:00:51.000Z</time>
      </trkpt>
      <trkpt lat="43.03747" lon="-1.21927">
        <ele>967.590656</ele>
        <time>2026-05-22T13:00:52.000Z</time>
      </trkpt>
      <trkpt lat="43.03745" lon="-1.21927">
        <ele>967.72582</ele>
        <time>2026-05-22T13:00:53.000Z</time>
      </trkpt>
      <trkpt lat="43.03744" lon="-1.21926">
        <ele>967.853136</ele>
        <time>2026-05-22T13:00:54.000Z</time>
      </trkpt>
      <trkpt lat="43.03742" lon="-1.21926">
        <ele>967.997937</ele>
        <time>2026-05-22T13:00:55.000Z</time>
      </trkpt>
      <trkpt lat="43.0374" lon="-1.21926">
        <ele>968.142738</ele>
        <time>2026-05-22T13:00:56.000Z</time>
      </trkpt>
      <trkpt lat="43.03738" lon="-1.21926">
        <ele>968.294923</ele>
        <time>2026-05-22T13:00:57.000Z</time>
      </trkpt>
      <trkpt lat="43.03737" lon="-1.21926">
        <ele>968.447482</ele>
        <time>2026-05-22T13:00:58.000Z</time>
      </trkpt>
      <trkpt lat="43.03735" lon="-1.21925">
        <ele>968.599667</ele>
        <time>2026-05-22T13:00:59.000Z</time>
      </trkpt>
      <trkpt lat="43.03733" lon="-1.21925">
        <ele>968.744468</ele>
        <time>2026-05-22T13:01:00.000Z</time>
      </trkpt>
      <trkpt lat="43.03731" lon="-1.21925">
        <ele>968.897027</ele>
        <time>2026-05-22T13:01:01.000Z</time>
      </trkpt>
      <trkpt lat="43.0373" lon="-1.21925">
        <ele>969.033454</ele>
        <time>2026-05-22T13:01:02.000Z</time>
      </trkpt>
      <trkpt lat="43.03728" lon="-1.21924">
        <ele>969.177596</ele>
        <time>2026-05-22T13:01:03.000Z</time>
      </trkpt>
      <trkpt lat="43.03726" lon="-1.21924">
        <ele>969.32134</ele>
        <time>2026-05-22T13:01:04.000Z</time>
      </trkpt>
      <trkpt lat="43.03725" lon="-1.21924">
        <ele>969.465481</ele>
        <time>2026-05-22T13:01:05.000Z</time>
      </trkpt>
      <trkpt lat="43.03723" lon="-1.21924">
        <ele>969.610282</ele>
        <time>2026-05-22T13:01:06.000Z</time>
      </trkpt>
      <trkpt lat="43.03721" lon="-1.21924">
        <ele>969.746709</ele>
        <time>2026-05-22T13:01:07.000Z</time>
      </trkpt>
      <trkpt lat="43.0372" lon="-1.21923">
        <ele>969.874772</ele>
        <time>2026-05-22T13:01:08.000Z</time>
      </trkpt>
      <trkpt lat="43.03718" lon="-1.21923">
        <ele>970.005194</ele>
        <time>2026-05-22T13:01:09.000Z</time>
      </trkpt>
      <trkpt lat="43.03717" lon="-1.21922">
        <ele>970.141621</ele>
        <time>2026-05-22T13:01:10.000Z</time>
      </trkpt>
      <trkpt lat="43.03715" lon="-1.21923">
        <ele>970.276926</ele>
        <time>2026-05-22T13:01:11.000Z</time>
      </trkpt>
      <trkpt lat="43.03714" lon="-1.21922">
        <ele>970.395355</ele>
        <time>2026-05-22T13:01:12.000Z</time>
      </trkpt>
      <trkpt lat="43.03712" lon="-1.21922">
        <ele>970.522221</ele>
        <time>2026-05-22T13:01:13.000Z</time>
      </trkpt>
      <trkpt lat="43.03711" lon="-1.21922">
        <ele>970.649537</ele>
        <time>2026-05-22T13:01:14.000Z</time>
      </trkpt>
      <trkpt lat="43.03709" lon="-1.21922">
        <ele>970.776854</ele>
        <time>2026-05-22T13:01:15.000Z</time>
      </trkpt>
      <trkpt lat="43.03708" lon="-1.21922">
        <ele>970.91258</ele>
        <time>2026-05-22T13:01:16.000Z</time>
      </trkpt>
      <trkpt lat="43.03706" lon="-1.21921">
        <ele>971.041681</ele>
        <time>2026-05-22T13:01:17.000Z</time>
      </trkpt>
      <trkpt lat="43.03705" lon="-1.21921">
        <ele>971.168547</ele>
        <time>2026-05-22T13:01:18.000Z</time>
      </trkpt>
      <trkpt lat="43.03703" lon="-1.21921">
        <ele>971.312291</ele>
        <time>2026-05-22T13:01:19.000Z</time>
      </trkpt>
      <trkpt lat="43.03701" lon="-1.21921">
        <ele>971.455902</ele>
        <time>2026-05-22T13:01:20.000Z</time>
      </trkpt>
      <trkpt lat="43.037" lon="-1.21921">
        <ele>971.593304</ele>
        <time>2026-05-22T13:01:21.000Z</time>
      </trkpt>
      <trkpt lat="43.03698" lon="-1.2192">
        <ele>971.723726</ele>
        <time>2026-05-22T13:01:22.000Z</time>
      </trkpt>
      <trkpt lat="43.03697" lon="-1.2192">
        <ele>971.842638</ele>
        <time>2026-05-22T13:01:23.000Z</time>
      </trkpt>
      <trkpt lat="43.03695" lon="-1.2192">
        <ele>971.969504</ele>
        <time>2026-05-22T13:01:24.000Z</time>
      </trkpt>
      <trkpt lat="43.03694" lon="-1.2192">
        <ele>972.104808</ele>
        <time>2026-05-22T13:01:25.000Z</time>
      </trkpt>
      <trkpt lat="43.03692" lon="-1.2192">
        <ele>972.24842</ele>
        <time>2026-05-22T13:01:26.000Z</time>
      </trkpt>
      <trkpt lat="43.0369" lon="-1.2192">
        <ele>972.383583</ele>
        <time>2026-05-22T13:01:27.000Z</time>
      </trkpt>
      <trkpt lat="43.03689" lon="-1.2192">
        <ele>972.518888</ele>
        <time>2026-05-22T13:01:28.000Z</time>
      </trkpt>
      <trkpt lat="43.03687" lon="-1.2192">
        <ele>972.663689</ele>
        <time>2026-05-22T13:01:29.000Z</time>
      </trkpt>
      <trkpt lat="43.03685" lon="-1.21919">
        <ele>972.799416</ele>
        <time>2026-05-22T13:01:30.000Z</time>
      </trkpt>
      <trkpt lat="43.03684" lon="-1.21919">
        <ele>972.926732</ele>
        <time>2026-05-22T13:01:31.000Z</time>
      </trkpt>
      <trkpt lat="43.03682" lon="-1.21919">
        <ele>973.057154</ele>
        <time>2026-05-22T13:01:32.000Z</time>
      </trkpt>
      <trkpt lat="43.03681" lon="-1.21918">
        <ele>973.187577</ele>
        <time>2026-05-22T13:01:33.000Z</time>
      </trkpt>
      <trkpt lat="43.03679" lon="-1.21918">
        <ele>973.316677</ele>
        <time>2026-05-22T13:01:34.000Z</time>
      </trkpt>
      <trkpt lat="43.03678" lon="-1.21917">
        <ele>973.462397</ele>
        <time>2026-05-22T13:01:35.000Z</time>
      </trkpt>
      <trkpt lat="43.03676" lon="-1.21917">
        <ele>973.608117</ele>
        <time>2026-05-22T13:01:36.000Z</time>
      </trkpt>
      <trkpt lat="43.03674" lon="-1.21917">
        <ele>973.752258</ele>
        <time>2026-05-22T13:01:37.000Z</time>
      </trkpt>
      <trkpt lat="43.03673" lon="-1.21917">
        <ele>973.879574</ele>
        <time>2026-05-22T13:01:38.000Z</time>
      </trkpt>
      <trkpt lat="43.03671" lon="-1.21917">
        <ele>974.00629</ele>
        <time>2026-05-22T13:01:39.000Z</time>
      </trkpt>
      <trkpt lat="43.0367" lon="-1.21917">
        <ele>974.116284</ele>
        <time>2026-05-22T13:01:40.000Z</time>
      </trkpt>
      <trkpt lat="43.03668" lon="-1.21917">
        <ele>974.243</ele>
        <time>2026-05-22T13:01:41.000Z</time>
      </trkpt>
      <trkpt lat="43.03667" lon="-1.21916">
        <ele>974.3721</ele>
        <time>2026-05-22T13:01:42.000Z</time>
      </trkpt>
      <trkpt lat="43.03665" lon="-1.21916">
        <ele>974.504121</ele>
        <time>2026-05-22T13:01:43.000Z</time>
      </trkpt>
      <trkpt lat="43.03664" lon="-1.21915">
        <ele>974.628056</ele>
        <time>2026-05-22T13:01:44.000Z</time>
      </trkpt>
      <trkpt lat="43.03663" lon="-1.21915">
        <ele>974.74062</ele>
        <time>2026-05-22T13:01:45.000Z</time>
      </trkpt>
      <trkpt lat="43.03661" lon="-1.21914">
        <ele>974.854697</ele>
        <time>2026-05-22T13:01:46.000Z</time>
      </trkpt>
      <trkpt lat="43.0366" lon="-1.21914">
        <ele>974.959035</ele>
        <time>2026-05-22T13:01:47.000Z</time>
      </trkpt>
      <trkpt lat="43.03659" lon="-1.21913">
        <ele>975.069548</ele>
        <time>2026-05-22T13:01:48.000Z</time>
      </trkpt>
      <trkpt lat="43.03658" lon="-1.21913">
        <ele>975.189258</ele>
        <time>2026-05-22T13:01:49.000Z</time>
      </trkpt>
      <trkpt lat="43.03656" lon="-1.21913">
        <ele>975.316574</ele>
        <time>2026-05-22T13:01:50.000Z</time>
      </trkpt>
      <trkpt lat="43.03655" lon="-1.21913">
        <ele>975.44344</ele>
        <time>2026-05-22T13:01:51.000Z</time>
      </trkpt>
      <trkpt lat="43.03653" lon="-1.21913">
        <ele>975.561869</ele>
        <time>2026-05-22T13:01:52.000Z</time>
      </trkpt>
      <trkpt lat="43.03652" lon="-1.21913">
        <ele>975.680299</ele>
        <time>2026-05-22T13:01:53.000Z</time>
      </trkpt>
      <trkpt lat="43.0365" lon="-1.21913">
        <ele>975.798728</ele>
        <time>2026-05-22T13:01:54.000Z</time>
      </trkpt>
      <trkpt lat="43.03649" lon="-1.21913">
        <ele>975.925594</ele>
        <time>2026-05-22T13:01:55.000Z</time>
      </trkpt>
      <trkpt lat="43.03647" lon="-1.21913">
        <ele>976.061321</ele>
        <time>2026-05-22T13:01:56.000Z</time>
      </trkpt>
      <trkpt lat="43.03646" lon="-1.21912">
        <ele>976.18214</ele>
        <time>2026-05-22T13:01:57.000Z</time>
      </trkpt>
      <trkpt lat="43.03644" lon="-1.21912">
        <ele>976.30185</ele>
        <time>2026-05-22T13:01:58.000Z</time>
      </trkpt>
      <trkpt lat="43.03643" lon="-1.21912">
        <ele>976.420761</ele>
        <time>2026-05-22T13:01:59.000Z</time>
      </trkpt>
      <trkpt lat="43.03642" lon="-1.21911">
        <ele>976.533325</ele>
        <time>2026-05-22T13:02:00.000Z</time>
      </trkpt>
      <trkpt lat="43.0364" lon="-1.21911">
        <ele>976.661388</ele>
        <time>2026-05-22T13:02:01.000Z</time>
      </trkpt>
      <trkpt lat="43.03639" lon="-1.21911">
        <ele>976.771382</ele>
        <time>2026-05-22T13:02:02.000Z</time>
      </trkpt>
      <trkpt lat="43.03638" lon="-1.21911">
        <ele>976.872754</ele>
        <time>2026-05-22T13:02:03.000Z</time>
      </trkpt>
      <trkpt lat="43.03636" lon="-1.21911">
        <ele>976.991665</ele>
        <time>2026-05-22T13:02:04.000Z</time>
      </trkpt>
      <trkpt lat="43.03635" lon="-1.2191">
        <ele>977.113897</ele>
        <time>2026-05-22T13:02:05.000Z</time>
      </trkpt>
      <trkpt lat="43.03634" lon="-1.2191">
        <ele>977.227974</ele>
        <time>2026-05-22T13:02:06.000Z</time>
      </trkpt>
      <trkpt lat="43.03632" lon="-1.2191">
        <ele>977.35469</ele>
        <time>2026-05-22T13:02:07.000Z</time>
      </trkpt>
      <trkpt lat="43.03631" lon="-1.2191">
        <ele>977.472958</ele>
        <time>2026-05-22T13:02:08.000Z</time>
      </trkpt>
      <trkpt lat="43.03629" lon="-1.21909">
        <ele>977.58433</ele>
        <time>2026-05-22T13:02:09.000Z</time>
      </trkpt>
      <trkpt lat="43.03628" lon="-1.21909">
        <ele>977.701139</ele>
        <time>2026-05-22T13:02:10.000Z</time>
      </trkpt>
      <trkpt lat="43.03627" lon="-1.21909">
        <ele>977.800501</ele>
        <time>2026-05-22T13:02:11.000Z</time>
      </trkpt>
      <trkpt lat="43.03625" lon="-1.21908">
        <ele>977.912489</ele>
        <time>2026-05-22T13:02:12.000Z</time>
      </trkpt>
      <trkpt lat="43.03624" lon="-1.21908">
        <ele>978.017029</ele>
        <time>2026-05-22T13:02:13.000Z</time>
      </trkpt>
      <trkpt lat="43.03622" lon="-1.21908">
        <ele>978.121994</ele>
        <time>2026-05-22T13:02:14.000Z</time>
      </trkpt>
      <trkpt lat="43.03621" lon="-1.21908">
        <ele>978.218935</ele>
        <time>2026-05-22T13:02:15.000Z</time>
      </trkpt>
      <trkpt lat="43.0362" lon="-1.21908">
        <ele>978.309901</ele>
        <time>2026-05-22T13:02:16.000Z</time>
      </trkpt>
      <trkpt lat="43.03619" lon="-1.21907">
        <ele>978.402002</ele>
        <time>2026-05-22T13:02:17.000Z</time>
      </trkpt>
      <trkpt lat="43.03618" lon="-1.21907">
        <ele>978.492968</ele>
        <time>2026-05-22T13:02:18.000Z</time>
      </trkpt>
      <trkpt lat="43.03616" lon="-1.21907">
        <ele>978.593666</ele>
        <time>2026-05-22T13:02:19.000Z</time>
      </trkpt>
      <trkpt lat="43.03615" lon="-1.21906">
        <ele>978.678541</ele>
        <time>2026-05-22T13:02:20.000Z</time>
      </trkpt>
      <trkpt lat="43.03614" lon="-1.21906">
        <ele>978.777904</ele>
        <time>2026-05-22T13:02:21.000Z</time>
      </trkpt>
      <trkpt lat="43.03613" lon="-1.21905">
        <ele>978.878602</ele>
        <time>2026-05-22T13:02:22.000Z</time>
      </trkpt>
      <trkpt lat="43.03611" lon="-1.21905">
        <ele>978.977964</ele>
        <time>2026-05-22T13:02:23.000Z</time>
      </trkpt>
      <trkpt lat="43.0361" lon="-1.21905">
        <ele>979.074905</ele>
        <time>2026-05-22T13:02:24.000Z</time>
      </trkpt>
      <trkpt lat="43.03609" lon="-1.21905">
        <ele>979.180576</ele>
        <time>2026-05-22T13:02:25.000Z</time>
      </trkpt>
      <trkpt lat="43.03607" lon="-1.21906">
        <ele>979.277854</ele>
        <time>2026-05-22T13:02:26.000Z</time>
      </trkpt>
      <trkpt lat="43.03606" lon="-1.21907">
        <ele>979.37075</ele>
        <time>2026-05-22T13:02:27.000Z</time>
      </trkpt>
      <trkpt lat="43.03605" lon="-1.21908">
        <ele>979.475527</ele>
        <time>2026-05-22T13:02:28.000Z</time>
      </trkpt>
      <trkpt lat="43.03604" lon="-1.21909">
        <ele>979.571211</ele>
        <time>2026-05-22T13:02:29.000Z</time>
      </trkpt>
      <trkpt lat="43.03603" lon="-1.2191">
        <ele>979.657593</ele>
        <time>2026-05-22T13:02:30.000Z</time>
      </trkpt>
      <trkpt lat="43.03602" lon="-1.2191">
        <ele>979.732362</ele>
        <time>2026-05-22T13:02:31.000Z</time>
      </trkpt>
      <trkpt lat="43.03601" lon="-1.2191">
        <ele>979.802928</ele>
        <time>2026-05-22T13:02:32.000Z</time>
      </trkpt>
      <trkpt lat="43.03601" lon="-1.21912">
        <ele>979.880678</ele>
        <time>2026-05-22T13:02:33.000Z</time>
      </trkpt>
      <trkpt lat="43.03601" lon="-1.21913">
        <ele>979.986627</ele>
        <time>2026-05-22T13:02:34.000Z</time>
      </trkpt>
      <trkpt lat="43.03602" lon="-1.21916">
        <ele>980.117407</ele>
        <time>2026-05-22T13:02:35.000Z</time>
      </trkpt>
      <trkpt lat="43.03603" lon="-1.21918">
        <ele>980.240811</ele>
        <time>2026-05-22T13:02:36.000Z</time>
      </trkpt>
      <trkpt lat="43.03604" lon="-1.21919">
        <ele>980.368693</ele>
        <time>2026-05-22T13:02:37.000Z</time>
      </trkpt>
      <trkpt lat="43.03605" lon="-1.21921">
        <ele>980.484506</ele>
        <time>2026-05-22T13:02:38.000Z</time>
      </trkpt>
      <trkpt lat="43.03606" lon="-1.21922">
        <ele>980.601448</ele>
        <time>2026-05-22T13:02:39.000Z</time>
      </trkpt>
      <trkpt lat="43.03607" lon="-1.21923">
        <ele>980.700638</ele>
        <time>2026-05-22T13:02:40.000Z</time>
      </trkpt>
      <trkpt lat="43.03608" lon="-1.21925">
        <ele>980.803504</ele>
        <time>2026-05-22T13:02:41.000Z</time>
      </trkpt>
      <trkpt lat="43.0361" lon="-1.21926">
        <ele>980.911216</ele>
        <time>2026-05-22T13:02:42.000Z</time>
      </trkpt>
      <trkpt lat="43.03611" lon="-1.21927">
        <ele>981.015993</ele>
        <time>2026-05-22T13:02:43.000Z</time>
      </trkpt>
      <trkpt lat="43.03612" lon="-1.21928">
        <ele>981.133763</ele>
        <time>2026-05-22T13:02:44.000Z</time>
      </trkpt>
      <trkpt lat="43.03614" lon="-1.21929">
        <ele>981.258191</ele>
        <time>2026-05-22T13:02:45.000Z</time>
      </trkpt>
      <trkpt lat="43.03615" lon="-1.2193">
        <ele>981.381385</ele>
        <time>2026-05-22T13:02:46.000Z</time>
      </trkpt>
      <trkpt lat="43.03617" lon="-1.21931">
        <ele>981.508295</ele>
        <time>2026-05-22T13:02:47.000Z</time>
      </trkpt>
      <trkpt lat="43.03618" lon="-1.21932">
        <ele>981.632723</ele>
        <time>2026-05-22T13:02:48.000Z</time>
      </trkpt>
      <trkpt lat="43.0362" lon="-1.21933">
        <ele>981.761725</ele>
        <time>2026-05-22T13:02:49.000Z</time>
      </trkpt>
      <trkpt lat="43.03621" lon="-1.21934">
        <ele>981.888635</ele>
        <time>2026-05-22T13:02:50.000Z</time>
      </trkpt>
      <trkpt lat="43.03622" lon="-1.21935">
        <ele>982.015449</ele>
        <time>2026-05-22T13:02:51.000Z</time>
      </trkpt>
      <trkpt lat="43.03624" lon="-1.21937">
        <ele>982.150853</ele>
        <time>2026-05-22T13:02:52.000Z</time>
      </trkpt>
      <trkpt lat="43.03626" lon="-1.21938">
        <ele>982.291085</ele>
        <time>2026-05-22T13:02:53.000Z</time>
      </trkpt>
      <trkpt lat="43.03627" lon="-1.21939">
        <ele>982.433732</ele>
        <time>2026-05-22T13:02:54.000Z</time>
      </trkpt>
      <trkpt lat="43.03629" lon="-1.2194">
        <ele>982.578959</ele>
        <time>2026-05-22T13:02:55.000Z</time>
      </trkpt>
      <trkpt lat="43.03631" lon="-1.21942">
        <ele>982.717725</ele>
        <time>2026-05-22T13:02:56.000Z</time>
      </trkpt>
      <trkpt lat="43.03632" lon="-1.21943">
        <ele>982.853755</ele>
        <time>2026-05-22T13:02:57.000Z</time>
      </trkpt>
      <trkpt lat="43.03634" lon="-1.21945">
        <ele>983.010777</ele>
        <time>2026-05-22T13:02:58.000Z</time>
      </trkpt>
      <trkpt lat="43.03636" lon="-1.21946">
        <ele>983.162557</ele>
        <time>2026-05-22T13:02:59.000Z</time>
      </trkpt>
      <trkpt lat="43.03637" lon="-1.21947">
        <ele>983.296085</ele>
        <time>2026-05-22T13:03:00.000Z</time>
      </trkpt>
      <trkpt lat="43.03639" lon="-1.21949">
        <ele>983.445399</ele>
        <time>2026-05-22T13:03:01.000Z</time>
      </trkpt>
      <trkpt lat="43.03641" lon="-1.2195">
        <ele>983.594712</ele>
        <time>2026-05-22T13:03:02.000Z</time>
      </trkpt>
      <trkpt lat="43.03642" lon="-1.21951">
        <ele>983.742675</ele>
        <time>2026-05-22T13:03:03.000Z</time>
      </trkpt>
      <trkpt lat="43.03644" lon="-1.21953">
        <ele>983.897144</ele>
        <time>2026-05-22T13:03:04.000Z</time>
      </trkpt>
      <trkpt lat="43.03646" lon="-1.21954">
        <ele>984.042371</ele>
        <time>2026-05-22T13:03:05.000Z</time>
      </trkpt>
      <trkpt lat="43.03647" lon="-1.21956">
        <ele>984.178434</ele>
        <time>2026-05-22T13:03:06.000Z</time>
      </trkpt>
      <trkpt lat="43.03649" lon="-1.21957">
        <ele>984.316982</ele>
        <time>2026-05-22T13:03:07.000Z</time>
      </trkpt>
      <trkpt lat="43.03651" lon="-1.21959">
        <ele>984.467828</ele>
        <time>2026-05-22T13:03:08.000Z</time>
      </trkpt>
      <trkpt lat="43.03652" lon="-1.2196">
        <ele>984.606377</ele>
        <time>2026-05-22T13:03:09.000Z</time>
      </trkpt>
      <trkpt lat="43.03654" lon="-1.21962">
        <ele>984.751013</ele>
        <time>2026-05-22T13:03:10.000Z</time>
      </trkpt>
      <trkpt lat="43.03655" lon="-1.21963">
        <ele>984.91108</ele>
        <time>2026-05-22T13:03:11.000Z</time>
      </trkpt>
      <trkpt lat="43.03657" lon="-1.21964">
        <ele>985.051312</ele>
        <time>2026-05-22T13:03:12.000Z</time>
      </trkpt>
      <trkpt lat="43.03658" lon="-1.21965">
        <ele>985.155491</ele>
        <time>2026-05-22T13:03:13.000Z</time>
      </trkpt>
      <trkpt lat="43.0366" lon="-1.21966">
        <ele>985.281663</ele>
        <time>2026-05-22T13:03:14.000Z</time>
      </trkpt>
      <trkpt lat="43.03661" lon="-1.21968">
        <ele>985.423289</ele>
        <time>2026-05-22T13:03:15.000Z</time>
      </trkpt>
      <trkpt lat="43.03663" lon="-1.21969">
        <ele>985.559352</ele>
        <time>2026-05-22T13:03:16.000Z</time>
      </trkpt>
      <trkpt lat="43.03665" lon="-1.2197">
        <ele>985.704579</ele>
        <time>2026-05-22T13:03:17.000Z</time>
      </trkpt>
      <trkpt lat="43.03666" lon="-1.21971">
        <ele>985.840642</ele>
        <time>2026-05-22T13:03:18.000Z</time>
      </trkpt>
      <trkpt lat="43.03668" lon="-1.21973">
        <ele>985.976046</ele>
        <time>2026-05-22T13:03:19.000Z</time>
      </trkpt>
      <trkpt lat="43.03669" lon="-1.21974">
        <ele>986.117672</ele>
        <time>2026-05-22T13:03:20.000Z</time>
      </trkpt>
      <trkpt lat="43.03671" lon="-1.21976">
        <ele>986.265635</ele>
        <time>2026-05-22T13:03:21.000Z</time>
      </trkpt>
      <trkpt lat="43.03673" lon="-1.21977">
        <ele>986.401039</ele>
        <time>2026-05-22T13:03:22.000Z</time>
      </trkpt>
      <trkpt lat="43.03674" lon="-1.21978">
        <ele>986.539804</ele>
        <time>2026-05-22T13:03:23.000Z</time>
      </trkpt>
      <trkpt lat="43.03676" lon="-1.21979">
        <ele>986.669378</ele>
        <time>2026-05-22T13:03:24.000Z</time>
      </trkpt>
      <trkpt lat="43.03677" lon="-1.21981">
        <ele>986.801786</ele>
        <time>2026-05-22T13:03:25.000Z</time>
      </trkpt>
      <trkpt lat="43.03679" lon="-1.21982">
        <ele>986.93719</ele>
        <time>2026-05-22T13:03:26.000Z</time>
      </trkpt>
      <trkpt lat="43.0368" lon="-1.21983">
        <ele>987.069598</ele>
        <time>2026-05-22T13:03:27.000Z</time>
      </trkpt>
      <trkpt lat="43.03682" lon="-1.21985">
        <ele>987.195771</ele>
        <time>2026-05-22T13:03:28.000Z</time>
      </trkpt>
      <trkpt lat="43.03683" lon="-1.21986">
        <ele>987.318964</ele>
        <time>2026-05-22T13:03:29.000Z</time>
      </trkpt>
      <trkpt lat="43.03685" lon="-1.21987">
        <ele>987.445874</ele>
        <time>2026-05-22T13:03:30.000Z</time>
      </trkpt>
      <trkpt lat="43.03686" lon="-1.21988">
        <ele>987.569068</ele>
        <time>2026-05-22T13:03:31.000Z</time>
      </trkpt>
      <trkpt lat="43.03687" lon="-1.2199">
        <ele>987.701669</ele>
        <time>2026-05-22T13:03:32.000Z</time>
      </trkpt>
      <trkpt lat="43.03689" lon="-1.21991">
        <ele>987.830981</ele>
        <time>2026-05-22T13:03:33.000Z</time>
      </trkpt>
      <trkpt lat="43.0369" lon="-1.21993">
        <ele>987.954351</ele>
        <time>2026-05-22T13:03:34.000Z</time>
      </trkpt>
      <trkpt lat="43.03692" lon="-1.21994">
        <ele>988.086759</ele>
        <time>2026-05-22T13:03:35.000Z</time>
      </trkpt>
      <trkpt lat="43.03693" lon="-1.21995">
        <ele>988.212931</ele>
        <time>2026-05-22T13:03:36.000Z</time>
      </trkpt>
      <trkpt lat="43.03695" lon="-1.21997">
        <ele>988.357567</ele>
        <time>2026-05-22T13:03:37.000Z</time>
      </trkpt>
      <trkpt lat="43.03696" lon="-1.21998">
        <ele>988.502202</ele>
        <time>2026-05-22T13:03:38.000Z</time>
      </trkpt>
      <trkpt lat="43.03698" lon="-1.22">
        <ele>988.656601</ele>
        <time>2026-05-22T13:03:39.000Z</time>
      </trkpt>
      <trkpt lat="43.037" lon="-1.22001">
        <ele>988.792664</ele>
        <time>2026-05-22T13:03:40.000Z</time>
      </trkpt>
      <trkpt lat="43.03701" lon="-1.22002">
        <ele>988.922238</ele>
        <time>2026-05-22T13:03:41.000Z</time>
      </trkpt>
      <trkpt lat="43.03703" lon="-1.22003">
        <ele>989.054646</ele>
        <time>2026-05-22T13:03:42.000Z</time>
      </trkpt>
      <trkpt lat="43.03704" lon="-1.22004">
        <ele>989.183649</ele>
        <time>2026-05-22T13:03:43.000Z</time>
      </trkpt>
      <trkpt lat="43.03706" lon="-1.22005">
        <ele>989.310558</ele>
        <time>2026-05-22T13:03:44.000Z</time>
      </trkpt>
      <trkpt lat="43.03707" lon="-1.22007">
        <ele>989.449323</ele>
        <time>2026-05-22T13:03:45.000Z</time>
      </trkpt>
      <trkpt lat="43.03709" lon="-1.22008">
        <ele>989.580495</ele>
        <time>2026-05-22T13:03:46.000Z</time>
      </trkpt>
      <trkpt lat="43.0371" lon="-1.22008">
        <ele>989.705759</ele>
        <time>2026-05-22T13:03:47.000Z</time>
      </trkpt>
      <trkpt lat="43.03712" lon="-1.22009">
        <ele>989.831022</ele>
        <time>2026-05-22T13:03:48.000Z</time>
      </trkpt>
      <trkpt lat="43.03713" lon="-1.2201">
        <ele>989.937318</ele>
        <time>2026-05-22T13:03:49.000Z</time>
      </trkpt>
      <trkpt lat="43.03715" lon="-1.22011">
        <ele>990.052666</ele>
        <time>2026-05-22T13:03:50.000Z</time>
      </trkpt>
      <trkpt lat="43.03716" lon="-1.22011">
        <ele>990.156844</ele>
        <time>2026-05-22T13:03:51.000Z</time>
      </trkpt>
      <trkpt lat="43.03717" lon="-1.22012">
        <ele>990.274614</ele>
        <time>2026-05-22T13:03:52.000Z</time>
      </trkpt>
      <trkpt lat="43.03719" lon="-1.22013">
        <ele>990.388596</ele>
        <time>2026-05-22T13:03:53.000Z</time>
      </trkpt>
      <trkpt lat="43.0372" lon="-1.22015">
        <ele>990.502579</ele>
        <time>2026-05-22T13:03:54.000Z</time>
      </trkpt>
      <trkpt lat="43.03722" lon="-1.22016">
        <ele>990.633751</ele>
        <time>2026-05-22T13:03:55.000Z</time>
      </trkpt>
      <trkpt lat="43.03723" lon="-1.22016">
        <ele>990.757463</ele>
        <time>2026-05-22T13:03:56.000Z</time>
      </trkpt>
      <trkpt lat="43.03725" lon="-1.22017">
        <ele>990.868614</ele>
        <time>2026-05-22T13:03:57.000Z</time>
      </trkpt>
      <trkpt lat="43.03726" lon="-1.22018">
        <ele>990.981752</ele>
        <time>2026-05-22T13:03:58.000Z</time>
      </trkpt>
      <trkpt lat="43.03727" lon="-1.22019">
        <ele>991.087283</ele>
        <time>2026-05-22T13:03:59.000Z</time>
      </trkpt>
      <trkpt lat="43.03729" lon="-1.2202">
        <ele>991.197595</ele>
        <time>2026-05-22T13:04:00.000Z</time>
      </trkpt>
      <trkpt lat="43.0373" lon="-1.22021">
        <ele>991.30376</ele>
        <time>2026-05-22T13:04:01.000Z</time>
      </trkpt>
      <trkpt lat="43.03732" lon="-1.22021">
        <ele>991.418832</ele>
        <time>2026-05-22T13:04:02.000Z</time>
      </trkpt>
      <trkpt lat="43.03733" lon="-1.22023">
        <ele>991.53146</ele>
        <time>2026-05-22T13:04:03.000Z</time>
      </trkpt>
      <trkpt lat="43.03735" lon="-1.22024">
        <ele>991.647525</ele>
        <time>2026-05-22T13:04:04.000Z</time>
      </trkpt>
      <trkpt lat="43.03737" lon="-1.22025">
        <ele>991.75369</ele>
        <time>2026-05-22T13:04:05.000Z</time>
      </trkpt>
      <trkpt lat="43.03738" lon="-1.22026">
        <ele>991.858061</ele>
        <time>2026-05-22T13:04:06.000Z</time>
      </trkpt>
      <trkpt lat="43.03739" lon="-1.22027">
        <ele>991.959709</ele>
        <time>2026-05-22T13:04:07.000Z</time>
      </trkpt>
      <trkpt lat="43.03741" lon="-1.22029">
        <ele>992.072108</ele>
        <time>2026-05-22T13:04:08.000Z</time>
      </trkpt>
      <trkpt lat="43.03742" lon="-1.2203">
        <ele>992.176752</ele>
        <time>2026-05-22T13:04:09.000Z</time>
      </trkpt>
      <trkpt lat="43.03743" lon="-1.22031">
        <ele>992.281396</ele>
        <time>2026-05-22T13:04:10.000Z</time>
      </trkpt>
      <trkpt lat="43.03745" lon="-1.22032">
        <ele>992.394024</ele>
        <time>2026-05-22T13:04:11.000Z</time>
      </trkpt>
      <trkpt lat="43.03746" lon="-1.22033">
        <ele>992.496391</ele>
        <time>2026-05-22T13:04:12.000Z</time>
      </trkpt>
      <trkpt lat="43.03748" lon="-1.22034">
        <ele>992.598758</ele>
        <time>2026-05-22T13:04:13.000Z</time>
      </trkpt>
      <trkpt lat="43.03749" lon="-1.22035">
        <ele>992.704923</ele>
        <time>2026-05-22T13:04:14.000Z</time>
      </trkpt>
      <trkpt lat="43.0375" lon="-1.22036">
        <ele>992.799359</ele>
        <time>2026-05-22T13:04:15.000Z</time>
      </trkpt>
      <trkpt lat="43.03752" lon="-1.22037">
        <ele>992.904003</ele>
        <time>2026-05-22T13:04:16.000Z</time>
      </trkpt>
      <trkpt lat="43.03753" lon="-1.22038">
        <ele>993.008374</ele>
        <time>2026-05-22T13:04:17.000Z</time>
      </trkpt>
      <trkpt lat="43.03755" lon="-1.22039">
        <ele>993.115456</ele>
        <time>2026-05-22T13:04:18.000Z</time>
      </trkpt>
      <trkpt lat="43.03756" lon="-1.2204">
        <ele>993.22361</ele>
        <time>2026-05-22T13:04:19.000Z</time>
      </trkpt>
      <trkpt lat="43.03758" lon="-1.22041">
        <ele>993.334027</ele>
        <time>2026-05-22T13:04:20.000Z</time>
      </trkpt>
      <trkpt lat="43.03759" lon="-1.22042">
        <ele>993.438379</ele>
        <time>2026-05-22T13:04:21.000Z</time>
      </trkpt>
      <trkpt lat="43.0376" lon="-1.22043">
        <ele>993.530773</ele>
        <time>2026-05-22T13:04:22.000Z</time>
      </trkpt>
      <trkpt lat="43.03762" lon="-1.22044">
        <ele>993.629849</ele>
        <time>2026-05-22T13:04:23.000Z</time>
      </trkpt>
      <trkpt lat="43.03763" lon="-1.22045">
        <ele>993.732216</ele>
        <time>2026-05-22T13:04:24.000Z</time>
      </trkpt>
      <trkpt lat="43.03765" lon="-1.22046">
        <ele>993.839298</ele>
        <time>2026-05-22T13:04:25.000Z</time>
      </trkpt>
      <trkpt lat="43.03766" lon="-1.22047">
        <ele>993.93851</ele>
        <time>2026-05-22T13:04:26.000Z</time>
      </trkpt>
      <trkpt lat="43.03767" lon="-1.22049">
        <ele>994.040157</ele>
        <time>2026-05-22T13:04:27.000Z</time>
      </trkpt>
      <trkpt lat="43.03769" lon="-1.2205">
        <ele>994.150469</ele>
        <time>2026-05-22T13:04:28.000Z</time>
      </trkpt>
      <trkpt lat="43.0377" lon="-1.22051">
        <ele>994.255113</ele>
        <time>2026-05-22T13:04:29.000Z</time>
      </trkpt>
      <trkpt lat="43.03771" lon="-1.22052">
        <ele>994.359757</ele>
        <time>2026-05-22T13:04:30.000Z</time>
      </trkpt>
      <trkpt lat="43.03773" lon="-1.22053">
        <ele>994.472384</ele>
        <time>2026-05-22T13:04:31.000Z</time>
      </trkpt>
      <trkpt lat="43.03774" lon="-1.22054">
        <ele>994.579466</ele>
        <time>2026-05-22T13:04:32.000Z</time>
      </trkpt>
      <trkpt lat="43.03776" lon="-1.22056">
        <ele>994.691866</ele>
        <time>2026-05-22T13:04:33.000Z</time>
      </trkpt>
      <trkpt lat="43.03777" lon="-1.22057">
        <ele>994.794233</ele>
        <time>2026-05-22T13:04:34.000Z</time>
      </trkpt>
      <trkpt lat="43.03779" lon="-1.22058">
        <ele>994.910298</ele>
        <time>2026-05-22T13:04:35.000Z</time>
      </trkpt>
      <trkpt lat="43.0378" lon="-1.22059">
        <ele>995.03024</ele>
        <time>2026-05-22T13:04:36.000Z</time>
      </trkpt>
      <trkpt lat="43.03782" lon="-1.2206">
        <ele>995.158021</ele>
        <time>2026-05-22T13:04:37.000Z</time>
      </trkpt>
      <trkpt lat="43.03784" lon="-1.2206">
        <ele>995.270728</ele>
        <time>2026-05-22T13:04:38.000Z</time>
      </trkpt>
      <trkpt lat="43.03786" lon="-1.22061">
        <ele>995.390813</ele>
        <time>2026-05-22T13:04:39.000Z</time>
      </trkpt>
      <trkpt lat="43.03787" lon="-1.22062">
        <ele>995.498967</ele>
        <time>2026-05-22T13:04:40.000Z</time>
      </trkpt>
      <trkpt lat="43.03789" lon="-1.22063">
        <ele>995.609279</ele>
        <time>2026-05-22T13:04:41.000Z</time>
      </trkpt>
      <trkpt lat="43.0379" lon="-1.22064">
        <ele>995.72141</ele>
        <time>2026-05-22T13:04:42.000Z</time>
      </trkpt>
      <trkpt lat="43.03792" lon="-1.22065">
        <ele>995.823777</ele>
        <time>2026-05-22T13:04:43.000Z</time>
      </trkpt>
      <trkpt lat="43.03793" lon="-1.22066">
        <ele>995.924039</ele>
        <time>2026-05-22T13:04:44.000Z</time>
      </trkpt>
      <trkpt lat="43.03794" lon="-1.22067">
        <ele>996.026406</ele>
        <time>2026-05-22T13:04:45.000Z</time>
      </trkpt>
      <trkpt lat="43.03796" lon="-1.22068">
        <ele>996.130777</ele>
        <time>2026-05-22T13:04:46.000Z</time>
      </trkpt>
      <trkpt lat="43.03797" lon="-1.22069">
        <ele>996.235148</ele>
        <time>2026-05-22T13:04:47.000Z</time>
      </trkpt>
      <trkpt lat="43.03798" lon="-1.22071">
        <ele>996.339791</ele>
        <time>2026-05-22T13:04:48.000Z</time>
      </trkpt>
      <trkpt lat="43.038" lon="-1.22072">
        <ele>996.453808</ele>
        <time>2026-05-22T13:04:49.000Z</time>
      </trkpt>
      <trkpt lat="43.03802" lon="-1.22072">
        <ele>996.564224</ele>
        <time>2026-05-22T13:04:50.000Z</time>
      </trkpt>
      <trkpt lat="43.03803" lon="-1.22073">
        <ele>996.680289</ele>
        <time>2026-05-22T13:04:51.000Z</time>
      </trkpt>
      <trkpt lat="43.03805" lon="-1.22075">
        <ele>996.795381</ele>
        <time>2026-05-22T13:04:52.000Z</time>
      </trkpt>
      <trkpt lat="43.03806" lon="-1.22076">
        <ele>996.900024</ele>
        <time>2026-05-22T13:04:53.000Z</time>
      </trkpt>
      <trkpt lat="43.03808" lon="-1.22077">
        <ele>997.007106</ele>
        <time>2026-05-22T13:04:54.000Z</time>
      </trkpt>
      <trkpt lat="43.03809" lon="-1.22078">
        <ele>997.111477</ele>
        <time>2026-05-22T13:04:55.000Z</time>
      </trkpt>
      <trkpt lat="43.0381" lon="-1.2208">
        <ele>997.215848</ele>
        <time>2026-05-22T13:04:56.000Z</time>
      </trkpt>
      <trkpt lat="43.03812" lon="-1.22081">
        <ele>997.318214</ele>
        <time>2026-05-22T13:04:57.000Z</time>
      </trkpt>
      <trkpt lat="43.03813" lon="-1.22081">
        <ele>997.433286</ele>
        <time>2026-05-22T13:04:58.000Z</time>
      </trkpt>
      <trkpt lat="43.03815" lon="-1.22082">
        <ele>997.549812</ele>
        <time>2026-05-22T13:04:59.000Z</time>
      </trkpt>
      <trkpt lat="43.03817" lon="-1.22083">
        <ele>997.667963</ele>
        <time>2026-05-22T13:05:00.000Z</time>
      </trkpt>
      <trkpt lat="43.03818" lon="-1.22084">
        <ele>997.767039</ele>
        <time>2026-05-22T13:05:01.000Z</time>
      </trkpt>
      <trkpt lat="43.03819" lon="-1.22085">
        <ele>997.876709</ele>
        <time>2026-05-22T13:05:02.000Z</time>
      </trkpt>
      <trkpt lat="43.03821" lon="-1.22087">
        <ele>997.986937</ele>
        <time>2026-05-22T13:05:03.000Z</time>
      </trkpt>
      <trkpt lat="43.03822" lon="-1.22088">
        <ele>998.092292</ele>
        <time>2026-05-22T13:05:04.000Z</time>
      </trkpt>
      <trkpt lat="43.03823" lon="-1.2209">
        <ele>998.193939</ele>
        <time>2026-05-22T13:05:05.000Z</time>
      </trkpt>
      <trkpt lat="43.03825" lon="-1.22091">
        <ele>998.30903</ele>
        <time>2026-05-22T13:05:06.000Z</time>
      </trkpt>
      <trkpt lat="43.03826" lon="-1.22092">
        <ele>998.419342</ele>
        <time>2026-05-22T13:05:07.000Z</time>
      </trkpt>
      <trkpt lat="43.03828" lon="-1.22093">
        <ele>998.526424</ele>
        <time>2026-05-22T13:05:08.000Z</time>
      </trkpt>
      <trkpt lat="43.03829" lon="-1.22094">
        <ele>998.636735</ele>
        <time>2026-05-22T13:05:09.000Z</time>
      </trkpt>
      <trkpt lat="43.03831" lon="-1.22096">
        <ele>998.749363</ele>
        <time>2026-05-22T13:05:10.000Z</time>
      </trkpt>
      <trkpt lat="43.03832" lon="-1.22097">
        <ele>998.863379</ele>
        <time>2026-05-22T13:05:11.000Z</time>
      </trkpt>
      <trkpt lat="43.03834" lon="-1.22097">
        <ele>998.987597</ele>
        <time>2026-05-22T13:05:12.000Z</time>
      </trkpt>
      <trkpt lat="43.03835" lon="-1.22099">
        <ele>999.097909</ele>
        <time>2026-05-22T13:05:13.000Z</time>
      </trkpt>
      <trkpt lat="43.03837" lon="-1.221">
        <ele>999.208221</ele>
        <time>2026-05-22T13:05:14.000Z</time>
      </trkpt>
      <trkpt lat="43.03838" lon="-1.22101">
        <ele>999.325915</ele>
        <time>2026-05-22T13:05:15.000Z</time>
      </trkpt>
      <trkpt lat="43.0384" lon="-1.22102">
        <ele>999.441006</ele>
        <time>2026-05-22T13:05:16.000Z</time>
      </trkpt>
      <trkpt lat="43.03841" lon="-1.22104">
        <ele>999.550676</ele>
        <time>2026-05-22T13:05:17.000Z</time>
      </trkpt>
      <trkpt lat="43.03843" lon="-1.22105">
        <ele>999.665934</ele>
        <time>2026-05-22T13:05:18.000Z</time>
      </trkpt>
      <trkpt lat="43.03844" lon="-1.22107">
        <ele>999.778333</ele>
        <time>2026-05-22T13:05:19.000Z</time>
      </trkpt>
      <trkpt lat="43.03845" lon="-1.22108">
        <ele>999.882704</ele>
        <time>2026-05-22T13:05:20.000Z</time>
      </trkpt>
      <trkpt lat="43.03847" lon="-1.22109">
        <ele>999.988059</ele>
        <time>2026-05-22T13:05:21.000Z</time>
      </trkpt>
      <trkpt lat="43.03848" lon="-1.22111">
        <ele>1000.100024</ele>
        <time>2026-05-22T13:05:22.000Z</time>
      </trkpt>
      <trkpt lat="43.03849" lon="-1.22113">
        <ele>1000.204087</ele>
        <time>2026-05-22T13:05:23.000Z</time>
      </trkpt>
      <trkpt lat="43.0385" lon="-1.22114">
        <ele>1000.316052</ele>
        <time>2026-05-22T13:05:24.000Z</time>
      </trkpt>
      <trkpt lat="43.03851" lon="-1.22116">
        <ele>1000.424659</ele>
        <time>2026-05-22T13:05:25.000Z</time>
      </trkpt>
      <trkpt lat="43.03853" lon="-1.22117">
        <ele>1000.537058</ele>
        <time>2026-05-22T13:05:26.000Z</time>
      </trkpt>
      <trkpt lat="43.03854" lon="-1.22118">
        <ele>1000.653123</ele>
        <time>2026-05-22T13:05:27.000Z</time>
      </trkpt>
      <trkpt lat="43.03856" lon="-1.2212">
        <ele>1000.769188</ele>
        <time>2026-05-22T13:05:28.000Z</time>
      </trkpt>
      <trkpt lat="43.03857" lon="-1.22121">
        <ele>1000.878858</ele>
        <time>2026-05-22T13:05:29.000Z</time>
      </trkpt>
      <trkpt lat="43.03859" lon="-1.22122">
        <ele>1000.98594</ele>
        <time>2026-05-22T13:05:30.000Z</time>
      </trkpt>
      <trkpt lat="43.0386" lon="-1.22123">
        <ele>1001.096251</ele>
        <time>2026-05-22T13:05:31.000Z</time>
      </trkpt>
      <trkpt lat="43.03862" lon="-1.22124">
        <ele>1001.206563</ele>
        <time>2026-05-22T13:05:32.000Z</time>
      </trkpt>
      <trkpt lat="43.03863" lon="-1.22126">
        <ele>1001.310933</ele>
        <time>2026-05-22T13:05:33.000Z</time>
      </trkpt>
      <trkpt lat="43.03864" lon="-1.22127">
        <ele>1001.413153</ele>
        <time>2026-05-22T13:05:34.000Z</time>
      </trkpt>
      <trkpt lat="43.03865" lon="-1.22128">
        <ele>1001.510531</ele>
        <time>2026-05-22T13:05:35.000Z</time>
      </trkpt>
      <trkpt lat="43.03867" lon="-1.2213">
        <ele>1001.609742</ele>
        <time>2026-05-22T13:05:36.000Z</time>
      </trkpt>
      <trkpt lat="43.03868" lon="-1.22131">
        <ele>1001.715097</ele>
        <time>2026-05-22T13:05:37.000Z</time>
      </trkpt>
      <trkpt lat="43.03869" lon="-1.22133">
        <ele>1001.815762</ele>
        <time>2026-05-22T13:05:38.000Z</time>
      </trkpt>
      <trkpt lat="43.0387" lon="-1.22134">
        <ele>1001.916427</ele>
        <time>2026-05-22T13:05:39.000Z</time>
      </trkpt>
      <trkpt lat="43.03871" lon="-1.22136">
        <ele>1002.016161</ele>
        <time>2026-05-22T13:05:40.000Z</time>
      </trkpt>
      <trkpt lat="43.03872" lon="-1.22138">
        <ele>1002.123273</ele>
        <time>2026-05-22T13:05:41.000Z</time>
      </trkpt>
      <trkpt lat="43.03873" lon="-1.22139">
        <ele>1002.234194</ele>
        <time>2026-05-22T13:05:42.000Z</time>
      </trkpt>
      <trkpt lat="43.03874" lon="-1.22141">
        <ele>1002.352773</ele>
        <time>2026-05-22T13:05:43.000Z</time>
      </trkpt>
      <trkpt lat="43.03875" lon="-1.22143">
        <ele>1002.475359</ele>
        <time>2026-05-22T13:05:44.000Z</time>
      </trkpt>
      <trkpt lat="43.03876" lon="-1.22145">
        <ele>1002.593938</ele>
        <time>2026-05-22T13:05:45.000Z</time>
      </trkpt>
      <trkpt lat="43.03877" lon="-1.22147">
        <ele>1002.705092</ele>
        <time>2026-05-22T13:05:46.000Z</time>
      </trkpt>
      <trkpt lat="43.03878" lon="-1.22149">
        <ele>1002.795581</ele>
        <time>2026-05-22T13:05:47.000Z</time>
      </trkpt>
      <trkpt lat="43.03879" lon="-1.22152">
        <ele>1002.883762</ele>
        <time>2026-05-22T13:05:48.000Z</time>
      </trkpt>
      <trkpt lat="43.03879" lon="-1.22154">
        <ele>1002.970292</ele>
        <time>2026-05-22T13:05:49.000Z</time>
      </trkpt>
      <trkpt lat="43.03879" lon="-1.22156">
        <ele>1003.056823</ele>
        <time>2026-05-22T13:05:50.000Z</time>
      </trkpt>
      <trkpt lat="43.03879" lon="-1.22159">
        <ele>1003.142796</ele>
        <time>2026-05-22T13:05:51.000Z</time>
      </trkpt>
      <trkpt lat="43.03879" lon="-1.22161">
        <ele>1003.230977</ele>
        <time>2026-05-22T13:05:52.000Z</time>
      </trkpt>
      <trkpt lat="43.03878" lon="-1.22164">
        <ele>1003.320375</ele>
        <time>2026-05-22T13:05:53.000Z</time>
      </trkpt>
      <trkpt lat="43.03878" lon="-1.22166">
        <ele>1003.413223</ele>
        <time>2026-05-22T13:05:54.000Z</time>
      </trkpt>
      <trkpt lat="43.03877" lon="-1.22169">
        <ele>1003.507483</ele>
        <time>2026-05-22T13:05:55.000Z</time>
      </trkpt>
      <trkpt lat="43.03876" lon="-1.22171">
        <ele>1003.608538</ele>
        <time>2026-05-22T13:05:56.000Z</time>
      </trkpt>
      <trkpt lat="43.03875" lon="-1.22174">
        <ele>1003.705167</ele>
        <time>2026-05-22T13:05:57.000Z</time>
      </trkpt>
      <trkpt lat="43.03874" lon="-1.22176">
        <ele>1003.801034</ele>
        <time>2026-05-22T13:05:58.000Z</time>
      </trkpt>
      <trkpt lat="43.03873" lon="-1.22178">
        <ele>1003.89937</ele>
        <time>2026-05-22T13:05:59.000Z</time>
      </trkpt>
      <trkpt lat="43.03872" lon="-1.2218">
        <ele>1003.997833</ele>
        <time>2026-05-22T13:06:00.000Z</time>
      </trkpt>
      <trkpt lat="43.03871" lon="-1.22183">
        <ele>1004.105055</ele>
        <time>2026-05-22T13:06:01.000Z</time>
      </trkpt>
      <trkpt lat="43.0387" lon="-1.22185">
        <ele>1004.203518</ele>
        <time>2026-05-22T13:06:02.000Z</time>
      </trkpt>
      <trkpt lat="43.03869" lon="-1.22188">
        <ele>1004.311134</ele>
        <time>2026-05-22T13:06:03.000Z</time>
      </trkpt>
      <trkpt lat="43.03867" lon="-1.2219">
        <ele>1004.421865</ele>
        <time>2026-05-22T13:06:04.000Z</time>
      </trkpt>
      <trkpt lat="43.03866" lon="-1.22193">
        <ele>1004.532597</ele>
        <time>2026-05-22T13:06:05.000Z</time>
      </trkpt>
      <trkpt lat="43.03865" lon="-1.22196">
        <ele>1004.643328</ele>
        <time>2026-05-22T13:06:06.000Z</time>
      </trkpt>
      <trkpt lat="43.03864" lon="-1.22198">
        <ele>1004.759149</ele>
        <time>2026-05-22T13:06:07.000Z</time>
      </trkpt>
      <trkpt lat="43.03863" lon="-1.22201">
        <ele>1004.87197</ele>
        <time>2026-05-22T13:06:08.000Z</time>
      </trkpt>
      <trkpt lat="43.03861" lon="-1.22203">
        <ele>1004.987836</ele>
        <time>2026-05-22T13:06:09.000Z</time>
      </trkpt>
      <trkpt lat="43.0386" lon="-1.22206">
        <ele>1005.09799</ele>
        <time>2026-05-22T13:06:10.000Z</time>
      </trkpt>
      <trkpt lat="43.03859" lon="-1.22209">
        <ele>1005.205607</ele>
        <time>2026-05-22T13:06:11.000Z</time>
      </trkpt>
      <trkpt lat="43.03858" lon="-1.22211">
        <ele>1005.31576</ele>
        <time>2026-05-22T13:06:12.000Z</time>
      </trkpt>
      <trkpt lat="43.03857" lon="-1.22214">
        <ele>1005.430627</ele>
        <time>2026-05-22T13:06:13.000Z</time>
      </trkpt>
      <trkpt lat="43.03855" lon="-1.22217">
        <ele>1005.547668</ele>
        <time>2026-05-22T13:06:14.000Z</time>
      </trkpt>
      <trkpt lat="43.03854" lon="-1.2222">
        <ele>1005.663943</ele>
        <time>2026-05-22T13:06:15.000Z</time>
      </trkpt>
      <trkpt lat="43.03853" lon="-1.22223">
        <ele>1005.783321</ele>
        <time>2026-05-22T13:06:16.000Z</time>
      </trkpt>
      <trkpt lat="43.03852" lon="-1.22226">
        <ele>1005.908256</ele>
        <time>2026-05-22T13:06:17.000Z</time>
      </trkpt>
      <trkpt lat="43.03851" lon="-1.22229">
        <ele>1006.025298</ele>
        <time>2026-05-22T13:06:18.000Z</time>
      </trkpt>
      <trkpt lat="43.0385" lon="-1.22232">
        <ele>1006.143414</ele>
        <time>2026-05-22T13:06:19.000Z</time>
      </trkpt>
      <trkpt lat="43.03849" lon="-1.22234">
        <ele>1006.251844</ele>
        <time>2026-05-22T13:06:20.000Z</time>
      </trkpt>
      <trkpt lat="43.03847" lon="-1.22237">
        <ele>1006.361998</ele>
        <time>2026-05-22T13:06:21.000Z</time>
      </trkpt>
      <trkpt lat="43.03846" lon="-1.2224">
        <ele>1006.470427</ele>
        <time>2026-05-22T13:06:22.000Z</time>
      </trkpt>
      <trkpt lat="43.03846" lon="-1.22242">
        <ele>1006.576732</ele>
        <time>2026-05-22T13:06:23.000Z</time>
      </trkpt>
      <trkpt lat="43.03845" lon="-1.22245">
        <ele>1006.679788</ele>
        <time>2026-05-22T13:06:24.000Z</time>
      </trkpt>
      <trkpt lat="43.03844" lon="-1.22248">
        <ele>1006.789362</ele>
        <time>2026-05-22T13:06:25.000Z</time>
      </trkpt>
      <trkpt lat="43.03843" lon="-1.2225">
        <ele>1006.890417</ele>
        <time>2026-05-22T13:06:26.000Z</time>
      </trkpt>
      <trkpt lat="43.03842" lon="-1.22253">
        <ele>1006.998034</ele>
        <time>2026-05-22T13:06:27.000Z</time>
      </trkpt>
      <trkpt lat="43.03841" lon="-1.22256">
        <ele>1007.103281</ele>
        <time>2026-05-22T13:06:28.000Z</time>
      </trkpt>
      <trkpt lat="43.0384" lon="-1.22258">
        <ele>1007.209585</ele>
        <time>2026-05-22T13:06:29.000Z</time>
      </trkpt>
      <trkpt lat="43.03839" lon="-1.22261">
        <ele>1007.313951</ele>
        <time>2026-05-22T13:06:30.000Z</time>
      </trkpt>
      <trkpt lat="43.03839" lon="-1.22263">
        <ele>1007.408212</ele>
        <time>2026-05-22T13:06:31.000Z</time>
      </trkpt>
      <trkpt lat="43.03838" lon="-1.22266">
        <ele>1007.508043</ele>
        <time>2026-05-22T13:06:32.000Z</time>
      </trkpt>
      <trkpt lat="43.03837" lon="-1.22269">
        <ele>1007.609098</ele>
        <time>2026-05-22T13:06:33.000Z</time>
      </trkpt>
      <trkpt lat="43.03836" lon="-1.22271">
        <ele>1007.708928</ele>
        <time>2026-05-22T13:06:34.000Z</time>
      </trkpt>
      <trkpt lat="43.03835" lon="-1.22273">
        <ele>1007.804796</ele>
        <time>2026-05-22T13:06:35.000Z</time>
      </trkpt>
      <trkpt lat="43.03834" lon="-1.22276">
        <ele>1007.900663</ele>
        <time>2026-05-22T13:06:36.000Z</time>
      </trkpt>
      <trkpt lat="43.03833" lon="-1.22278">
        <ele>1007.995156</ele>
        <time>2026-05-22T13:06:37.000Z</time>
      </trkpt>
      <trkpt lat="43.03833" lon="-1.2228">
        <ele>1008.08602</ele>
        <time>2026-05-22T13:06:38.000Z</time>
      </trkpt>
      <trkpt lat="43.03832" lon="-1.22283">
        <ele>1008.17527</ele>
        <time>2026-05-22T13:06:39.000Z</time>
      </trkpt>
      <trkpt lat="43.03831" lon="-1.22285">
        <ele>1008.269531</ele>
        <time>2026-05-22T13:06:40.000Z</time>
      </trkpt>
      <trkpt lat="43.03831" lon="-1.22288">
        <ele>1008.365434</ele>
        <time>2026-05-22T13:06:41.000Z</time>
      </trkpt>
      <trkpt lat="43.0383" lon="-1.2229">
        <ele>1008.460614</ele>
        <time>2026-05-22T13:06:42.000Z</time>
      </trkpt>
      <trkpt lat="43.0383" lon="-1.22293">
        <ele>1008.548795</ele>
        <time>2026-05-22T13:06:43.000Z</time>
      </trkpt>
      <trkpt lat="43.03829" lon="-1.22295">
        <ele>1008.632912</ele>
        <time>2026-05-22T13:06:44.000Z</time>
      </trkpt>
      <trkpt lat="43.03828" lon="-1.22297">
        <ele>1008.724158</ele>
        <time>2026-05-22T13:06:45.000Z</time>
      </trkpt>
      <trkpt lat="43.03828" lon="-1.22299">
        <ele>1008.810112</ele>
        <time>2026-05-22T13:06:46.000Z</time>
      </trkpt>
      <trkpt lat="43.03827" lon="-1.22302">
        <ele>1008.90296</ele>
        <time>2026-05-22T13:06:47.000Z</time>
      </trkpt>
      <trkpt lat="43.03827" lon="-1.22305">
        <ele>1009.007881</ele>
        <time>2026-05-22T13:06:48.000Z</time>
      </trkpt>
      <trkpt lat="43.03827" lon="-1.22308">
        <ele>1009.108662</ele>
        <time>2026-05-22T13:06:49.000Z</time>
      </trkpt>
      <trkpt lat="43.03826" lon="-1.2231">
        <ele>1009.210864</ele>
        <time>2026-05-22T13:06:50.000Z</time>
      </trkpt>
      <trkpt lat="43.03826" lon="-1.22313">
        <ele>1009.303712</ele>
        <time>2026-05-22T13:06:51.000Z</time>
      </trkpt>
      <trkpt lat="43.03825" lon="-1.22315">
        <ele>1009.38783</ele>
        <time>2026-05-22T13:06:52.000Z</time>
      </trkpt>
      <trkpt lat="43.03825" lon="-1.22317">
        <ele>1009.470803</ele>
        <time>2026-05-22T13:06:53.000Z</time>
      </trkpt>
      <trkpt lat="43.03825" lon="-1.2232">
        <ele>1009.54603</ele>
        <time>2026-05-22T13:06:54.000Z</time>
      </trkpt>
      <trkpt lat="43.03825" lon="-1.22322">
        <ele>1009.635721</ele>
        <time>2026-05-22T13:06:55.000Z</time>
      </trkpt>
      <trkpt lat="43.03825" lon="-1.22324">
        <ele>1009.719415</ele>
        <time>2026-05-22T13:06:56.000Z</time>
      </trkpt>
      <trkpt lat="43.03824" lon="-1.22327">
        <ele>1009.803108</ele>
        <time>2026-05-22T13:06:57.000Z</time>
      </trkpt>
      <trkpt lat="43.03824" lon="-1.22329">
        <ele>1009.897369</ele>
        <time>2026-05-22T13:06:58.000Z</time>
      </trkpt>
      <trkpt lat="43.03823" lon="-1.22332">
        <ele>1009.989936</ele>
        <time>2026-05-22T13:06:59.000Z</time>
      </trkpt>
      <trkpt lat="43.03822" lon="-1.22334">
        <ele>1010.087607</ele>
        <time>2026-05-22T13:07:00.000Z</time>
      </trkpt>
      <trkpt lat="43.03822" lon="-1.22337">
        <ele>1010.183916</ele>
        <time>2026-05-22T13:07:01.000Z</time>
      </trkpt>
      <trkpt lat="43.03821" lon="-1.22339">
        <ele>1010.278177</ele>
        <time>2026-05-22T13:07:02.000Z</time>
      </trkpt>
      <trkpt lat="43.03821" lon="-1.22342">
        <ele>1010.370744</ele>
        <time>2026-05-22T13:07:03.000Z</time>
      </trkpt>
      <trkpt lat="43.0382" lon="-1.22344">
        <ele>1010.470574</ele>
        <time>2026-05-22T13:07:04.000Z</time>
      </trkpt>
      <trkpt lat="43.03819" lon="-1.22347">
        <ele>1010.581306</ele>
        <time>2026-05-22T13:07:05.000Z</time>
      </trkpt>
      <trkpt lat="43.03818" lon="-1.2235">
        <ele>1010.692944</ele>
        <time>2026-05-22T13:07:06.000Z</time>
      </trkpt>
      <trkpt lat="43.03816" lon="-1.22353">
        <ele>1010.809986</ele>
        <time>2026-05-22T13:07:07.000Z</time>
      </trkpt>
      <trkpt lat="43.03815" lon="-1.22355">
        <ele>1010.929365</ele>
        <time>2026-05-22T13:07:08.000Z</time>
      </trkpt>
      <trkpt lat="43.03814" lon="-1.22358">
        <ele>1011.05687</ele>
        <time>2026-05-22T13:07:09.000Z</time>
      </trkpt>
      <trkpt lat="43.03812" lon="-1.22361">
        <ele>1011.184375</ele>
        <time>2026-05-22T13:07:10.000Z</time>
      </trkpt>
      <trkpt lat="43.03811" lon="-1.22365">
        <ele>1011.314914</ele>
        <time>2026-05-22T13:07:11.000Z</time>
      </trkpt>
      <trkpt lat="43.0381" lon="-1.22367">
        <ele>1011.427735</ele>
        <time>2026-05-22T13:07:12.000Z</time>
      </trkpt>
      <trkpt lat="43.03808" lon="-1.22369">
        <ele>1011.524383</ele>
        <time>2026-05-22T13:07:13.000Z</time>
      </trkpt>
      <trkpt lat="43.03807" lon="-1.2237">
        <ele>1011.471635</ele>
        <time>2026-05-22T13:07:14.000Z</time>
      </trkpt>
      <trkpt lat="43.03806" lon="-1.22371">
        <ele>1011.390181</ele>
        <time>2026-05-22T13:07:15.000Z</time>
      </trkpt>
      <trkpt lat="43.03805" lon="-1.2237">
        <ele>1011.31785</ele>
        <time>2026-05-22T13:07:16.000Z</time>
      </trkpt>
      <trkpt lat="43.03805" lon="-1.22369">
        <ele>1011.240016</ele>
        <time>2026-05-22T13:07:17.000Z</time>
      </trkpt>
      <trkpt lat="43.03806" lon="-1.22367">
        <ele>1011.150967</ele>
        <time>2026-05-22T13:07:18.000Z</time>
      </trkpt>
      <trkpt lat="43.03807" lon="-1.22366">
        <ele>1011.057846</ele>
        <time>2026-05-22T13:07:19.000Z</time>
      </trkpt>
      <trkpt lat="43.03808" lon="-1.22364">
        <ele>1010.949569</ele>
        <time>2026-05-22T13:07:20.000Z</time>
      </trkpt>
      <trkpt lat="43.0381" lon="-1.22363">
        <ele>1010.828461</ele>
        <time>2026-05-22T13:07:21.000Z</time>
      </trkpt>
      <trkpt lat="43.03811" lon="-1.22361">
        <ele>1010.709685</ele>
        <time>2026-05-22T13:07:22.000Z</time>
      </trkpt>
      <trkpt lat="43.03812" lon="-1.22359">
        <ele>1010.590909</ele>
        <time>2026-05-22T13:07:23.000Z</time>
      </trkpt>
      <trkpt lat="43.03814" lon="-1.22358">
        <ele>1010.467165</ele>
        <time>2026-05-22T13:07:24.000Z</time>
      </trkpt>
      <trkpt lat="43.03816" lon="-1.22356">
        <ele>1010.330804</ele>
        <time>2026-05-22T13:07:25.000Z</time>
      </trkpt>
      <trkpt lat="43.03818" lon="-1.22356">
        <ele>1010.201902</ele>
        <time>2026-05-22T13:07:26.000Z</time>
      </trkpt>
      <trkpt lat="43.0382" lon="-1.22356">
        <ele>1010.076939</ele>
        <time>2026-05-22T13:07:27.000Z</time>
      </trkpt>
      <trkpt lat="43.03822" lon="-1.22356">
        <ele>1009.958765</ele>
        <time>2026-05-22T13:07:28.000Z</time>
      </trkpt>
      <trkpt lat="43.03823" lon="-1.22357">
        <ele>1009.855177</ele>
        <time>2026-05-22T13:07:29.000Z</time>
      </trkpt>
      <trkpt lat="43.03824" lon="-1.22357">
        <ele>1009.803382</ele>
        <time>2026-05-22T13:07:30.000Z</time>
      </trkpt>
      <trkpt lat="43.03822" lon="-1.22355">
        <ele>1009.602338</ele>
        <time>2026-05-22T13:07:40.000Z</time>
      </trkpt>
      <trkpt lat="43.03821" lon="-1.22354">
        <ele>1009.52222</ele>
        <time>2026-05-22T13:07:41.000Z</time>
      </trkpt>
      <trkpt lat="43.03819" lon="-1.22353">
        <ele>1009.431248</ele>
        <time>2026-05-22T13:07:42.000Z</time>
      </trkpt>
      <trkpt lat="43.03818" lon="-1.22352">
        <ele>1009.341946</ele>
        <time>2026-05-22T13:07:43.000Z</time>
      </trkpt>
      <trkpt lat="43.03816" lon="-1.22353">
        <ele>1009.247291</ele>
        <time>2026-05-22T13:07:44.000Z</time>
      </trkpt>
      <trkpt lat="43.03815" lon="-1.22353">
        <ele>1009.167516</ele>
        <time>2026-05-22T13:07:45.000Z</time>
      </trkpt>
      <trkpt lat="43.03814" lon="-1.22354">
        <ele>1009.08919</ele>
        <time>2026-05-22T13:07:46.000Z</time>
      </trkpt>
      <trkpt lat="43.03813" lon="-1.22354">
        <ele>1009.004872</ele>
        <time>2026-05-22T13:07:47.000Z</time>
      </trkpt>
      <trkpt lat="43.03812" lon="-1.22355">
        <ele>1008.944219</ele>
        <time>2026-05-22T13:07:48.000Z</time>
      </trkpt>
      <trkpt lat="43.03812" lon="-1.22355">
        <ele>1008.928751</ele>
        <time>2026-05-22T13:07:49.000Z</time>
      </trkpt>
      <trkpt lat="43.03808" lon="-1.22362">
        <ele>1008.54556</ele>
        <time>2026-05-22T13:21:06.000Z</time>
      </trkpt>
      <trkpt lat="43.03807" lon="-1.22364">
        <ele>1008.416276</ele>
        <time>2026-05-22T13:21:07.000Z</time>
      </trkpt>
      <trkpt lat="43.03806" lon="-1.22367">
        <ele>1008.283586</ele>
        <time>2026-05-22T13:21:08.000Z</time>
      </trkpt>
      <trkpt lat="43.03804" lon="-1.22369">
        <ele>1008.14628</ele>
        <time>2026-05-22T13:21:09.000Z</time>
      </trkpt>
      <trkpt lat="43.03802" lon="-1.22371">
        <ele>1007.986515</ele>
        <time>2026-05-22T13:21:10.000Z</time>
      </trkpt>
      <trkpt lat="43.03799" lon="-1.22372">
        <ele>1007.810612</ele>
        <time>2026-05-22T13:21:11.000Z</time>
      </trkpt>
      <trkpt lat="43.03796" lon="-1.22373">
        <ele>1007.606775</ele>
        <time>2026-05-22T13:21:12.000Z</time>
      </trkpt>
      <trkpt lat="43.03793" lon="-1.22374">
        <ele>1007.388624</ele>
        <time>2026-05-22T13:21:13.000Z</time>
      </trkpt>
      <trkpt lat="43.03789" lon="-1.22375">
        <ele>1007.140868</ele>
        <time>2026-05-22T13:21:14.000Z</time>
      </trkpt>
      <trkpt lat="43.03784" lon="-1.22375">
        <ele>1006.841121</ele>
        <time>2026-05-22T13:21:15.000Z</time>
      </trkpt>
      <trkpt lat="43.03779" lon="-1.22374">
        <ele>1006.500228</ele>
        <time>2026-05-22T13:21:16.000Z</time>
      </trkpt>
      <trkpt lat="43.03773" lon="-1.22372">
        <ele>1006.117639</ele>
        <time>2026-05-22T13:21:17.000Z</time>
      </trkpt>
      <trkpt lat="43.03766" lon="-1.22371">
        <ele>1005.708723</ele>
        <time>2026-05-22T13:21:18.000Z</time>
      </trkpt>
      <trkpt lat="43.0376" lon="-1.22369">
        <ele>1005.305371</ele>
        <time>2026-05-22T13:21:19.000Z</time>
      </trkpt>
      <trkpt lat="43.03754" lon="-1.22368">
        <ele>1004.912236</ele>
        <time>2026-05-22T13:21:20.000Z</time>
      </trkpt>
      <trkpt lat="43.03747" lon="-1.22366">
        <ele>1004.506253</ele>
        <time>2026-05-22T13:21:21.000Z</time>
      </trkpt>
      <trkpt lat="43.0374" lon="-1.22363">
        <ele>1004.040103</ele>
        <time>2026-05-22T13:21:22.000Z</time>
      </trkpt>
      <trkpt lat="43.03732" lon="-1.2236">
        <ele>1003.530543</ele>
        <time>2026-05-22T13:21:23.000Z</time>
      </trkpt>
      <trkpt lat="43.03724" lon="-1.22357">
        <ele>1002.969194</ele>
        <time>2026-05-22T13:21:24.000Z</time>
      </trkpt>
      <trkpt lat="43.03714" lon="-1.22354">
        <ele>1002.368127</ele>
        <time>2026-05-22T13:21:25.000Z</time>
      </trkpt>
      <trkpt lat="43.03705" lon="-1.2235">
        <ele>1001.775362</ele>
        <time>2026-05-22T13:21:26.000Z</time>
      </trkpt>
      <trkpt lat="43.03697" lon="-1.22346">
        <ele>1001.227396</ele>
        <time>2026-05-22T13:21:27.000Z</time>
      </trkpt>
      <trkpt lat="43.0369" lon="-1.22341">
        <ele>1000.725561</ele>
        <time>2026-05-22T13:21:28.000Z</time>
      </trkpt>
      <trkpt lat="43.03683" lon="-1.22336">
        <ele>1000.209053</ele>
        <time>2026-05-22T13:21:29.000Z</time>
      </trkpt>
      <trkpt lat="43.03677" lon="-1.2233">
        <ele>999.468971</ele>
        <time>2026-05-22T13:21:30.000Z</time>
      </trkpt>
      <trkpt lat="43.0367" lon="-1.22325">
        <ele>998.757816</ele>
        <time>2026-05-22T13:21:31.000Z</time>
      </trkpt>
      <trkpt lat="43.03664" lon="-1.22322">
        <ele>998.114468</ele>
        <time>2026-05-22T13:21:32.000Z</time>
      </trkpt>
      <trkpt lat="43.03658" lon="-1.22321">
        <ele>997.536177</ele>
        <time>2026-05-22T13:21:33.000Z</time>
      </trkpt>
      <trkpt lat="43.03652" lon="-1.22321">
        <ele>996.982647</ele>
        <time>2026-05-22T13:21:34.000Z</time>
      </trkpt>
      <trkpt lat="43.03646" lon="-1.22322">
        <ele>996.442074</ele>
        <time>2026-05-22T13:21:35.000Z</time>
      </trkpt>
      <trkpt lat="43.03641" lon="-1.22325">
        <ele>995.87209</ele>
        <time>2026-05-22T13:21:36.000Z</time>
      </trkpt>
      <trkpt lat="43.03636" lon="-1.22331">
        <ele>995.229167</ele>
        <time>2026-05-22T13:21:37.000Z</time>
      </trkpt>
      <trkpt lat="43.0363" lon="-1.22338">
        <ele>994.515107</ele>
        <time>2026-05-22T13:21:38.000Z</time>
      </trkpt>
      <trkpt lat="43.03626" lon="-1.22347">
        <ele>993.755282</ele>
        <time>2026-05-22T13:21:39.000Z</time>
      </trkpt>
      <trkpt lat="43.03622" lon="-1.22358">
        <ele>992.943851</ele>
        <time>2026-05-22T13:21:40.000Z</time>
      </trkpt>
      <trkpt lat="43.03618" lon="-1.22369">
        <ele>992.09575</ele>
        <time>2026-05-22T13:21:41.000Z</time>
      </trkpt>
      <trkpt lat="43.03614" lon="-1.22379">
        <ele>991.26586</ele>
        <time>2026-05-22T13:21:42.000Z</time>
      </trkpt>
      <trkpt lat="43.03612" lon="-1.2239">
        <ele>990.528444</ele>
        <time>2026-05-22T13:21:43.000Z</time>
      </trkpt>
      <trkpt lat="43.03611" lon="-1.22399">
        <ele>989.89073</ele>
        <time>2026-05-22T13:21:44.000Z</time>
      </trkpt>
      <trkpt lat="43.0361" lon="-1.22407">
        <ele>989.320973</ele>
        <time>2026-05-22T13:21:45.000Z</time>
      </trkpt>
      <trkpt lat="43.03609" lon="-1.22414">
        <ele>988.791173</ele>
        <time>2026-05-22T13:21:46.000Z</time>
      </trkpt>
      <trkpt lat="43.03608" lon="-1.22421">
        <ele>988.282688</ele>
        <time>2026-05-22T13:21:47.000Z</time>
      </trkpt>
      <trkpt lat="43.03605" lon="-1.22427">
        <ele>987.81658</ele>
        <time>2026-05-22T13:21:48.000Z</time>
      </trkpt>
      <trkpt lat="43.03602" lon="-1.22431">
        <ele>987.377129</ele>
        <time>2026-05-22T13:21:49.000Z</time>
      </trkpt>
      <trkpt lat="43.03598" lon="-1.22434">
        <ele>986.933711</ele>
        <time>2026-05-22T13:21:50.000Z</time>
      </trkpt>
      <trkpt lat="43.03593" lon="-1.22435">
        <ele>986.474037</ele>
        <time>2026-05-22T13:21:51.000Z</time>
      </trkpt>
      <trkpt lat="43.03588" lon="-1.22432">
        <ele>985.953357</ele>
        <time>2026-05-22T13:21:52.000Z</time>
      </trkpt>
      <trkpt lat="43.03584" lon="-1.22426">
        <ele>985.382358</ele>
        <time>2026-05-22T13:21:53.000Z</time>
      </trkpt>
      <trkpt lat="43.03581" lon="-1.22418">
        <ele>984.7433</ele>
        <time>2026-05-22T13:21:54.000Z</time>
      </trkpt>
      <trkpt lat="43.03578" lon="-1.22409">
        <ele>984.041069</ele>
        <time>2026-05-22T13:21:55.000Z</time>
      </trkpt>
      <trkpt lat="43.03574" lon="-1.22399">
        <ele>983.28489</ele>
        <time>2026-05-22T13:21:56.000Z</time>
      </trkpt>
      <trkpt lat="43.0357" lon="-1.2239">
        <ele>982.486027</ele>
        <time>2026-05-22T13:21:57.000Z</time>
      </trkpt>
      <trkpt lat="43.03565" lon="-1.22381">
        <ele>981.682614</ele>
        <time>2026-05-22T13:21:58.000Z</time>
      </trkpt>
      <trkpt lat="43.03559" lon="-1.22374">
        <ele>980.923132</ele>
        <time>2026-05-22T13:21:59.000Z</time>
      </trkpt>
      <trkpt lat="43.03551" lon="-1.22371">
        <ele>980.141131</ele>
        <time>2026-05-22T13:22:00.000Z</time>
      </trkpt>
      <trkpt lat="43.03543" lon="-1.22369">
        <ele>979.339281</ele>
        <time>2026-05-22T13:22:01.000Z</time>
      </trkpt>
      <trkpt lat="43.03534" lon="-1.2237">
        <ele>978.490384</ele>
        <time>2026-05-22T13:22:02.000Z</time>
      </trkpt>
      <trkpt lat="43.03525" lon="-1.22373">
        <ele>977.585005</ele>
        <time>2026-05-22T13:22:03.000Z</time>
      </trkpt>
      <trkpt lat="43.03516" lon="-1.22377">
        <ele>976.61427</ele>
        <time>2026-05-22T13:22:04.000Z</time>
      </trkpt>
      <trkpt lat="43.03506" lon="-1.22383">
        <ele>975.610347</ele>
        <time>2026-05-22T13:22:05.000Z</time>
      </trkpt>
      <trkpt lat="43.03496" lon="-1.22388">
        <ele>974.595614</ele>
        <time>2026-05-22T13:22:06.000Z</time>
      </trkpt>
      <trkpt lat="43.03487" lon="-1.22394">
        <ele>973.581191</ele>
        <time>2026-05-22T13:22:07.000Z</time>
      </trkpt>
      <trkpt lat="43.03478" lon="-1.224">
        <ele>972.575288</ele>
        <time>2026-05-22T13:22:08.000Z</time>
      </trkpt>
      <trkpt lat="43.03468" lon="-1.22406">
        <ele>971.525328</ele>
        <time>2026-05-22T13:22:09.000Z</time>
      </trkpt>
      <trkpt lat="43.03458" lon="-1.22413">
        <ele>970.440056</ele>
        <time>2026-05-22T13:22:10.000Z</time>
      </trkpt>
      <trkpt lat="43.03447" lon="-1.2242">
        <ele>969.330506</ele>
        <time>2026-05-22T13:22:11.000Z</time>
      </trkpt>
      <trkpt lat="43.03437" lon="-1.22427">
        <ele>968.205861</ele>
        <time>2026-05-22T13:22:12.000Z</time>
      </trkpt>
      <trkpt lat="43.03427" lon="-1.22434">
        <ele>967.131927</ele>
        <time>2026-05-22T13:22:13.000Z</time>
      </trkpt>
      <trkpt lat="43.03418" lon="-1.22439">
        <ele>966.14399</ele>
        <time>2026-05-22T13:22:14.000Z</time>
      </trkpt>
      <trkpt lat="43.0341" lon="-1.22445">
        <ele>965.211539</ele>
        <time>2026-05-22T13:22:15.000Z</time>
      </trkpt>
      <trkpt lat="43.03402" lon="-1.2245">
        <ele>964.285949</ele>
        <time>2026-05-22T13:22:16.000Z</time>
      </trkpt>
      <trkpt lat="43.03394" lon="-1.22457">
        <ele>963.326303</ele>
        <time>2026-05-22T13:22:17.000Z</time>
      </trkpt>
      <trkpt lat="43.03387" lon="-1.22466">
        <ele>962.306686</ele>
        <time>2026-05-22T13:22:18.000Z</time>
      </trkpt>
      <trkpt lat="43.0338" lon="-1.22476">
        <ele>961.258343</ele>
        <time>2026-05-22T13:22:19.000Z</time>
      </trkpt>
      <trkpt lat="43.03374" lon="-1.22486">
        <ele>960.175764</ele>
        <time>2026-05-22T13:22:20.000Z</time>
      </trkpt>
      <trkpt lat="43.03367" lon="-1.22496">
        <ele>959.1032</ele>
        <time>2026-05-22T13:22:21.000Z</time>
      </trkpt>
      <trkpt lat="43.0336" lon="-1.22506">
        <ele>958.056649</ele>
        <time>2026-05-22T13:22:22.000Z</time>
      </trkpt>
      <trkpt lat="43.03353" lon="-1.22515">
        <ele>956.997096</ele>
        <time>2026-05-22T13:22:23.000Z</time>
      </trkpt>
      <trkpt lat="43.03345" lon="-1.22525">
        <ele>955.880831</ele>
        <time>2026-05-22T13:22:24.000Z</time>
      </trkpt>
      <trkpt lat="43.03336" lon="-1.22535">
        <ele>954.685844</ele>
        <time>2026-05-22T13:22:25.000Z</time>
      </trkpt>
      <trkpt lat="43.03327" lon="-1.22546">
        <ele>953.42534</ele>
        <time>2026-05-22T13:22:26.000Z</time>
      </trkpt>
      <trkpt lat="43.03318" lon="-1.22557">
        <ele>952.144372</ele>
        <time>2026-05-22T13:22:27.000Z</time>
      </trkpt>
      <trkpt lat="43.0331" lon="-1.22569">
        <ele>950.873843</ele>
        <time>2026-05-22T13:22:28.000Z</time>
      </trkpt>
      <trkpt lat="43.03303" lon="-1.22581">
        <ele>949.607692</ele>
        <time>2026-05-22T13:22:29.000Z</time>
      </trkpt>
      <trkpt lat="43.03296" lon="-1.22594">
        <ele>948.392547</ele>
        <time>2026-05-22T13:22:30.000Z</time>
      </trkpt>
      <trkpt lat="43.0329" lon="-1.22605">
        <ele>947.295687</ele>
        <time>2026-05-22T13:22:31.000Z</time>
      </trkpt>
      <trkpt lat="43.03283" lon="-1.22615">
        <ele>946.267691</ele>
        <time>2026-05-22T13:22:32.000Z</time>
      </trkpt>
      <trkpt lat="43.03276" lon="-1.22624">
        <ele>945.26133</ele>
        <time>2026-05-22T13:22:33.000Z</time>
      </trkpt>
      <trkpt lat="43.03269" lon="-1.22633">
        <ele>944.25822</ele>
        <time>2026-05-22T13:22:34.000Z</time>
      </trkpt>
      <trkpt lat="43.03263" lon="-1.22642">
        <ele>943.2957</ele>
        <time>2026-05-22T13:22:35.000Z</time>
      </trkpt>
      <trkpt lat="43.03257" lon="-1.22652">
        <ele>942.346705</ele>
        <time>2026-05-22T13:22:36.000Z</time>
      </trkpt>
      <trkpt lat="43.03251" lon="-1.22662">
        <ele>941.389272</ele>
        <time>2026-05-22T13:22:37.000Z</time>
      </trkpt>
      <trkpt lat="43.03246" lon="-1.22672">
        <ele>940.400796</ele>
        <time>2026-05-22T13:22:38.000Z</time>
      </trkpt>
      <trkpt lat="43.0324" lon="-1.22683">
        <ele>939.368525</ele>
        <time>2026-05-22T13:22:39.000Z</time>
      </trkpt>
      <trkpt lat="43.03235" lon="-1.22694">
        <ele>938.377522</ele>
        <time>2026-05-22T13:22:40.000Z</time>
      </trkpt>
      <trkpt lat="43.03231" lon="-1.22704">
        <ele>937.467965</ele>
        <time>2026-05-22T13:22:41.000Z</time>
      </trkpt>
      <trkpt lat="43.03226" lon="-1.22713">
        <ele>936.670817</ele>
        <time>2026-05-22T13:22:42.000Z</time>
      </trkpt>
      <trkpt lat="43.03222" lon="-1.22719">
        <ele>935.98413</ele>
        <time>2026-05-22T13:22:43.000Z</time>
      </trkpt>
      <trkpt lat="43.03216" lon="-1.22724">
        <ele>935.269553</ele>
        <time>2026-05-22T13:22:44.000Z</time>
      </trkpt>
      <trkpt lat="43.0321" lon="-1.22728">
        <ele>934.557878</ele>
        <time>2026-05-22T13:22:45.000Z</time>
      </trkpt>
      <trkpt lat="43.03203" lon="-1.22731">
        <ele>933.823928</ele>
        <time>2026-05-22T13:22:46.000Z</time>
      </trkpt>
      <trkpt lat="43.03196" lon="-1.22734">
        <ele>933.061382</ele>
        <time>2026-05-22T13:22:47.000Z</time>
      </trkpt>
      <trkpt lat="43.03189" lon="-1.22737">
        <ele>932.275586</ele>
        <time>2026-05-22T13:22:48.000Z</time>
      </trkpt>
      <trkpt lat="43.03181" lon="-1.22739">
        <ele>931.393507</ele>
        <time>2026-05-22T13:22:49.000Z</time>
      </trkpt>
      <trkpt lat="43.03172" lon="-1.2274">
        <ele>930.494412</ele>
        <time>2026-05-22T13:22:50.000Z</time>
      </trkpt>
      <trkpt lat="43.03163" lon="-1.22741">
        <ele>929.560366</ele>
        <time>2026-05-22T13:22:51.000Z</time>
      </trkpt>
      <trkpt lat="43.03154" lon="-1.22742">
        <ele>928.576263</ele>
        <time>2026-05-22T13:22:52.000Z</time>
      </trkpt>
      <trkpt lat="43.03144" lon="-1.22742">
        <ele>927.521167</ele>
        <time>2026-05-22T13:22:53.000Z</time>
      </trkpt>
      <trkpt lat="43.03134" lon="-1.22742">
        <ele>926.402909</ele>
        <time>2026-05-22T13:22:54.000Z</time>
      </trkpt>
      <trkpt lat="43.03123" lon="-1.22743">
        <ele>925.282625</ele>
        <time>2026-05-22T13:22:55.000Z</time>
      </trkpt>
      <trkpt lat="43.03113" lon="-1.22744">
        <ele>924.169916</ele>
        <time>2026-05-22T13:22:56.000Z</time>
      </trkpt>
      <trkpt lat="43.03103" lon="-1.22747">
        <ele>923.046509</ele>
        <time>2026-05-22T13:22:57.000Z</time>
      </trkpt>
      <trkpt lat="43.03092" lon="-1.2275">
        <ele>921.868259</ele>
        <time>2026-05-22T13:22:58.000Z</time>
      </trkpt>
      <trkpt lat="43.03081" lon="-1.22753">
        <ele>920.610665</ele>
        <time>2026-05-22T13:22:59.000Z</time>
      </trkpt>
      <trkpt lat="43.03069" lon="-1.22757">
        <ele>919.292993</ele>
        <time>2026-05-22T13:23:00.000Z</time>
      </trkpt>
      <trkpt lat="43.03058" lon="-1.22761">
        <ele>918.008838</ele>
        <time>2026-05-22T13:23:01.000Z</time>
      </trkpt>
      <trkpt lat="43.03047" lon="-1.22765">
        <ele>916.787892</ele>
        <time>2026-05-22T13:23:02.000Z</time>
      </trkpt>
      <trkpt lat="43.03036" lon="-1.22768">
        <ele>915.623586</ele>
        <time>2026-05-22T13:23:03.000Z</time>
      </trkpt>
      <trkpt lat="43.03026" lon="-1.22771">
        <ele>914.528101</ele>
        <time>2026-05-22T13:23:04.000Z</time>
      </trkpt>
      <trkpt lat="43.03017" lon="-1.22775">
        <ele>913.4581</ele>
        <time>2026-05-22T13:23:05.000Z</time>
      </trkpt>
      <trkpt lat="43.03007" lon="-1.22777">
        <ele>912.410906</ele>
        <time>2026-05-22T13:23:06.000Z</time>
      </trkpt>
      <trkpt lat="43.02998" lon="-1.22778">
        <ele>911.398332</ele>
        <time>2026-05-22T13:23:07.000Z</time>
      </trkpt>
      <trkpt lat="43.02989" lon="-1.22778">
        <ele>910.399221</ele>
        <time>2026-05-22T13:23:08.000Z</time>
      </trkpt>
      <trkpt lat="43.0298" lon="-1.22776">
        <ele>909.388085</ele>
        <time>2026-05-22T13:23:09.000Z</time>
      </trkpt>
      <trkpt lat="43.02971" lon="-1.22772">
        <ele>908.355721</ele>
        <time>2026-05-22T13:23:10.000Z</time>
      </trkpt>
      <trkpt lat="43.02962" lon="-1.22769">
        <ele>907.262296</ele>
        <time>2026-05-22T13:23:11.000Z</time>
      </trkpt>
      <trkpt lat="43.02953" lon="-1.22766">
        <ele>906.197812</ele>
        <time>2026-05-22T13:23:12.000Z</time>
      </trkpt>
      <trkpt lat="43.02944" lon="-1.22765">
        <ele>905.150442</ele>
        <time>2026-05-22T13:23:13.000Z</time>
      </trkpt>
      <trkpt lat="43.02935" lon="-1.22768">
        <ele>904.039224</ele>
        <time>2026-05-22T13:23:14.000Z</time>
      </trkpt>
      <trkpt lat="43.02927" lon="-1.22773">
        <ele>902.876151</ele>
        <time>2026-05-22T13:23:15.000Z</time>
      </trkpt>
      <trkpt lat="43.02917" lon="-1.22778">
        <ele>901.649676</ele>
        <time>2026-05-22T13:23:16.000Z</time>
      </trkpt>
      <trkpt lat="43.02907" lon="-1.22784">
        <ele>900.383216</ele>
        <time>2026-05-22T13:23:17.000Z</time>
      </trkpt>
      <trkpt lat="43.02898" lon="-1.22788">
        <ele>899.157829</ele>
        <time>2026-05-22T13:23:18.000Z</time>
      </trkpt>
      <trkpt lat="43.02888" lon="-1.22792">
        <ele>897.979887</ele>
        <time>2026-05-22T13:23:19.000Z</time>
      </trkpt>
      <trkpt lat="43.02879" lon="-1.22793">
        <ele>896.870749</ele>
        <time>2026-05-22T13:23:20.000Z</time>
      </trkpt>
      <trkpt lat="43.0287" lon="-1.22792">
        <ele>895.738875</ele>
        <time>2026-05-22T13:23:21.000Z</time>
      </trkpt>
      <trkpt lat="43.0286" lon="-1.22791">
        <ele>894.57151</ele>
        <time>2026-05-22T13:23:22.000Z</time>
      </trkpt>
      <trkpt lat="43.0285" lon="-1.22792">
        <ele>893.39257</ele>
        <time>2026-05-22T13:23:23.000Z</time>
      </trkpt>
      <trkpt lat="43.02841" lon="-1.22795">
        <ele>892.275014</ele>
        <time>2026-05-22T13:23:24.000Z</time>
      </trkpt>
      <trkpt lat="43.02832" lon="-1.22799">
        <ele>891.137706</ele>
        <time>2026-05-22T13:23:25.000Z</time>
      </trkpt>
      <trkpt lat="43.02822" lon="-1.22805">
        <ele>889.882412</ele>
        <time>2026-05-22T13:23:26.000Z</time>
      </trkpt>
      <trkpt lat="43.02812" lon="-1.22811">
        <ele>888.53002</ele>
        <time>2026-05-22T13:23:27.000Z</time>
      </trkpt>
      <trkpt lat="43.02802" lon="-1.22818">
        <ele>887.146555</ele>
        <time>2026-05-22T13:23:28.000Z</time>
      </trkpt>
      <trkpt lat="43.02792" lon="-1.22826">
        <ele>885.804774</ele>
        <time>2026-05-22T13:23:29.000Z</time>
      </trkpt>
      <trkpt lat="43.02783" lon="-1.22833">
        <ele>884.575624</ele>
        <time>2026-05-22T13:23:30.000Z</time>
      </trkpt>
      <trkpt lat="43.02774" lon="-1.22839">
        <ele>883.442232</ele>
        <time>2026-05-22T13:23:31.000Z</time>
      </trkpt>
      <trkpt lat="43.02766" lon="-1.22847">
        <ele>882.273183</ele>
        <time>2026-05-22T13:23:32.000Z</time>
      </trkpt>
      <trkpt lat="43.02759" lon="-1.22858">
        <ele>881.04816</ele>
        <time>2026-05-22T13:23:33.000Z</time>
      </trkpt>
      <trkpt lat="43.02753" lon="-1.2287">
        <ele>879.782151</ele>
        <time>2026-05-22T13:23:34.000Z</time>
      </trkpt>
      <trkpt lat="43.02746" lon="-1.22882">
        <ele>878.494593</ele>
        <time>2026-05-22T13:23:35.000Z</time>
      </trkpt>
      <trkpt lat="43.02737" lon="-1.22893">
        <ele>877.155908</ele>
        <time>2026-05-22T13:23:36.000Z</time>
      </trkpt>
      <trkpt lat="43.02728" lon="-1.22902">
        <ele>875.769013</ele>
        <time>2026-05-22T13:23:37.000Z</time>
      </trkpt>
      <trkpt lat="43.02718" lon="-1.22911">
        <ele>874.407596</ele>
        <time>2026-05-22T13:23:38.000Z</time>
      </trkpt>
      <trkpt lat="43.02709" lon="-1.22919">
        <ele>873.137442</ele>
        <time>2026-05-22T13:23:39.000Z</time>
      </trkpt>
      <trkpt lat="43.02701" lon="-1.22928">
        <ele>871.94749</ele>
        <time>2026-05-22T13:23:40.000Z</time>
      </trkpt>
      <trkpt lat="43.02693" lon="-1.22937">
        <ele>870.766961</ele>
        <time>2026-05-22T13:23:41.000Z</time>
      </trkpt>
      <trkpt lat="43.02686" lon="-1.22946">
        <ele>869.584043</ele>
        <time>2026-05-22T13:23:42.000Z</time>
      </trkpt>
      <trkpt lat="43.02678" lon="-1.22954">
        <ele>868.488418</ele>
        <time>2026-05-22T13:23:43.000Z</time>
      </trkpt>
      <trkpt lat="43.02671" lon="-1.22961">
        <ele>867.487685</ele>
        <time>2026-05-22T13:23:44.000Z</time>
      </trkpt>
      <trkpt lat="43.02664" lon="-1.22965">
        <ele>866.571951</ele>
        <time>2026-05-22T13:23:45.000Z</time>
      </trkpt>
      <trkpt lat="43.02656" lon="-1.22965">
        <ele>865.662738</ele>
        <time>2026-05-22T13:23:46.000Z</time>
      </trkpt>
      <trkpt lat="43.02649" lon="-1.22962">
        <ele>865.11167</ele>
        <time>2026-05-22T13:23:47.000Z</time>
      </trkpt>
      <trkpt lat="43.02642" lon="-1.22954">
        <ele>864.495575</ele>
        <time>2026-05-22T13:23:48.000Z</time>
      </trkpt>
      <trkpt lat="43.02636" lon="-1.22944">
        <ele>863.820943</ele>
        <time>2026-05-22T13:23:49.000Z</time>
      </trkpt>
      <trkpt lat="43.0263" lon="-1.22933">
        <ele>863.102734</ele>
        <time>2026-05-22T13:23:50.000Z</time>
      </trkpt>
      <trkpt lat="43.02624" lon="-1.22921">
        <ele>862.355536</ele>
        <time>2026-05-22T13:23:51.000Z</time>
      </trkpt>
      <trkpt lat="43.02618" lon="-1.2291">
        <ele>861.64974</ele>
        <time>2026-05-22T13:23:52.000Z</time>
      </trkpt>
      <trkpt lat="43.02611" lon="-1.22901">
        <ele>860.972906</ele>
        <time>2026-05-22T13:23:53.000Z</time>
      </trkpt>
      <trkpt lat="43.02602" lon="-1.22894">
        <ele>860.290567</ele>
        <time>2026-05-22T13:23:54.000Z</time>
      </trkpt>
      <trkpt lat="43.02593" lon="-1.2289">
        <ele>859.617251</ele>
        <time>2026-05-22T13:23:55.000Z</time>
      </trkpt>
      <trkpt lat="43.02583" lon="-1.22888">
        <ele>858.931498</ele>
        <time>2026-05-22T13:23:56.000Z</time>
      </trkpt>
      <trkpt lat="43.02574" lon="-1.22887">
        <ele>858.25148</ele>
        <time>2026-05-22T13:23:57.000Z</time>
      </trkpt>
      <trkpt lat="43.02563" lon="-1.22887">
        <ele>857.53836</ele>
        <time>2026-05-22T13:23:58.000Z</time>
      </trkpt>
      <trkpt lat="43.02553" lon="-1.22888">
        <ele>856.830807</ele>
        <time>2026-05-22T13:23:59.000Z</time>
      </trkpt>
      <trkpt lat="43.02543" lon="-1.2289">
        <ele>856.125029</ele>
        <time>2026-05-22T13:24:00.000Z</time>
      </trkpt>
      <trkpt lat="43.02533" lon="-1.22892">
        <ele>855.435082</ele>
        <time>2026-05-22T13:24:01.000Z</time>
      </trkpt>
      <trkpt lat="43.02523" lon="-1.22894">
        <ele>854.729305</ele>
        <time>2026-05-22T13:24:02.000Z</time>
      </trkpt>
      <trkpt lat="43.02513" lon="-1.22896">
        <ele>854.006634</ele>
        <time>2026-05-22T13:24:03.000Z</time>
      </trkpt>
      <trkpt lat="43.02503" lon="-1.22899">
        <ele>853.263615</ele>
        <time>2026-05-22T13:24:04.000Z</time>
      </trkpt>
      <trkpt lat="43.02494" lon="-1.22903">
        <ele>852.857839</ele>
        <time>2026-05-22T13:24:05.000Z</time>
      </trkpt>
      <trkpt lat="43.02485" lon="-1.2291">
        <ele>852.562231</ele>
        <time>2026-05-22T13:24:06.000Z</time>
      </trkpt>
      <trkpt lat="43.02478" lon="-1.22919">
        <ele>852.263774</ele>
        <time>2026-05-22T13:24:07.000Z</time>
      </trkpt>
      <trkpt lat="43.02471" lon="-1.22927">
        <ele>851.969251</ele>
        <time>2026-05-22T13:24:08.000Z</time>
      </trkpt>
      <trkpt lat="43.02465" lon="-1.22937">
        <ele>851.679476</ele>
        <time>2026-05-22T13:24:09.000Z</time>
      </trkpt>
      <trkpt lat="43.02459" lon="-1.22946">
        <ele>851.401527</ele>
        <time>2026-05-22T13:24:10.000Z</time>
      </trkpt>
      <trkpt lat="43.02453" lon="-1.22954">
        <ele>851.141492</ele>
        <time>2026-05-22T13:24:11.000Z</time>
      </trkpt>
      <trkpt lat="43.02448" lon="-1.22963">
        <ele>850.886459</ele>
        <time>2026-05-22T13:24:12.000Z</time>
      </trkpt>
      <trkpt lat="43.02443" lon="-1.22971">
        <ele>850.645</ele>
        <time>2026-05-22T13:24:13.000Z</time>
      </trkpt>
      <trkpt lat="43.02438" lon="-1.22979">
        <ele>850.41279</ele>
        <time>2026-05-22T13:24:14.000Z</time>
      </trkpt>
      <trkpt lat="43.02434" lon="-1.22987">
        <ele>850.18791</ele>
        <time>2026-05-22T13:24:15.000Z</time>
      </trkpt>
      <trkpt lat="43.0243" lon="-1.22995">
        <ele>849.968407</ele>
        <time>2026-05-22T13:24:16.000Z</time>
      </trkpt>
      <trkpt lat="43.02427" lon="-1.23003">
        <ele>849.760375</ele>
        <time>2026-05-22T13:24:17.000Z</time>
      </trkpt>
      <trkpt lat="43.02424" lon="-1.23011">
        <ele>849.555831</ele>
        <time>2026-05-22T13:24:18.000Z</time>
      </trkpt>
      <trkpt lat="43.0242" lon="-1.23019">
        <ele>849.356514</ele>
        <time>2026-05-22T13:24:19.000Z</time>
      </trkpt>
      <trkpt lat="43.02416" lon="-1.23025">
        <ele>849.160606</ele>
        <time>2026-05-22T13:24:20.000Z</time>
      </trkpt>
      <trkpt lat="43.02412" lon="-1.23032">
        <ele>848.962073</ele>
        <time>2026-05-22T13:24:21.000Z</time>
      </trkpt>
      <trkpt lat="43.02407" lon="-1.23038">
        <ele>848.753747</ele>
        <time>2026-05-22T13:24:22.000Z</time>
      </trkpt>
      <trkpt lat="43.02402" lon="-1.23044">
        <ele>848.543873</ele>
        <time>2026-05-22T13:24:23.000Z</time>
      </trkpt>
      <trkpt lat="43.02397" lon="-1.2305">
        <ele>848.337821</ele>
        <time>2026-05-22T13:24:24.000Z</time>
      </trkpt>
      <trkpt lat="43.02391" lon="-1.23056">
        <ele>848.119886</ele>
        <time>2026-05-22T13:24:25.000Z</time>
      </trkpt>
      <trkpt lat="43.02385" lon="-1.23062">
        <ele>847.888466</ele>
        <time>2026-05-22T13:24:26.000Z</time>
      </trkpt>
      <trkpt lat="43.02378" lon="-1.23066">
        <ele>847.642288</ele>
        <time>2026-05-22T13:24:27.000Z</time>
      </trkpt>
      <trkpt lat="43.0237" lon="-1.2307">
        <ele>847.311609</ele>
        <time>2026-05-22T13:24:28.000Z</time>
      </trkpt>
      <trkpt lat="43.02361" lon="-1.23072">
        <ele>846.786871</ele>
        <time>2026-05-22T13:24:29.000Z</time>
      </trkpt>
      <trkpt lat="43.02352" lon="-1.23072">
        <ele>846.308913</ele>
        <time>2026-05-22T13:24:30.000Z</time>
      </trkpt>
      <trkpt lat="43.02343" lon="-1.23072">
        <ele>845.820609</ele>
        <time>2026-05-22T13:24:31.000Z</time>
      </trkpt>
      <trkpt lat="43.02333" lon="-1.23071">
        <ele>845.330419</ele>
        <time>2026-05-22T13:24:32.000Z</time>
      </trkpt>
      <trkpt lat="43.02324" lon="-1.23068">
        <ele>844.78716</ele>
        <time>2026-05-22T13:24:33.000Z</time>
      </trkpt>
      <trkpt lat="43.02314" lon="-1.23064">
        <ele>844.233708</ele>
        <time>2026-05-22T13:24:34.000Z</time>
      </trkpt>
      <trkpt lat="43.02304" lon="-1.23058">
        <ele>843.665724</ele>
        <time>2026-05-22T13:24:35.000Z</time>
      </trkpt>
      <trkpt lat="43.02295" lon="-1.23051">
        <ele>843.084846</ele>
        <time>2026-05-22T13:24:36.000Z</time>
      </trkpt>
      <trkpt lat="43.02285" lon="-1.23043">
        <ele>842.480362</ele>
        <time>2026-05-22T13:24:37.000Z</time>
      </trkpt>
      <trkpt lat="43.02275" lon="-1.23036">
        <ele>841.866257</ele>
        <time>2026-05-22T13:24:38.000Z</time>
      </trkpt>
      <trkpt lat="43.02264" lon="-1.2303">
        <ele>841.250112</ele>
        <time>2026-05-22T13:24:39.000Z</time>
      </trkpt>
      <trkpt lat="43.02253" lon="-1.23026">
        <ele>840.625452</ele>
        <time>2026-05-22T13:24:40.000Z</time>
      </trkpt>
      <trkpt lat="43.02242" lon="-1.23022">
        <ele>840.021185</ele>
        <time>2026-05-22T13:24:41.000Z</time>
      </trkpt>
      <trkpt lat="43.02232" lon="-1.2302">
        <ele>839.466486</ele>
        <time>2026-05-22T13:24:42.000Z</time>
      </trkpt>
      <trkpt lat="43.02222" lon="-1.23018">
        <ele>838.921355</ele>
        <time>2026-05-22T13:24:43.000Z</time>
      </trkpt>
      <trkpt lat="43.02212" lon="-1.23017">
        <ele>838.382714</ele>
        <time>2026-05-22T13:24:44.000Z</time>
      </trkpt>
      <trkpt lat="43.02202" lon="-1.23015">
        <ele>837.86635</ele>
        <time>2026-05-22T13:24:45.000Z</time>
      </trkpt>
      <trkpt lat="43.02192" lon="-1.23014">
        <ele>837.153605</ele>
        <time>2026-05-22T13:24:46.000Z</time>
      </trkpt>
      <trkpt lat="43.02182" lon="-1.23014">
        <ele>836.453448</ele>
        <time>2026-05-22T13:24:47.000Z</time>
      </trkpt>
      <trkpt lat="43.02172" lon="-1.23015">
        <ele>835.731575</ele>
        <time>2026-05-22T13:24:48.000Z</time>
      </trkpt>
      <trkpt lat="43.02162" lon="-1.23015">
        <ele>834.995253</ele>
        <time>2026-05-22T13:24:49.000Z</time>
      </trkpt>
      <trkpt lat="43.02152" lon="-1.23016">
        <ele>834.255769</ele>
        <time>2026-05-22T13:24:50.000Z</time>
      </trkpt>
      <trkpt lat="43.02141" lon="-1.23018">
        <ele>833.486194</ele>
        <time>2026-05-22T13:24:51.000Z</time>
      </trkpt>
      <trkpt lat="43.0213" lon="-1.2302">
        <ele>832.694084</ele>
        <time>2026-05-22T13:24:52.000Z</time>
      </trkpt>
      <trkpt lat="43.02119" lon="-1.23022">
        <ele>831.903784</ele>
        <time>2026-05-22T13:24:53.000Z</time>
      </trkpt>
      <trkpt lat="43.02107" lon="-1.23023">
        <ele>831.079392</ele>
        <time>2026-05-22T13:24:54.000Z</time>
      </trkpt>
      <trkpt lat="43.02095" lon="-1.23026">
        <ele>830.187689</ele>
        <time>2026-05-22T13:24:55.000Z</time>
      </trkpt>
      <trkpt lat="43.02083" lon="-1.2303">
        <ele>829.272475</ele>
        <time>2026-05-22T13:24:56.000Z</time>
      </trkpt>
      <trkpt lat="43.02071" lon="-1.23036">
        <ele>828.410203</ele>
        <time>2026-05-22T13:24:57.000Z</time>
      </trkpt>
      <trkpt lat="43.02061" lon="-1.23043">
        <ele>827.549551</ele>
        <time>2026-05-22T13:24:58.000Z</time>
      </trkpt>
      <trkpt lat="43.0205" lon="-1.2305">
        <ele>826.726151</ele>
        <time>2026-05-22T13:24:59.000Z</time>
      </trkpt>
      <trkpt lat="43.02039" lon="-1.23055">
        <ele>825.900988</ele>
        <time>2026-05-22T13:25:00.000Z</time>
      </trkpt>
      <trkpt lat="43.02028" lon="-1.2306">
        <ele>825.082203</ele>
        <time>2026-05-22T13:25:01.000Z</time>
      </trkpt>
      <trkpt lat="43.02017" lon="-1.23064">
        <ele>824.164205</ele>
        <time>2026-05-22T13:25:02.000Z</time>
      </trkpt>
      <trkpt lat="43.02007" lon="-1.23068">
        <ele>823.293175</ele>
        <time>2026-05-22T13:25:03.000Z</time>
      </trkpt>
      <trkpt lat="43.01998" lon="-1.23072">
        <ele>822.500215</ele>
        <time>2026-05-22T13:25:04.000Z</time>
      </trkpt>
      <trkpt lat="43.01989" lon="-1.23076">
        <ele>821.706917</ele>
        <time>2026-05-22T13:25:05.000Z</time>
      </trkpt>
      <trkpt lat="43.01981" lon="-1.2308">
        <ele>821.002728</ele>
        <time>2026-05-22T13:25:06.000Z</time>
      </trkpt>
      <trkpt lat="43.01974" lon="-1.23083">
        <ele>820.378614</ele>
        <time>2026-05-22T13:25:07.000Z</time>
      </trkpt>
      <trkpt lat="43.01967" lon="-1.23085">
        <ele>819.813067</ele>
        <time>2026-05-22T13:25:08.000Z</time>
      </trkpt>
      <trkpt lat="43.01962" lon="-1.23086">
        <ele>819.31292</ele>
        <time>2026-05-22T13:25:09.000Z</time>
      </trkpt>
      <trkpt lat="43.01954" lon="-1.23086">
        <ele>818.714225</ele>
        <time>2026-05-22T13:25:10.000Z</time>
      </trkpt>
      <trkpt lat="43.01948" lon="-1.23086">
        <ele>818.173702</ele>
        <time>2026-05-22T13:25:11.000Z</time>
      </trkpt>
      <trkpt lat="43.01941" lon="-1.23085">
        <ele>817.587083</ele>
        <time>2026-05-22T13:25:12.000Z</time>
      </trkpt>
      <trkpt lat="43.01934" lon="-1.23083">
        <ele>816.998829</ele>
        <time>2026-05-22T13:25:13.000Z</time>
      </trkpt>
      <trkpt lat="43.01927" lon="-1.23083">
        <ele>816.448814</ele>
        <time>2026-05-22T13:25:14.000Z</time>
      </trkpt>
      <trkpt lat="43.01921" lon="-1.23081">
        <ele>815.924175</ele>
        <time>2026-05-22T13:25:15.000Z</time>
      </trkpt>
      <trkpt lat="43.01915" lon="-1.23079">
        <ele>815.41404</ele>
        <time>2026-05-22T13:25:16.000Z</time>
      </trkpt>
      <trkpt lat="43.01911" lon="-1.23077">
        <ele>815.016195</ele>
        <time>2026-05-22T13:25:17.000Z</time>
      </trkpt>
      <trkpt lat="43.01907" lon="-1.23075">
        <ele>814.67763</ele>
        <time>2026-05-22T13:25:18.000Z</time>
      </trkpt>
      <trkpt lat="43.01905" lon="-1.23073">
        <ele>814.505364</ele>
        <time>2026-05-22T13:25:19.000Z</time>
      </trkpt>
      <trkpt lat="43.01904" lon="-1.23071">
        <ele>814.322482</ele>
        <time>2026-05-22T13:25:20.000Z</time>
      </trkpt>
      <trkpt lat="43.01902" lon="-1.23069">
        <ele>814.146292</ele>
        <time>2026-05-22T13:25:21.000Z</time>
      </trkpt>
      <trkpt lat="43.019" lon="-1.23066">
        <ele>813.894944</ele>
        <time>2026-05-22T13:25:22.000Z</time>
      </trkpt>
      <trkpt lat="43.01898" lon="-1.23063">
        <ele>813.63067</ele>
        <time>2026-05-22T13:25:23.000Z</time>
      </trkpt>
      <trkpt lat="43.01895" lon="-1.2306">
        <ele>813.293731</ele>
        <time>2026-05-22T13:25:24.000Z</time>
      </trkpt>
      <trkpt lat="43.01891" lon="-1.23055">
        <ele>812.922246</ele>
        <time>2026-05-22T13:25:25.000Z</time>
      </trkpt>
      <trkpt lat="43.01888" lon="-1.2305">
        <ele>812.500049</ele>
        <time>2026-05-22T13:25:26.000Z</time>
      </trkpt>
      <trkpt lat="43.01886" lon="-1.23044">
        <ele>812.071947</ele>
        <time>2026-05-22T13:25:27.000Z</time>
      </trkpt>
      <trkpt lat="43.01883" lon="-1.23037">
        <ele>811.627987</ele>
        <time>2026-05-22T13:25:28.000Z</time>
      </trkpt>
      <trkpt lat="43.01881" lon="-1.23031">
        <ele>811.19804</ele>
        <time>2026-05-22T13:25:29.000Z</time>
      </trkpt>
      <trkpt lat="43.01879" lon="-1.23024">
        <ele>810.764085</ele>
        <time>2026-05-22T13:25:30.000Z</time>
      </trkpt>
      <trkpt lat="43.01877" lon="-1.23017">
        <ele>810.279506</ele>
        <time>2026-05-22T13:25:31.000Z</time>
      </trkpt>
      <trkpt lat="43.01874" lon="-1.2301">
        <ele>809.993431</ele>
        <time>2026-05-22T13:25:32.000Z</time>
      </trkpt>
      <trkpt lat="43.01872" lon="-1.23003">
        <ele>809.880419</ele>
        <time>2026-05-22T13:25:33.000Z</time>
      </trkpt>
      <trkpt lat="43.0187" lon="-1.22996">
        <ele>809.764515</ele>
        <time>2026-05-22T13:25:34.000Z</time>
      </trkpt>
      <trkpt lat="43.01867" lon="-1.22988">
        <ele>809.641677</ele>
        <time>2026-05-22T13:25:35.000Z</time>
      </trkpt>
      <trkpt lat="43.01865" lon="-1.22981">
        <ele>809.513946</ele>
        <time>2026-05-22T13:25:36.000Z</time>
      </trkpt>
      <trkpt lat="43.01862" lon="-1.22973">
        <ele>809.384685</ele>
        <time>2026-05-22T13:25:37.000Z</time>
      </trkpt>
      <trkpt lat="43.01858" lon="-1.22966">
        <ele>809.254872</ele>
        <time>2026-05-22T13:25:38.000Z</time>
      </trkpt>
      <trkpt lat="43.01854" lon="-1.22959">
        <ele>809.124155</ele>
        <time>2026-05-22T13:25:39.000Z</time>
      </trkpt>
      <trkpt lat="43.0185" lon="-1.22952">
        <ele>808.989657</ele>
        <time>2026-05-22T13:25:40.000Z</time>
      </trkpt>
      <trkpt lat="43.01846" lon="-1.22945">
        <ele>808.863614</ele>
        <time>2026-05-22T13:25:41.000Z</time>
      </trkpt>
      <trkpt lat="43.01842" lon="-1.22939">
        <ele>808.743256</ele>
        <time>2026-05-22T13:25:42.000Z</time>
      </trkpt>
      <trkpt lat="43.01838" lon="-1.22934">
        <ele>808.624533</ele>
        <time>2026-05-22T13:25:43.000Z</time>
      </trkpt>
      <trkpt lat="43.01833" lon="-1.22929">
        <ele>808.506313</ele>
        <time>2026-05-22T13:25:44.000Z</time>
      </trkpt>
      <trkpt lat="43.01828" lon="-1.22925">
        <ele>808.388838</ele>
        <time>2026-05-22T13:25:45.000Z</time>
      </trkpt>
      <trkpt lat="43.01823" lon="-1.22922">
        <ele>808.269276</ele>
        <time>2026-05-22T13:25:46.000Z</time>
      </trkpt>
      <trkpt lat="43.01818" lon="-1.22919">
        <ele>808.156494</ele>
        <time>2026-05-22T13:25:47.000Z</time>
      </trkpt>
      <trkpt lat="43.01812" lon="-1.22916">
        <ele>808.043077</ele>
        <time>2026-05-22T13:25:48.000Z</time>
      </trkpt>
      <trkpt lat="43.01807" lon="-1.22914">
        <ele>807.925796</ele>
        <time>2026-05-22T13:25:49.000Z</time>
      </trkpt>
      <trkpt lat="43.01801" lon="-1.22913">
        <ele>807.8006</ele>
        <time>2026-05-22T13:25:50.000Z</time>
      </trkpt>
      <trkpt lat="43.01794" lon="-1.22912">
        <ele>807.672194</ele>
        <time>2026-05-22T13:25:51.000Z</time>
      </trkpt>
      <trkpt lat="43.01788" lon="-1.22911">
        <ele>807.549214</ele>
        <time>2026-05-22T13:25:52.000Z</time>
      </trkpt>
      <trkpt lat="43.01782" lon="-1.22911">
        <ele>807.417092</ele>
        <time>2026-05-22T13:25:53.000Z</time>
      </trkpt>
      <trkpt lat="43.01776" lon="-1.2291">
        <ele>807.291061</ele>
        <time>2026-05-22T13:25:54.000Z</time>
      </trkpt>
      <trkpt lat="43.01769" lon="-1.2291">
        <ele>807.15888</ele>
        <time>2026-05-22T13:25:55.000Z</time>
      </trkpt>
      <trkpt lat="43.01763" lon="-1.22909">
        <ele>807.022568</ele>
        <time>2026-05-22T13:25:56.000Z</time>
      </trkpt>
      <trkpt lat="43.01756" lon="-1.22909">
        <ele>806.884035</ele>
        <time>2026-05-22T13:25:57.000Z</time>
      </trkpt>
      <trkpt lat="43.01749" lon="-1.22909">
        <ele>806.747893</ele>
        <time>2026-05-22T13:25:58.000Z</time>
      </trkpt>
      <trkpt lat="43.01742" lon="-1.22908">
        <ele>806.605062</ele>
        <time>2026-05-22T13:25:59.000Z</time>
      </trkpt>
      <trkpt lat="43.01734" lon="-1.22907">
        <ele>806.450318</ele>
        <time>2026-05-22T13:26:00.000Z</time>
      </trkpt>
      <trkpt lat="43.01727" lon="-1.22906">
        <ele>806.322065</ele>
        <time>2026-05-22T13:26:01.000Z</time>
      </trkpt>
      <trkpt lat="43.0172" lon="-1.22904">
        <ele>806.200386</ele>
        <time>2026-05-22T13:26:02.000Z</time>
      </trkpt>
      <trkpt lat="43.01713" lon="-1.22902">
        <ele>806.080324</ele>
        <time>2026-05-22T13:26:03.000Z</time>
      </trkpt>
      <trkpt lat="43.01706" lon="-1.229">
        <ele>805.9626</ele>
        <time>2026-05-22T13:26:04.000Z</time>
      </trkpt>
      <trkpt lat="43.01699" lon="-1.22898">
        <ele>805.840922</ele>
        <time>2026-05-22T13:26:05.000Z</time>
      </trkpt>
      <trkpt lat="43.01692" lon="-1.22895">
        <ele>805.718985</ele>
        <time>2026-05-22T13:26:06.000Z</time>
      </trkpt>
      <trkpt lat="43.01685" lon="-1.22892">
        <ele>805.596163</ele>
        <time>2026-05-22T13:26:07.000Z</time>
      </trkpt>
      <trkpt lat="43.01678" lon="-1.22889">
        <ele>805.472127</ele>
        <time>2026-05-22T13:26:08.000Z</time>
      </trkpt>
      <trkpt lat="43.01671" lon="-1.22886">
        <ele>805.353656</ele>
        <time>2026-05-22T13:26:09.000Z</time>
      </trkpt>
      <trkpt lat="43.01664" lon="-1.22882">
        <ele>805.232841</ele>
        <time>2026-05-22T13:26:10.000Z</time>
      </trkpt>
      <trkpt lat="43.01658" lon="-1.22879">
        <ele>805.12218</ele>
        <time>2026-05-22T13:26:11.000Z</time>
      </trkpt>
      <trkpt lat="43.01651" lon="-1.22876">
        <ele>805.003202</ele>
        <time>2026-05-22T13:26:12.000Z</time>
      </trkpt>
      <trkpt lat="43.01644" lon="-1.22872">
        <ele>804.888606</ele>
        <time>2026-05-22T13:26:13.000Z</time>
      </trkpt>
      <trkpt lat="43.01637" lon="-1.22869">
        <ele>804.766229</ele>
        <time>2026-05-22T13:26:14.000Z</time>
      </trkpt>
      <trkpt lat="43.01631" lon="-1.22867">
        <ele>804.65637</ele>
        <time>2026-05-22T13:26:15.000Z</time>
      </trkpt>
      <trkpt lat="43.01625" lon="-1.22866">
        <ele>804.551398</ele>
        <time>2026-05-22T13:26:16.000Z</time>
      </trkpt>
      <trkpt lat="43.01619" lon="-1.22865">
        <ele>804.455048</ele>
        <time>2026-05-22T13:26:17.000Z</time>
      </trkpt>
      <trkpt lat="43.01613" lon="-1.22865">
        <ele>804.35588</ele>
        <time>2026-05-22T13:26:18.000Z</time>
      </trkpt>
      <trkpt lat="43.01607" lon="-1.22865">
        <ele>804.268272</ele>
        <time>2026-05-22T13:26:19.000Z</time>
      </trkpt>
      <trkpt lat="43.01602" lon="-1.22865">
        <ele>804.178816</ele>
        <time>2026-05-22T13:26:20.000Z</time>
      </trkpt>
      <trkpt lat="43.01597" lon="-1.22865">
        <ele>804.08927</ele>
        <time>2026-05-22T13:26:21.000Z</time>
      </trkpt>
      <trkpt lat="43.01591" lon="-1.22867">
        <ele>804.000479</ele>
        <time>2026-05-22T13:26:22.000Z</time>
      </trkpt>
      <trkpt lat="43.01587" lon="-1.22869">
        <ele>803.918756</ele>
        <time>2026-05-22T13:26:23.000Z</time>
      </trkpt>
      <trkpt lat="43.01581" lon="-1.22871">
        <ele>803.826853</ele>
        <time>2026-05-22T13:26:24.000Z</time>
      </trkpt>
      <trkpt lat="43.01576" lon="-1.22874">
        <ele>803.72949</ele>
        <time>2026-05-22T13:26:25.000Z</time>
      </trkpt>
      <trkpt lat="43.0157" lon="-1.22877">
        <ele>803.627094</ele>
        <time>2026-05-22T13:26:26.000Z</time>
      </trkpt>
      <trkpt lat="43.01565" lon="-1.22879">
        <ele>803.532014</ele>
        <time>2026-05-22T13:26:27.000Z</time>
      </trkpt>
      <trkpt lat="43.01559" lon="-1.22883">
        <ele>803.436751</ele>
        <time>2026-05-22T13:26:28.000Z</time>
      </trkpt>
      <trkpt lat="43.01554" lon="-1.22886">
        <ele>803.337993</ele>
        <time>2026-05-22T13:26:29.000Z</time>
      </trkpt>
      <trkpt lat="43.0155" lon="-1.2289">
        <ele>803.255563</ele>
        <time>2026-05-22T13:26:30.000Z</time>
      </trkpt>
      <trkpt lat="43.01545" lon="-1.22895">
        <ele>803.160204</ele>
        <time>2026-05-22T13:26:31.000Z</time>
      </trkpt>
      <trkpt lat="43.0154" lon="-1.22897">
        <ele>803.072325</ele>
        <time>2026-05-22T13:26:32.000Z</time>
      </trkpt>
      <trkpt lat="43.01534" lon="-1.229">
        <ele>802.967151</ele>
        <time>2026-05-22T13:26:33.000Z</time>
      </trkpt>
      <trkpt lat="43.01528" lon="-1.22905">
        <ele>802.854494</ele>
        <time>2026-05-22T13:26:34.000Z</time>
      </trkpt>
      <trkpt lat="43.01522" lon="-1.22909">
        <ele>802.743614</ele>
        <time>2026-05-22T13:26:35.000Z</time>
      </trkpt>
      <trkpt lat="43.01516" lon="-1.22912">
        <ele>802.635709</ele>
        <time>2026-05-22T13:26:36.000Z</time>
      </trkpt>
      <trkpt lat="43.0151" lon="-1.22915">
        <ele>802.526032</ele>
        <time>2026-05-22T13:26:37.000Z</time>
      </trkpt>
      <trkpt lat="43.01503" lon="-1.22919">
        <ele>802.403415</ele>
        <time>2026-05-22T13:26:38.000Z</time>
      </trkpt>
      <trkpt lat="43.01497" lon="-1.2292">
        <ele>802.297223</ele>
        <time>2026-05-22T13:26:39.000Z</time>
      </trkpt>
      <trkpt lat="43.0149" lon="-1.2292">
        <ele>802.193268</ele>
        <time>2026-05-22T13:26:40.000Z</time>
      </trkpt>
      <trkpt lat="43.01484" lon="-1.22919">
        <ele>802.093385</ele>
        <time>2026-05-22T13:26:41.000Z</time>
      </trkpt>
      <trkpt lat="43.01478" lon="-1.22918">
        <ele>801.988434</ele>
        <time>2026-05-22T13:26:42.000Z</time>
      </trkpt>
      <trkpt lat="43.01472" lon="-1.22917">
        <ele>801.879296</ele>
        <time>2026-05-22T13:26:43.000Z</time>
      </trkpt>
      <trkpt lat="43.01465" lon="-1.22916">
        <ele>801.774651</ele>
        <time>2026-05-22T13:26:44.000Z</time>
      </trkpt>
      <trkpt lat="43.01459" lon="-1.22916">
        <ele>801.677236</ele>
        <time>2026-05-22T13:26:45.000Z</time>
      </trkpt>
      <trkpt lat="43.01453" lon="-1.22916">
        <ele>801.576581</ele>
        <time>2026-05-22T13:26:46.000Z</time>
      </trkpt>
      <trkpt lat="43.01447" lon="-1.22916">
        <ele>801.480852</ele>
        <time>2026-05-22T13:26:47.000Z</time>
      </trkpt>
      <trkpt lat="43.01441" lon="-1.22915">
        <ele>801.377697</ele>
        <time>2026-05-22T13:26:48.000Z</time>
      </trkpt>
      <trkpt lat="43.01435" lon="-1.22913">
        <ele>801.277059</ele>
        <time>2026-05-22T13:26:49.000Z</time>
      </trkpt>
      <trkpt lat="43.01429" lon="-1.22911">
        <ele>801.176158</ele>
        <time>2026-05-22T13:26:50.000Z</time>
      </trkpt>
      <trkpt lat="43.01423" lon="-1.22908">
        <ele>801.071435</ele>
        <time>2026-05-22T13:26:51.000Z</time>
      </trkpt>
      <trkpt lat="43.01417" lon="-1.22904">
        <ele>800.961332</ele>
        <time>2026-05-22T13:26:52.000Z</time>
      </trkpt>
      <trkpt lat="43.01412" lon="-1.22901">
        <ele>800.862099</ele>
        <time>2026-05-22T13:26:53.000Z</time>
      </trkpt>
      <trkpt lat="43.01406" lon="-1.22898">
        <ele>800.751996</ele>
        <time>2026-05-22T13:26:54.000Z</time>
      </trkpt>
      <trkpt lat="43.01399" lon="-1.22894">
        <ele>800.63563</ele>
        <time>2026-05-22T13:26:55.000Z</time>
      </trkpt>
      <trkpt lat="43.01393" lon="-1.22891">
        <ele>800.521231</ele>
        <time>2026-05-22T13:26:56.000Z</time>
      </trkpt>
      <trkpt lat="43.01386" lon="-1.22887">
        <ele>800.398148</ele>
        <time>2026-05-22T13:26:57.000Z</time>
      </trkpt>
      <trkpt lat="43.0138" lon="-1.22883">
        <ele>800.269023</ele>
        <time>2026-05-22T13:26:58.000Z</time>
      </trkpt>
      <trkpt lat="43.01373" lon="-1.22879">
        <ele>800.142472</ele>
        <time>2026-05-22T13:26:59.000Z</time>
      </trkpt>
      <trkpt lat="43.01367" lon="-1.22874">
        <ele>800.016251</ele>
        <time>2026-05-22T13:27:00.000Z</time>
      </trkpt>
      <trkpt lat="43.01361" lon="-1.2287">
        <ele>799.8821</ele>
        <time>2026-05-22T13:27:01.000Z</time>
      </trkpt>
      <trkpt lat="43.01354" lon="-1.22866">
        <ele>799.737929</ele>
        <time>2026-05-22T13:27:02.000Z</time>
      </trkpt>
      <trkpt lat="43.01346" lon="-1.22862">
        <ele>799.596504</ele>
        <time>2026-05-22T13:27:03.000Z</time>
      </trkpt>
      <trkpt lat="43.01339" lon="-1.22857">
        <ele>799.454569</ele>
        <time>2026-05-22T13:27:04.000Z</time>
      </trkpt>
      <trkpt lat="43.01332" lon="-1.22853">
        <ele>799.30651</ele>
        <time>2026-05-22T13:27:05.000Z</time>
      </trkpt>
      <trkpt lat="43.01325" lon="-1.22848">
        <ele>799.155639</ele>
        <time>2026-05-22T13:27:06.000Z</time>
      </trkpt>
      <trkpt lat="43.01317" lon="-1.22843">
        <ele>799.001456</ele>
        <time>2026-05-22T13:27:07.000Z</time>
      </trkpt>
      <trkpt lat="43.0131" lon="-1.22838">
        <ele>798.852234</ele>
        <time>2026-05-22T13:27:08.000Z</time>
      </trkpt>
      <trkpt lat="43.01303" lon="-1.22833">
        <ele>798.704175</ele>
        <time>2026-05-22T13:27:09.000Z</time>
      </trkpt>
      <trkpt lat="43.01296" lon="-1.22829">
        <ele>798.562805</ele>
        <time>2026-05-22T13:27:10.000Z</time>
      </trkpt>
      <trkpt lat="43.01289" lon="-1.22825">
        <ele>798.428008</ele>
        <time>2026-05-22T13:27:11.000Z</time>
      </trkpt>
      <trkpt lat="43.01282" lon="-1.22823">
        <ele>798.297022</ele>
        <time>2026-05-22T13:27:12.000Z</time>
      </trkpt>
      <trkpt lat="43.01275" lon="-1.22822">
        <ele>798.173193</ele>
        <time>2026-05-22T13:27:13.000Z</time>
      </trkpt>
      <trkpt lat="43.01268" lon="-1.2282">
        <ele>798.041914</ele>
        <time>2026-05-22T13:27:14.000Z</time>
      </trkpt>
      <trkpt lat="43.01261" lon="-1.22819">
        <ele>797.910794</ele>
        <time>2026-05-22T13:27:15.000Z</time>
      </trkpt>
      <trkpt lat="43.01254" lon="-1.22818">
        <ele>797.776166</ele>
        <time>2026-05-22T13:27:16.000Z</time>
      </trkpt>
      <trkpt lat="43.01247" lon="-1.22818">
        <ele>797.645768</ele>
        <time>2026-05-22T13:27:17.000Z</time>
      </trkpt>
      <trkpt lat="43.01239" lon="-1.22818">
        <ele>797.515474</ele>
        <time>2026-05-22T13:27:18.000Z</time>
      </trkpt>
      <trkpt lat="43.01232" lon="-1.22817">
        <ele>797.383182</ele>
        <time>2026-05-22T13:27:19.000Z</time>
      </trkpt>
      <trkpt lat="43.01226" lon="-1.22818">
        <ele>797.261884</ele>
        <time>2026-05-22T13:27:20.000Z</time>
      </trkpt>
      <trkpt lat="43.01219" lon="-1.22819">
        <ele>797.138605</ele>
        <time>2026-05-22T13:27:21.000Z</time>
      </trkpt>
      <trkpt lat="43.01212" lon="-1.22821">
        <ele>797.029989</ele>
        <time>2026-05-22T13:27:22.000Z</time>
      </trkpt>
      <trkpt lat="43.01206" lon="-1.22824">
        <ele>796.926349</ele>
        <time>2026-05-22T13:27:23.000Z</time>
      </trkpt>
      <trkpt lat="43.012" lon="-1.22827">
        <ele>796.824901</ele>
        <time>2026-05-22T13:27:24.000Z</time>
      </trkpt>
      <trkpt lat="43.01195" lon="-1.2283">
        <ele>796.731225</ele>
        <time>2026-05-22T13:27:25.000Z</time>
      </trkpt>
      <trkpt lat="43.0119" lon="-1.22831">
        <ele>796.643185</ele>
        <time>2026-05-22T13:27:26.000Z</time>
      </trkpt>
      <trkpt lat="43.01185" lon="-1.22834">
        <ele>796.555611</ele>
        <time>2026-05-22T13:27:27.000Z</time>
      </trkpt>
      <trkpt lat="43.0118" lon="-1.22838">
        <ele>796.473635</ele>
        <time>2026-05-22T13:27:28.000Z</time>
      </trkpt>
      <trkpt lat="43.01177" lon="-1.22843">
        <ele>796.39197</ele>
        <time>2026-05-22T13:27:29.000Z</time>
      </trkpt>
      <trkpt lat="43.01174" lon="-1.22848">
        <ele>796.316169</ele>
        <time>2026-05-22T13:27:30.000Z</time>
      </trkpt>
      <trkpt lat="43.01171" lon="-1.22853">
        <ele>796.237358</ele>
        <time>2026-05-22T13:27:31.000Z</time>
      </trkpt>
      <trkpt lat="43.01168" lon="-1.22858">
        <ele>796.154917</ele>
        <time>2026-05-22T13:27:32.000Z</time>
      </trkpt>
      <trkpt lat="43.01164" lon="-1.22863">
        <ele>796.0726</ele>
        <time>2026-05-22T13:27:33.000Z</time>
      </trkpt>
      <trkpt lat="43.0116" lon="-1.22867">
        <ele>795.997071</ele>
        <time>2026-05-22T13:27:34.000Z</time>
      </trkpt>
      <trkpt lat="43.01158" lon="-1.22872">
        <ele>795.919503</ele>
        <time>2026-05-22T13:27:35.000Z</time>
      </trkpt>
      <trkpt lat="43.01155" lon="-1.22878">
        <ele>795.833071</ele>
        <time>2026-05-22T13:27:36.000Z</time>
      </trkpt>
      <trkpt lat="43.01152" lon="-1.22884">
        <ele>795.746899</ele>
        <time>2026-05-22T13:27:37.000Z</time>
      </trkpt>
      <trkpt lat="43.01148" lon="-1.2289">
        <ele>795.651215</ele>
        <time>2026-05-22T13:27:38.000Z</time>
      </trkpt>
      <trkpt lat="43.01143" lon="-1.22895">
        <ele>795.55652</ele>
        <time>2026-05-22T13:27:39.000Z</time>
      </trkpt>
      <trkpt lat="43.01139" lon="-1.22902">
        <ele>795.449769</ele>
        <time>2026-05-22T13:27:40.000Z</time>
      </trkpt>
      <trkpt lat="43.01133" lon="-1.22908">
        <ele>795.334154</ele>
        <time>2026-05-22T13:27:41.000Z</time>
      </trkpt>
      <trkpt lat="43.01127" lon="-1.22914">
        <ele>795.210162</ele>
        <time>2026-05-22T13:27:42.000Z</time>
      </trkpt>
      <trkpt lat="43.01121" lon="-1.22921">
        <ele>795.082253</ele>
        <time>2026-05-22T13:27:43.000Z</time>
      </trkpt>
      <trkpt lat="43.01114" lon="-1.22925">
        <ele>794.955234</ele>
        <time>2026-05-22T13:27:44.000Z</time>
      </trkpt>
      <trkpt lat="43.01106" lon="-1.22928">
        <ele>794.831929</ele>
        <time>2026-05-22T13:27:45.000Z</time>
      </trkpt>
      <trkpt lat="43.01099" lon="-1.2293">
        <ele>794.715734</ele>
        <time>2026-05-22T13:27:46.000Z</time>
      </trkpt>
      <trkpt lat="43.01092" lon="-1.22929">
        <ele>794.605408</ele>
        <time>2026-05-22T13:27:47.000Z</time>
      </trkpt>
      <trkpt lat="43.01086" lon="-1.22928">
        <ele>794.499434</ele>
        <time>2026-05-22T13:27:48.000Z</time>
      </trkpt>
      <trkpt lat="43.0108" lon="-1.22928">
        <ele>794.398523</ele>
        <time>2026-05-22T13:27:49.000Z</time>
      </trkpt>
      <trkpt lat="43.01074" lon="-1.22927">
        <ele>794.306916</ele>
        <time>2026-05-22T13:27:50.000Z</time>
      </trkpt>
      <trkpt lat="43.01069" lon="-1.22925">
        <ele>794.234939</ele>
        <time>2026-05-22T13:27:51.000Z</time>
      </trkpt>
      <trkpt lat="43.01063" lon="-1.22924">
        <ele>794.222792</ele>
        <time>2026-05-22T13:27:52.000Z</time>
      </trkpt>
      <trkpt lat="43.01058" lon="-1.22923">
        <ele>794.210258</ele>
        <time>2026-05-22T13:27:53.000Z</time>
      </trkpt>
      <trkpt lat="43.01052" lon="-1.22921">
        <ele>794.197433</ele>
        <time>2026-05-22T13:27:54.000Z</time>
      </trkpt>
      <trkpt lat="43.01047" lon="-1.22919">
        <ele>794.185011</ele>
        <time>2026-05-22T13:27:55.000Z</time>
      </trkpt>
      <trkpt lat="43.01042" lon="-1.22918">
        <ele>794.173072</ele>
        <time>2026-05-22T13:27:56.000Z</time>
      </trkpt>
      <trkpt lat="43.01037" lon="-1.22916">
        <ele>794.161392</ele>
        <time>2026-05-22T13:27:57.000Z</time>
      </trkpt>
      <trkpt lat="43.01032" lon="-1.22915">
        <ele>794.150596</ele>
        <time>2026-05-22T13:27:58.000Z</time>
      </trkpt>
      <trkpt lat="43.01028" lon="-1.22912">
        <ele>794.139565</ele>
        <time>2026-05-22T13:27:59.000Z</time>
      </trkpt>
      <trkpt lat="43.01024" lon="-1.2291">
        <ele>794.129393</ele>
        <time>2026-05-22T13:28:00.000Z</time>
      </trkpt>
      <trkpt lat="43.01019" lon="-1.22908">
        <ele>794.119115</ele>
        <time>2026-05-22T13:28:01.000Z</time>
      </trkpt>
      <trkpt lat="43.01015" lon="-1.22907">
        <ele>794.108837</ele>
        <time>2026-05-22T13:28:02.000Z</time>
      </trkpt>
      <trkpt lat="43.01011" lon="-1.22904">
        <ele>794.098539</ele>
        <time>2026-05-22T13:28:03.000Z</time>
      </trkpt>
      <trkpt lat="43.01007" lon="-1.229">
        <ele>794.087456</ele>
        <time>2026-05-22T13:28:04.000Z</time>
      </trkpt>
      <trkpt lat="43.01003" lon="-1.22897">
        <ele>794.076463</ele>
        <time>2026-05-22T13:28:05.000Z</time>
      </trkpt>
      <trkpt lat="43.00999" lon="-1.22893">
        <ele>794.065662</ele>
        <time>2026-05-22T13:28:06.000Z</time>
      </trkpt>
      <trkpt lat="43.00995" lon="-1.22889">
        <ele>794.055236</ele>
        <time>2026-05-22T13:28:07.000Z</time>
      </trkpt>
      <trkpt lat="43.00992" lon="-1.22885">
        <ele>794.044422</ele>
        <time>2026-05-22T13:28:08.000Z</time>
      </trkpt>
      <trkpt lat="43.00989" lon="-1.2288">
        <ele>794.034082</ele>
        <time>2026-05-22T13:28:09.000Z</time>
      </trkpt>
      <trkpt lat="43.00986" lon="-1.22875">
        <ele>794.023605</ele>
        <time>2026-05-22T13:28:10.000Z</time>
      </trkpt>
      <trkpt lat="43.00984" lon="-1.2287">
        <ele>794.013667</ele>
        <time>2026-05-22T13:28:11.000Z</time>
      </trkpt>
      <trkpt lat="43.00982" lon="-1.22865">
        <ele>794.004437</ele>
        <time>2026-05-22T13:28:12.000Z</time>
      </trkpt>
      <trkpt lat="43.00981" lon="-1.22859">
        <ele>793.9949</ele>
        <time>2026-05-22T13:28:13.000Z</time>
      </trkpt>
      <trkpt lat="43.00979" lon="-1.22854">
        <ele>793.985779</ele>
        <time>2026-05-22T13:28:14.000Z</time>
      </trkpt>
      <trkpt lat="43.00977" lon="-1.22849">
        <ele>793.976189</ele>
        <time>2026-05-22T13:28:15.000Z</time>
      </trkpt>
      <trkpt lat="43.00974" lon="-1.22844">
        <ele>793.966241</ele>
        <time>2026-05-22T13:28:16.000Z</time>
      </trkpt>
      <trkpt lat="43.00972" lon="-1.2284">
        <ele>793.9563</ele>
        <time>2026-05-22T13:28:17.000Z</time>
      </trkpt>
      <trkpt lat="43.00969" lon="-1.22835">
        <ele>793.946359</ele>
        <time>2026-05-22T13:28:18.000Z</time>
      </trkpt>
      <trkpt lat="43.00967" lon="-1.2283">
        <ele>793.936796</ele>
        <time>2026-05-22T13:28:19.000Z</time>
      </trkpt>
      <trkpt lat="43.00965" lon="-1.22825">
        <ele>793.927061</ele>
        <time>2026-05-22T13:28:20.000Z</time>
      </trkpt>
      <trkpt lat="43.00962" lon="-1.2282">
        <ele>793.917355</ele>
        <time>2026-05-22T13:28:21.000Z</time>
      </trkpt>
      <trkpt lat="43.0096" lon="-1.22815">
        <ele>793.907792</ele>
        <time>2026-05-22T13:28:22.000Z</time>
      </trkpt>
      <trkpt lat="43.00958" lon="-1.2281">
        <ele>793.897769</ele>
        <time>2026-05-22T13:28:23.000Z</time>
      </trkpt>
      <trkpt lat="43.00957" lon="-1.22804">
        <ele>793.88752</ele>
        <time>2026-05-22T13:28:24.000Z</time>
      </trkpt>
      <trkpt lat="43.00956" lon="-1.22798">
        <ele>793.877991</ele>
        <time>2026-05-22T13:28:25.000Z</time>
      </trkpt>
      <trkpt lat="43.00954" lon="-1.22793">
        <ele>793.868422</ele>
        <time>2026-05-22T13:28:26.000Z</time>
      </trkpt>
      <trkpt lat="43.00952" lon="-1.22788">
        <ele>793.859344</ele>
        <time>2026-05-22T13:28:27.000Z</time>
      </trkpt>
      <trkpt lat="43.0095" lon="-1.22784">
        <ele>793.850771</ele>
        <time>2026-05-22T13:28:28.000Z</time>
      </trkpt>
      <trkpt lat="43.00949" lon="-1.2278">
        <ele>793.843186</ele>
        <time>2026-05-22T13:28:29.000Z</time>
      </trkpt>
      <trkpt lat="43.00948" lon="-1.22776">
        <ele>793.836388</ele>
        <time>2026-05-22T13:28:30.000Z</time>
      </trkpt>
      <trkpt lat="43.00947" lon="-1.22772">
        <ele>793.830374</ele>
        <time>2026-05-22T13:28:31.000Z</time>
      </trkpt>
      <trkpt lat="43.00947" lon="-1.22769">
        <ele>793.785544</ele>
        <time>2026-05-22T13:28:32.000Z</time>
      </trkpt>
      <trkpt lat="43.00947" lon="-1.22767">
        <ele>793.737239</ele>
        <time>2026-05-22T13:28:33.000Z</time>
      </trkpt>
      <trkpt lat="43.00948" lon="-1.22766">
        <ele>793.702697</ele>
        <time>2026-05-22T13:28:34.000Z</time>
      </trkpt>
      <trkpt lat="43.00949" lon="-1.22764">
        <ele>793.657082</ele>
        <time>2026-05-22T13:28:35.000Z</time>
      </trkpt>
      <trkpt lat="43.00949" lon="-1.22762">
        <ele>793.619615</ele>
        <time>2026-05-22T13:28:36.000Z</time>
      </trkpt>
      <trkpt lat="43.0095" lon="-1.22761">
        <ele>793.578991</ele>
        <time>2026-05-22T13:28:37.000Z</time>
      </trkpt>
      <trkpt lat="43.00951" lon="-1.2276">
        <ele>793.543724</ele>
        <time>2026-05-22T13:28:38.000Z</time>
      </trkpt>
      <trkpt lat="43.00952" lon="-1.22759">
        <ele>793.50968</ele>
        <time>2026-05-22T13:28:39.000Z</time>
      </trkpt>
      <trkpt lat="43.00953" lon="-1.22758">
        <ele>793.496063</ele>
        <time>2026-05-22T13:28:40.000Z</time>
      </trkpt>
      <trkpt lat="43.00957" lon="-1.22756">
        <ele>793.376027</ele>
        <time>2026-05-22T13:29:11.000Z</time>
      </trkpt>
      <trkpt lat="43.00957" lon="-1.22757">
        <ele>793.353923</ele>
        <time>2026-05-22T13:29:12.000Z</time>
      </trkpt>
      <trkpt lat="43.00957" lon="-1.22758">
        <ele>793.327228</ele>
        <time>2026-05-22T13:29:13.000Z</time>
      </trkpt>
      <trkpt lat="43.00957" lon="-1.2276">
        <ele>793.297712</ele>
        <time>2026-05-22T13:29:14.000Z</time>
      </trkpt>
      <trkpt lat="43.00958" lon="-1.22761">
        <ele>793.269958</ele>
        <time>2026-05-22T13:29:15.000Z</time>
      </trkpt>
      <trkpt lat="43.00958" lon="-1.22762">
        <ele>793.241617</ele>
        <time>2026-05-22T13:29:16.000Z</time>
      </trkpt>
      <trkpt lat="43.00959" lon="-1.22763">
        <ele>793.213275</ele>
        <time>2026-05-22T13:29:17.000Z</time>
      </trkpt>
      <trkpt lat="43.00959" lon="-1.22764">
        <ele>793.19037</ele>
        <time>2026-05-22T13:29:18.000Z</time>
      </trkpt>
      <trkpt lat="43.00959" lon="-1.22765">
        <ele>793.175478</ele>
        <time>2026-05-22T13:29:19.000Z</time>
      </trkpt>
      <trkpt lat="43.00959" lon="-1.22765">
        <ele>793.175478</ele>
        <time>2026-05-22T13:29:20.000Z</time>
      </trkpt>
      <trkpt lat="43.00956" lon="-1.22767">
        <ele>793.080966</ele>
        <time>2026-05-22T13:29:30.000Z</time>
      </trkpt>
      <trkpt lat="43.00955" lon="-1.22768">
        <ele>793.037411</ele>
        <time>2026-05-22T13:29:31.000Z</time>
      </trkpt>
      <trkpt lat="43.00952" lon="-1.22772">
        <ele>792.926395</ele>
        <time>2026-05-22T13:29:32.000Z</time>
      </trkpt>
      <trkpt lat="43.00952" lon="-1.22771">
        <ele>792.924386</ele>
        <time>2026-05-22T13:29:33.000Z</time>
      </trkpt>
      <trkpt lat="43.00951" lon="-1.22771">
        <ele>792.902713</ele>
        <time>2026-05-22T13:29:34.000Z</time>
      </trkpt>
      <trkpt lat="43.00946" lon="-1.22774">
        <ele>792.75169</ele>
        <time>2026-05-22T13:29:35.000Z</time>
      </trkpt>
      <trkpt lat="43.00949" lon="-1.22778">
        <ele>792.633179</ele>
        <time>2026-05-22T13:29:37.000Z</time>
      </trkpt>
      <trkpt lat="43.00952" lon="-1.22774">
        <ele>792.505114</ele>
        <time>2026-05-22T13:29:38.000Z</time>
      </trkpt>
      <trkpt lat="43.00952" lon="-1.22767">
        <ele>792.370227</ele>
        <time>2026-05-22T13:29:39.000Z</time>
      </trkpt>
      <trkpt lat="43.00955" lon="-1.22768">
        <ele>792.2827</ele>
        <time>2026-05-22T13:29:42.000Z</time>
      </trkpt>
      <trkpt lat="43.00954" lon="-1.22767">
        <ele>792.259987</ele>
        <time>2026-05-22T13:29:43.000Z</time>
      </trkpt>
      <trkpt lat="43.00954" lon="-1.22766">
        <ele>792.223816</ele>
        <time>2026-05-22T13:29:44.000Z</time>
      </trkpt>
      <trkpt lat="43.00954" lon="-1.22764">
        <ele>792.197121</ele>
        <time>2026-05-22T13:29:45.000Z</time>
      </trkpt>
      <trkpt lat="43.00954" lon="-1.22763">
        <ele>792.170426</ele>
        <time>2026-05-22T13:29:46.000Z</time>
      </trkpt>
      <trkpt lat="43.00954" lon="-1.22762">
        <ele>792.148152</ele>
        <time>2026-05-22T13:29:47.000Z</time>
      </trkpt>
      <trkpt lat="43.00954" lon="-1.22761">
        <ele>792.123882</ele>
        <time>2026-05-22T13:29:48.000Z</time>
      </trkpt>
      <trkpt lat="43.00954" lon="-1.2276">
        <ele>792.1036</ele>
        <time>2026-05-22T13:29:49.000Z</time>
      </trkpt>
      <trkpt lat="43.00954" lon="-1.22758">
        <ele>792.074936</ele>
        <time>2026-05-22T13:29:50.000Z</time>
      </trkpt>
      <trkpt lat="43.00953" lon="-1.22757">
        <ele>792.052223</ele>
        <time>2026-05-22T13:29:51.000Z</time>
      </trkpt>
      <trkpt lat="43.00953" lon="-1.22757">
        <ele>792.052223</ele>
        <time>2026-05-22T13:29:52.000Z</time>
      </trkpt>
      <trkpt lat="43.0095" lon="-1.22757">
        <ele>791.947779</ele>
        <time>2026-05-22T13:30:15.000Z</time>
      </trkpt>
      <trkpt lat="43.00951" lon="-1.22753">
        <ele>791.846568</ele>
        <time>2026-05-22T13:30:16.000Z</time>
      </trkpt>
      <trkpt lat="43.00951" lon="-1.22753">
        <ele>791.840717</ele>
        <time>2026-05-22T13:30:17.000Z</time>
      </trkpt>
      <trkpt lat="43.00951" lon="-1.22753">
        <ele>791.840717</ele>
        <time>2026-05-22T13:30:18.000Z</time>
      </trkpt>
      <trkpt lat="43.00962" lon="-1.22762">
        <ele>791.506971</ele>
        <time>2026-05-22T13:39:32.000Z</time>
      </trkpt>
      <trkpt lat="43.00961" lon="-1.22762">
        <ele>791.490361</ele>
        <time>2026-05-22T13:39:33.000Z</time>
      </trkpt>
      <trkpt lat="43.00961" lon="-1.22762">
        <ele>791.490361</ele>
        <time>2026-05-22T13:39:35.000Z</time>
      </trkpt>
      <trkpt lat="43.00956" lon="-1.22763">
        <ele>791.348778</ele>
        <time>2026-05-22T13:39:45.000Z</time>
      </trkpt>
      <trkpt lat="43.00954" lon="-1.22763">
        <ele>791.290755</ele>
        <time>2026-05-22T13:39:46.000Z</time>
      </trkpt>
      <trkpt lat="43.00952" lon="-1.22762">
        <ele>791.229648</ele>
        <time>2026-05-22T13:39:47.000Z</time>
      </trkpt>
      <trkpt lat="43.0095" lon="-1.2276">
        <ele>791.164629</ele>
        <time>2026-05-22T13:39:48.000Z</time>
      </trkpt>
      <trkpt lat="43.00948" lon="-1.22758">
        <ele>791.094899</ele>
        <time>2026-05-22T13:39:49.000Z</time>
      </trkpt>
      <trkpt lat="43.00946" lon="-1.22755">
        <ele>791.021767</ele>
        <time>2026-05-22T13:39:50.000Z</time>
      </trkpt>
      <trkpt lat="43.00945" lon="-1.22752">
        <ele>790.945386</ele>
        <time>2026-05-22T13:39:51.000Z</time>
      </trkpt>
      <trkpt lat="43.00943" lon="-1.22748">
        <ele>790.865821</ele>
        <time>2026-05-22T13:39:52.000Z</time>
      </trkpt>
      <trkpt lat="43.00942" lon="-1.22745">
        <ele>790.7843</ele>
        <time>2026-05-22T13:39:53.000Z</time>
      </trkpt>
      <trkpt lat="43.0094" lon="-1.22741">
        <ele>790.705416</ele>
        <time>2026-05-22T13:39:54.000Z</time>
      </trkpt>
      <trkpt lat="43.00939" lon="-1.22738">
        <ele>790.62408</ele>
        <time>2026-05-22T13:39:55.000Z</time>
      </trkpt>
      <trkpt lat="43.00938" lon="-1.22734">
        <ele>790.542145</ele>
        <time>2026-05-22T13:39:56.000Z</time>
      </trkpt>
      <trkpt lat="43.00936" lon="-1.22731">
        <ele>790.462351</ele>
        <time>2026-05-22T13:39:57.000Z</time>
      </trkpt>
      <trkpt lat="43.00935" lon="-1.22727">
        <ele>790.387028</ele>
        <time>2026-05-22T13:39:58.000Z</time>
      </trkpt>
      <trkpt lat="43.00934" lon="-1.22724">
        <ele>790.309349</ele>
        <time>2026-05-22T13:39:59.000Z</time>
      </trkpt>
      <trkpt lat="43.00933" lon="-1.22721">
        <ele>790.2437</ele>
        <time>2026-05-22T13:40:00.000Z</time>
      </trkpt>
      <trkpt lat="43.00931" lon="-1.22718">
        <ele>790.173626</ele>
        <time>2026-05-22T13:40:01.000Z</time>
      </trkpt>
      <trkpt lat="43.0093" lon="-1.22716">
        <ele>790.115021</ele>
        <time>2026-05-22T13:40:02.000Z</time>
      </trkpt>
      <trkpt lat="43.00929" lon="-1.22714">
        <ele>790.069549</ele>
        <time>2026-05-22T13:40:03.000Z</time>
      </trkpt>
      <trkpt lat="43.00928" lon="-1.22713">
        <ele>790.034282</ele>
        <time>2026-05-22T13:40:04.000Z</time>
      </trkpt>
      <trkpt lat="43.00927" lon="-1.22713">
        <ele>790.01726</ele>
        <time>2026-05-22T13:40:05.000Z</time>
      </trkpt>
      <trkpt lat="43.00927" lon="-1.22713">
        <ele>790.01726</ele>
        <time>2026-05-22T13:40:06.000Z</time>
      </trkpt>
      <trkpt lat="43.00925" lon="-1.22704">
        <ele>789.829336</ele>
        <time>2026-05-22T13:40:45.000Z</time>
      </trkpt>
      <trkpt lat="43.00924" lon="-1.227">
        <ele>789.758357</ele>
        <time>2026-05-22T13:40:46.000Z</time>
      </trkpt>
      <trkpt lat="43.00924" lon="-1.22696">
        <ele>789.660727</ele>
        <time>2026-05-22T13:40:47.000Z</time>
      </trkpt>
      <trkpt lat="43.00922" lon="-1.22691">
        <ele>789.56636</ele>
        <time>2026-05-22T13:40:48.000Z</time>
      </trkpt>
      <trkpt lat="43.00921" lon="-1.22687">
        <ele>789.471649</ele>
        <time>2026-05-22T13:40:49.000Z</time>
      </trkpt>
      <trkpt lat="43.00919" lon="-1.22683">
        <ele>789.374275</ele>
        <time>2026-05-22T13:40:50.000Z</time>
      </trkpt>
      <trkpt lat="43.00917" lon="-1.22679">
        <ele>789.281771</ele>
        <time>2026-05-22T13:40:51.000Z</time>
      </trkpt>
      <trkpt lat="43.00915" lon="-1.22675">
        <ele>789.184398</ele>
        <time>2026-05-22T13:40:52.000Z</time>
      </trkpt>
      <trkpt lat="43.00913" lon="-1.22671">
        <ele>789.07894</ele>
        <time>2026-05-22T13:40:53.000Z</time>
      </trkpt>
      <trkpt lat="43.0091" lon="-1.22667">
        <ele>788.978041</ele>
        <time>2026-05-22T13:40:54.000Z</time>
      </trkpt>
      <trkpt lat="43.00907" lon="-1.22664">
        <ele>788.87344</ele>
        <time>2026-05-22T13:40:55.000Z</time>
      </trkpt>
      <trkpt lat="43.00905" lon="-1.2266">
        <ele>788.74988</ele>
        <time>2026-05-22T13:40:56.000Z</time>
      </trkpt>
      <trkpt lat="43.00902" lon="-1.22656">
        <ele>788.601062</ele>
        <time>2026-05-22T13:40:57.000Z</time>
      </trkpt>
      <trkpt lat="43.00898" lon="-1.22651">
        <ele>788.414397</ele>
        <time>2026-05-22T13:40:58.000Z</time>
      </trkpt>
      <trkpt lat="43.00893" lon="-1.22647">
        <ele>788.212582</ele>
        <time>2026-05-22T13:40:59.000Z</time>
      </trkpt>
      <trkpt lat="43.00886" lon="-1.22645">
        <ele>787.97923</ele>
        <time>2026-05-22T13:41:00.000Z</time>
      </trkpt>
      <trkpt lat="43.00879" lon="-1.22646">
        <ele>787.746673</ele>
        <time>2026-05-22T13:41:01.000Z</time>
      </trkpt>
      <trkpt lat="43.00872" lon="-1.2265">
        <ele>787.496552</ele>
        <time>2026-05-22T13:41:02.000Z</time>
      </trkpt>
      <trkpt lat="43.00865" lon="-1.22655">
        <ele>787.222467</ele>
        <time>2026-05-22T13:41:03.000Z</time>
      </trkpt>
      <trkpt lat="43.00858" lon="-1.22661">
        <ele>786.943345</ele>
        <time>2026-05-22T13:41:04.000Z</time>
      </trkpt>
      <trkpt lat="43.00851" lon="-1.22666">
        <ele>786.660867</ele>
        <time>2026-05-22T13:41:05.000Z</time>
      </trkpt>
      <trkpt lat="43.00844" lon="-1.22672">
        <ele>786.38303</ele>
        <time>2026-05-22T13:41:06.000Z</time>
      </trkpt>
      <trkpt lat="43.00837" lon="-1.22678">
        <ele>786.101776</ele>
        <time>2026-05-22T13:41:07.000Z</time>
      </trkpt>
      <trkpt lat="43.0083" lon="-1.22683">
        <ele>785.819913</ele>
        <time>2026-05-22T13:41:08.000Z</time>
      </trkpt>
      <trkpt lat="43.00823" lon="-1.22688">
        <ele>785.545827</ele>
        <time>2026-05-22T13:41:09.000Z</time>
      </trkpt>
      <trkpt lat="43.00815" lon="-1.22694">
        <ele>785.265781</ele>
        <time>2026-05-22T13:41:10.000Z</time>
      </trkpt>
      <trkpt lat="43.00808" lon="-1.22699">
        <ele>784.985079</ele>
        <time>2026-05-22T13:41:11.000Z</time>
      </trkpt>
      <trkpt lat="43.00801" lon="-1.22703">
        <ele>784.712789</ele>
        <time>2026-05-22T13:41:12.000Z</time>
      </trkpt>
      <trkpt lat="43.00793" lon="-1.22706">
        <ele>784.438396</ele>
        <time>2026-05-22T13:41:13.000Z</time>
      </trkpt>
      <trkpt lat="43.00785" lon="-1.22707">
        <ele>784.156579</ele>
        <time>2026-05-22T13:41:14.000Z</time>
      </trkpt>
      <trkpt lat="43.00776" lon="-1.22707">
        <ele>783.873479</ele>
        <time>2026-05-22T13:41:15.000Z</time>
      </trkpt>
      <trkpt lat="43.00768" lon="-1.22706">
        <ele>783.592492</ele>
        <time>2026-05-22T13:41:16.000Z</time>
      </trkpt>
      <trkpt lat="43.0076" lon="-1.22704">
        <ele>783.314361</ele>
        <time>2026-05-22T13:41:17.000Z</time>
      </trkpt>
      <trkpt lat="43.00752" lon="-1.22703">
        <ele>783.04538</ele>
        <time>2026-05-22T13:41:18.000Z</time>
      </trkpt>
      <trkpt lat="43.00745" lon="-1.22701">
        <ele>782.781901</ele>
        <time>2026-05-22T13:41:19.000Z</time>
      </trkpt>
      <trkpt lat="43.00737" lon="-1.22699">
        <ele>782.689686</ele>
        <time>2026-05-22T13:41:20.000Z</time>
      </trkpt>
      <trkpt lat="43.0073" lon="-1.22698">
        <ele>782.621148</ele>
        <time>2026-05-22T13:41:21.000Z</time>
      </trkpt>
      <trkpt lat="43.00723" lon="-1.22696">
        <ele>782.550872</ele>
        <time>2026-05-22T13:41:22.000Z</time>
      </trkpt>
      <trkpt lat="43.00716" lon="-1.22692">
        <ele>782.483265</ele>
        <time>2026-05-22T13:41:23.000Z</time>
      </trkpt>
      <trkpt lat="43.0071" lon="-1.22689">
        <ele>782.418989</ele>
        <time>2026-05-22T13:41:24.000Z</time>
      </trkpt>
      <trkpt lat="43.00704" lon="-1.22685">
        <ele>782.359014</ele>
        <time>2026-05-22T13:41:25.000Z</time>
      </trkpt>
      <trkpt lat="43.00699" lon="-1.22682">
        <ele>782.300457</ele>
        <time>2026-05-22T13:41:26.000Z</time>
      </trkpt>
      <trkpt lat="43.00693" lon="-1.22679">
        <ele>782.245923</ele>
        <time>2026-05-22T13:41:27.000Z</time>
      </trkpt>
      <trkpt lat="43.00688" lon="-1.22676">
        <ele>782.193778</ele>
        <time>2026-05-22T13:41:28.000Z</time>
      </trkpt>
      <trkpt lat="43.00683" lon="-1.22674">
        <ele>782.141576</ele>
        <time>2026-05-22T13:41:29.000Z</time>
      </trkpt>
      <trkpt lat="43.00677" lon="-1.22672">
        <ele>782.088758</ele>
        <time>2026-05-22T13:41:30.000Z</time>
      </trkpt>
      <trkpt lat="43.00672" lon="-1.2267">
        <ele>782.037692</ele>
        <time>2026-05-22T13:41:31.000Z</time>
      </trkpt>
      <trkpt lat="43.00667" lon="-1.22669">
        <ele>781.985821</ele>
        <time>2026-05-22T13:41:32.000Z</time>
      </trkpt>
      <trkpt lat="43.00661" lon="-1.22668">
        <ele>781.932393</ele>
        <time>2026-05-22T13:41:33.000Z</time>
      </trkpt>
      <trkpt lat="43.00656" lon="-1.22668">
        <ele>781.885086</ele>
        <time>2026-05-22T13:41:34.000Z</time>
      </trkpt>
      <trkpt lat="43.00651" lon="-1.22668">
        <ele>781.836759</ele>
        <time>2026-05-22T13:41:35.000Z</time>
      </trkpt>
      <trkpt lat="43.00646" lon="-1.22669">
        <ele>781.785632</ele>
        <time>2026-05-22T13:41:36.000Z</time>
      </trkpt>
      <trkpt lat="43.00641" lon="-1.22669">
        <ele>781.740138</ele>
        <time>2026-05-22T13:41:37.000Z</time>
      </trkpt>
      <trkpt lat="43.00636" lon="-1.2267">
        <ele>781.69271</ele>
        <time>2026-05-22T13:41:38.000Z</time>
      </trkpt>
      <trkpt lat="43.00631" lon="-1.2267">
        <ele>781.64422</ele>
        <time>2026-05-22T13:41:39.000Z</time>
      </trkpt>
      <trkpt lat="43.00625" lon="-1.22671">
        <ele>781.590954</ele>
        <time>2026-05-22T13:41:40.000Z</time>
      </trkpt>
      <trkpt lat="43.00619" lon="-1.22672">
        <ele>781.535927</ele>
        <time>2026-05-22T13:41:41.000Z</time>
      </trkpt>
      <trkpt lat="43.00614" lon="-1.22673">
        <ele>781.480623</ele>
        <time>2026-05-22T13:41:42.000Z</time>
      </trkpt>
      <trkpt lat="43.00608" lon="-1.22674">
        <ele>781.424461</ele>
        <time>2026-05-22T13:41:43.000Z</time>
      </trkpt>
      <trkpt lat="43.00602" lon="-1.22675">
        <ele>781.367095</ele>
        <time>2026-05-22T13:41:44.000Z</time>
      </trkpt>
      <trkpt lat="43.00595" lon="-1.22676">
        <ele>781.307011</ele>
        <time>2026-05-22T13:41:45.000Z</time>
      </trkpt>
      <trkpt lat="43.00589" lon="-1.22677">
        <ele>781.246392</ele>
        <time>2026-05-22T13:41:46.000Z</time>
      </trkpt>
      <trkpt lat="43.00583" lon="-1.22679">
        <ele>781.186571</ele>
        <time>2026-05-22T13:41:47.000Z</time>
      </trkpt>
      <trkpt lat="43.00577" lon="-1.22681">
        <ele>781.125225</ele>
        <time>2026-05-22T13:41:48.000Z</time>
      </trkpt>
      <trkpt lat="43.0057" lon="-1.22684">
        <ele>781.060959</ele>
        <time>2026-05-22T13:41:49.000Z</time>
      </trkpt>
      <trkpt lat="43.00564" lon="-1.22687">
        <ele>780.774742</ele>
        <time>2026-05-22T13:41:50.000Z</time>
      </trkpt>
      <trkpt lat="43.00557" lon="-1.22691">
        <ele>780.446532</ele>
        <time>2026-05-22T13:41:51.000Z</time>
      </trkpt>
      <trkpt lat="43.00551" lon="-1.22695">
        <ele>780.102782</ele>
        <time>2026-05-22T13:41:52.000Z</time>
      </trkpt>
      <trkpt lat="43.00544" lon="-1.22699">
        <ele>779.746047</ele>
        <time>2026-05-22T13:41:53.000Z</time>
      </trkpt>
      <trkpt lat="43.00537" lon="-1.22703">
        <ele>779.399417</ele>
        <time>2026-05-22T13:41:54.000Z</time>
      </trkpt>
      <trkpt lat="43.0053" lon="-1.22707">
        <ele>779.039785</ele>
        <time>2026-05-22T13:41:55.000Z</time>
      </trkpt>
      <trkpt lat="43.00524" lon="-1.22711">
        <ele>778.690269</ele>
        <time>2026-05-22T13:41:56.000Z</time>
      </trkpt>
      <trkpt lat="43.00517" lon="-1.22715">
        <ele>778.343538</ele>
        <time>2026-05-22T13:41:57.000Z</time>
      </trkpt>
      <trkpt lat="43.0051" lon="-1.22719">
        <ele>777.99543</ele>
        <time>2026-05-22T13:41:58.000Z</time>
      </trkpt>
      <trkpt lat="43.00503" lon="-1.22723">
        <ele>777.635512</ele>
        <time>2026-05-22T13:41:59.000Z</time>
      </trkpt>
      <trkpt lat="43.00496" lon="-1.22726">
        <ele>777.27049</ele>
        <time>2026-05-22T13:42:00.000Z</time>
      </trkpt>
      <trkpt lat="43.00488" lon="-1.22729">
        <ele>776.891983</ele>
        <time>2026-05-22T13:42:01.000Z</time>
      </trkpt>
      <trkpt lat="43.0048" lon="-1.22731">
        <ele>776.50535</ele>
        <time>2026-05-22T13:42:02.000Z</time>
      </trkpt>
      <trkpt lat="43.00472" lon="-1.22733">
        <ele>776.104046</ele>
        <time>2026-05-22T13:42:03.000Z</time>
      </trkpt>
      <trkpt lat="43.00463" lon="-1.22735">
        <ele>775.686789</ele>
        <time>2026-05-22T13:42:04.000Z</time>
      </trkpt>
      <trkpt lat="43.00454" lon="-1.22737">
        <ele>775.251449</ele>
        <time>2026-05-22T13:42:05.000Z</time>
      </trkpt>
      <trkpt lat="43.00445" lon="-1.22739">
        <ele>774.804204</ele>
        <time>2026-05-22T13:42:06.000Z</time>
      </trkpt>
      <trkpt lat="43.00435" lon="-1.22741">
        <ele>774.339761</ele>
        <time>2026-05-22T13:42:07.000Z</time>
      </trkpt>
      <trkpt lat="43.00425" lon="-1.22742">
        <ele>773.857315</ele>
        <time>2026-05-22T13:42:08.000Z</time>
      </trkpt>
      <trkpt lat="43.00415" lon="-1.22743">
        <ele>773.365374</ele>
        <time>2026-05-22T13:42:09.000Z</time>
      </trkpt>
      <trkpt lat="43.00405" lon="-1.22744">
        <ele>772.878181</ele>
        <time>2026-05-22T13:42:10.000Z</time>
      </trkpt>
      <trkpt lat="43.00394" lon="-1.22745">
        <ele>772.423544</ele>
        <time>2026-05-22T13:42:11.000Z</time>
      </trkpt>
      <trkpt lat="43.00384" lon="-1.22746">
        <ele>772.149587</ele>
        <time>2026-05-22T13:42:12.000Z</time>
      </trkpt>
      <trkpt lat="43.00373" lon="-1.22748">
        <ele>771.864817</ele>
        <time>2026-05-22T13:42:13.000Z</time>
      </trkpt>
      <trkpt lat="43.00362" lon="-1.22751">
        <ele>771.568001</ele>
        <time>2026-05-22T13:42:14.000Z</time>
      </trkpt>
      <trkpt lat="43.00351" lon="-1.22755">
        <ele>771.280045</ele>
        <time>2026-05-22T13:42:15.000Z</time>
      </trkpt>
      <trkpt lat="43.00341" lon="-1.2276">
        <ele>770.997509</ele>
        <time>2026-05-22T13:42:16.000Z</time>
      </trkpt>
      <trkpt lat="43.00332" lon="-1.22768">
        <ele>770.708782</ele>
        <time>2026-05-22T13:42:17.000Z</time>
      </trkpt>
      <trkpt lat="43.00323" lon="-1.22777">
        <ele>770.43002</ele>
        <time>2026-05-22T13:42:18.000Z</time>
      </trkpt>
      <trkpt lat="43.00316" lon="-1.22786">
        <ele>770.159801</ele>
        <time>2026-05-22T13:42:19.000Z</time>
      </trkpt>
      <trkpt lat="43.00308" lon="-1.22794">
        <ele>769.899348</ele>
        <time>2026-05-22T13:42:20.000Z</time>
      </trkpt>
      <trkpt lat="43.003" lon="-1.22802">
        <ele>769.662104</ele>
        <time>2026-05-22T13:42:21.000Z</time>
      </trkpt>
      <trkpt lat="43.00293" lon="-1.22808">
        <ele>769.444156</ele>
        <time>2026-05-22T13:42:22.000Z</time>
      </trkpt>
      <trkpt lat="43.00285" lon="-1.2281">
        <ele>769.232273</ele>
        <time>2026-05-22T13:42:23.000Z</time>
      </trkpt>
      <trkpt lat="43.00278" lon="-1.2281">
        <ele>769.025026</ele>
        <time>2026-05-22T13:42:24.000Z</time>
      </trkpt>
      <trkpt lat="43.0027" lon="-1.22809">
        <ele>768.827823</ele>
        <time>2026-05-22T13:42:25.000Z</time>
      </trkpt>
      <trkpt lat="43.00263" lon="-1.2281">
        <ele>768.633465</ele>
        <time>2026-05-22T13:42:26.000Z</time>
      </trkpt>
      <trkpt lat="43.00256" lon="-1.22813">
        <ele>768.446608</ele>
        <time>2026-05-22T13:42:27.000Z</time>
      </trkpt>
      <trkpt lat="43.0025" lon="-1.22816">
        <ele>768.266743</ele>
        <time>2026-05-22T13:42:28.000Z</time>
      </trkpt>
      <trkpt lat="43.00244" lon="-1.2282">
        <ele>768.106785</ele>
        <time>2026-05-22T13:42:29.000Z</time>
      </trkpt>
      <trkpt lat="43.00239" lon="-1.22823">
        <ele>767.957198</ele>
        <time>2026-05-22T13:42:30.000Z</time>
      </trkpt>
      <trkpt lat="43.00234" lon="-1.22826">
        <ele>767.813181</ele>
        <time>2026-05-22T13:42:31.000Z</time>
      </trkpt>
      <trkpt lat="43.00229" lon="-1.22829">
        <ele>767.830881</ele>
        <time>2026-05-22T13:42:32.000Z</time>
      </trkpt>
      <trkpt lat="43.00225" lon="-1.22831">
        <ele>767.920585</ele>
        <time>2026-05-22T13:42:33.000Z</time>
      </trkpt>
      <trkpt lat="43.0022" lon="-1.22832">
        <ele>768.003907</ele>
        <time>2026-05-22T13:42:34.000Z</time>
      </trkpt>
      <trkpt lat="43.00216" lon="-1.22833">
        <ele>768.090339</ele>
        <time>2026-05-22T13:42:35.000Z</time>
      </trkpt>
      <trkpt lat="43.00212" lon="-1.22833">
        <ele>768.174329</ele>
        <time>2026-05-22T13:42:36.000Z</time>
      </trkpt>
      <trkpt lat="43.00207" lon="-1.22833">
        <ele>768.258147</ele>
        <time>2026-05-22T13:42:37.000Z</time>
      </trkpt>
      <trkpt lat="43.00203" lon="-1.22833">
        <ele>768.340095</ele>
        <time>2026-05-22T13:42:38.000Z</time>
      </trkpt>
      <trkpt lat="43.00199" lon="-1.22833">
        <ele>768.420104</ele>
        <time>2026-05-22T13:42:39.000Z</time>
      </trkpt>
      <trkpt lat="43.00194" lon="-1.22833">
        <ele>768.511698</ele>
        <time>2026-05-22T13:42:40.000Z</time>
      </trkpt>
      <trkpt lat="43.00189" lon="-1.22832">
        <ele>768.601607</ele>
        <time>2026-05-22T13:42:41.000Z</time>
      </trkpt>
      <trkpt lat="43.00184" lon="-1.22831">
        <ele>768.693887</ele>
        <time>2026-05-22T13:42:42.000Z</time>
      </trkpt>
      <trkpt lat="43.00179" lon="-1.22831">
        <ele>768.79372</ele>
        <time>2026-05-22T13:42:43.000Z</time>
      </trkpt>
      <trkpt lat="43.00174" lon="-1.22829">
        <ele>768.892532</ele>
        <time>2026-05-22T13:42:44.000Z</time>
      </trkpt>
      <trkpt lat="43.00169" lon="-1.22828">
        <ele>768.995911</ele>
        <time>2026-05-22T13:42:45.000Z</time>
      </trkpt>
      <trkpt lat="43.00164" lon="-1.22826">
        <ele>769.098429</ele>
        <time>2026-05-22T13:42:46.000Z</time>
      </trkpt>
      <trkpt lat="43.00158" lon="-1.22824">
        <ele>769.200264</ele>
        <time>2026-05-22T13:42:47.000Z</time>
      </trkpt>
      <trkpt lat="43.00153" lon="-1.22822">
        <ele>769.31016</ele>
        <time>2026-05-22T13:42:48.000Z</time>
      </trkpt>
      <trkpt lat="43.00147" lon="-1.22821">
        <ele>769.420991</ele>
        <time>2026-05-22T13:42:49.000Z</time>
      </trkpt>
      <trkpt lat="43.00141" lon="-1.22819">
        <ele>769.532736</ele>
        <time>2026-05-22T13:42:50.000Z</time>
      </trkpt>
      <trkpt lat="43.00136" lon="-1.22817">
        <ele>769.642633</ele>
        <time>2026-05-22T13:42:51.000Z</time>
      </trkpt>
      <trkpt lat="43.0013" lon="-1.22815">
        <ele>769.752529</ele>
        <time>2026-05-22T13:42:52.000Z</time>
      </trkpt>
      <trkpt lat="43.00124" lon="-1.22813">
        <ele>769.864275</ele>
        <time>2026-05-22T13:42:53.000Z</time>
      </trkpt>
      <trkpt lat="43.00119" lon="-1.22811">
        <ele>769.974171</ele>
        <time>2026-05-22T13:42:54.000Z</time>
      </trkpt>
      <trkpt lat="43.00113" lon="-1.22809">
        <ele>770.084068</ele>
        <time>2026-05-22T13:42:55.000Z</time>
      </trkpt>
      <trkpt lat="43.00108" lon="-1.22807">
        <ele>770.186586</ele>
        <time>2026-05-22T13:42:56.000Z</time>
      </trkpt>
      <trkpt lat="43.00103" lon="-1.22805">
        <ele>770.289104</ele>
        <time>2026-05-22T13:42:57.000Z</time>
      </trkpt>
      <trkpt lat="43.00098" lon="-1.22804">
        <ele>770.385391</ele>
        <time>2026-05-22T13:42:58.000Z</time>
      </trkpt>
      <trkpt lat="43.00093" lon="-1.22802">
        <ele>770.481344</ele>
        <time>2026-05-22T13:42:59.000Z</time>
      </trkpt>
      <trkpt lat="43.00088" lon="-1.228">
        <ele>770.57175</ele>
        <time>2026-05-22T13:43:00.000Z</time>
      </trkpt>
      <trkpt lat="43.00084" lon="-1.22799">
        <ele>770.656274</ele>
        <time>2026-05-22T13:43:01.000Z</time>
      </trkpt>
      <trkpt lat="43.0008" lon="-1.22798">
        <ele>770.736764</ele>
        <time>2026-05-22T13:43:02.000Z</time>
      </trkpt>
      <trkpt lat="43.00076" lon="-1.22796">
        <ele>770.81261</ele>
        <time>2026-05-22T13:43:03.000Z</time>
      </trkpt>
      <trkpt lat="43.00073" lon="-1.22795">
        <ele>770.883529</ele>
        <time>2026-05-22T13:43:04.000Z</time>
      </trkpt>
      <trkpt lat="43.00069" lon="-1.22794">
        <ele>770.952257</ele>
        <time>2026-05-22T13:43:05.000Z</time>
      </trkpt>
      <trkpt lat="43.00066" lon="-1.22793">
        <ele>771.017296</ele>
        <time>2026-05-22T13:43:06.000Z</time>
      </trkpt>
      <trkpt lat="43.00062" lon="-1.22791">
        <ele>771.083532</ele>
        <time>2026-05-22T13:43:07.000Z</time>
      </trkpt>
      <trkpt lat="43.00059" lon="-1.2279">
        <ele>771.150221</ele>
        <time>2026-05-22T13:43:08.000Z</time>
      </trkpt>
      <trkpt lat="43.00056" lon="-1.22788">
        <ele>771.217751</ele>
        <time>2026-05-22T13:43:09.000Z</time>
      </trkpt>
      <trkpt lat="43.00053" lon="-1.22787">
        <ele>771.298155</ele>
        <time>2026-05-22T13:43:10.000Z</time>
      </trkpt>
      <trkpt lat="43.0005" lon="-1.22786">
        <ele>771.374719</ele>
        <time>2026-05-22T13:43:11.000Z</time>
      </trkpt>
      <trkpt lat="43.00047" lon="-1.22785">
        <ele>771.451805</ele>
        <time>2026-05-22T13:43:12.000Z</time>
      </trkpt>
      <trkpt lat="43.00044" lon="-1.22784">
        <ele>771.530254</ele>
        <time>2026-05-22T13:43:13.000Z</time>
      </trkpt>
      <trkpt lat="43.00041" lon="-1.22783">
        <ele>771.609936</ele>
        <time>2026-05-22T13:43:14.000Z</time>
      </trkpt>
      <trkpt lat="43.00038" lon="-1.22782">
        <ele>771.683964</ele>
        <time>2026-05-22T13:43:15.000Z</time>
      </trkpt>
      <trkpt lat="43.00035" lon="-1.22782">
        <ele>771.757992</ele>
        <time>2026-05-22T13:43:16.000Z</time>
      </trkpt>
      <trkpt lat="43.00032" lon="-1.22782">
        <ele>771.831672</ele>
        <time>2026-05-22T13:43:17.000Z</time>
      </trkpt>
      <trkpt lat="43.00029" lon="-1.22781">
        <ele>771.901738</ele>
        <time>2026-05-22T13:43:18.000Z</time>
      </trkpt>
      <trkpt lat="43.00026" lon="-1.2278">
        <ele>771.97116</ele>
        <time>2026-05-22T13:43:19.000Z</time>
      </trkpt>
      <trkpt lat="43.00023" lon="-1.2278">
        <ele>772.040583</ele>
        <time>2026-05-22T13:43:20.000Z</time>
      </trkpt>
      <trkpt lat="43.0002" lon="-1.22779">
        <ele>772.10975</ele>
        <time>2026-05-22T13:43:21.000Z</time>
      </trkpt>
      <trkpt lat="43.00018" lon="-1.22779">
        <ele>772.178429</ele>
        <time>2026-05-22T13:43:22.000Z</time>
      </trkpt>
      <trkpt lat="43.00015" lon="-1.22779">
        <ele>772.244588</ele>
        <time>2026-05-22T13:43:23.000Z</time>
      </trkpt>
      <trkpt lat="43.00012" lon="-1.22778">
        <ele>772.30606</ele>
        <time>2026-05-22T13:43:24.000Z</time>
      </trkpt>
      <trkpt lat="43.0001" lon="-1.22778">
        <ele>772.369847</ele>
        <time>2026-05-22T13:43:25.000Z</time>
      </trkpt>
      <trkpt lat="43.00007" lon="-1.22778">
        <ele>772.43202</ele>
        <time>2026-05-22T13:43:26.000Z</time>
      </trkpt>
      <trkpt lat="43.00005" lon="-1.22777">
        <ele>772.494193</ele>
        <time>2026-05-22T13:43:27.000Z</time>
      </trkpt>
      <trkpt lat="43.00002" lon="-1.22777">
        <ele>772.555456</ele>
        <time>2026-05-22T13:43:28.000Z</time>
      </trkpt>
      <trkpt lat="43" lon="-1.22777">
        <ele>772.61427</ele>
        <time>2026-05-22T13:43:29.000Z</time>
      </trkpt>
      <trkpt lat="42.99997" lon="-1.22777">
        <ele>772.675742</ele>
        <time>2026-05-22T13:43:30.000Z</time>
      </trkpt>
      <trkpt lat="42.99995" lon="-1.22776">
        <ele>772.739454</ele>
        <time>2026-05-22T13:43:31.000Z</time>
      </trkpt>
      <trkpt lat="42.99992" lon="-1.22776">
        <ele>772.803165</ele>
        <time>2026-05-22T13:43:32.000Z</time>
      </trkpt>
      <trkpt lat="42.9999" lon="-1.22776">
        <ele>772.864506</ele>
        <time>2026-05-22T13:43:33.000Z</time>
      </trkpt>
      <trkpt lat="42.99987" lon="-1.22776">
        <ele>772.935541</ele>
        <time>2026-05-22T13:43:34.000Z</time>
      </trkpt>
      <trkpt lat="42.99984" lon="-1.22776">
        <ele>773.006598</ele>
        <time>2026-05-22T13:43:35.000Z</time>
      </trkpt>
      <trkpt lat="42.99981" lon="-1.22776">
        <ele>773.080169</ele>
        <time>2026-05-22T13:43:36.000Z</time>
      </trkpt>
      <trkpt lat="42.99978" lon="-1.22776">
        <ele>773.153849</ele>
        <time>2026-05-22T13:43:37.000Z</time>
      </trkpt>
      <trkpt lat="42.99975" lon="-1.22775">
        <ele>773.232314</ele>
        <time>2026-05-22T13:43:38.000Z</time>
      </trkpt>
      <trkpt lat="42.99971" lon="-1.22775">
        <ele>773.310779</ele>
        <time>2026-05-22T13:43:39.000Z</time>
      </trkpt>
      <trkpt lat="42.99968" lon="-1.22775">
        <ele>773.385045</ele>
        <time>2026-05-22T13:43:40.000Z</time>
      </trkpt>
      <trkpt lat="42.99965" lon="-1.22774">
        <ele>773.461168</ele>
        <time>2026-05-22T13:43:41.000Z</time>
      </trkpt>
      <trkpt lat="42.99962" lon="-1.22774">
        <ele>773.534848</ele>
        <time>2026-05-22T13:43:42.000Z</time>
      </trkpt>
      <trkpt lat="42.99959" lon="-1.22773">
        <ele>773.609395</ele>
        <time>2026-05-22T13:43:43.000Z</time>
      </trkpt>
      <trkpt lat="42.99956" lon="-1.22773">
        <ele>773.68079</ele>
        <time>2026-05-22T13:43:44.000Z</time>
      </trkpt>
      <trkpt lat="42.99953" lon="-1.22773">
        <ele>773.754274</ele>
        <time>2026-05-22T13:43:45.000Z</time>
      </trkpt>
      <trkpt lat="42.9995" lon="-1.22773">
        <ele>773.830292</ele>
        <time>2026-05-22T13:43:46.000Z</time>
      </trkpt>
      <trkpt lat="42.99947" lon="-1.22772">
        <ele>773.906309</ele>
        <time>2026-05-22T13:43:47.000Z</time>
      </trkpt>
      <trkpt lat="42.99944" lon="-1.22772">
        <ele>773.979881</ele>
        <time>2026-05-22T13:43:48.000Z</time>
      </trkpt>
      <trkpt lat="42.99941" lon="-1.22772">
        <ele>774.053909</ele>
        <time>2026-05-22T13:43:49.000Z</time>
      </trkpt>
      <trkpt lat="42.99938" lon="-1.22771">
        <ele>774.130599</ele>
        <time>2026-05-22T13:43:50.000Z</time>
      </trkpt>
      <trkpt lat="42.99935" lon="-1.22771">
        <ele>774.204279</ele>
        <time>2026-05-22T13:43:51.000Z</time>
      </trkpt>
      <trkpt lat="42.99932" lon="-1.2277">
        <ele>774.28055</ele>
        <time>2026-05-22T13:43:52.000Z</time>
      </trkpt>
      <trkpt lat="42.99929" lon="-1.2277">
        <ele>774.354578</ele>
        <time>2026-05-22T13:43:53.000Z</time>
      </trkpt>
      <trkpt lat="42.99926" lon="-1.2277">
        <ele>774.428411</ele>
        <time>2026-05-22T13:43:54.000Z</time>
      </trkpt>
      <trkpt lat="42.99923" lon="-1.22769">
        <ele>774.506875</ele>
        <time>2026-05-22T13:43:55.000Z</time>
      </trkpt>
      <trkpt lat="42.9992" lon="-1.22769">
        <ele>774.587886</ele>
        <time>2026-05-22T13:43:56.000Z</time>
      </trkpt>
      <trkpt lat="42.99916" lon="-1.22768">
        <ele>774.667266</ele>
        <time>2026-05-22T13:43:57.000Z</time>
      </trkpt>
      <trkpt lat="42.99913" lon="-1.22767">
        <ele>774.74969</ele>
        <time>2026-05-22T13:43:58.000Z</time>
      </trkpt>
      <trkpt lat="42.9991" lon="-1.22767">
        <ele>774.835888</ele>
        <time>2026-05-22T13:43:59.000Z</time>
      </trkpt>
      <trkpt lat="42.99906" lon="-1.22767">
        <ele>774.924233</ele>
        <time>2026-05-22T13:44:00.000Z</time>
      </trkpt>
      <trkpt lat="42.99902" lon="-1.22767">
        <ele>775.01733</ele>
        <time>2026-05-22T13:44:01.000Z</time>
      </trkpt>
      <trkpt lat="42.99898" lon="-1.22767">
        <ele>775.112859</ele>
        <time>2026-05-22T13:44:02.000Z</time>
      </trkpt>
      <trkpt lat="42.99894" lon="-1.22766">
        <ele>775.213303</ele>
        <time>2026-05-22T13:44:03.000Z</time>
      </trkpt>
      <trkpt lat="42.9989" lon="-1.22766">
        <ele>775.313795</ele>
        <time>2026-05-22T13:44:04.000Z</time>
      </trkpt>
      <trkpt lat="42.99886" lon="-1.22766">
        <ele>775.414239</ele>
        <time>2026-05-22T13:44:05.000Z</time>
      </trkpt>
      <trkpt lat="42.99882" lon="-1.22766">
        <ele>775.517257</ele>
        <time>2026-05-22T13:44:06.000Z</time>
      </trkpt>
      <trkpt lat="42.99877" lon="-1.22765">
        <ele>775.599354</ele>
        <time>2026-05-22T13:44:07.000Z</time>
      </trkpt>
      <trkpt lat="42.99873" lon="-1.22765">
        <ele>775.599039</ele>
        <time>2026-05-22T13:44:08.000Z</time>
      </trkpt>
      <trkpt lat="42.99868" lon="-1.22765">
        <ele>775.598725</ele>
        <time>2026-05-22T13:44:09.000Z</time>
      </trkpt>
      <trkpt lat="42.99864" lon="-1.22765">
        <ele>775.598404</ele>
        <time>2026-05-22T13:44:10.000Z</time>
      </trkpt>
      <trkpt lat="42.99859" lon="-1.22765">
        <ele>775.598076</ele>
        <time>2026-05-22T13:44:11.000Z</time>
      </trkpt>
      <trkpt lat="42.99854" lon="-1.22765">
        <ele>775.597741</ele>
        <time>2026-05-22T13:44:12.000Z</time>
      </trkpt>
      <trkpt lat="42.9985" lon="-1.22765">
        <ele>775.597406</ele>
        <time>2026-05-22T13:44:13.000Z</time>
      </trkpt>
      <trkpt lat="42.99845" lon="-1.22765">
        <ele>775.597071</ele>
        <time>2026-05-22T13:44:14.000Z</time>
      </trkpt>
      <trkpt lat="42.9984" lon="-1.22765">
        <ele>775.596736</ele>
        <time>2026-05-22T13:44:15.000Z</time>
      </trkpt>
      <trkpt lat="42.99835" lon="-1.22765">
        <ele>775.596401</ele>
        <time>2026-05-22T13:44:16.000Z</time>
      </trkpt>
      <trkpt lat="42.9983" lon="-1.22765">
        <ele>775.596066</ele>
        <time>2026-05-22T13:44:17.000Z</time>
      </trkpt>
      <trkpt lat="42.99826" lon="-1.22765">
        <ele>775.59573</ele>
        <time>2026-05-22T13:44:18.000Z</time>
      </trkpt>
      <trkpt lat="42.99821" lon="-1.22766">
        <ele>775.595402</ele>
        <time>2026-05-22T13:44:19.000Z</time>
      </trkpt>
      <trkpt lat="42.99816" lon="-1.22766">
        <ele>775.595088</ele>
        <time>2026-05-22T13:44:20.000Z</time>
      </trkpt>
      <trkpt lat="42.99812" lon="-1.22766">
        <ele>775.594753</ele>
        <time>2026-05-22T13:44:21.000Z</time>
      </trkpt>
      <trkpt lat="42.99807" lon="-1.22766">
        <ele>775.594418</ele>
        <time>2026-05-22T13:44:22.000Z</time>
      </trkpt>
      <trkpt lat="42.99802" lon="-1.22766">
        <ele>775.59409</ele>
        <time>2026-05-22T13:44:23.000Z</time>
      </trkpt>
      <trkpt lat="42.99797" lon="-1.22765">
        <ele>775.593768</ele>
        <time>2026-05-22T13:44:24.000Z</time>
      </trkpt>
      <trkpt lat="42.99793" lon="-1.22764">
        <ele>775.593451</ele>
        <time>2026-05-22T13:44:25.000Z</time>
      </trkpt>
      <trkpt lat="42.99789" lon="-1.22763">
        <ele>775.593145</ele>
        <time>2026-05-22T13:44:26.000Z</time>
      </trkpt>
      <trkpt lat="42.99784" lon="-1.22762">
        <ele>775.592836</ele>
        <time>2026-05-22T13:44:27.000Z</time>
      </trkpt>
      <trkpt lat="42.9978" lon="-1.2276">
        <ele>775.592533</ele>
        <time>2026-05-22T13:44:28.000Z</time>
      </trkpt>
      <trkpt lat="42.99776" lon="-1.22759">
        <ele>775.592222</ele>
        <time>2026-05-22T13:44:29.000Z</time>
      </trkpt>
      <trkpt lat="42.99772" lon="-1.22757">
        <ele>775.591905</ele>
        <time>2026-05-22T13:44:30.000Z</time>
      </trkpt>
      <trkpt lat="42.99767" lon="-1.22754">
        <ele>775.591591</ele>
        <time>2026-05-22T13:44:31.000Z</time>
      </trkpt>
      <trkpt lat="42.99763" lon="-1.22752">
        <ele>775.591274</ele>
        <time>2026-05-22T13:44:32.000Z</time>
      </trkpt>
      <trkpt lat="42.99759" lon="-1.2275">
        <ele>775.590951</ele>
        <time>2026-05-22T13:44:33.000Z</time>
      </trkpt>
      <trkpt lat="42.99754" lon="-1.22747">
        <ele>775.590621</ele>
        <time>2026-05-22T13:44:34.000Z</time>
      </trkpt>
      <trkpt lat="42.9975" lon="-1.22745">
        <ele>775.590288</ele>
        <time>2026-05-22T13:44:35.000Z</time>
      </trkpt>
      <trkpt lat="42.99746" lon="-1.22742">
        <ele>775.58996</ele>
        <time>2026-05-22T13:44:36.000Z</time>
      </trkpt>
      <trkpt lat="42.99742" lon="-1.22739">
        <ele>775.589632</ele>
        <time>2026-05-22T13:44:37.000Z</time>
      </trkpt>
      <trkpt lat="42.99738" lon="-1.22736">
        <ele>775.589307</ele>
        <time>2026-05-22T13:44:38.000Z</time>
      </trkpt>
      <trkpt lat="42.99733" lon="-1.22733">
        <ele>775.588979</ele>
        <time>2026-05-22T13:44:39.000Z</time>
      </trkpt>
      <trkpt lat="42.99729" lon="-1.2273">
        <ele>775.588654</ele>
        <time>2026-05-22T13:44:40.000Z</time>
      </trkpt>
      <trkpt lat="42.99725" lon="-1.22727">
        <ele>775.588325</ele>
        <time>2026-05-22T13:44:41.000Z</time>
      </trkpt>
      <trkpt lat="42.99721" lon="-1.22723">
        <ele>775.58799</ele>
        <time>2026-05-22T13:44:42.000Z</time>
      </trkpt>
      <trkpt lat="42.99717" lon="-1.2272">
        <ele>775.58765</ele>
        <time>2026-05-22T13:44:43.000Z</time>
      </trkpt>
      <trkpt lat="42.99713" lon="-1.22716">
        <ele>775.587304</ele>
        <time>2026-05-22T13:44:44.000Z</time>
      </trkpt>
      <trkpt lat="42.99709" lon="-1.22712">
        <ele>775.586958</ele>
        <time>2026-05-22T13:44:45.000Z</time>
      </trkpt>
      <trkpt lat="42.99704" lon="-1.22709">
        <ele>775.516267</ele>
        <time>2026-05-22T13:44:46.000Z</time>
      </trkpt>
      <trkpt lat="42.997" lon="-1.22705">
        <ele>775.418748</ele>
        <time>2026-05-22T13:44:47.000Z</time>
      </trkpt>
      <trkpt lat="42.99695" lon="-1.227">
        <ele>775.31819</ele>
        <time>2026-05-22T13:44:48.000Z</time>
      </trkpt>
      <trkpt lat="42.99691" lon="-1.22696">
        <ele>775.216865</ele>
        <time>2026-05-22T13:44:49.000Z</time>
      </trkpt>
      <trkpt lat="42.99687" lon="-1.22692">
        <ele>775.114639</ele>
        <time>2026-05-22T13:44:50.000Z</time>
      </trkpt>
      <trkpt lat="42.99682" lon="-1.22687">
        <ele>775.011328</ele>
        <time>2026-05-22T13:44:51.000Z</time>
      </trkpt>
      <trkpt lat="42.99678" lon="-1.22681">
        <ele>774.90946</ele>
        <time>2026-05-22T13:44:52.000Z</time>
      </trkpt>
      <trkpt lat="42.99675" lon="-1.22676">
        <ele>774.806585</ele>
        <time>2026-05-22T13:44:53.000Z</time>
      </trkpt>
      <trkpt lat="42.99671" lon="-1.2267">
        <ele>774.704166</ele>
        <time>2026-05-22T13:44:54.000Z</time>
      </trkpt>
      <trkpt lat="42.99668" lon="-1.22663">
        <ele>774.601734</ele>
        <time>2026-05-22T13:44:55.000Z</time>
      </trkpt>
      <trkpt lat="42.99665" lon="-1.22657">
        <ele>774.499122</ele>
        <time>2026-05-22T13:44:56.000Z</time>
      </trkpt>
      <trkpt lat="42.99662" lon="-1.2265">
        <ele>774.394031</ele>
        <time>2026-05-22T13:44:57.000Z</time>
      </trkpt>
      <trkpt lat="42.99659" lon="-1.22643">
        <ele>774.287205</ele>
        <time>2026-05-22T13:44:58.000Z</time>
      </trkpt>
      <trkpt lat="42.99657" lon="-1.22636">
        <ele>774.17867</ele>
        <time>2026-05-22T13:44:59.000Z</time>
      </trkpt>
      <trkpt lat="42.99655" lon="-1.22628">
        <ele>774.064546</ele>
        <time>2026-05-22T13:45:00.000Z</time>
      </trkpt>
      <trkpt lat="42.99654" lon="-1.22619">
        <ele>773.946068</ele>
        <time>2026-05-22T13:45:01.000Z</time>
      </trkpt>
      <trkpt lat="42.99653" lon="-1.2261">
        <ele>773.821851</ele>
        <time>2026-05-22T13:45:02.000Z</time>
      </trkpt>
      <trkpt lat="42.99652" lon="-1.22601">
        <ele>773.691791</ele>
        <time>2026-05-22T13:45:03.000Z</time>
      </trkpt>
      <trkpt lat="42.9965" lon="-1.22591">
        <ele>773.557959</ele>
        <time>2026-05-22T13:45:04.000Z</time>
      </trkpt>
      <trkpt lat="42.99648" lon="-1.22582">
        <ele>773.422943</ele>
        <time>2026-05-22T13:45:05.000Z</time>
      </trkpt>
      <trkpt lat="42.99645" lon="-1.22573">
        <ele>773.287859</ele>
        <time>2026-05-22T13:45:06.000Z</time>
      </trkpt>
      <trkpt lat="42.99641" lon="-1.22564">
        <ele>773.156187</ele>
        <time>2026-05-22T13:45:07.000Z</time>
      </trkpt>
      <trkpt lat="42.99638" lon="-1.22556">
        <ele>773.027274</ele>
        <time>2026-05-22T13:45:08.000Z</time>
      </trkpt>
      <trkpt lat="42.99634" lon="-1.22548">
        <ele>772.900844</ele>
        <time>2026-05-22T13:45:09.000Z</time>
      </trkpt>
      <trkpt lat="42.9963" lon="-1.22541">
        <ele>772.775528</ele>
        <time>2026-05-22T13:45:10.000Z</time>
      </trkpt>
      <trkpt lat="42.99625" lon="-1.22534">
        <ele>772.652354</ele>
        <time>2026-05-22T13:45:11.000Z</time>
      </trkpt>
      <trkpt lat="42.99621" lon="-1.22527">
        <ele>772.534767</ele>
        <time>2026-05-22T13:45:12.000Z</time>
      </trkpt>
      <trkpt lat="42.99616" lon="-1.22522">
        <ele>772.421092</ele>
        <time>2026-05-22T13:45:13.000Z</time>
      </trkpt>
      <trkpt lat="42.99612" lon="-1.22517">
        <ele>772.310933</ele>
        <time>2026-05-22T13:45:14.000Z</time>
      </trkpt>
      <trkpt lat="42.99607" lon="-1.22512">
        <ele>772.16579</ele>
        <time>2026-05-22T13:45:15.000Z</time>
      </trkpt>
      <trkpt lat="42.99603" lon="-1.22507">
        <ele>771.994172</ele>
        <time>2026-05-22T13:45:16.000Z</time>
      </trkpt>
      <trkpt lat="42.99599" lon="-1.22502">
        <ele>771.829489</ele>
        <time>2026-05-22T13:45:17.000Z</time>
      </trkpt>
      <trkpt lat="42.99595" lon="-1.22497">
        <ele>771.669474</ele>
        <time>2026-05-22T13:45:18.000Z</time>
      </trkpt>
      <trkpt lat="42.99591" lon="-1.22493">
        <ele>771.510795</ele>
        <time>2026-05-22T13:45:19.000Z</time>
      </trkpt>
      <trkpt lat="42.99587" lon="-1.22489">
        <ele>771.358272</ele>
        <time>2026-05-22T13:45:20.000Z</time>
      </trkpt>
      <trkpt lat="42.99582" lon="-1.22485">
        <ele>771.202222</ele>
        <time>2026-05-22T13:45:21.000Z</time>
      </trkpt>
      <trkpt lat="42.99578" lon="-1.22482">
        <ele>771.045123</ele>
        <time>2026-05-22T13:45:22.000Z</time>
      </trkpt>
      <trkpt lat="42.99573" lon="-1.22479">
        <ele>770.881843</ele>
        <time>2026-05-22T13:45:23.000Z</time>
      </trkpt>
      <trkpt lat="42.99568" lon="-1.22476">
        <ele>770.713628</ele>
        <time>2026-05-22T13:45:24.000Z</time>
      </trkpt>
      <trkpt lat="42.99562" lon="-1.22474">
        <ele>770.539138</ele>
        <time>2026-05-22T13:45:25.000Z</time>
      </trkpt>
      <trkpt lat="42.99556" lon="-1.22473">
        <ele>770.359604</ele>
        <time>2026-05-22T13:45:26.000Z</time>
      </trkpt>
      <trkpt lat="42.99549" lon="-1.22473">
        <ele>770.159997</ele>
        <time>2026-05-22T13:45:27.000Z</time>
      </trkpt>
      <trkpt lat="42.99543" lon="-1.22474">
        <ele>769.971198</ele>
        <time>2026-05-22T13:45:28.000Z</time>
      </trkpt>
      <trkpt lat="42.99537" lon="-1.22476">
        <ele>769.776999</ele>
        <time>2026-05-22T13:45:29.000Z</time>
      </trkpt>
      <trkpt lat="42.99531" lon="-1.22478">
        <ele>769.576878</ele>
        <time>2026-05-22T13:45:30.000Z</time>
      </trkpt>
      <trkpt lat="42.99524" lon="-1.22481">
        <ele>769.370343</ele>
        <time>2026-05-22T13:45:31.000Z</time>
      </trkpt>
      <trkpt lat="42.99517" lon="-1.22483">
        <ele>769.161962</ele>
        <time>2026-05-22T13:45:32.000Z</time>
      </trkpt>
      <trkpt lat="42.9951" lon="-1.22485">
        <ele>768.950639</ele>
        <time>2026-05-22T13:45:33.000Z</time>
      </trkpt>
      <trkpt lat="42.99503" lon="-1.22487">
        <ele>768.73292</ele>
        <time>2026-05-22T13:45:34.000Z</time>
      </trkpt>
      <trkpt lat="42.99496" lon="-1.2249">
        <ele>768.507713</ele>
        <time>2026-05-22T13:45:35.000Z</time>
      </trkpt>
      <trkpt lat="42.99489" lon="-1.22493">
        <ele>768.278425</ele>
        <time>2026-05-22T13:45:36.000Z</time>
      </trkpt>
      <trkpt lat="42.99481" lon="-1.22495">
        <ele>768.041502</ele>
        <time>2026-05-22T13:45:37.000Z</time>
      </trkpt>
      <trkpt lat="42.99474" lon="-1.22498">
        <ele>767.805106</ele>
        <time>2026-05-22T13:45:38.000Z</time>
      </trkpt>
      <trkpt lat="42.99466" lon="-1.225">
        <ele>767.568183</ele>
        <time>2026-05-22T13:45:39.000Z</time>
      </trkpt>
      <trkpt lat="42.99459" lon="-1.22503">
        <ele>767.328958</ele>
        <time>2026-05-22T13:45:40.000Z</time>
      </trkpt>
      <trkpt lat="42.99451" lon="-1.22506">
        <ele>767.088001</ele>
        <time>2026-05-22T13:45:41.000Z</time>
      </trkpt>
      <trkpt lat="42.99443" lon="-1.22509">
        <ele>766.845206</ele>
        <time>2026-05-22T13:45:42.000Z</time>
      </trkpt>
      <trkpt lat="42.99435" lon="-1.22512">
        <ele>766.509277</ele>
        <time>2026-05-22T13:45:43.000Z</time>
      </trkpt>
      <trkpt lat="42.99428" lon="-1.22514">
        <ele>766.164773</ele>
        <time>2026-05-22T13:45:44.000Z</time>
      </trkpt>
      <trkpt lat="42.9942" lon="-1.22517">
        <ele>765.817631</ele>
        <time>2026-05-22T13:45:45.000Z</time>
      </trkpt>
      <trkpt lat="42.99412" lon="-1.22519">
        <ele>765.463429</ele>
        <time>2026-05-22T13:45:46.000Z</time>
      </trkpt>
      <trkpt lat="42.99404" lon="-1.22522">
        <ele>765.10627</ele>
        <time>2026-05-22T13:45:47.000Z</time>
      </trkpt>
      <trkpt lat="42.99396" lon="-1.22524">
        <ele>764.742826</ele>
        <time>2026-05-22T13:45:48.000Z</time>
      </trkpt>
      <trkpt lat="42.99388" lon="-1.22527">
        <ele>764.353557</ele>
        <time>2026-05-22T13:45:49.000Z</time>
      </trkpt>
      <trkpt lat="42.99378" lon="-1.2253">
        <ele>763.942302</ele>
        <time>2026-05-22T13:45:50.000Z</time>
      </trkpt>
      <trkpt lat="42.99369" lon="-1.22534">
        <ele>763.517534</ele>
        <time>2026-05-22T13:45:51.000Z</time>
      </trkpt>
      <trkpt lat="42.99359" lon="-1.22537">
        <ele>763.081537</ele>
        <time>2026-05-22T13:45:52.000Z</time>
      </trkpt>
      <trkpt lat="42.99349" lon="-1.2254">
        <ele>762.62703</ele>
        <time>2026-05-22T13:45:53.000Z</time>
      </trkpt>
      <trkpt lat="42.99339" lon="-1.22544">
        <ele>762.166797</ele>
        <time>2026-05-22T13:45:54.000Z</time>
      </trkpt>
      <trkpt lat="42.99329" lon="-1.22549">
        <ele>761.701854</ele>
        <time>2026-05-22T13:45:55.000Z</time>
      </trkpt>
      <trkpt lat="42.9932" lon="-1.22555">
        <ele>761.239855</ele>
        <time>2026-05-22T13:45:56.000Z</time>
      </trkpt>
      <trkpt lat="42.99311" lon="-1.22562">
        <ele>760.790458</ele>
        <time>2026-05-22T13:45:57.000Z</time>
      </trkpt>
      <trkpt lat="42.99302" lon="-1.2257">
        <ele>760.347682</ele>
        <time>2026-05-22T13:45:58.000Z</time>
      </trkpt>
      <trkpt lat="42.99295" lon="-1.22579">
        <ele>759.917184</ele>
        <time>2026-05-22T13:45:59.000Z</time>
      </trkpt>
      <trkpt lat="42.99288" lon="-1.22587">
        <ele>759.493322</ele>
        <time>2026-05-22T13:46:00.000Z</time>
      </trkpt>
      <trkpt lat="42.99281" lon="-1.22596">
        <ele>759.086528</ele>
        <time>2026-05-22T13:46:01.000Z</time>
      </trkpt>
      <trkpt lat="42.99274" lon="-1.22603">
        <ele>758.627028</ele>
        <time>2026-05-22T13:46:02.000Z</time>
      </trkpt>
      <trkpt lat="42.99267" lon="-1.2261">
        <ele>758.146572</ele>
        <time>2026-05-22T13:46:03.000Z</time>
      </trkpt>
      <trkpt lat="42.9926" lon="-1.22616">
        <ele>757.661163</ele>
        <time>2026-05-22T13:46:04.000Z</time>
      </trkpt>
      <trkpt lat="42.99252" lon="-1.22621">
        <ele>757.158588</ele>
        <time>2026-05-22T13:46:05.000Z</time>
      </trkpt>
      <trkpt lat="42.99243" lon="-1.22626">
        <ele>756.658802</ele>
        <time>2026-05-22T13:46:06.000Z</time>
      </trkpt>
      <trkpt lat="42.99235" lon="-1.2263">
        <ele>756.163492</ele>
        <time>2026-05-22T13:46:07.000Z</time>
      </trkpt>
      <trkpt lat="42.99227" lon="-1.22632">
        <ele>755.674848</ele>
        <time>2026-05-22T13:46:08.000Z</time>
      </trkpt>
      <trkpt lat="42.99218" lon="-1.22634">
        <ele>755.166075</ele>
        <time>2026-05-22T13:46:09.000Z</time>
      </trkpt>
      <trkpt lat="42.99209" lon="-1.22634">
        <ele>754.643296</ele>
        <time>2026-05-22T13:46:10.000Z</time>
      </trkpt>
      <trkpt lat="42.99199" lon="-1.22634">
        <ele>754.109961</ele>
        <time>2026-05-22T13:46:11.000Z</time>
      </trkpt>
      <trkpt lat="42.9919" lon="-1.22634">
        <ele>753.582054</ele>
        <time>2026-05-22T13:46:12.000Z</time>
      </trkpt>
      <trkpt lat="42.99181" lon="-1.22633">
        <ele>753.069394</ele>
        <time>2026-05-22T13:46:13.000Z</time>
      </trkpt>
      <trkpt lat="42.99172" lon="-1.22631">
        <ele>752.570774</ele>
        <time>2026-05-22T13:46:14.000Z</time>
      </trkpt>
      <trkpt lat="42.99164" lon="-1.22629">
        <ele>752.075672</ele>
        <time>2026-05-22T13:46:15.000Z</time>
      </trkpt>
      <trkpt lat="42.99156" lon="-1.22624">
        <ele>751.584167</ele>
        <time>2026-05-22T13:46:16.000Z</time>
      </trkpt>
      <trkpt lat="42.99148" lon="-1.22618">
        <ele>751.083363</ele>
        <time>2026-05-22T13:46:17.000Z</time>
      </trkpt>
      <trkpt lat="42.99141" lon="-1.22611">
        <ele>750.574787</ele>
        <time>2026-05-22T13:46:18.000Z</time>
      </trkpt>
      <trkpt lat="42.99134" lon="-1.22603">
        <ele>750.067346</ele>
        <time>2026-05-22T13:46:19.000Z</time>
      </trkpt>
      <trkpt lat="42.99128" lon="-1.22595">
        <ele>749.570952</ele>
        <time>2026-05-22T13:46:20.000Z</time>
      </trkpt>
      <trkpt lat="42.99122" lon="-1.22587">
        <ele>749.081522</ele>
        <time>2026-05-22T13:46:21.000Z</time>
      </trkpt>
      <trkpt lat="42.99116" lon="-1.22579">
        <ele>748.727875</ele>
        <time>2026-05-22T13:46:22.000Z</time>
      </trkpt>
      <trkpt lat="42.9911" lon="-1.22571">
        <ele>748.654771</ele>
        <time>2026-05-22T13:46:23.000Z</time>
      </trkpt>
      <trkpt lat="42.99104" lon="-1.22563">
        <ele>748.581495</ele>
        <time>2026-05-22T13:46:24.000Z</time>
      </trkpt>
      <trkpt lat="42.99099" lon="-1.22556">
        <ele>748.51093</ele>
        <time>2026-05-22T13:46:25.000Z</time>
      </trkpt>
      <trkpt lat="42.99093" lon="-1.22548">
        <ele>748.441014</ele>
        <time>2026-05-22T13:46:26.000Z</time>
      </trkpt>
      <trkpt lat="42.99088" lon="-1.22541">
        <ele>748.371569</ele>
        <time>2026-05-22T13:46:27.000Z</time>
      </trkpt>
      <trkpt lat="42.99083" lon="-1.22534">
        <ele>748.304187</ele>
        <time>2026-05-22T13:46:28.000Z</time>
      </trkpt>
      <trkpt lat="42.99079" lon="-1.22526">
        <ele>748.23883</ele>
        <time>2026-05-22T13:46:29.000Z</time>
      </trkpt>
      <trkpt lat="42.99074" lon="-1.22518">
        <ele>748.173474</ele>
        <time>2026-05-22T13:46:30.000Z</time>
      </trkpt>
      <trkpt lat="42.9907" lon="-1.22511">
        <ele>748.110782</ele>
        <time>2026-05-22T13:46:31.000Z</time>
      </trkpt>
      <trkpt lat="42.99066" lon="-1.22504">
        <ele>748.050276</ele>
        <time>2026-05-22T13:46:32.000Z</time>
      </trkpt>
      <trkpt lat="42.99062" lon="-1.22497">
        <ele>747.991387</ele>
        <time>2026-05-22T13:46:33.000Z</time>
      </trkpt>
      <trkpt lat="42.99058" lon="-1.2249">
        <ele>747.932497</ele>
        <time>2026-05-22T13:46:34.000Z</time>
      </trkpt>
      <trkpt lat="42.99054" lon="-1.22483">
        <ele>747.873641</ele>
        <time>2026-05-22T13:46:35.000Z</time>
      </trkpt>
      <trkpt lat="42.9905" lon="-1.22476">
        <ele>747.813598</ele>
        <time>2026-05-22T13:46:36.000Z</time>
      </trkpt>
      <trkpt lat="42.99046" lon="-1.22469">
        <ele>747.753092</ele>
        <time>2026-05-22T13:46:37.000Z</time>
      </trkpt>
      <trkpt lat="42.99041" lon="-1.22462">
        <ele>747.69206</ele>
        <time>2026-05-22T13:46:38.000Z</time>
      </trkpt>
      <trkpt lat="42.99037" lon="-1.22455">
        <ele>747.632116</ele>
        <time>2026-05-22T13:46:39.000Z</time>
      </trkpt>
      <trkpt lat="42.99033" lon="-1.22448">
        <ele>747.571641</ele>
        <time>2026-05-22T13:46:40.000Z</time>
      </trkpt>
      <trkpt lat="42.99029" lon="-1.2244">
        <ele>747.510042</ele>
        <time>2026-05-22T13:46:41.000Z</time>
      </trkpt>
      <trkpt lat="42.99025" lon="-1.22434">
        <ele>747.447465</ele>
        <time>2026-05-22T13:46:42.000Z</time>
      </trkpt>
      <trkpt lat="42.9902" lon="-1.22427">
        <ele>747.385212</ele>
        <time>2026-05-22T13:46:43.000Z</time>
      </trkpt>
      <trkpt lat="42.99015" lon="-1.22421">
        <ele>747.323033</ele>
        <time>2026-05-22T13:46:44.000Z</time>
      </trkpt>
      <trkpt lat="42.99009" lon="-1.22415">
        <ele>747.259514</ele>
        <time>2026-05-22T13:46:45.000Z</time>
      </trkpt>
      <trkpt lat="42.99003" lon="-1.2241">
        <ele>747.196813</ele>
        <time>2026-05-22T13:46:46.000Z</time>
      </trkpt>
      <trkpt lat="42.98998" lon="-1.22405">
        <ele>747.135497</ele>
        <time>2026-05-22T13:46:47.000Z</time>
      </trkpt>
      <trkpt lat="42.98992" lon="-1.22401">
        <ele>747.055321</ele>
        <time>2026-05-22T13:46:48.000Z</time>
      </trkpt>
      <trkpt lat="42.98985" lon="-1.22397">
        <ele>746.952371</ele>
        <time>2026-05-22T13:46:49.000Z</time>
      </trkpt>
      <trkpt lat="42.98979" lon="-1.22394">
        <ele>746.851096</ele>
        <time>2026-05-22T13:46:50.000Z</time>
      </trkpt>
      <trkpt lat="42.98973" lon="-1.22391">
        <ele>746.753342</ele>
        <time>2026-05-22T13:46:51.000Z</time>
      </trkpt>
      <trkpt lat="42.98967" lon="-1.22387">
        <ele>746.657897</ele>
        <time>2026-05-22T13:46:52.000Z</time>
      </trkpt>
      <trkpt lat="42.98962" lon="-1.22382">
        <ele>746.565079</ele>
        <time>2026-05-22T13:46:53.000Z</time>
      </trkpt>
      <trkpt lat="42.98956" lon="-1.22376">
        <ele>746.46964</ele>
        <time>2026-05-22T13:46:54.000Z</time>
      </trkpt>
      <trkpt lat="42.98952" lon="-1.2237">
        <ele>746.375483</ele>
        <time>2026-05-22T13:46:55.000Z</time>
      </trkpt>
      <trkpt lat="42.98947" lon="-1.22364">
        <ele>746.279512</ele>
        <time>2026-05-22T13:46:56.000Z</time>
      </trkpt>
      <trkpt lat="42.98943" lon="-1.22357">
        <ele>746.180448</ele>
        <time>2026-05-22T13:46:57.000Z</time>
      </trkpt>
      <trkpt lat="42.98938" lon="-1.2235">
        <ele>746.077862</ele>
        <time>2026-05-22T13:46:58.000Z</time>
      </trkpt>
      <trkpt lat="42.98934" lon="-1.22343">
        <ele>745.97495</ele>
        <time>2026-05-22T13:46:59.000Z</time>
      </trkpt>
      <trkpt lat="42.98929" lon="-1.22335">
        <ele>745.873171</ele>
        <time>2026-05-22T13:47:00.000Z</time>
      </trkpt>
      <trkpt lat="42.98925" lon="-1.22328">
        <ele>745.770572</ele>
        <time>2026-05-22T13:47:01.000Z</time>
      </trkpt>
      <trkpt lat="42.9892" lon="-1.22321">
        <ele>745.663472</ele>
        <time>2026-05-22T13:47:02.000Z</time>
      </trkpt>
      <trkpt lat="42.98915" lon="-1.22313">
        <ele>745.553924</ele>
        <time>2026-05-22T13:47:03.000Z</time>
      </trkpt>
      <trkpt lat="42.9891" lon="-1.22305">
        <ele>745.446143</ele>
        <time>2026-05-22T13:47:04.000Z</time>
      </trkpt>
      <trkpt lat="42.98905" lon="-1.22297">
        <ele>745.336595</ele>
        <time>2026-05-22T13:47:05.000Z</time>
      </trkpt>
      <trkpt lat="42.98901" lon="-1.22289">
        <ele>745.226423</ele>
        <time>2026-05-22T13:47:06.000Z</time>
      </trkpt>
      <trkpt lat="42.98897" lon="-1.22281">
        <ele>745.117992</ele>
        <time>2026-05-22T13:47:07.000Z</time>
      </trkpt>
      <trkpt lat="42.98892" lon="-1.22273">
        <ele>745.01008</ele>
        <time>2026-05-22T13:47:08.000Z</time>
      </trkpt>
      <trkpt lat="42.98887" lon="-1.22266">
        <ele>744.902978</ele>
        <time>2026-05-22T13:47:09.000Z</time>
      </trkpt>
      <trkpt lat="42.98882" lon="-1.22259">
        <ele>744.797653</ele>
        <time>2026-05-22T13:47:10.000Z</time>
      </trkpt>
      <trkpt lat="42.98877" lon="-1.22251">
        <ele>744.688384</ele>
        <time>2026-05-22T13:47:11.000Z</time>
      </trkpt>
      <trkpt lat="42.98873" lon="-1.22243">
        <ele>744.580703</ele>
        <time>2026-05-22T13:47:12.000Z</time>
      </trkpt>
      <trkpt lat="42.98868" lon="-1.22236">
        <ele>744.472791</ele>
        <time>2026-05-22T13:47:13.000Z</time>
      </trkpt>
      <trkpt lat="42.98863" lon="-1.22228">
        <ele>744.332558</ele>
        <time>2026-05-22T13:47:14.000Z</time>
      </trkpt>
      <trkpt lat="42.98859" lon="-1.22221">
        <ele>744.188373</ele>
        <time>2026-05-22T13:47:15.000Z</time>
      </trkpt>
      <trkpt lat="42.98854" lon="-1.22213">
        <ele>744.043093</ele>
        <time>2026-05-22T13:47:16.000Z</time>
      </trkpt>
      <trkpt lat="42.98849" lon="-1.22206">
        <ele>743.898907</ele>
        <time>2026-05-22T13:47:17.000Z</time>
      </trkpt>
      <trkpt lat="42.98844" lon="-1.22198">
        <ele>743.758443</ele>
        <time>2026-05-22T13:47:18.000Z</time>
      </trkpt>
      <trkpt lat="42.9884" lon="-1.22191">
        <ele>743.615756</ele>
        <time>2026-05-22T13:47:19.000Z</time>
      </trkpt>
      <trkpt lat="42.98835" lon="-1.22184">
        <ele>743.475073</ele>
        <time>2026-05-22T13:47:20.000Z</time>
      </trkpt>
      <trkpt lat="42.98831" lon="-1.22176">
        <ele>743.334914</ele>
        <time>2026-05-22T13:47:21.000Z</time>
      </trkpt>
      <trkpt lat="42.98826" lon="-1.22169">
        <ele>743.195993</ele>
        <time>2026-05-22T13:47:22.000Z</time>
      </trkpt>
      <trkpt lat="42.98822" lon="-1.22161">
        <ele>743.055834</ele>
        <time>2026-05-22T13:47:23.000Z</time>
      </trkpt>
      <trkpt lat="42.98817" lon="-1.22154">
        <ele>742.913147</ele>
        <time>2026-05-22T13:47:24.000Z</time>
      </trkpt>
      <trkpt lat="42.98813" lon="-1.22145">
        <ele>742.762497</ele>
        <time>2026-05-22T13:47:25.000Z</time>
      </trkpt>
      <trkpt lat="42.98808" lon="-1.22138">
        <ele>742.617563</ele>
        <time>2026-05-22T13:47:26.000Z</time>
      </trkpt>
      <trkpt lat="42.98804" lon="-1.2213">
        <ele>742.474876</ele>
        <time>2026-05-22T13:47:27.000Z</time>
      </trkpt>
      <trkpt lat="42.98798" lon="-1.22124">
        <ele>742.329407</ele>
        <time>2026-05-22T13:47:28.000Z</time>
      </trkpt>
      <trkpt lat="42.98792" lon="-1.22118">
        <ele>742.181308</ele>
        <time>2026-05-22T13:47:29.000Z</time>
      </trkpt>
      <trkpt lat="42.98784" lon="-1.22114">
        <ele>742.020327</ele>
        <time>2026-05-22T13:47:30.000Z</time>
      </trkpt>
      <trkpt lat="42.98777" lon="-1.22111">
        <ele>741.859934</ele>
        <time>2026-05-22T13:47:31.000Z</time>
      </trkpt>
      <trkpt lat="42.98769" lon="-1.22109">
        <ele>741.701771</ele>
        <time>2026-05-22T13:47:32.000Z</time>
      </trkpt>
      <trkpt lat="42.98761" lon="-1.22109">
        <ele>741.548312</ele>
        <time>2026-05-22T13:47:33.000Z</time>
      </trkpt>
      <trkpt lat="42.98753" lon="-1.2211">
        <ele>741.395839</ele>
        <time>2026-05-22T13:47:34.000Z</time>
      </trkpt>
      <trkpt lat="42.98746" lon="-1.22112">
        <ele>741.240391</ele>
        <time>2026-05-22T13:47:35.000Z</time>
      </trkpt>
      <trkpt lat="42.98738" lon="-1.22114">
        <ele>741.089767</ele>
        <time>2026-05-22T13:47:36.000Z</time>
      </trkpt>
      <trkpt lat="42.98731" lon="-1.22117">
        <ele>740.940174</ele>
        <time>2026-05-22T13:47:37.000Z</time>
      </trkpt>
      <trkpt lat="42.98724" lon="-1.2212">
        <ele>740.820407</ele>
        <time>2026-05-22T13:47:38.000Z</time>
      </trkpt>
      <trkpt lat="42.98717" lon="-1.22124">
        <ele>740.723406</ele>
        <time>2026-05-22T13:47:39.000Z</time>
      </trkpt>
      <trkpt lat="42.9871" lon="-1.22129">
        <ele>740.626756</ele>
        <time>2026-05-22T13:47:40.000Z</time>
      </trkpt>
      <trkpt lat="42.98705" lon="-1.22136">
        <ele>740.530869</ele>
        <time>2026-05-22T13:47:41.000Z</time>
      </trkpt>
      <trkpt lat="42.987" lon="-1.22144">
        <ele>740.432326</ele>
        <time>2026-05-22T13:47:42.000Z</time>
      </trkpt>
      <trkpt lat="42.98695" lon="-1.22152">
        <ele>740.331898</ele>
        <time>2026-05-22T13:47:43.000Z</time>
      </trkpt>
      <trkpt lat="42.9869" lon="-1.22161">
        <ele>740.231417</ele>
        <time>2026-05-22T13:47:44.000Z</time>
      </trkpt>
      <trkpt lat="42.98685" lon="-1.22169">
        <ele>740.129778</ele>
        <time>2026-05-22T13:47:45.000Z</time>
      </trkpt>
      <trkpt lat="42.98679" lon="-1.22177">
        <ele>740.030533</ele>
        <time>2026-05-22T13:47:46.000Z</time>
      </trkpt>
      <trkpt lat="42.98674" lon="-1.22184">
        <ele>739.933207</ele>
        <time>2026-05-22T13:47:47.000Z</time>
      </trkpt>
      <trkpt lat="42.98669" lon="-1.22191">
        <ele>739.837703</ele>
        <time>2026-05-22T13:47:48.000Z</time>
      </trkpt>
      <trkpt lat="42.98662" lon="-1.22197">
        <ele>739.743207</ele>
        <time>2026-05-22T13:47:49.000Z</time>
      </trkpt>
      <trkpt lat="42.98655" lon="-1.22201">
        <ele>739.646255</ele>
        <time>2026-05-22T13:47:50.000Z</time>
      </trkpt>
      <trkpt lat="42.98649" lon="-1.22204">
        <ele>739.553395</ele>
        <time>2026-05-22T13:47:51.000Z</time>
      </trkpt>
      <trkpt lat="42.98642" lon="-1.22205">
        <ele>739.462806</ele>
        <time>2026-05-22T13:47:52.000Z</time>
      </trkpt>
      <trkpt lat="42.98635" lon="-1.22206">
        <ele>739.373188</ele>
        <time>2026-05-22T13:47:53.000Z</time>
      </trkpt>
      <trkpt lat="42.98628" lon="-1.22206">
        <ele>739.287506</ele>
        <time>2026-05-22T13:47:54.000Z</time>
      </trkpt>
      <trkpt lat="42.98621" lon="-1.22206">
        <ele>739.201718</ele>
        <time>2026-05-22T13:47:55.000Z</time>
      </trkpt>
      <trkpt lat="42.98615" lon="-1.22205">
        <ele>739.118425</ele>
        <time>2026-05-22T13:47:56.000Z</time>
      </trkpt>
      <trkpt lat="42.98608" lon="-1.22205">
        <ele>739.036552</ele>
        <time>2026-05-22T13:47:57.000Z</time>
      </trkpt>
      <trkpt lat="42.98602" lon="-1.22206">
        <ele>738.956619</ele>
        <time>2026-05-22T13:47:58.000Z</time>
      </trkpt>
      <trkpt lat="42.98596" lon="-1.22209">
        <ele>738.873084</ele>
        <time>2026-05-22T13:47:59.000Z</time>
      </trkpt>
      <trkpt lat="42.9859" lon="-1.22214">
        <ele>738.789069</ele>
        <time>2026-05-22T13:48:00.000Z</time>
      </trkpt>
      <trkpt lat="42.98585" lon="-1.2222">
        <ele>738.701811</ele>
        <time>2026-05-22T13:48:01.000Z</time>
      </trkpt>
      <trkpt lat="42.98581" lon="-1.22227">
        <ele>738.614499</ele>
        <time>2026-05-22T13:48:02.000Z</time>
      </trkpt>
      <trkpt lat="42.98576" lon="-1.22235">
        <ele>738.428864</ele>
        <time>2026-05-22T13:48:03.000Z</time>
      </trkpt>
      <trkpt lat="42.98572" lon="-1.22244">
        <ele>738.176682</ele>
        <time>2026-05-22T13:48:04.000Z</time>
      </trkpt>
      <trkpt lat="42.98567" lon="-1.22253">
        <ele>737.920879</ele>
        <time>2026-05-22T13:48:05.000Z</time>
      </trkpt>
      <trkpt lat="42.98562" lon="-1.2226">
        <ele>737.654163</ele>
        <time>2026-05-22T13:48:06.000Z</time>
      </trkpt>
      <trkpt lat="42.98555" lon="-1.22268">
        <ele>737.381634</ele>
        <time>2026-05-22T13:48:07.000Z</time>
      </trkpt>
      <trkpt lat="42.98549" lon="-1.22274">
        <ele>737.120687</ele>
        <time>2026-05-22T13:48:08.000Z</time>
      </trkpt>
      <trkpt lat="42.98542" lon="-1.22281">
        <ele>736.858339</ele>
        <time>2026-05-22T13:48:09.000Z</time>
      </trkpt>
      <trkpt lat="42.98535" lon="-1.22287">
        <ele>736.590706</ele>
        <time>2026-05-22T13:48:10.000Z</time>
      </trkpt>
      <trkpt lat="42.98529" lon="-1.22294">
        <ele>736.318872</ele>
        <time>2026-05-22T13:48:11.000Z</time>
      </trkpt>
      <trkpt lat="42.98522" lon="-1.223">
        <ele>736.041673</ele>
        <time>2026-05-22T13:48:12.000Z</time>
      </trkpt>
      <trkpt lat="42.98514" lon="-1.22305">
        <ele>735.769944</ele>
        <time>2026-05-22T13:48:13.000Z</time>
      </trkpt>
      <trkpt lat="42.98506" lon="-1.22307">
        <ele>735.506826</ele>
        <time>2026-05-22T13:48:14.000Z</time>
      </trkpt>
      <trkpt lat="42.98498" lon="-1.22307">
        <ele>735.236281</ele>
        <time>2026-05-22T13:48:15.000Z</time>
      </trkpt>
      <trkpt lat="42.9849" lon="-1.22306">
        <ele>734.972248</ele>
        <time>2026-05-22T13:48:16.000Z</time>
      </trkpt>
      <trkpt lat="42.98481" lon="-1.22307">
        <ele>734.703846</ele>
        <time>2026-05-22T13:48:17.000Z</time>
      </trkpt>
      <trkpt lat="42.98473" lon="-1.22311">
        <ele>734.429485</ele>
        <time>2026-05-22T13:48:18.000Z</time>
      </trkpt>
      <trkpt lat="42.98466" lon="-1.22317">
        <ele>734.151008</ele>
        <time>2026-05-22T13:48:19.000Z</time>
      </trkpt>
      <trkpt lat="42.98459" lon="-1.22324">
        <ele>733.87264</ele>
        <time>2026-05-22T13:48:20.000Z</time>
      </trkpt>
      <trkpt lat="42.98453" lon="-1.22331">
        <ele>733.598603</ele>
        <time>2026-05-22T13:48:21.000Z</time>
      </trkpt>
      <trkpt lat="42.98446" lon="-1.22339">
        <ele>733.316097</ele>
        <time>2026-05-22T13:48:22.000Z</time>
      </trkpt>
      <trkpt lat="42.9844" lon="-1.22347">
        <ele>733.02875</ele>
        <time>2026-05-22T13:48:23.000Z</time>
      </trkpt>
      <trkpt lat="42.98433" lon="-1.22356">
        <ele>732.734205</ele>
        <time>2026-05-22T13:48:24.000Z</time>
      </trkpt>
      <trkpt lat="42.98426" lon="-1.22364">
        <ele>732.346879</ele>
        <time>2026-05-22T13:48:25.000Z</time>
      </trkpt>
      <trkpt lat="42.98419" lon="-1.22372">
        <ele>731.956193</ele>
        <time>2026-05-22T13:48:26.000Z</time>
      </trkpt>
      <trkpt lat="42.98412" lon="-1.22381">
        <ele>731.557056</ele>
        <time>2026-05-22T13:48:27.000Z</time>
      </trkpt>
      <trkpt lat="42.98405" lon="-1.22389">
        <ele>731.153822</ele>
        <time>2026-05-22T13:48:28.000Z</time>
      </trkpt>
      <trkpt lat="42.98398" lon="-1.22398">
        <ele>730.73596</ele>
        <time>2026-05-22T13:48:29.000Z</time>
      </trkpt>
      <trkpt lat="42.9839" lon="-1.22407">
        <ele>730.312858</ele>
        <time>2026-05-22T13:48:30.000Z</time>
      </trkpt>
      <trkpt lat="42.98383" lon="-1.22416">
        <ele>729.892721</ele>
        <time>2026-05-22T13:48:31.000Z</time>
      </trkpt>
      <trkpt lat="42.98376" lon="-1.22425">
        <ele>729.471692</ele>
        <time>2026-05-22T13:48:32.000Z</time>
      </trkpt>
      <trkpt lat="42.98368" lon="-1.22434">
        <ele>729.055578</ele>
        <time>2026-05-22T13:48:33.000Z</time>
      </trkpt>
      <trkpt lat="42.9836" lon="-1.22442">
        <ele>728.641339</ele>
        <time>2026-05-22T13:48:34.000Z</time>
      </trkpt>
      <trkpt lat="42.98352" lon="-1.22449">
        <ele>728.220178</ele>
        <time>2026-05-22T13:48:35.000Z</time>
      </trkpt>
      <trkpt lat="42.98344" lon="-1.22457">
        <ele>727.79027</ele>
        <time>2026-05-22T13:48:36.000Z</time>
      </trkpt>
      <trkpt lat="42.98335" lon="-1.22466">
        <ele>727.353135</ele>
        <time>2026-05-22T13:48:37.000Z</time>
      </trkpt>
      <trkpt lat="42.98327" lon="-1.22475">
        <ele>726.905484</ele>
        <time>2026-05-22T13:48:38.000Z</time>
      </trkpt>
      <trkpt lat="42.9832" lon="-1.22485">
        <ele>726.461378</ele>
        <time>2026-05-22T13:48:39.000Z</time>
      </trkpt>
      <trkpt lat="42.98312" lon="-1.22495">
        <ele>726.015427</ele>
        <time>2026-05-22T13:48:40.000Z</time>
      </trkpt>
      <trkpt lat="42.98305" lon="-1.22505">
        <ele>725.577607</ele>
        <time>2026-05-22T13:48:41.000Z</time>
      </trkpt>
      <trkpt lat="42.98298" lon="-1.22515">
        <ele>725.142705</ele>
        <time>2026-05-22T13:48:42.000Z</time>
      </trkpt>
      <trkpt lat="42.98291" lon="-1.22525">
        <ele>724.962032</ele>
        <time>2026-05-22T13:48:43.000Z</time>
      </trkpt>
      <trkpt lat="42.98284" lon="-1.22534">
        <ele>724.833761</ele>
        <time>2026-05-22T13:48:44.000Z</time>
      </trkpt>
      <trkpt lat="42.98277" lon="-1.22543">
        <ele>724.707481</ele>
        <time>2026-05-22T13:48:45.000Z</time>
      </trkpt>
      <trkpt lat="42.98271" lon="-1.22551">
        <ele>724.587076</ele>
        <time>2026-05-22T13:48:46.000Z</time>
      </trkpt>
      <trkpt lat="42.98264" lon="-1.22559">
        <ele>724.469586</ele>
        <time>2026-05-22T13:48:47.000Z</time>
      </trkpt>
      <trkpt lat="42.98257" lon="-1.22567">
        <ele>724.35765</ele>
        <time>2026-05-22T13:48:48.000Z</time>
      </trkpt>
      <trkpt lat="42.98251" lon="-1.22574">
        <ele>724.246969</ele>
        <time>2026-05-22T13:48:49.000Z</time>
      </trkpt>
      <trkpt lat="42.98244" lon="-1.22581">
        <ele>724.136639</ele>
        <time>2026-05-22T13:48:50.000Z</time>
      </trkpt>
      <trkpt lat="42.98238" lon="-1.22588">
        <ele>724.026308</ele>
        <time>2026-05-22T13:48:51.000Z</time>
      </trkpt>
      <trkpt lat="42.98232" lon="-1.22595">
        <ele>723.917269</ele>
        <time>2026-05-22T13:48:52.000Z</time>
      </trkpt>
      <trkpt lat="42.98225" lon="-1.22602">
        <ele>723.809245</ele>
        <time>2026-05-22T13:48:53.000Z</time>
      </trkpt>
      <trkpt lat="42.98219" lon="-1.22609">
        <ele>723.704225</ele>
        <time>2026-05-22T13:48:54.000Z</time>
      </trkpt>
      <trkpt lat="42.98214" lon="-1.22617">
        <ele>723.599536</ele>
        <time>2026-05-22T13:48:55.000Z</time>
      </trkpt>
      <trkpt lat="42.98208" lon="-1.22624">
        <ele>723.496153</ele>
        <time>2026-05-22T13:48:56.000Z</time>
      </trkpt>
      <trkpt lat="42.98202" lon="-1.2263">
        <ele>723.395533</ele>
        <time>2026-05-22T13:48:57.000Z</time>
      </trkpt>
      <trkpt lat="42.98196" lon="-1.22637">
        <ele>723.296342</ele>
        <time>2026-05-22T13:48:58.000Z</time>
      </trkpt>
      <trkpt lat="42.98191" lon="-1.22644">
        <ele>723.197151</ele>
        <time>2026-05-22T13:48:59.000Z</time>
      </trkpt>
      <trkpt lat="42.98185" lon="-1.2265">
        <ele>723.099204</ele>
        <time>2026-05-22T13:49:00.000Z</time>
      </trkpt>
      <trkpt lat="42.98179" lon="-1.22656">
        <ele>723.003295</ele>
        <time>2026-05-22T13:49:01.000Z</time>
      </trkpt>
      <trkpt lat="42.98174" lon="-1.22663">
        <ele>722.907753</ele>
        <time>2026-05-22T13:49:02.000Z</time>
      </trkpt>
      <trkpt lat="42.98169" lon="-1.2267">
        <ele>722.810261</ele>
        <time>2026-05-22T13:49:03.000Z</time>
      </trkpt>
      <trkpt lat="42.98163" lon="-1.22676">
        <ele>722.715993</ele>
        <time>2026-05-22T13:49:04.000Z</time>
      </trkpt>
      <trkpt lat="42.98158" lon="-1.22682">
        <ele>722.701387</ele>
        <time>2026-05-22T13:49:05.000Z</time>
      </trkpt>
      <trkpt lat="42.98152" lon="-1.22689">
        <ele>722.723823</ele>
        <time>2026-05-22T13:49:06.000Z</time>
      </trkpt>
      <trkpt lat="42.98147" lon="-1.22695">
        <ele>722.745944</ele>
        <time>2026-05-22T13:49:07.000Z</time>
      </trkpt>
      <trkpt lat="42.98142" lon="-1.22702">
        <ele>722.767677</ele>
        <time>2026-05-22T13:49:08.000Z</time>
      </trkpt>
      <trkpt lat="42.98137" lon="-1.22708">
        <ele>722.789025</ele>
        <time>2026-05-22T13:49:09.000Z</time>
      </trkpt>
      <trkpt lat="42.98132" lon="-1.22714">
        <ele>722.809136</ele>
        <time>2026-05-22T13:49:10.000Z</time>
      </trkpt>
      <trkpt lat="42.98127" lon="-1.22719">
        <ele>722.828081</ele>
        <time>2026-05-22T13:49:11.000Z</time>
      </trkpt>
      <trkpt lat="42.98122" lon="-1.22723">
        <ele>722.846626</ele>
        <time>2026-05-22T13:49:12.000Z</time>
      </trkpt>
      <trkpt lat="42.98118" lon="-1.22727">
        <ele>722.86412</ele>
        <time>2026-05-22T13:49:13.000Z</time>
      </trkpt>
      <trkpt lat="42.98113" lon="-1.22731">
        <ele>722.881359</ele>
        <time>2026-05-22T13:49:14.000Z</time>
      </trkpt>
      <trkpt lat="42.98109" lon="-1.22735">
        <ele>722.897298</ele>
        <time>2026-05-22T13:49:15.000Z</time>
      </trkpt>
      <trkpt lat="42.98105" lon="-1.22739">
        <ele>722.913372</ele>
        <time>2026-05-22T13:49:16.000Z</time>
      </trkpt>
      <trkpt lat="42.981" lon="-1.22743">
        <ele>722.929083</ele>
        <time>2026-05-22T13:49:17.000Z</time>
      </trkpt>
      <trkpt lat="42.98096" lon="-1.22746">
        <ele>722.944258</ele>
        <time>2026-05-22T13:49:18.000Z</time>
      </trkpt>
      <trkpt lat="42.98092" lon="-1.22749">
        <ele>722.959242</ele>
        <time>2026-05-22T13:49:19.000Z</time>
      </trkpt>
      <trkpt lat="42.98088" lon="-1.22752">
        <ele>722.973909</ele>
        <time>2026-05-22T13:49:20.000Z</time>
      </trkpt>
      <trkpt lat="42.98084" lon="-1.22756">
        <ele>722.988308</ele>
        <time>2026-05-22T13:49:21.000Z</time>
      </trkpt>
      <trkpt lat="42.9808" lon="-1.22759">
        <ele>723.002319</ele>
        <time>2026-05-22T13:49:22.000Z</time>
      </trkpt>
      <trkpt lat="42.98076" lon="-1.22762">
        <ele>723.017105</ele>
        <time>2026-05-22T13:49:23.000Z</time>
      </trkpt>
      <trkpt lat="42.98072" lon="-1.22766">
        <ele>723.031655</ele>
        <time>2026-05-22T13:49:24.000Z</time>
      </trkpt>
      <trkpt lat="42.98068" lon="-1.22768">
        <ele>723.046324</ele>
        <time>2026-05-22T13:49:25.000Z</time>
      </trkpt>
      <trkpt lat="42.98064" lon="-1.22771">
        <ele>723.060528</ele>
        <time>2026-05-22T13:49:26.000Z</time>
      </trkpt>
      <trkpt lat="42.9806" lon="-1.22772">
        <ele>723.074946</ele>
        <time>2026-05-22T13:49:27.000Z</time>
      </trkpt>
      <trkpt lat="42.98055" lon="-1.22774">
        <ele>723.090353</ele>
        <time>2026-05-22T13:49:28.000Z</time>
      </trkpt>
      <trkpt lat="42.9805" lon="-1.22775">
        <ele>723.106289</ele>
        <time>2026-05-22T13:49:29.000Z</time>
      </trkpt>
      <trkpt lat="42.98045" lon="-1.22776">
        <ele>723.122774</ele>
        <time>2026-05-22T13:49:30.000Z</time>
      </trkpt>
      <trkpt lat="42.98039" lon="-1.22777">
        <ele>723.140192</ele>
        <time>2026-05-22T13:49:31.000Z</time>
      </trkpt>
      <trkpt lat="42.98034" lon="-1.22778">
        <ele>723.158063</ele>
        <time>2026-05-22T13:49:32.000Z</time>
      </trkpt>
      <trkpt lat="42.98028" lon="-1.2278">
        <ele>723.177134</ele>
        <time>2026-05-22T13:49:33.000Z</time>
      </trkpt>
      <trkpt lat="42.98021" lon="-1.22781">
        <ele>723.197135</ele>
        <time>2026-05-22T13:49:34.000Z</time>
      </trkpt>
      <trkpt lat="42.98015" lon="-1.22782">
        <ele>723.218036</ele>
        <time>2026-05-22T13:49:35.000Z</time>
      </trkpt>
      <trkpt lat="42.98008" lon="-1.22783">
        <ele>723.239194</ele>
        <time>2026-05-22T13:49:36.000Z</time>
      </trkpt>
      <trkpt lat="42.98002" lon="-1.22784">
        <ele>723.210447</ele>
        <time>2026-05-22T13:49:37.000Z</time>
      </trkpt>
      <trkpt lat="42.97995" lon="-1.22786">
        <ele>723.117208</ele>
        <time>2026-05-22T13:49:38.000Z</time>
      </trkpt>
      <trkpt lat="42.97989" lon="-1.22787">
        <ele>723.02302</ele>
        <time>2026-05-22T13:49:39.000Z</time>
      </trkpt>
      <trkpt lat="42.97983" lon="-1.2279">
        <ele>722.927864</ele>
        <time>2026-05-22T13:49:40.000Z</time>
      </trkpt>
      <trkpt lat="42.97976" lon="-1.22792">
        <ele>722.832309</ele>
        <time>2026-05-22T13:49:41.000Z</time>
      </trkpt>
      <trkpt lat="42.9797" lon="-1.22795">
        <ele>722.732084</ele>
        <time>2026-05-22T13:49:42.000Z</time>
      </trkpt>
      <trkpt lat="42.97963" lon="-1.22798">
        <ele>722.6316</ele>
        <time>2026-05-22T13:49:43.000Z</time>
      </trkpt>
      <trkpt lat="42.97957" lon="-1.22801">
        <ele>722.53293</ele>
        <time>2026-05-22T13:49:44.000Z</time>
      </trkpt>
      <trkpt lat="42.9795" lon="-1.22804">
        <ele>722.430802</ele>
        <time>2026-05-22T13:49:45.000Z</time>
      </trkpt>
      <trkpt lat="42.97944" lon="-1.22807">
        <ele>722.32577</ele>
        <time>2026-05-22T13:49:46.000Z</time>
      </trkpt>
      <trkpt lat="42.97937" lon="-1.2281">
        <ele>722.222145</ele>
        <time>2026-05-22T13:49:47.000Z</time>
      </trkpt>
      <trkpt lat="42.9793" lon="-1.22812">
        <ele>722.118519</ele>
        <time>2026-05-22T13:49:48.000Z</time>
      </trkpt>
      <trkpt lat="42.97923" lon="-1.22815">
        <ele>722.015471</ele>
        <time>2026-05-22T13:49:49.000Z</time>
      </trkpt>
      <trkpt lat="42.97916" lon="-1.22817">
        <ele>721.910818</ele>
        <time>2026-05-22T13:49:50.000Z</time>
      </trkpt>
      <trkpt lat="42.97909" lon="-1.22819">
        <ele>721.801864</ele>
        <time>2026-05-22T13:49:51.000Z</time>
      </trkpt>
      <trkpt lat="42.97902" lon="-1.22821">
        <ele>721.695986</ele>
        <time>2026-05-22T13:49:52.000Z</time>
      </trkpt>
      <trkpt lat="42.97895" lon="-1.22824">
        <ele>721.587533</ele>
        <time>2026-05-22T13:49:53.000Z</time>
      </trkpt>
      <trkpt lat="42.97887" lon="-1.22826">
        <ele>721.47908</ele>
        <time>2026-05-22T13:49:54.000Z</time>
      </trkpt>
      <trkpt lat="42.9788" lon="-1.22828">
        <ele>721.371113</ele>
        <time>2026-05-22T13:49:55.000Z</time>
      </trkpt>
      <trkpt lat="42.97873" lon="-1.2283">
        <ele>721.261475</ele>
        <time>2026-05-22T13:49:56.000Z</time>
      </trkpt>
      <trkpt lat="42.97866" lon="-1.22832">
        <ele>721.157432</ele>
        <time>2026-05-22T13:49:57.000Z</time>
      </trkpt>
      <trkpt lat="42.97859" lon="-1.22833">
        <ele>721.056456</ele>
        <time>2026-05-22T13:49:58.000Z</time>
      </trkpt>
      <trkpt lat="42.97852" lon="-1.22834">
        <ele>720.956662</ele>
        <time>2026-05-22T13:49:59.000Z</time>
      </trkpt>
      <trkpt lat="42.97846" lon="-1.22834">
        <ele>720.85859</ele>
        <time>2026-05-22T13:50:00.000Z</time>
      </trkpt>
      <trkpt lat="42.97839" lon="-1.22834">
        <ele>720.761982</ele>
        <time>2026-05-22T13:50:01.000Z</time>
      </trkpt>
      <trkpt lat="42.97833" lon="-1.22833">
        <ele>720.670847</ele>
        <time>2026-05-22T13:50:02.000Z</time>
      </trkpt>
      <trkpt lat="42.97827" lon="-1.22832">
        <ele>720.634521</ele>
        <time>2026-05-22T13:50:03.000Z</time>
      </trkpt>
      <trkpt lat="42.97821" lon="-1.2283">
        <ele>720.671338</ele>
        <time>2026-05-22T13:50:04.000Z</time>
      </trkpt>
      <trkpt lat="42.97815" lon="-1.22828">
        <ele>720.708658</ele>
        <time>2026-05-22T13:50:05.000Z</time>
      </trkpt>
      <trkpt lat="42.97808" lon="-1.22827">
        <ele>720.746345</ele>
        <time>2026-05-22T13:50:06.000Z</time>
      </trkpt>
      <trkpt lat="42.97802" lon="-1.22826">
        <ele>720.784033</ele>
        <time>2026-05-22T13:50:07.000Z</time>
      </trkpt>
      <trkpt lat="42.97796" lon="-1.22825">
        <ele>720.821412</ele>
        <time>2026-05-22T13:50:08.000Z</time>
      </trkpt>
      <trkpt lat="42.9779" lon="-1.22824">
        <ele>720.857678</ele>
        <time>2026-05-22T13:50:09.000Z</time>
      </trkpt>
      <trkpt lat="42.97784" lon="-1.22824">
        <ele>720.893196</ele>
        <time>2026-05-22T13:50:10.000Z</time>
      </trkpt>
      <trkpt lat="42.97778" lon="-1.22823">
        <ele>720.92867</ele>
        <time>2026-05-22T13:50:11.000Z</time>
      </trkpt>
      <trkpt lat="42.97772" lon="-1.22823">
        <ele>720.963563</ele>
        <time>2026-05-22T13:50:12.000Z</time>
      </trkpt>
      <trkpt lat="42.97767" lon="-1.22823">
        <ele>720.997813</ele>
        <time>2026-05-22T13:50:13.000Z</time>
      </trkpt>
      <trkpt lat="42.97761" lon="-1.22823">
        <ele>721.030306</ele>
        <time>2026-05-22T13:50:14.000Z</time>
      </trkpt>
      <trkpt lat="42.97756" lon="-1.22823">
        <ele>721.062751</ele>
        <time>2026-05-22T13:50:15.000Z</time>
      </trkpt>
      <trkpt lat="42.9775" lon="-1.22823">
        <ele>721.095271</ele>
        <time>2026-05-22T13:50:16.000Z</time>
      </trkpt>
      <trkpt lat="42.97745" lon="-1.22823">
        <ele>721.128929</ele>
        <time>2026-05-22T13:50:17.000Z</time>
      </trkpt>
      <trkpt lat="42.97739" lon="-1.22823">
        <ele>721.162579</ele>
        <time>2026-05-22T13:50:18.000Z</time>
      </trkpt>
      <trkpt lat="42.97734" lon="-1.22822">
        <ele>721.195636</ele>
        <time>2026-05-22T13:50:19.000Z</time>
      </trkpt>
      <trkpt lat="42.97728" lon="-1.22823">
        <ele>721.228156</ele>
        <time>2026-05-22T13:50:20.000Z</time>
      </trkpt>
      <trkpt lat="42.97723" lon="-1.22823">
        <ele>721.260676</ele>
        <time>2026-05-22T13:50:21.000Z</time>
      </trkpt>
      <trkpt lat="42.97717" lon="-1.22824">
        <ele>721.293827</ele>
        <time>2026-05-22T13:50:22.000Z</time>
      </trkpt>
      <trkpt lat="42.97712" lon="-1.22825">
        <ele>721.327109</ele>
        <time>2026-05-22T13:50:23.000Z</time>
      </trkpt>
      <trkpt lat="42.97706" lon="-1.22826">
        <ele>721.361537</ele>
        <time>2026-05-22T13:50:24.000Z</time>
      </trkpt>
      <trkpt lat="42.97701" lon="-1.22827">
        <ele>721.395469</ele>
        <time>2026-05-22T13:50:25.000Z</time>
      </trkpt>
      <trkpt lat="42.97695" lon="-1.22828">
        <ele>721.429527</ele>
        <time>2026-05-22T13:50:26.000Z</time>
      </trkpt>
      <trkpt lat="42.9769" lon="-1.22829">
        <ele>721.463064</ele>
        <time>2026-05-22T13:50:27.000Z</time>
      </trkpt>
      <trkpt lat="42.97684" lon="-1.22831">
        <ele>721.496087</ele>
        <time>2026-05-22T13:50:28.000Z</time>
      </trkpt>
      <trkpt lat="42.97679" lon="-1.22832">
        <ele>721.530293</ele>
        <time>2026-05-22T13:50:29.000Z</time>
      </trkpt>
      <trkpt lat="42.97673" lon="-1.22833">
        <ele>721.56435</ele>
        <time>2026-05-22T13:50:30.000Z</time>
      </trkpt>
      <trkpt lat="42.97667" lon="-1.22835">
        <ele>721.597965</ele>
        <time>2026-05-22T13:50:31.000Z</time>
      </trkpt>
      <trkpt lat="42.97662" lon="-1.22836">
        <ele>721.631429</ele>
        <time>2026-05-22T13:50:32.000Z</time>
      </trkpt>
      <trkpt lat="42.97656" lon="-1.22837">
        <ele>721.665422</ele>
        <time>2026-05-22T13:50:33.000Z</time>
      </trkpt>
      <trkpt lat="42.97651" lon="-1.22838">
        <ele>721.696515</ele>
        <time>2026-05-22T13:50:34.000Z</time>
      </trkpt>
      <trkpt lat="42.97646" lon="-1.22839">
        <ele>721.919179</ele>
        <time>2026-05-22T13:50:35.000Z</time>
      </trkpt>
      <trkpt lat="42.97641" lon="-1.22841">
        <ele>722.172017</ele>
        <time>2026-05-22T13:50:36.000Z</time>
      </trkpt>
      <trkpt lat="42.97636" lon="-1.22842">
        <ele>722.417142</ele>
        <time>2026-05-22T13:50:37.000Z</time>
      </trkpt>
      <trkpt lat="42.97631" lon="-1.22842">
        <ele>722.656263</ele>
        <time>2026-05-22T13:50:38.000Z</time>
      </trkpt>
      <trkpt lat="42.97627" lon="-1.22843">
        <ele>722.891754</ele>
        <time>2026-05-22T13:50:39.000Z</time>
      </trkpt>
      <trkpt lat="42.97622" lon="-1.22844">
        <ele>723.120891</ele>
        <time>2026-05-22T13:50:40.000Z</time>
      </trkpt>
      <trkpt lat="42.97617" lon="-1.22844">
        <ele>723.344476</ele>
        <time>2026-05-22T13:50:41.000Z</time>
      </trkpt>
      <trkpt lat="42.97613" lon="-1.22844">
        <ele>723.558605</ele>
        <time>2026-05-22T13:50:42.000Z</time>
      </trkpt>
      <trkpt lat="42.97609" lon="-1.22844">
        <ele>723.762872</ele>
        <time>2026-05-22T13:50:43.000Z</time>
      </trkpt>
      <trkpt lat="42.97605" lon="-1.22843">
        <ele>723.954556</ele>
        <time>2026-05-22T13:50:44.000Z</time>
      </trkpt>
      <trkpt lat="42.97601" lon="-1.22842">
        <ele>724.154399</ele>
        <time>2026-05-22T13:50:45.000Z</time>
      </trkpt>
      <trkpt lat="42.97597" lon="-1.22841">
        <ele>724.332955</ele>
        <time>2026-05-22T13:50:46.000Z</time>
      </trkpt>
      <trkpt lat="42.97594" lon="-1.2284">
        <ele>724.497248</ele>
        <time>2026-05-22T13:50:47.000Z</time>
      </trkpt>
      <trkpt lat="42.97591" lon="-1.22839">
        <ele>724.651287</ele>
        <time>2026-05-22T13:50:48.000Z</time>
      </trkpt>
      <trkpt lat="42.97588" lon="-1.22838">
        <ele>724.78557</ele>
        <time>2026-05-22T13:50:49.000Z</time>
      </trkpt>
      <trkpt lat="42.97586" lon="-1.22838">
        <ele>724.911227</ele>
        <time>2026-05-22T13:50:50.000Z</time>
      </trkpt>
      <trkpt lat="42.97583" lon="-1.22837">
        <ele>725.026583</ele>
        <time>2026-05-22T13:50:51.000Z</time>
      </trkpt>
      <trkpt lat="42.97581" lon="-1.22836">
        <ele>725.147547</ele>
        <time>2026-05-22T13:50:52.000Z</time>
      </trkpt>
      <trkpt lat="42.97579" lon="-1.22835">
        <ele>725.267208</ele>
        <time>2026-05-22T13:50:53.000Z</time>
      </trkpt>
      <trkpt lat="42.97576" lon="-1.22834">
        <ele>725.392866</ele>
        <time>2026-05-22T13:50:54.000Z</time>
      </trkpt>
      <trkpt lat="42.97574" lon="-1.22833">
        <ele>725.504485</ele>
        <time>2026-05-22T13:50:55.000Z</time>
      </trkpt>
      <trkpt lat="42.97572" lon="-1.22832">
        <ele>725.618347</ele>
        <time>2026-05-22T13:50:56.000Z</time>
      </trkpt>
      <trkpt lat="42.97569" lon="-1.22831">
        <ele>725.73348</ele>
        <time>2026-05-22T13:50:57.000Z</time>
      </trkpt>
      <trkpt lat="42.97567" lon="-1.2283">
        <ele>725.841569</ele>
        <time>2026-05-22T13:50:58.000Z</time>
      </trkpt>
      <trkpt lat="42.97565" lon="-1.22829">
        <ele>725.954766</ele>
        <time>2026-05-22T13:50:59.000Z</time>
      </trkpt>
      <trkpt lat="42.97563" lon="-1.22828">
        <ele>726.062855</ele>
        <time>2026-05-22T13:51:00.000Z</time>
      </trkpt>
      <trkpt lat="42.97561" lon="-1.22827">
        <ele>726.177386</ele>
        <time>2026-05-22T13:51:01.000Z</time>
      </trkpt>
      <trkpt lat="42.97558" lon="-1.22827">
        <ele>726.284849</ele>
        <time>2026-05-22T13:51:02.000Z</time>
      </trkpt>
      <trkpt lat="42.97556" lon="-1.22826">
        <ele>726.389126</ele>
        <time>2026-05-22T13:51:03.000Z</time>
      </trkpt>
      <trkpt lat="42.97554" lon="-1.22825">
        <ele>726.507565</ele>
        <time>2026-05-22T13:51:04.000Z</time>
      </trkpt>
      <trkpt lat="42.97552" lon="-1.22824">
        <ele>726.626004</ele>
        <time>2026-05-22T13:51:05.000Z</time>
      </trkpt>
      <trkpt lat="42.9755" lon="-1.22823">
        <ele>726.727293</ele>
        <time>2026-05-22T13:51:06.000Z</time>
      </trkpt>
      <trkpt lat="42.97548" lon="-1.22823">
        <ele>726.825539</ele>
        <time>2026-05-22T13:51:07.000Z</time>
      </trkpt>
      <trkpt lat="42.97546" lon="-1.22823">
        <ele>726.924362</ele>
        <time>2026-05-22T13:51:08.000Z</time>
      </trkpt>
      <trkpt lat="42.97544" lon="-1.22822">
        <ele>727.034154</ele>
        <time>2026-05-22T13:51:09.000Z</time>
      </trkpt>
      <trkpt lat="42.97541" lon="-1.22821">
        <ele>727.142554</ele>
        <time>2026-05-22T13:51:10.000Z</time>
      </trkpt>
      <trkpt lat="42.97539" lon="-1.22821">
        <ele>727.254854</ele>
        <time>2026-05-22T13:51:11.000Z</time>
      </trkpt>
      <trkpt lat="42.97537" lon="-1.22821">
        <ele>727.372855</ele>
        <time>2026-05-22T13:51:12.000Z</time>
      </trkpt>
      <trkpt lat="42.97534" lon="-1.2282">
        <ele>727.496227</ele>
        <time>2026-05-22T13:51:13.000Z</time>
      </trkpt>
      <trkpt lat="42.97532" lon="-1.2282">
        <ele>727.608921</ele>
        <time>2026-05-22T13:51:14.000Z</time>
      </trkpt>
      <trkpt lat="42.9753" lon="-1.22819">
        <ele>727.716795</ele>
        <time>2026-05-22T13:51:15.000Z</time>
      </trkpt>
      <trkpt lat="42.97527" lon="-1.22819">
        <ele>727.828588</ele>
        <time>2026-05-22T13:51:16.000Z</time>
      </trkpt>
      <trkpt lat="42.97525" lon="-1.22819">
        <ele>727.935579</ele>
        <time>2026-05-22T13:51:17.000Z</time>
      </trkpt>
      <trkpt lat="42.97523" lon="-1.22819">
        <ele>728.047597</ele>
        <time>2026-05-22T13:51:18.000Z</time>
      </trkpt>
      <trkpt lat="42.9752" lon="-1.22819">
        <ele>728.164467</ele>
        <time>2026-05-22T13:51:19.000Z</time>
      </trkpt>
      <trkpt lat="42.97518" lon="-1.22818">
        <ele>728.281337</ele>
        <time>2026-05-22T13:51:20.000Z</time>
      </trkpt>
      <trkpt lat="42.97516" lon="-1.22818">
        <ele>728.394534</ele>
        <time>2026-05-22T13:51:21.000Z</time>
      </trkpt>
      <trkpt lat="42.97514" lon="-1.22817">
        <ele>728.504326</ele>
        <time>2026-05-22T13:51:22.000Z</time>
      </trkpt>
      <trkpt lat="42.97511" lon="-1.22817">
        <ele>728.613366</ele>
        <time>2026-05-22T13:51:23.000Z</time>
      </trkpt>
      <trkpt lat="42.97509" lon="-1.22816">
        <ele>728.721766</ele>
        <time>2026-05-22T13:51:24.000Z</time>
      </trkpt>
      <trkpt lat="42.97507" lon="-1.22816">
        <ele>728.820012</ele>
        <time>2026-05-22T13:51:25.000Z</time>
      </trkpt>
      <trkpt lat="42.97505" lon="-1.22816">
        <ele>728.917288</ele>
        <time>2026-05-22T13:51:26.000Z</time>
      </trkpt>
      <trkpt lat="42.97503" lon="-1.22816">
        <ele>729.009912</ele>
        <time>2026-05-22T13:51:27.000Z</time>
      </trkpt>
      <trkpt lat="42.97501" lon="-1.22816">
        <ele>729.107382</ele>
        <time>2026-05-22T13:51:28.000Z</time>
      </trkpt>
      <trkpt lat="42.97499" lon="-1.22815">
        <ele>729.215256</ele>
        <time>2026-05-22T13:51:29.000Z</time>
      </trkpt>
      <trkpt lat="42.97497" lon="-1.22815">
        <ele>729.322425</ele>
        <time>2026-05-22T13:51:30.000Z</time>
      </trkpt>
      <trkpt lat="42.97495" lon="-1.22815">
        <ele>729.420671</ele>
        <time>2026-05-22T13:51:31.000Z</time>
      </trkpt>
      <trkpt lat="42.97493" lon="-1.22815">
        <ele>729.523298</ele>
        <time>2026-05-22T13:51:32.000Z</time>
      </trkpt>
      <trkpt lat="42.97491" lon="-1.22816">
        <ele>729.627576</ele>
        <time>2026-05-22T13:51:33.000Z</time>
      </trkpt>
      <trkpt lat="42.97489" lon="-1.22816">
        <ele>729.725822</ele>
        <time>2026-05-22T13:51:34.000Z</time>
      </trkpt>
      <trkpt lat="42.97487" lon="-1.22816">
        <ele>729.823098</ele>
        <time>2026-05-22T13:51:35.000Z</time>
      </trkpt>
      <trkpt lat="42.97485" lon="-1.22816">
        <ele>729.925417</ele>
        <time>2026-05-22T13:51:36.000Z</time>
      </trkpt>
      <trkpt lat="42.97482" lon="-1.22816">
        <ele>730.02755</ele>
        <time>2026-05-22T13:51:37.000Z</time>
      </trkpt>
      <trkpt lat="42.9748" lon="-1.22816">
        <ele>730.124826</ele>
        <time>2026-05-22T13:51:38.000Z</time>
      </trkpt>
      <trkpt lat="42.97478" lon="-1.22816">
        <ele>730.222037</ele>
        <time>2026-05-22T13:51:39.000Z</time>
      </trkpt>
      <trkpt lat="42.97477" lon="-1.22816">
        <ele>730.314456</ele>
        <time>2026-05-22T13:51:40.000Z</time>
      </trkpt>
      <trkpt lat="42.97474" lon="-1.22816">
        <ele>730.416589</ele>
        <time>2026-05-22T13:51:41.000Z</time>
      </trkpt>
      <trkpt lat="42.97472" lon="-1.22816">
        <ele>730.475731</ele>
        <time>2026-05-22T13:51:42.000Z</time>
      </trkpt>
      <trkpt lat="42.9747" lon="-1.22816">
        <ele>730.516467</ele>
        <time>2026-05-22T13:51:43.000Z</time>
      </trkpt>
      <trkpt lat="42.97468" lon="-1.22817">
        <ele>730.55902</ele>
        <time>2026-05-22T13:51:44.000Z</time>
      </trkpt>
      <trkpt lat="42.97466" lon="-1.22817">
        <ele>730.599354</ele>
        <time>2026-05-22T13:51:45.000Z</time>
      </trkpt>
      <trkpt lat="42.97464" lon="-1.22817">
        <ele>730.639769</ele>
        <time>2026-05-22T13:51:46.000Z</time>
      </trkpt>
      <trkpt lat="42.97462" lon="-1.22817">
        <ele>730.680318</ele>
        <time>2026-05-22T13:51:47.000Z</time>
      </trkpt>
      <trkpt lat="42.9746" lon="-1.22818">
        <ele>730.72553</ele>
        <time>2026-05-22T13:51:48.000Z</time>
      </trkpt>
      <trkpt lat="42.97458" lon="-1.22818">
        <ele>730.770476</ele>
        <time>2026-05-22T13:51:49.000Z</time>
      </trkpt>
      <trkpt lat="42.97456" lon="-1.22819">
        <ele>730.815688</ele>
        <time>2026-05-22T13:51:50.000Z</time>
      </trkpt>
      <trkpt lat="42.97453" lon="-1.22819">
        <ele>730.864859</ele>
        <time>2026-05-22T13:51:51.000Z</time>
      </trkpt>
      <trkpt lat="42.97451" lon="-1.2282">
        <ele>730.912049</ele>
        <time>2026-05-22T13:51:52.000Z</time>
      </trkpt>
      <trkpt lat="42.97449" lon="-1.22821">
        <ele>730.957261</ele>
        <time>2026-05-22T13:51:53.000Z</time>
      </trkpt>
      <trkpt lat="42.97446" lon="-1.22821">
        <ele>731.003141</ele>
        <time>2026-05-22T13:51:54.000Z</time>
      </trkpt>
      <trkpt lat="42.97444" lon="-1.22823">
        <ele>731.05225</ele>
        <time>2026-05-22T13:51:55.000Z</time>
      </trkpt>
      <trkpt lat="42.97442" lon="-1.22823">
        <ele>731.106304</ele>
        <time>2026-05-22T13:51:56.000Z</time>
      </trkpt>
      <trkpt lat="42.97439" lon="-1.22825">
        <ele>731.160753</ele>
        <time>2026-05-22T13:51:57.000Z</time>
      </trkpt>
      <trkpt lat="42.97437" lon="-1.22826">
        <ele>731.212256</ele>
        <time>2026-05-22T13:51:58.000Z</time>
      </trkpt>
      <trkpt lat="42.97434" lon="-1.22827">
        <ele>731.267108</ele>
        <time>2026-05-22T13:51:59.000Z</time>
      </trkpt>
      <trkpt lat="42.97432" lon="-1.22828">
        <ele>731.31921</ele>
        <time>2026-05-22T13:52:00.000Z</time>
      </trkpt>
      <trkpt lat="42.97429" lon="-1.22829">
        <ele>731.375587</ele>
        <time>2026-05-22T13:52:01.000Z</time>
      </trkpt>
      <trkpt lat="42.97426" lon="-1.2283">
        <ele>731.437571</ele>
        <time>2026-05-22T13:52:02.000Z</time>
      </trkpt>
      <trkpt lat="42.97423" lon="-1.22832">
        <ele>731.496309</ele>
        <time>2026-05-22T13:52:03.000Z</time>
      </trkpt>
      <trkpt lat="42.97421" lon="-1.22833">
        <ele>731.554002</ele>
        <time>2026-05-22T13:52:04.000Z</time>
      </trkpt>
      <trkpt lat="42.97418" lon="-1.22834">
        <ele>731.610011</ele>
        <time>2026-05-22T13:52:05.000Z</time>
      </trkpt>
      <trkpt lat="42.97415" lon="-1.22835">
        <ele>731.668919</ele>
        <time>2026-05-22T13:52:06.000Z</time>
      </trkpt>
      <trkpt lat="42.97412" lon="-1.22836">
        <ele>731.730819</ele>
        <time>2026-05-22T13:52:07.000Z</time>
      </trkpt>
      <trkpt lat="42.97409" lon="-1.22837">
        <ele>731.79617</ele>
        <time>2026-05-22T13:52:08.000Z</time>
      </trkpt>
      <trkpt lat="42.97406" lon="-1.22838">
        <ele>731.864349</ele>
        <time>2026-05-22T13:52:09.000Z</time>
      </trkpt>
      <trkpt lat="42.97403" lon="-1.2284">
        <ele>731.931131</ele>
        <time>2026-05-22T13:52:10.000Z</time>
      </trkpt>
      <trkpt lat="42.97399" lon="-1.22841">
        <ele>731.99931</ele>
        <time>2026-05-22T13:52:11.000Z</time>
      </trkpt>
      <trkpt lat="42.97396" lon="-1.22843">
        <ele>732.073688</ele>
        <time>2026-05-22T13:52:12.000Z</time>
      </trkpt>
      <trkpt lat="42.97392" lon="-1.22845">
        <ele>732.149054</ele>
        <time>2026-05-22T13:52:13.000Z</time>
      </trkpt>
      <trkpt lat="42.97389" lon="-1.22847">
        <ele>732.226089</ele>
        <time>2026-05-22T13:52:14.000Z</time>
      </trkpt>
      <trkpt lat="42.97386" lon="-1.22849">
        <ele>732.300373</ele>
        <time>2026-05-22T13:52:15.000Z</time>
      </trkpt>
      <trkpt lat="42.97383" lon="-1.22853">
        <ele>732.377786</ele>
        <time>2026-05-22T13:52:16.000Z</time>
      </trkpt>
      <trkpt lat="42.97379" lon="-1.22855">
        <ele>732.455166</ele>
        <time>2026-05-22T13:52:17.000Z</time>
      </trkpt>
      <trkpt lat="42.97376" lon="-1.22859">
        <ele>732.532579</ele>
        <time>2026-05-22T13:52:18.000Z</time>
      </trkpt>
      <trkpt lat="42.97374" lon="-1.22862">
        <ele>732.610686</ele>
        <time>2026-05-22T13:52:19.000Z</time>
      </trkpt>
      <trkpt lat="42.97371" lon="-1.22867">
        <ele>732.688043</ele>
        <time>2026-05-22T13:52:20.000Z</time>
      </trkpt>
      <trkpt lat="42.97369" lon="-1.22871">
        <ele>732.765935</ele>
        <time>2026-05-22T13:52:21.000Z</time>
      </trkpt>
      <trkpt lat="42.97368" lon="-1.22876">
        <ele>732.844571</ele>
        <time>2026-05-22T13:52:22.000Z</time>
      </trkpt>
      <trkpt lat="42.97366" lon="-1.22881">
        <ele>732.928066</ele>
        <time>2026-05-22T13:52:23.000Z</time>
      </trkpt>
      <trkpt lat="42.97364" lon="-1.22886">
        <ele>733.011248</ele>
        <time>2026-05-22T13:52:24.000Z</time>
      </trkpt>
      <trkpt lat="42.97363" lon="-1.22891">
        <ele>733.095231</ele>
        <time>2026-05-22T13:52:25.000Z</time>
      </trkpt>
      <trkpt lat="42.97361" lon="-1.22897">
        <ele>733.179215</ele>
        <time>2026-05-22T13:52:26.000Z</time>
      </trkpt>
      <trkpt lat="42.97359" lon="-1.22902">
        <ele>733.262397</ele>
        <time>2026-05-22T13:52:27.000Z</time>
      </trkpt>
      <trkpt lat="42.97358" lon="-1.22907">
        <ele>733.342362</ele>
        <time>2026-05-22T13:52:28.000Z</time>
      </trkpt>
      <trkpt lat="42.97356" lon="-1.22912">
        <ele>733.419327</ele>
        <time>2026-05-22T13:52:29.000Z</time>
      </trkpt>
      <trkpt lat="42.97355" lon="-1.22916">
        <ele>733.495523</ele>
        <time>2026-05-22T13:52:30.000Z</time>
      </trkpt>
      <trkpt lat="42.97353" lon="-1.22921">
        <ele>733.568926</ele>
        <time>2026-05-22T13:52:31.000Z</time>
      </trkpt>
      <trkpt lat="42.97352" lon="-1.22926">
        <ele>733.643018</ele>
        <time>2026-05-22T13:52:32.000Z</time>
      </trkpt>
      <trkpt lat="42.97351" lon="-1.2293">
        <ele>733.708967</ele>
        <time>2026-05-22T13:52:33.000Z</time>
      </trkpt>
      <trkpt lat="42.9735" lon="-1.22935">
        <ele>733.777757</ele>
        <time>2026-05-22T13:52:34.000Z</time>
      </trkpt>
      <trkpt lat="42.9735" lon="-1.22939">
        <ele>733.845596</ele>
        <time>2026-05-22T13:52:35.000Z</time>
      </trkpt>
      <trkpt lat="42.97349" lon="-1.22944">
        <ele>733.913045</ele>
        <time>2026-05-22T13:52:36.000Z</time>
      </trkpt>
      <trkpt lat="42.97349" lon="-1.22948">
        <ele>733.981352</ele>
        <time>2026-05-22T13:52:37.000Z</time>
      </trkpt>
      <trkpt lat="42.97348" lon="-1.22953">
        <ele>734.050774</ele>
        <time>2026-05-22T13:52:38.000Z</time>
      </trkpt>
      <trkpt lat="42.97348" lon="-1.22957">
        <ele>734.202099</ele>
        <time>2026-05-22T13:52:39.000Z</time>
      </trkpt>
      <trkpt lat="42.97348" lon="-1.22962">
        <ele>734.376001</ele>
        <time>2026-05-22T13:52:40.000Z</time>
      </trkpt>
      <trkpt lat="42.97349" lon="-1.22966">
        <ele>734.542349</ele>
        <time>2026-05-22T13:52:41.000Z</time>
      </trkpt>
      <trkpt lat="42.97349" lon="-1.2297">
        <ele>734.722242</ele>
        <time>2026-05-22T13:52:42.000Z</time>
      </trkpt>
      <trkpt lat="42.9735" lon="-1.22975">
        <ele>734.896347</ele>
        <time>2026-05-22T13:52:43.000Z</time>
      </trkpt>
      <trkpt lat="42.97351" lon="-1.22979">
        <ele>735.074552</ele>
        <time>2026-05-22T13:52:44.000Z</time>
      </trkpt>
      <trkpt lat="42.97352" lon="-1.22983">
        <ele>735.254589</ele>
        <time>2026-05-22T13:52:45.000Z</time>
      </trkpt>
      <trkpt lat="42.97353" lon="-1.22988">
        <ele>735.435158</ele>
        <time>2026-05-22T13:52:46.000Z</time>
      </trkpt>
      <trkpt lat="42.97354" lon="-1.22992">
        <ele>735.600557</ele>
        <time>2026-05-22T13:52:47.000Z</time>
      </trkpt>
      <trkpt lat="42.97355" lon="-1.22996">
        <ele>735.767623</ele>
        <time>2026-05-22T13:52:48.000Z</time>
      </trkpt>
      <trkpt lat="42.97356" lon="-1.22999">
        <ele>735.917982</ele>
        <time>2026-05-22T13:52:49.000Z</time>
      </trkpt>
      <trkpt lat="42.97357" lon="-1.23002">
        <ele>736.047086</ele>
        <time>2026-05-22T13:52:50.000Z</time>
      </trkpt>
      <trkpt lat="42.97358" lon="-1.23005">
        <ele>736.166691</ele>
        <time>2026-05-22T13:52:51.000Z</time>
      </trkpt>
      <trkpt lat="42.97359" lon="-1.23007">
        <ele>736.27862</ele>
        <time>2026-05-22T13:52:52.000Z</time>
      </trkpt>
      <trkpt lat="42.9736" lon="-1.23009">
        <ele>736.366464</ele>
        <time>2026-05-22T13:52:53.000Z</time>
      </trkpt>
      <trkpt lat="42.97361" lon="-1.23009">
        <ele>736.417775</ele>
        <time>2026-05-22T13:52:54.000Z</time>
      </trkpt>
      <trkpt lat="42.97361" lon="-1.2301">
        <ele>736.435806</ele>
        <time>2026-05-22T13:52:55.000Z</time>
      </trkpt>
      <trkpt lat="42.97362" lon="-1.23012">
        <ele>736.52831</ele>
        <time>2026-05-22T13:53:43.000Z</time>
      </trkpt>
      <trkpt lat="42.97364" lon="-1.23011">
        <ele>736.633647</ele>
        <time>2026-05-22T13:53:44.000Z</time>
      </trkpt>
      <trkpt lat="42.97366" lon="-1.23009">
        <ele>736.74981</ele>
        <time>2026-05-22T13:53:45.000Z</time>
      </trkpt>
      <trkpt lat="42.97367" lon="-1.23007">
        <ele>736.839898</ele>
        <time>2026-05-22T13:53:46.000Z</time>
      </trkpt>
      <trkpt lat="42.97367" lon="-1.23005">
        <ele>736.937183</ele>
        <time>2026-05-22T13:53:47.000Z</time>
      </trkpt>
      <trkpt lat="42.97368" lon="-1.23002">
        <ele>737.032013</ele>
        <time>2026-05-22T13:53:48.000Z</time>
      </trkpt>
      <trkpt lat="42.97368" lon="-1.23">
        <ele>737.139857</ele>
        <time>2026-05-22T13:53:49.000Z</time>
      </trkpt>
      <trkpt lat="42.97369" lon="-1.22998">
        <ele>737.246445</ele>
        <time>2026-05-22T13:53:50.000Z</time>
      </trkpt>
      <trkpt lat="42.9737" lon="-1.22996">
        <ele>737.335771</ele>
        <time>2026-05-22T13:53:51.000Z</time>
      </trkpt>
      <trkpt lat="42.97371" lon="-1.22994">
        <ele>737.421937</ele>
        <time>2026-05-22T13:53:52.000Z</time>
      </trkpt>
      <trkpt lat="42.97372" lon="-1.22992">
        <ele>737.518181</ele>
        <time>2026-05-22T13:53:53.000Z</time>
      </trkpt>
      <trkpt lat="42.97374" lon="-1.22991">
        <ele>737.639562</ele>
        <time>2026-05-22T13:53:54.000Z</time>
      </trkpt>
      <trkpt lat="42.97376" lon="-1.2299">
        <ele>737.744519</ele>
        <time>2026-05-22T13:53:55.000Z</time>
      </trkpt>
      <trkpt lat="42.97378" lon="-1.22989">
        <ele>737.869758</ele>
        <time>2026-05-22T13:53:56.000Z</time>
      </trkpt>
      <trkpt lat="42.9738" lon="-1.22988">
        <ele>737.979586</ele>
        <time>2026-05-22T13:53:57.000Z</time>
      </trkpt>
      <trkpt lat="42.97382" lon="-1.22988">
        <ele>738.08343</ele>
        <time>2026-05-22T13:53:58.000Z</time>
      </trkpt>
      <trkpt lat="42.97384" lon="-1.22987">
        <ele>738.185674</ele>
        <time>2026-05-22T13:53:59.000Z</time>
      </trkpt>
      <trkpt lat="42.97386" lon="-1.22987">
        <ele>738.284893</ele>
        <time>2026-05-22T13:54:00.000Z</time>
      </trkpt>
      <trkpt lat="42.97388" lon="-1.22986">
        <ele>738.378074</ele>
        <time>2026-05-22T13:54:01.000Z</time>
      </trkpt>
      <trkpt lat="42.97389" lon="-1.22986">
        <ele>738.472007</ele>
        <time>2026-05-22T13:54:02.000Z</time>
      </trkpt>
      <trkpt lat="42.97391" lon="-1.22985">
        <ele>738.566849</ele>
        <time>2026-05-22T13:54:03.000Z</time>
      </trkpt>
      <trkpt lat="42.97393" lon="-1.22984">
        <ele>738.666931</ele>
        <time>2026-05-22T13:54:04.000Z</time>
      </trkpt>
      <trkpt lat="42.97394" lon="-1.22983">
        <ele>738.768533</ele>
        <time>2026-05-22T13:54:05.000Z</time>
      </trkpt>
      <trkpt lat="42.97396" lon="-1.22982">
        <ele>738.857023</ele>
        <time>2026-05-22T13:54:06.000Z</time>
      </trkpt>
      <trkpt lat="42.97398" lon="-1.22982">
        <ele>738.957105</ele>
        <time>2026-05-22T13:54:07.000Z</time>
      </trkpt>
      <trkpt lat="42.974" lon="-1.22981">
        <ele>739.057187</ele>
        <time>2026-05-22T13:54:08.000Z</time>
      </trkpt>
      <trkpt lat="42.97401" lon="-1.22981">
        <ele>739.157269</ele>
        <time>2026-05-22T13:54:09.000Z</time>
      </trkpt>
      <trkpt lat="42.97403" lon="-1.2298">
        <ele>739.253176</ele>
        <time>2026-05-22T13:54:10.000Z</time>
      </trkpt>
      <trkpt lat="42.97405" lon="-1.22979">
        <ele>739.35671</ele>
        <time>2026-05-22T13:54:11.000Z</time>
      </trkpt>
      <trkpt lat="42.97407" lon="-1.22978">
        <ele>739.461668</ele>
        <time>2026-05-22T13:54:12.000Z</time>
      </trkpt>
      <trkpt lat="42.97408" lon="-1.22977">
        <ele>739.556704</ele>
        <time>2026-05-22T13:54:13.000Z</time>
      </trkpt>
      <trkpt lat="42.9741" lon="-1.22976">
        <ele>739.652611</ele>
        <time>2026-05-22T13:54:14.000Z</time>
      </trkpt>
      <trkpt lat="42.97411" lon="-1.22976">
        <ele>739.72916</ele>
        <time>2026-05-22T13:54:15.000Z</time>
      </trkpt>
      <trkpt lat="42.97413" lon="-1.22976">
        <ele>739.811049</ele>
        <time>2026-05-22T13:54:16.000Z</time>
      </trkpt>
      <trkpt lat="42.97414" lon="-1.22976">
        <ele>739.897568</ele>
        <time>2026-05-22T13:54:17.000Z</time>
      </trkpt>
      <trkpt lat="42.97416" lon="-1.22976">
        <ele>739.989398</ele>
        <time>2026-05-22T13:54:18.000Z</time>
      </trkpt>
      <trkpt lat="42.97418" lon="-1.22975">
        <ele>740.08199</ele>
        <time>2026-05-22T13:54:19.000Z</time>
      </trkpt>
      <trkpt lat="42.97419" lon="-1.22975">
        <ele>740.169228</ele>
        <time>2026-05-22T13:54:20.000Z</time>
      </trkpt>
      <trkpt lat="42.97421" lon="-1.22975">
        <ele>740.245777</ele>
        <time>2026-05-22T13:54:21.000Z</time>
      </trkpt>
      <trkpt lat="42.97422" lon="-1.22974">
        <ele>740.293295</ele>
        <time>2026-05-22T13:54:22.000Z</time>
      </trkpt>
      <trkpt lat="42.97423" lon="-1.22973">
        <ele>740.378521</ele>
        <time>2026-05-22T13:54:23.000Z</time>
      </trkpt>
      <trkpt lat="42.97424" lon="-1.22971">
        <ele>740.459713</ele>
        <time>2026-05-22T13:54:24.000Z</time>
      </trkpt>
      <trkpt lat="42.97425" lon="-1.2297">
        <ele>740.547556</ele>
        <time>2026-05-22T13:54:25.000Z</time>
      </trkpt>
      <trkpt lat="42.97426" lon="-1.22969">
        <ele>740.627875</ele>
        <time>2026-05-22T13:54:26.000Z</time>
      </trkpt>
      <trkpt lat="42.97427" lon="-1.22968">
        <ele>740.703902</ele>
        <time>2026-05-22T13:54:27.000Z</time>
      </trkpt>
      <trkpt lat="42.97428" lon="-1.22966">
        <ele>740.773241</ele>
        <time>2026-05-22T13:54:28.000Z</time>
      </trkpt>
      <trkpt lat="42.97429" lon="-1.22965">
        <ele>740.830859</ele>
        <time>2026-05-22T13:54:29.000Z</time>
      </trkpt>
      <trkpt lat="42.9743" lon="-1.22963">
        <ele>740.917499</ele>
        <time>2026-05-22T13:54:30.000Z</time>
      </trkpt>
      <trkpt lat="42.97431" lon="-1.22962">
        <ele>741.006823</ele>
        <time>2026-05-22T13:54:31.000Z</time>
      </trkpt>
      <trkpt lat="42.97432" lon="-1.2296">
        <ele>741.092989</ele>
        <time>2026-05-22T13:54:32.000Z</time>
      </trkpt>
      <trkpt lat="42.97433" lon="-1.22958">
        <ele>741.175921</ele>
        <time>2026-05-22T13:54:33.000Z</time>
      </trkpt>
      <trkpt lat="42.97434" lon="-1.22957">
        <ele>741.256124</ele>
        <time>2026-05-22T13:54:34.000Z</time>
      </trkpt>
      <trkpt lat="42.97435" lon="-1.22955">
        <ele>741.34229</ele>
        <time>2026-05-22T13:54:35.000Z</time>
      </trkpt>
      <trkpt lat="42.97435" lon="-1.22953">
        <ele>741.432376</ele>
        <time>2026-05-22T13:54:36.000Z</time>
      </trkpt>
      <trkpt lat="42.97436" lon="-1.2295">
        <ele>741.536363</ele>
        <time>2026-05-22T13:54:37.000Z</time>
      </trkpt>
      <trkpt lat="42.97437" lon="-1.22948">
        <ele>741.64295</ele>
        <time>2026-05-22T13:54:38.000Z</time>
      </trkpt>
      <trkpt lat="42.97438" lon="-1.22946">
        <ele>741.754596</ele>
        <time>2026-05-22T13:54:39.000Z</time>
      </trkpt>
      <trkpt lat="42.97439" lon="-1.22944">
        <ele>741.847956</ele>
        <time>2026-05-22T13:54:40.000Z</time>
      </trkpt>
      <trkpt lat="42.9744" lon="-1.22942">
        <ele>741.947574</ele>
        <time>2026-05-22T13:54:41.000Z</time>
      </trkpt>
      <trkpt lat="42.97441" lon="-1.2294">
        <ele>742.043313</ele>
        <time>2026-05-22T13:54:42.000Z</time>
      </trkpt>
      <trkpt lat="42.97443" lon="-1.22938">
        <ele>742.144473</ele>
        <time>2026-05-22T13:54:43.000Z</time>
      </trkpt>
      <trkpt lat="42.97444" lon="-1.22936">
        <ele>742.258258</ele>
        <time>2026-05-22T13:54:44.000Z</time>
      </trkpt>
      <trkpt lat="42.97446" lon="-1.22935">
        <ele>742.343484</ele>
        <time>2026-05-22T13:54:45.000Z</time>
      </trkpt>
      <trkpt lat="42.97447" lon="-1.22934">
        <ele>742.417109</ele>
        <time>2026-05-22T13:54:46.000Z</time>
      </trkpt>
      <trkpt lat="42.97448" lon="-1.22933">
        <ele>742.488993</ele>
        <time>2026-05-22T13:54:47.000Z</time>
      </trkpt>
      <trkpt lat="42.97449" lon="-1.22932">
        <ele>742.569574</ele>
        <time>2026-05-22T13:54:48.000Z</time>
      </trkpt>
      <trkpt lat="42.9745" lon="-1.2293">
        <ele>742.650767</ele>
        <time>2026-05-22T13:54:49.000Z</time>
      </trkpt>
      <trkpt lat="42.97451" lon="-1.22929">
        <ele>742.72265</ele>
        <time>2026-05-22T13:54:50.000Z</time>
      </trkpt>
      <trkpt lat="42.97452" lon="-1.22928">
        <ele>742.796305</ele>
        <time>2026-05-22T13:54:51.000Z</time>
      </trkpt>
      <trkpt lat="42.97453" lon="-1.22927">
        <ele>742.875023</ele>
        <time>2026-05-22T13:54:52.000Z</time>
      </trkpt>
      <trkpt lat="42.97454" lon="-1.22926">
        <ele>742.946386</ele>
        <time>2026-05-22T13:54:53.000Z</time>
      </trkpt>
      <trkpt lat="42.97455" lon="-1.22924">
        <ele>743.019748</ele>
        <time>2026-05-22T13:54:54.000Z</time>
      </trkpt>
      <trkpt lat="42.97456" lon="-1.22923">
        <ele>743.099951</ele>
        <time>2026-05-22T13:54:55.000Z</time>
      </trkpt>
      <trkpt lat="42.97457" lon="-1.22922">
        <ele>743.178669</ele>
        <time>2026-05-22T13:54:56.000Z</time>
      </trkpt>
      <trkpt lat="42.97459" lon="-1.22921">
        <ele>743.278643</ele>
        <time>2026-05-22T13:54:57.000Z</time>
      </trkpt>
      <trkpt lat="42.97461" lon="-1.2292">
        <ele>743.367909</ele>
        <time>2026-05-22T13:54:58.000Z</time>
      </trkpt>
      <trkpt lat="42.97462" lon="-1.22918">
        <ele>743.457312</ele>
        <time>2026-05-22T13:54:59.000Z</time>
      </trkpt>
      <trkpt lat="42.97463" lon="-1.22917">
        <ele>743.540478</ele>
        <time>2026-05-22T13:55:00.000Z</time>
      </trkpt>
      <trkpt lat="42.97464" lon="-1.22915">
        <ele>743.61384</ele>
        <time>2026-05-22T13:55:01.000Z</time>
      </trkpt>
      <trkpt lat="42.97465" lon="-1.22914">
        <ele>743.718647</ele>
        <time>2026-05-22T13:55:02.000Z</time>
      </trkpt>
      <trkpt lat="42.97467" lon="-1.22913">
        <ele>743.811998</ele>
        <time>2026-05-22T13:55:03.000Z</time>
      </trkpt>
      <trkpt lat="42.97469" lon="-1.22912">
        <ele>743.90027</ele>
        <time>2026-05-22T13:55:04.000Z</time>
      </trkpt>
      <trkpt lat="42.97471" lon="-1.2291">
        <ele>743.983968</ele>
        <time>2026-05-22T13:55:05.000Z</time>
      </trkpt>
      <trkpt lat="42.97473" lon="-1.22908">
        <ele>744.083214</ele>
        <time>2026-05-22T13:55:06.000Z</time>
      </trkpt>
      <trkpt lat="42.97476" lon="-1.22907">
        <ele>744.190253</ele>
        <time>2026-05-22T13:55:07.000Z</time>
      </trkpt>
      <trkpt lat="42.97478" lon="-1.22905">
        <ele>744.289069</ele>
        <time>2026-05-22T13:55:08.000Z</time>
      </trkpt>
      <trkpt lat="42.9748" lon="-1.22904">
        <ele>744.375603</ele>
        <time>2026-05-22T13:55:09.000Z</time>
      </trkpt>
      <trkpt lat="42.97482" lon="-1.22902">
        <ele>744.465461</ele>
        <time>2026-05-22T13:55:10.000Z</time>
      </trkpt>
      <trkpt lat="42.97484" lon="-1.22901">
        <ele>744.54785</ele>
        <time>2026-05-22T13:55:11.000Z</time>
      </trkpt>
      <trkpt lat="42.97486" lon="-1.22899">
        <ele>744.628155</ele>
        <time>2026-05-22T13:55:12.000Z</time>
      </trkpt>
      <trkpt lat="42.97487" lon="-1.22898">
        <ele>744.696374</ele>
        <time>2026-05-22T13:55:13.000Z</time>
      </trkpt>
      <trkpt lat="42.97489" lon="-1.22898">
        <ele>744.771987</ele>
        <time>2026-05-22T13:55:14.000Z</time>
      </trkpt>
      <trkpt lat="42.97492" lon="-1.22897">
        <ele>744.870408</ele>
        <time>2026-05-22T13:55:15.000Z</time>
      </trkpt>
      <trkpt lat="42.97494" lon="-1.22898">
        <ele>744.97957</ele>
        <time>2026-05-22T13:55:16.000Z</time>
      </trkpt>
      <trkpt lat="42.97497" lon="-1.22898">
        <ele>745.076674</ele>
        <time>2026-05-22T13:55:17.000Z</time>
      </trkpt>
      <trkpt lat="42.97499" lon="-1.22898">
        <ele>745.169907</ele>
        <time>2026-05-22T13:55:18.000Z</time>
      </trkpt>
      <trkpt lat="42.97502" lon="-1.22898">
        <ele>745.25927</ele>
        <time>2026-05-22T13:55:19.000Z</time>
      </trkpt>
      <trkpt lat="42.97504" lon="-1.22898">
        <ele>745.352374</ele>
        <time>2026-05-22T13:55:20.000Z</time>
      </trkpt>
      <trkpt lat="42.97506" lon="-1.22898">
        <ele>745.445607</ele>
        <time>2026-05-22T13:55:21.000Z</time>
      </trkpt>
      <trkpt lat="42.97509" lon="-1.22898">
        <ele>745.527035</ele>
        <time>2026-05-22T13:55:22.000Z</time>
      </trkpt>
      <trkpt lat="42.9751" lon="-1.22897">
        <ele>745.594462</ele>
        <time>2026-05-22T13:55:23.000Z</time>
      </trkpt>
      <trkpt lat="42.97512" lon="-1.22897">
        <ele>745.660379</ele>
        <time>2026-05-22T13:55:24.000Z</time>
      </trkpt>
      <trkpt lat="42.97513" lon="-1.22898">
        <ele>745.718611</ele>
        <time>2026-05-22T13:55:25.000Z</time>
      </trkpt>
      <trkpt lat="42.97515" lon="-1.22898">
        <ele>745.776774</ele>
        <time>2026-05-22T13:55:26.000Z</time>
      </trkpt>
      <trkpt lat="42.97516" lon="-1.22898">
        <ele>745.831355</ele>
        <time>2026-05-22T13:55:27.000Z</time>
      </trkpt>
      <trkpt lat="42.97518" lon="-1.22898">
        <ele>745.89782</ele>
        <time>2026-05-22T13:55:28.000Z</time>
      </trkpt>
      <trkpt lat="42.9752" lon="-1.22898">
        <ele>745.963799</ele>
        <time>2026-05-22T13:55:29.000Z</time>
      </trkpt>
      <trkpt lat="42.97521" lon="-1.22898">
        <ele>746.030264</ele>
        <time>2026-05-22T13:55:30.000Z</time>
      </trkpt>
      <trkpt lat="42.97523" lon="-1.22898">
        <ele>746.085212</ele>
        <time>2026-05-22T13:55:31.000Z</time>
      </trkpt>
      <trkpt lat="42.97524" lon="-1.22899">
        <ele>746.142103</ele>
        <time>2026-05-22T13:55:32.000Z</time>
      </trkpt>
      <trkpt lat="42.97526" lon="-1.22899">
        <ele>746.204725</ele>
        <time>2026-05-22T13:55:33.000Z</time>
      </trkpt>
      <trkpt lat="42.97527" lon="-1.22899">
        <ele>746.257929</ele>
        <time>2026-05-22T13:55:34.000Z</time>
      </trkpt>
      <trkpt lat="42.97528" lon="-1.22901">
        <ele>746.307702</ele>
        <time>2026-05-22T13:55:35.000Z</time>
      </trkpt>
      <trkpt lat="42.97529" lon="-1.22902">
        <ele>746.36059</ele>
        <time>2026-05-22T13:55:36.000Z</time>
      </trkpt>
      <trkpt lat="42.97529" lon="-1.22904">
        <ele>746.42584</ele>
        <time>2026-05-22T13:55:37.000Z</time>
      </trkpt>
      <trkpt lat="42.97528" lon="-1.22906">
        <ele>746.485801</ele>
        <time>2026-05-22T13:55:38.000Z</time>
      </trkpt>
      <trkpt lat="42.97528" lon="-1.22908">
        <ele>746.541916</ele>
        <time>2026-05-22T13:55:39.000Z</time>
      </trkpt>
      <trkpt lat="42.97527" lon="-1.2291">
        <ele>746.597258</ele>
        <time>2026-05-22T13:55:40.000Z</time>
      </trkpt>
      <trkpt lat="42.97526" lon="-1.22911">
        <ele>746.653644</ele>
        <time>2026-05-22T13:55:41.000Z</time>
      </trkpt>
      <trkpt lat="42.97525" lon="-1.22912">
        <ele>746.711487</ele>
        <time>2026-05-22T13:55:42.000Z</time>
      </trkpt>
      <trkpt lat="42.97523" lon="-1.22913">
        <ele>746.770326</ele>
        <time>2026-05-22T13:55:43.000Z</time>
      </trkpt>
      <trkpt lat="42.97522" lon="-1.22914">
        <ele>746.821552</ele>
        <time>2026-05-22T13:55:44.000Z</time>
      </trkpt>
      <trkpt lat="42.97521" lon="-1.22915">
        <ele>746.877938</ele>
        <time>2026-05-22T13:55:45.000Z</time>
      </trkpt>
      <trkpt lat="42.9752" lon="-1.22917">
        <ele>746.929537</ele>
        <time>2026-05-22T13:55:46.000Z</time>
      </trkpt>
      <trkpt lat="42.97519" lon="-1.22918">
        <ele>746.984111</ele>
        <time>2026-05-22T13:55:47.000Z</time>
      </trkpt>
      <trkpt lat="42.97518" lon="-1.22919">
        <ele>747.040616</ele>
        <time>2026-05-22T13:55:48.000Z</time>
      </trkpt>
      <trkpt lat="42.97516" lon="-1.2292">
        <ele>747.108009</ele>
        <time>2026-05-22T13:55:49.000Z</time>
      </trkpt>
      <trkpt lat="42.97515" lon="-1.22921">
        <ele>747.178772</ele>
        <time>2026-05-22T13:55:50.000Z</time>
      </trkpt>
      <trkpt lat="42.97513" lon="-1.22923">
        <ele>747.249534</ele>
        <time>2026-05-22T13:55:51.000Z</time>
      </trkpt>
      <trkpt lat="42.97512" lon="-1.22924">
        <ele>747.313709</ele>
        <time>2026-05-22T13:55:52.000Z</time>
      </trkpt>
      <trkpt lat="42.97511" lon="-1.22926">
        <ele>747.376168</ele>
        <time>2026-05-22T13:55:53.000Z</time>
      </trkpt>
      <trkpt lat="42.9751" lon="-1.22927">
        <ele>747.431675</ele>
        <time>2026-05-22T13:55:54.000Z</time>
      </trkpt>
      <trkpt lat="42.97509" lon="-1.22929">
        <ele>747.482149</ele>
        <time>2026-05-22T13:55:55.000Z</time>
      </trkpt>
      <trkpt lat="42.97508" lon="-1.2293">
        <ele>747.537183</ele>
        <time>2026-05-22T13:55:56.000Z</time>
      </trkpt>
      <trkpt lat="42.97507" lon="-1.22932">
        <ele>747.592217</ele>
        <time>2026-05-22T13:55:57.000Z</time>
      </trkpt>
      <trkpt lat="42.97506" lon="-1.22933">
        <ele>747.647251</ele>
        <time>2026-05-22T13:55:58.000Z</time>
      </trkpt>
      <trkpt lat="42.97506" lon="-1.22935">
        <ele>747.697725</ele>
        <time>2026-05-22T13:55:59.000Z</time>
      </trkpt>
      <trkpt lat="42.97505" lon="-1.22936">
        <ele>747.747084</ele>
        <time>2026-05-22T13:56:00.000Z</time>
      </trkpt>
      <trkpt lat="42.97505" lon="-1.22938">
        <ele>747.801706</ele>
        <time>2026-05-22T13:56:01.000Z</time>
      </trkpt>
      <trkpt lat="42.97504" lon="-1.2294">
        <ele>747.86592</ele>
        <time>2026-05-22T13:56:02.000Z</time>
      </trkpt>
      <trkpt lat="42.97503" lon="-1.22942">
        <ele>747.930585</ele>
        <time>2026-05-22T13:56:03.000Z</time>
      </trkpt>
      <trkpt lat="42.97503" lon="-1.22944">
        <ele>747.991287</ele>
        <time>2026-05-22T13:56:04.000Z</time>
      </trkpt>
      <trkpt lat="42.97502" lon="-1.22946">
        <ele>748.043661</ele>
        <time>2026-05-22T13:56:05.000Z</time>
      </trkpt>
      <trkpt lat="42.97502" lon="-1.22948">
        <ele>748.094322</ele>
        <time>2026-05-22T13:56:06.000Z</time>
      </trkpt>
      <trkpt lat="42.97502" lon="-1.2295">
        <ele>748.151194</ele>
        <time>2026-05-22T13:56:07.000Z</time>
      </trkpt>
      <trkpt lat="42.97502" lon="-1.22951">
        <ele>748.205652</ele>
        <time>2026-05-22T13:56:08.000Z</time>
      </trkpt>
      <trkpt lat="42.97501" lon="-1.22953">
        <ele>748.252511</ele>
        <time>2026-05-22T13:56:09.000Z</time>
      </trkpt>
      <trkpt lat="42.97501" lon="-1.22955">
        <ele>748.295767</ele>
        <time>2026-05-22T13:56:10.000Z</time>
      </trkpt>
      <trkpt lat="42.97501" lon="-1.22956">
        <ele>748.341158</ele>
        <time>2026-05-22T13:56:11.000Z</time>
      </trkpt>
      <trkpt lat="42.97501" lon="-1.22957">
        <ele>748.378039</ele>
        <time>2026-05-22T13:56:12.000Z</time>
      </trkpt>
      <trkpt lat="42.97501" lon="-1.22959">
        <ele>748.421295</ele>
        <time>2026-05-22T13:56:13.000Z</time>
      </trkpt>
      <trkpt lat="42.97501" lon="-1.22961">
        <ele>748.475337</ele>
        <time>2026-05-22T13:56:14.000Z</time>
      </trkpt>
      <trkpt lat="42.97501" lon="-1.22963">
        <ele>748.524185</ele>
        <time>2026-05-22T13:56:15.000Z</time>
      </trkpt>
      <trkpt lat="42.975" lon="-1.22964">
        <ele>748.573034</ele>
        <time>2026-05-22T13:56:16.000Z</time>
      </trkpt>
      <trkpt lat="42.975" lon="-1.22966">
        <ele>748.618327</ele>
        <time>2026-05-22T13:56:17.000Z</time>
      </trkpt>
      <trkpt lat="42.97499" lon="-1.22967">
        <ele>748.664357</ele>
        <time>2026-05-22T13:56:18.000Z</time>
      </trkpt>
      <trkpt lat="42.97499" lon="-1.22969">
        <ele>748.71112</ele>
        <time>2026-05-22T13:56:19.000Z</time>
      </trkpt>
      <trkpt lat="42.97499" lon="-1.2297">
        <ele>748.762186</ele>
        <time>2026-05-22T13:56:20.000Z</time>
      </trkpt>
      <trkpt lat="42.97499" lon="-1.22972">
        <ele>748.807743</ele>
        <time>2026-05-22T13:56:21.000Z</time>
      </trkpt>
      <trkpt lat="42.97499" lon="-1.22974">
        <ele>748.856127</ele>
        <time>2026-05-22T13:56:22.000Z</time>
      </trkpt>
      <trkpt lat="42.97499" lon="-1.22975">
        <ele>748.904976</ele>
        <time>2026-05-22T13:56:23.000Z</time>
      </trkpt>
      <trkpt lat="42.97499" lon="-1.22977">
        <ele>748.950368</ele>
        <time>2026-05-22T13:56:24.000Z</time>
      </trkpt>
      <trkpt lat="42.97499" lon="-1.22979">
        <ele>749.002019</ele>
        <time>2026-05-22T13:56:25.000Z</time>
      </trkpt>
      <trkpt lat="42.97499" lon="-1.22981">
        <ele>749.050403</ele>
        <time>2026-05-22T13:56:26.000Z</time>
      </trkpt>
      <trkpt lat="42.97499" lon="-1.22982">
        <ele>749.093134</ele>
        <time>2026-05-22T13:56:27.000Z</time>
      </trkpt>
      <trkpt lat="42.97499" lon="-1.22984">
        <ele>749.1442</ele>
        <time>2026-05-22T13:56:28.000Z</time>
      </trkpt>
      <trkpt lat="42.97499" lon="-1.22986">
        <ele>749.195413</ele>
        <time>2026-05-22T13:56:29.000Z</time>
      </trkpt>
      <trkpt lat="42.97499" lon="-1.22987">
        <ele>749.24097</ele>
        <time>2026-05-22T13:56:30.000Z</time>
      </trkpt>
      <trkpt lat="42.97499" lon="-1.22989">
        <ele>749.289355</ele>
        <time>2026-05-22T13:56:31.000Z</time>
      </trkpt>
      <trkpt lat="42.97499" lon="-1.22991">
        <ele>749.334912</ele>
        <time>2026-05-22T13:56:32.000Z</time>
      </trkpt>
      <trkpt lat="42.97499" lon="-1.22992">
        <ele>749.377643</ele>
        <time>2026-05-22T13:56:33.000Z</time>
      </trkpt>
      <trkpt lat="42.97498" lon="-1.22994">
        <ele>749.425611</ele>
        <time>2026-05-22T13:56:34.000Z</time>
      </trkpt>
      <trkpt lat="42.97498" lon="-1.22995">
        <ele>749.482868</ele>
        <time>2026-05-22T13:56:35.000Z</time>
      </trkpt>
      <trkpt lat="42.97496" lon="-1.22997">
        <ele>749.554075</ele>
        <time>2026-05-22T13:56:36.000Z</time>
      </trkpt>
      <trkpt lat="42.97495" lon="-1.22999">
        <ele>749.620476</ele>
        <time>2026-05-22T13:56:37.000Z</time>
      </trkpt>
      <trkpt lat="42.97494" lon="-1.23001">
        <ele>749.70082</ele>
        <time>2026-05-22T13:56:38.000Z</time>
      </trkpt>
      <trkpt lat="42.97493" lon="-1.23004">
        <ele>749.797819</ele>
        <time>2026-05-22T13:56:39.000Z</time>
      </trkpt>
      <trkpt lat="42.97492" lon="-1.23008">
        <ele>749.908503</ele>
        <time>2026-05-22T13:56:40.000Z</time>
      </trkpt>
      <trkpt lat="42.97491" lon="-1.23012">
        <ele>750.027227</ele>
        <time>2026-05-22T13:56:41.000Z</time>
      </trkpt>
      <trkpt lat="42.9749" lon="-1.23016">
        <ele>750.141302</ele>
        <time>2026-05-22T13:56:42.000Z</time>
      </trkpt>
      <trkpt lat="42.9749" lon="-1.23019">
        <ele>750.236199</ele>
        <time>2026-05-22T13:56:43.000Z</time>
      </trkpt>
      <trkpt lat="42.9749" lon="-1.23022">
        <ele>750.316482</ele>
        <time>2026-05-22T13:56:44.000Z</time>
      </trkpt>
      <trkpt lat="42.9749" lon="-1.23024">
        <ele>750.38501</ele>
        <time>2026-05-22T13:56:45.000Z</time>
      </trkpt>
      <trkpt lat="42.97489" lon="-1.23026">
        <ele>750.444713</ele>
        <time>2026-05-22T13:56:46.000Z</time>
      </trkpt>
      <trkpt lat="42.97489" lon="-1.23028">
        <ele>750.499856</ele>
        <time>2026-05-22T13:56:47.000Z</time>
      </trkpt>
      <trkpt lat="42.97489" lon="-1.2303">
        <ele>750.548356</ele>
        <time>2026-05-22T13:56:48.000Z</time>
      </trkpt>
      <trkpt lat="42.97487" lon="-1.2303">
        <ele>750.595231</ele>
        <time>2026-05-22T13:56:49.000Z</time>
      </trkpt>
      <trkpt lat="42.97486" lon="-1.23029">
        <ele>750.655221</ele>
        <time>2026-05-22T13:56:50.000Z</time>
      </trkpt>
      <trkpt lat="42.97484" lon="-1.23028">
        <ele>750.730561</ele>
        <time>2026-05-22T13:56:51.000Z</time>
      </trkpt>
      <trkpt lat="42.97483" lon="-1.23027">
        <ele>750.671515</ele>
        <time>2026-05-22T13:56:52.000Z</time>
      </trkpt>
      <trkpt lat="42.97481" lon="-1.23026">
        <ele>750.541516</ele>
        <time>2026-05-22T13:56:53.000Z</time>
      </trkpt>
      <trkpt lat="42.97479" lon="-1.23025">
        <ele>750.378727</ele>
        <time>2026-05-22T13:56:54.000Z</time>
      </trkpt>
      <trkpt lat="42.97477" lon="-1.23026">
        <ele>750.217964</ele>
        <time>2026-05-22T13:56:55.000Z</time>
      </trkpt>
      <trkpt lat="42.97475" lon="-1.23026">
        <ele>750.046642</ele>
        <time>2026-05-22T13:56:56.000Z</time>
      </trkpt>
      <trkpt lat="42.97472" lon="-1.23027">
        <ele>749.866692</ele>
        <time>2026-05-22T13:56:57.000Z</time>
      </trkpt>
      <trkpt lat="42.9747" lon="-1.23027">
        <ele>749.688837</ele>
        <time>2026-05-22T13:56:58.000Z</time>
      </trkpt>
      <trkpt lat="42.97468" lon="-1.23028">
        <ele>749.543308</ele>
        <time>2026-05-22T13:56:59.000Z</time>
      </trkpt>
      <trkpt lat="42.97466" lon="-1.23028">
        <ele>749.391479</ele>
        <time>2026-05-22T13:57:00.000Z</time>
      </trkpt>
      <trkpt lat="42.97465" lon="-1.23029">
        <ele>749.263182</ele>
        <time>2026-05-22T13:57:01.000Z</time>
      </trkpt>
      <trkpt lat="42.97463" lon="-1.23029">
        <ele>749.133235</ele>
        <time>2026-05-22T13:57:02.000Z</time>
      </trkpt>
      <trkpt lat="42.97461" lon="-1.23029">
        <ele>749.001499</ele>
        <time>2026-05-22T13:57:03.000Z</time>
      </trkpt>
      <trkpt lat="42.9746" lon="-1.23028">
        <ele>748.8715</ele>
        <time>2026-05-22T13:57:04.000Z</time>
      </trkpt>
      <trkpt lat="42.97458" lon="-1.23026">
        <ele>748.709633</ele>
        <time>2026-05-22T13:57:05.000Z</time>
      </trkpt>
      <trkpt lat="42.97457" lon="-1.23023">
        <ele>748.553951</ele>
        <time>2026-05-22T13:57:06.000Z</time>
      </trkpt>
      <trkpt lat="42.97456" lon="-1.23021">
        <ele>748.396351</ele>
        <time>2026-05-22T13:57:07.000Z</time>
      </trkpt>
      <trkpt lat="42.97456" lon="-1.23018">
        <ele>748.239156</ele>
        <time>2026-05-22T13:57:08.000Z</time>
      </trkpt>
      <trkpt lat="42.97456" lon="-1.23015">
        <ele>748.07153</ele>
        <time>2026-05-22T13:57:09.000Z</time>
      </trkpt>
      <trkpt lat="42.97456" lon="-1.23012">
        <ele>747.909491</ele>
        <time>2026-05-22T13:57:10.000Z</time>
      </trkpt>
      <trkpt lat="42.97456" lon="-1.23009">
        <ele>747.758434</ele>
        <time>2026-05-22T13:57:11.000Z</time>
      </trkpt>
      <trkpt lat="42.97457" lon="-1.23007">
        <ele>747.634563</ele>
        <time>2026-05-22T13:57:12.000Z</time>
      </trkpt>
      <trkpt lat="42.97456" lon="-1.23005">
        <ele>747.505823</ele>
        <time>2026-05-22T13:57:13.000Z</time>
      </trkpt>
      <trkpt lat="42.97456" lon="-1.23003">
        <ele>747.382897</ele>
        <time>2026-05-22T13:57:14.000Z</time>
      </trkpt>
      <trkpt lat="42.97457" lon="-1.23001">
        <ele>747.261648</ele>
        <time>2026-05-22T13:57:15.000Z</time>
      </trkpt>
      <trkpt lat="42.97457" lon="-1.22998">
        <ele>747.137777</ele>
        <time>2026-05-22T13:57:16.000Z</time>
      </trkpt>
      <trkpt lat="42.97457" lon="-1.22996">
        <ele>747.009037</ele>
        <time>2026-05-22T13:57:17.000Z</time>
      </trkpt>
      <trkpt lat="42.97457" lon="-1.22994">
        <ele>746.874069</ele>
        <time>2026-05-22T13:57:18.000Z</time>
      </trkpt>
      <trkpt lat="42.97456" lon="-1.22991">
        <ele>746.729352</ele>
        <time>2026-05-22T13:57:19.000Z</time>
      </trkpt>
      <trkpt lat="42.97455" lon="-1.2299">
        <ele>746.614565</ele>
        <time>2026-05-22T13:57:20.000Z</time>
      </trkpt>
      <trkpt lat="42.97453" lon="-1.22989">
        <ele>746.482088</ele>
        <time>2026-05-22T13:57:21.000Z</time>
      </trkpt>
      <trkpt lat="42.97451" lon="-1.22988">
        <ele>746.319451</ele>
        <time>2026-05-22T13:57:22.000Z</time>
      </trkpt>
      <trkpt lat="42.9745" lon="-1.22987">
        <ele>746.187318</ele>
        <time>2026-05-22T13:57:23.000Z</time>
      </trkpt>
      <trkpt lat="42.97448" lon="-1.22987">
        <ele>746.049742</ele>
        <time>2026-05-22T13:57:24.000Z</time>
      </trkpt>
      <trkpt lat="42.97447" lon="-1.22987">
        <ele>745.950306</ele>
        <time>2026-05-22T13:57:25.000Z</time>
      </trkpt>
      <trkpt lat="42.97445" lon="-1.22987">
        <ele>745.819999</ele>
        <time>2026-05-22T13:57:26.000Z</time>
      </trkpt>
      <trkpt lat="42.97444" lon="-1.22986">
        <ele>745.710773</ele>
        <time>2026-05-22T13:57:27.000Z</time>
      </trkpt>
      <trkpt lat="42.97442" lon="-1.22987">
        <ele>745.610867</ele>
        <time>2026-05-22T13:57:28.000Z</time>
      </trkpt>
      <trkpt lat="42.97441" lon="-1.22987">
        <ele>745.506334</ele>
        <time>2026-05-22T13:57:29.000Z</time>
      </trkpt>
      <trkpt lat="42.97441" lon="-1.2299">
        <ele>745.377614</ele>
        <time>2026-05-22T13:57:30.000Z</time>
      </trkpt>
      <trkpt lat="42.9744" lon="-1.22991">
        <ele>745.272501</ele>
        <time>2026-05-22T13:57:31.000Z</time>
      </trkpt>
      <trkpt lat="42.9744" lon="-1.22994">
        <ele>745.110282</ele>
        <time>2026-05-22T13:57:32.000Z</time>
      </trkpt>
      <trkpt lat="42.97439" lon="-1.22997">
        <ele>744.957817</ele>
        <time>2026-05-22T13:57:33.000Z</time>
      </trkpt>
      <trkpt lat="42.97438" lon="-1.22999">
        <ele>744.799807</ele>
        <time>2026-05-22T13:57:34.000Z</time>
      </trkpt>
      <trkpt lat="42.97437" lon="-1.23001">
        <ele>744.667516</ele>
        <time>2026-05-22T13:57:35.000Z</time>
      </trkpt>
      <trkpt lat="42.97436" lon="-1.23003">
        <ele>744.540155</ele>
        <time>2026-05-22T13:57:36.000Z</time>
      </trkpt>
      <trkpt lat="42.97436" lon="-1.23005">
        <ele>744.407864</ele>
        <time>2026-05-22T13:57:37.000Z</time>
      </trkpt>
      <trkpt lat="42.97435" lon="-1.23007">
        <ele>744.294476</ele>
        <time>2026-05-22T13:57:38.000Z</time>
      </trkpt>
      <trkpt lat="42.97434" lon="-1.23008">
        <ele>744.190311</ele>
        <time>2026-05-22T13:57:39.000Z</time>
      </trkpt>
      <trkpt lat="42.97433" lon="-1.23009">
        <ele>744.107519</ele>
        <time>2026-05-22T13:57:40.000Z</time>
      </trkpt>
      <trkpt lat="42.97433" lon="-1.2301">
        <ele>744.035258</ele>
        <time>2026-05-22T13:57:41.000Z</time>
      </trkpt>
      <trkpt lat="42.97432" lon="-1.23011">
        <ele>743.984393</ele>
        <time>2026-05-22T13:57:42.000Z</time>
      </trkpt>
      <trkpt lat="42.97429" lon="-1.23015">
        <ele>743.63754</ele>
        <time>2026-05-22T13:57:56.000Z</time>
      </trkpt>
      <trkpt lat="42.97428" lon="-1.23015">
        <ele>743.567906</ele>
        <time>2026-05-22T13:57:57.000Z</time>
      </trkpt>
      <trkpt lat="42.97426" lon="-1.23014">
        <ele>743.464771</ele>
        <time>2026-05-22T13:57:58.000Z</time>
      </trkpt>
      <trkpt lat="42.97425" lon="-1.23014">
        <ele>743.341805</ele>
        <time>2026-05-22T13:57:59.000Z</time>
      </trkpt>
      <trkpt lat="42.97424" lon="-1.23012">
        <ele>743.202437</ele>
        <time>2026-05-22T13:58:00.000Z</time>
      </trkpt>
      <trkpt lat="42.97422" lon="-1.2301">
        <ele>743.03952</ele>
        <time>2026-05-22T13:58:01.000Z</time>
      </trkpt>
      <trkpt lat="42.97421" lon="-1.23007">
        <ele>742.861107</ele>
        <time>2026-05-22T13:58:02.000Z</time>
      </trkpt>
      <trkpt lat="42.97421" lon="-1.23004">
        <ele>742.68722</ele>
        <time>2026-05-22T13:58:03.000Z</time>
      </trkpt>
      <trkpt lat="42.97421" lon="-1.23001">
        <ele>742.534626</ele>
        <time>2026-05-22T13:58:04.000Z</time>
      </trkpt>
      <trkpt lat="42.97422" lon="-1.22998">
        <ele>742.387553</ele>
        <time>2026-05-22T13:58:05.000Z</time>
      </trkpt>
      <trkpt lat="42.97422" lon="-1.22995">
        <ele>742.21916</ele>
        <time>2026-05-22T13:58:06.000Z</time>
      </trkpt>
      <trkpt lat="42.97423" lon="-1.22993">
        <ele>742.063538</ele>
        <time>2026-05-22T13:58:07.000Z</time>
      </trkpt>
      <trkpt lat="42.97424" lon="-1.2299">
        <ele>741.871981</ele>
        <time>2026-05-22T13:58:08.000Z</time>
      </trkpt>
      <trkpt lat="42.97424" lon="-1.22987">
        <ele>741.701593</ele>
        <time>2026-05-22T13:58:09.000Z</time>
      </trkpt>
      <trkpt lat="42.97424" lon="-1.22984">
        <ele>741.578429</ele>
        <time>2026-05-22T13:58:10.000Z</time>
      </trkpt>
      <trkpt lat="42.97424" lon="-1.22982">
        <ele>741.455503</ele>
        <time>2026-05-22T13:58:11.000Z</time>
      </trkpt>
      <trkpt lat="42.97424" lon="-1.2298">
        <ele>741.355723</ele>
        <time>2026-05-22T13:58:12.000Z</time>
      </trkpt>
      <trkpt lat="42.97424" lon="-1.22979">
        <ele>741.283085</ele>
        <time>2026-05-22T13:58:13.000Z</time>
      </trkpt>
      <trkpt lat="42.97423" lon="-1.22977">
        <ele>741.180709</ele>
        <time>2026-05-22T13:58:14.000Z</time>
      </trkpt>
      <trkpt lat="42.97423" lon="-1.22976">
        <ele>741.078332</ele>
        <time>2026-05-22T13:58:15.000Z</time>
      </trkpt>
      <trkpt lat="42.97422" lon="-1.22974">
        <ele>740.965565</ele>
        <time>2026-05-22T13:58:16.000Z</time>
      </trkpt>
      <trkpt lat="42.97421" lon="-1.22972">
        <ele>740.848318</ele>
        <time>2026-05-22T13:58:17.000Z</time>
      </trkpt>
      <trkpt lat="42.9742" lon="-1.22971">
        <ele>740.753402</ele>
        <time>2026-05-22T13:58:18.000Z</time>
      </trkpt>
      <trkpt lat="42.9742" lon="-1.22971">
        <ele>740.690302</ele>
        <time>2026-05-22T13:58:19.000Z</time>
      </trkpt>
      <trkpt lat="42.97419" lon="-1.2297">
        <ele>740.680839</ele>
        <time>2026-05-22T13:58:20.000Z</time>
      </trkpt>
      <trkpt lat="42.97426" lon="-1.22971">
        <ele>740.175694</ele>
        <time>2026-05-22T14:03:36.000Z</time>
      </trkpt>
      <trkpt lat="42.97426" lon="-1.22972">
        <ele>740.10821</ele>
        <time>2026-05-22T14:03:37.000Z</time>
      </trkpt>
      <trkpt lat="42.97426" lon="-1.22974">
        <ele>740.018809</ele>
        <time>2026-05-22T14:03:38.000Z</time>
      </trkpt>
      <trkpt lat="42.97425" lon="-1.22976">
        <ele>739.883429</ele>
        <time>2026-05-22T14:03:39.000Z</time>
      </trkpt>
      <trkpt lat="42.97423" lon="-1.22978">
        <ele>739.684713</ele>
        <time>2026-05-22T14:03:40.000Z</time>
      </trkpt>
      <trkpt lat="42.97419" lon="-1.22979">
        <ele>739.420836</ele>
        <time>2026-05-22T14:03:41.000Z</time>
      </trkpt>
      <trkpt lat="42.97416" lon="-1.2298">
        <ele>739.159028</ele>
        <time>2026-05-22T14:03:42.000Z</time>
      </trkpt>
      <trkpt lat="42.97412" lon="-1.22981">
        <ele>738.880492</ele>
        <time>2026-05-22T14:03:43.000Z</time>
      </trkpt>
      <trkpt lat="42.97409" lon="-1.22982">
        <ele>738.641776</ele>
        <time>2026-05-22T14:03:44.000Z</time>
      </trkpt>
      <trkpt lat="42.97406" lon="-1.22983">
        <ele>738.397186</ele>
        <time>2026-05-22T14:03:45.000Z</time>
      </trkpt>
      <trkpt lat="42.97404" lon="-1.22984">
        <ele>738.180363</ele>
        <time>2026-05-22T14:03:46.000Z</time>
      </trkpt>
      <trkpt lat="42.97401" lon="-1.22984">
        <ele>737.974093</ele>
        <time>2026-05-22T14:03:47.000Z</time>
      </trkpt>
      <trkpt lat="42.97398" lon="-1.22985">
        <ele>737.736758</ele>
        <time>2026-05-22T14:03:48.000Z</time>
      </trkpt>
      <trkpt lat="42.97395" lon="-1.22985">
        <ele>737.504339</ele>
        <time>2026-05-22T14:03:49.000Z</time>
      </trkpt>
      <trkpt lat="42.97392" lon="-1.22986">
        <ele>737.248389</ele>
        <time>2026-05-22T14:03:50.000Z</time>
      </trkpt>
      <trkpt lat="42.97389" lon="-1.22987">
        <ele>737.01793</ele>
        <time>2026-05-22T14:03:51.000Z</time>
      </trkpt>
      <trkpt lat="42.97386" lon="-1.22988">
        <ele>736.937895</ele>
        <time>2026-05-22T14:03:52.000Z</time>
      </trkpt>
      <trkpt lat="42.97383" lon="-1.22989">
        <ele>736.866066</ele>
        <time>2026-05-22T14:03:53.000Z</time>
      </trkpt>
      <trkpt lat="42.97381" lon="-1.2299">
        <ele>736.800597</ele>
        <time>2026-05-22T14:03:54.000Z</time>
      </trkpt>
      <trkpt lat="42.97379" lon="-1.22992">
        <ele>736.741284</ele>
        <time>2026-05-22T14:03:55.000Z</time>
      </trkpt>
      <trkpt lat="42.97377" lon="-1.22995">
        <ele>736.669784</ele>
        <time>2026-05-22T14:03:56.000Z</time>
      </trkpt>
      <trkpt lat="42.97375" lon="-1.22998">
        <ele>736.587896</ele>
        <time>2026-05-22T14:03:57.000Z</time>
      </trkpt>
      <trkpt lat="42.97373" lon="-1.23001">
        <ele>736.498128</ele>
        <time>2026-05-22T14:03:58.000Z</time>
      </trkpt>
      <trkpt lat="42.9737" lon="-1.23004">
        <ele>736.409656</ele>
        <time>2026-05-22T14:03:59.000Z</time>
      </trkpt>
      <trkpt lat="42.97368" lon="-1.23008">
        <ele>736.321702</ele>
        <time>2026-05-22T14:04:00.000Z</time>
      </trkpt>
      <trkpt lat="42.97367" lon="-1.23012">
        <ele>736.242133</ele>
        <time>2026-05-22T14:04:01.000Z</time>
      </trkpt>
      <trkpt lat="42.97367" lon="-1.23016">
        <ele>736.152618</ele>
        <time>2026-05-22T14:04:02.000Z</time>
      </trkpt>
      <trkpt lat="42.97366" lon="-1.23021">
        <ele>736.051125</ele>
        <time>2026-05-22T14:04:03.000Z</time>
      </trkpt>
      <trkpt lat="42.97367" lon="-1.23027">
        <ele>735.937771</ele>
        <time>2026-05-22T14:04:04.000Z</time>
      </trkpt>
      <trkpt lat="42.97368" lon="-1.23033">
        <ele>735.814149</ele>
        <time>2026-05-22T14:04:05.000Z</time>
      </trkpt>
      <trkpt lat="42.9737" lon="-1.2304">
        <ele>735.683496</ele>
        <time>2026-05-22T14:04:06.000Z</time>
      </trkpt>
      <trkpt lat="42.97371" lon="-1.23046">
        <ele>735.542793</ele>
        <time>2026-05-22T14:04:07.000Z</time>
      </trkpt>
      <trkpt lat="42.97373" lon="-1.23054">
        <ele>735.393866</ele>
        <time>2026-05-22T14:04:08.000Z</time>
      </trkpt>
      <trkpt lat="42.97375" lon="-1.2306">
        <ele>735.249458</ele>
        <time>2026-05-22T14:04:09.000Z</time>
      </trkpt>
      <trkpt lat="42.97378" lon="-1.23068">
        <ele>735.099433</ele>
        <time>2026-05-22T14:04:10.000Z</time>
      </trkpt>
      <trkpt lat="42.9738" lon="-1.23075">
        <ele>734.942011</ele>
        <time>2026-05-22T14:04:11.000Z</time>
      </trkpt>
      <trkpt lat="42.97383" lon="-1.23082">
        <ele>734.784037</ele>
        <time>2026-05-22T14:04:12.000Z</time>
      </trkpt>
      <trkpt lat="42.97386" lon="-1.2309">
        <ele>734.618472</ele>
        <time>2026-05-22T14:04:13.000Z</time>
      </trkpt>
      <trkpt lat="42.97389" lon="-1.23097">
        <ele>734.453366</ele>
        <time>2026-05-22T14:04:14.000Z</time>
      </trkpt>
      <trkpt lat="42.97393" lon="-1.23103">
        <ele>734.292197</ele>
        <time>2026-05-22T14:04:15.000Z</time>
      </trkpt>
      <trkpt lat="42.97398" lon="-1.23108">
        <ele>734.128098</ele>
        <time>2026-05-22T14:04:16.000Z</time>
      </trkpt>
      <trkpt lat="42.97403" lon="-1.23112">
        <ele>733.961899</ele>
        <time>2026-05-22T14:04:17.000Z</time>
      </trkpt>
      <trkpt lat="42.97409" lon="-1.23115">
        <ele>733.799466</ele>
        <time>2026-05-22T14:04:18.000Z</time>
      </trkpt>
      <trkpt lat="42.97415" lon="-1.23117">
        <ele>733.643441</ele>
        <time>2026-05-22T14:04:19.000Z</time>
      </trkpt>
      <trkpt lat="42.97421" lon="-1.23118">
        <ele>733.488416</ele>
        <time>2026-05-22T14:04:20.000Z</time>
      </trkpt>
      <trkpt lat="42.97426" lon="-1.23119">
        <ele>733.331323</ele>
        <time>2026-05-22T14:04:21.000Z</time>
      </trkpt>
      <trkpt lat="42.97432" lon="-1.23119">
        <ele>733.178944</ele>
        <time>2026-05-22T14:04:22.000Z</time>
      </trkpt>
      <trkpt lat="42.97438" lon="-1.2312">
        <ele>733.02725</ele>
        <time>2026-05-22T14:04:23.000Z</time>
      </trkpt>
      <trkpt lat="42.97443" lon="-1.2312">
        <ele>732.883002</ele>
        <time>2026-05-22T14:04:24.000Z</time>
      </trkpt>
      <trkpt lat="42.97449" lon="-1.23121">
        <ele>732.740441</ele>
        <time>2026-05-22T14:04:25.000Z</time>
      </trkpt>
      <trkpt lat="42.97454" lon="-1.23123">
        <ele>732.597576</ele>
        <time>2026-05-22T14:04:26.000Z</time>
      </trkpt>
      <trkpt lat="42.97459" lon="-1.23124">
        <ele>732.463136</ele>
        <time>2026-05-22T14:04:27.000Z</time>
      </trkpt>
      <trkpt lat="42.97463" lon="-1.23126">
        <ele>732.333333</ele>
        <time>2026-05-22T14:04:28.000Z</time>
      </trkpt>
      <trkpt lat="42.97468" lon="-1.23128">
        <ele>732.232865</ele>
        <time>2026-05-22T14:04:29.000Z</time>
      </trkpt>
      <trkpt lat="42.97472" lon="-1.23131">
        <ele>732.211808</ele>
        <time>2026-05-22T14:04:30.000Z</time>
      </trkpt>
      <trkpt lat="42.97476" lon="-1.23135">
        <ele>732.190648</ele>
        <time>2026-05-22T14:04:31.000Z</time>
      </trkpt>
      <trkpt lat="42.97479" lon="-1.23139">
        <ele>732.169968</ele>
        <time>2026-05-22T14:04:32.000Z</time>
      </trkpt>
      <trkpt lat="42.97482" lon="-1.23142">
        <ele>732.150339</ele>
        <time>2026-05-22T14:04:33.000Z</time>
      </trkpt>
      <trkpt lat="42.97484" lon="-1.23147">
        <ele>732.133257</ele>
        <time>2026-05-22T14:04:34.000Z</time>
      </trkpt>
      <trkpt lat="42.97486" lon="-1.2315">
        <ele>732.121151</ele>
        <time>2026-05-22T14:04:35.000Z</time>
      </trkpt>
      <trkpt lat="42.97486" lon="-1.23152">
        <ele>732.111987</ele>
        <time>2026-05-22T14:04:36.000Z</time>
      </trkpt>
      <trkpt lat="42.97486" lon="-1.23153">
        <ele>732.10718</ele>
        <time>2026-05-22T14:04:37.000Z</time>
      </trkpt>
      <trkpt lat="42.97487" lon="-1.23154">
        <ele>732.10374</ele>
        <time>2026-05-22T14:04:38.000Z</time>
      </trkpt>
      <trkpt lat="42.97486" lon="-1.23155">
        <ele>732.101642</ele>
        <time>2026-05-22T14:04:39.000Z</time>
      </trkpt>
      <trkpt lat="42.97482" lon="-1.23167">
        <ele>732.054765</ele>
        <time>2026-05-22T14:05:37.000Z</time>
      </trkpt>
      <trkpt lat="42.97481" lon="-1.23172">
        <ele>732.040082</ele>
        <time>2026-05-22T14:05:38.000Z</time>
      </trkpt>
      <trkpt lat="42.9748" lon="-1.23176">
        <ele>732.025516</ele>
        <time>2026-05-22T14:05:39.000Z</time>
      </trkpt>
      <trkpt lat="42.97478" lon="-1.23178">
        <ele>732.011931</ele>
        <time>2026-05-22T14:05:40.000Z</time>
      </trkpt>
      <trkpt lat="42.97476" lon="-1.23181">
        <ele>731.997121</ele>
        <time>2026-05-22T14:05:41.000Z</time>
      </trkpt>
      <trkpt lat="42.97472" lon="-1.23184">
        <ele>731.978801</ele>
        <time>2026-05-22T14:05:42.000Z</time>
      </trkpt>
      <trkpt lat="42.97468" lon="-1.23186">
        <ele>731.959003</ele>
        <time>2026-05-22T14:05:43.000Z</time>
      </trkpt>
      <trkpt lat="42.97464" lon="-1.23189">
        <ele>731.938934</ele>
        <time>2026-05-22T14:05:44.000Z</time>
      </trkpt>
      <trkpt lat="42.9746" lon="-1.23191">
        <ele>731.918298</ele>
        <time>2026-05-22T14:05:45.000Z</time>
      </trkpt>
      <trkpt lat="42.97456" lon="-1.23194">
        <ele>731.897095</ele>
        <time>2026-05-22T14:05:46.000Z</time>
      </trkpt>
      <trkpt lat="42.97452" lon="-1.23196">
        <ele>731.875886</ele>
        <time>2026-05-22T14:05:47.000Z</time>
      </trkpt>
      <trkpt lat="42.97448" lon="-1.23199">
        <ele>731.853503</ele>
        <time>2026-05-22T14:05:48.000Z</time>
      </trkpt>
      <trkpt lat="42.97443" lon="-1.23202">
        <ele>731.829478</ele>
        <time>2026-05-22T14:05:49.000Z</time>
      </trkpt>
      <trkpt lat="42.97439" lon="-1.23205">
        <ele>731.806095</ele>
        <time>2026-05-22T14:05:50.000Z</time>
      </trkpt>
      <trkpt lat="42.97434" lon="-1.23209">
        <ele>731.782602</ele>
        <time>2026-05-22T14:05:51.000Z</time>
      </trkpt>
      <trkpt lat="42.9743" lon="-1.23213">
        <ele>731.758556</ele>
        <time>2026-05-22T14:05:52.000Z</time>
      </trkpt>
      <trkpt lat="42.97426" lon="-1.23218">
        <ele>731.7344</ele>
        <time>2026-05-22T14:05:53.000Z</time>
      </trkpt>
      <trkpt lat="42.97424" lon="-1.23224">
        <ele>731.709853</ele>
        <time>2026-05-22T14:05:54.000Z</time>
      </trkpt>
      <trkpt lat="42.97421" lon="-1.2323">
        <ele>731.685081</ele>
        <time>2026-05-22T14:05:55.000Z</time>
      </trkpt>
      <trkpt lat="42.97418" lon="-1.23236">
        <ele>731.65971</ele>
        <time>2026-05-22T14:05:56.000Z</time>
      </trkpt>
      <trkpt lat="42.97415" lon="-1.23243">
        <ele>731.633934</ele>
        <time>2026-05-22T14:05:57.000Z</time>
      </trkpt>
      <trkpt lat="42.97413" lon="-1.2325">
        <ele>731.607777</ele>
        <time>2026-05-22T14:05:58.000Z</time>
      </trkpt>
      <trkpt lat="42.97411" lon="-1.23257">
        <ele>731.581494</ele>
        <time>2026-05-22T14:05:59.000Z</time>
      </trkpt>
      <trkpt lat="42.97409" lon="-1.23264">
        <ele>731.55556</ele>
        <time>2026-05-22T14:06:00.000Z</time>
      </trkpt>
      <trkpt lat="42.97407" lon="-1.23271">
        <ele>731.528989</ele>
        <time>2026-05-22T14:06:01.000Z</time>
      </trkpt>
      <trkpt lat="42.97405" lon="-1.23279">
        <ele>731.502407</ele>
        <time>2026-05-22T14:06:02.000Z</time>
      </trkpt>
      <trkpt lat="42.97403" lon="-1.23286">
        <ele>731.474915</ele>
        <time>2026-05-22T14:06:03.000Z</time>
      </trkpt>
      <trkpt lat="42.97402" lon="-1.23294">
        <ele>731.447168</ele>
        <time>2026-05-22T14:06:04.000Z</time>
      </trkpt>
      <trkpt lat="42.97402" lon="-1.23303">
        <ele>731.419077</ele>
        <time>2026-05-22T14:06:05.000Z</time>
      </trkpt>
      <trkpt lat="42.97402" lon="-1.23311">
        <ele>731.393903</ele>
        <time>2026-05-22T14:06:06.000Z</time>
      </trkpt>
      <trkpt lat="42.97403" lon="-1.2332">
        <ele>731.375345</ele>
        <time>2026-05-22T14:06:07.000Z</time>
      </trkpt>
      <trkpt lat="42.97406" lon="-1.23328">
        <ele>731.356524</ele>
        <time>2026-05-22T14:06:08.000Z</time>
      </trkpt>
      <trkpt lat="42.9741" lon="-1.23335">
        <ele>731.336924</ele>
        <time>2026-05-22T14:06:09.000Z</time>
      </trkpt>
      <trkpt lat="42.97413" lon="-1.23344">
        <ele>731.316735</ele>
        <time>2026-05-22T14:06:10.000Z</time>
      </trkpt>
      <trkpt lat="42.97416" lon="-1.23352">
        <ele>731.296638</ele>
        <time>2026-05-22T14:06:11.000Z</time>
      </trkpt>
      <trkpt lat="42.97418" lon="-1.23362">
        <ele>731.275982</ele>
        <time>2026-05-22T14:06:12.000Z</time>
      </trkpt>
      <trkpt lat="42.97419" lon="-1.23371">
        <ele>731.256392</ele>
        <time>2026-05-22T14:06:13.000Z</time>
      </trkpt>
      <trkpt lat="42.9742" lon="-1.2338">
        <ele>731.23715</ele>
        <time>2026-05-22T14:06:14.000Z</time>
      </trkpt>
      <trkpt lat="42.97421" lon="-1.23388">
        <ele>731.218841</ele>
        <time>2026-05-22T14:06:15.000Z</time>
      </trkpt>
      <trkpt lat="42.97421" lon="-1.23397">
        <ele>731.200586</ele>
        <time>2026-05-22T14:06:16.000Z</time>
      </trkpt>
      <trkpt lat="42.9742" lon="-1.23405">
        <ele>731.182721</ele>
        <time>2026-05-22T14:06:17.000Z</time>
      </trkpt>
      <trkpt lat="42.97419" lon="-1.23413">
        <ele>731.165676</ele>
        <time>2026-05-22T14:06:18.000Z</time>
      </trkpt>
      <trkpt lat="42.97416" lon="-1.2342">
        <ele>731.149015</ele>
        <time>2026-05-22T14:06:19.000Z</time>
      </trkpt>
      <trkpt lat="42.97413" lon="-1.23426">
        <ele>731.132563</ele>
        <time>2026-05-22T14:06:20.000Z</time>
      </trkpt>
      <trkpt lat="42.97408" lon="-1.23431">
        <ele>731.115904</ele>
        <time>2026-05-22T14:06:21.000Z</time>
      </trkpt>
      <trkpt lat="42.97403" lon="-1.23434">
        <ele>731.098952</ele>
        <time>2026-05-22T14:06:22.000Z</time>
      </trkpt>
      <trkpt lat="42.97397" lon="-1.23435">
        <ele>731.081707</ele>
        <time>2026-05-22T14:06:23.000Z</time>
      </trkpt>
      <trkpt lat="42.97391" lon="-1.23434">
        <ele>731.064011</ele>
        <time>2026-05-22T14:06:24.000Z</time>
      </trkpt>
      <trkpt lat="42.97385" lon="-1.23434">
        <ele>731.047767</ele>
        <time>2026-05-22T14:06:25.000Z</time>
      </trkpt>
      <trkpt lat="42.9738" lon="-1.23436">
        <ele>731.031069</ele>
        <time>2026-05-22T14:06:26.000Z</time>
      </trkpt>
      <trkpt lat="42.97374" lon="-1.23438">
        <ele>731.01428</ele>
        <time>2026-05-22T14:06:27.000Z</time>
      </trkpt>
      <trkpt lat="42.97369" lon="-1.23441">
        <ele>730.997207</ele>
        <time>2026-05-22T14:06:28.000Z</time>
      </trkpt>
      <trkpt lat="42.97364" lon="-1.23445">
        <ele>730.979842</ele>
        <time>2026-05-22T14:06:29.000Z</time>
      </trkpt>
      <trkpt lat="42.97359" lon="-1.23451">
        <ele>730.962688</ele>
        <time>2026-05-22T14:06:30.000Z</time>
      </trkpt>
      <trkpt lat="42.97355" lon="-1.23457">
        <ele>730.94503</ele>
        <time>2026-05-22T14:06:31.000Z</time>
      </trkpt>
      <trkpt lat="42.97352" lon="-1.23464">
        <ele>730.927044</ele>
        <time>2026-05-22T14:06:32.000Z</time>
      </trkpt>
      <trkpt lat="42.97348" lon="-1.23471">
        <ele>730.909549</ele>
        <time>2026-05-22T14:06:33.000Z</time>
      </trkpt>
      <trkpt lat="42.97345" lon="-1.23478">
        <ele>730.891876</ele>
        <time>2026-05-22T14:06:34.000Z</time>
      </trkpt>
      <trkpt lat="42.97342" lon="-1.23485">
        <ele>730.912772</ele>
        <time>2026-05-22T14:06:35.000Z</time>
      </trkpt>
      <trkpt lat="42.97339" lon="-1.23492">
        <ele>731.089735</ele>
        <time>2026-05-22T14:06:36.000Z</time>
      </trkpt>
      <trkpt lat="42.97336" lon="-1.23499">
        <ele>731.260835</ele>
        <time>2026-05-22T14:06:37.000Z</time>
      </trkpt>
      <trkpt lat="42.97333" lon="-1.23506">
        <ele>731.434073</ele>
        <time>2026-05-22T14:06:38.000Z</time>
      </trkpt>
      <trkpt lat="42.9733" lon="-1.23512">
        <ele>731.602094</ele>
        <time>2026-05-22T14:06:39.000Z</time>
      </trkpt>
      <trkpt lat="42.97327" lon="-1.23519">
        <ele>731.764575</ele>
        <time>2026-05-22T14:06:40.000Z</time>
      </trkpt>
      <trkpt lat="42.97325" lon="-1.23526">
        <ele>731.928267</ele>
        <time>2026-05-22T14:06:41.000Z</time>
      </trkpt>
      <trkpt lat="42.97322" lon="-1.23531">
        <ele>732.076413</ele>
        <time>2026-05-22T14:06:42.000Z</time>
      </trkpt>
      <trkpt lat="42.97318" lon="-1.23536">
        <ele>732.213412</ele>
        <time>2026-05-22T14:06:43.000Z</time>
      </trkpt>
      <trkpt lat="42.97315" lon="-1.2354">
        <ele>732.342178</ele>
        <time>2026-05-22T14:06:44.000Z</time>
      </trkpt>
      <trkpt lat="42.97312" lon="-1.23543">
        <ele>732.459208</ele>
        <time>2026-05-22T14:06:45.000Z</time>
      </trkpt>
      <trkpt lat="42.97309" lon="-1.23547">
        <ele>732.579869</ele>
        <time>2026-05-22T14:06:46.000Z</time>
      </trkpt>
      <trkpt lat="42.97306" lon="-1.23551">
        <ele>732.698124</ele>
        <time>2026-05-22T14:06:47.000Z</time>
      </trkpt>
      <trkpt lat="42.97303" lon="-1.23553">
        <ele>732.801775</ele>
        <time>2026-05-22T14:06:48.000Z</time>
      </trkpt>
      <trkpt lat="42.973" lon="-1.23556">
        <ele>732.910507</ele>
        <time>2026-05-22T14:06:49.000Z</time>
      </trkpt>
      <trkpt lat="42.97297" lon="-1.23558">
        <ele>733.015298</ele>
        <time>2026-05-22T14:06:50.000Z</time>
      </trkpt>
      <trkpt lat="42.97294" lon="-1.23561">
        <ele>733.122975</ele>
        <time>2026-05-22T14:06:51.000Z</time>
      </trkpt>
      <trkpt lat="42.97291" lon="-1.23563">
        <ele>733.228075</ele>
        <time>2026-05-22T14:06:52.000Z</time>
      </trkpt>
      <trkpt lat="42.97287" lon="-1.23565">
        <ele>733.337351</ele>
        <time>2026-05-22T14:06:53.000Z</time>
      </trkpt>
      <trkpt lat="42.97284" lon="-1.23567">
        <ele>733.447666</ele>
        <time>2026-05-22T14:06:54.000Z</time>
      </trkpt>
      <trkpt lat="42.97281" lon="-1.23569">
        <ele>733.554156</ele>
        <time>2026-05-22T14:06:55.000Z</time>
      </trkpt>
      <trkpt lat="42.97277" lon="-1.23571">
        <ele>733.667237</ele>
        <time>2026-05-22T14:06:56.000Z</time>
      </trkpt>
      <trkpt lat="42.97274" lon="-1.23573">
        <ele>733.774036</ele>
        <time>2026-05-22T14:06:57.000Z</time>
      </trkpt>
      <trkpt lat="42.9727" lon="-1.23574">
        <ele>733.876116</ele>
        <time>2026-05-22T14:06:58.000Z</time>
      </trkpt>
      <trkpt lat="42.97267" lon="-1.23576">
        <ele>733.984474</ele>
        <time>2026-05-22T14:06:59.000Z</time>
      </trkpt>
      <trkpt lat="42.97264" lon="-1.23578">
        <ele>734.090964</ele>
        <time>2026-05-22T14:07:00.000Z</time>
      </trkpt>
      <trkpt lat="42.9726" lon="-1.2358">
        <ele>734.194997</ele>
        <time>2026-05-22T14:07:01.000Z</time>
      </trkpt>
      <trkpt lat="42.97257" lon="-1.23582">
        <ele>734.290801</ele>
        <time>2026-05-22T14:07:02.000Z</time>
      </trkpt>
      <trkpt lat="42.97254" lon="-1.23583">
        <ele>734.383886</ele>
        <time>2026-05-22T14:07:03.000Z</time>
      </trkpt>
      <trkpt lat="42.97252" lon="-1.23585">
        <ele>734.474267</ele>
        <time>2026-05-22T14:07:04.000Z</time>
      </trkpt>
      <trkpt lat="42.97249" lon="-1.23587">
        <ele>734.570071</ele>
        <time>2026-05-22T14:07:05.000Z</time>
      </trkpt>
      <trkpt lat="42.97246" lon="-1.23588">
        <ele>734.665068</ele>
        <time>2026-05-22T14:07:06.000Z</time>
      </trkpt>
      <trkpt lat="42.97243" lon="-1.2359">
        <ele>734.76282</ele>
        <time>2026-05-22T14:07:07.000Z</time>
      </trkpt>
      <trkpt lat="42.9724" lon="-1.23591">
        <ele>734.856335</ele>
        <time>2026-05-22T14:07:08.000Z</time>
      </trkpt>
      <trkpt lat="42.97237" lon="-1.23593">
        <ele>734.949174</ele>
        <time>2026-05-22T14:07:09.000Z</time>
      </trkpt>
      <trkpt lat="42.97234" lon="-1.23594">
        <ele>735.040267</ele>
        <time>2026-05-22T14:07:10.000Z</time>
      </trkpt>
      <trkpt lat="42.97231" lon="-1.23595">
        <ele>735.125118</ele>
        <time>2026-05-22T14:07:11.000Z</time>
      </trkpt>
      <trkpt lat="42.97228" lon="-1.23596">
        <ele>735.216746</ele>
        <time>2026-05-22T14:07:12.000Z</time>
      </trkpt>
      <trkpt lat="42.97225" lon="-1.23597">
        <ele>735.310234</ele>
        <time>2026-05-22T14:07:13.000Z</time>
      </trkpt>
      <trkpt lat="42.97221" lon="-1.23597">
        <ele>735.411111</ele>
        <time>2026-05-22T14:07:14.000Z</time>
      </trkpt>
      <trkpt lat="42.97218" lon="-1.23596">
        <ele>735.50671</ele>
        <time>2026-05-22T14:07:15.000Z</time>
      </trkpt>
      <trkpt lat="42.97215" lon="-1.23596">
        <ele>735.598158</ele>
        <time>2026-05-22T14:07:16.000Z</time>
      </trkpt>
      <trkpt lat="42.97212" lon="-1.23596">
        <ele>735.683734</ele>
        <time>2026-05-22T14:07:17.000Z</time>
      </trkpt>
      <trkpt lat="42.97209" lon="-1.23596">
        <ele>735.775207</ele>
        <time>2026-05-22T14:07:18.000Z</time>
      </trkpt>
      <trkpt lat="42.97206" lon="-1.23597">
        <ele>735.872651</ele>
        <time>2026-05-22T14:07:19.000Z</time>
      </trkpt>
      <trkpt lat="42.97203" lon="-1.23597">
        <ele>735.961254</ele>
        <time>2026-05-22T14:07:20.000Z</time>
      </trkpt>
      <trkpt lat="42.97199" lon="-1.23597">
        <ele>736.055652</ele>
        <time>2026-05-22T14:07:21.000Z</time>
      </trkpt>
      <trkpt lat="42.97196" lon="-1.23596">
        <ele>736.156782</ele>
        <time>2026-05-22T14:07:22.000Z</time>
      </trkpt>
      <trkpt lat="42.97193" lon="-1.23595">
        <ele>736.263266</ele>
        <time>2026-05-22T14:07:23.000Z</time>
      </trkpt>
      <trkpt lat="42.97189" lon="-1.23594">
        <ele>736.371058</ele>
        <time>2026-05-22T14:07:24.000Z</time>
      </trkpt>
      <trkpt lat="42.97186" lon="-1.23593">
        <ele>736.481197</ele>
        <time>2026-05-22T14:07:25.000Z</time>
      </trkpt>
      <trkpt lat="42.97183" lon="-1.23591">
        <ele>736.590194</ele>
        <time>2026-05-22T14:07:26.000Z</time>
      </trkpt>
      <trkpt lat="42.97179" lon="-1.2359">
        <ele>736.692044</ele>
        <time>2026-05-22T14:07:27.000Z</time>
      </trkpt>
      <trkpt lat="42.97176" lon="-1.23589">
        <ele>736.792555</ele>
        <time>2026-05-22T14:07:28.000Z</time>
      </trkpt>
      <trkpt lat="42.97173" lon="-1.23588">
        <ele>736.890069</ele>
        <time>2026-05-22T14:07:29.000Z</time>
      </trkpt>
      <trkpt lat="42.9717" lon="-1.23587">
        <ele>736.991987</ele>
        <time>2026-05-22T14:07:30.000Z</time>
      </trkpt>
      <trkpt lat="42.97167" lon="-1.23585">
        <ele>737.096804</ele>
        <time>2026-05-22T14:07:31.000Z</time>
      </trkpt>
      <trkpt lat="42.97164" lon="-1.23584">
        <ele>737.200177</ele>
        <time>2026-05-22T14:07:32.000Z</time>
      </trkpt>
      <trkpt lat="42.97161" lon="-1.23583">
        <ele>737.292045</ele>
        <time>2026-05-22T14:07:33.000Z</time>
      </trkpt>
      <trkpt lat="42.97158" lon="-1.23582">
        <ele>737.388942</ele>
        <time>2026-05-22T14:07:34.000Z</time>
      </trkpt>
      <trkpt lat="42.97155" lon="-1.23581">
        <ele>737.494389</ele>
        <time>2026-05-22T14:07:35.000Z</time>
      </trkpt>
      <trkpt lat="42.97151" lon="-1.2358">
        <ele>737.595872</ele>
        <time>2026-05-22T14:07:36.000Z</time>
      </trkpt>
      <trkpt lat="42.97148" lon="-1.23579">
        <ele>737.692203</ele>
        <time>2026-05-22T14:07:37.000Z</time>
      </trkpt>
      <trkpt lat="42.97145" lon="-1.23578">
        <ele>737.792116</ele>
        <time>2026-05-22T14:07:38.000Z</time>
      </trkpt>
      <trkpt lat="42.97142" lon="-1.23577">
        <ele>737.89177</ele>
        <time>2026-05-22T14:07:39.000Z</time>
      </trkpt>
      <trkpt lat="42.97139" lon="-1.23575">
        <ele>737.989284</ele>
        <time>2026-05-22T14:07:40.000Z</time>
      </trkpt>
      <trkpt lat="42.97137" lon="-1.23574">
        <ele>738.07655</ele>
        <time>2026-05-22T14:07:41.000Z</time>
      </trkpt>
      <trkpt lat="42.97134" lon="-1.23573">
        <ele>738.171226</ele>
        <time>2026-05-22T14:07:42.000Z</time>
      </trkpt>
      <trkpt lat="42.97131" lon="-1.23571">
        <ele>738.265965</ele>
        <time>2026-05-22T14:07:43.000Z</time>
      </trkpt>
      <trkpt lat="42.97129" lon="-1.23569">
        <ele>738.350293</ele>
        <time>2026-05-22T14:07:44.000Z</time>
      </trkpt>
      <trkpt lat="42.97126" lon="-1.23567">
        <ele>738.437983</ele>
        <time>2026-05-22T14:07:45.000Z</time>
      </trkpt>
      <trkpt lat="42.97124" lon="-1.23566">
        <ele>738.520311</ele>
        <time>2026-05-22T14:07:46.000Z</time>
      </trkpt>
      <trkpt lat="42.97121" lon="-1.23564">
        <ele>738.604593</ele>
        <time>2026-05-22T14:07:47.000Z</time>
      </trkpt>
      <trkpt lat="42.97119" lon="-1.23563">
        <ele>738.693546</ele>
        <time>2026-05-22T14:07:48.000Z</time>
      </trkpt>
      <trkpt lat="42.97116" lon="-1.23561">
        <ele>738.782849</ele>
        <time>2026-05-22T14:07:49.000Z</time>
      </trkpt>
      <trkpt lat="42.97114" lon="-1.2356">
        <ele>738.868458</ele>
        <time>2026-05-22T14:07:50.000Z</time>
      </trkpt>
      <trkpt lat="42.97111" lon="-1.23559">
        <ele>738.947426</ele>
        <time>2026-05-22T14:07:51.000Z</time>
      </trkpt>
      <trkpt lat="42.97109" lon="-1.23558">
        <ele>739.018433</ele>
        <time>2026-05-22T14:07:52.000Z</time>
      </trkpt>
      <trkpt lat="42.97107" lon="-1.23556">
        <ele>739.099838</ele>
        <time>2026-05-22T14:07:53.000Z</time>
      </trkpt>
      <trkpt lat="42.97104" lon="-1.23555">
        <ele>739.185012</ele>
        <time>2026-05-22T14:07:54.000Z</time>
      </trkpt>
      <trkpt lat="42.97102" lon="-1.23553">
        <ele>739.26734</ele>
        <time>2026-05-22T14:07:55.000Z</time>
      </trkpt>
      <trkpt lat="42.97099" lon="-1.23552">
        <ele>739.348744</ele>
        <time>2026-05-22T14:07:56.000Z</time>
      </trkpt>
      <trkpt lat="42.97097" lon="-1.2355">
        <ele>739.436435</ele>
        <time>2026-05-22T14:07:57.000Z</time>
      </trkpt>
      <trkpt lat="42.97094" lon="-1.23549">
        <ele>739.520718</ele>
        <time>2026-05-22T14:07:58.000Z</time>
      </trkpt>
      <trkpt lat="42.97092" lon="-1.23547">
        <ele>739.603399</ele>
        <time>2026-05-22T14:07:59.000Z</time>
      </trkpt>
      <trkpt lat="42.9709" lon="-1.23545">
        <ele>739.681965</ele>
        <time>2026-05-22T14:08:00.000Z</time>
      </trkpt>
      <trkpt lat="42.97088" lon="-1.23543">
        <ele>739.761814</ele>
        <time>2026-05-22T14:08:01.000Z</time>
      </trkpt>
      <trkpt lat="42.97086" lon="-1.23541">
        <ele>739.840655</ele>
        <time>2026-05-22T14:08:02.000Z</time>
      </trkpt>
      <trkpt lat="42.97083" lon="-1.2354">
        <ele>739.923315</ele>
        <time>2026-05-22T14:08:03.000Z</time>
      </trkpt>
      <trkpt lat="42.97081" lon="-1.23538">
        <ele>740.017031</ele>
        <time>2026-05-22T14:08:04.000Z</time>
      </trkpt>
      <trkpt lat="42.97078" lon="-1.23536">
        <ele>740.106268</ele>
        <time>2026-05-22T14:08:05.000Z</time>
      </trkpt>
      <trkpt lat="42.97075" lon="-1.23535">
        <ele>740.192635</ele>
        <time>2026-05-22T14:08:06.000Z</time>
      </trkpt>
      <trkpt lat="42.97073" lon="-1.23533">
        <ele>740.28635</ele>
        <time>2026-05-22T14:08:07.000Z</time>
      </trkpt>
      <trkpt lat="42.9707" lon="-1.23532">
        <ele>740.376264</ele>
        <time>2026-05-22T14:08:08.000Z</time>
      </trkpt>
      <trkpt lat="42.97068" lon="-1.2353">
        <ele>740.466178</ele>
        <time>2026-05-22T14:08:09.000Z</time>
      </trkpt>
      <trkpt lat="42.97065" lon="-1.23527">
        <ele>740.569215</ele>
        <time>2026-05-22T14:08:10.000Z</time>
      </trkpt>
      <trkpt lat="42.97062" lon="-1.23526">
        <ele>740.664425</ele>
        <time>2026-05-22T14:08:11.000Z</time>
      </trkpt>
      <trkpt lat="42.97059" lon="-1.23525">
        <ele>740.765908</ele>
        <time>2026-05-22T14:08:12.000Z</time>
      </trkpt>
      <trkpt lat="42.97055" lon="-1.23524">
        <ele>740.879674</ele>
        <time>2026-05-22T14:08:13.000Z</time>
      </trkpt>
      <trkpt lat="42.97051" lon="-1.23523">
        <ele>741.001342</ele>
        <time>2026-05-22T14:08:14.000Z</time>
      </trkpt>
      <trkpt lat="42.97047" lon="-1.23521">
        <ele>741.129605</ele>
        <time>2026-05-22T14:08:15.000Z</time>
      </trkpt>
      <trkpt lat="42.97043" lon="-1.2352">
        <ele>741.265311</ele>
        <time>2026-05-22T14:08:16.000Z</time>
      </trkpt>
      <trkpt lat="42.97039" lon="-1.2352">
        <ele>741.403499</ele>
        <time>2026-05-22T14:08:17.000Z</time>
      </trkpt>
      <trkpt lat="42.97034" lon="-1.2352">
        <ele>741.54078</ele>
        <time>2026-05-22T14:08:18.000Z</time>
      </trkpt>
      <trkpt lat="42.9703" lon="-1.23521">
        <ele>741.685744</ele>
        <time>2026-05-22T14:08:19.000Z</time>
      </trkpt>
      <trkpt lat="42.97025" lon="-1.23523">
        <ele>741.792797</ele>
        <time>2026-05-22T14:08:20.000Z</time>
      </trkpt>
      <trkpt lat="42.97021" lon="-1.23526">
        <ele>741.785677</ele>
        <time>2026-05-22T14:08:21.000Z</time>
      </trkpt>
      <trkpt lat="42.97016" lon="-1.2353">
        <ele>741.778361</ele>
        <time>2026-05-22T14:08:22.000Z</time>
      </trkpt>
      <trkpt lat="42.97014" lon="-1.23536">
        <ele>741.771147</ele>
        <time>2026-05-22T14:08:23.000Z</time>
      </trkpt>
      <trkpt lat="42.97011" lon="-1.23542">
        <ele>741.764174</ele>
        <time>2026-05-22T14:08:24.000Z</time>
      </trkpt>
      <trkpt lat="42.97008" lon="-1.23548">
        <ele>741.757261</ele>
        <time>2026-05-22T14:08:25.000Z</time>
      </trkpt>
      <trkpt lat="42.97006" lon="-1.23554">
        <ele>741.750305</ele>
        <time>2026-05-22T14:08:26.000Z</time>
      </trkpt>
      <trkpt lat="42.97004" lon="-1.2356">
        <ele>741.743212</ele>
        <time>2026-05-22T14:08:27.000Z</time>
      </trkpt>
      <trkpt lat="42.97002" lon="-1.23566">
        <ele>741.736214</ele>
        <time>2026-05-22T14:08:28.000Z</time>
      </trkpt>
      <trkpt lat="42.97" lon="-1.23573">
        <ele>741.729173</ele>
        <time>2026-05-22T14:08:29.000Z</time>
      </trkpt>
      <trkpt lat="42.96999" lon="-1.23579">
        <ele>741.722036</ele>
        <time>2026-05-22T14:08:30.000Z</time>
      </trkpt>
      <trkpt lat="42.96997" lon="-1.23585">
        <ele>741.715227</ele>
        <time>2026-05-22T14:08:31.000Z</time>
      </trkpt>
      <trkpt lat="42.96995" lon="-1.23591">
        <ele>741.708456</ele>
        <time>2026-05-22T14:08:32.000Z</time>
      </trkpt>
      <trkpt lat="42.96993" lon="-1.23598">
        <ele>741.701511</ele>
        <time>2026-05-22T14:08:33.000Z</time>
      </trkpt>
      <trkpt lat="42.96991" lon="-1.23604">
        <ele>741.694999</ele>
        <time>2026-05-22T14:08:34.000Z</time>
      </trkpt>
      <trkpt lat="42.9699" lon="-1.23609">
        <ele>741.688537</ele>
        <time>2026-05-22T14:08:35.000Z</time>
      </trkpt>
      <trkpt lat="42.96988" lon="-1.23616">
        <ele>741.681786</ele>
        <time>2026-05-22T14:08:36.000Z</time>
      </trkpt>
      <trkpt lat="42.96987" lon="-1.23622">
        <ele>741.675034</ele>
        <time>2026-05-22T14:08:37.000Z</time>
      </trkpt>
      <trkpt lat="42.96985" lon="-1.23628">
        <ele>741.668371</ele>
        <time>2026-05-22T14:08:38.000Z</time>
      </trkpt>
      <trkpt lat="42.96984" lon="-1.23634">
        <ele>741.662001</ele>
        <time>2026-05-22T14:08:39.000Z</time>
      </trkpt>
      <trkpt lat="42.96982" lon="-1.2364">
        <ele>741.655202</ele>
        <time>2026-05-22T14:08:40.000Z</time>
      </trkpt>
      <trkpt lat="42.96981" lon="-1.23646">
        <ele>741.648547</ele>
        <time>2026-05-22T14:08:41.000Z</time>
      </trkpt>
      <trkpt lat="42.96979" lon="-1.23653">
        <ele>741.641651</ele>
        <time>2026-05-22T14:08:42.000Z</time>
      </trkpt>
      <trkpt lat="42.96977" lon="-1.23659">
        <ele>741.634748</ele>
        <time>2026-05-22T14:08:43.000Z</time>
      </trkpt>
      <trkpt lat="42.96975" lon="-1.23665">
        <ele>741.627792</ele>
        <time>2026-05-22T14:08:44.000Z</time>
      </trkpt>
      <trkpt lat="42.96972" lon="-1.2367">
        <ele>741.620747</ele>
        <time>2026-05-22T14:08:45.000Z</time>
      </trkpt>
      <trkpt lat="42.96968" lon="-1.23676">
        <ele>741.613126</ele>
        <time>2026-05-22T14:08:46.000Z</time>
      </trkpt>
      <trkpt lat="42.96964" lon="-1.23681">
        <ele>741.605871</ele>
        <time>2026-05-22T14:08:47.000Z</time>
      </trkpt>
      <trkpt lat="42.9696" lon="-1.23686">
        <ele>741.59836</ele>
        <time>2026-05-22T14:08:48.000Z</time>
      </trkpt>
      <trkpt lat="42.96956" lon="-1.2369">
        <ele>741.590942</ele>
        <time>2026-05-22T14:08:49.000Z</time>
      </trkpt>
      <trkpt lat="42.96951" lon="-1.23694">
        <ele>741.583234</ele>
        <time>2026-05-22T14:08:50.000Z</time>
      </trkpt>
      <trkpt lat="42.96947" lon="-1.23697">
        <ele>741.575739</ele>
        <time>2026-05-22T14:08:51.000Z</time>
      </trkpt>
      <trkpt lat="42.96941" lon="-1.237">
        <ele>741.567735</ele>
        <time>2026-05-22T14:08:52.000Z</time>
      </trkpt>
      <trkpt lat="42.96936" lon="-1.23704">
        <ele>741.559815</ele>
        <time>2026-05-22T14:08:53.000Z</time>
      </trkpt>
      <trkpt lat="42.96931" lon="-1.23706">
        <ele>741.55141</ele>
        <time>2026-05-22T14:08:54.000Z</time>
      </trkpt>
      <trkpt lat="42.96925" lon="-1.23709">
        <ele>741.543435</ele>
        <time>2026-05-22T14:08:55.000Z</time>
      </trkpt>
      <trkpt lat="42.9692" lon="-1.23711">
        <ele>741.582055</ele>
        <time>2026-05-22T14:08:56.000Z</time>
      </trkpt>
      <trkpt lat="42.96915" lon="-1.23713">
        <ele>741.626014</ele>
        <time>2026-05-22T14:08:57.000Z</time>
      </trkpt>
      <trkpt lat="42.9691" lon="-1.23716">
        <ele>741.668904</ele>
        <time>2026-05-22T14:08:58.000Z</time>
      </trkpt>
      <trkpt lat="42.96905" lon="-1.23718">
        <ele>741.711608</ele>
        <time>2026-05-22T14:08:59.000Z</time>
      </trkpt>
      <trkpt lat="42.969" lon="-1.2372">
        <ele>741.754312</ele>
        <time>2026-05-22T14:09:00.000Z</time>
      </trkpt>
      <trkpt lat="42.96896" lon="-1.23722">
        <ele>741.796611</ele>
        <time>2026-05-22T14:09:01.000Z</time>
      </trkpt>
      <trkpt lat="42.96891" lon="-1.23724">
        <ele>741.838712</ele>
        <time>2026-05-22T14:09:02.000Z</time>
      </trkpt>
      <trkpt lat="42.96886" lon="-1.23726">
        <ele>741.878854</ele>
        <time>2026-05-22T14:09:03.000Z</time>
      </trkpt>
      <trkpt lat="42.96881" lon="-1.23728">
        <ele>741.921744</ele>
        <time>2026-05-22T14:09:04.000Z</time>
      </trkpt>
      <trkpt lat="42.96876" lon="-1.23731">
        <ele>741.964248</ele>
        <time>2026-05-22T14:09:05.000Z</time>
      </trkpt>
      <trkpt lat="42.96872" lon="-1.23733">
        <ele>742.006752</ele>
        <time>2026-05-22T14:09:06.000Z</time>
      </trkpt>
      <trkpt lat="42.96867" lon="-1.23736">
        <ele>742.048266</ele>
        <time>2026-05-22T14:09:07.000Z</time>
      </trkpt>
      <trkpt lat="42.96862" lon="-1.23738">
        <ele>742.090207</ele>
        <time>2026-05-22T14:09:08.000Z</time>
      </trkpt>
      <trkpt lat="42.96858" lon="-1.2374">
        <ele>742.131153</ele>
        <time>2026-05-22T14:09:09.000Z</time>
      </trkpt>
      <trkpt lat="42.96853" lon="-1.23743">
        <ele>742.17355</ele>
        <time>2026-05-22T14:09:10.000Z</time>
      </trkpt>
      <trkpt lat="42.96848" lon="-1.23746">
        <ele>742.215935</ele>
        <time>2026-05-22T14:09:11.000Z</time>
      </trkpt>
      <trkpt lat="42.96844" lon="-1.2375">
        <ele>742.257969</ele>
        <time>2026-05-22T14:09:12.000Z</time>
      </trkpt>
      <trkpt lat="42.9684" lon="-1.23753">
        <ele>742.300615</ele>
        <time>2026-05-22T14:09:13.000Z</time>
      </trkpt>
      <trkpt lat="42.96835" lon="-1.23757">
        <ele>742.342841</ele>
        <time>2026-05-22T14:09:14.000Z</time>
      </trkpt>
      <trkpt lat="42.96831" lon="-1.23761">
        <ele>742.384732</ele>
        <time>2026-05-22T14:09:15.000Z</time>
      </trkpt>
      <trkpt lat="42.96827" lon="-1.23765">
        <ele>742.425374</ele>
        <time>2026-05-22T14:09:16.000Z</time>
      </trkpt>
      <trkpt lat="42.96824" lon="-1.2377">
        <ele>742.46616</ele>
        <time>2026-05-22T14:09:17.000Z</time>
      </trkpt>
      <trkpt lat="42.9682" lon="-1.23774">
        <ele>742.506947</ele>
        <time>2026-05-22T14:09:18.000Z</time>
      </trkpt>
      <trkpt lat="42.96816" lon="-1.23778">
        <ele>742.54711</ele>
        <time>2026-05-22T14:09:19.000Z</time>
      </trkpt>
      <trkpt lat="42.96813" lon="-1.23783">
        <ele>742.587071</ele>
        <time>2026-05-22T14:09:20.000Z</time>
      </trkpt>
      <trkpt lat="42.9681" lon="-1.23788">
        <ele>742.626136</ele>
        <time>2026-05-22T14:09:21.000Z</time>
      </trkpt>
      <trkpt lat="42.96806" lon="-1.23793">
        <ele>742.667109</ele>
        <time>2026-05-22T14:09:22.000Z</time>
      </trkpt>
      <trkpt lat="42.96803" lon="-1.23797">
        <ele>742.706621</ele>
        <time>2026-05-22T14:09:23.000Z</time>
      </trkpt>
      <trkpt lat="42.968" lon="-1.23802">
        <ele>742.747712</ele>
        <time>2026-05-22T14:09:24.000Z</time>
      </trkpt>
      <trkpt lat="42.96796" lon="-1.23807">
        <ele>742.788802</ele>
        <time>2026-05-22T14:09:25.000Z</time>
      </trkpt>
      <trkpt lat="42.96793" lon="-1.23812">
        <ele>742.828767</ele>
        <time>2026-05-22T14:09:26.000Z</time>
      </trkpt>
      <trkpt lat="42.9679" lon="-1.23817">
        <ele>742.869647</ele>
        <time>2026-05-22T14:09:27.000Z</time>
      </trkpt>
      <trkpt lat="42.96787" lon="-1.23822">
        <ele>742.910528</ele>
        <time>2026-05-22T14:09:28.000Z</time>
      </trkpt>
      <trkpt lat="42.96784" lon="-1.23827">
        <ele>742.951408</ele>
        <time>2026-05-22T14:09:29.000Z</time>
      </trkpt>
      <trkpt lat="42.9678" lon="-1.23832">
        <ele>742.991931</ele>
        <time>2026-05-22T14:09:30.000Z</time>
      </trkpt>
      <trkpt lat="42.96777" lon="-1.23837">
        <ele>743.030996</ele>
        <time>2026-05-22T14:09:31.000Z</time>
      </trkpt>
      <trkpt lat="42.96774" lon="-1.23842">
        <ele>742.948924</ele>
        <time>2026-05-22T14:09:32.000Z</time>
      </trkpt>
      <trkpt lat="42.96771" lon="-1.23847">
        <ele>742.83425</ele>
        <time>2026-05-22T14:09:33.000Z</time>
      </trkpt>
      <trkpt lat="42.96767" lon="-1.23853">
        <ele>742.720657</ele>
        <time>2026-05-22T14:09:34.000Z</time>
      </trkpt>
      <trkpt lat="42.96764" lon="-1.23858">
        <ele>742.605268</ele>
        <time>2026-05-22T14:09:35.000Z</time>
      </trkpt>
      <trkpt lat="42.9676" lon="-1.23863">
        <ele>742.485788</ele>
        <time>2026-05-22T14:09:36.000Z</time>
      </trkpt>
      <trkpt lat="42.96756" lon="-1.23867">
        <ele>742.366816</ele>
        <time>2026-05-22T14:09:37.000Z</time>
      </trkpt>
      <trkpt lat="42.96752" lon="-1.23872">
        <ele>742.252038</ele>
        <time>2026-05-22T14:09:38.000Z</time>
      </trkpt>
      <trkpt lat="42.96748" lon="-1.23875">
        <ele>742.135646</ele>
        <time>2026-05-22T14:09:39.000Z</time>
      </trkpt>
      <trkpt lat="42.96744" lon="-1.23879">
        <ele>742.028526</ele>
        <time>2026-05-22T14:09:40.000Z</time>
      </trkpt>
      <trkpt lat="42.96739" lon="-1.23882">
        <ele>741.918102</ele>
        <time>2026-05-22T14:09:41.000Z</time>
      </trkpt>
      <trkpt lat="42.96736" lon="-1.23886">
        <ele>741.812872</ele>
        <time>2026-05-22T14:09:42.000Z</time>
      </trkpt>
      <trkpt lat="42.96732" lon="-1.23889">
        <ele>741.704712</ele>
        <time>2026-05-22T14:09:43.000Z</time>
      </trkpt>
      <trkpt lat="42.96727" lon="-1.23893">
        <ele>741.597399</ele>
        <time>2026-05-22T14:09:44.000Z</time>
      </trkpt>
      <trkpt lat="42.96723" lon="-1.23896">
        <ele>741.490086</ele>
        <time>2026-05-22T14:09:45.000Z</time>
      </trkpt>
      <trkpt lat="42.96719" lon="-1.23899">
        <ele>741.380441</ele>
        <time>2026-05-22T14:09:46.000Z</time>
      </trkpt>
      <trkpt lat="42.96715" lon="-1.23903">
        <ele>741.268628</ele>
        <time>2026-05-22T14:09:47.000Z</time>
      </trkpt>
      <trkpt lat="42.96711" lon="-1.23906">
        <ele>741.160604</ele>
        <time>2026-05-22T14:09:48.000Z</time>
      </trkpt>
      <trkpt lat="42.96707" lon="-1.2391">
        <ele>741.054119</ele>
        <time>2026-05-22T14:09:49.000Z</time>
      </trkpt>
      <trkpt lat="42.96703" lon="-1.23913">
        <ele>740.946463</ele>
        <time>2026-05-22T14:09:50.000Z</time>
      </trkpt>
      <trkpt lat="42.96698" lon="-1.23915">
        <ele>740.84107</ele>
        <time>2026-05-22T14:09:51.000Z</time>
      </trkpt>
      <trkpt lat="42.96694" lon="-1.23918">
        <ele>740.731606</ele>
        <time>2026-05-22T14:09:52.000Z</time>
      </trkpt>
      <trkpt lat="42.9669" lon="-1.23921">
        <ele>740.624881</ele>
        <time>2026-05-22T14:09:53.000Z</time>
      </trkpt>
      <trkpt lat="42.96685" lon="-1.23924">
        <ele>740.509247</ele>
        <time>2026-05-22T14:09:54.000Z</time>
      </trkpt>
      <trkpt lat="42.9668" lon="-1.23927">
        <ele>740.381949</ele>
        <time>2026-05-22T14:09:55.000Z</time>
      </trkpt>
      <trkpt lat="42.96675" lon="-1.2393">
        <ele>740.250596</ele>
        <time>2026-05-22T14:09:56.000Z</time>
      </trkpt>
      <trkpt lat="42.96669" lon="-1.23934">
        <ele>740.110312</ele>
        <time>2026-05-22T14:09:57.000Z</time>
      </trkpt>
      <trkpt lat="42.96663" lon="-1.23938">
        <ele>739.957928</ele>
        <time>2026-05-22T14:09:58.000Z</time>
      </trkpt>
      <trkpt lat="42.96657" lon="-1.23944">
        <ele>739.796809</ele>
        <time>2026-05-22T14:09:59.000Z</time>
      </trkpt>
      <trkpt lat="42.96652" lon="-1.23951">
        <ele>739.626756</ele>
        <time>2026-05-22T14:10:00.000Z</time>
      </trkpt>
      <trkpt lat="42.96648" lon="-1.23959">
        <ele>739.462115</ele>
        <time>2026-05-22T14:10:01.000Z</time>
      </trkpt>
      <trkpt lat="42.96647" lon="-1.2397">
        <ele>739.292817</ele>
        <time>2026-05-22T14:10:02.000Z</time>
      </trkpt>
      <trkpt lat="42.96648" lon="-1.23979">
        <ele>739.12952</ele>
        <time>2026-05-22T14:10:03.000Z</time>
      </trkpt>
      <trkpt lat="42.96651" lon="-1.23989">
        <ele>738.963436</ele>
        <time>2026-05-22T14:10:04.000Z</time>
      </trkpt>
      <trkpt lat="42.96656" lon="-1.23997">
        <ele>738.827817</ele>
        <time>2026-05-22T14:10:05.000Z</time>
      </trkpt>
      <trkpt lat="42.96663" lon="-1.24003">
        <ele>738.691655</ele>
        <time>2026-05-22T14:10:06.000Z</time>
      </trkpt>
      <trkpt lat="42.96671" lon="-1.24006">
        <ele>738.549134</ele>
        <time>2026-05-22T14:10:07.000Z</time>
      </trkpt>
      <trkpt lat="42.96679" lon="-1.24009">
        <ele>738.399658</ele>
        <time>2026-05-22T14:10:08.000Z</time>
      </trkpt>
      <trkpt lat="42.96687" lon="-1.24012">
        <ele>738.251855</ele>
        <time>2026-05-22T14:10:09.000Z</time>
      </trkpt>
      <trkpt lat="42.96696" lon="-1.24015">
        <ele>738.099329</ele>
        <time>2026-05-22T14:10:10.000Z</time>
      </trkpt>
      <trkpt lat="42.96704" lon="-1.24018">
        <ele>737.949854</ele>
        <time>2026-05-22T14:10:11.000Z</time>
      </trkpt>
      <trkpt lat="42.96713" lon="-1.24021">
        <ele>737.800065</ele>
        <time>2026-05-22T14:10:12.000Z</time>
      </trkpt>
      <trkpt lat="42.96721" lon="-1.24025">
        <ele>737.655883</ele>
        <time>2026-05-22T14:10:13.000Z</time>
      </trkpt>
      <trkpt lat="42.96727" lon="-1.24031">
        <ele>737.526221</ele>
        <time>2026-05-22T14:10:14.000Z</time>
      </trkpt>
      <trkpt lat="42.96731" lon="-1.24038">
        <ele>737.405846</ele>
        <time>2026-05-22T14:10:15.000Z</time>
      </trkpt>
      <trkpt lat="42.96734" lon="-1.24046">
        <ele>737.291365</ele>
        <time>2026-05-22T14:10:16.000Z</time>
      </trkpt>
      <trkpt lat="42.96735" lon="-1.24054">
        <ele>737.190681</ele>
        <time>2026-05-22T14:10:17.000Z</time>
      </trkpt>
      <trkpt lat="42.96735" lon="-1.24061">
        <ele>737.107359</ele>
        <time>2026-05-22T14:10:18.000Z</time>
      </trkpt>
      <trkpt lat="42.96734" lon="-1.24066">
        <ele>737.0409</ele>
        <time>2026-05-22T14:10:19.000Z</time>
      </trkpt>
      <trkpt lat="42.96733" lon="-1.2407">
        <ele>736.993056</ele>
        <time>2026-05-22T14:10:20.000Z</time>
      </trkpt>
      <trkpt lat="42.96734" lon="-1.24073">
        <ele>736.953769</ele>
        <time>2026-05-22T14:10:21.000Z</time>
      </trkpt>
      <trkpt lat="42.96735" lon="-1.24076">
        <ele>736.915565</ele>
        <time>2026-05-22T14:10:22.000Z</time>
      </trkpt>
      <trkpt lat="42.96736" lon="-1.24078">
        <ele>736.878868</ele>
        <time>2026-05-22T14:10:23.000Z</time>
      </trkpt>
      <trkpt lat="42.96737" lon="-1.2408">
        <ele>736.846557</ele>
        <time>2026-05-22T14:10:24.000Z</time>
      </trkpt>
      <trkpt lat="42.96739" lon="-1.24081">
        <ele>736.816628</ele>
        <time>2026-05-22T14:10:25.000Z</time>
      </trkpt>
      <trkpt lat="42.9674" lon="-1.24082">
        <ele>736.785174</ele>
        <time>2026-05-22T14:10:26.000Z</time>
      </trkpt>
      <trkpt lat="42.96742" lon="-1.24083">
        <ele>736.75153</ele>
        <time>2026-05-22T14:10:27.000Z</time>
      </trkpt>
      <trkpt lat="42.96744" lon="-1.24083">
        <ele>736.71495</ele>
        <time>2026-05-22T14:10:28.000Z</time>
      </trkpt>
      <trkpt lat="42.96747" lon="-1.24083">
        <ele>736.673466</ele>
        <time>2026-05-22T14:10:29.000Z</time>
      </trkpt>
      <trkpt lat="42.96749" lon="-1.24084">
        <ele>736.629875</ele>
        <time>2026-05-22T14:10:30.000Z</time>
      </trkpt>
      <trkpt lat="42.96752" lon="-1.24084">
        <ele>736.588392</ele>
        <time>2026-05-22T14:10:31.000Z</time>
      </trkpt>
      <trkpt lat="42.96754" lon="-1.24084">
        <ele>736.548711</ele>
        <time>2026-05-22T14:10:32.000Z</time>
      </trkpt>
      <trkpt lat="42.96756" lon="-1.24084">
        <ele>736.507304</ele>
        <time>2026-05-22T14:10:33.000Z</time>
      </trkpt>
      <trkpt lat="42.96759" lon="-1.24084">
        <ele>736.465211</ele>
        <time>2026-05-22T14:10:34.000Z</time>
      </trkpt>
      <trkpt lat="42.96761" lon="-1.24085">
        <ele>736.425031</ele>
        <time>2026-05-22T14:10:35.000Z</time>
      </trkpt>
      <trkpt lat="42.96763" lon="-1.24085">
        <ele>736.38503</ele>
        <time>2026-05-22T14:10:36.000Z</time>
      </trkpt>
      <trkpt lat="42.96765" lon="-1.24085">
        <ele>736.349703</ele>
        <time>2026-05-22T14:10:37.000Z</time>
      </trkpt>
      <trkpt lat="42.96767" lon="-1.24084">
        <ele>736.313122</ele>
        <time>2026-05-22T14:10:38.000Z</time>
      </trkpt>
      <trkpt lat="42.9677" lon="-1.24083">
        <ele>736.275152</ele>
        <time>2026-05-22T14:10:39.000Z</time>
      </trkpt>
      <trkpt lat="42.96771" lon="-1.24082">
        <ele>736.241133</ele>
        <time>2026-05-22T14:10:40.000Z</time>
      </trkpt>
      <trkpt lat="42.96773" lon="-1.24081">
        <ele>736.209645</ele>
        <time>2026-05-22T14:10:41.000Z</time>
      </trkpt>
      <trkpt lat="42.96774" lon="-1.24079">
        <ele>736.175605</ele>
        <time>2026-05-22T14:10:42.000Z</time>
      </trkpt>
      <trkpt lat="42.96776" lon="-1.24077">
        <ele>736.141165</ele>
        <time>2026-05-22T14:10:43.000Z</time>
      </trkpt>
      <trkpt lat="42.96778" lon="-1.24076">
        <ele>736.109234</ele>
        <time>2026-05-22T14:10:44.000Z</time>
      </trkpt>
      <trkpt lat="42.96779" lon="-1.24075">
        <ele>736.076783</ele>
        <time>2026-05-22T14:10:45.000Z</time>
      </trkpt>
      <trkpt lat="42.96781" lon="-1.24075">
        <ele>736.043401</ele>
        <time>2026-05-22T14:10:46.000Z</time>
      </trkpt>
      <trkpt lat="42.96783" lon="-1.24074">
        <ele>736.013109</ele>
        <time>2026-05-22T14:10:47.000Z</time>
      </trkpt>
      <trkpt lat="42.96784" lon="-1.24074">
        <ele>735.985505</ele>
        <time>2026-05-22T14:10:48.000Z</time>
      </trkpt>
      <trkpt lat="42.96786" lon="-1.24075">
        <ele>735.956135</ele>
        <time>2026-05-22T14:10:49.000Z</time>
      </trkpt>
      <trkpt lat="42.96787" lon="-1.24077">
        <ele>735.930481</ele>
        <time>2026-05-22T14:10:50.000Z</time>
      </trkpt>
      <trkpt lat="42.96788" lon="-1.24078">
        <ele>735.908021</ele>
        <time>2026-05-22T14:10:51.000Z</time>
      </trkpt>
      <trkpt lat="42.96788" lon="-1.2408">
        <ele>735.883062</ele>
        <time>2026-05-22T14:10:52.000Z</time>
      </trkpt>
      <trkpt lat="42.96788" lon="-1.24082">
        <ele>735.925928</ele>
        <time>2026-05-22T14:10:53.000Z</time>
      </trkpt>
      <trkpt lat="42.96788" lon="-1.24083">
        <ele>735.974956</ele>
        <time>2026-05-22T14:10:54.000Z</time>
      </trkpt>
      <trkpt lat="42.96788" lon="-1.24086">
        <ele>736.047135</ele>
        <time>2026-05-22T14:10:55.000Z</time>
      </trkpt>
      <trkpt lat="42.96787" lon="-1.24088">
        <ele>736.1322</ele>
        <time>2026-05-22T14:10:56.000Z</time>
      </trkpt>
      <trkpt lat="42.96785" lon="-1.2409">
        <ele>736.226903</ele>
        <time>2026-05-22T14:10:57.000Z</time>
      </trkpt>
      <trkpt lat="42.96784" lon="-1.24092">
        <ele>736.317376</ele>
        <time>2026-05-22T14:10:58.000Z</time>
      </trkpt>
      <trkpt lat="42.96782" lon="-1.24095">
        <ele>736.412078</ele>
        <time>2026-05-22T14:10:59.000Z</time>
      </trkpt>
      <trkpt lat="42.96781" lon="-1.24097">
        <ele>736.50464</ele>
        <time>2026-05-22T14:11:00.000Z</time>
      </trkpt>
      <trkpt lat="42.96779" lon="-1.24099">
        <ele>736.60456</ele>
        <time>2026-05-22T14:11:01.000Z</time>
      </trkpt>
      <trkpt lat="42.96777" lon="-1.241">
        <ele>736.704879</ele>
        <time>2026-05-22T14:11:02.000Z</time>
      </trkpt>
      <trkpt lat="42.96774" lon="-1.24102">
        <ele>736.805198</ele>
        <time>2026-05-22T14:11:03.000Z</time>
      </trkpt>
      <trkpt lat="42.96772" lon="-1.24103">
        <ele>736.904033</ele>
        <time>2026-05-22T14:11:04.000Z</time>
      </trkpt>
      <trkpt lat="42.9677" lon="-1.24104">
        <ele>736.994996</ele>
        <time>2026-05-22T14:11:05.000Z</time>
      </trkpt>
      <trkpt lat="42.96768" lon="-1.24104">
        <ele>737.069077</ele>
        <time>2026-05-22T14:11:06.000Z</time>
      </trkpt>
      <trkpt lat="42.96767" lon="-1.24105">
        <ele>737.151184</ele>
        <time>2026-05-22T14:11:07.000Z</time>
      </trkpt>
      <trkpt lat="42.96764" lon="-1.24106">
        <ele>737.25021</ele>
        <time>2026-05-22T14:11:08.000Z</time>
      </trkpt>
      <trkpt lat="42.96762" lon="-1.24107">
        <ele>737.336308</ele>
        <time>2026-05-22T14:11:09.000Z</time>
      </trkpt>
      <trkpt lat="42.96761" lon="-1.24108">
        <ele>737.416281</ele>
        <time>2026-05-22T14:11:10.000Z</time>
      </trkpt>
      <trkpt lat="42.96759" lon="-1.24109">
        <ele>737.491012</ele>
        <time>2026-05-22T14:11:11.000Z</time>
      </trkpt>
      <trkpt lat="42.96757" lon="-1.24109">
        <ele>737.583615</ele>
        <time>2026-05-22T14:11:12.000Z</time>
      </trkpt>
      <trkpt lat="42.96755" lon="-1.24111">
        <ele>737.668047</ele>
        <time>2026-05-22T14:11:13.000Z</time>
      </trkpt>
      <trkpt lat="42.96753" lon="-1.24112">
        <ele>737.771897</ele>
        <time>2026-05-22T14:11:14.000Z</time>
      </trkpt>
      <trkpt lat="42.96751" lon="-1.24114">
        <ele>737.874481</ele>
        <time>2026-05-22T14:11:15.000Z</time>
      </trkpt>
      <trkpt lat="42.96749" lon="-1.24115">
        <ele>737.971178</ele>
        <time>2026-05-22T14:11:16.000Z</time>
      </trkpt>
      <trkpt lat="42.96747" lon="-1.24116">
        <ele>738.053449</ele>
        <time>2026-05-22T14:11:17.000Z</time>
      </trkpt>
      <trkpt lat="42.96745" lon="-1.24118">
        <ele>738.14318</ele>
        <time>2026-05-22T14:11:18.000Z</time>
      </trkpt>
      <trkpt lat="42.96743" lon="-1.24119">
        <ele>738.235968</ele>
        <time>2026-05-22T14:11:19.000Z</time>
      </trkpt>
      <trkpt lat="42.96741" lon="-1.24121">
        <ele>738.320915</ele>
        <time>2026-05-22T14:11:20.000Z</time>
      </trkpt>
      <trkpt lat="42.96739" lon="-1.24122">
        <ele>738.429796</ele>
        <time>2026-05-22T14:11:21.000Z</time>
      </trkpt>
      <trkpt lat="42.96737" lon="-1.24124">
        <ele>738.526492</ele>
        <time>2026-05-22T14:11:22.000Z</time>
      </trkpt>
      <trkpt lat="42.96735" lon="-1.24125">
        <ele>738.619556</ele>
        <time>2026-05-22T14:11:23.000Z</time>
      </trkpt>
      <trkpt lat="42.96733" lon="-1.24127">
        <ele>738.706026</ele>
        <time>2026-05-22T14:11:24.000Z</time>
      </trkpt>
      <trkpt lat="42.96731" lon="-1.24129">
        <ele>738.807657</ele>
        <time>2026-05-22T14:11:25.000Z</time>
      </trkpt>
      <trkpt lat="42.9673" lon="-1.24131">
        <ele>738.895098</ele>
        <time>2026-05-22T14:11:26.000Z</time>
      </trkpt>
      <trkpt lat="42.96728" lon="-1.24132">
        <ele>738.980045</ele>
        <time>2026-05-22T14:11:27.000Z</time>
      </trkpt>
      <trkpt lat="42.96727" lon="-1.24134">
        <ele>739.03927</ele>
        <time>2026-05-22T14:11:28.000Z</time>
      </trkpt>
      <trkpt lat="42.96726" lon="-1.24135">
        <ele>739.098436</ele>
        <time>2026-05-22T14:11:29.000Z</time>
      </trkpt>
      <trkpt lat="42.96726" lon="-1.24137">
        <ele>739.155352</ele>
        <time>2026-05-22T14:11:30.000Z</time>
      </trkpt>
      <trkpt lat="42.96725" lon="-1.24139">
        <ele>739.219416</ele>
        <time>2026-05-22T14:11:31.000Z</time>
      </trkpt>
      <trkpt lat="42.96724" lon="-1.2414">
        <ele>739.284253</ele>
        <time>2026-05-22T14:11:32.000Z</time>
      </trkpt>
      <trkpt lat="42.96723" lon="-1.24142">
        <ele>739.346972</ele>
        <time>2026-05-22T14:11:33.000Z</time>
      </trkpt>
      <trkpt lat="42.96722" lon="-1.24144">
        <ele>739.414661</ele>
        <time>2026-05-22T14:11:34.000Z</time>
      </trkpt>
      <trkpt lat="42.96721" lon="-1.24146">
        <ele>739.477964</ele>
        <time>2026-05-22T14:11:35.000Z</time>
      </trkpt>
      <trkpt lat="42.96721" lon="-1.24148">
        <ele>739.53731</ele>
        <time>2026-05-22T14:11:36.000Z</time>
      </trkpt>
      <trkpt lat="42.96721" lon="-1.24149">
        <ele>739.593249</ele>
        <time>2026-05-22T14:11:37.000Z</time>
      </trkpt>
      <trkpt lat="42.9672" lon="-1.24151">
        <ele>739.652415</ele>
        <time>2026-05-22T14:11:38.000Z</time>
      </trkpt>
      <trkpt lat="42.96719" lon="-1.24152">
        <ele>739.705534</ele>
        <time>2026-05-22T14:11:39.000Z</time>
      </trkpt>
      <trkpt lat="42.96719" lon="-1.24154">
        <ele>739.765925</ele>
        <time>2026-05-22T14:11:40.000Z</time>
      </trkpt>
      <trkpt lat="42.96718" lon="-1.24156">
        <ele>739.827635</ele>
        <time>2026-05-22T14:11:41.000Z</time>
      </trkpt>
      <trkpt lat="42.96718" lon="-1.24158">
        <ele>739.892293</ele>
        <time>2026-05-22T14:11:42.000Z</time>
      </trkpt>
      <trkpt lat="42.96717" lon="-1.24159">
        <ele>739.939857</ele>
        <time>2026-05-22T14:11:43.000Z</time>
      </trkpt>
      <trkpt lat="42.96716" lon="-1.24161">
        <ele>740.004157</ele>
        <time>2026-05-22T14:11:44.000Z</time>
      </trkpt>
      <trkpt lat="42.96715" lon="-1.24163">
        <ele>740.071186</ele>
        <time>2026-05-22T14:11:45.000Z</time>
      </trkpt>
      <trkpt lat="42.96715" lon="-1.24164">
        <ele>740.120722</ele>
        <time>2026-05-22T14:11:46.000Z</time>
      </trkpt>
      <trkpt lat="42.96714" lon="-1.24165">
        <ele>740.162611</ele>
        <time>2026-05-22T14:11:47.000Z</time>
      </trkpt>
      <trkpt lat="42.96713" lon="-1.24167">
        <ele>740.222344</ele>
        <time>2026-05-22T14:11:48.000Z</time>
      </trkpt>
      <trkpt lat="42.96712" lon="-1.24168">
        <ele>740.282634</ele>
        <time>2026-05-22T14:11:49.000Z</time>
      </trkpt>
      <trkpt lat="42.96711" lon="-1.24169">
        <ele>740.346527</ele>
        <time>2026-05-22T14:11:50.000Z</time>
      </trkpt>
      <trkpt lat="42.9671" lon="-1.2417">
        <ele>740.4034</ele>
        <time>2026-05-22T14:11:51.000Z</time>
      </trkpt>
      <trkpt lat="42.96708" lon="-1.24171">
        <ele>740.45911</ele>
        <time>2026-05-22T14:11:52.000Z</time>
      </trkpt>
      <trkpt lat="42.96707" lon="-1.24172">
        <ele>740.525022</ele>
        <time>2026-05-22T14:11:53.000Z</time>
      </trkpt>
      <trkpt lat="42.96706" lon="-1.24173">
        <ele>740.587223</ele>
        <time>2026-05-22T14:11:54.000Z</time>
      </trkpt>
      <trkpt lat="42.96704" lon="-1.24174">
        <ele>740.651778</ele>
        <time>2026-05-22T14:11:55.000Z</time>
      </trkpt>
      <trkpt lat="42.96703" lon="-1.24175">
        <ele>740.719159</ele>
        <time>2026-05-22T14:11:56.000Z</time>
      </trkpt>
      <trkpt lat="42.967" lon="-1.24176">
        <ele>740.827029</ele>
        <time>2026-05-22T14:11:57.000Z</time>
      </trkpt>
      <trkpt lat="42.96698" lon="-1.24176">
        <ele>740.913172</ele>
        <time>2026-05-22T14:11:58.000Z</time>
      </trkpt>
      <trkpt lat="42.96697" lon="-1.24177">
        <ele>740.981525</ele>
        <time>2026-05-22T14:11:59.000Z</time>
      </trkpt>
      <trkpt lat="42.96695" lon="-1.24178">
        <ele>741.073354</ele>
        <time>2026-05-22T14:12:00.000Z</time>
      </trkpt>
      <trkpt lat="42.96693" lon="-1.24179">
        <ele>741.163545</ele>
        <time>2026-05-22T14:12:01.000Z</time>
      </trkpt>
      <trkpt lat="42.96691" lon="-1.24179">
        <ele>741.246994</ele>
        <time>2026-05-22T14:12:02.000Z</time>
      </trkpt>
      <trkpt lat="42.96689" lon="-1.24179">
        <ele>741.327727</ele>
        <time>2026-05-22T14:12:03.000Z</time>
      </trkpt>
      <trkpt lat="42.96687" lon="-1.2418">
        <ele>741.4088</ele>
        <time>2026-05-22T14:12:04.000Z</time>
      </trkpt>
      <trkpt lat="42.96685" lon="-1.24181">
        <ele>741.48221</ele>
        <time>2026-05-22T14:12:05.000Z</time>
      </trkpt>
      <trkpt lat="42.96684" lon="-1.24182">
        <ele>741.560691</ele>
        <time>2026-05-22T14:12:06.000Z</time>
      </trkpt>
      <trkpt lat="42.96682" lon="-1.24183">
        <ele>741.642798</ele>
        <time>2026-05-22T14:12:07.000Z</time>
      </trkpt>
      <trkpt lat="42.9668" lon="-1.24185">
        <ele>741.72723</ele>
        <time>2026-05-22T14:12:08.000Z</time>
      </trkpt>
      <trkpt lat="42.96678" lon="-1.24186">
        <ele>741.809954</ele>
        <time>2026-05-22T14:12:09.000Z</time>
      </trkpt>
      <trkpt lat="42.96676" lon="-1.24187">
        <ele>741.897811</ele>
        <time>2026-05-22T14:12:10.000Z</time>
      </trkpt>
      <trkpt lat="42.96675" lon="-1.24188">
        <ele>741.983908</ele>
        <time>2026-05-22T14:12:11.000Z</time>
      </trkpt>
      <trkpt lat="42.96672" lon="-1.24189">
        <ele>742.094478</ele>
        <time>2026-05-22T14:12:12.000Z</time>
      </trkpt>
      <trkpt lat="42.96669" lon="-1.2419">
        <ele>742.213832</ele>
        <time>2026-05-22T14:12:13.000Z</time>
      </trkpt>
      <trkpt lat="42.96666" lon="-1.2419">
        <ele>742.327969</ele>
        <time>2026-05-22T14:12:14.000Z</time>
      </trkpt>
      <trkpt lat="42.96664" lon="-1.24191">
        <ele>742.441285</ele>
        <time>2026-05-22T14:12:15.000Z</time>
      </trkpt>
      <trkpt lat="42.96661" lon="-1.24191">
        <ele>742.553983</ele>
        <time>2026-05-22T14:12:16.000Z</time>
      </trkpt>
      <trkpt lat="42.96659" lon="-1.24191">
        <ele>742.654864</ele>
        <time>2026-05-22T14:12:17.000Z</time>
      </trkpt>
      <trkpt lat="42.96657" lon="-1.24192">
        <ele>742.747652</ele>
        <time>2026-05-22T14:12:18.000Z</time>
      </trkpt>
      <trkpt lat="42.96654" lon="-1.24193">
        <ele>742.845144</ele>
        <time>2026-05-22T14:12:19.000Z</time>
      </trkpt>
      <trkpt lat="42.96653" lon="-1.24195">
        <ele>742.939901</ele>
        <time>2026-05-22T14:12:20.000Z</time>
      </trkpt>
      <trkpt lat="42.9665" lon="-1.24196">
        <ele>743.036642</ele>
        <time>2026-05-22T14:12:21.000Z</time>
      </trkpt>
      <trkpt lat="42.96648" lon="-1.24194">
        <ele>743.12905</ele>
        <time>2026-05-22T14:12:22.000Z</time>
      </trkpt>
      <trkpt lat="42.96647" lon="-1.24192">
        <ele>743.213033</ele>
        <time>2026-05-22T14:12:23.000Z</time>
      </trkpt>
      <trkpt lat="42.96646" lon="-1.2419">
        <ele>743.294387</ele>
        <time>2026-05-22T14:12:24.000Z</time>
      </trkpt>
      <trkpt lat="42.96645" lon="-1.24188">
        <ele>743.37574</ele>
        <time>2026-05-22T14:12:25.000Z</time>
      </trkpt>
      <trkpt lat="42.96644" lon="-1.24186">
        <ele>743.326608</ele>
        <time>2026-05-22T14:12:26.000Z</time>
      </trkpt>
      <trkpt lat="42.96643" lon="-1.24184">
        <ele>743.271896</ele>
        <time>2026-05-22T14:12:27.000Z</time>
      </trkpt>
      <trkpt lat="42.96642" lon="-1.24182">
        <ele>743.223602</ele>
        <time>2026-05-22T14:12:28.000Z</time>
      </trkpt>
      <trkpt lat="42.96642" lon="-1.24181">
        <ele>743.19279</ele>
        <time>2026-05-22T14:12:29.000Z</time>
      </trkpt>
      <trkpt lat="42.96641" lon="-1.2418">
        <ele>743.160308</ele>
        <time>2026-05-22T14:12:30.000Z</time>
      </trkpt>
      <trkpt lat="42.96641" lon="-1.24179">
        <ele>743.142418</ele>
        <time>2026-05-22T14:12:31.000Z</time>
      </trkpt>
      <trkpt lat="42.9664" lon="-1.24181">
        <ele>743.075906</ele>
        <time>2026-05-22T14:12:45.000Z</time>
      </trkpt>
      <trkpt lat="42.96638" lon="-1.24182">
        <ele>743.020687</ele>
        <time>2026-05-22T14:12:46.000Z</time>
      </trkpt>
      <trkpt lat="42.96636" lon="-1.24183">
        <ele>742.938676</ele>
        <time>2026-05-22T14:12:47.000Z</time>
      </trkpt>
      <trkpt lat="42.96634" lon="-1.24185">
        <ele>742.8481</ele>
        <time>2026-05-22T14:12:48.000Z</time>
      </trkpt>
      <trkpt lat="42.96631" lon="-1.24187">
        <ele>742.751236</ele>
        <time>2026-05-22T14:12:49.000Z</time>
      </trkpt>
      <trkpt lat="42.96628" lon="-1.24189">
        <ele>742.635693</ele>
        <time>2026-05-22T14:12:50.000Z</time>
      </trkpt>
      <trkpt lat="42.96626" lon="-1.2419">
        <ele>742.548089</ele>
        <time>2026-05-22T14:12:51.000Z</time>
      </trkpt>
      <trkpt lat="42.96623" lon="-1.2419">
        <ele>742.462245</ele>
        <time>2026-05-22T14:12:52.000Z</time>
      </trkpt>
      <trkpt lat="42.9662" lon="-1.2419">
        <ele>742.355714</ele>
        <time>2026-05-22T14:12:53.000Z</time>
      </trkpt>
      <trkpt lat="42.96617" lon="-1.24189">
        <ele>742.239277</ele>
        <time>2026-05-22T14:12:54.000Z</time>
      </trkpt>
      <trkpt lat="42.96613" lon="-1.24189">
        <ele>742.112419</ele>
        <time>2026-05-22T14:12:55.000Z</time>
      </trkpt>
      <trkpt lat="42.9661" lon="-1.24189">
        <ele>741.985364</ele>
        <time>2026-05-22T14:12:56.000Z</time>
      </trkpt>
      <trkpt lat="42.96606" lon="-1.24188">
        <ele>741.848225</ele>
        <time>2026-05-22T14:12:57.000Z</time>
      </trkpt>
      <trkpt lat="42.96602" lon="-1.24189">
        <ele>741.71794</ele>
        <time>2026-05-22T14:12:58.000Z</time>
      </trkpt>
      <trkpt lat="42.96598" lon="-1.24188">
        <ele>741.591009</ele>
        <time>2026-05-22T14:12:59.000Z</time>
      </trkpt>
      <trkpt lat="42.96595" lon="-1.24188">
        <ele>741.481058</ele>
        <time>2026-05-22T14:13:00.000Z</time>
      </trkpt>
      <trkpt lat="42.96592" lon="-1.24187">
        <ele>741.383904</ele>
        <time>2026-05-22T14:13:01.000Z</time>
      </trkpt>
      <trkpt lat="42.9659" lon="-1.24187">
        <ele>741.297621</ele>
        <time>2026-05-22T14:13:02.000Z</time>
      </trkpt>
      <trkpt lat="42.96587" lon="-1.24188">
        <ele>741.195681</ele>
        <time>2026-05-22T14:13:03.000Z</time>
      </trkpt>
      <trkpt lat="42.96585" lon="-1.24191">
        <ele>741.098366</ele>
        <time>2026-05-22T14:13:04.000Z</time>
      </trkpt>
      <trkpt lat="42.96585" lon="-1.24196">
        <ele>740.972759</ele>
        <time>2026-05-22T14:13:05.000Z</time>
      </trkpt>
      <trkpt lat="42.96586" lon="-1.24201">
        <ele>740.844194</ele>
        <time>2026-05-22T14:13:06.000Z</time>
      </trkpt>
      <trkpt lat="42.96588" lon="-1.24206">
        <ele>740.703912</ele>
        <time>2026-05-22T14:13:07.000Z</time>
      </trkpt>
      <trkpt lat="42.96591" lon="-1.24211">
        <ele>740.554074</ele>
        <time>2026-05-22T14:13:08.000Z</time>
      </trkpt>
      <trkpt lat="42.96594" lon="-1.24216">
        <ele>740.396142</ele>
        <time>2026-05-22T14:13:09.000Z</time>
      </trkpt>
      <trkpt lat="42.96597" lon="-1.24221">
        <ele>740.224929</ele>
        <time>2026-05-22T14:13:10.000Z</time>
      </trkpt>
      <trkpt lat="42.966" lon="-1.24226">
        <ele>740.050371</ele>
        <time>2026-05-22T14:13:11.000Z</time>
      </trkpt>
      <trkpt lat="42.96604" lon="-1.24231">
        <ele>739.871962</ele>
        <time>2026-05-22T14:13:12.000Z</time>
      </trkpt>
      <trkpt lat="42.96607" lon="-1.24237">
        <ele>739.694739</ele>
        <time>2026-05-22T14:13:13.000Z</time>
      </trkpt>
      <trkpt lat="42.9661" lon="-1.24242">
        <ele>739.510449</ele>
        <time>2026-05-22T14:13:14.000Z</time>
      </trkpt>
      <trkpt lat="42.96613" lon="-1.24249">
        <ele>739.324029</ele>
        <time>2026-05-22T14:13:15.000Z</time>
      </trkpt>
      <trkpt lat="42.96614" lon="-1.24256">
        <ele>739.136248</ele>
        <time>2026-05-22T14:13:16.000Z</time>
      </trkpt>
      <trkpt lat="42.96615" lon="-1.24264">
        <ele>738.944504</ele>
        <time>2026-05-22T14:13:17.000Z</time>
      </trkpt>
      <trkpt lat="42.96615" lon="-1.24271">
        <ele>738.753867</ele>
        <time>2026-05-22T14:13:18.000Z</time>
      </trkpt>
      <trkpt lat="42.96614" lon="-1.24279">
        <ele>738.552144</ele>
        <time>2026-05-22T14:13:19.000Z</time>
      </trkpt>
      <trkpt lat="42.96613" lon="-1.24287">
        <ele>738.344842</ele>
        <time>2026-05-22T14:13:20.000Z</time>
      </trkpt>
      <trkpt lat="42.96611" lon="-1.24295">
        <ele>738.134899</ele>
        <time>2026-05-22T14:13:21.000Z</time>
      </trkpt>
      <trkpt lat="42.96609" lon="-1.24303">
        <ele>737.921628</ele>
        <time>2026-05-22T14:13:22.000Z</time>
      </trkpt>
      <trkpt lat="42.96606" lon="-1.24311">
        <ele>737.704345</ele>
        <time>2026-05-22T14:13:23.000Z</time>
      </trkpt>
      <trkpt lat="42.96604" lon="-1.24319">
        <ele>737.477364</ele>
        <time>2026-05-22T14:13:24.000Z</time>
      </trkpt>
      <trkpt lat="42.96601" lon="-1.24328">
        <ele>737.244929</ele>
        <time>2026-05-22T14:13:25.000Z</time>
      </trkpt>
      <trkpt lat="42.96598" lon="-1.24337">
        <ele>737.015706</ele>
        <time>2026-05-22T14:13:26.000Z</time>
      </trkpt>
      <trkpt lat="42.96596" lon="-1.24345">
        <ele>736.785276</ele>
        <time>2026-05-22T14:13:27.000Z</time>
      </trkpt>
      <trkpt lat="42.96593" lon="-1.24354">
        <ele>736.552213</ele>
        <time>2026-05-22T14:13:28.000Z</time>
      </trkpt>
      <trkpt lat="42.9659" lon="-1.24363">
        <ele>736.319151</ele>
        <time>2026-05-22T14:13:29.000Z</time>
      </trkpt>
      <trkpt lat="42.96587" lon="-1.24372">
        <ele>736.083885</ele>
        <time>2026-05-22T14:13:30.000Z</time>
      </trkpt>
      <trkpt lat="42.96584" lon="-1.24381">
        <ele>735.842861</ele>
        <time>2026-05-22T14:13:31.000Z</time>
      </trkpt>
      <trkpt lat="42.9658" lon="-1.2439">
        <ele>735.592464</ele>
        <time>2026-05-22T14:13:32.000Z</time>
      </trkpt>
      <trkpt lat="42.96576" lon="-1.24399">
        <ele>735.339878</ele>
        <time>2026-05-22T14:13:33.000Z</time>
      </trkpt>
      <trkpt lat="42.96572" lon="-1.24408">
        <ele>735.074829</ele>
        <time>2026-05-22T14:13:34.000Z</time>
      </trkpt>
      <trkpt lat="42.96567" lon="-1.24416">
        <ele>734.813346</ele>
        <time>2026-05-22T14:13:35.000Z</time>
      </trkpt>
      <trkpt lat="42.96561" lon="-1.24425">
        <ele>734.548738</ele>
        <time>2026-05-22T14:13:36.000Z</time>
      </trkpt>
      <trkpt lat="42.96555" lon="-1.24432">
        <ele>734.280196</ele>
        <time>2026-05-22T14:13:37.000Z</time>
      </trkpt>
      <trkpt lat="42.9655" lon="-1.2444">
        <ele>734.005912</ele>
        <time>2026-05-22T14:13:38.000Z</time>
      </trkpt>
      <trkpt lat="42.96544" lon="-1.24449">
        <ele>733.725882</ele>
        <time>2026-05-22T14:13:39.000Z</time>
      </trkpt>
      <trkpt lat="42.96537" lon="-1.24457">
        <ele>733.437095</ele>
        <time>2026-05-22T14:13:40.000Z</time>
      </trkpt>
      <trkpt lat="42.96531" lon="-1.24465">
        <ele>733.142577</ele>
        <time>2026-05-22T14:13:41.000Z</time>
      </trkpt>
      <trkpt lat="42.96524" lon="-1.24474">
        <ele>732.847349</ele>
        <time>2026-05-22T14:13:42.000Z</time>
      </trkpt>
      <trkpt lat="42.96518" lon="-1.24482">
        <ele>732.548781</ele>
        <time>2026-05-22T14:13:43.000Z</time>
      </trkpt>
      <trkpt lat="42.96511" lon="-1.24491">
        <ele>732.243022</ele>
        <time>2026-05-22T14:13:44.000Z</time>
      </trkpt>
      <trkpt lat="42.96504" lon="-1.24499">
        <ele>731.933108</ele>
        <time>2026-05-22T14:13:45.000Z</time>
      </trkpt>
      <trkpt lat="42.96497" lon="-1.24508">
        <ele>731.623194</ele>
        <time>2026-05-22T14:13:46.000Z</time>
      </trkpt>
      <trkpt lat="42.9649" lon="-1.24517">
        <ele>731.306872</ele>
        <time>2026-05-22T14:13:47.000Z</time>
      </trkpt>
      <trkpt lat="42.96483" lon="-1.24525">
        <ele>730.910512</ele>
        <time>2026-05-22T14:13:48.000Z</time>
      </trkpt>
      <trkpt lat="42.96476" lon="-1.24534">
        <ele>730.506218</ele>
        <time>2026-05-22T14:13:49.000Z</time>
      </trkpt>
      <trkpt lat="42.96469" lon="-1.24543">
        <ele>730.106021</ele>
        <time>2026-05-22T14:13:50.000Z</time>
      </trkpt>
      <trkpt lat="42.96462" lon="-1.24552">
        <ele>729.701561</ele>
        <time>2026-05-22T14:13:51.000Z</time>
      </trkpt>
      <trkpt lat="42.96455" lon="-1.24561">
        <ele>729.297959</ele>
        <time>2026-05-22T14:13:52.000Z</time>
      </trkpt>
      <trkpt lat="42.96448" lon="-1.2457">
        <ele>728.890531</ele>
        <time>2026-05-22T14:13:53.000Z</time>
      </trkpt>
      <trkpt lat="42.96441" lon="-1.24579">
        <ele>728.485154</ele>
        <time>2026-05-22T14:13:54.000Z</time>
      </trkpt>
      <trkpt lat="42.96433" lon="-1.24587">
        <ele>728.077418</ele>
        <time>2026-05-22T14:13:55.000Z</time>
      </trkpt>
      <trkpt lat="42.96426" lon="-1.24596">
        <ele>727.667562</ele>
        <time>2026-05-22T14:13:56.000Z</time>
      </trkpt>
      <trkpt lat="42.96418" lon="-1.24604">
        <ele>727.255816</ele>
        <time>2026-05-22T14:13:57.000Z</time>
      </trkpt>
      <trkpt lat="42.9641" lon="-1.24612">
        <ele>726.84261</ele>
        <time>2026-05-22T14:13:58.000Z</time>
      </trkpt>
      <trkpt lat="42.96402" lon="-1.24619">
        <ele>726.424609</ele>
        <time>2026-05-22T14:13:59.000Z</time>
      </trkpt>
      <trkpt lat="42.96393" lon="-1.24626">
        <ele>726.008014</ele>
        <time>2026-05-22T14:14:00.000Z</time>
      </trkpt>
      <trkpt lat="42.96385" lon="-1.24634">
        <ele>725.590013</ele>
        <time>2026-05-22T14:14:01.000Z</time>
      </trkpt>
      <trkpt lat="42.96377" lon="-1.24641">
        <ele>725.179051</ele>
        <time>2026-05-22T14:14:02.000Z</time>
      </trkpt>
      <trkpt lat="42.96369" lon="-1.24648">
        <ele>724.767946</ele>
        <time>2026-05-22T14:14:03.000Z</time>
      </trkpt>
      <trkpt lat="42.9636" lon="-1.24656">
        <ele>724.341188</ele>
        <time>2026-05-22T14:14:04.000Z</time>
      </trkpt>
      <trkpt lat="42.96352" lon="-1.24663">
        <ele>723.91417</ele>
        <time>2026-05-22T14:14:05.000Z</time>
      </trkpt>
      <trkpt lat="42.96343" lon="-1.2467">
        <ele>723.389514</ele>
        <time>2026-05-22T14:14:06.000Z</time>
      </trkpt>
      <trkpt lat="42.96334" lon="-1.24675">
        <ele>722.757825</ele>
        <time>2026-05-22T14:14:07.000Z</time>
      </trkpt>
      <trkpt lat="42.96324" lon="-1.2468">
        <ele>722.121656</ele>
        <time>2026-05-22T14:14:08.000Z</time>
      </trkpt>
      <trkpt lat="42.96315" lon="-1.24685">
        <ele>721.468294</ele>
        <time>2026-05-22T14:14:09.000Z</time>
      </trkpt>
      <trkpt lat="42.96305" lon="-1.2469">
        <ele>720.820324</ele>
        <time>2026-05-22T14:14:10.000Z</time>
      </trkpt>
      <trkpt lat="42.96297" lon="-1.24696">
        <ele>720.193067</ele>
        <time>2026-05-22T14:14:11.000Z</time>
      </trkpt>
      <trkpt lat="42.96289" lon="-1.24705">
        <ele>719.566064</ele>
        <time>2026-05-22T14:14:12.000Z</time>
      </trkpt>
      <trkpt lat="42.96283" lon="-1.24715">
        <ele>718.943234</ele>
        <time>2026-05-22T14:14:13.000Z</time>
      </trkpt>
      <trkpt lat="42.96279" lon="-1.24728">
        <ele>718.290508</ele>
        <time>2026-05-22T14:14:14.000Z</time>
      </trkpt>
      <trkpt lat="42.96277" lon="-1.24742">
        <ele>717.614142</ele>
        <time>2026-05-22T14:14:15.000Z</time>
      </trkpt>
      <trkpt lat="42.96276" lon="-1.24757">
        <ele>716.929772</ele>
        <time>2026-05-22T14:14:16.000Z</time>
      </trkpt>
      <trkpt lat="42.96276" lon="-1.24772">
        <ele>716.227805</ele>
        <time>2026-05-22T14:14:17.000Z</time>
      </trkpt>
      <trkpt lat="42.96278" lon="-1.24787">
        <ele>715.526791</ele>
        <time>2026-05-22T14:14:18.000Z</time>
      </trkpt>
      <trkpt lat="42.96279" lon="-1.24803">
        <ele>714.802682</ele>
        <time>2026-05-22T14:14:19.000Z</time>
      </trkpt>
      <trkpt lat="42.96279" lon="-1.24818">
        <ele>714.077695</ele>
        <time>2026-05-22T14:14:20.000Z</time>
      </trkpt>
      <trkpt lat="42.96279" lon="-1.24834">
        <ele>713.352708</ele>
        <time>2026-05-22T14:14:21.000Z</time>
      </trkpt>
      <trkpt lat="42.96278" lon="-1.2485">
        <ele>712.617692</ele>
        <time>2026-05-22T14:14:22.000Z</time>
      </trkpt>
      <trkpt lat="42.96278" lon="-1.24866">
        <ele>711.822216</ele>
        <time>2026-05-22T14:14:23.000Z</time>
      </trkpt>
      <trkpt lat="42.96277" lon="-1.24882">
        <ele>710.980801</ele>
        <time>2026-05-22T14:14:24.000Z</time>
      </trkpt>
      <trkpt lat="42.96276" lon="-1.24898">
        <ele>710.155848</ele>
        <time>2026-05-22T14:14:25.000Z</time>
      </trkpt>
      <trkpt lat="42.96276" lon="-1.24914">
        <ele>709.321545</ele>
        <time>2026-05-22T14:14:26.000Z</time>
      </trkpt>
      <trkpt lat="42.96275" lon="-1.2493">
        <ele>708.466538</ele>
        <time>2026-05-22T14:14:27.000Z</time>
      </trkpt>
      <trkpt lat="42.96274" lon="-1.24947">
        <ele>707.610127</ele>
        <time>2026-05-22T14:14:28.000Z</time>
      </trkpt>
      <trkpt lat="42.96272" lon="-1.24963">
        <ele>706.77969</ele>
        <time>2026-05-22T14:14:29.000Z</time>
      </trkpt>
      <trkpt lat="42.96268" lon="-1.24977">
        <ele>705.964953</ele>
        <time>2026-05-22T14:14:30.000Z</time>
      </trkpt>
      <trkpt lat="42.96263" lon="-1.24992">
        <ele>705.124977</ele>
        <time>2026-05-22T14:14:31.000Z</time>
      </trkpt>
      <trkpt lat="42.96256" lon="-1.25006">
        <ele>704.262962</ele>
        <time>2026-05-22T14:14:32.000Z</time>
      </trkpt>
      <trkpt lat="42.96249" lon="-1.25019">
        <ele>703.397601</ele>
        <time>2026-05-22T14:14:33.000Z</time>
      </trkpt>
      <trkpt lat="42.96242" lon="-1.25033">
        <ele>702.527718</ele>
        <time>2026-05-22T14:14:34.000Z</time>
      </trkpt>
      <trkpt lat="42.96235" lon="-1.25048">
        <ele>701.628071</ele>
        <time>2026-05-22T14:14:35.000Z</time>
      </trkpt>
      <trkpt lat="42.96228" lon="-1.25063">
        <ele>700.71106</ele>
        <time>2026-05-22T14:14:36.000Z</time>
      </trkpt>
      <trkpt lat="42.96221" lon="-1.25077">
        <ele>699.81243</ele>
        <time>2026-05-22T14:14:37.000Z</time>
      </trkpt>
      <trkpt lat="42.96211" lon="-1.25088">
        <ele>699.399708</ele>
        <time>2026-05-22T14:14:38.000Z</time>
      </trkpt>
      <trkpt lat="42.96202" lon="-1.25098">
        <ele>699.208987</ele>
        <time>2026-05-22T14:14:39.000Z</time>
      </trkpt>
      <trkpt lat="42.96192" lon="-1.25104">
        <ele>699.023206</ele>
        <time>2026-05-22T14:14:40.000Z</time>
      </trkpt>
      <trkpt lat="42.96181" lon="-1.25107">
        <ele>698.848861</ele>
        <time>2026-05-22T14:14:41.000Z</time>
      </trkpt>
      <trkpt lat="42.96171" lon="-1.2511">
        <ele>698.679406</ele>
        <time>2026-05-22T14:14:42.000Z</time>
      </trkpt>
      <trkpt lat="42.96162" lon="-1.25112">
        <ele>698.52033</ele>
        <time>2026-05-22T14:14:43.000Z</time>
      </trkpt>
      <trkpt lat="42.96152" lon="-1.25114">
        <ele>698.362499</ele>
        <time>2026-05-22T14:14:44.000Z</time>
      </trkpt>
      <trkpt lat="42.96143" lon="-1.25116">
        <ele>698.205868</ele>
        <time>2026-05-22T14:14:45.000Z</time>
      </trkpt>
      <trkpt lat="42.96134" lon="-1.25119">
        <ele>698.055249</ele>
        <time>2026-05-22T14:14:46.000Z</time>
      </trkpt>
      <trkpt lat="42.96125" lon="-1.25121">
        <ele>697.906973</ele>
        <time>2026-05-22T14:14:47.000Z</time>
      </trkpt>
      <trkpt lat="42.96117" lon="-1.25123">
        <ele>697.764021</ele>
        <time>2026-05-22T14:14:48.000Z</time>
      </trkpt>
      <trkpt lat="42.96108" lon="-1.25123">
        <ele>697.621695</ele>
        <time>2026-05-22T14:14:49.000Z</time>
      </trkpt>
      <trkpt lat="42.961" lon="-1.25123">
        <ele>697.477694</ele>
        <time>2026-05-22T14:14:50.000Z</time>
      </trkpt>
      <trkpt lat="42.96091" lon="-1.25123">
        <ele>697.33863</ele>
        <time>2026-05-22T14:14:51.000Z</time>
      </trkpt>
      <trkpt lat="42.96083" lon="-1.25123">
        <ele>697.207866</ele>
        <time>2026-05-22T14:14:52.000Z</time>
      </trkpt>
      <trkpt lat="42.96076" lon="-1.25124">
        <ele>697.081804</ele>
        <time>2026-05-22T14:14:53.000Z</time>
      </trkpt>
      <trkpt lat="42.96068" lon="-1.25123">
        <ele>696.955882</ele>
        <time>2026-05-22T14:14:54.000Z</time>
      </trkpt>
      <trkpt lat="42.96061" lon="-1.25123">
        <ele>696.833266</ele>
        <time>2026-05-22T14:14:55.000Z</time>
      </trkpt>
      <trkpt lat="42.96054" lon="-1.25121">
        <ele>696.716004</ele>
        <time>2026-05-22T14:14:56.000Z</time>
      </trkpt>
      <trkpt lat="42.96046" lon="-1.25118">
        <ele>696.587911</ele>
        <time>2026-05-22T14:14:57.000Z</time>
      </trkpt>
      <trkpt lat="42.96039" lon="-1.25116">
        <ele>696.583583</ele>
        <time>2026-05-22T14:14:58.000Z</time>
      </trkpt>
      <trkpt lat="42.96032" lon="-1.25114">
        <ele>696.597856</ele>
        <time>2026-05-22T14:14:59.000Z</time>
      </trkpt>
      <trkpt lat="42.96025" lon="-1.25112">
        <ele>696.611563</ele>
        <time>2026-05-22T14:15:00.000Z</time>
      </trkpt>
      <trkpt lat="42.96018" lon="-1.25111">
        <ele>696.625613</ele>
        <time>2026-05-22T14:15:01.000Z</time>
      </trkpt>
      <trkpt lat="42.96011" lon="-1.25109">
        <ele>696.639343</ele>
        <time>2026-05-22T14:15:02.000Z</time>
      </trkpt>
      <trkpt lat="42.96004" lon="-1.25108">
        <ele>696.652559</ele>
        <time>2026-05-22T14:15:03.000Z</time>
      </trkpt>
      <trkpt lat="42.95997" lon="-1.25107">
        <ele>696.665806</ele>
        <time>2026-05-22T14:15:04.000Z</time>
      </trkpt>
      <trkpt lat="42.9599" lon="-1.25107">
        <ele>696.678806</ele>
        <time>2026-05-22T14:15:05.000Z</time>
      </trkpt>
      <trkpt lat="42.95984" lon="-1.25105">
        <ele>696.691897</ele>
        <time>2026-05-22T14:15:06.000Z</time>
      </trkpt>
      <trkpt lat="42.95977" lon="-1.25104">
        <ele>696.704989</ele>
        <time>2026-05-22T14:15:07.000Z</time>
      </trkpt>
      <trkpt lat="42.9597" lon="-1.25103">
        <ele>696.71791</ele>
        <time>2026-05-22T14:15:08.000Z</time>
      </trkpt>
      <trkpt lat="42.95964" lon="-1.25102">
        <ele>696.729525</ele>
        <time>2026-05-22T14:15:09.000Z</time>
      </trkpt>
      <trkpt lat="42.95958" lon="-1.25103">
        <ele>696.741333</ele>
        <time>2026-05-22T14:15:10.000Z</time>
      </trkpt>
      <trkpt lat="42.95952" lon="-1.25103">
        <ele>696.753561</ele>
        <time>2026-05-22T14:15:11.000Z</time>
      </trkpt>
      <trkpt lat="42.95946" lon="-1.25104">
        <ele>696.76604</ele>
        <time>2026-05-22T14:15:12.000Z</time>
      </trkpt>
      <trkpt lat="42.9594" lon="-1.25106">
        <ele>696.777987</ele>
        <time>2026-05-22T14:15:13.000Z</time>
      </trkpt>
      <trkpt lat="42.95934" lon="-1.25109">
        <ele>696.789446</ele>
        <time>2026-05-22T14:15:14.000Z</time>
      </trkpt>
      <trkpt lat="42.95928" lon="-1.25111">
        <ele>696.801428</ele>
        <time>2026-05-22T14:15:15.000Z</time>
      </trkpt>
      <trkpt lat="42.95922" lon="-1.25113">
        <ele>696.813297</ele>
        <time>2026-05-22T14:15:16.000Z</time>
      </trkpt>
      <trkpt lat="42.95917" lon="-1.25116">
        <ele>696.824753</ele>
        <time>2026-05-22T14:15:17.000Z</time>
      </trkpt>
      <trkpt lat="42.95911" lon="-1.25119">
        <ele>696.836374</ele>
        <time>2026-05-22T14:15:18.000Z</time>
      </trkpt>
      <trkpt lat="42.95906" lon="-1.25123">
        <ele>696.848156</ele>
        <time>2026-05-22T14:15:19.000Z</time>
      </trkpt>
      <trkpt lat="42.95901" lon="-1.25128">
        <ele>696.859577</ele>
        <time>2026-05-22T14:15:20.000Z</time>
      </trkpt>
      <trkpt lat="42.95896" lon="-1.25133">
        <ele>696.871163</ele>
        <time>2026-05-22T14:15:21.000Z</time>
      </trkpt>
      <trkpt lat="42.95892" lon="-1.25139">
        <ele>696.88258</ele>
        <time>2026-05-22T14:15:22.000Z</time>
      </trkpt>
      <trkpt lat="42.95889" lon="-1.25145">
        <ele>696.893785</ele>
        <time>2026-05-22T14:15:23.000Z</time>
      </trkpt>
      <trkpt lat="42.95885" lon="-1.25152">
        <ele>696.905212</ele>
        <time>2026-05-22T14:15:24.000Z</time>
      </trkpt>
      <trkpt lat="42.95882" lon="-1.25159">
        <ele>696.916435</ele>
        <time>2026-05-22T14:15:25.000Z</time>
      </trkpt>
      <trkpt lat="42.9588" lon="-1.25166">
        <ele>696.88429</ele>
        <time>2026-05-22T14:15:26.000Z</time>
      </trkpt>
      <trkpt lat="42.95877" lon="-1.25173">
        <ele>696.836955</ele>
        <time>2026-05-22T14:15:27.000Z</time>
      </trkpt>
      <trkpt lat="42.95876" lon="-1.25182">
        <ele>696.786626</ele>
        <time>2026-05-22T14:15:28.000Z</time>
      </trkpt>
      <trkpt lat="42.95875" lon="-1.2519">
        <ele>696.736257</ele>
        <time>2026-05-22T14:15:29.000Z</time>
      </trkpt>
      <trkpt lat="42.95875" lon="-1.25199">
        <ele>696.686198</ele>
        <time>2026-05-22T14:15:30.000Z</time>
      </trkpt>
      <trkpt lat="42.95876" lon="-1.25207">
        <ele>696.635911</ele>
        <time>2026-05-22T14:15:31.000Z</time>
      </trkpt>
      <trkpt lat="42.95878" lon="-1.25216">
        <ele>696.583496</ele>
        <time>2026-05-22T14:15:32.000Z</time>
      </trkpt>
      <trkpt lat="42.9588" lon="-1.25225">
        <ele>696.527456</ele>
        <time>2026-05-22T14:15:33.000Z</time>
      </trkpt>
      <trkpt lat="42.95882" lon="-1.25234">
        <ele>696.471134</ele>
        <time>2026-05-22T14:15:34.000Z</time>
      </trkpt>
      <trkpt lat="42.95885" lon="-1.25244">
        <ele>696.412896</ele>
        <time>2026-05-22T14:15:35.000Z</time>
      </trkpt>
      <trkpt lat="42.95888" lon="-1.25253">
        <ele>696.35298</ele>
        <time>2026-05-22T14:15:36.000Z</time>
      </trkpt>
      <trkpt lat="42.95891" lon="-1.25262">
        <ele>696.295206</ele>
        <time>2026-05-22T14:15:37.000Z</time>
      </trkpt>
      <trkpt lat="42.95894" lon="-1.25271">
        <ele>696.240088</ele>
        <time>2026-05-22T14:15:38.000Z</time>
      </trkpt>
      <trkpt lat="42.95897" lon="-1.2528">
        <ele>696.182847</ele>
        <time>2026-05-22T14:15:39.000Z</time>
      </trkpt>
      <trkpt lat="42.959" lon="-1.25289">
        <ele>696.12442</ele>
        <time>2026-05-22T14:15:40.000Z</time>
      </trkpt>
      <trkpt lat="42.95903" lon="-1.25298">
        <ele>696.065041</ele>
        <time>2026-05-22T14:15:41.000Z</time>
      </trkpt>
      <trkpt lat="42.95906" lon="-1.25307">
        <ele>696.007267</ele>
        <time>2026-05-22T14:15:42.000Z</time>
      </trkpt>
      <trkpt lat="42.95908" lon="-1.25317">
        <ele>695.948767</ele>
        <time>2026-05-22T14:15:43.000Z</time>
      </trkpt>
      <trkpt lat="42.9591" lon="-1.25325">
        <ele>695.898736</ele>
        <time>2026-05-22T14:15:44.000Z</time>
      </trkpt>
      <trkpt lat="42.95912" lon="-1.25331">
        <ele>695.861215</ele>
        <time>2026-05-22T14:15:45.000Z</time>
      </trkpt>
      <trkpt lat="42.95914" lon="-1.25335">
        <ele>695.831477</ele>
        <time>2026-05-22T14:15:46.000Z</time>
      </trkpt>
      <trkpt lat="42.95915" lon="-1.2534">
        <ele>695.803316</ele>
        <time>2026-05-22T14:15:47.000Z</time>
      </trkpt>
      <trkpt lat="42.95917" lon="-1.25344">
        <ele>695.775984</ele>
        <time>2026-05-22T14:15:48.000Z</time>
      </trkpt>
      <trkpt lat="42.95918" lon="-1.25348">
        <ele>695.748423</ele>
        <time>2026-05-22T14:15:49.000Z</time>
      </trkpt>
      <trkpt lat="42.9592" lon="-1.25353">
        <ele>695.720803</ele>
        <time>2026-05-22T14:15:50.000Z</time>
      </trkpt>
      <trkpt lat="42.9592" lon="-1.25357">
        <ele>695.692714</ele>
        <time>2026-05-22T14:15:51.000Z</time>
      </trkpt>
      <trkpt lat="42.95921" lon="-1.25362">
        <ele>695.662923</ele>
        <time>2026-05-22T14:15:52.000Z</time>
      </trkpt>
      <trkpt lat="42.95922" lon="-1.25367">
        <ele>695.6337</ele>
        <time>2026-05-22T14:15:53.000Z</time>
      </trkpt>
      <trkpt lat="42.95922" lon="-1.25373">
        <ele>695.602594</ele>
        <time>2026-05-22T14:15:54.000Z</time>
      </trkpt>
      <trkpt lat="42.95923" lon="-1.25378">
        <ele>695.570333</ele>
        <time>2026-05-22T14:15:55.000Z</time>
      </trkpt>
      <trkpt lat="42.95923" lon="-1.25384">
        <ele>695.536339</ele>
        <time>2026-05-22T14:15:56.000Z</time>
      </trkpt>
      <trkpt lat="42.95924" lon="-1.2539">
        <ele>695.50069</ele>
        <time>2026-05-22T14:15:57.000Z</time>
      </trkpt>
      <trkpt lat="42.95924" lon="-1.25396">
        <ele>695.513562</ele>
        <time>2026-05-22T14:15:58.000Z</time>
      </trkpt>
      <trkpt lat="42.95925" lon="-1.25402">
        <ele>695.550622</ele>
        <time>2026-05-22T14:15:59.000Z</time>
      </trkpt>
      <trkpt lat="42.95925" lon="-1.25408">
        <ele>695.588066</ele>
        <time>2026-05-22T14:16:00.000Z</time>
      </trkpt>
      <trkpt lat="42.95926" lon="-1.25414">
        <ele>695.62783</ele>
        <time>2026-05-22T14:16:01.000Z</time>
      </trkpt>
      <trkpt lat="42.95926" lon="-1.25421">
        <ele>695.667658</ele>
        <time>2026-05-22T14:16:02.000Z</time>
      </trkpt>
      <trkpt lat="42.95927" lon="-1.25427">
        <ele>695.707051</ele>
        <time>2026-05-22T14:16:03.000Z</time>
      </trkpt>
      <trkpt lat="42.95927" lon="-1.25434">
        <ele>695.747576</ele>
        <time>2026-05-22T14:16:04.000Z</time>
      </trkpt>
      <trkpt lat="42.95927" lon="-1.2544">
        <ele>695.787915</ele>
        <time>2026-05-22T14:16:05.000Z</time>
      </trkpt>
      <trkpt lat="42.95927" lon="-1.25446">
        <ele>695.825118</ele>
        <time>2026-05-22T14:16:06.000Z</time>
      </trkpt>
      <trkpt lat="42.95928" lon="-1.25452">
        <ele>695.86236</ele>
        <time>2026-05-22T14:16:07.000Z</time>
      </trkpt>
      <trkpt lat="42.95928" lon="-1.25458">
        <ele>695.901569</ele>
        <time>2026-05-22T14:16:08.000Z</time>
      </trkpt>
      <trkpt lat="42.95929" lon="-1.25465">
        <ele>695.942192</ele>
        <time>2026-05-22T14:16:09.000Z</time>
      </trkpt>
      <trkpt lat="42.95929" lon="-1.25471">
        <ele>695.981957</ele>
        <time>2026-05-22T14:16:10.000Z</time>
      </trkpt>
      <trkpt lat="42.95929" lon="-1.25478">
        <ele>696.02164</ele>
        <time>2026-05-22T14:16:11.000Z</time>
      </trkpt>
      <trkpt lat="42.95929" lon="-1.25484">
        <ele>696.059472</ele>
        <time>2026-05-22T14:16:12.000Z</time>
      </trkpt>
      <trkpt lat="42.95929" lon="-1.2549">
        <ele>696.097925</ele>
        <time>2026-05-22T14:16:13.000Z</time>
      </trkpt>
      <trkpt lat="42.95929" lon="-1.25496">
        <ele>696.135138</ele>
        <time>2026-05-22T14:16:14.000Z</time>
      </trkpt>
      <trkpt lat="42.95929" lon="-1.25502">
        <ele>696.172999</ele>
        <time>2026-05-22T14:16:15.000Z</time>
      </trkpt>
      <trkpt lat="42.95929" lon="-1.25508">
        <ele>696.210356</ele>
        <time>2026-05-22T14:16:16.000Z</time>
      </trkpt>
      <trkpt lat="42.95928" lon="-1.25514">
        <ele>696.247799</ele>
        <time>2026-05-22T14:16:17.000Z</time>
      </trkpt>
      <trkpt lat="42.95928" lon="-1.2552">
        <ele>696.285859</ele>
        <time>2026-05-22T14:16:18.000Z</time>
      </trkpt>
      <trkpt lat="42.95927" lon="-1.25526">
        <ele>696.324619</ele>
        <time>2026-05-22T14:16:19.000Z</time>
      </trkpt>
      <trkpt lat="42.95925" lon="-1.25532">
        <ele>696.364384</ele>
        <time>2026-05-22T14:16:20.000Z</time>
      </trkpt>
      <trkpt lat="42.95924" lon="-1.25538">
        <ele>696.401664</ele>
        <time>2026-05-22T14:16:21.000Z</time>
      </trkpt>
      <trkpt lat="42.95923" lon="-1.25544">
        <ele>696.437771</ele>
        <time>2026-05-22T14:16:22.000Z</time>
      </trkpt>
      <trkpt lat="42.95921" lon="-1.25549">
        <ele>696.47422</ele>
        <time>2026-05-22T14:16:23.000Z</time>
      </trkpt>
      <trkpt lat="42.95919" lon="-1.25555">
        <ele>696.512713</ele>
        <time>2026-05-22T14:16:24.000Z</time>
      </trkpt>
      <trkpt lat="42.95917" lon="-1.2556">
        <ele>696.549687</ele>
        <time>2026-05-22T14:16:25.000Z</time>
      </trkpt>
      <trkpt lat="42.95915" lon="-1.25565">
        <ele>696.583129</ele>
        <time>2026-05-22T14:16:26.000Z</time>
      </trkpt>
      <trkpt lat="42.95913" lon="-1.25569">
        <ele>696.617673</ele>
        <time>2026-05-22T14:16:27.000Z</time>
      </trkpt>
      <trkpt lat="42.9591" lon="-1.25574">
        <ele>696.654389</ele>
        <time>2026-05-22T14:16:28.000Z</time>
      </trkpt>
      <trkpt lat="42.95907" lon="-1.25578">
        <ele>696.691355</ele>
        <time>2026-05-22T14:16:29.000Z</time>
      </trkpt>
      <trkpt lat="42.95904" lon="-1.25582">
        <ele>696.727684</ele>
        <time>2026-05-22T14:16:30.000Z</time>
      </trkpt>
      <trkpt lat="42.959" lon="-1.25585">
        <ele>696.765177</ele>
        <time>2026-05-22T14:16:31.000Z</time>
      </trkpt>
      <trkpt lat="42.95896" lon="-1.25589">
        <ele>696.805053</ele>
        <time>2026-05-22T14:16:32.000Z</time>
      </trkpt>
      <trkpt lat="42.95892" lon="-1.25592">
        <ele>696.846837</ele>
        <time>2026-05-22T14:16:33.000Z</time>
      </trkpt>
      <trkpt lat="42.95887" lon="-1.25595">
        <ele>696.889259</ele>
        <time>2026-05-22T14:16:34.000Z</time>
      </trkpt>
      <trkpt lat="42.95883" lon="-1.25599">
        <ele>696.934316</ele>
        <time>2026-05-22T14:16:35.000Z</time>
      </trkpt>
      <trkpt lat="42.95878" lon="-1.25602">
        <ele>696.977014</ele>
        <time>2026-05-22T14:16:36.000Z</time>
      </trkpt>
      <trkpt lat="42.95873" lon="-1.25605">
        <ele>697.011549</ele>
        <time>2026-05-22T14:16:37.000Z</time>
      </trkpt>
      <trkpt lat="42.95868" lon="-1.25607">
        <ele>697.006663</ele>
        <time>2026-05-22T14:16:38.000Z</time>
      </trkpt>
      <trkpt lat="42.95864" lon="-1.2561">
        <ele>697.001931</ele>
        <time>2026-05-22T14:16:39.000Z</time>
      </trkpt>
      <trkpt lat="42.95859" lon="-1.25613">
        <ele>696.997193</ele>
        <time>2026-05-22T14:16:40.000Z</time>
      </trkpt>
      <trkpt lat="42.95854" lon="-1.25615">
        <ele>696.992519</ele>
        <time>2026-05-22T14:16:41.000Z</time>
      </trkpt>
      <trkpt lat="42.95849" lon="-1.25616">
        <ele>696.987628</ele>
        <time>2026-05-22T14:16:42.000Z</time>
      </trkpt>
      <trkpt lat="42.95844" lon="-1.25618">
        <ele>696.982545</ele>
        <time>2026-05-22T14:16:43.000Z</time>
      </trkpt>
      <trkpt lat="42.95838" lon="-1.2562">
        <ele>696.977517</ele>
        <time>2026-05-22T14:16:44.000Z</time>
      </trkpt>
      <trkpt lat="42.95833" lon="-1.25622">
        <ele>696.972577</ele>
        <time>2026-05-22T14:16:45.000Z</time>
      </trkpt>
      <trkpt lat="42.95828" lon="-1.25624">
        <ele>696.967532</ele>
        <time>2026-05-22T14:16:46.000Z</time>
      </trkpt>
      <trkpt lat="42.95822" lon="-1.25626">
        <ele>696.962449</ele>
        <time>2026-05-22T14:16:47.000Z</time>
      </trkpt>
      <trkpt lat="42.95817" lon="-1.25628">
        <ele>696.957167</ele>
        <time>2026-05-22T14:16:48.000Z</time>
      </trkpt>
      <trkpt lat="42.95811" lon="-1.25628">
        <ele>696.951925</ele>
        <time>2026-05-22T14:16:49.000Z</time>
      </trkpt>
      <trkpt lat="42.95805" lon="-1.25628">
        <ele>696.946326</ele>
        <time>2026-05-22T14:16:50.000Z</time>
      </trkpt>
      <trkpt lat="42.95799" lon="-1.25628">
        <ele>696.941096</ele>
        <time>2026-05-22T14:16:51.000Z</time>
      </trkpt>
      <trkpt lat="42.95793" lon="-1.25626">
        <ele>696.935691</ele>
        <time>2026-05-22T14:16:52.000Z</time>
      </trkpt>
      <trkpt lat="42.95788" lon="-1.25624">
        <ele>696.93038</ele>
        <time>2026-05-22T14:16:53.000Z</time>
      </trkpt>
      <trkpt lat="42.95783" lon="-1.25622">
        <ele>696.925189</ele>
        <time>2026-05-22T14:16:54.000Z</time>
      </trkpt>
      <trkpt lat="42.95777" lon="-1.25619">
        <ele>696.919704</ele>
        <time>2026-05-22T14:16:55.000Z</time>
      </trkpt>
      <trkpt lat="42.95772" lon="-1.25616">
        <ele>696.914599</ele>
        <time>2026-05-22T14:16:56.000Z</time>
      </trkpt>
      <trkpt lat="42.95766" lon="-1.25613">
        <ele>696.909213</ele>
        <time>2026-05-22T14:16:57.000Z</time>
      </trkpt>
      <trkpt lat="42.95761" lon="-1.2561">
        <ele>696.903949</ele>
        <time>2026-05-22T14:16:58.000Z</time>
      </trkpt>
      <trkpt lat="42.95756" lon="-1.25607">
        <ele>696.899077</ele>
        <time>2026-05-22T14:16:59.000Z</time>
      </trkpt>
      <trkpt lat="42.95751" lon="-1.25604">
        <ele>696.894011</ele>
        <time>2026-05-22T14:17:00.000Z</time>
      </trkpt>
      <trkpt lat="42.95746" lon="-1.25601">
        <ele>696.888882</ele>
        <time>2026-05-22T14:17:01.000Z</time>
      </trkpt>
      <trkpt lat="42.95741" lon="-1.25598">
        <ele>696.883887</ele>
        <time>2026-05-22T14:17:02.000Z</time>
      </trkpt>
      <trkpt lat="42.95736" lon="-1.25596">
        <ele>696.879013</ele>
        <time>2026-05-22T14:17:03.000Z</time>
      </trkpt>
      <trkpt lat="42.95731" lon="-1.25593">
        <ele>696.873909</ele>
        <time>2026-05-22T14:17:04.000Z</time>
      </trkpt>
      <trkpt lat="42.95726" lon="-1.2559">
        <ele>696.868814</ele>
        <time>2026-05-22T14:17:05.000Z</time>
      </trkpt>
      <trkpt lat="42.95721" lon="-1.25587">
        <ele>696.863718</ele>
        <time>2026-05-22T14:17:06.000Z</time>
      </trkpt>
      <trkpt lat="42.95716" lon="-1.25584">
        <ele>696.858652</ele>
        <time>2026-05-22T14:17:07.000Z</time>
      </trkpt>
      <trkpt lat="42.95711" lon="-1.2558">
        <ele>696.853803</ele>
        <time>2026-05-22T14:17:08.000Z</time>
      </trkpt>
      <trkpt lat="42.95706" lon="-1.25576">
        <ele>696.848599</ele>
        <time>2026-05-22T14:17:09.000Z</time>
      </trkpt>
      <trkpt lat="42.95701" lon="-1.25572">
        <ele>696.857643</ele>
        <time>2026-05-22T14:17:10.000Z</time>
      </trkpt>
      <trkpt lat="42.95697" lon="-1.25568">
        <ele>696.871029</ele>
        <time>2026-05-22T14:17:11.000Z</time>
      </trkpt>
      <trkpt lat="42.95692" lon="-1.25563">
        <ele>696.884431</ele>
        <time>2026-05-22T14:17:12.000Z</time>
      </trkpt>
      <trkpt lat="42.95688" lon="-1.25558">
        <ele>696.897574</ele>
        <time>2026-05-22T14:17:13.000Z</time>
      </trkpt>
      <trkpt lat="42.95684" lon="-1.25553">
        <ele>696.909789</ele>
        <time>2026-05-22T14:17:14.000Z</time>
      </trkpt>
      <trkpt lat="42.9568" lon="-1.25547">
        <ele>696.922855</ele>
        <time>2026-05-22T14:17:15.000Z</time>
      </trkpt>
      <trkpt lat="42.95676" lon="-1.25541">
        <ele>696.935894</ele>
        <time>2026-05-22T14:17:16.000Z</time>
      </trkpt>
      <trkpt lat="42.95673" lon="-1.25535">
        <ele>696.948748</ele>
        <time>2026-05-22T14:17:17.000Z</time>
      </trkpt>
      <trkpt lat="42.9567" lon="-1.25529">
        <ele>696.962085</ele>
        <time>2026-05-22T14:17:18.000Z</time>
      </trkpt>
      <trkpt lat="42.95667" lon="-1.25522">
        <ele>696.975086</ele>
        <time>2026-05-22T14:17:19.000Z</time>
      </trkpt>
      <trkpt lat="42.95665" lon="-1.25515">
        <ele>696.987899</ele>
        <time>2026-05-22T14:17:20.000Z</time>
      </trkpt>
      <trkpt lat="42.95662" lon="-1.25509">
        <ele>697.000342</ele>
        <time>2026-05-22T14:17:21.000Z</time>
      </trkpt>
      <trkpt lat="42.9566" lon="-1.25502">
        <ele>697.012568</ele>
        <time>2026-05-22T14:17:22.000Z</time>
      </trkpt>
      <trkpt lat="42.95657" lon="-1.25496">
        <ele>697.025469</ele>
        <time>2026-05-22T14:17:23.000Z</time>
      </trkpt>
      <trkpt lat="42.95654" lon="-1.25489">
        <ele>697.038838</ele>
        <time>2026-05-22T14:17:24.000Z</time>
      </trkpt>
      <trkpt lat="42.95651" lon="-1.25482">
        <ele>697.0524</ele>
        <time>2026-05-22T14:17:25.000Z</time>
      </trkpt>
      <trkpt lat="42.95649" lon="-1.25474">
        <ele>697.066802</ele>
        <time>2026-05-22T14:17:26.000Z</time>
      </trkpt>
      <trkpt lat="42.95648" lon="-1.25466">
        <ele>697.080961</ele>
        <time>2026-05-22T14:17:27.000Z</time>
      </trkpt>
      <trkpt lat="42.95647" lon="-1.25457">
        <ele>697.095298</ele>
        <time>2026-05-22T14:17:28.000Z</time>
      </trkpt>
      <trkpt lat="42.95646" lon="-1.25449">
        <ele>697.109218</ele>
        <time>2026-05-22T14:17:29.000Z</time>
      </trkpt>
      <trkpt lat="42.95645" lon="-1.25441">
        <ele>697.123882</ele>
        <time>2026-05-22T14:17:30.000Z</time>
      </trkpt>
      <trkpt lat="42.95644" lon="-1.25433">
        <ele>697.136894</ele>
        <time>2026-05-22T14:17:31.000Z</time>
      </trkpt>
      <trkpt lat="42.95643" lon="-1.25426">
        <ele>697.149402</ele>
        <time>2026-05-22T14:17:32.000Z</time>
      </trkpt>
      <trkpt lat="42.95643" lon="-1.25418">
        <ele>697.162019</ele>
        <time>2026-05-22T14:17:33.000Z</time>
      </trkpt>
      <trkpt lat="42.95642" lon="-1.25411">
        <ele>697.174578</ele>
        <time>2026-05-22T14:17:34.000Z</time>
      </trkpt>
      <trkpt lat="42.95642" lon="-1.25404">
        <ele>697.187152</ele>
        <time>2026-05-22T14:17:35.000Z</time>
      </trkpt>
      <trkpt lat="42.95643" lon="-1.25396">
        <ele>697.200252</ele>
        <time>2026-05-22T14:17:36.000Z</time>
      </trkpt>
      <trkpt lat="42.95643" lon="-1.25388">
        <ele>697.212995</ele>
        <time>2026-05-22T14:17:37.000Z</time>
      </trkpt>
      <trkpt lat="42.95643" lon="-1.25381">
        <ele>697.225713</ele>
        <time>2026-05-22T14:17:38.000Z</time>
      </trkpt>
      <trkpt lat="42.95643" lon="-1.25374">
        <ele>697.237765</ele>
        <time>2026-05-22T14:17:39.000Z</time>
      </trkpt>
      <trkpt lat="42.95643" lon="-1.25366">
        <ele>697.250483</ele>
        <time>2026-05-22T14:17:40.000Z</time>
      </trkpt>
      <trkpt lat="42.95643" lon="-1.25359">
        <ele>697.262684</ele>
        <time>2026-05-22T14:17:41.000Z</time>
      </trkpt>
      <trkpt lat="42.95643" lon="-1.25352">
        <ele>697.26299</ele>
        <time>2026-05-22T14:17:42.000Z</time>
      </trkpt>
      <trkpt lat="42.95642" lon="-1.25345">
        <ele>697.262037</ele>
        <time>2026-05-22T14:17:43.000Z</time>
      </trkpt>
      <trkpt lat="42.95642" lon="-1.25338">
        <ele>697.261082</ele>
        <time>2026-05-22T14:17:44.000Z</time>
      </trkpt>
      <trkpt lat="42.95642" lon="-1.25332">
        <ele>697.260174</ele>
        <time>2026-05-22T14:17:45.000Z</time>
      </trkpt>
      <trkpt lat="42.95641" lon="-1.25325">
        <ele>697.259278</ele>
        <time>2026-05-22T14:17:46.000Z</time>
      </trkpt>
      <trkpt lat="42.95641" lon="-1.25319">
        <ele>697.258397</ele>
        <time>2026-05-22T14:17:47.000Z</time>
      </trkpt>
      <trkpt lat="42.95641" lon="-1.25313">
        <ele>697.257503</ele>
        <time>2026-05-22T14:17:48.000Z</time>
      </trkpt>
      <trkpt lat="42.95641" lon="-1.25307">
        <ele>697.256663</ele>
        <time>2026-05-22T14:17:49.000Z</time>
      </trkpt>
      <trkpt lat="42.9564" lon="-1.25301">
        <ele>697.255828</ele>
        <time>2026-05-22T14:17:50.000Z</time>
      </trkpt>
      <trkpt lat="42.9564" lon="-1.25295">
        <ele>697.254944</ele>
        <time>2026-05-22T14:17:51.000Z</time>
      </trkpt>
      <trkpt lat="42.95639" lon="-1.25288">
        <ele>697.254084</ele>
        <time>2026-05-22T14:17:52.000Z</time>
      </trkpt>
      <trkpt lat="42.95639" lon="-1.25282">
        <ele>697.253197</ele>
        <time>2026-05-22T14:17:53.000Z</time>
      </trkpt>
      <trkpt lat="42.95638" lon="-1.25276">
        <ele>697.252272</ele>
        <time>2026-05-22T14:17:54.000Z</time>
      </trkpt>
      <trkpt lat="42.95637" lon="-1.25269">
        <ele>697.251316</ele>
        <time>2026-05-22T14:17:55.000Z</time>
      </trkpt>
      <trkpt lat="42.95636" lon="-1.25262">
        <ele>697.250384</ele>
        <time>2026-05-22T14:17:56.000Z</time>
      </trkpt>
      <trkpt lat="42.95635" lon="-1.25256">
        <ele>697.24942</ele>
        <time>2026-05-22T14:17:57.000Z</time>
      </trkpt>
      <trkpt lat="42.95634" lon="-1.2525">
        <ele>697.248528</ele>
        <time>2026-05-22T14:17:58.000Z</time>
      </trkpt>
      <trkpt lat="42.95632" lon="-1.25244">
        <ele>697.247629</ele>
        <time>2026-05-22T14:17:59.000Z</time>
      </trkpt>
      <trkpt lat="42.9563" lon="-1.25238">
        <ele>697.246707</ele>
        <time>2026-05-22T14:18:00.000Z</time>
      </trkpt>
      <trkpt lat="42.95627" lon="-1.25232">
        <ele>697.245801</ele>
        <time>2026-05-22T14:18:01.000Z</time>
      </trkpt>
      <trkpt lat="42.95625" lon="-1.25227">
        <ele>697.244887</ele>
        <time>2026-05-22T14:18:02.000Z</time>
      </trkpt>
      <trkpt lat="42.95622" lon="-1.25221">
        <ele>697.243917</ele>
        <time>2026-05-22T14:18:03.000Z</time>
      </trkpt>
      <trkpt lat="42.95618" lon="-1.25216">
        <ele>697.242987</ele>
        <time>2026-05-22T14:18:04.000Z</time>
      </trkpt>
      <trkpt lat="42.95614" lon="-1.25212">
        <ele>697.242017</ele>
        <time>2026-05-22T14:18:05.000Z</time>
      </trkpt>
      <trkpt lat="42.9561" lon="-1.25208">
        <ele>697.240992</ele>
        <time>2026-05-22T14:18:06.000Z</time>
      </trkpt>
      <trkpt lat="42.95606" lon="-1.25204">
        <ele>697.240045</ele>
        <time>2026-05-22T14:18:07.000Z</time>
      </trkpt>
      <trkpt lat="42.95601" lon="-1.25201">
        <ele>697.239072</ele>
        <time>2026-05-22T14:18:08.000Z</time>
      </trkpt>
      <trkpt lat="42.95596" lon="-1.25199">
        <ele>697.238122</ele>
        <time>2026-05-22T14:18:09.000Z</time>
      </trkpt>
      <trkpt lat="42.95591" lon="-1.25197">
        <ele>697.237127</ele>
        <time>2026-05-22T14:18:10.000Z</time>
      </trkpt>
      <trkpt lat="42.95587" lon="-1.25194">
        <ele>697.236165</ele>
        <time>2026-05-22T14:18:11.000Z</time>
      </trkpt>
      <trkpt lat="42.95582" lon="-1.25192">
        <ele>697.235189</ele>
        <time>2026-05-22T14:18:12.000Z</time>
      </trkpt>
      <trkpt lat="42.95577" lon="-1.2519">
        <ele>697.234196</ele>
        <time>2026-05-22T14:18:13.000Z</time>
      </trkpt>
      <trkpt lat="42.95572" lon="-1.25187">
        <ele>697.233207</ele>
        <time>2026-05-22T14:18:14.000Z</time>
      </trkpt>
      <trkpt lat="42.95567" lon="-1.25185">
        <ele>697.232141</ele>
        <time>2026-05-22T14:18:15.000Z</time>
      </trkpt>
      <trkpt lat="42.95562" lon="-1.25183">
        <ele>697.231106</ele>
        <time>2026-05-22T14:18:16.000Z</time>
      </trkpt>
      <trkpt lat="42.95556" lon="-1.25181">
        <ele>697.230052</ele>
        <time>2026-05-22T14:18:17.000Z</time>
      </trkpt>
      <trkpt lat="42.95551" lon="-1.25179">
        <ele>697.156217</ele>
        <time>2026-05-22T14:18:18.000Z</time>
      </trkpt>
      <trkpt lat="42.95546" lon="-1.25177">
        <ele>697.018512</ele>
        <time>2026-05-22T14:18:19.000Z</time>
      </trkpt>
      <trkpt lat="42.9554" lon="-1.25175">
        <ele>696.86967</ele>
        <time>2026-05-22T14:18:20.000Z</time>
      </trkpt>
      <trkpt lat="42.95534" lon="-1.25174">
        <ele>696.708424</ele>
        <time>2026-05-22T14:18:21.000Z</time>
      </trkpt>
      <trkpt lat="42.95527" lon="-1.25173">
        <ele>696.543492</ele>
        <time>2026-05-22T14:18:22.000Z</time>
      </trkpt>
      <trkpt lat="42.9552" lon="-1.25172">
        <ele>696.376055</ele>
        <time>2026-05-22T14:18:23.000Z</time>
      </trkpt>
      <trkpt lat="42.95514" lon="-1.25171">
        <ele>696.206865</ele>
        <time>2026-05-22T14:18:24.000Z</time>
      </trkpt>
      <trkpt lat="42.95507" lon="-1.25171">
        <ele>696.032873</ele>
        <time>2026-05-22T14:18:25.000Z</time>
      </trkpt>
      <trkpt lat="42.955" lon="-1.25172">
        <ele>695.855898</ele>
        <time>2026-05-22T14:18:26.000Z</time>
      </trkpt>
      <trkpt lat="42.95493" lon="-1.25173">
        <ele>695.670715</ele>
        <time>2026-05-22T14:18:27.000Z</time>
      </trkpt>
      <trkpt lat="42.95485" lon="-1.25175">
        <ele>695.474043</ele>
        <time>2026-05-22T14:18:28.000Z</time>
      </trkpt>
      <trkpt lat="42.95477" lon="-1.25177">
        <ele>695.278532</ele>
        <time>2026-05-22T14:18:29.000Z</time>
      </trkpt>
      <trkpt lat="42.95469" lon="-1.2518">
        <ele>695.074706</ele>
        <time>2026-05-22T14:18:30.000Z</time>
      </trkpt>
      <trkpt lat="42.95461" lon="-1.25184">
        <ele>694.861146</ele>
        <time>2026-05-22T14:18:31.000Z</time>
      </trkpt>
      <trkpt lat="42.95453" lon="-1.25188">
        <ele>694.643342</ele>
        <time>2026-05-22T14:18:32.000Z</time>
      </trkpt>
      <trkpt lat="42.95445" lon="-1.25192">
        <ele>694.418185</ele>
        <time>2026-05-22T14:18:33.000Z</time>
      </trkpt>
      <trkpt lat="42.95437" lon="-1.25197">
        <ele>694.193248</ele>
        <time>2026-05-22T14:18:34.000Z</time>
      </trkpt>
      <trkpt lat="42.95429" lon="-1.25202">
        <ele>693.968311</ele>
        <time>2026-05-22T14:18:35.000Z</time>
      </trkpt>
      <trkpt lat="42.95421" lon="-1.25207">
        <ele>693.745689</ele>
        <time>2026-05-22T14:18:36.000Z</time>
      </trkpt>
      <trkpt lat="42.95413" lon="-1.25211">
        <ele>693.526114</ele>
        <time>2026-05-22T14:18:37.000Z</time>
      </trkpt>
      <trkpt lat="42.95405" lon="-1.25216">
        <ele>693.317285</ele>
        <time>2026-05-22T14:18:38.000Z</time>
      </trkpt>
      <trkpt lat="42.95398" lon="-1.25221">
        <ele>693.113793</ele>
        <time>2026-05-22T14:18:39.000Z</time>
      </trkpt>
      <trkpt lat="42.9539" lon="-1.25224">
        <ele>692.914461</ele>
        <time>2026-05-22T14:18:40.000Z</time>
      </trkpt>
      <trkpt lat="42.95383" lon="-1.25228">
        <ele>692.726511</ele>
        <time>2026-05-22T14:18:41.000Z</time>
      </trkpt>
      <trkpt lat="42.95377" lon="-1.25231">
        <ele>692.751769</ele>
        <time>2026-05-22T14:18:42.000Z</time>
      </trkpt>
      <trkpt lat="42.9537" lon="-1.25234">
        <ele>692.820308</ele>
        <time>2026-05-22T14:18:43.000Z</time>
      </trkpt>
      <trkpt lat="42.95364" lon="-1.25237">
        <ele>692.884951</ele>
        <time>2026-05-22T14:18:44.000Z</time>
      </trkpt>
      <trkpt lat="42.95357" lon="-1.25239">
        <ele>692.949642</ele>
        <time>2026-05-22T14:18:45.000Z</time>
      </trkpt>
      <trkpt lat="42.95351" lon="-1.25241">
        <ele>693.010022</ele>
        <time>2026-05-22T14:18:46.000Z</time>
      </trkpt>
      <trkpt lat="42.95345" lon="-1.25242">
        <ele>693.075233</ele>
        <time>2026-05-22T14:18:47.000Z</time>
      </trkpt>
      <trkpt lat="42.95339" lon="-1.25244">
        <ele>693.135336</ele>
        <time>2026-05-22T14:18:48.000Z</time>
      </trkpt>
      <trkpt lat="42.95333" lon="-1.25245">
        <ele>693.194113</ele>
        <time>2026-05-22T14:18:49.000Z</time>
      </trkpt>
      <trkpt lat="42.95327" lon="-1.25246">
        <ele>693.253119</ele>
        <time>2026-05-22T14:18:50.000Z</time>
      </trkpt>
      <trkpt lat="42.95321" lon="-1.25248">
        <ele>693.309842</ele>
        <time>2026-05-22T14:18:51.000Z</time>
      </trkpt>
      <trkpt lat="42.95316" lon="-1.25248">
        <ele>693.36736</ele>
        <time>2026-05-22T14:18:52.000Z</time>
      </trkpt>
      <trkpt lat="42.9531" lon="-1.2525">
        <ele>693.423215</ele>
        <time>2026-05-22T14:18:53.000Z</time>
      </trkpt>
      <trkpt lat="42.95304" lon="-1.25251">
        <ele>693.479589</ele>
        <time>2026-05-22T14:18:54.000Z</time>
      </trkpt>
      <trkpt lat="42.95299" lon="-1.25253">
        <ele>693.53278</ele>
        <time>2026-05-22T14:18:55.000Z</time>
      </trkpt>
      <trkpt lat="42.95293" lon="-1.25254">
        <ele>693.588528</ele>
        <time>2026-05-22T14:18:56.000Z</time>
      </trkpt>
      <trkpt lat="42.95288" lon="-1.25255">
        <ele>693.645356</ele>
        <time>2026-05-22T14:18:57.000Z</time>
      </trkpt>
      <trkpt lat="42.95282" lon="-1.25256">
        <ele>693.701327</ele>
        <time>2026-05-22T14:18:58.000Z</time>
      </trkpt>
      <trkpt lat="42.95277" lon="-1.25257">
        <ele>693.755236</ele>
        <time>2026-05-22T14:18:59.000Z</time>
      </trkpt>
      <trkpt lat="42.95271" lon="-1.25259">
        <ele>693.809682</ele>
        <time>2026-05-22T14:19:00.000Z</time>
      </trkpt>
      <trkpt lat="42.95266" lon="-1.2526">
        <ele>693.862873</ele>
        <time>2026-05-22T14:19:01.000Z</time>
      </trkpt>
      <trkpt lat="42.95261" lon="-1.25261">
        <ele>693.917302</ele>
        <time>2026-05-22T14:19:02.000Z</time>
      </trkpt>
      <trkpt lat="42.95255" lon="-1.25262">
        <ele>693.971975</ele>
        <time>2026-05-22T14:19:03.000Z</time>
      </trkpt>
      <trkpt lat="42.95249" lon="-1.25263">
        <ele>694.027946</ele>
        <time>2026-05-22T14:19:04.000Z</time>
      </trkpt>
      <trkpt lat="42.95244" lon="-1.25265">
        <ele>694.082946</ele>
        <time>2026-05-22T14:19:05.000Z</time>
      </trkpt>
      <trkpt lat="42.95239" lon="-1.25266">
        <ele>694.137105</ele>
        <time>2026-05-22T14:19:06.000Z</time>
      </trkpt>
      <trkpt lat="42.95233" lon="-1.25267">
        <ele>694.190902</ele>
        <time>2026-05-22T14:19:07.000Z</time>
      </trkpt>
      <trkpt lat="42.95228" lon="-1.25268">
        <ele>694.244506</ele>
        <time>2026-05-22T14:19:08.000Z</time>
      </trkpt>
      <trkpt lat="42.95222" lon="-1.25269">
        <ele>694.297226</ele>
        <time>2026-05-22T14:19:09.000Z</time>
      </trkpt>
      <trkpt lat="42.95217" lon="-1.2527">
        <ele>694.351134</ele>
        <time>2026-05-22T14:19:10.000Z</time>
      </trkpt>
      <trkpt lat="42.95212" lon="-1.25271">
        <ele>694.404738</ele>
        <time>2026-05-22T14:19:11.000Z</time>
      </trkpt>
      <trkpt lat="42.95206" lon="-1.25272">
        <ele>694.458536</ele>
        <time>2026-05-22T14:19:12.000Z</time>
      </trkpt>
      <trkpt lat="42.95201" lon="-1.25273">
        <ele>694.443221</ele>
        <time>2026-05-22T14:19:13.000Z</time>
      </trkpt>
      <trkpt lat="42.95196" lon="-1.25274">
        <ele>694.417039</ele>
        <time>2026-05-22T14:19:14.000Z</time>
      </trkpt>
      <trkpt lat="42.95191" lon="-1.25275">
        <ele>694.390289</ele>
        <time>2026-05-22T14:19:15.000Z</time>
      </trkpt>
      <trkpt lat="42.95186" lon="-1.25277">
        <ele>694.365282</ele>
        <time>2026-05-22T14:19:16.000Z</time>
      </trkpt>
      <trkpt lat="42.95181" lon="-1.25278">
        <ele>694.339555</ele>
        <time>2026-05-22T14:19:17.000Z</time>
      </trkpt>
      <trkpt lat="42.95177" lon="-1.25279">
        <ele>694.315138</ele>
        <time>2026-05-22T14:19:18.000Z</time>
      </trkpt>
      <trkpt lat="42.95172" lon="-1.25281">
        <ele>694.290721</ele>
        <time>2026-05-22T14:19:19.000Z</time>
      </trkpt>
      <trkpt lat="42.95167" lon="-1.25282">
        <ele>694.264929</ele>
        <time>2026-05-22T14:19:20.000Z</time>
      </trkpt>
      <trkpt lat="42.95162" lon="-1.25283">
        <ele>694.239576</ele>
        <time>2026-05-22T14:19:21.000Z</time>
      </trkpt>
      <trkpt lat="42.95157" lon="-1.25284">
        <ele>694.213907</ele>
        <time>2026-05-22T14:19:22.000Z</time>
      </trkpt>
      <trkpt lat="42.95152" lon="-1.25285">
        <ele>694.187351</ele>
        <time>2026-05-22T14:19:23.000Z</time>
      </trkpt>
      <trkpt lat="42.95147" lon="-1.25286">
        <ele>694.160239</ele>
        <time>2026-05-22T14:19:24.000Z</time>
      </trkpt>
      <trkpt lat="42.95142" lon="-1.25287">
        <ele>694.131439</ele>
        <time>2026-05-22T14:19:25.000Z</time>
      </trkpt>
      <trkpt lat="42.95136" lon="-1.25288">
        <ele>694.102381</ele>
        <time>2026-05-22T14:19:26.000Z</time>
      </trkpt>
      <trkpt lat="42.9513" lon="-1.2529">
        <ele>694.07193</ele>
        <time>2026-05-22T14:19:27.000Z</time>
      </trkpt>
      <trkpt lat="42.95125" lon="-1.25291">
        <ele>694.041591</ele>
        <time>2026-05-22T14:19:28.000Z</time>
      </trkpt>
      <trkpt lat="42.95119" lon="-1.25292">
        <ele>694.01074</ele>
        <time>2026-05-22T14:19:29.000Z</time>
      </trkpt>
      <trkpt lat="42.95113" lon="-1.25293">
        <ele>693.979203</ele>
        <time>2026-05-22T14:19:30.000Z</time>
      </trkpt>
      <trkpt lat="42.95107" lon="-1.25295">
        <ele>693.947156</ele>
        <time>2026-05-22T14:19:31.000Z</time>
      </trkpt>
      <trkpt lat="42.951" lon="-1.25296">
        <ele>693.915109</ele>
        <time>2026-05-22T14:19:32.000Z</time>
      </trkpt>
      <trkpt lat="42.95094" lon="-1.25298">
        <ele>693.881466</ele>
        <time>2026-05-22T14:19:33.000Z</time>
      </trkpt>
      <trkpt lat="42.95088" lon="-1.25299">
        <ele>693.848333</ele>
        <time>2026-05-22T14:19:34.000Z</time>
      </trkpt>
      <trkpt lat="42.95081" lon="-1.25301">
        <ele>693.814624</ele>
        <time>2026-05-22T14:19:35.000Z</time>
      </trkpt>
      <trkpt lat="42.95075" lon="-1.25302">
        <ele>693.780405</ele>
        <time>2026-05-22T14:19:36.000Z</time>
      </trkpt>
      <trkpt lat="42.95068" lon="-1.25304">
        <ele>693.746551</ele>
        <time>2026-05-22T14:19:37.000Z</time>
      </trkpt>
      <trkpt lat="42.95062" lon="-1.25306">
        <ele>693.712397</ele>
        <time>2026-05-22T14:19:38.000Z</time>
      </trkpt>
      <trkpt lat="42.95055" lon="-1.25307">
        <ele>693.678304</ele>
        <time>2026-05-22T14:19:39.000Z</time>
      </trkpt>
      <trkpt lat="42.95049" lon="-1.25309">
        <ele>693.643575</ele>
        <time>2026-05-22T14:19:40.000Z</time>
      </trkpt>
      <trkpt lat="42.95042" lon="-1.2531">
        <ele>693.608565</ele>
        <time>2026-05-22T14:19:41.000Z</time>
      </trkpt>
      <trkpt lat="42.95035" lon="-1.25311">
        <ele>693.573504</ele>
        <time>2026-05-22T14:19:42.000Z</time>
      </trkpt>
      <trkpt lat="42.95029" lon="-1.25313">
        <ele>693.538264</ele>
        <time>2026-05-22T14:19:43.000Z</time>
      </trkpt>
      <trkpt lat="42.95022" lon="-1.25314">
        <ele>693.44744</ele>
        <time>2026-05-22T14:19:44.000Z</time>
      </trkpt>
      <trkpt lat="42.95015" lon="-1.25316">
        <ele>693.354052</ele>
        <time>2026-05-22T14:19:45.000Z</time>
      </trkpt>
      <trkpt lat="42.95009" lon="-1.25317">
        <ele>693.260176</ele>
        <time>2026-05-22T14:19:46.000Z</time>
      </trkpt>
      <trkpt lat="42.95002" lon="-1.25319">
        <ele>693.162482</ele>
        <time>2026-05-22T14:19:47.000Z</time>
      </trkpt>
      <trkpt lat="42.94995" lon="-1.2532">
        <ele>693.064788</ele>
        <time>2026-05-22T14:19:48.000Z</time>
      </trkpt>
      <trkpt lat="42.94988" lon="-1.25321">
        <ele>692.96848</ele>
        <time>2026-05-22T14:19:49.000Z</time>
      </trkpt>
      <trkpt lat="42.94982" lon="-1.25323">
        <ele>692.874224</ele>
        <time>2026-05-22T14:19:50.000Z</time>
      </trkpt>
      <trkpt lat="42.94975" lon="-1.25325">
        <ele>692.778968</ele>
        <time>2026-05-22T14:19:51.000Z</time>
      </trkpt>
      <trkpt lat="42.94968" lon="-1.25326">
        <ele>692.682333</ele>
        <time>2026-05-22T14:19:52.000Z</time>
      </trkpt>
      <trkpt lat="42.94961" lon="-1.25328">
        <ele>692.583397</ele>
        <time>2026-05-22T14:19:53.000Z</time>
      </trkpt>
      <trkpt lat="42.94954" lon="-1.25329">
        <ele>692.488473</ele>
        <time>2026-05-22T14:19:54.000Z</time>
      </trkpt>
      <trkpt lat="42.94948" lon="-1.2533">
        <ele>692.392574</ele>
        <time>2026-05-22T14:19:55.000Z</time>
      </trkpt>
      <trkpt lat="42.94941" lon="-1.25331">
        <ele>692.295501</ele>
        <time>2026-05-22T14:19:56.000Z</time>
      </trkpt>
      <trkpt lat="42.94934" lon="-1.25332">
        <ele>692.199915</ele>
        <time>2026-05-22T14:19:57.000Z</time>
      </trkpt>
      <trkpt lat="42.94927" lon="-1.25333">
        <ele>692.101448</ele>
        <time>2026-05-22T14:19:58.000Z</time>
      </trkpt>
      <trkpt lat="42.9492" lon="-1.25334">
        <ele>692.003071</ele>
        <time>2026-05-22T14:19:59.000Z</time>
      </trkpt>
      <trkpt lat="42.94913" lon="-1.25334">
        <ele>691.903504</ele>
        <time>2026-05-22T14:20:00.000Z</time>
      </trkpt>
      <trkpt lat="42.94906" lon="-1.25335">
        <ele>691.802414</ele>
        <time>2026-05-22T14:20:01.000Z</time>
      </trkpt>
      <trkpt lat="42.94899" lon="-1.25335">
        <ele>691.705693</ele>
        <time>2026-05-22T14:20:02.000Z</time>
      </trkpt>
      <trkpt lat="42.94892" lon="-1.25336">
        <ele>691.609011</ele>
        <time>2026-05-22T14:20:03.000Z</time>
      </trkpt>
      <trkpt lat="42.94885" lon="-1.25336">
        <ele>691.510928</ele>
        <time>2026-05-22T14:20:04.000Z</time>
      </trkpt>
      <trkpt lat="42.94878" lon="-1.25336">
        <ele>691.411488</ele>
        <time>2026-05-22T14:20:05.000Z</time>
      </trkpt>
      <trkpt lat="42.94871" lon="-1.25336">
        <ele>691.312048</ele>
        <time>2026-05-22T14:20:06.000Z</time>
      </trkpt>
      <trkpt lat="42.94864" lon="-1.25335">
        <ele>691.216726</ele>
        <time>2026-05-22T14:20:07.000Z</time>
      </trkpt>
      <trkpt lat="42.94857" lon="-1.25335">
        <ele>691.120087</ele>
        <time>2026-05-22T14:20:08.000Z</time>
      </trkpt>
      <trkpt lat="42.9485" lon="-1.25335">
        <ele>691.024854</ele>
        <time>2026-05-22T14:20:09.000Z</time>
      </trkpt>
      <trkpt lat="42.94843" lon="-1.25336">
        <ele>691.043582</ele>
        <time>2026-05-22T14:20:10.000Z</time>
      </trkpt>
      <trkpt lat="42.94836" lon="-1.25337">
        <ele>691.074481</ele>
        <time>2026-05-22T14:20:11.000Z</time>
      </trkpt>
      <trkpt lat="42.94829" lon="-1.25337">
        <ele>691.10492</ele>
        <time>2026-05-22T14:20:12.000Z</time>
      </trkpt>
      <trkpt lat="42.94822" lon="-1.25338">
        <ele>691.135418</ele>
        <time>2026-05-22T14:20:13.000Z</time>
      </trkpt>
      <trkpt lat="42.94815" lon="-1.25338">
        <ele>691.163746</ele>
        <time>2026-05-22T14:20:14.000Z</time>
      </trkpt>
      <trkpt lat="42.94809" lon="-1.25339">
        <ele>691.191363</ele>
        <time>2026-05-22T14:20:15.000Z</time>
      </trkpt>
      <trkpt lat="42.94803" lon="-1.25342">
        <ele>691.218548</ele>
        <time>2026-05-22T14:20:16.000Z</time>
      </trkpt>
      <trkpt lat="42.94797" lon="-1.25344">
        <ele>691.245408</ele>
        <time>2026-05-22T14:20:17.000Z</time>
      </trkpt>
      <trkpt lat="42.94792" lon="-1.25348">
        <ele>691.272597</ele>
        <time>2026-05-22T14:20:18.000Z</time>
      </trkpt>
      <trkpt lat="42.94786" lon="-1.25352">
        <ele>691.300694</ele>
        <time>2026-05-22T14:20:19.000Z</time>
      </trkpt>
      <trkpt lat="42.9478" lon="-1.25356">
        <ele>691.327023</ele>
        <time>2026-05-22T14:20:20.000Z</time>
      </trkpt>
      <trkpt lat="42.94776" lon="-1.2536">
        <ele>691.351843</ele>
        <time>2026-05-22T14:20:21.000Z</time>
      </trkpt>
      <trkpt lat="42.9477" lon="-1.25364">
        <ele>691.377737</ele>
        <time>2026-05-22T14:20:22.000Z</time>
      </trkpt>
      <trkpt lat="42.94765" lon="-1.25368">
        <ele>691.404981</ele>
        <time>2026-05-22T14:20:23.000Z</time>
      </trkpt>
      <trkpt lat="42.9476" lon="-1.25372">
        <ele>691.43138</ele>
        <time>2026-05-22T14:20:24.000Z</time>
      </trkpt>
      <trkpt lat="42.94755" lon="-1.25377">
        <ele>691.456875</ele>
        <time>2026-05-22T14:20:25.000Z</time>
      </trkpt>
      <trkpt lat="42.9475" lon="-1.25381">
        <ele>691.482548</ele>
        <time>2026-05-22T14:20:26.000Z</time>
      </trkpt>
      <trkpt lat="42.94745" lon="-1.25386">
        <ele>691.508582</ele>
        <time>2026-05-22T14:20:27.000Z</time>
      </trkpt>
      <trkpt lat="42.94741" lon="-1.25391">
        <ele>691.533909</ele>
        <time>2026-05-22T14:20:28.000Z</time>
      </trkpt>
      <trkpt lat="42.94736" lon="-1.25395">
        <ele>691.558684</ele>
        <time>2026-05-22T14:20:29.000Z</time>
      </trkpt>
      <trkpt lat="42.94731" lon="-1.254">
        <ele>691.583101</ele>
        <time>2026-05-22T14:20:30.000Z</time>
      </trkpt>
      <trkpt lat="42.94727" lon="-1.25404">
        <ele>691.606984</ele>
        <time>2026-05-22T14:20:31.000Z</time>
      </trkpt>
      <trkpt lat="42.94722" lon="-1.25408">
        <ele>691.630507</ele>
        <time>2026-05-22T14:20:32.000Z</time>
      </trkpt>
      <trkpt lat="42.94718" lon="-1.25412">
        <ele>691.654565</ele>
        <time>2026-05-22T14:20:33.000Z</time>
      </trkpt>
      <trkpt lat="42.94713" lon="-1.25416">
        <ele>691.679351</ele>
        <time>2026-05-22T14:20:34.000Z</time>
      </trkpt>
      <trkpt lat="42.94708" lon="-1.25421">
        <ele>691.703234</ele>
        <time>2026-05-22T14:20:35.000Z</time>
      </trkpt>
      <trkpt lat="42.94704" lon="-1.25425">
        <ele>691.726757</ele>
        <time>2026-05-22T14:20:36.000Z</time>
      </trkpt>
      <trkpt lat="42.94699" lon="-1.25429">
        <ele>691.751359</ele>
        <time>2026-05-22T14:20:37.000Z</time>
      </trkpt>
      <trkpt lat="42.94695" lon="-1.25434">
        <ele>691.77472</ele>
        <time>2026-05-22T14:20:38.000Z</time>
      </trkpt>
      <trkpt lat="42.94691" lon="-1.25438">
        <ele>691.798454</ele>
        <time>2026-05-22T14:20:39.000Z</time>
      </trkpt>
      <trkpt lat="42.94686" lon="-1.25442">
        <ele>691.867868</ele>
        <time>2026-05-22T14:20:40.000Z</time>
      </trkpt>
      <trkpt lat="42.94682" lon="-1.25447">
        <ele>691.93833</ele>
        <time>2026-05-22T14:20:41.000Z</time>
      </trkpt>
      <trkpt lat="42.94678" lon="-1.25452">
        <ele>692.007821</ele>
        <time>2026-05-22T14:20:42.000Z</time>
      </trkpt>
      <trkpt lat="42.94675" lon="-1.25457">
        <ele>692.077965</ele>
        <time>2026-05-22T14:20:43.000Z</time>
      </trkpt>
      <trkpt lat="42.94671" lon="-1.25462">
        <ele>692.146675</ele>
        <time>2026-05-22T14:20:44.000Z</time>
      </trkpt>
      <trkpt lat="42.94668" lon="-1.25468">
        <ele>692.215055</ele>
        <time>2026-05-22T14:20:45.000Z</time>
      </trkpt>
      <trkpt lat="42.94664" lon="-1.25473">
        <ele>692.283766</ele>
        <time>2026-05-22T14:20:46.000Z</time>
      </trkpt>
      <trkpt lat="42.9466" lon="-1.25478">
        <ele>692.350879</ele>
        <time>2026-05-22T14:20:47.000Z</time>
      </trkpt>
      <trkpt lat="42.94658" lon="-1.25483">
        <ele>692.413637</ele>
        <time>2026-05-22T14:20:48.000Z</time>
      </trkpt>
      <trkpt lat="42.94655" lon="-1.25489">
        <ele>692.477952</ele>
        <time>2026-05-22T14:20:49.000Z</time>
      </trkpt>
      <trkpt lat="42.94652" lon="-1.25494">
        <ele>692.541527</ele>
        <time>2026-05-22T14:20:50.000Z</time>
      </trkpt>
      <trkpt lat="42.94649" lon="-1.25499">
        <ele>692.603499</ele>
        <time>2026-05-22T14:20:51.000Z</time>
      </trkpt>
      <trkpt lat="42.94647" lon="-1.25505">
        <ele>692.662424</ele>
        <time>2026-05-22T14:20:52.000Z</time>
      </trkpt>
      <trkpt lat="42.94644" lon="-1.2551">
        <ele>692.724576</ele>
        <time>2026-05-22T14:20:53.000Z</time>
      </trkpt>
      <trkpt lat="42.94642" lon="-1.25516">
        <ele>692.78962</ele>
        <time>2026-05-22T14:20:54.000Z</time>
      </trkpt>
      <trkpt lat="42.9464" lon="-1.25522">
        <ele>692.853262</ele>
        <time>2026-05-22T14:20:55.000Z</time>
      </trkpt>
      <trkpt lat="42.94638" lon="-1.25529">
        <ele>692.919185</ele>
        <time>2026-05-22T14:20:56.000Z</time>
      </trkpt>
      <trkpt lat="42.94637" lon="-1.25535">
        <ele>692.981846</ele>
        <time>2026-05-22T14:20:57.000Z</time>
      </trkpt>
      <trkpt lat="42.94635" lon="-1.25541">
        <ele>693.044958</ele>
        <time>2026-05-22T14:20:58.000Z</time>
      </trkpt>
      <trkpt lat="42.94634" lon="-1.25547">
        <ele>693.106734</ele>
        <time>2026-05-22T14:20:59.000Z</time>
      </trkpt>
      <trkpt lat="42.94632" lon="-1.25553">
        <ele>693.169874</ele>
        <time>2026-05-22T14:21:00.000Z</time>
      </trkpt>
      <trkpt lat="42.9463" lon="-1.25559">
        <ele>693.235797</ele>
        <time>2026-05-22T14:21:01.000Z</time>
      </trkpt>
      <trkpt lat="42.94628" lon="-1.25566">
        <ele>693.301381</ele>
        <time>2026-05-22T14:21:02.000Z</time>
      </trkpt>
      <trkpt lat="42.94626" lon="-1.25572">
        <ele>693.368098</ele>
        <time>2026-05-22T14:21:03.000Z</time>
      </trkpt>
      <trkpt lat="42.94624" lon="-1.25579">
        <ele>693.435714</ele>
        <time>2026-05-22T14:21:04.000Z</time>
      </trkpt>
      <trkpt lat="42.94622" lon="-1.25585">
        <ele>693.50423</ele>
        <time>2026-05-22T14:21:05.000Z</time>
      </trkpt>
      <trkpt lat="42.9462" lon="-1.25592">
        <ele>693.570153</ele>
        <time>2026-05-22T14:21:06.000Z</time>
      </trkpt>
      <trkpt lat="42.94619" lon="-1.25598">
        <ele>693.635514</ele>
        <time>2026-05-22T14:21:07.000Z</time>
      </trkpt>
      <trkpt lat="42.94617" lon="-1.25605">
        <ele>693.70409</ele>
        <time>2026-05-22T14:21:08.000Z</time>
      </trkpt>
      <trkpt lat="42.94615" lon="-1.25611">
        <ele>693.770895</ele>
        <time>2026-05-22T14:21:09.000Z</time>
      </trkpt>
      <trkpt lat="42.94613" lon="-1.25617">
        <ele>693.833583</ele>
        <time>2026-05-22T14:21:10.000Z</time>
      </trkpt>
      <trkpt lat="42.94611" lon="-1.25623">
        <ele>693.89579</ele>
        <time>2026-05-22T14:21:11.000Z</time>
      </trkpt>
      <trkpt lat="42.9461" lon="-1.2563">
        <ele>693.96161</ele>
        <time>2026-05-22T14:21:12.000Z</time>
      </trkpt>
      <trkpt lat="42.94608" lon="-1.25636">
        <ele>694.023387</ele>
        <time>2026-05-22T14:21:13.000Z</time>
      </trkpt>
      <trkpt lat="42.94607" lon="-1.25642">
        <ele>694.086498</ele>
        <time>2026-05-22T14:21:14.000Z</time>
      </trkpt>
      <trkpt lat="42.94605" lon="-1.25648">
        <ele>694.146477</ele>
        <time>2026-05-22T14:21:15.000Z</time>
      </trkpt>
      <trkpt lat="42.94603" lon="-1.25653">
        <ele>694.248706</ele>
        <time>2026-05-22T14:21:16.000Z</time>
      </trkpt>
      <trkpt lat="42.94602" lon="-1.25659">
        <ele>694.359492</ele>
        <time>2026-05-22T14:21:17.000Z</time>
      </trkpt>
      <trkpt lat="42.94601" lon="-1.25664">
        <ele>694.471999</ele>
        <time>2026-05-22T14:21:18.000Z</time>
      </trkpt>
      <trkpt lat="42.94599" lon="-1.2567">
        <ele>694.58092</ele>
        <time>2026-05-22T14:21:19.000Z</time>
      </trkpt>
      <trkpt lat="42.94598" lon="-1.25675">
        <ele>694.688926</ele>
        <time>2026-05-22T14:21:20.000Z</time>
      </trkpt>
      <trkpt lat="42.94596" lon="-1.2568">
        <ele>694.799638</ele>
        <time>2026-05-22T14:21:21.000Z</time>
      </trkpt>
      <trkpt lat="42.94595" lon="-1.25685">
        <ele>694.901446</ele>
        <time>2026-05-22T14:21:22.000Z</time>
      </trkpt>
      <trkpt lat="42.94593" lon="-1.2569">
        <ele>695.001936</ele>
        <time>2026-05-22T14:21:23.000Z</time>
      </trkpt>
      <trkpt lat="42.94591" lon="-1.25695">
        <ele>695.109354</ele>
        <time>2026-05-22T14:21:24.000Z</time>
      </trkpt>
      <trkpt lat="42.94589" lon="-1.257">
        <ele>695.22255</ele>
        <time>2026-05-22T14:21:25.000Z</time>
      </trkpt>
      <trkpt lat="42.94587" lon="-1.25705">
        <ele>695.330831</ele>
        <time>2026-05-22T14:21:26.000Z</time>
      </trkpt>
      <trkpt lat="42.94584" lon="-1.25709">
        <ele>695.434559</ele>
        <time>2026-05-22T14:21:27.000Z</time>
      </trkpt>
      <trkpt lat="42.94582" lon="-1.25714">
        <ele>695.535803</ele>
        <time>2026-05-22T14:21:28.000Z</time>
      </trkpt>
      <trkpt lat="42.9458" lon="-1.25718">
        <ele>695.636365</ele>
        <time>2026-05-22T14:21:29.000Z</time>
      </trkpt>
      <trkpt lat="42.94578" lon="-1.25722">
        <ele>695.736995</ele>
        <time>2026-05-22T14:21:30.000Z</time>
      </trkpt>
      <trkpt lat="42.94576" lon="-1.25726">
        <ele>695.837538</ele>
        <time>2026-05-22T14:21:31.000Z</time>
      </trkpt>
      <trkpt lat="42.94573" lon="-1.25731">
        <ele>695.934983</ele>
        <time>2026-05-22T14:21:32.000Z</time>
      </trkpt>
      <trkpt lat="42.94571" lon="-1.25735">
        <ele>696.03248</ele>
        <time>2026-05-22T14:21:33.000Z</time>
      </trkpt>
      <trkpt lat="42.94569" lon="-1.25739">
        <ele>696.134614</ele>
        <time>2026-05-22T14:21:34.000Z</time>
      </trkpt>
      <trkpt lat="42.94566" lon="-1.25743">
        <ele>696.235435</ele>
        <time>2026-05-22T14:21:35.000Z</time>
      </trkpt>
      <trkpt lat="42.94564" lon="-1.25747">
        <ele>696.339416</ele>
        <time>2026-05-22T14:21:36.000Z</time>
      </trkpt>
      <trkpt lat="42.94561" lon="-1.25751">
        <ele>696.443182</ele>
        <time>2026-05-22T14:21:37.000Z</time>
      </trkpt>
      <trkpt lat="42.94559" lon="-1.25755">
        <ele>696.543812</ele>
        <time>2026-05-22T14:21:38.000Z</time>
      </trkpt>
      <trkpt lat="42.94556" lon="-1.25759">
        <ele>696.644927</ele>
        <time>2026-05-22T14:21:39.000Z</time>
      </trkpt>
      <trkpt lat="42.94554" lon="-1.25763">
        <ele>696.742428</ele>
        <time>2026-05-22T14:21:40.000Z</time>
      </trkpt>
      <trkpt lat="42.94552" lon="-1.25767">
        <ele>696.83993</ele>
        <time>2026-05-22T14:21:41.000Z</time>
      </trkpt>
      <trkpt lat="42.94549" lon="-1.25771">
        <ele>696.942826</ele>
        <time>2026-05-22T14:21:42.000Z</time>
      </trkpt>
      <trkpt lat="42.94546" lon="-1.25775">
        <ele>697.044339</ele>
        <time>2026-05-22T14:21:43.000Z</time>
      </trkpt>
      <trkpt lat="42.94544" lon="-1.25779">
        <ele>697.143709</ele>
        <time>2026-05-22T14:21:44.000Z</time>
      </trkpt>
      <trkpt lat="42.94541" lon="-1.25783">
        <ele>697.244253</ele>
        <time>2026-05-22T14:21:45.000Z</time>
      </trkpt>
      <trkpt lat="42.94539" lon="-1.25787">
        <ele>697.340174</ele>
        <time>2026-05-22T14:21:46.000Z</time>
      </trkpt>
      <trkpt lat="42.94537" lon="-1.25791">
        <ele>697.436094</ele>
        <time>2026-05-22T14:21:47.000Z</time>
      </trkpt>
      <trkpt lat="42.94535" lon="-1.25795">
        <ele>697.534031</ele>
        <time>2026-05-22T14:21:48.000Z</time>
      </trkpt>
      <trkpt lat="42.94532" lon="-1.25798">
        <ele>697.63019</ele>
        <time>2026-05-22T14:21:49.000Z</time>
      </trkpt>
      <trkpt lat="42.94529" lon="-1.25802">
        <ele>697.723793</ele>
        <time>2026-05-22T14:21:50.000Z</time>
      </trkpt>
      <trkpt lat="42.94527" lon="-1.25805">
        <ele>697.817532</ele>
        <time>2026-05-22T14:21:51.000Z</time>
      </trkpt>
      <trkpt lat="42.94524" lon="-1.25809">
        <ele>697.915847</ele>
        <time>2026-05-22T14:21:52.000Z</time>
      </trkpt>
      <trkpt lat="42.94522" lon="-1.25813">
        <ele>698.013513</ele>
        <time>2026-05-22T14:21:53.000Z</time>
      </trkpt>
      <trkpt lat="42.9452" lon="-1.25817">
        <ele>698.108029</ele>
        <time>2026-05-22T14:21:54.000Z</time>
      </trkpt>
      <trkpt lat="42.94517" lon="-1.2582">
        <ele>698.199064</ele>
        <time>2026-05-22T14:21:55.000Z</time>
      </trkpt>
      <trkpt lat="42.94515" lon="-1.25823">
        <ele>698.294184</ele>
        <time>2026-05-22T14:21:56.000Z</time>
      </trkpt>
      <trkpt lat="42.94512" lon="-1.25827">
        <ele>698.392982</ele>
        <time>2026-05-22T14:21:57.000Z</time>
      </trkpt>
      <trkpt lat="42.94509" lon="-1.25831">
        <ele>698.484911</ele>
        <time>2026-05-22T14:21:58.000Z</time>
      </trkpt>
      <trkpt lat="42.94507" lon="-1.25834">
        <ele>698.572255</ele>
        <time>2026-05-22T14:21:59.000Z</time>
      </trkpt>
      <trkpt lat="42.94505" lon="-1.25837">
        <ele>698.662414</ele>
        <time>2026-05-22T14:22:00.000Z</time>
      </trkpt>
      <trkpt lat="42.94503" lon="-1.25841">
        <ele>698.747973</ele>
        <time>2026-05-22T14:22:01.000Z</time>
      </trkpt>
      <trkpt lat="42.94501" lon="-1.25844">
        <ele>698.828938</ele>
        <time>2026-05-22T14:22:02.000Z</time>
      </trkpt>
      <trkpt lat="42.94498" lon="-1.25847">
        <ele>698.900052</ele>
        <time>2026-05-22T14:22:03.000Z</time>
      </trkpt>
      <trkpt lat="42.94496" lon="-1.25851">
        <ele>698.958047</ele>
        <time>2026-05-22T14:22:04.000Z</time>
      </trkpt>
      <trkpt lat="42.94494" lon="-1.25854">
        <ele>699.017045</ele>
        <time>2026-05-22T14:22:05.000Z</time>
      </trkpt>
      <trkpt lat="42.94492" lon="-1.25857">
        <ele>699.076448</ele>
        <time>2026-05-22T14:22:06.000Z</time>
      </trkpt>
      <trkpt lat="42.9449" lon="-1.25861">
        <ele>699.137586</ele>
        <time>2026-05-22T14:22:07.000Z</time>
      </trkpt>
      <trkpt lat="42.94487" lon="-1.25865">
        <ele>699.198904</ele>
        <time>2026-05-22T14:22:08.000Z</time>
      </trkpt>
      <trkpt lat="42.94485" lon="-1.25868">
        <ele>699.258915</ele>
        <time>2026-05-22T14:22:09.000Z</time>
      </trkpt>
      <trkpt lat="42.94484" lon="-1.25872">
        <ele>699.320128</ele>
        <time>2026-05-22T14:22:10.000Z</time>
      </trkpt>
      <trkpt lat="42.94482" lon="-1.25876">
        <ele>699.382292</ele>
        <time>2026-05-22T14:22:11.000Z</time>
      </trkpt>
      <trkpt lat="42.9448" lon="-1.2588">
        <ele>699.441211</ele>
        <time>2026-05-22T14:22:12.000Z</time>
      </trkpt>
      <trkpt lat="42.94478" lon="-1.25883">
        <ele>699.499096</ele>
        <time>2026-05-22T14:22:13.000Z</time>
      </trkpt>
      <trkpt lat="42.94476" lon="-1.25887">
        <ele>699.555959</ele>
        <time>2026-05-22T14:22:14.000Z</time>
      </trkpt>
      <trkpt lat="42.94474" lon="-1.2589">
        <ele>699.612795</ele>
        <time>2026-05-22T14:22:15.000Z</time>
      </trkpt>
      <trkpt lat="42.94472" lon="-1.25894">
        <ele>699.672901</ele>
        <time>2026-05-22T14:22:16.000Z</time>
      </trkpt>
      <trkpt lat="42.9447" lon="-1.25898">
        <ele>699.732895</ele>
        <time>2026-05-22T14:22:17.000Z</time>
      </trkpt>
      <trkpt lat="42.94468" lon="-1.25902">
        <ele>699.793932</ele>
        <time>2026-05-22T14:22:18.000Z</time>
      </trkpt>
      <trkpt lat="42.94466" lon="-1.25905">
        <ele>699.853092</ele>
        <time>2026-05-22T14:22:19.000Z</time>
      </trkpt>
      <trkpt lat="42.94464" lon="-1.25909">
        <ele>699.910951</ele>
        <time>2026-05-22T14:22:20.000Z</time>
      </trkpt>
      <trkpt lat="42.94462" lon="-1.25912">
        <ele>699.965711</ele>
        <time>2026-05-22T14:22:21.000Z</time>
      </trkpt>
      <trkpt lat="42.94461" lon="-1.25916">
        <ele>700.021562</ele>
        <time>2026-05-22T14:22:22.000Z</time>
      </trkpt>
      <trkpt lat="42.94459" lon="-1.25919">
        <ele>700.076322</ele>
        <time>2026-05-22T14:22:23.000Z</time>
      </trkpt>
      <trkpt lat="42.94457" lon="-1.25923">
        <ele>700.131082</ele>
        <time>2026-05-22T14:22:24.000Z</time>
      </trkpt>
      <trkpt lat="42.94456" lon="-1.25926">
        <ele>700.187106</ele>
        <time>2026-05-22T14:22:25.000Z</time>
      </trkpt>
      <trkpt lat="42.94454" lon="-1.2593">
        <ele>700.24111</ele>
        <time>2026-05-22T14:22:26.000Z</time>
      </trkpt>
      <trkpt lat="42.94452" lon="-1.25934">
        <ele>700.29826</ele>
        <time>2026-05-22T14:22:27.000Z</time>
      </trkpt>
      <trkpt lat="42.94451" lon="-1.25938">
        <ele>700.354889</ele>
        <time>2026-05-22T14:22:28.000Z</time>
      </trkpt>
      <trkpt lat="42.9445" lon="-1.25942">
        <ele>700.411517</ele>
        <time>2026-05-22T14:22:29.000Z</time>
      </trkpt>
      <trkpt lat="42.94448" lon="-1.25946">
        <ele>700.471272</ele>
        <time>2026-05-22T14:22:30.000Z</time>
      </trkpt>
      <trkpt lat="42.94446" lon="-1.2595">
        <ele>700.534721</ele>
        <time>2026-05-22T14:22:31.000Z</time>
      </trkpt>
      <trkpt lat="42.94444" lon="-1.25954">
        <ele>700.599088</ele>
        <time>2026-05-22T14:22:32.000Z</time>
      </trkpt>
      <trkpt lat="42.94443" lon="-1.25959">
        <ele>700.668241</ele>
        <time>2026-05-22T14:22:33.000Z</time>
      </trkpt>
      <trkpt lat="42.94441" lon="-1.25963">
        <ele>700.735094</ele>
        <time>2026-05-22T14:22:34.000Z</time>
      </trkpt>
      <trkpt lat="42.94439" lon="-1.25968">
        <ele>700.804844</ele>
        <time>2026-05-22T14:22:35.000Z</time>
      </trkpt>
      <trkpt lat="42.94437" lon="-1.25973">
        <ele>700.875719</ele>
        <time>2026-05-22T14:22:36.000Z</time>
      </trkpt>
      <trkpt lat="42.94435" lon="-1.25978">
        <ele>700.948859</ele>
        <time>2026-05-22T14:22:37.000Z</time>
      </trkpt>
      <trkpt lat="42.94433" lon="-1.25983">
        <ele>701.0215</ele>
        <time>2026-05-22T14:22:38.000Z</time>
      </trkpt>
      <trkpt lat="42.94431" lon="-1.25988">
        <ele>701.095781</ele>
        <time>2026-05-22T14:22:39.000Z</time>
      </trkpt>
      <trkpt lat="42.94429" lon="-1.25993">
        <ele>701.171951</ele>
        <time>2026-05-22T14:22:40.000Z</time>
      </trkpt>
      <trkpt lat="42.94427" lon="-1.25998">
        <ele>701.249687</ele>
        <time>2026-05-22T14:22:41.000Z</time>
      </trkpt>
      <trkpt lat="42.94425" lon="-1.26003">
        <ele>701.328894</ele>
        <time>2026-05-22T14:22:42.000Z</time>
      </trkpt>
      <trkpt lat="42.94423" lon="-1.26009">
        <ele>701.4081</ele>
        <time>2026-05-22T14:22:43.000Z</time>
      </trkpt>
      <trkpt lat="42.94421" lon="-1.26014">
        <ele>701.487817</ele>
        <time>2026-05-22T14:22:44.000Z</time>
      </trkpt>
      <trkpt lat="42.94418" lon="-1.2602">
        <ele>701.574446</ele>
        <time>2026-05-22T14:22:45.000Z</time>
      </trkpt>
      <trkpt lat="42.94416" lon="-1.26025">
        <ele>701.660172</ele>
        <time>2026-05-22T14:22:46.000Z</time>
      </trkpt>
      <trkpt lat="42.94413" lon="-1.26031">
        <ele>701.748684</ele>
        <time>2026-05-22T14:22:47.000Z</time>
      </trkpt>
      <trkpt lat="42.9441" lon="-1.26037">
        <ele>701.841617</ele>
        <time>2026-05-22T14:22:48.000Z</time>
      </trkpt>
      <trkpt lat="42.94408" lon="-1.26043">
        <ele>701.933051</ele>
        <time>2026-05-22T14:22:49.000Z</time>
      </trkpt>
      <trkpt lat="42.94405" lon="-1.2605">
        <ele>702.029137</ele>
        <time>2026-05-22T14:22:50.000Z</time>
      </trkpt>
      <trkpt lat="42.94402" lon="-1.26056">
        <ele>702.000477</ele>
        <time>2026-05-22T14:22:51.000Z</time>
      </trkpt>
      <trkpt lat="42.944" lon="-1.26062">
        <ele>701.878217</ele>
        <time>2026-05-22T14:22:52.000Z</time>
      </trkpt>
      <trkpt lat="42.94397" lon="-1.26068">
        <ele>701.757438</ele>
        <time>2026-05-22T14:22:53.000Z</time>
      </trkpt>
      <trkpt lat="42.94394" lon="-1.26074">
        <ele>701.635688</ele>
        <time>2026-05-22T14:22:54.000Z</time>
      </trkpt>
      <trkpt lat="42.94392" lon="-1.2608">
        <ele>701.513937</ele>
        <time>2026-05-22T14:22:55.000Z</time>
      </trkpt>
      <trkpt lat="42.94389" lon="-1.26086">
        <ele>701.393426</ele>
        <time>2026-05-22T14:22:56.000Z</time>
      </trkpt>
      <trkpt lat="42.94387" lon="-1.26092">
        <ele>701.277538</ele>
        <time>2026-05-22T14:22:57.000Z</time>
      </trkpt>
      <trkpt lat="42.94384" lon="-1.26098">
        <ele>701.16165</ele>
        <time>2026-05-22T14:22:58.000Z</time>
      </trkpt>
      <trkpt lat="42.94382" lon="-1.26104">
        <ele>701.044659</ele>
        <time>2026-05-22T14:22:59.000Z</time>
      </trkpt>
      <trkpt lat="42.94379" lon="-1.2611">
        <ele>700.92653</ele>
        <time>2026-05-22T14:23:00.000Z</time>
      </trkpt>
      <trkpt lat="42.94377" lon="-1.26116">
        <ele>700.804269</ele>
        <time>2026-05-22T14:23:01.000Z</time>
      </trkpt>
      <trkpt lat="42.94374" lon="-1.26123">
        <ele>700.679028</ele>
        <time>2026-05-22T14:23:02.000Z</time>
      </trkpt>
      <trkpt lat="42.94372" lon="-1.26129">
        <ele>700.559408</ele>
        <time>2026-05-22T14:23:03.000Z</time>
      </trkpt>
      <trkpt lat="42.94369" lon="-1.26135">
        <ele>700.441574</ele>
        <time>2026-05-22T14:23:04.000Z</time>
      </trkpt>
      <trkpt lat="42.94367" lon="-1.26141">
        <ele>700.321955</ele>
        <time>2026-05-22T14:23:05.000Z</time>
      </trkpt>
      <trkpt lat="42.94364" lon="-1.26147">
        <ele>700.195562</ele>
        <time>2026-05-22T14:23:06.000Z</time>
      </trkpt>
      <trkpt lat="42.94361" lon="-1.26154">
        <ele>700.066772</ele>
        <time>2026-05-22T14:23:07.000Z</time>
      </trkpt>
      <trkpt lat="42.94358" lon="-1.2616">
        <ele>699.937725</ele>
        <time>2026-05-22T14:23:08.000Z</time>
      </trkpt>
      <trkpt lat="42.94355" lon="-1.26167">
        <ele>699.800824</ele>
        <time>2026-05-22T14:23:09.000Z</time>
      </trkpt>
      <trkpt lat="42.94353" lon="-1.26174">
        <ele>699.665456</ele>
        <time>2026-05-22T14:23:10.000Z</time>
      </trkpt>
      <trkpt lat="42.94351" lon="-1.26181">
        <ele>699.534742</ele>
        <time>2026-05-22T14:23:11.000Z</time>
      </trkpt>
      <trkpt lat="42.94348" lon="-1.26188">
        <ele>699.404395</ele>
        <time>2026-05-22T14:23:12.000Z</time>
      </trkpt>
      <trkpt lat="42.94347" lon="-1.26195">
        <ele>699.277446</ele>
        <time>2026-05-22T14:23:13.000Z</time>
      </trkpt>
      <trkpt lat="42.94346" lon="-1.26203">
        <ele>699.148351</ele>
        <time>2026-05-22T14:23:14.000Z</time>
      </trkpt>
      <trkpt lat="42.94346" lon="-1.2621">
        <ele>699.023421</ele>
        <time>2026-05-22T14:23:15.000Z</time>
      </trkpt>
      <trkpt lat="42.94346" lon="-1.26218">
        <ele>698.886356</ele>
        <time>2026-05-22T14:23:16.000Z</time>
      </trkpt>
      <trkpt lat="42.94347" lon="-1.26227">
        <ele>698.739402</ele>
        <time>2026-05-22T14:23:17.000Z</time>
      </trkpt>
      <trkpt lat="42.9435" lon="-1.26235">
        <ele>698.583524</ele>
        <time>2026-05-22T14:23:18.000Z</time>
      </trkpt>
      <trkpt lat="42.94353" lon="-1.26243">
        <ele>698.421107</ele>
        <time>2026-05-22T14:23:19.000Z</time>
      </trkpt>
      <trkpt lat="42.94357" lon="-1.26252">
        <ele>698.24846</ele>
        <time>2026-05-22T14:23:20.000Z</time>
      </trkpt>
      <trkpt lat="42.94362" lon="-1.2626">
        <ele>698.068963</ele>
        <time>2026-05-22T14:23:21.000Z</time>
      </trkpt>
      <trkpt lat="42.94367" lon="-1.26269">
        <ele>697.883713</ele>
        <time>2026-05-22T14:23:22.000Z</time>
      </trkpt>
      <trkpt lat="42.94372" lon="-1.26277">
        <ele>697.484696</ele>
        <time>2026-05-22T14:23:23.000Z</time>
      </trkpt>
      <trkpt lat="42.94377" lon="-1.26286">
        <ele>697.05552</ele>
        <time>2026-05-22T14:23:24.000Z</time>
      </trkpt>
      <trkpt lat="42.94383" lon="-1.26295">
        <ele>696.62955</ele>
        <time>2026-05-22T14:23:25.000Z</time>
      </trkpt>
      <trkpt lat="42.94387" lon="-1.26304">
        <ele>696.213006</ele>
        <time>2026-05-22T14:23:26.000Z</time>
      </trkpt>
      <trkpt lat="42.94392" lon="-1.26313">
        <ele>695.802485</ele>
        <time>2026-05-22T14:23:27.000Z</time>
      </trkpt>
      <trkpt lat="42.94397" lon="-1.26321">
        <ele>695.39425</ele>
        <time>2026-05-22T14:23:28.000Z</time>
      </trkpt>
      <trkpt lat="42.94402" lon="-1.26329">
        <ele>694.996832</ele>
        <time>2026-05-22T14:23:29.000Z</time>
      </trkpt>
      <trkpt lat="42.94408" lon="-1.26337">
        <ele>694.611157</ele>
        <time>2026-05-22T14:23:30.000Z</time>
      </trkpt>
      <trkpt lat="42.94412" lon="-1.26344">
        <ele>694.235673</ele>
        <time>2026-05-22T14:23:31.000Z</time>
      </trkpt>
      <trkpt lat="42.94417" lon="-1.26352">
        <ele>693.860987</ele>
        <time>2026-05-22T14:23:32.000Z</time>
      </trkpt>
      <trkpt lat="42.94421" lon="-1.2636">
        <ele>693.486542</ele>
        <time>2026-05-22T14:23:33.000Z</time>
      </trkpt>
      <trkpt lat="42.94426" lon="-1.26367">
        <ele>693.132813</ele>
        <time>2026-05-22T14:23:34.000Z</time>
      </trkpt>
      <trkpt lat="42.9443" lon="-1.26374">
        <ele>692.809401</ele>
        <time>2026-05-22T14:23:35.000Z</time>
      </trkpt>
      <trkpt lat="42.94434" lon="-1.2638">
        <ele>692.513062</ele>
        <time>2026-05-22T14:23:36.000Z</time>
      </trkpt>
      <trkpt lat="42.94437" lon="-1.26386">
        <ele>692.247314</ele>
        <time>2026-05-22T14:23:37.000Z</time>
      </trkpt>
      <trkpt lat="42.9444" lon="-1.26391">
        <ele>691.996699</ele>
        <time>2026-05-22T14:23:38.000Z</time>
      </trkpt>
      <trkpt lat="42.94443" lon="-1.26396">
        <ele>691.757745</ele>
        <time>2026-05-22T14:23:39.000Z</time>
      </trkpt>
      <trkpt lat="42.94446" lon="-1.264">
        <ele>691.535541</ele>
        <time>2026-05-22T14:23:40.000Z</time>
      </trkpt>
      <trkpt lat="42.94449" lon="-1.26404">
        <ele>691.313888</ele>
        <time>2026-05-22T14:23:41.000Z</time>
      </trkpt>
      <trkpt lat="42.94453" lon="-1.26407">
        <ele>691.10032</ele>
        <time>2026-05-22T14:23:42.000Z</time>
      </trkpt>
      <trkpt lat="42.94456" lon="-1.26409">
        <ele>690.910059</ele>
        <time>2026-05-22T14:23:43.000Z</time>
      </trkpt>
      <trkpt lat="42.94459" lon="-1.2641">
        <ele>690.776942</ele>
        <time>2026-05-22T14:23:44.000Z</time>
      </trkpt>
      <trkpt lat="42.94461" lon="-1.2641">
        <ele>690.646533</ele>
        <time>2026-05-22T14:23:45.000Z</time>
      </trkpt>
      <trkpt lat="42.94463" lon="-1.26409">
        <ele>690.538928</ele>
        <time>2026-05-22T14:23:46.000Z</time>
      </trkpt>
      <trkpt lat="42.94465" lon="-1.26408">
        <ele>690.436111</ele>
        <time>2026-05-22T14:23:47.000Z</time>
      </trkpt>
      <trkpt lat="42.94467" lon="-1.26409">
        <ele>690.328538</ele>
        <time>2026-05-22T14:23:48.000Z</time>
      </trkpt>
      <trkpt lat="42.94469" lon="-1.26409">
        <ele>690.240386</ele>
        <time>2026-05-22T14:23:49.000Z</time>
      </trkpt>
      <trkpt lat="42.9447" lon="-1.2641">
        <ele>690.168556</ele>
        <time>2026-05-22T14:23:50.000Z</time>
      </trkpt>
      <trkpt lat="42.94471" lon="-1.2641">
        <ele>690.123599</ele>
        <time>2026-05-22T14:23:51.000Z</time>
      </trkpt>
      <trkpt lat="42.94468" lon="-1.26416">
        <ele>689.888038</ele>
        <time>2026-05-22T14:25:27.000Z</time>
      </trkpt>
      <trkpt lat="42.94468" lon="-1.26415">
        <ele>689.851046</ele>
        <time>2026-05-22T14:25:28.000Z</time>
      </trkpt>
      <trkpt lat="42.94469" lon="-1.26414">
        <ele>689.804408</ele>
        <time>2026-05-22T14:25:29.000Z</time>
      </trkpt>
      <trkpt lat="42.94469" lon="-1.26414">
        <ele>689.776502</ele>
        <time>2026-05-22T14:25:30.000Z</time>
      </trkpt>
      <trkpt lat="42.94469" lon="-1.26414">
        <ele>689.764171</ele>
        <time>2026-05-22T14:25:31.000Z</time>
      </trkpt>
      <trkpt lat="42.94469" lon="-1.26414">
        <ele>689.764171</ele>
        <time>2026-05-22T14:25:32.000Z</time>
      </trkpt>
      <trkpt lat="42.94469" lon="-1.26414">
        <ele>689.76043</ele>
        <time>2026-05-22T14:25:33.000Z</time>
      </trkpt>
      <trkpt lat="42.94469" lon="-1.26413">
        <ele>689.722676</ele>
        <time>2026-05-22T14:25:34.000Z</time>
      </trkpt>
      <trkpt lat="42.94469" lon="-1.26412">
        <ele>689.704556</ele>
        <time>2026-05-22T14:25:35.000Z</time>
      </trkpt>
      <trkpt lat="42.9447" lon="-1.26413">
        <ele>689.651633</ele>
        <time>2026-05-22T14:25:36.000Z</time>
      </trkpt>
      <trkpt lat="42.94471" lon="-1.26413">
        <ele>689.620073</ele>
        <time>2026-05-22T14:25:37.000Z</time>
      </trkpt>
      <trkpt lat="42.94471" lon="-1.26413">
        <ele>689.579752</ele>
        <time>2026-05-22T14:25:38.000Z</time>
      </trkpt>
      <trkpt lat="42.94472" lon="-1.26414">
        <ele>689.533808</ele>
        <time>2026-05-22T14:25:39.000Z</time>
      </trkpt>
      <trkpt lat="42.94473" lon="-1.26414">
        <ele>689.45196</ele>
        <time>2026-05-22T14:25:40.000Z</time>
      </trkpt>
      <trkpt lat="42.94476" lon="-1.26411">
        <ele>689.273127</ele>
        <time>2026-05-22T14:25:41.000Z</time>
      </trkpt>
      <trkpt lat="42.94475" lon="-1.26411">
        <ele>689.2126</ele>
        <time>2026-05-22T14:25:42.000Z</time>
      </trkpt>
      <trkpt lat="42.94474" lon="-1.26411">
        <ele>689.18705</ele>
        <time>2026-05-22T14:25:43.000Z</time>
      </trkpt>
      <trkpt lat="42.94477" lon="-1.26414">
        <ele>689.007492</ele>
        <time>2026-05-22T14:25:45.000Z</time>
      </trkpt>
      <trkpt lat="42.94478" lon="-1.26413">
        <ele>688.939259</ele>
        <time>2026-05-22T14:25:46.000Z</time>
      </trkpt>
      <trkpt lat="42.94476" lon="-1.26412">
        <ele>688.788863</ele>
        <time>2026-05-22T14:25:47.000Z</time>
      </trkpt>
      <trkpt lat="42.94478" lon="-1.26408">
        <ele>688.675532</ele>
        <time>2026-05-22T14:26:20.000Z</time>
      </trkpt>
      <trkpt lat="42.94482" lon="-1.26408">
        <ele>688.677654</ele>
        <time>2026-05-22T14:26:21.000Z</time>
      </trkpt>
      <trkpt lat="42.94483" lon="-1.26408">
        <ele>688.677875</ele>
        <time>2026-05-22T14:26:22.000Z</time>
      </trkpt>
      <trkpt lat="42.94483" lon="-1.26408">
        <ele>688.678287</ele>
        <time>2026-05-22T14:26:23.000Z</time>
      </trkpt>
      <trkpt lat="42.94483" lon="-1.26408">
        <ele>688.678469</ele>
        <time>2026-05-22T14:26:24.000Z</time>
      </trkpt>
      <trkpt lat="42.94472" lon="-1.26408">
        <ele>688.684562</ele>
        <time>2026-05-22T14:26:30.000Z</time>
      </trkpt>
      <trkpt lat="42.94471" lon="-1.26408">
        <ele>688.685058</ele>
        <time>2026-05-22T14:26:31.000Z</time>
      </trkpt>
      <trkpt lat="42.94471" lon="-1.26408">
        <ele>688.68532</ele>
        <time>2026-05-22T14:26:32.000Z</time>
      </trkpt>
      <trkpt lat="42.94472" lon="-1.26409">
        <ele>688.685977</ele>
        <time>2026-05-22T14:26:33.000Z</time>
      </trkpt>
      <trkpt lat="42.9447" lon="-1.26408">
        <ele>688.686755</ele>
        <time>2026-05-22T14:26:34.000Z</time>
      </trkpt>
      <trkpt lat="42.9447" lon="-1.26409">
        <ele>688.687039</ele>
        <time>2026-05-22T14:26:35.000Z</time>
      </trkpt>
      <trkpt lat="42.94469" lon="-1.26407">
        <ele>688.688105</ele>
        <time>2026-05-22T14:26:37.000Z</time>
      </trkpt>
      <trkpt lat="42.94468" lon="-1.26406">
        <ele>688.688709</ele>
        <time>2026-05-22T14:26:38.000Z</time>
      </trkpt>
      <trkpt lat="42.94473" lon="-1.26412">
        <ele>688.692035</ele>
        <time>2026-05-22T14:27:16.000Z</time>
      </trkpt>
      <trkpt lat="42.94472" lon="-1.26414">
        <ele>688.692787</ele>
        <time>2026-05-22T14:27:17.000Z</time>
      </trkpt>
      <trkpt lat="42.94472" lon="-1.26416">
        <ele>688.693756</ele>
        <time>2026-05-22T14:27:18.000Z</time>
      </trkpt>
      <trkpt lat="42.94472" lon="-1.26417">
        <ele>688.694194</ele>
        <time>2026-05-22T14:27:19.000Z</time>
      </trkpt>
      <trkpt lat="42.94471" lon="-1.26418">
        <ele>688.694644</ele>
        <time>2026-05-22T14:27:20.000Z</time>
      </trkpt>
      <trkpt lat="42.94471" lon="-1.26421">
        <ele>688.695535</ele>
        <time>2026-05-22T14:27:21.000Z</time>
      </trkpt>
      <trkpt lat="42.94471" lon="-1.2642">
        <ele>688.695783</ele>
        <time>2026-05-22T14:27:22.000Z</time>
      </trkpt>
      <trkpt lat="42.94471" lon="-1.26406">
        <ele>688.701398</ele>
        <time>2026-05-22T14:29:49.000Z</time>
      </trkpt>
      <trkpt lat="42.94472" lon="-1.26406">
        <ele>688.701965</ele>
        <time>2026-05-22T14:29:50.000Z</time>
      </trkpt>
      <trkpt lat="42.94472" lon="-1.26406">
        <ele>688.702354</ele>
        <time>2026-05-22T14:29:51.000Z</time>
      </trkpt>
      <trkpt lat="42.94472" lon="-1.26406">
        <ele>688.702845</ele>
        <time>2026-05-22T14:29:52.000Z</time>
      </trkpt>
      <trkpt lat="42.94484" lon="-1.26394">
        <ele>688.710864</ele>
        <time>2026-05-22T14:30:52.000Z</time>
      </trkpt>
      <trkpt lat="42.94485" lon="-1.26394">
        <ele>688.711355</ele>
        <time>2026-05-22T14:30:53.000Z</time>
      </trkpt>
      <trkpt lat="42.94485" lon="-1.26394">
        <ele>688.711523</ele>
        <time>2026-05-22T14:30:54.000Z</time>
      </trkpt>
      <trkpt lat="42.94486" lon="-1.26395">
        <ele>688.712038</ele>
        <time>2026-05-22T14:30:55.000Z</time>
      </trkpt>
      <trkpt lat="42.94485" lon="-1.26394">
        <ele>688.712392</ele>
        <time>2026-05-22T14:30:56.000Z</time>
      </trkpt>
      <trkpt lat="42.94467" lon="-1.26402">
        <ele>688.722936</ele>
        <time>2026-05-22T14:32:02.000Z</time>
      </trkpt>
      <trkpt lat="42.94466" lon="-1.26402">
        <ele>688.723566</ele>
        <time>2026-05-22T14:32:03.000Z</time>
      </trkpt>
      <trkpt lat="42.94464" lon="-1.26403">
        <ele>688.724521</ele>
        <time>2026-05-22T14:32:04.000Z</time>
      </trkpt>
      <trkpt lat="42.94463" lon="-1.26404">
        <ele>688.725173</ele>
        <time>2026-05-22T14:32:05.000Z</time>
      </trkpt>
      <trkpt lat="42.94462" lon="-1.26404">
        <ele>688.725919</ele>
        <time>2026-05-22T14:32:06.000Z</time>
      </trkpt>
      <trkpt lat="42.9446" lon="-1.26404">
        <ele>688.726847</ele>
        <time>2026-05-22T14:32:07.000Z</time>
      </trkpt>
      <trkpt lat="42.94458" lon="-1.26405">
        <ele>688.72792</ele>
        <time>2026-05-22T14:32:08.000Z</time>
      </trkpt>
      <trkpt lat="42.94456" lon="-1.26405">
        <ele>688.728991</ele>
        <time>2026-05-22T14:32:09.000Z</time>
      </trkpt>
      <trkpt lat="42.94455" lon="-1.26404">
        <ele>688.729594</ele>
        <time>2026-05-22T14:32:10.000Z</time>
      </trkpt>
      <trkpt lat="42.94455" lon="-1.26405">
        <ele>688.729756</ele>
        <time>2026-05-22T14:32:11.000Z</time>
      </trkpt>
      <trkpt lat="42.94457" lon="-1.26406">
        <ele>688.730589</ele>
        <time>2026-05-22T14:32:12.000Z</time>
      </trkpt>
      <trkpt lat="42.94456" lon="-1.26406">
        <ele>688.730971</ele>
        <time>2026-05-22T14:32:13.000Z</time>
      </trkpt>
      <trkpt lat="42.94456" lon="-1.26406">
        <ele>688.731234</ele>
        <time>2026-05-22T14:32:14.000Z</time>
      </trkpt>
      <trkpt lat="42.94475" lon="-1.26393">
        <ele>688.742926</ele>
        <time>2026-05-22T14:34:06.000Z</time>
      </trkpt>
      <trkpt lat="42.94474" lon="-1.26392">
        <ele>688.743423</ele>
        <time>2026-05-22T14:34:07.000Z</time>
      </trkpt>
      <trkpt lat="42.94476" lon="-1.26391">
        <ele>688.744364</ele>
        <time>2026-05-22T14:34:08.000Z</time>
      </trkpt>
      <trkpt lat="42.94477" lon="-1.26391">
        <ele>688.744854</ele>
        <time>2026-05-22T14:34:09.000Z</time>
      </trkpt>
      <trkpt lat="42.94476" lon="-1.26391">
        <ele>688.745237</ele>
        <time>2026-05-22T14:34:10.000Z</time>
      </trkpt>
      <trkpt lat="42.94476" lon="-1.26392">
        <ele>688.745536</ele>
        <time>2026-05-22T14:34:11.000Z</time>
      </trkpt>
      <trkpt lat="42.94472" lon="-1.26395">
        <ele>688.748145</ele>
        <time>2026-05-22T14:34:31.000Z</time>
      </trkpt>
      <trkpt lat="42.94473" lon="-1.26395">
        <ele>688.748702</ele>
        <time>2026-05-22T14:34:32.000Z</time>
      </trkpt>
      <trkpt lat="42.94483" lon="-1.26396">
        <ele>688.754147</ele>
        <time>2026-05-22T14:34:53.000Z</time>
      </trkpt>
      <trkpt lat="42.94483" lon="-1.26395">
        <ele>688.754541</ele>
        <time>2026-05-22T14:34:54.000Z</time>
      </trkpt>
      <trkpt lat="42.94483" lon="-1.26396">
        <ele>688.7547</ele>
        <time>2026-05-22T14:34:55.000Z</time>
      </trkpt>
      <trkpt lat="42.9447" lon="-1.26407">
        <ele>688.76333</ele>
        <time>2026-05-22T14:37:17.000Z</time>
      </trkpt>
      <trkpt lat="42.94469" lon="-1.26405">
        <ele>688.764249</ele>
        <time>2026-05-22T14:37:18.000Z</time>
      </trkpt>
      <trkpt lat="42.94468" lon="-1.26404">
        <ele>688.764895</ele>
        <time>2026-05-22T14:37:19.000Z</time>
      </trkpt>
      <trkpt lat="42.94468" lon="-1.26403">
        <ele>688.765307</ele>
        <time>2026-05-22T14:37:20.000Z</time>
      </trkpt>
      <trkpt lat="42.94468" lon="-1.26402">
        <ele>688.765565</ele>
        <time>2026-05-22T14:37:21.000Z</time>
      </trkpt>
      <trkpt lat="42.94468" lon="-1.26402">
        <ele>688.765797</ele>
        <time>2026-05-22T14:37:22.000Z</time>
      </trkpt>
      <trkpt lat="42.94467" lon="-1.26389">
        <ele>688.770841</ele>
        <time>2026-05-22T14:37:38.000Z</time>
      </trkpt>
      <trkpt lat="42.94467" lon="-1.2639">
        <ele>688.771164</ele>
        <time>2026-05-22T14:37:39.000Z</time>
      </trkpt>
      <trkpt lat="42.94473" lon="-1.26404">
        <ele>688.766992</ele>
        <time>2026-05-22T14:38:13.000Z</time>
      </trkpt>
      <trkpt lat="42.94474" lon="-1.26405">
        <ele>688.766452</ele>
        <time>2026-05-22T14:38:14.000Z</time>
      </trkpt>
      <trkpt lat="42.94474" lon="-1.26405">
        <ele>688.766452</ele>
        <time>2026-05-22T14:38:15.000Z</time>
      </trkpt>
      <trkpt lat="42.9448" lon="-1.26402">
        <ele>688.762634</ele>
        <time>2026-05-22T14:38:23.000Z</time>
      </trkpt>
      <trkpt lat="42.94479" lon="-1.264">
        <ele>688.761145</ele>
        <time>2026-05-22T14:38:24.000Z</time>
      </trkpt>
      <trkpt lat="42.94478" lon="-1.26397">
        <ele>688.760161</ele>
        <time>2026-05-22T14:38:25.000Z</time>
      </trkpt>
      <trkpt lat="42.94479" lon="-1.26399">
        <ele>688.759385</ele>
        <time>2026-05-22T14:38:26.000Z</time>
      </trkpt>
      <trkpt lat="42.94479" lon="-1.26398">
        <ele>688.759111</ele>
        <time>2026-05-22T14:38:27.000Z</time>
      </trkpt>
      <trkpt lat="42.9448" lon="-1.26399">
        <ele>688.758571</ele>
        <time>2026-05-22T14:38:28.000Z</time>
      </trkpt>
      <trkpt lat="42.94501" lon="-1.26406">
        <ele>688.746104</ele>
        <time>2026-05-22T14:41:03.000Z</time>
      </trkpt>
      <trkpt lat="42.945" lon="-1.26407">
        <ele>688.745155</ele>
        <time>2026-05-22T14:41:04.000Z</time>
      </trkpt>
      <trkpt lat="42.94501" lon="-1.26417">
        <ele>688.741003</ele>
        <time>2026-05-22T14:41:15.000Z</time>
      </trkpt>
      <trkpt lat="42.94503" lon="-1.26419">
        <ele>688.739951</ele>
        <time>2026-05-22T14:41:16.000Z</time>
      </trkpt>
      <trkpt lat="42.94504" lon="-1.26419">
        <ele>688.738982</ele>
        <time>2026-05-22T14:41:17.000Z</time>
      </trkpt>
      <trkpt lat="42.94505" lon="-1.26422">
        <ele>688.737805</ele>
        <time>2026-05-22T14:41:18.000Z</time>
      </trkpt>
      <trkpt lat="42.94505" lon="-1.26422">
        <ele>688.737216</ele>
        <time>2026-05-22T14:41:19.000Z</time>
      </trkpt>
      <trkpt lat="42.94505" lon="-1.26422">
        <ele>688.737216</ele>
        <time>2026-05-22T14:41:20.000Z</time>
      </trkpt>
      <trkpt lat="42.94465" lon="-1.26391">
        <ele>688.711074</ele>
        <time>2026-05-22T14:42:19.000Z</time>
      </trkpt>
      <trkpt lat="42.94464" lon="-1.26393">
        <ele>688.710061</ele>
        <time>2026-05-22T14:42:20.000Z</time>
      </trkpt>
      <trkpt lat="42.94462" lon="-1.26393">
        <ele>688.709199</ele>
        <time>2026-05-22T14:42:21.000Z</time>
      </trkpt>
      <trkpt lat="42.94462" lon="-1.26393">
        <ele>688.70896</ele>
        <time>2026-05-22T14:42:22.000Z</time>
      </trkpt>
      <trkpt lat="42.9446" lon="-1.26394">
        <ele>688.707884</ele>
        <time>2026-05-22T14:42:23.000Z</time>
      </trkpt>
      <trkpt lat="42.9446" lon="-1.26394">
        <ele>688.707647</ele>
        <time>2026-05-22T14:42:24.000Z</time>
      </trkpt>
      <trkpt lat="42.94463" lon="-1.26393">
        <ele>688.705797</ele>
        <time>2026-05-22T14:42:25.000Z</time>
      </trkpt>
      <trkpt lat="42.94464" lon="-1.26393">
        <ele>688.705374</ele>
        <time>2026-05-22T14:42:26.000Z</time>
      </trkpt>
      <trkpt lat="42.94467" lon="-1.26392">
        <ele>688.703599</ele>
        <time>2026-05-22T14:42:27.000Z</time>
      </trkpt>
      <trkpt lat="42.94468" lon="-1.26397">
        <ele>688.701496</ele>
        <time>2026-05-22T14:42:54.000Z</time>
      </trkpt>
      <trkpt lat="42.94466" lon="-1.26397">
        <ele>688.700755</ele>
        <time>2026-05-22T14:42:55.000Z</time>
      </trkpt>
      <trkpt lat="42.94467" lon="-1.26397">
        <ele>688.700376</ele>
        <time>2026-05-22T14:42:56.000Z</time>
      </trkpt>
      <trkpt lat="42.94466" lon="-1.264">
        <ele>688.699066</ele>
        <time>2026-05-22T14:42:57.000Z</time>
      </trkpt>
      <trkpt lat="42.94468" lon="-1.264">
        <ele>688.698042</ele>
        <time>2026-05-22T14:42:58.000Z</time>
      </trkpt>
      <trkpt lat="42.94467" lon="-1.26402">
        <ele>688.696738</ele>
        <time>2026-05-22T14:42:59.000Z</time>
      </trkpt>
      <trkpt lat="42.94466" lon="-1.26402">
        <ele>688.69643</ele>
        <time>2026-05-22T14:43:00.000Z</time>
      </trkpt>
      <trkpt lat="42.94468" lon="-1.26403">
        <ele>688.695287</ele>
        <time>2026-05-22T14:43:02.000Z</time>
      </trkpt>
      <trkpt lat="42.94468" lon="-1.26403">
        <ele>688.695287</ele>
        <time>2026-05-22T14:43:04.000Z</time>
      </trkpt>
      <trkpt lat="42.94468" lon="-1.26409">
        <ele>688.69283</ele>
        <time>2026-05-22T14:43:08.000Z</time>
      </trkpt>
      <trkpt lat="42.94472" lon="-1.26409">
        <ele>688.690726</ele>
        <time>2026-05-22T14:43:09.000Z</time>
      </trkpt>
      <trkpt lat="42.94472" lon="-1.2641">
        <ele>688.690251</ele>
        <time>2026-05-22T14:43:10.000Z</time>
      </trkpt>
      <trkpt lat="42.94476" lon="-1.26411">
        <ele>688.6882</ele>
        <time>2026-05-22T14:43:13.000Z</time>
      </trkpt>
      <trkpt lat="42.94495" lon="-1.26419">
        <ele>688.676368</ele>
        <time>2026-05-22T14:43:38.000Z</time>
      </trkpt>
      <trkpt lat="42.94492" lon="-1.26413">
        <ele>688.673211</ele>
        <time>2026-05-22T14:43:39.000Z</time>
      </trkpt>
      <trkpt lat="42.94492" lon="-1.26413">
        <ele>688.673211</ele>
        <time>2026-05-22T14:43:40.000Z</time>
      </trkpt>
      <trkpt lat="42.9449" lon="-1.26398">
        <ele>688.687293</ele>
        <time>2026-05-22T14:43:41.000Z</time>
      </trkpt>
      <trkpt lat="42.94488" lon="-1.26392">
        <ele>688.701332</ele>
        <time>2026-05-22T14:43:42.000Z</time>
      </trkpt>
      <trkpt lat="42.94486" lon="-1.26391">
        <ele>688.709808</ele>
        <time>2026-05-22T14:43:44.000Z</time>
      </trkpt>
      <trkpt lat="42.94485" lon="-1.26392">
        <ele>688.712908</ele>
        <time>2026-05-22T14:43:45.000Z</time>
      </trkpt>
      <trkpt lat="42.94485" lon="-1.26392">
        <ele>688.712908</ele>
        <time>2026-05-22T14:43:46.000Z</time>
      </trkpt>
      <trkpt lat="42.94467" lon="-1.26383">
        <ele>688.771268</ele>
        <time>2026-05-22T14:43:57.000Z</time>
      </trkpt>
      <trkpt lat="42.94469" lon="-1.26383">
        <ele>688.775821</ele>
        <time>2026-05-22T14:43:58.000Z</time>
      </trkpt>
      <trkpt lat="42.94468" lon="-1.26382">
        <ele>688.779543</ele>
        <time>2026-05-22T14:43:59.000Z</time>
      </trkpt>
      <trkpt lat="42.94482" lon="-1.264">
        <ele>688.838832</ele>
        <time>2026-05-22T14:44:42.000Z</time>
      </trkpt>
      <trkpt lat="42.94483" lon="-1.26401">
        <ele>688.840616</ele>
        <time>2026-05-22T14:44:43.000Z</time>
      </trkpt>
      <trkpt lat="42.94484" lon="-1.26401">
        <ele>688.845127</ele>
        <time>2026-05-22T14:44:44.000Z</time>
      </trkpt>
      <trkpt lat="42.94483" lon="-1.26399">
        <ele>688.8485</ele>
        <time>2026-05-22T14:44:45.000Z</time>
      </trkpt>
      <trkpt lat="42.94483" lon="-1.26399">
        <ele>688.850284</ele>
        <time>2026-05-22T14:44:46.000Z</time>
      </trkpt>
      <trkpt lat="42.94483" lon="-1.26397">
        <ele>688.854022</ele>
        <time>2026-05-22T14:44:47.000Z</time>
      </trkpt>
      <trkpt lat="42.94484" lon="-1.26397">
        <ele>688.857932</ele>
        <time>2026-05-22T14:44:48.000Z</time>
      </trkpt>
      <trkpt lat="42.94485" lon="-1.26397">
        <ele>688.861351</ele>
        <time>2026-05-22T14:44:49.000Z</time>
      </trkpt>
      <trkpt lat="42.94485" lon="-1.26397">
        <ele>688.861991</ele>
        <time>2026-05-22T14:44:50.000Z</time>
      </trkpt>
      <trkpt lat="42.94485" lon="-1.26399">
        <ele>688.867301</ele>
        <time>2026-05-22T14:44:52.000Z</time>
      </trkpt>
      <trkpt lat="42.94486" lon="-1.264">
        <ele>688.86986</ele>
        <time>2026-05-22T14:44:53.000Z</time>
      </trkpt>
      <trkpt lat="42.94488" lon="-1.264">
        <ele>688.87462</ele>
        <time>2026-05-22T14:44:54.000Z</time>
      </trkpt>
      <trkpt lat="42.94487" lon="-1.264">
        <ele>688.876122</ele>
        <time>2026-05-22T14:44:55.000Z</time>
      </trkpt>
      <trkpt lat="42.94488" lon="-1.26401">
        <ele>688.877719</ele>
        <time>2026-05-22T14:44:56.000Z</time>
      </trkpt>
      <trkpt lat="42.94487" lon="-1.26402">
        <ele>688.88218</ele>
        <time>2026-05-22T14:44:57.000Z</time>
      </trkpt>
      <trkpt lat="42.94487" lon="-1.26404">
        <ele>688.886468</ele>
        <time>2026-05-22T14:44:58.000Z</time>
      </trkpt>
      <trkpt lat="42.94487" lon="-1.26405">
        <ele>688.889144</ele>
        <time>2026-05-22T14:44:59.000Z</time>
      </trkpt>
      <trkpt lat="42.94486" lon="-1.26405">
        <ele>688.890999</ele>
        <time>2026-05-22T14:45:00.000Z</time>
      </trkpt>
      <trkpt lat="42.94483" lon="-1.26397">
        <ele>688.909442</ele>
        <time>2026-05-22T14:47:02.000Z</time>
      </trkpt>
      <trkpt lat="42.9448" lon="-1.26416">
        <ele>688.951091</ele>
        <time>2026-05-22T14:47:31.000Z</time>
      </trkpt>
      <trkpt lat="42.9448" lon="-1.26417">
        <ele>688.95331</ele>
        <time>2026-05-22T14:47:32.000Z</time>
      </trkpt>
      <trkpt lat="42.94481" lon="-1.26416">
        <ele>688.956728</ele>
        <time>2026-05-22T14:47:33.000Z</time>
      </trkpt>
      <trkpt lat="42.94481" lon="-1.26417">
        <ele>688.957828</ele>
        <time>2026-05-22T14:47:34.000Z</time>
      </trkpt>
      <trkpt lat="42.94481" lon="-1.26417">
        <ele>688.95908</ele>
        <time>2026-05-22T14:47:35.000Z</time>
      </trkpt>
      <trkpt lat="42.94482" lon="-1.26422">
        <ele>688.970348</ele>
        <time>2026-05-22T14:47:43.000Z</time>
      </trkpt>
      <trkpt lat="42.94482" lon="-1.26422">
        <ele>688.97072</ele>
        <time>2026-05-22T14:47:44.000Z</time>
      </trkpt>
      <trkpt lat="42.94481" lon="-1.26424">
        <ele>688.975008</ele>
        <time>2026-05-22T14:47:45.000Z</time>
      </trkpt>
      <trkpt lat="42.94465" lon="-1.26409">
        <ele>689.034556</ele>
        <time>2026-05-22T14:48:27.000Z</time>
      </trkpt>
      <trkpt lat="42.94465" lon="-1.26409">
        <ele>689.034556</ele>
        <time>2026-05-22T14:48:28.000Z</time>
      </trkpt>
      <trkpt lat="42.94462" lon="-1.26404">
        <ele>689.047684</ele>
        <time>2026-05-22T14:48:30.000Z</time>
      </trkpt>
      <trkpt lat="42.94461" lon="-1.26403">
        <ele>689.051168</ele>
        <time>2026-05-22T14:48:31.000Z</time>
      </trkpt>
      <trkpt lat="42.94469" lon="-1.26401">
        <ele>689.075389</ele>
        <time>2026-05-22T14:48:35.000Z</time>
      </trkpt>
      <trkpt lat="42.9447" lon="-1.264">
        <ele>689.078874</ele>
        <time>2026-05-22T14:48:36.000Z</time>
      </trkpt>
      <trkpt lat="42.94471" lon="-1.26399">
        <ele>689.083084</ele>
        <time>2026-05-22T14:48:37.000Z</time>
      </trkpt>
      <trkpt lat="42.94472" lon="-1.26398">
        <ele>689.08791</ele>
        <time>2026-05-22T14:48:38.000Z</time>
      </trkpt>
      <trkpt lat="42.94473" lon="-1.26397">
        <ele>689.089915</ele>
        <time>2026-05-22T14:48:39.000Z</time>
      </trkpt>
      <trkpt lat="42.94474" lon="-1.26397">
        <ele>689.092697</ele>
        <time>2026-05-22T14:48:40.000Z</time>
      </trkpt>
      <trkpt lat="42.94474" lon="-1.26397">
        <ele>689.092697</ele>
        <time>2026-05-22T14:48:41.000Z</time>
      </trkpt>
      <trkpt lat="42.94478" lon="-1.26407">
        <ele>689.116982</ele>
        <time>2026-05-22T14:49:45.000Z</time>
      </trkpt>
      <trkpt lat="42.94475" lon="-1.264">
        <ele>689.13399</ele>
        <time>2026-05-22T14:53:00.000Z</time>
      </trkpt>
      <trkpt lat="42.94476" lon="-1.26401">
        <ele>689.136508</ele>
        <time>2026-05-22T14:53:01.000Z</time>
      </trkpt>
      <trkpt lat="42.94478" lon="-1.26404">
        <ele>689.145555</ele>
        <time>2026-05-22T14:53:07.000Z</time>
      </trkpt>
      <trkpt lat="42.94478" lon="-1.26405">
        <ele>689.147094</ele>
        <time>2026-05-22T14:53:08.000Z</time>
      </trkpt>
      <trkpt lat="42.94478" lon="-1.26405">
        <ele>689.147094</ele>
        <time>2026-05-22T14:53:10.000Z</time>
      </trkpt>
      <trkpt lat="42.94479" lon="-1.26393">
        <ele>689.172156</ele>
        <time>2026-05-22T14:53:55.000Z</time>
      </trkpt>
      <trkpt lat="42.94478" lon="-1.26393">
        <ele>689.17394</ele>
        <time>2026-05-22T14:53:56.000Z</time>
      </trkpt>
      <trkpt lat="42.94478" lon="-1.26393">
        <ele>689.17394</ele>
        <time>2026-05-22T14:53:57.000Z</time>
      </trkpt>
      <trkpt lat="42.94473" lon="-1.26398">
        <ele>689.192848</ele>
        <time>2026-05-22T14:54:19.000Z</time>
      </trkpt>
      <trkpt lat="42.94475" lon="-1.26399">
        <ele>689.197076</ele>
        <time>2026-05-22T14:54:20.000Z</time>
      </trkpt>
      <trkpt lat="42.94475" lon="-1.264">
        <ele>689.200053</ele>
        <time>2026-05-22T14:54:21.000Z</time>
      </trkpt>
      <trkpt lat="42.94476" lon="-1.26401">
        <ele>689.202907</ele>
        <time>2026-05-22T14:54:22.000Z</time>
      </trkpt>
      <trkpt lat="42.94476" lon="-1.264">
        <ele>689.204159</ele>
        <time>2026-05-22T14:54:23.000Z</time>
      </trkpt>
      <trkpt lat="42.94478" lon="-1.264">
        <ele>689.208985</ele>
        <time>2026-05-22T14:54:24.000Z</time>
      </trkpt>
      <trkpt lat="42.94476" lon="-1.264">
        <ele>689.212655</ele>
        <time>2026-05-22T14:54:25.000Z</time>
      </trkpt>
      <trkpt lat="42.9448" lon="-1.26405">
        <ele>689.2257</ele>
        <time>2026-05-22T14:54:31.000Z</time>
      </trkpt>
      <trkpt lat="42.9448" lon="-1.26404">
        <ele>689.228525</ele>
        <time>2026-05-22T14:54:32.000Z</time>
      </trkpt>
      <trkpt lat="42.94481" lon="-1.26403">
        <ele>689.230811</ele>
        <time>2026-05-22T14:54:33.000Z</time>
      </trkpt>
      <trkpt lat="42.9448" lon="-1.26403">
        <ele>689.233064</ele>
        <time>2026-05-22T14:54:34.000Z</time>
      </trkpt>
      <trkpt lat="42.94485" lon="-1.26404">
        <ele>689.2463</ele>
        <time>2026-05-22T14:55:36.000Z</time>
      </trkpt>
      <trkpt lat="42.94484" lon="-1.26402">
        <ele>689.25208</ele>
        <time>2026-05-22T14:55:37.000Z</time>
      </trkpt>
      <trkpt lat="42.94483" lon="-1.26402">
        <ele>689.252625</ele>
        <time>2026-05-22T14:55:38.000Z</time>
      </trkpt>
      <trkpt lat="42.94482" lon="-1.26401">
        <ele>689.257005</ele>
        <time>2026-05-22T14:55:39.000Z</time>
      </trkpt>
      <trkpt lat="42.9448" lon="-1.264">
        <ele>689.262318</ele>
        <time>2026-05-22T14:55:40.000Z</time>
      </trkpt>
      <trkpt lat="42.94481" lon="-1.26399">
        <ele>689.264898</ele>
        <time>2026-05-22T14:55:41.000Z</time>
      </trkpt>
      <trkpt lat="42.9448" lon="-1.26399">
        <ele>689.268735</ele>
        <time>2026-05-22T14:55:42.000Z</time>
      </trkpt>
      <trkpt lat="42.9448" lon="-1.26399">
        <ele>689.270654</ele>
        <time>2026-05-22T14:55:43.000Z</time>
      </trkpt>
      <trkpt lat="42.94481" lon="-1.26395">
        <ele>689.278641</ele>
        <time>2026-05-22T14:57:23.000Z</time>
      </trkpt>
      <trkpt lat="42.94479" lon="-1.26395">
        <ele>689.282207</ele>
        <time>2026-05-22T14:57:24.000Z</time>
      </trkpt>
      <trkpt lat="42.9448" lon="-1.26395">
        <ele>689.283315</ele>
        <time>2026-05-22T14:57:25.000Z</time>
      </trkpt>
      <trkpt lat="42.94478" lon="-1.26395">
        <ele>689.287682</ele>
        <time>2026-05-22T14:57:26.000Z</time>
      </trkpt>
      <trkpt lat="42.94478" lon="-1.26396">
        <ele>689.28891</ele>
        <time>2026-05-22T14:57:27.000Z</time>
      </trkpt>
      <trkpt lat="42.94479" lon="-1.26396">
        <ele>689.292476</ele>
        <time>2026-05-22T14:57:28.000Z</time>
      </trkpt>
      <trkpt lat="42.94478" lon="-1.26396">
        <ele>689.295475</ele>
        <time>2026-05-22T14:57:29.000Z</time>
      </trkpt>
      <trkpt lat="42.94478" lon="-1.26395">
        <ele>689.296872</ele>
        <time>2026-05-22T14:57:30.000Z</time>
      </trkpt>
      <trkpt lat="42.94478" lon="-1.26396">
        <ele>689.2981</ele>
        <time>2026-05-22T14:57:33.000Z</time>
      </trkpt>
      <trkpt lat="42.94478" lon="-1.26396">
        <ele>689.299097</ele>
        <time>2026-05-22T14:57:34.000Z</time>
      </trkpt>
      <trkpt lat="42.94478" lon="-1.26397">
        <ele>689.30135</ele>
        <time>2026-05-22T14:57:35.000Z</time>
      </trkpt>
      <trkpt lat="42.94478" lon="-1.26389">
        <ele>689.318291</ele>
        <time>2026-05-22T14:58:23.000Z</time>
      </trkpt>
      <trkpt lat="42.94479" lon="-1.26389">
        <ele>689.319258</ele>
        <time>2026-05-22T14:58:24.000Z</time>
      </trkpt>
      <trkpt lat="42.94478" lon="-1.2639">
        <ele>689.322753</ele>
        <time>2026-05-22T14:58:25.000Z</time>
      </trkpt>
      <trkpt lat="42.94474" lon="-1.26396">
        <ele>689.339245</ele>
        <time>2026-05-22T14:58:44.000Z</time>
      </trkpt>
      <trkpt lat="42.94474" lon="-1.26396">
        <ele>689.339245</ele>
        <time>2026-05-22T14:58:46.000Z</time>
      </trkpt>
      <trkpt lat="42.94483" lon="-1.26391">
        <ele>689.368127</ele>
        <time>2026-05-22T14:59:19.000Z</time>
      </trkpt>
      <trkpt lat="42.94483" lon="-1.26392">
        <ele>689.370389</ele>
        <time>2026-05-22T14:59:20.000Z</time>
      </trkpt>
      <trkpt lat="42.94484" lon="-1.26392">
        <ele>689.372131</ele>
        <time>2026-05-22T14:59:21.000Z</time>
      </trkpt>
      <trkpt lat="42.94483" lon="-1.26394">
        <ele>689.375234</ele>
        <time>2026-05-22T14:59:22.000Z</time>
      </trkpt>
      <trkpt lat="42.94485" lon="-1.26393">
        <ele>689.380394</ele>
        <time>2026-05-22T14:59:23.000Z</time>
      </trkpt>
      <trkpt lat="42.94485" lon="-1.26394">
        <ele>689.382648</ele>
        <time>2026-05-22T14:59:24.000Z</time>
      </trkpt>
      <trkpt lat="42.94485" lon="-1.26394">
        <ele>689.382648</ele>
        <time>2026-05-22T14:59:25.000Z</time>
      </trkpt>
      <trkpt lat="42.94472" lon="-1.26398">
        <ele>689.417413</ele>
        <time>2026-05-22T15:00:33.000Z</time>
      </trkpt>
      <trkpt lat="42.94472" lon="-1.26398">
        <ele>689.419675</ele>
        <time>2026-05-22T15:00:34.000Z</time>
      </trkpt>
      <trkpt lat="42.9447" lon="-1.26399">
        <ele>689.42505</ele>
        <time>2026-05-22T15:00:35.000Z</time>
      </trkpt>
      <trkpt lat="42.9447" lon="-1.26398">
        <ele>689.426278</ele>
        <time>2026-05-22T15:00:36.000Z</time>
      </trkpt>
      <trkpt lat="42.9447" lon="-1.26398">
        <ele>689.427421</ele>
        <time>2026-05-22T15:00:37.000Z</time>
      </trkpt>
      <trkpt lat="42.9447" lon="-1.26398">
        <ele>689.429574</ele>
        <time>2026-05-22T15:00:38.000Z</time>
      </trkpt>
      <trkpt lat="42.9447" lon="-1.26398">
        <ele>689.429574</ele>
        <time>2026-05-22T15:00:39.000Z</time>
      </trkpt>
      <trkpt lat="42.94472" lon="-1.26397">
        <ele>689.433412</ele>
        <time>2026-05-22T15:00:41.000Z</time>
      </trkpt>
      <trkpt lat="42.94472" lon="-1.26398">
        <ele>689.43407</ele>
        <time>2026-05-22T15:00:42.000Z</time>
      </trkpt>
      <trkpt lat="42.94472" lon="-1.26397">
        <ele>689.434553</ele>
        <time>2026-05-22T15:00:43.000Z</time>
      </trkpt>
      <trkpt lat="42.94473" lon="-1.26397">
        <ele>689.438193</ele>
        <time>2026-05-22T15:00:44.000Z</time>
      </trkpt>
      <trkpt lat="42.94473" lon="-1.26397">
        <ele>689.439829</ele>
        <time>2026-05-22T15:00:45.000Z</time>
      </trkpt>
      <trkpt lat="42.94473" lon="-1.26397">
        <ele>689.442559</ele>
        <time>2026-05-22T15:00:46.000Z</time>
      </trkpt>
      <trkpt lat="42.94473" lon="-1.26398">
        <ele>689.443701</ele>
        <time>2026-05-22T15:00:47.000Z</time>
      </trkpt>
      <trkpt lat="42.94473" lon="-1.26398">
        <ele>689.443974</ele>
        <time>2026-05-22T15:00:48.000Z</time>
      </trkpt>
      <trkpt lat="42.94476" lon="-1.26405">
        <ele>689.460783</ele>
        <time>2026-05-22T15:01:15.000Z</time>
      </trkpt>
      <trkpt lat="42.94468" lon="-1.264">
        <ele>689.485266</ele>
        <time>2026-05-22T15:02:30.000Z</time>
      </trkpt>
      <trkpt lat="42.94467" lon="-1.26399">
        <ele>689.488324</ele>
        <time>2026-05-22T15:02:31.000Z</time>
      </trkpt>
      <trkpt lat="42.94467" lon="-1.26397">
        <ele>689.493304</ele>
        <time>2026-05-22T15:02:32.000Z</time>
      </trkpt>
      <trkpt lat="42.94465" lon="-1.26397">
        <ele>689.49767</ele>
        <time>2026-05-22T15:02:33.000Z</time>
      </trkpt>
      <trkpt lat="42.94464" lon="-1.26396">
        <ele>689.500647</ele>
        <time>2026-05-22T15:02:34.000Z</time>
      </trkpt>
      <trkpt lat="42.94462" lon="-1.26395">
        <ele>689.506164</ele>
        <time>2026-05-22T15:02:35.000Z</time>
      </trkpt>
      <trkpt lat="42.94462" lon="-1.26393">
        <ele>689.509207</ele>
        <time>2026-05-22T15:02:36.000Z</time>
      </trkpt>
      <trkpt lat="42.9446" lon="-1.26392">
        <ele>689.514367</ele>
        <time>2026-05-22T15:02:37.000Z</time>
      </trkpt>
      <trkpt lat="42.9446" lon="-1.26393">
        <ele>689.515528</ele>
        <time>2026-05-22T15:02:38.000Z</time>
      </trkpt>
      <trkpt lat="42.9446" lon="-1.26393">
        <ele>689.516891</ele>
        <time>2026-05-22T15:02:39.000Z</time>
      </trkpt>
      <trkpt lat="42.94461" lon="-1.26387">
        <ele>689.527668</ele>
        <time>2026-05-22T15:04:01.000Z</time>
      </trkpt>
      <trkpt lat="42.94461" lon="-1.26387">
        <ele>689.528067</ele>
        <time>2026-05-22T15:04:02.000Z</time>
      </trkpt>
      <trkpt lat="42.94461" lon="-1.26387">
        <ele>689.528067</ele>
        <time>2026-05-22T15:04:03.000Z</time>
      </trkpt>
      <trkpt lat="42.94462" lon="-1.26388">
        <ele>689.532388</ele>
        <time>2026-05-22T15:04:07.000Z</time>
      </trkpt>
      <trkpt lat="42.94461" lon="-1.26388">
        <ele>689.535714</ele>
        <time>2026-05-22T15:04:08.000Z</time>
      </trkpt>
      <trkpt lat="42.9446" lon="-1.26389">
        <ele>689.538202</ele>
        <time>2026-05-22T15:04:09.000Z</time>
      </trkpt>
      <trkpt lat="42.9446" lon="-1.2639">
        <ele>689.539974</ele>
        <time>2026-05-22T15:04:10.000Z</time>
      </trkpt>
      <trkpt lat="42.94459" lon="-1.2639">
        <ele>689.542339</ele>
        <time>2026-05-22T15:04:11.000Z</time>
      </trkpt>
      <trkpt lat="42.94459" lon="-1.2639">
        <ele>689.543156</ele>
        <time>2026-05-22T15:04:12.000Z</time>
      </trkpt>
      <trkpt lat="42.94458" lon="-1.2639">
        <ele>689.545805</ele>
        <time>2026-05-22T15:04:13.000Z</time>
      </trkpt>
      <trkpt lat="42.94458" lon="-1.26393">
        <ele>689.552595</ele>
        <time>2026-05-22T15:04:14.000Z</time>
      </trkpt>
      <trkpt lat="42.94459" lon="-1.26392">
        <ele>689.556095</ele>
        <time>2026-05-22T15:04:15.000Z</time>
      </trkpt>
      <trkpt lat="42.94459" lon="-1.26391">
        <ele>689.557545</ele>
        <time>2026-05-22T15:04:16.000Z</time>
      </trkpt>
      <trkpt lat="42.94458" lon="-1.2639">
        <ele>689.561147</ele>
        <time>2026-05-22T15:04:17.000Z</time>
      </trkpt>
      <trkpt lat="42.94458" lon="-1.26391">
        <ele>689.563727</ele>
        <time>2026-05-22T15:04:18.000Z</time>
      </trkpt>
      <trkpt lat="42.94459" lon="-1.26391">
        <ele>689.565177</ele>
        <time>2026-05-22T15:04:19.000Z</time>
      </trkpt>
      <trkpt lat="42.9446" lon="-1.26391">
        <ele>689.56931</ele>
        <time>2026-05-22T15:04:20.000Z</time>
      </trkpt>
      <trkpt lat="42.94482" lon="-1.2641">
        <ele>689.640956</ele>
        <time>2026-05-22T15:06:56.000Z</time>
      </trkpt>
      <trkpt lat="42.94484" lon="-1.26411">
        <ele>689.646376</ele>
        <time>2026-05-22T15:06:57.000Z</time>
      </trkpt>
      <trkpt lat="42.94473" lon="-1.264">
        <ele>689.684202</ele>
        <time>2026-05-22T15:07:41.000Z</time>
      </trkpt>
      <trkpt lat="42.94473" lon="-1.26401">
        <ele>689.686018</ele>
        <time>2026-05-22T15:07:42.000Z</time>
      </trkpt>
      <trkpt lat="42.94478" lon="-1.2641">
        <ele>689.716757</ele>
        <time>2026-05-22T15:09:07.000Z</time>
      </trkpt>
      <trkpt lat="42.94477" lon="-1.2641">
        <ele>689.72243</ele>
        <time>2026-05-22T15:09:08.000Z</time>
      </trkpt>
      <trkpt lat="42.94478" lon="-1.26411">
        <ele>689.729003</ele>
        <time>2026-05-22T15:09:09.000Z</time>
      </trkpt>
      <trkpt lat="42.94477" lon="-1.2641">
        <ele>689.733302</ele>
        <time>2026-05-22T15:09:10.000Z</time>
      </trkpt>
      <trkpt lat="42.94472" lon="-1.26394">
        <ele>689.803632</ele>
        <time>2026-05-22T15:10:47.000Z</time>
      </trkpt>
      <trkpt lat="42.94473" lon="-1.26394">
        <ele>689.808747</ele>
        <time>2026-05-22T15:10:48.000Z</time>
      </trkpt>
      <trkpt lat="42.94475" lon="-1.26393">
        <ele>689.81787</ele>
        <time>2026-05-22T15:10:49.000Z</time>
      </trkpt>
      <trkpt lat="42.94475" lon="-1.26393">
        <ele>689.821852</ele>
        <time>2026-05-22T15:10:50.000Z</time>
      </trkpt>
      <trkpt lat="42.94478" lon="-1.26394">
        <ele>689.836066</ele>
        <time>2026-05-22T15:10:51.000Z</time>
      </trkpt>
      <trkpt lat="42.94477" lon="-1.26394">
        <ele>689.840617</ele>
        <time>2026-05-22T15:10:52.000Z</time>
      </trkpt>
      <trkpt lat="42.94522" lon="-1.26464">
        <ele>690.226271</ele>
        <time>2026-05-22T15:12:13.000Z</time>
      </trkpt>
      <trkpt lat="42.94522" lon="-1.26506">
        <ele>690.401273</ele>
        <time>2026-05-22T15:12:16.000Z</time>
      </trkpt>
      <trkpt lat="42.94522" lon="-1.26506">
        <ele>690.401273</ele>
        <time>2026-05-22T15:12:38.000Z</time>
      </trkpt>
      <trkpt lat="42.94522" lon="-1.26506">
        <ele>690.401273</ele>
        <time>2026-05-22T15:12:39.000Z</time>
      </trkpt>
      <trkpt lat="42.94522" lon="-1.26506">
        <ele>690.401273</ele>
        <time>2026-05-22T15:12:59.000Z</time>
      </trkpt>
      <trkpt lat="42.94522" lon="-1.26506">
        <ele>690.401273</ele>
        <time>2026-05-22T15:13:04.000Z</time>
      </trkpt>
      <trkpt lat="42.94522" lon="-1.26506">
        <ele>690.401273</ele>
        <time>2026-05-22T15:13:07.000Z</time>
      </trkpt>
      <trkpt lat="42.94522" lon="-1.26506">
        <ele>690.401273</ele>
        <time>2026-05-22T15:13:08.000Z</time>
      </trkpt>
      <trkpt lat="42.94522" lon="-1.26506">
        <ele>690.401273</ele>
        <time>2026-05-22T15:13:12.000Z</time>
      </trkpt>
      <trkpt lat="42.94522" lon="-1.26506">
        <ele>690.401273</ele>
        <time>2026-05-22T15:13:16.000Z</time>
      </trkpt>
      <trkpt lat="42.94522" lon="-1.26506">
        <ele>690.401273</ele>
        <time>2026-05-22T15:13:25.000Z</time>
      </trkpt>
      <trkpt lat="42.94522" lon="-1.26506">
        <ele>690.401273</ele>
        <time>2026-05-22T15:13:28.000Z</time>
      </trkpt>
      <trkpt lat="42.94522" lon="-1.26506">
        <ele>690.401273</ele>
        <time>2026-05-22T15:13:58.000Z</time>
      </trkpt>
      <trkpt lat="42.94522" lon="-1.26506">
        <ele>690.401273</ele>
        <time>2026-05-22T15:14:02.000Z</time>
      </trkpt>
      <trkpt lat="42.94522" lon="-1.26506">
        <ele>690.401273</ele>
        <time>2026-05-22T15:14:43.000Z</time>
      </trkpt>
      <trkpt lat="42.94522" lon="-1.26506">
        <ele>690.401273</ele>
        <time>2026-05-22T15:14:47.000Z</time>
      </trkpt>
      <trkpt lat="42.94522" lon="-1.26506">
        <ele>690.401273</ele>
        <time>2026-05-22T15:14:51.000Z</time>
      </trkpt>
      <trkpt lat="42.94522" lon="-1.26506">
        <ele>690.401273</ele>
        <time>2026-05-22T15:14:53.000Z</time>
      </trkpt>
      <trkpt lat="42.94522" lon="-1.26506">
        <ele>690.401273</ele>
        <time>2026-05-22T15:14:57.000Z</time>
      </trkpt>
      <trkpt lat="42.94522" lon="-1.26506">
        <ele>690.401273</ele>
        <time>2026-05-22T15:15:00.000Z</time>
      </trkpt>
      <trkpt lat="42.94522" lon="-1.26506">
        <ele>690.401273</ele>
        <time>2026-05-22T15:15:05.000Z</time>
      </trkpt>
      <trkpt lat="42.94522" lon="-1.26506">
        <ele>690.401273</ele>
        <time>2026-05-22T15:15:08.000Z</time>
      </trkpt>
      <trkpt lat="42.94522" lon="-1.26506">
        <ele>690.401273</ele>
        <time>2026-05-22T15:15:22.000Z</time>
      </trkpt>
      <trkpt lat="42.94522" lon="-1.26506">
        <ele>690.401273</ele>
        <time>2026-05-22T15:15:25.000Z</time>
      </trkpt>
      <trkpt lat="42.94522" lon="-1.26506">
        <ele>690.401273</ele>
        <time>2026-05-22T15:15:47.000Z</time>
      </trkpt>
      <trkpt lat="42.94522" lon="-1.26506">
        <ele>690.401273</ele>
        <time>2026-05-22T15:16:07.000Z</time>
      </trkpt>
      <trkpt lat="42.94522" lon="-1.26506">
        <ele>690.401273</ele>
        <time>2026-05-22T15:16:08.000Z</time>
      </trkpt>
      <trkpt lat="42.94522" lon="-1.26506">
        <ele>690.401273</ele>
        <time>2026-05-22T15:16:12.000Z</time>
      </trkpt>
      <trkpt lat="42.94522" lon="-1.26506">
        <ele>690.401273</ele>
        <time>2026-05-22T15:16:15.000Z</time>
      </trkpt>
      <trkpt lat="42.94522" lon="-1.26506">
        <ele>690.401273</ele>
        <time>2026-05-22T15:16:21.000Z</time>
      </trkpt>
      <trkpt lat="42.94522" lon="-1.26506">
        <ele>690.401273</ele>
        <time>2026-05-22T15:16:24.000Z</time>
      </trkpt>
      <trkpt lat="42.94522" lon="-1.26506">
        <ele>690.401273</ele>
        <time>2026-05-22T15:16:29.000Z</time>
      </trkpt>
      <trkpt lat="42.94522" lon="-1.26506">
        <ele>690.401273</ele>
        <time>2026-05-22T15:16:33.000Z</time>
      </trkpt>
      <trkpt lat="42.94522" lon="-1.26506">
        <ele>690.401273</ele>
        <time>2026-05-22T15:16:36.000Z</time>
      </trkpt>
      <trkpt lat="42.94522" lon="-1.26506">
        <ele>690.401273</ele>
        <time>2026-05-22T15:16:37.000Z</time>
      </trkpt>
      <trkpt lat="42.94522" lon="-1.26506">
        <ele>690.401273</ele>
        <time>2026-05-22T15:16:40.000Z</time>
      </trkpt>
      <trkpt lat="42.94522" lon="-1.26506">
        <ele>690.401273</ele>
        <time>2026-05-22T15:16:41.000Z</time>
      </trkpt>
      <trkpt lat="42.94522" lon="-1.26506">
        <ele>690.401273</ele>
        <time>2026-05-22T15:16:57.000Z</time>
      </trkpt>
      <trkpt lat="42.94522" lon="-1.26506">
        <ele>690.401273</ele>
        <time>2026-05-22T15:17:02.000Z</time>
      </trkpt>
      <trkpt lat="42.94522" lon="-1.26506">
        <ele>690.401273</ele>
        <time>2026-05-22T15:17:06.000Z</time>
      </trkpt>
      <trkpt lat="42.94522" lon="-1.26506">
        <ele>690.401273</ele>
        <time>2026-05-22T15:17:07.000Z</time>
      </trkpt>
      <trkpt lat="42.94522" lon="-1.26506">
        <ele>690.401273</ele>
        <time>2026-05-22T15:17:18.000Z</time>
      </trkpt>
      <trkpt lat="42.94522" lon="-1.26506">
        <ele>690.401273</ele>
        <time>2026-05-22T15:17:35.000Z</time>
      </trkpt>
      <trkpt lat="42.94522" lon="-1.26506">
        <ele>690.401273</ele>
        <time>2026-05-22T15:17:36.000Z</time>
      </trkpt>
      <trkpt lat="42.94522" lon="-1.26506">
        <ele>690.401273</ele>
        <time>2026-05-22T15:17:40.000Z</time>
      </trkpt>
      <trkpt lat="42.94522" lon="-1.26506">
        <ele>690.401273</ele>
        <time>2026-05-22T15:17:43.000Z</time>
      </trkpt>
      <trkpt lat="42.94522" lon="-1.26506">
        <ele>690.401273</ele>
        <time>2026-05-22T15:17:44.000Z</time>
      </trkpt>
      <trkpt lat="42.94522" lon="-1.26506">
        <ele>690.401273</ele>
        <time>2026-05-22T15:17:48.000Z</time>
      </trkpt>
      <trkpt lat="42.94522" lon="-1.26506">
        <ele>690.401273</ele>
        <time>2026-05-22T15:17:53.000Z</time>
      </trkpt>
      <trkpt lat="42.94522" lon="-1.26506">
        <ele>690.401273</ele>
        <time>2026-05-22T15:17:56.000Z</time>
      </trkpt>
      <trkpt lat="42.94522" lon="-1.26506">
        <ele>690.401273</ele>
        <time>2026-05-22T15:19:11.000Z</time>
      </trkpt>
      <trkpt lat="42.94522" lon="-1.26506">
        <ele>690.401273</ele>
        <time>2026-05-22T15:19:12.000Z</time>
      </trkpt>
      <trkpt lat="42.94522" lon="-1.26506">
        <ele>690.401273</ele>
        <time>2026-05-22T15:19:21.000Z</time>
      </trkpt>
      <trkpt lat="42.94522" lon="-1.26506">
        <ele>690.401273</ele>
        <time>2026-05-22T15:19:24.000Z</time>
      </trkpt>
      <trkpt lat="42.94522" lon="-1.26506">
        <ele>690.401273</ele>
        <time>2026-05-22T15:19:25.000Z</time>
      </trkpt>
      <trkpt lat="42.94522" lon="-1.26506">
        <ele>690.401273</ele>
        <time>2026-05-22T15:19:28.000Z</time>
      </trkpt>
      <trkpt lat="42.94522" lon="-1.26506">
        <ele>690.401273</ele>
        <time>2026-05-22T15:19:29.000Z</time>
      </trkpt>
      <trkpt lat="42.94522" lon="-1.26506">
        <ele>690.401273</ele>
        <time>2026-05-22T15:19:32.000Z</time>
      </trkpt>
      <trkpt lat="42.94522" lon="-1.26506">
        <ele>690.401273</ele>
        <time>2026-05-22T15:19:37.000Z</time>
      </trkpt>
      <trkpt lat="42.94522" lon="-1.26506">
        <ele>690.401273</ele>
        <time>2026-05-22T15:19:41.000Z</time>
      </trkpt>
      <trkpt lat="42.94522" lon="-1.26506">
        <ele>690.401273</ele>
        <time>2026-05-22T15:19:58.000Z</time>
      </trkpt>
      <trkpt lat="42.94522" lon="-1.26506">
        <ele>690.401273</ele>
        <time>2026-05-22T15:20:01.000Z</time>
      </trkpt>
      <trkpt lat="42.94522" lon="-1.26506">
        <ele>690.401273</ele>
        <time>2026-05-22T15:20:02.000Z</time>
      </trkpt>
      <trkpt lat="42.94522" lon="-1.26506">
        <ele>690.401273</ele>
        <time>2026-05-22T15:20:06.000Z</time>
      </trkpt>
      <trkpt lat="42.94522" lon="-1.26506">
        <ele>690.401273</ele>
        <time>2026-05-22T15:20:11.000Z</time>
      </trkpt>
      <trkpt lat="42.94522" lon="-1.26506">
        <ele>690.401273</ele>
        <time>2026-05-22T15:20:15.000Z</time>
      </trkpt>
      <trkpt lat="42.94522" lon="-1.26506">
        <ele>690.401273</ele>
        <time>2026-05-22T15:20:18.000Z</time>
      </trkpt>
      <trkpt lat="42.94522" lon="-1.26506">
        <ele>690.401273</ele>
        <time>2026-05-22T15:20:23.000Z</time>
      </trkpt>
      <trkpt lat="42.94522" lon="-1.26506">
        <ele>690.401273</ele>
        <time>2026-05-22T15:20:28.000Z</time>
      </trkpt>
      <trkpt lat="42.94522" lon="-1.26506">
        <ele>690.401273</ele>
        <time>2026-05-22T15:20:31.000Z</time>
      </trkpt>
      <trkpt lat="42.94522" lon="-1.26506">
        <ele>690.401273</ele>
        <time>2026-05-22T15:20:40.000Z</time>
      </trkpt>
      <trkpt lat="42.94522" lon="-1.26506">
        <ele>690.401273</ele>
        <time>2026-05-22T15:20:43.000Z</time>
      </trkpt>
      <trkpt lat="42.94522" lon="-1.26506">
        <ele>690.401273</ele>
        <time>2026-05-22T15:20:49.000Z</time>
      </trkpt>
      <trkpt lat="42.94522" lon="-1.26506">
        <ele>690.401273</ele>
        <time>2026-05-22T15:20:52.000Z</time>
      </trkpt>
      <trkpt lat="42.94522" lon="-1.26506">
        <ele>690.401273</ele>
        <time>2026-05-22T15:21:05.000Z</time>
      </trkpt>
      <trkpt lat="42.94522" lon="-1.26506">
        <ele>690.401273</ele>
        <time>2026-05-22T15:21:08.000Z</time>
      </trkpt>
      <trkpt lat="42.94522" lon="-1.26506">
        <ele>690.401273</ele>
        <time>2026-05-22T15:21:26.000Z</time>
      </trkpt>
      <trkpt lat="42.94522" lon="-1.26506">
        <ele>690.401273</ele>
        <time>2026-05-22T15:21:29.000Z</time>
      </trkpt>
      <trkpt lat="42.94522" lon="-1.26506">
        <ele>690.401273</ele>
        <time>2026-05-22T15:21:51.000Z</time>
      </trkpt>
      <trkpt lat="42.94522" lon="-1.26506">
        <ele>690.401273</ele>
        <time>2026-05-22T15:21:55.000Z</time>
      </trkpt>
      <trkpt lat="42.94522" lon="-1.26506">
        <ele>690.401273</ele>
        <time>2026-05-22T15:22:05.000Z</time>
      </trkpt>
      <trkpt lat="42.94522" lon="-1.26506">
        <ele>690.401273</ele>
        <time>2026-05-22T15:22:10.000Z</time>
      </trkpt>
      <trkpt lat="42.94522" lon="-1.26506">
        <ele>690.401273</ele>
        <time>2026-05-22T15:22:40.000Z</time>
      </trkpt>
      <trkpt lat="42.94522" lon="-1.26506">
        <ele>690.401273</ele>
        <time>2026-05-22T15:22:41.000Z</time>
      </trkpt>
      <trkpt lat="42.94522" lon="-1.26506">
        <ele>690.401273</ele>
        <time>2026-05-22T15:22:52.000Z</time>
      </trkpt>
      <trkpt lat="42.94522" lon="-1.26506">
        <ele>690.401273</ele>
        <time>2026-05-22T15:22:53.000Z</time>
      </trkpt>
      <trkpt lat="42.94522" lon="-1.26506">
        <ele>690.401273</ele>
        <time>2026-05-22T15:22:59.000Z</time>
      </trkpt>
      <trkpt lat="42.94522" lon="-1.26506">
        <ele>690.401273</ele>
        <time>2026-05-22T15:23:03.000Z</time>
      </trkpt>
      <trkpt lat="42.94522" lon="-1.26506">
        <ele>690.401273</ele>
        <time>2026-05-22T15:23:07.000Z</time>
      </trkpt>
      <trkpt lat="42.94464" lon="-1.2642">
        <ele>690.825941</ele>
        <time>2026-05-22T15:24:23.000Z</time>
      </trkpt>
      <trkpt lat="42.94464" lon="-1.26421">
        <ele>690.827312</ele>
        <time>2026-05-22T15:24:24.000Z</time>
      </trkpt>
      <trkpt lat="42.94464" lon="-1.2642">
        <ele>690.828408</ele>
        <time>2026-05-22T15:24:25.000Z</time>
      </trkpt>
      <trkpt lat="42.94462" lon="-1.26417">
        <ele>690.839324</ele>
        <time>2026-05-22T15:24:34.000Z</time>
      </trkpt>
      <trkpt lat="42.9446" lon="-1.26417">
        <ele>690.847144</ele>
        <time>2026-05-22T15:24:35.000Z</time>
      </trkpt>
      <trkpt lat="42.94457" lon="-1.26417">
        <ele>690.856012</ele>
        <time>2026-05-22T15:24:36.000Z</time>
      </trkpt>
      <trkpt lat="42.94455" lon="-1.26416">
        <ele>690.864703</ele>
        <time>2026-05-22T15:24:37.000Z</time>
      </trkpt>
      <trkpt lat="42.94453" lon="-1.26415">
        <ele>690.873884</ele>
        <time>2026-05-22T15:24:38.000Z</time>
      </trkpt>
      <trkpt lat="42.9445" lon="-1.26414">
        <ele>690.882964</ele>
        <time>2026-05-22T15:24:39.000Z</time>
      </trkpt>
      <trkpt lat="42.94448" lon="-1.26412">
        <ele>690.892878</ele>
        <time>2026-05-22T15:24:40.000Z</time>
      </trkpt>
      <trkpt lat="42.94445" lon="-1.2641">
        <ele>690.903753</ele>
        <time>2026-05-22T15:24:41.000Z</time>
      </trkpt>
      <trkpt lat="42.94443" lon="-1.26408">
        <ele>690.914893</ele>
        <time>2026-05-22T15:24:42.000Z</time>
      </trkpt>
      <trkpt lat="42.9444" lon="-1.26406">
        <ele>690.925445</ele>
        <time>2026-05-22T15:24:43.000Z</time>
      </trkpt>
      <trkpt lat="42.94438" lon="-1.26403">
        <ele>690.936869</ele>
        <time>2026-05-22T15:24:44.000Z</time>
      </trkpt>
      <trkpt lat="42.94435" lon="-1.26401">
        <ele>690.947986</ele>
        <time>2026-05-22T15:24:45.000Z</time>
      </trkpt>
      <trkpt lat="42.94433" lon="-1.26399">
        <ele>690.959102</ele>
        <time>2026-05-22T15:24:46.000Z</time>
      </trkpt>
      <trkpt lat="42.9443" lon="-1.26396">
        <ele>690.97053</ele>
        <time>2026-05-22T15:24:47.000Z</time>
      </trkpt>
      <trkpt lat="42.94427" lon="-1.26394">
        <ele>690.982265</ele>
        <time>2026-05-22T15:24:48.000Z</time>
      </trkpt>
      <trkpt lat="42.94425" lon="-1.26391">
        <ele>690.994449</ele>
        <time>2026-05-22T15:24:49.000Z</time>
      </trkpt>
      <trkpt lat="42.94422" lon="-1.26389">
        <ele>691.007591</ele>
        <time>2026-05-22T15:24:50.000Z</time>
      </trkpt>
      <trkpt lat="42.94419" lon="-1.26387">
        <ele>691.020552</ele>
        <time>2026-05-22T15:24:51.000Z</time>
      </trkpt>
      <trkpt lat="42.94416" lon="-1.26384">
        <ele>691.033496</ele>
        <time>2026-05-22T15:24:52.000Z</time>
      </trkpt>
      <trkpt lat="42.94413" lon="-1.26381">
        <ele>691.046144</ele>
        <time>2026-05-22T15:24:53.000Z</time>
      </trkpt>
      <trkpt lat="42.9441" lon="-1.26379">
        <ele>691.05985</ele>
        <time>2026-05-22T15:24:54.000Z</time>
      </trkpt>
      <trkpt lat="42.94407" lon="-1.26376">
        <ele>691.073267</ele>
        <time>2026-05-22T15:24:55.000Z</time>
      </trkpt>
      <trkpt lat="42.94404" lon="-1.26373">
        <ele>691.086683</ele>
        <time>2026-05-22T15:24:56.000Z</time>
      </trkpt>
      <trkpt lat="42.94401" lon="-1.2637">
        <ele>691.100238</ele>
        <time>2026-05-22T15:24:57.000Z</time>
      </trkpt>
      <trkpt lat="42.94398" lon="-1.26368">
        <ele>691.113488</ele>
        <time>2026-05-22T15:24:58.000Z</time>
      </trkpt>
      <trkpt lat="42.94395" lon="-1.26365">
        <ele>691.126592</ele>
        <time>2026-05-22T15:24:59.000Z</time>
      </trkpt>
      <trkpt lat="42.94391" lon="-1.26363">
        <ele>691.140324</ele>
        <time>2026-05-22T15:25:00.000Z</time>
      </trkpt>
      <trkpt lat="42.94388" lon="-1.2636">
        <ele>691.154652</ele>
        <time>2026-05-22T15:25:01.000Z</time>
      </trkpt>
      <trkpt lat="42.94385" lon="-1.26357">
        <ele>691.168384</ele>
        <time>2026-05-22T15:25:02.000Z</time>
      </trkpt>
      <trkpt lat="42.94382" lon="-1.26354">
        <ele>691.182257</ele>
        <time>2026-05-22T15:25:03.000Z</time>
      </trkpt>
      <trkpt lat="42.94378" lon="-1.26352">
        <ele>691.196174</ele>
        <time>2026-05-22T15:25:04.000Z</time>
      </trkpt>
      <trkpt lat="42.94375" lon="-1.26349">
        <ele>691.210338</ele>
        <time>2026-05-22T15:25:05.000Z</time>
      </trkpt>
      <trkpt lat="42.94372" lon="-1.26346">
        <ele>691.224349</ele>
        <time>2026-05-22T15:25:06.000Z</time>
      </trkpt>
      <trkpt lat="42.94369" lon="-1.26343">
        <ele>691.239589</ele>
        <time>2026-05-22T15:25:07.000Z</time>
      </trkpt>
      <trkpt lat="42.94365" lon="-1.2634">
        <ele>691.254868</ele>
        <time>2026-05-22T15:25:08.000Z</time>
      </trkpt>
      <trkpt lat="42.94362" lon="-1.26337">
        <ele>691.269511</ele>
        <time>2026-05-22T15:25:09.000Z</time>
      </trkpt>
      <trkpt lat="42.94358" lon="-1.26335">
        <ele>691.284925</ele>
        <time>2026-05-22T15:25:10.000Z</time>
      </trkpt>
      <trkpt lat="42.94354" lon="-1.26332">
        <ele>691.302405</ele>
        <time>2026-05-22T15:25:11.000Z</time>
      </trkpt>
      <trkpt lat="42.9435" lon="-1.26329">
        <ele>691.319412</ele>
        <time>2026-05-22T15:25:12.000Z</time>
      </trkpt>
      <trkpt lat="42.94345" lon="-1.26326">
        <ele>691.336893</ele>
        <time>2026-05-22T15:25:13.000Z</time>
      </trkpt>
      <trkpt lat="42.94341" lon="-1.26323">
        <ele>691.35413</ele>
        <time>2026-05-22T15:25:14.000Z</time>
      </trkpt>
      <trkpt lat="42.94337" lon="-1.2632">
        <ele>691.373046</ele>
        <time>2026-05-22T15:25:15.000Z</time>
      </trkpt>
      <trkpt lat="42.94332" lon="-1.26315">
        <ele>691.369723</ele>
        <time>2026-05-22T15:25:16.000Z</time>
      </trkpt>
      <trkpt lat="42.94328" lon="-1.26311">
        <ele>691.340884</ele>
        <time>2026-05-22T15:25:17.000Z</time>
      </trkpt>
      <trkpt lat="42.94323" lon="-1.26307">
        <ele>691.311855</ele>
        <time>2026-05-22T15:25:18.000Z</time>
      </trkpt>
      <trkpt lat="42.94318" lon="-1.26305">
        <ele>691.283202</ele>
        <time>2026-05-22T15:25:19.000Z</time>
      </trkpt>
      <trkpt lat="42.94313" lon="-1.26306">
        <ele>691.25466</ele>
        <time>2026-05-22T15:25:20.000Z</time>
      </trkpt>
      <trkpt lat="42.94308" lon="-1.26307">
        <ele>691.227288</ele>
        <time>2026-05-22T15:25:21.000Z</time>
      </trkpt>
      <trkpt lat="42.94303" lon="-1.26311">
        <ele>691.201135</ele>
        <time>2026-05-22T15:25:22.000Z</time>
      </trkpt>
      <trkpt lat="42.94299" lon="-1.26313">
        <ele>691.174077</ele>
        <time>2026-05-22T15:25:23.000Z</time>
      </trkpt>
      <trkpt lat="42.94294" lon="-1.26317">
        <ele>691.147555</ele>
        <time>2026-05-22T15:25:24.000Z</time>
      </trkpt>
      <trkpt lat="42.9429" lon="-1.2632">
        <ele>691.122587</ele>
        <time>2026-05-22T15:25:25.000Z</time>
      </trkpt>
      <trkpt lat="42.94286" lon="-1.26324">
        <ele>691.096775</ele>
        <time>2026-05-22T15:25:26.000Z</time>
      </trkpt>
      <trkpt lat="42.94282" lon="-1.26327">
        <ele>691.071442</ele>
        <time>2026-05-22T15:25:27.000Z</time>
      </trkpt>
      <trkpt lat="42.94277" lon="-1.26329">
        <ele>691.046922</ele>
        <time>2026-05-22T15:25:28.000Z</time>
      </trkpt>
      <trkpt lat="42.94273" lon="-1.26332">
        <ele>691.022092</ele>
        <time>2026-05-22T15:25:29.000Z</time>
      </trkpt>
      <trkpt lat="42.94269" lon="-1.26335">
        <ele>690.998511</ele>
        <time>2026-05-22T15:25:30.000Z</time>
      </trkpt>
      <trkpt lat="42.94265" lon="-1.26338">
        <ele>690.975102</ele>
        <time>2026-05-22T15:25:31.000Z</time>
      </trkpt>
      <trkpt lat="42.94261" lon="-1.2634">
        <ele>690.951861</ele>
        <time>2026-05-22T15:25:32.000Z</time>
      </trkpt>
      <trkpt lat="42.94257" lon="-1.26342">
        <ele>690.930136</ele>
        <time>2026-05-22T15:25:33.000Z</time>
      </trkpt>
      <trkpt lat="42.94253" lon="-1.26343">
        <ele>690.908017</ele>
        <time>2026-05-22T15:25:34.000Z</time>
      </trkpt>
      <trkpt lat="42.94249" lon="-1.26342">
        <ele>690.885132</ele>
        <time>2026-05-22T15:25:35.000Z</time>
      </trkpt>
      <trkpt lat="42.94244" lon="-1.2634">
        <ele>690.861173</ele>
        <time>2026-05-22T15:25:36.000Z</time>
      </trkpt>
      <trkpt lat="42.9424" lon="-1.26336">
        <ele>690.837303</ele>
        <time>2026-05-22T15:25:37.000Z</time>
      </trkpt>
      <trkpt lat="42.94237" lon="-1.26332">
        <ele>690.814285</ele>
        <time>2026-05-22T15:25:38.000Z</time>
      </trkpt>
      <trkpt lat="42.94235" lon="-1.26327">
        <ele>690.790729</ele>
        <time>2026-05-22T15:25:39.000Z</time>
      </trkpt>
      <trkpt lat="42.94232" lon="-1.26322">
        <ele>690.767443</ele>
        <time>2026-05-22T15:25:40.000Z</time>
      </trkpt>
      <trkpt lat="42.9423" lon="-1.26317">
        <ele>690.742939</ele>
        <time>2026-05-22T15:25:41.000Z</time>
      </trkpt>
      <trkpt lat="42.94227" lon="-1.26311">
        <ele>690.717746</ele>
        <time>2026-05-22T15:25:42.000Z</time>
      </trkpt>
      <trkpt lat="42.94225" lon="-1.26306">
        <ele>690.693154</ele>
        <time>2026-05-22T15:25:43.000Z</time>
      </trkpt>
      <trkpt lat="42.94222" lon="-1.263">
        <ele>690.66833</ele>
        <time>2026-05-22T15:25:44.000Z</time>
      </trkpt>
      <trkpt lat="42.9422" lon="-1.26295">
        <ele>690.643184</ele>
        <time>2026-05-22T15:25:45.000Z</time>
      </trkpt>
      <trkpt lat="42.94217" lon="-1.26289">
        <ele>690.617714</ele>
        <time>2026-05-22T15:25:46.000Z</time>
      </trkpt>
      <trkpt lat="42.94214" lon="-1.26284">
        <ele>690.592568</ele>
        <time>2026-05-22T15:25:47.000Z</time>
      </trkpt>
      <trkpt lat="42.94212" lon="-1.26278">
        <ele>690.567744</ele>
        <time>2026-05-22T15:25:48.000Z</time>
      </trkpt>
      <trkpt lat="42.94209" lon="-1.26273">
        <ele>690.543152</ele>
        <time>2026-05-22T15:25:49.000Z</time>
      </trkpt>
      <trkpt lat="42.94207" lon="-1.26267">
        <ele>690.518286</ele>
        <time>2026-05-22T15:25:50.000Z</time>
      </trkpt>
      <trkpt lat="42.94204" lon="-1.26262">
        <ele>690.492211</ele>
        <time>2026-05-22T15:25:51.000Z</time>
      </trkpt>
      <trkpt lat="42.94202" lon="-1.26256">
        <ele>690.467345</ele>
        <time>2026-05-22T15:25:52.000Z</time>
      </trkpt>
      <trkpt lat="42.94199" lon="-1.2625">
        <ele>690.44209</ele>
        <time>2026-05-22T15:25:53.000Z</time>
      </trkpt>
      <trkpt lat="42.94197" lon="-1.26245">
        <ele>690.477031</ele>
        <time>2026-05-22T15:25:54.000Z</time>
      </trkpt>
      <trkpt lat="42.94195" lon="-1.26239">
        <ele>690.521129</ele>
        <time>2026-05-22T15:25:55.000Z</time>
      </trkpt>
      <trkpt lat="42.94192" lon="-1.26234">
        <ele>690.564777</ele>
        <time>2026-05-22T15:25:56.000Z</time>
      </trkpt>
      <trkpt lat="42.9419" lon="-1.26227">
        <ele>690.610591</ele>
        <time>2026-05-22T15:25:57.000Z</time>
      </trkpt>
      <trkpt lat="42.94189" lon="-1.26221">
        <ele>690.655132</ele>
        <time>2026-05-22T15:25:58.000Z</time>
      </trkpt>
      <trkpt lat="42.94188" lon="-1.26214">
        <ele>690.699192</ele>
        <time>2026-05-22T15:25:59.000Z</time>
      </trkpt>
      <trkpt lat="42.94188" lon="-1.26208">
        <ele>690.742937</ele>
        <time>2026-05-22T15:26:00.000Z</time>
      </trkpt>
      <trkpt lat="42.94188" lon="-1.26201">
        <ele>690.787878</ele>
        <time>2026-05-22T15:26:01.000Z</time>
      </trkpt>
      <trkpt lat="42.94187" lon="-1.26195">
        <ele>690.832959</ele>
        <time>2026-05-22T15:26:02.000Z</time>
      </trkpt>
      <trkpt lat="42.94187" lon="-1.26189">
        <ele>690.87136</ele>
        <time>2026-05-22T15:26:03.000Z</time>
      </trkpt>
      <trkpt lat="42.94186" lon="-1.26185">
        <ele>690.898743</ele>
        <time>2026-05-22T15:26:04.000Z</time>
      </trkpt>
      <trkpt lat="42.94186" lon="-1.26182">
        <ele>690.916123</ele>
        <time>2026-05-22T15:26:05.000Z</time>
      </trkpt>
      <trkpt lat="42.94185" lon="-1.26181">
        <ele>690.925868</ele>
        <time>2026-05-22T15:26:06.000Z</time>
      </trkpt>
      <trkpt lat="42.94185" lon="-1.26181">
        <ele>690.930741</ele>
        <time>2026-05-22T15:26:07.000Z</time>
      </trkpt>
      <trkpt lat="42.94186" lon="-1.26178">
        <ele>690.948825</ele>
        <time>2026-05-22T15:27:11.000Z</time>
      </trkpt>
      <trkpt lat="42.94186" lon="-1.26175">
        <ele>690.968965</ele>
        <time>2026-05-22T15:27:12.000Z</time>
      </trkpt>
      <trkpt lat="42.94186" lon="-1.26172">
        <ele>690.989774</ele>
        <time>2026-05-22T15:27:13.000Z</time>
      </trkpt>
      <trkpt lat="42.94186" lon="-1.26168">
        <ele>691.018669</ele>
        <time>2026-05-22T15:27:14.000Z</time>
      </trkpt>
      <trkpt lat="42.94186" lon="-1.26163">
        <ele>691.047637</ele>
        <time>2026-05-22T15:27:15.000Z</time>
      </trkpt>
      <trkpt lat="42.94186" lon="-1.26159">
        <ele>691.07854</ele>
        <time>2026-05-22T15:27:16.000Z</time>
      </trkpt>
      <trkpt lat="42.94187" lon="-1.26154">
        <ele>691.110073</ele>
        <time>2026-05-22T15:27:17.000Z</time>
      </trkpt>
      <trkpt lat="42.94187" lon="-1.26149">
        <ele>691.144385</ele>
        <time>2026-05-22T15:27:18.000Z</time>
      </trkpt>
      <trkpt lat="42.94187" lon="-1.26144">
        <ele>691.17994</ele>
        <time>2026-05-22T15:27:19.000Z</time>
      </trkpt>
      <trkpt lat="42.94187" lon="-1.26139">
        <ele>691.212852</ele>
        <time>2026-05-22T15:27:20.000Z</time>
      </trkpt>
      <trkpt lat="42.94186" lon="-1.26134">
        <ele>691.247833</ele>
        <time>2026-05-22T15:27:21.000Z</time>
      </trkpt>
      <trkpt lat="42.94186" lon="-1.26128">
        <ele>691.282813</ele>
        <time>2026-05-22T15:27:22.000Z</time>
      </trkpt>
      <trkpt lat="42.94186" lon="-1.26123">
        <ele>691.316544</ele>
        <time>2026-05-22T15:27:23.000Z</time>
      </trkpt>
      <trkpt lat="42.94185" lon="-1.26118">
        <ele>691.352862</ele>
        <time>2026-05-22T15:27:24.000Z</time>
      </trkpt>
      <trkpt lat="42.94185" lon="-1.26113">
        <ele>691.387175</ele>
        <time>2026-05-22T15:27:25.000Z</time>
      </trkpt>
      <trkpt lat="42.94185" lon="-1.26108">
        <ele>691.421389</ele>
        <time>2026-05-22T15:27:26.000Z</time>
      </trkpt>
      <trkpt lat="42.94185" lon="-1.26103">
        <ele>691.450911</ele>
        <time>2026-05-22T15:27:27.000Z</time>
      </trkpt>
      <trkpt lat="42.94185" lon="-1.26099">
        <ele>691.483153</ele>
        <time>2026-05-22T15:27:28.000Z</time>
      </trkpt>
      <trkpt lat="42.94185" lon="-1.26094">
        <ele>691.515343</ele>
        <time>2026-05-22T15:27:29.000Z</time>
      </trkpt>
      <trkpt lat="42.94185" lon="-1.26089">
        <ele>691.547533</ele>
        <time>2026-05-22T15:27:30.000Z</time>
      </trkpt>
      <trkpt lat="42.94185" lon="-1.26084">
        <ele>691.581077</ele>
        <time>2026-05-22T15:27:31.000Z</time>
      </trkpt>
      <trkpt lat="42.94185" lon="-1.26079">
        <ele>691.613319</ele>
        <time>2026-05-22T15:27:32.000Z</time>
      </trkpt>
      <trkpt lat="42.94185" lon="-1.26075">
        <ele>691.644222</ele>
        <time>2026-05-22T15:27:33.000Z</time>
      </trkpt>
      <trkpt lat="42.94185" lon="-1.2607">
        <ele>691.67319</ele>
        <time>2026-05-22T15:27:34.000Z</time>
      </trkpt>
      <trkpt lat="42.94186" lon="-1.26066">
        <ele>691.703424</ele>
        <time>2026-05-22T15:27:35.000Z</time>
      </trkpt>
      <trkpt lat="42.94186" lon="-1.26061">
        <ele>691.732946</ele>
        <time>2026-05-22T15:27:36.000Z</time>
      </trkpt>
      <trkpt lat="42.94186" lon="-1.26057">
        <ele>691.760457</ele>
        <time>2026-05-22T15:27:37.000Z</time>
      </trkpt>
      <trkpt lat="42.94185" lon="-1.26053">
        <ele>691.787297</ele>
        <time>2026-05-22T15:27:38.000Z</time>
      </trkpt>
      <trkpt lat="42.94185" lon="-1.2605">
        <ele>691.812798</ele>
        <time>2026-05-22T15:27:39.000Z</time>
      </trkpt>
      <trkpt lat="42.94185" lon="-1.26046">
        <ele>691.836958</ele>
        <time>2026-05-22T15:27:40.000Z</time>
      </trkpt>
      <trkpt lat="42.94185" lon="-1.26042">
        <ele>691.861788</ele>
        <time>2026-05-22T15:27:41.000Z</time>
      </trkpt>
      <trkpt lat="42.94185" lon="-1.26038">
        <ele>691.887288</ele>
        <time>2026-05-22T15:27:42.000Z</time>
      </trkpt>
      <trkpt lat="42.94185" lon="-1.26035">
        <ele>691.913442</ele>
        <time>2026-05-22T15:27:43.000Z</time>
      </trkpt>
      <trkpt lat="42.94185" lon="-1.26031">
        <ele>691.94033</ele>
        <time>2026-05-22T15:27:44.000Z</time>
      </trkpt>
      <trkpt lat="42.94185" lon="-1.26027">
        <ele>691.96588</ele>
        <time>2026-05-22T15:27:45.000Z</time>
      </trkpt>
      <trkpt lat="42.94185" lon="-1.26023">
        <ele>691.99138</ele>
        <time>2026-05-22T15:27:46.000Z</time>
      </trkpt>
      <trkpt lat="42.94185" lon="-1.26019">
        <ele>692.018267</ele>
        <time>2026-05-22T15:27:47.000Z</time>
      </trkpt>
      <trkpt lat="42.94185" lon="-1.26015">
        <ele>692.044422</ele>
        <time>2026-05-22T15:27:48.000Z</time>
      </trkpt>
      <trkpt lat="42.94185" lon="-1.26011">
        <ele>692.071933</ele>
        <time>2026-05-22T15:27:49.000Z</time>
      </trkpt>
      <trkpt lat="42.94185" lon="-1.26007">
        <ele>692.145969</ele>
        <time>2026-05-22T15:27:50.000Z</time>
      </trkpt>
      <trkpt lat="42.94185" lon="-1.26003">
        <ele>692.283457</ele>
        <time>2026-05-22T15:27:51.000Z</time>
      </trkpt>
      <trkpt lat="42.94184" lon="-1.25998">
        <ele>692.427283</ele>
        <time>2026-05-22T15:27:52.000Z</time>
      </trkpt>
      <trkpt lat="42.94184" lon="-1.25994">
        <ele>692.56477</ele>
        <time>2026-05-22T15:27:53.000Z</time>
      </trkpt>
      <trkpt lat="42.94183" lon="-1.2599">
        <ele>692.700211</ele>
        <time>2026-05-22T15:27:54.000Z</time>
      </trkpt>
      <trkpt lat="42.94183" lon="-1.25985">
        <ele>692.836418</ele>
        <time>2026-05-22T15:27:55.000Z</time>
      </trkpt>
      <trkpt lat="42.94182" lon="-1.25981">
        <ele>692.976629</ele>
        <time>2026-05-22T15:27:56.000Z</time>
      </trkpt>
      <trkpt lat="42.94181" lon="-1.25977">
        <ele>693.106786</ele>
        <time>2026-05-22T15:27:57.000Z</time>
      </trkpt>
      <trkpt lat="42.9418" lon="-1.25973">
        <ele>693.233912</ele>
        <time>2026-05-22T15:27:58.000Z</time>
      </trkpt>
      <trkpt lat="42.94179" lon="-1.2597">
        <ele>693.35808</ele>
        <time>2026-05-22T15:27:59.000Z</time>
      </trkpt>
      <trkpt lat="42.94178" lon="-1.25966">
        <ele>693.487171</ele>
        <time>2026-05-22T15:28:00.000Z</time>
      </trkpt>
      <trkpt lat="42.94176" lon="-1.25963">
        <ele>693.608573</ele>
        <time>2026-05-22T15:28:01.000Z</time>
      </trkpt>
      <trkpt lat="42.94175" lon="-1.25959">
        <ele>693.739915</ele>
        <time>2026-05-22T15:28:02.000Z</time>
      </trkpt>
      <trkpt lat="42.94173" lon="-1.25956">
        <ele>693.871763</ele>
        <time>2026-05-22T15:28:03.000Z</time>
      </trkpt>
      <trkpt lat="42.94172" lon="-1.25953">
        <ele>693.993165</ele>
        <time>2026-05-22T15:28:04.000Z</time>
      </trkpt>
      <trkpt lat="42.9417" lon="-1.25949">
        <ele>694.121605</ele>
        <time>2026-05-22T15:28:05.000Z</time>
      </trkpt>
      <trkpt lat="42.94169" lon="-1.25946">
        <ele>694.234666</ele>
        <time>2026-05-22T15:28:06.000Z</time>
      </trkpt>
      <trkpt lat="42.94167" lon="-1.25943">
        <ele>694.360515</ele>
        <time>2026-05-22T15:28:07.000Z</time>
      </trkpt>
      <trkpt lat="42.94166" lon="-1.2594">
        <ele>694.472134</ele>
        <time>2026-05-22T15:28:08.000Z</time>
      </trkpt>
      <trkpt lat="42.94164" lon="-1.25937">
        <ele>694.583752</ele>
        <time>2026-05-22T15:28:09.000Z</time>
      </trkpt>
      <trkpt lat="42.94163" lon="-1.25934">
        <ele>694.693405</ele>
        <time>2026-05-22T15:28:10.000Z</time>
      </trkpt>
      <trkpt lat="42.94162" lon="-1.25931">
        <ele>694.801232</ele>
        <time>2026-05-22T15:28:11.000Z</time>
      </trkpt>
      <trkpt lat="42.94162" lon="-1.25928">
        <ele>694.910591</ele>
        <time>2026-05-22T15:28:12.000Z</time>
      </trkpt>
      <trkpt lat="42.94161" lon="-1.25924">
        <ele>695.02891</ele>
        <time>2026-05-22T15:28:13.000Z</time>
      </trkpt>
      <trkpt lat="42.94159" lon="-1.25921">
        <ele>695.144325</ele>
        <time>2026-05-22T15:28:14.000Z</time>
      </trkpt>
      <trkpt lat="42.94158" lon="-1.25918">
        <ele>695.256851</ele>
        <time>2026-05-22T15:28:15.000Z</time>
      </trkpt>
      <trkpt lat="42.94157" lon="-1.25915">
        <ele>695.367816</ele>
        <time>2026-05-22T15:28:16.000Z</time>
      </trkpt>
      <trkpt lat="42.94156" lon="-1.25912">
        <ele>695.469851</ele>
        <time>2026-05-22T15:28:17.000Z</time>
      </trkpt>
      <trkpt lat="42.94155" lon="-1.25909">
        <ele>695.577779</ele>
        <time>2026-05-22T15:28:18.000Z</time>
      </trkpt>
      <trkpt lat="42.94153" lon="-1.25906">
        <ele>695.68835</ele>
        <time>2026-05-22T15:28:19.000Z</time>
      </trkpt>
      <trkpt lat="42.94152" lon="-1.25903">
        <ele>695.796588</ele>
        <time>2026-05-22T15:28:20.000Z</time>
      </trkpt>
      <trkpt lat="42.94151" lon="-1.259">
        <ele>695.908206</ele>
        <time>2026-05-22T15:28:21.000Z</time>
      </trkpt>
      <trkpt lat="42.94149" lon="-1.25897">
        <ele>696.027488</ele>
        <time>2026-05-22T15:28:22.000Z</time>
      </trkpt>
      <trkpt lat="42.94148" lon="-1.25893">
        <ele>696.149582</ele>
        <time>2026-05-22T15:28:23.000Z</time>
      </trkpt>
      <trkpt lat="42.94147" lon="-1.2589">
        <ele>696.274506</ele>
        <time>2026-05-22T15:28:24.000Z</time>
      </trkpt>
      <trkpt lat="42.94145" lon="-1.25886">
        <ele>696.406354</ele>
        <time>2026-05-22T15:28:25.000Z</time>
      </trkpt>
      <trkpt lat="42.94144" lon="-1.25883">
        <ele>696.514593</ele>
        <time>2026-05-22T15:28:26.000Z</time>
      </trkpt>
      <trkpt lat="42.94143" lon="-1.2588">
        <ele>696.625558</ele>
        <time>2026-05-22T15:28:27.000Z</time>
      </trkpt>
      <trkpt lat="42.94141" lon="-1.25877">
        <ele>696.744217</ele>
        <time>2026-05-22T15:28:28.000Z</time>
      </trkpt>
      <trkpt lat="42.9414" lon="-1.25874">
        <ele>696.857459</ele>
        <time>2026-05-22T15:28:29.000Z</time>
      </trkpt>
      <trkpt lat="42.94139" lon="-1.25871">
        <ele>696.98441</ele>
        <time>2026-05-22T15:28:30.000Z</time>
      </trkpt>
      <trkpt lat="42.94137" lon="-1.25868">
        <ele>697.100047</ele>
        <time>2026-05-22T15:28:31.000Z</time>
      </trkpt>
      <trkpt lat="42.94135" lon="-1.25865">
        <ele>697.218192</ele>
        <time>2026-05-22T15:28:32.000Z</time>
      </trkpt>
      <trkpt lat="42.94134" lon="-1.25862">
        <ele>697.328763</ele>
        <time>2026-05-22T15:28:33.000Z</time>
      </trkpt>
      <trkpt lat="42.94133" lon="-1.25859">
        <ele>697.439202</ele>
        <time>2026-05-22T15:28:34.000Z</time>
      </trkpt>
      <trkpt lat="42.94131" lon="-1.25856">
        <ele>697.544739</ele>
        <time>2026-05-22T15:28:35.000Z</time>
      </trkpt>
      <trkpt lat="42.9413" lon="-1.25853">
        <ele>697.650276</ele>
        <time>2026-05-22T15:28:36.000Z</time>
      </trkpt>
      <trkpt lat="42.94129" lon="-1.25851">
        <ele>697.75314</ele>
        <time>2026-05-22T15:28:37.000Z</time>
      </trkpt>
      <trkpt lat="42.94128" lon="-1.25848">
        <ele>697.848724</ele>
        <time>2026-05-22T15:28:38.000Z</time>
      </trkpt>
      <trkpt lat="42.94126" lon="-1.25845">
        <ele>697.944309</ele>
        <time>2026-05-22T15:28:39.000Z</time>
      </trkpt>
      <trkpt lat="42.94126" lon="-1.25842">
        <ele>698.047506</ele>
        <time>2026-05-22T15:28:40.000Z</time>
      </trkpt>
      <trkpt lat="42.94124" lon="-1.2584">
        <ele>698.153043</ele>
        <time>2026-05-22T15:28:41.000Z</time>
      </trkpt>
      <trkpt lat="42.94123" lon="-1.25836">
        <ele>698.277211</ele>
        <time>2026-05-22T15:28:42.000Z</time>
      </trkpt>
      <trkpt lat="42.94122" lon="-1.25833">
        <ele>698.402135</ele>
        <time>2026-05-22T15:28:43.000Z</time>
      </trkpt>
      <trkpt lat="42.94121" lon="-1.2583">
        <ele>698.508284</ele>
        <time>2026-05-22T15:28:44.000Z</time>
      </trkpt>
      <trkpt lat="42.9412" lon="-1.25827">
        <ele>698.608544</ele>
        <time>2026-05-22T15:28:45.000Z</time>
      </trkpt>
      <trkpt lat="42.94119" lon="-1.25823">
        <ele>698.741629</ele>
        <time>2026-05-22T15:28:46.000Z</time>
      </trkpt>
      <trkpt lat="42.94118" lon="-1.2582">
        <ele>698.841852</ele>
        <time>2026-05-22T15:28:47.000Z</time>
      </trkpt>
      <trkpt lat="42.94118" lon="-1.25817">
        <ele>698.931665</ele>
        <time>2026-05-22T15:28:48.000Z</time>
      </trkpt>
      <trkpt lat="42.94117" lon="-1.25815">
        <ele>699.013897</ele>
        <time>2026-05-22T15:28:49.000Z</time>
      </trkpt>
      <trkpt lat="42.94116" lon="-1.25812">
        <ele>699.106611</ele>
        <time>2026-05-22T15:28:50.000Z</time>
      </trkpt>
      <trkpt lat="42.94116" lon="-1.25809">
        <ele>699.195259</ele>
        <time>2026-05-22T15:28:51.000Z</time>
      </trkpt>
      <trkpt lat="42.94115" lon="-1.25806">
        <ele>699.301566</ele>
        <time>2026-05-22T15:28:52.000Z</time>
      </trkpt>
      <trkpt lat="42.94114" lon="-1.25803">
        <ele>699.404763</ele>
        <time>2026-05-22T15:28:53.000Z</time>
      </trkpt>
      <trkpt lat="42.94114" lon="-1.258">
        <ele>699.499596</ele>
        <time>2026-05-22T15:28:54.000Z</time>
      </trkpt>
      <trkpt lat="42.94113" lon="-1.25797">
        <ele>699.601224</ele>
        <time>2026-05-22T15:28:55.000Z</time>
      </trkpt>
      <trkpt lat="42.94112" lon="-1.25794">
        <ele>699.704484</ele>
        <time>2026-05-22T15:28:56.000Z</time>
      </trkpt>
      <trkpt lat="42.94111" lon="-1.25791">
        <ele>699.803128</ele>
        <time>2026-05-22T15:28:57.000Z</time>
      </trkpt>
      <trkpt lat="42.94111" lon="-1.25788">
        <ele>699.900324</ele>
        <time>2026-05-22T15:28:58.000Z</time>
      </trkpt>
      <trkpt lat="42.9411" lon="-1.25785">
        <ele>700.011021</ele>
        <time>2026-05-22T15:28:59.000Z</time>
      </trkpt>
      <trkpt lat="42.94109" lon="-1.25782">
        <ele>700.114356</ele>
        <time>2026-05-22T15:29:00.000Z</time>
      </trkpt>
      <trkpt lat="42.94109" lon="-1.2578">
        <ele>700.20776</ele>
        <time>2026-05-22T15:29:01.000Z</time>
      </trkpt>
      <trkpt lat="42.94108" lon="-1.25777">
        <ele>700.307702</ele>
        <time>2026-05-22T15:29:02.000Z</time>
      </trkpt>
      <trkpt lat="42.94107" lon="-1.25774">
        <ele>700.417469</ele>
        <time>2026-05-22T15:29:03.000Z</time>
      </trkpt>
      <trkpt lat="42.94106" lon="-1.25771">
        <ele>700.533154</ele>
        <time>2026-05-22T15:29:04.000Z</time>
      </trkpt>
      <trkpt lat="42.94105" lon="-1.25769">
        <ele>700.644675</ele>
        <time>2026-05-22T15:29:05.000Z</time>
      </trkpt>
      <trkpt lat="42.94104" lon="-1.25766">
        <ele>700.756195</ele>
        <time>2026-05-22T15:29:06.000Z</time>
      </trkpt>
      <trkpt lat="42.94102" lon="-1.25764">
        <ele>700.873446</ele>
        <time>2026-05-22T15:29:07.000Z</time>
      </trkpt>
      <trkpt lat="42.94101" lon="-1.25761">
        <ele>700.979192</ele>
        <time>2026-05-22T15:29:08.000Z</time>
      </trkpt>
      <trkpt lat="42.94099" lon="-1.25759">
        <ele>701.087807</ele>
        <time>2026-05-22T15:29:09.000Z</time>
      </trkpt>
      <trkpt lat="42.94098" lon="-1.25756">
        <ele>701.193553</ele>
        <time>2026-05-22T15:29:10.000Z</time>
      </trkpt>
      <trkpt lat="42.94097" lon="-1.25754">
        <ele>701.2995</ele>
        <time>2026-05-22T15:29:11.000Z</time>
      </trkpt>
      <trkpt lat="42.94096" lon="-1.25752">
        <ele>701.393858</ele>
        <time>2026-05-22T15:29:12.000Z</time>
      </trkpt>
      <trkpt lat="42.94094" lon="-1.2575">
        <ele>701.491268</ele>
        <time>2026-05-22T15:29:13.000Z</time>
      </trkpt>
      <trkpt lat="42.94093" lon="-1.25748">
        <ele>701.591409</ele>
        <time>2026-05-22T15:29:14.000Z</time>
      </trkpt>
      <trkpt lat="42.94092" lon="-1.25745">
        <ele>701.69433</ele>
        <time>2026-05-22T15:29:15.000Z</time>
      </trkpt>
      <trkpt lat="42.9409" lon="-1.25743">
        <ele>701.79174</ele>
        <time>2026-05-22T15:29:16.000Z</time>
      </trkpt>
      <trkpt lat="42.94089" lon="-1.25741">
        <ele>701.881004</ele>
        <time>2026-05-22T15:29:17.000Z</time>
      </trkpt>
      <trkpt lat="42.94089" lon="-1.25739">
        <ele>701.971197</ele>
        <time>2026-05-22T15:29:18.000Z</time>
      </trkpt>
      <trkpt lat="42.94088" lon="-1.25736">
        <ele>702.069873</ele>
        <time>2026-05-22T15:29:19.000Z</time>
      </trkpt>
      <trkpt lat="42.94086" lon="-1.25734">
        <ele>702.181394</ele>
        <time>2026-05-22T15:29:20.000Z</time>
      </trkpt>
      <trkpt lat="42.94085" lon="-1.25731">
        <ele>702.294935</ele>
        <time>2026-05-22T15:29:21.000Z</time>
      </trkpt>
      <trkpt lat="42.94084" lon="-1.25728">
        <ele>702.41169</ele>
        <time>2026-05-22T15:29:22.000Z</time>
      </trkpt>
      <trkpt lat="42.94084" lon="-1.25725">
        <ele>702.528113</ele>
        <time>2026-05-22T15:29:23.000Z</time>
      </trkpt>
      <trkpt lat="42.94083" lon="-1.25722">
        <ele>702.642948</ele>
        <time>2026-05-22T15:29:24.000Z</time>
      </trkpt>
      <trkpt lat="42.94082" lon="-1.25719">
        <ele>702.736352</ele>
        <time>2026-05-22T15:29:25.000Z</time>
      </trkpt>
      <trkpt lat="42.94081" lon="-1.25716">
        <ele>702.853107</ele>
        <time>2026-05-22T15:29:26.000Z</time>
      </trkpt>
      <trkpt lat="42.9408" lon="-1.25713">
        <ele>702.96953</ele>
        <time>2026-05-22T15:29:27.000Z</time>
      </trkpt>
      <trkpt lat="42.9408" lon="-1.2571">
        <ele>703.083104</ele>
        <time>2026-05-22T15:29:28.000Z</time>
      </trkpt>
      <trkpt lat="42.94079" lon="-1.25707">
        <ele>703.189844</ele>
        <time>2026-05-22T15:29:29.000Z</time>
      </trkpt>
      <trkpt lat="42.94079" lon="-1.25704">
        <ele>703.29785</ele>
        <time>2026-05-22T15:29:30.000Z</time>
      </trkpt>
      <trkpt lat="42.94078" lon="-1.25701">
        <ele>703.408076</ele>
        <time>2026-05-22T15:29:31.000Z</time>
      </trkpt>
      <trkpt lat="42.94078" lon="-1.25698">
        <ele>703.518302</ele>
        <time>2026-05-22T15:29:32.000Z</time>
      </trkpt>
      <trkpt lat="42.94078" lon="-1.25695">
        <ele>703.635286</ele>
        <time>2026-05-22T15:29:33.000Z</time>
      </trkpt>
      <trkpt lat="42.94078" lon="-1.25691">
        <ele>703.752271</ele>
        <time>2026-05-22T15:29:34.000Z</time>
      </trkpt>
      <trkpt lat="42.94078" lon="-1.25688">
        <ele>703.869255</ele>
        <time>2026-05-22T15:29:35.000Z</time>
      </trkpt>
      <trkpt lat="42.94078" lon="-1.25685">
        <ele>703.9936</ele>
        <time>2026-05-22T15:29:36.000Z</time>
      </trkpt>
      <trkpt lat="42.94078" lon="-1.25681">
        <ele>704.107868</ele>
        <time>2026-05-22T15:29:37.000Z</time>
      </trkpt>
      <trkpt lat="42.94079" lon="-1.25678">
        <ele>704.226344</ele>
        <time>2026-05-22T15:29:38.000Z</time>
      </trkpt>
      <trkpt lat="42.94079" lon="-1.25675">
        <ele>704.338778</ele>
        <time>2026-05-22T15:29:39.000Z</time>
      </trkpt>
      <trkpt lat="42.9408" lon="-1.25672">
        <ele>704.453761</ele>
        <time>2026-05-22T15:29:40.000Z</time>
      </trkpt>
      <trkpt lat="42.9408" lon="-1.25669">
        <ele>704.566194</ele>
        <time>2026-05-22T15:29:41.000Z</time>
      </trkpt>
      <trkpt lat="42.94081" lon="-1.25666">
        <ele>704.675962</ele>
        <time>2026-05-22T15:29:42.000Z</time>
      </trkpt>
      <trkpt lat="42.94081" lon="-1.25663">
        <ele>704.788396</ele>
        <time>2026-05-22T15:29:43.000Z</time>
      </trkpt>
      <trkpt lat="42.94082" lon="-1.2566">
        <ele>704.901969</ele>
        <time>2026-05-22T15:29:44.000Z</time>
      </trkpt>
      <trkpt lat="42.94083" lon="-1.25657">
        <ele>705.013494</ele>
        <time>2026-05-22T15:29:45.000Z</time>
      </trkpt>
      <trkpt lat="42.94084" lon="-1.25654">
        <ele>705.119954</ele>
        <time>2026-05-22T15:29:46.000Z</time>
      </trkpt>
      <trkpt lat="42.94085" lon="-1.25651">
        <ele>705.223981</ele>
        <time>2026-05-22T15:29:47.000Z</time>
      </trkpt>
      <trkpt lat="42.94086" lon="-1.25649">
        <ele>705.329728</ele>
        <time>2026-05-22T15:29:48.000Z</time>
      </trkpt>
      <trkpt lat="42.94087" lon="-1.25646">
        <ele>705.43267</ele>
        <time>2026-05-22T15:29:49.000Z</time>
      </trkpt>
      <trkpt lat="42.94088" lon="-1.25644">
        <ele>705.538617</ele>
        <time>2026-05-22T15:29:50.000Z</time>
      </trkpt>
      <trkpt lat="42.9409" lon="-1.25642">
        <ele>705.647721</ele>
        <time>2026-05-22T15:29:51.000Z</time>
      </trkpt>
      <trkpt lat="42.94091" lon="-1.25639">
        <ele>705.748014</ele>
        <time>2026-05-22T15:29:52.000Z</time>
      </trkpt>
      <trkpt lat="42.94093" lon="-1.25637">
        <ele>705.852947</ele>
        <time>2026-05-22T15:29:53.000Z</time>
      </trkpt>
      <trkpt lat="42.94095" lon="-1.25635">
        <ele>705.969003</ele>
        <time>2026-05-22T15:29:54.000Z</time>
      </trkpt>
      <trkpt lat="42.94096" lon="-1.25633">
        <ele>706.077555</ele>
        <time>2026-05-22T15:29:55.000Z</time>
      </trkpt>
      <trkpt lat="42.94098" lon="-1.25631">
        <ele>706.201417</ele>
        <time>2026-05-22T15:29:56.000Z</time>
      </trkpt>
      <trkpt lat="42.941" lon="-1.25629">
        <ele>706.327338</ele>
        <time>2026-05-22T15:29:57.000Z</time>
      </trkpt>
      <trkpt lat="42.94103" lon="-1.25627">
        <ele>706.455198</ele>
        <time>2026-05-22T15:29:58.000Z</time>
      </trkpt>
      <trkpt lat="42.94105" lon="-1.25625">
        <ele>706.57906</ele>
        <time>2026-05-22T15:29:59.000Z</time>
      </trkpt>
      <trkpt lat="42.94107" lon="-1.25623">
        <ele>706.704981</ele>
        <time>2026-05-22T15:30:00.000Z</time>
      </trkpt>
      <trkpt lat="42.94109" lon="-1.25621">
        <ele>706.840832</ele>
        <time>2026-05-22T15:30:01.000Z</time>
      </trkpt>
      <trkpt lat="42.94111" lon="-1.25618">
        <ele>706.971999</ele>
        <time>2026-05-22T15:30:02.000Z</time>
      </trkpt>
      <trkpt lat="42.94113" lon="-1.25616">
        <ele>707.103165</ele>
        <time>2026-05-22T15:30:03.000Z</time>
      </trkpt>
      <trkpt lat="42.94115" lon="-1.25614">
        <ele>707.225995</ele>
        <time>2026-05-22T15:30:04.000Z</time>
      </trkpt>
      <trkpt lat="42.94117" lon="-1.25611">
        <ele>707.343612</ele>
        <time>2026-05-22T15:30:05.000Z</time>
      </trkpt>
      <trkpt lat="42.94119" lon="-1.25609">
        <ele>707.468819</ele>
        <time>2026-05-22T15:30:06.000Z</time>
      </trkpt>
      <trkpt lat="42.9412" lon="-1.25606">
        <ele>707.596458</ele>
        <time>2026-05-22T15:30:07.000Z</time>
      </trkpt>
      <trkpt lat="42.94122" lon="-1.25604">
        <ele>707.720657</ele>
        <time>2026-05-22T15:30:08.000Z</time>
      </trkpt>
      <trkpt lat="42.94124" lon="-1.25601">
        <ele>707.835631</ele>
        <time>2026-05-22T15:30:09.000Z</time>
      </trkpt>
      <trkpt lat="42.94125" lon="-1.25599">
        <ele>707.955683</ele>
        <time>2026-05-22T15:30:10.000Z</time>
      </trkpt>
      <trkpt lat="42.94127" lon="-1.25596">
        <ele>708.081695</ele>
        <time>2026-05-22T15:30:11.000Z</time>
      </trkpt>
      <trkpt lat="42.94128" lon="-1.25593">
        <ele>708.208234</ele>
        <time>2026-05-22T15:30:12.000Z</time>
      </trkpt>
      <trkpt lat="42.94129" lon="-1.25589">
        <ele>708.332439</ele>
        <time>2026-05-22T15:30:13.000Z</time>
      </trkpt>
      <trkpt lat="42.9413" lon="-1.25586">
        <ele>708.452426</ele>
        <time>2026-05-22T15:30:14.000Z</time>
      </trkpt>
      <trkpt lat="42.94131" lon="-1.25583">
        <ele>708.565514</ele>
        <time>2026-05-22T15:30:15.000Z</time>
      </trkpt>
      <trkpt lat="42.94131" lon="-1.2558">
        <ele>708.667705</ele>
        <time>2026-05-22T15:30:16.000Z</time>
      </trkpt>
      <trkpt lat="42.94131" lon="-1.25577">
        <ele>708.764217</ele>
        <time>2026-05-22T15:30:17.000Z</time>
      </trkpt>
      <trkpt lat="42.94132" lon="-1.25574">
        <ele>708.867539</ele>
        <time>2026-05-22T15:30:18.000Z</time>
      </trkpt>
      <trkpt lat="42.94132" lon="-1.25571">
        <ele>708.975149</ele>
        <time>2026-05-22T15:30:19.000Z</time>
      </trkpt>
      <trkpt lat="42.94132" lon="-1.25568">
        <ele>709.075746</ele>
        <time>2026-05-22T15:30:20.000Z</time>
      </trkpt>
      <trkpt lat="42.94133" lon="-1.25565">
        <ele>709.167524</ele>
        <time>2026-05-22T15:30:21.000Z</time>
      </trkpt>
      <trkpt lat="42.94133" lon="-1.25562">
        <ele>709.261746</ele>
        <time>2026-05-22T15:30:22.000Z</time>
      </trkpt>
      <trkpt lat="42.94134" lon="-1.25559">
        <ele>709.354466</ele>
        <time>2026-05-22T15:30:23.000Z</time>
      </trkpt>
      <trkpt lat="42.94134" lon="-1.25556">
        <ele>709.450315</ele>
        <time>2026-05-22T15:30:24.000Z</time>
      </trkpt>
      <trkpt lat="42.94134" lon="-1.25553">
        <ele>709.550431</ele>
        <time>2026-05-22T15:30:25.000Z</time>
      </trkpt>
      <trkpt lat="42.94135" lon="-1.2555">
        <ele>709.656701</ele>
        <time>2026-05-22T15:30:26.000Z</time>
      </trkpt>
      <trkpt lat="42.94135" lon="-1.25547">
        <ele>709.761138</ele>
        <time>2026-05-22T15:30:27.000Z</time>
      </trkpt>
      <trkpt lat="42.94136" lon="-1.25543">
        <ele>709.879917</ele>
        <time>2026-05-22T15:30:28.000Z</time>
      </trkpt>
      <trkpt lat="42.94137" lon="-1.2554">
        <ele>709.987203</ele>
        <time>2026-05-22T15:30:29.000Z</time>
      </trkpt>
      <trkpt lat="42.94138" lon="-1.25537">
        <ele>710.100935</ele>
        <time>2026-05-22T15:30:30.000Z</time>
      </trkpt>
      <trkpt lat="42.94139" lon="-1.25534">
        <ele>710.209978</ele>
        <time>2026-05-22T15:30:31.000Z</time>
      </trkpt>
      <trkpt lat="42.94141" lon="-1.25532">
        <ele>710.316475</ele>
        <time>2026-05-22T15:30:32.000Z</time>
      </trkpt>
      <trkpt lat="42.94143" lon="-1.2553">
        <ele>710.430848</ele>
        <time>2026-05-22T15:30:33.000Z</time>
      </trkpt>
      <trkpt lat="42.94145" lon="-1.25528">
        <ele>710.541542</ele>
        <time>2026-05-22T15:30:34.000Z</time>
      </trkpt>
      <trkpt lat="42.94147" lon="-1.25526">
        <ele>710.659489</ele>
        <time>2026-05-22T15:30:35.000Z</time>
      </trkpt>
      <trkpt lat="42.9415" lon="-1.25524">
        <ele>710.783036</ele>
        <time>2026-05-22T15:30:36.000Z</time>
      </trkpt>
      <trkpt lat="42.94152" lon="-1.25521">
        <ele>710.902855</ele>
        <time>2026-05-22T15:30:37.000Z</time>
      </trkpt>
      <trkpt lat="42.94154" lon="-1.25519">
        <ele>711.026403</ele>
        <time>2026-05-22T15:30:38.000Z</time>
      </trkpt>
      <trkpt lat="42.94157" lon="-1.25518">
        <ele>711.14521</ele>
        <time>2026-05-22T15:30:39.000Z</time>
      </trkpt>
      <trkpt lat="42.94159" lon="-1.25516">
        <ele>711.257907</ele>
        <time>2026-05-22T15:30:40.000Z</time>
      </trkpt>
      <trkpt lat="42.94161" lon="-1.25514">
        <ele>711.368601</ele>
        <time>2026-05-22T15:30:41.000Z</time>
      </trkpt>
      <trkpt lat="42.94163" lon="-1.25512">
        <ele>711.479458</ele>
        <time>2026-05-22T15:30:42.000Z</time>
      </trkpt>
      <trkpt lat="42.94165" lon="-1.2551">
        <ele>711.585602</ele>
        <time>2026-05-22T15:30:43.000Z</time>
      </trkpt>
      <trkpt lat="42.94166" lon="-1.25507">
        <ele>711.686894</ele>
        <time>2026-05-22T15:30:44.000Z</time>
      </trkpt>
      <trkpt lat="42.94167" lon="-1.25504">
        <ele>711.790859</ele>
        <time>2026-05-22T15:30:45.000Z</time>
      </trkpt>
      <trkpt lat="42.94169" lon="-1.25502">
        <ele>711.892475</ele>
        <time>2026-05-22T15:30:46.000Z</time>
      </trkpt>
      <trkpt lat="42.9417" lon="-1.25499">
        <ele>711.989084</ele>
        <time>2026-05-22T15:30:47.000Z</time>
      </trkpt>
      <trkpt lat="42.94171" lon="-1.25496">
        <ele>712.08931</ele>
        <time>2026-05-22T15:30:48.000Z</time>
      </trkpt>
      <trkpt lat="42.94172" lon="-1.25493">
        <ele>712.193689</ele>
        <time>2026-05-22T15:30:49.000Z</time>
      </trkpt>
      <trkpt lat="42.94173" lon="-1.2549">
        <ele>712.297992</ele>
        <time>2026-05-22T15:30:50.000Z</time>
      </trkpt>
      <trkpt lat="42.94174" lon="-1.25487">
        <ele>712.410145</ele>
        <time>2026-05-22T15:30:51.000Z</time>
      </trkpt>
      <trkpt lat="42.94175" lon="-1.25484">
        <ele>712.517431</ele>
        <time>2026-05-22T15:30:52.000Z</time>
      </trkpt>
      <trkpt lat="42.94176" lon="-1.25481">
        <ele>712.633075</ele>
        <time>2026-05-22T15:30:53.000Z</time>
      </trkpt>
      <trkpt lat="42.94176" lon="-1.25477">
        <ele>712.758135</ele>
        <time>2026-05-22T15:30:54.000Z</time>
      </trkpt>
      <trkpt lat="42.94177" lon="-1.25473">
        <ele>712.879177</ele>
        <time>2026-05-22T15:30:55.000Z</time>
      </trkpt>
      <trkpt lat="42.94177" lon="-1.2547">
        <ele>712.993899</ele>
        <time>2026-05-22T15:30:56.000Z</time>
      </trkpt>
      <trkpt lat="42.94178" lon="-1.25466">
        <ele>713.10862</ele>
        <time>2026-05-22T15:30:57.000Z</time>
      </trkpt>
      <trkpt lat="42.94178" lon="-1.25463">
        <ele>713.226501</ele>
        <time>2026-05-22T15:30:58.000Z</time>
      </trkpt>
      <trkpt lat="42.94178" lon="-1.25459">
        <ele>713.34626</ele>
        <time>2026-05-22T15:30:59.000Z</time>
      </trkpt>
      <trkpt lat="42.94179" lon="-1.25455">
        <ele>713.475616</ele>
        <time>2026-05-22T15:31:00.000Z</time>
      </trkpt>
      <trkpt lat="42.94179" lon="-1.25451">
        <ele>713.597944</ele>
        <time>2026-05-22T15:31:01.000Z</time>
      </trkpt>
      <trkpt lat="42.94179" lon="-1.25448">
        <ele>713.717299</ele>
        <time>2026-05-22T15:31:02.000Z</time>
      </trkpt>
      <trkpt lat="42.94178" lon="-1.25444">
        <ele>713.848656</ele>
        <time>2026-05-22T15:31:03.000Z</time>
      </trkpt>
      <trkpt lat="42.94177" lon="-1.2544">
        <ele>713.970573</ele>
        <time>2026-05-22T15:31:04.000Z</time>
      </trkpt>
      <trkpt lat="42.94177" lon="-1.25436">
        <ele>714.088453</ele>
        <time>2026-05-22T15:31:05.000Z</time>
      </trkpt>
      <trkpt lat="42.94176" lon="-1.25433">
        <ele>714.206412</ele>
        <time>2026-05-22T15:31:06.000Z</time>
      </trkpt>
      <trkpt lat="42.94175" lon="-1.25429">
        <ele>714.325998</ele>
        <time>2026-05-22T15:31:07.000Z</time>
      </trkpt>
      <trkpt lat="42.94174" lon="-1.25426">
        <ele>714.436281</ele>
        <time>2026-05-22T15:31:08.000Z</time>
      </trkpt>
      <trkpt lat="42.94173" lon="-1.25423">
        <ele>714.543567</ele>
        <time>2026-05-22T15:31:09.000Z</time>
      </trkpt>
      <trkpt lat="42.94172" lon="-1.2542">
        <ele>714.652964</ele>
        <time>2026-05-22T15:31:10.000Z</time>
      </trkpt>
      <trkpt lat="42.9417" lon="-1.25417">
        <ele>714.769789</ele>
        <time>2026-05-22T15:31:11.000Z</time>
      </trkpt>
      <trkpt lat="42.94169" lon="-1.25415">
        <ele>714.876619</ele>
        <time>2026-05-22T15:31:12.000Z</time>
      </trkpt>
      <trkpt lat="42.94167" lon="-1.25412">
        <ele>714.990343</ele>
        <time>2026-05-22T15:31:13.000Z</time>
      </trkpt>
      <trkpt lat="42.94165" lon="-1.2541">
        <ele>715.097749</ele>
        <time>2026-05-22T15:31:14.000Z</time>
      </trkpt>
      <trkpt lat="42.94163" lon="-1.25408">
        <ele>715.199362</ele>
        <time>2026-05-22T15:31:15.000Z</time>
      </trkpt>
      <trkpt lat="42.94161" lon="-1.25406">
        <ele>715.310219</ele>
        <time>2026-05-22T15:31:16.000Z</time>
      </trkpt>
      <trkpt lat="42.94159" lon="-1.25405">
        <ele>715.422916</ele>
        <time>2026-05-22T15:31:17.000Z</time>
      </trkpt>
      <trkpt lat="42.94156" lon="-1.25403">
        <ele>715.550236</ele>
        <time>2026-05-22T15:31:18.000Z</time>
      </trkpt>
      <trkpt lat="42.94154" lon="-1.254">
        <ele>715.671811</ele>
        <time>2026-05-22T15:31:19.000Z</time>
      </trkpt>
      <trkpt lat="42.94152" lon="-1.25399">
        <ele>715.789932</ele>
        <time>2026-05-22T15:31:20.000Z</time>
      </trkpt>
      <trkpt lat="42.9415" lon="-1.25397">
        <ele>715.902435</ele>
        <time>2026-05-22T15:31:21.000Z</time>
      </trkpt>
      <trkpt lat="42.94148" lon="-1.25395">
        <ele>716.013128</ele>
        <time>2026-05-22T15:31:22.000Z</time>
      </trkpt>
      <trkpt lat="42.94145" lon="-1.25393">
        <ele>716.129618</ele>
        <time>2026-05-22T15:31:23.000Z</time>
      </trkpt>
      <trkpt lat="42.94143" lon="-1.25391">
        <ele>716.24994</ele>
        <time>2026-05-22T15:31:24.000Z</time>
      </trkpt>
      <trkpt lat="42.9414" lon="-1.25389">
        <ele>716.371843</ele>
        <time>2026-05-22T15:31:25.000Z</time>
      </trkpt>
      <trkpt lat="42.94138" lon="-1.25387">
        <ele>716.482921</ele>
        <time>2026-05-22T15:31:26.000Z</time>
      </trkpt>
      <trkpt lat="42.94136" lon="-1.25386">
        <ele>716.571339</ele>
        <time>2026-05-22T15:31:27.000Z</time>
      </trkpt>
      <trkpt lat="42.94134" lon="-1.25384">
        <ele>716.666013</ele>
        <time>2026-05-22T15:31:28.000Z</time>
      </trkpt>
      <trkpt lat="42.94132" lon="-1.25382">
        <ele>716.759347</ele>
        <time>2026-05-22T15:31:29.000Z</time>
      </trkpt>
      <trkpt lat="42.94129" lon="-1.2538">
        <ele>716.856319</ele>
        <time>2026-05-22T15:31:30.000Z</time>
      </trkpt>
      <trkpt lat="42.94127" lon="-1.25378">
        <ele>716.949653</ele>
        <time>2026-05-22T15:31:31.000Z</time>
      </trkpt>
      <trkpt lat="42.94124" lon="-1.25376">
        <ele>717.050255</ele>
        <time>2026-05-22T15:31:32.000Z</time>
      </trkpt>
      <trkpt lat="42.94122" lon="-1.25375">
        <ele>717.146121</ele>
        <time>2026-05-22T15:31:33.000Z</time>
      </trkpt>
      <trkpt lat="42.94119" lon="-1.25373">
        <ele>717.245143</ele>
        <time>2026-05-22T15:31:34.000Z</time>
      </trkpt>
      <trkpt lat="42.94117" lon="-1.25372">
        <ele>717.341284</ele>
        <time>2026-05-22T15:31:35.000Z</time>
      </trkpt>
      <trkpt lat="42.94114" lon="-1.2537">
        <ele>717.439289</ele>
        <time>2026-05-22T15:31:36.000Z</time>
      </trkpt>
      <trkpt lat="42.94112" lon="-1.25369">
        <ele>717.535155</ele>
        <time>2026-05-22T15:31:37.000Z</time>
      </trkpt>
      <trkpt lat="42.94109" lon="-1.25367">
        <ele>717.631021</ele>
        <time>2026-05-22T15:31:38.000Z</time>
      </trkpt>
      <trkpt lat="42.94107" lon="-1.25366">
        <ele>717.725837</ele>
        <time>2026-05-22T15:31:39.000Z</time>
      </trkpt>
      <trkpt lat="42.94104" lon="-1.25364">
        <ele>717.829373</ele>
        <time>2026-05-22T15:31:40.000Z</time>
      </trkpt>
      <trkpt lat="42.94101" lon="-1.25363">
        <ele>717.929869</ele>
        <time>2026-05-22T15:31:41.000Z</time>
      </trkpt>
      <trkpt lat="42.94098" lon="-1.25362">
        <ele>718.032603</ele>
        <time>2026-05-22T15:31:42.000Z</time>
      </trkpt>
      <trkpt lat="42.94095" lon="-1.25361">
        <ele>718.135869</ele>
        <time>2026-05-22T15:31:43.000Z</time>
      </trkpt>
      <trkpt lat="42.94092" lon="-1.2536">
        <ele>718.241853</ele>
        <time>2026-05-22T15:31:44.000Z</time>
      </trkpt>
      <trkpt lat="42.9409" lon="-1.25359">
        <ele>718.342136</ele>
        <time>2026-05-22T15:31:45.000Z</time>
      </trkpt>
      <trkpt lat="42.94087" lon="-1.25358">
        <ele>718.444037</ele>
        <time>2026-05-22T15:31:46.000Z</time>
      </trkpt>
      <trkpt lat="42.94084" lon="-1.25357">
        <ele>718.541178</ele>
        <time>2026-05-22T15:31:47.000Z</time>
      </trkpt>
      <trkpt lat="42.94081" lon="-1.25356">
        <ele>718.640509</ele>
        <time>2026-05-22T15:31:48.000Z</time>
      </trkpt>
      <trkpt lat="42.94078" lon="-1.25355">
        <ele>718.740393</ele>
        <time>2026-05-22T15:31:49.000Z</time>
      </trkpt>
      <trkpt lat="42.94076" lon="-1.25354">
        <ele>718.843659</ele>
        <time>2026-05-22T15:31:50.000Z</time>
      </trkpt>
      <trkpt lat="42.94073" lon="-1.25353">
        <ele>718.947519</ele>
        <time>2026-05-22T15:31:51.000Z</time>
      </trkpt>
      <trkpt lat="42.9407" lon="-1.25352">
        <ele>719.051378</ele>
        <time>2026-05-22T15:31:52.000Z</time>
      </trkpt>
      <trkpt lat="42.94067" lon="-1.25351">
        <ele>719.164342</ele>
        <time>2026-05-22T15:31:53.000Z</time>
      </trkpt>
      <trkpt lat="42.94063" lon="-1.2535">
        <ele>719.27833</ele>
        <time>2026-05-22T15:31:54.000Z</time>
      </trkpt>
      <trkpt lat="42.9406" lon="-1.25349">
        <ele>719.392318</ele>
        <time>2026-05-22T15:31:55.000Z</time>
      </trkpt>
      <trkpt lat="42.94057" lon="-1.25348">
        <ele>719.509694</ele>
        <time>2026-05-22T15:31:56.000Z</time>
      </trkpt>
      <trkpt lat="42.94054" lon="-1.25347">
        <ele>719.619243</ele>
        <time>2026-05-22T15:31:57.000Z</time>
      </trkpt>
      <trkpt lat="42.94051" lon="-1.25347">
        <ele>719.731403</ele>
        <time>2026-05-22T15:31:58.000Z</time>
      </trkpt>
      <trkpt lat="42.94048" lon="-1.25346">
        <ele>719.832902</ele>
        <time>2026-05-22T15:31:59.000Z</time>
      </trkpt>
      <trkpt lat="42.94045" lon="-1.25346">
        <ele>719.940817</ele>
        <time>2026-05-22T15:32:00.000Z</time>
      </trkpt>
      <trkpt lat="42.94042" lon="-1.25346">
        <ele>720.045269</ele>
        <time>2026-05-22T15:32:01.000Z</time>
      </trkpt>
      <trkpt lat="42.94039" lon="-1.25345">
        <ele>720.140257</ele>
        <time>2026-05-22T15:32:02.000Z</time>
      </trkpt>
      <trkpt lat="42.94036" lon="-1.25345">
        <ele>720.234563</ele>
        <time>2026-05-22T15:32:03.000Z</time>
      </trkpt>
      <trkpt lat="42.94033" lon="-1.25344">
        <ele>720.343669</ele>
        <time>2026-05-22T15:32:04.000Z</time>
      </trkpt>
      <trkpt lat="42.9403" lon="-1.25343">
        <ele>720.44935</ele>
        <time>2026-05-22T15:32:05.000Z</time>
      </trkpt>
      <trkpt lat="42.94027" lon="-1.25342">
        <ele>720.561954</ele>
        <time>2026-05-22T15:32:06.000Z</time>
      </trkpt>
      <trkpt lat="42.94024" lon="-1.25341">
        <ele>720.67533</ele>
        <time>2026-05-22T15:32:07.000Z</time>
      </trkpt>
      <trkpt lat="42.94021" lon="-1.25339">
        <ele>720.771471</ele>
        <time>2026-05-22T15:32:08.000Z</time>
      </trkpt>
      <trkpt lat="42.94018" lon="-1.25338">
        <ele>720.87264</ele>
        <time>2026-05-22T15:32:09.000Z</time>
      </trkpt>
      <trkpt lat="42.94016" lon="-1.25337">
        <ele>720.972923</ele>
        <time>2026-05-22T15:32:10.000Z</time>
      </trkpt>
      <trkpt lat="42.94013" lon="-1.25335">
        <ele>721.069967</ele>
        <time>2026-05-22T15:32:11.000Z</time>
      </trkpt>
      <trkpt lat="42.9401" lon="-1.25334">
        <ele>721.172165</ele>
        <time>2026-05-22T15:32:12.000Z</time>
      </trkpt>
      <trkpt lat="42.94008" lon="-1.25332">
        <ele>721.275779</ele>
        <time>2026-05-22T15:32:13.000Z</time>
      </trkpt>
      <trkpt lat="42.94005" lon="-1.2533">
        <ele>721.366398</ele>
        <time>2026-05-22T15:32:14.000Z</time>
      </trkpt>
      <trkpt lat="42.94003" lon="-1.25329">
        <ele>721.473855</ele>
        <time>2026-05-22T15:32:15.000Z</time>
      </trkpt>
      <trkpt lat="42.94" lon="-1.25326">
        <ele>721.590048</ele>
        <time>2026-05-22T15:32:16.000Z</time>
      </trkpt>
      <trkpt lat="42.93997" lon="-1.25323">
        <ele>721.710545</ele>
        <time>2026-05-22T15:32:17.000Z</time>
      </trkpt>
      <trkpt lat="42.93994" lon="-1.25321">
        <ele>721.82223</ele>
        <time>2026-05-22T15:32:18.000Z</time>
      </trkpt>
      <trkpt lat="42.93992" lon="-1.25319">
        <ele>721.935494</ele>
        <time>2026-05-22T15:32:19.000Z</time>
      </trkpt>
      <trkpt lat="42.93989" lon="-1.25317">
        <ele>722.03873</ele>
        <time>2026-05-22T15:32:20.000Z</time>
      </trkpt>
      <trkpt lat="42.93986" lon="-1.25315">
        <ele>722.149649</ele>
        <time>2026-05-22T15:32:21.000Z</time>
      </trkpt>
      <trkpt lat="42.93983" lon="-1.25313">
        <ele>722.255114</ele>
        <time>2026-05-22T15:32:22.000Z</time>
      </trkpt>
      <trkpt lat="42.93981" lon="-1.25311">
        <ele>722.348312</ele>
        <time>2026-05-22T15:32:23.000Z</time>
      </trkpt>
      <trkpt lat="42.93979" lon="-1.25309">
        <ele>722.43912</ele>
        <time>2026-05-22T15:32:24.000Z</time>
      </trkpt>
      <trkpt lat="42.93976" lon="-1.25308">
        <ele>722.540289</ele>
        <time>2026-05-22T15:32:25.000Z</time>
      </trkpt>
      <trkpt lat="42.93974" lon="-1.25306">
        <ele>722.644953</ele>
        <time>2026-05-22T15:32:26.000Z</time>
      </trkpt>
      <trkpt lat="42.93971" lon="-1.25304">
        <ele>722.744295</ele>
        <time>2026-05-22T15:32:27.000Z</time>
      </trkpt>
      <trkpt lat="42.93969" lon="-1.25302">
        <ele>722.831308</ele>
        <time>2026-05-22T15:32:28.000Z</time>
      </trkpt>
      <trkpt lat="42.93966" lon="-1.25301">
        <ele>722.91971</ele>
        <time>2026-05-22T15:32:29.000Z</time>
      </trkpt>
      <trkpt lat="42.93964" lon="-1.25298">
        <ele>723.015185</ele>
        <time>2026-05-22T15:32:30.000Z</time>
      </trkpt>
      <trkpt lat="42.93962" lon="-1.25296">
        <ele>723.116279</ele>
        <time>2026-05-22T15:32:31.000Z</time>
      </trkpt>
      <trkpt lat="42.93959" lon="-1.25293">
        <ele>723.221523</ele>
        <time>2026-05-22T15:32:32.000Z</time>
      </trkpt>
      <trkpt lat="42.93957" lon="-1.25291">
        <ele>723.317347</ele>
        <time>2026-05-22T15:32:33.000Z</time>
      </trkpt>
      <trkpt lat="42.93954" lon="-1.25289">
        <ele>723.4211</ele>
        <time>2026-05-22T15:32:34.000Z</time>
      </trkpt>
      <trkpt lat="42.93951" lon="-1.25287">
        <ele>723.527679</ele>
        <time>2026-05-22T15:32:35.000Z</time>
      </trkpt>
      <trkpt lat="42.93949" lon="-1.25284">
        <ele>723.632923</ele>
        <time>2026-05-22T15:32:36.000Z</time>
      </trkpt>
      <trkpt lat="42.93947" lon="-1.25281">
        <ele>723.735327</ele>
        <time>2026-05-22T15:32:37.000Z</time>
      </trkpt>
      <trkpt lat="42.93945" lon="-1.25279">
        <ele>723.830259</ele>
        <time>2026-05-22T15:32:38.000Z</time>
      </trkpt>
      <trkpt lat="42.93942" lon="-1.25276">
        <ele>723.938187</ele>
        <time>2026-05-22T15:32:39.000Z</time>
      </trkpt>
      <trkpt lat="42.93939" lon="-1.25274">
        <ele>724.046084</ele>
        <time>2026-05-22T15:32:40.000Z</time>
      </trkpt>
      <trkpt lat="42.93937" lon="-1.25271">
        <ele>724.148432</ele>
        <time>2026-05-22T15:32:41.000Z</time>
      </trkpt>
      <trkpt lat="42.93934" lon="-1.25269">
        <ele>724.24804</ele>
        <time>2026-05-22T15:32:42.000Z</time>
      </trkpt>
      <trkpt lat="42.93932" lon="-1.25267">
        <ele>724.347666</ele>
        <time>2026-05-22T15:32:43.000Z</time>
      </trkpt>
      <trkpt lat="42.93929" lon="-1.25264">
        <ele>724.455595</ele>
        <time>2026-05-22T15:32:44.000Z</time>
      </trkpt>
      <trkpt lat="42.93926" lon="-1.25262">
        <ele>724.567914</ele>
        <time>2026-05-22T15:32:45.000Z</time>
      </trkpt>
      <trkpt lat="42.93924" lon="-1.25259">
        <ele>724.666366</ele>
        <time>2026-05-22T15:32:46.000Z</time>
      </trkpt>
      <trkpt lat="42.93922" lon="-1.25257">
        <ele>724.767324</ele>
        <time>2026-05-22T15:32:47.000Z</time>
      </trkpt>
      <trkpt lat="42.93919" lon="-1.25255">
        <ele>724.858647</ele>
        <time>2026-05-22T15:32:48.000Z</time>
      </trkpt>
      <trkpt lat="42.93917" lon="-1.25253">
        <ele>724.956845</ele>
        <time>2026-05-22T15:32:49.000Z</time>
      </trkpt>
      <trkpt lat="42.93914" lon="-1.2525">
        <ele>725.062089</ele>
        <time>2026-05-22T15:32:50.000Z</time>
      </trkpt>
      <trkpt lat="42.93912" lon="-1.25247">
        <ele>725.168587</ele>
        <time>2026-05-22T15:32:51.000Z</time>
      </trkpt>
      <trkpt lat="42.93909" lon="-1.25245">
        <ele>725.269758</ele>
        <time>2026-05-22T15:32:52.000Z</time>
      </trkpt>
      <trkpt lat="42.93907" lon="-1.25243">
        <ele>725.372199</ele>
        <time>2026-05-22T15:32:53.000Z</time>
      </trkpt>
      <trkpt lat="42.93904" lon="-1.25241">
        <ele>725.473157</ele>
        <time>2026-05-22T15:32:54.000Z</time>
      </trkpt>
      <trkpt lat="42.93902" lon="-1.25238">
        <ele>725.579655</ele>
        <time>2026-05-22T15:32:55.000Z</time>
      </trkpt>
      <trkpt lat="42.93899" lon="-1.25236">
        <ele>725.680613</ele>
        <time>2026-05-22T15:32:56.000Z</time>
      </trkpt>
      <trkpt lat="42.93897" lon="-1.25234">
        <ele>725.778811</ele>
        <time>2026-05-22T15:32:57.000Z</time>
      </trkpt>
      <trkpt lat="42.93894" lon="-1.25232">
        <ele>725.875621</ele>
        <time>2026-05-22T15:32:58.000Z</time>
      </trkpt>
      <trkpt lat="42.93892" lon="-1.2523">
        <ele>725.966944</ele>
        <time>2026-05-22T15:32:59.000Z</time>
      </trkpt>
      <trkpt lat="42.9389" lon="-1.25227">
        <ele>726.063887</ele>
        <time>2026-05-22T15:33:00.000Z</time>
      </trkpt>
      <trkpt lat="42.93887" lon="-1.25225">
        <ele>726.159712</ele>
        <time>2026-05-22T15:33:01.000Z</time>
      </trkpt>
      <trkpt lat="42.93885" lon="-1.25223">
        <ele>726.264818</ele>
        <time>2026-05-22T15:33:02.000Z</time>
      </trkpt>
      <trkpt lat="42.93882" lon="-1.2522">
        <ele>726.369924</ele>
        <time>2026-05-22T15:33:03.000Z</time>
      </trkpt>
      <trkpt lat="42.9388" lon="-1.25218">
        <ele>726.46955</ele>
        <time>2026-05-22T15:33:04.000Z</time>
      </trkpt>
      <trkpt lat="42.93877" lon="-1.25215">
        <ele>726.572743</ele>
        <time>2026-05-22T15:33:05.000Z</time>
      </trkpt>
      <trkpt lat="42.93875" lon="-1.25212">
        <ele>726.67846</ele>
        <time>2026-05-22T15:33:06.000Z</time>
      </trkpt>
      <trkpt lat="42.93873" lon="-1.2521">
        <ele>726.780038</ele>
        <time>2026-05-22T15:33:07.000Z</time>
      </trkpt>
      <trkpt lat="42.9387" lon="-1.25207">
        <ele>726.880755</ele>
        <time>2026-05-22T15:33:08.000Z</time>
      </trkpt>
      <trkpt lat="42.93868" lon="-1.25204">
        <ele>726.982534</ele>
        <time>2026-05-22T15:33:09.000Z</time>
      </trkpt>
      <trkpt lat="42.93866" lon="-1.25201">
        <ele>727.086099</ele>
        <time>2026-05-22T15:33:10.000Z</time>
      </trkpt>
      <trkpt lat="42.93864" lon="-1.25198">
        <ele>727.191968</ele>
        <time>2026-05-22T15:33:11.000Z</time>
      </trkpt>
      <trkpt lat="42.93862" lon="-1.25195">
        <ele>727.291105</ele>
        <time>2026-05-22T15:33:12.000Z</time>
      </trkpt>
      <trkpt lat="42.9386" lon="-1.25192">
        <ele>727.3888</ele>
        <time>2026-05-22T15:33:13.000Z</time>
      </trkpt>
      <trkpt lat="42.93858" lon="-1.25189">
        <ele>727.488821</ele>
        <time>2026-05-22T15:33:14.000Z</time>
      </trkpt>
      <trkpt lat="42.93856" lon="-1.25186">
        <ele>727.58205</ele>
        <time>2026-05-22T15:33:15.000Z</time>
      </trkpt>
      <trkpt lat="42.93854" lon="-1.25183">
        <ele>727.684937</ele>
        <time>2026-05-22T15:33:16.000Z</time>
      </trkpt>
      <trkpt lat="42.93852" lon="-1.25179">
        <ele>727.793809</ele>
        <time>2026-05-22T15:33:17.000Z</time>
      </trkpt>
      <trkpt lat="42.93851" lon="-1.25176">
        <ele>727.892754</ele>
        <time>2026-05-22T15:33:18.000Z</time>
      </trkpt>
      <trkpt lat="42.93849" lon="-1.25172">
        <ele>727.993664</ele>
        <time>2026-05-22T15:33:19.000Z</time>
      </trkpt>
      <trkpt lat="42.93847" lon="-1.25169">
        <ele>728.102536</ele>
        <time>2026-05-22T15:33:20.000Z</time>
      </trkpt>
      <trkpt lat="42.93845" lon="-1.25166">
        <ele>728.207421</ele>
        <time>2026-05-22T15:33:21.000Z</time>
      </trkpt>
      <trkpt lat="42.93843" lon="-1.25162">
        <ele>728.312305</ele>
        <time>2026-05-22T15:33:22.000Z</time>
      </trkpt>
      <trkpt lat="42.93841" lon="-1.25159">
        <ele>728.415478</ele>
        <time>2026-05-22T15:33:23.000Z</time>
      </trkpt>
      <trkpt lat="42.93839" lon="-1.25155">
        <ele>728.522378</ele>
        <time>2026-05-22T15:33:24.000Z</time>
      </trkpt>
      <trkpt lat="42.93838" lon="-1.25152">
        <ele>728.625372</ele>
        <time>2026-05-22T15:33:25.000Z</time>
      </trkpt>
      <trkpt lat="42.93836" lon="-1.25149">
        <ele>728.728319</ele>
        <time>2026-05-22T15:33:26.000Z</time>
      </trkpt>
      <trkpt lat="42.93834" lon="-1.25145">
        <ele>728.829538</ele>
        <time>2026-05-22T15:33:27.000Z</time>
      </trkpt>
      <trkpt lat="42.93832" lon="-1.25142">
        <ele>728.930049</ele>
        <time>2026-05-22T15:33:28.000Z</time>
      </trkpt>
      <trkpt lat="42.9383" lon="-1.25138">
        <ele>729.02875</ele>
        <time>2026-05-22T15:33:29.000Z</time>
      </trkpt>
      <trkpt lat="42.93828" lon="-1.25135">
        <ele>729.125453</ele>
        <time>2026-05-22T15:33:30.000Z</time>
      </trkpt>
      <trkpt lat="42.93826" lon="-1.25132">
        <ele>729.226124</ele>
        <time>2026-05-22T15:33:31.000Z</time>
      </trkpt>
      <trkpt lat="42.93824" lon="-1.25128">
        <ele>729.332754</ele>
        <time>2026-05-22T15:33:32.000Z</time>
      </trkpt>
      <trkpt lat="42.93822" lon="-1.25125">
        <ele>729.435144</ele>
        <time>2026-05-22T15:33:33.000Z</time>
      </trkpt>
      <trkpt lat="42.93821" lon="-1.25121">
        <ele>729.535811</ele>
        <time>2026-05-22T15:33:34.000Z</time>
      </trkpt>
      <trkpt lat="42.93819" lon="-1.25118">
        <ele>729.636323</ele>
        <time>2026-05-22T15:33:35.000Z</time>
      </trkpt>
      <trkpt lat="42.93817" lon="-1.25114">
        <ele>729.741204</ele>
        <time>2026-05-22T15:33:36.000Z</time>
      </trkpt>
      <trkpt lat="42.93815" lon="-1.25111">
        <ele>729.83655</ele>
        <time>2026-05-22T15:33:37.000Z</time>
      </trkpt>
      <trkpt lat="42.93812" lon="-1.25108">
        <ele>729.934087</ele>
        <time>2026-05-22T15:33:38.000Z</time>
      </trkpt>
      <trkpt lat="42.9381" lon="-1.25105">
        <ele>730.036165</ele>
        <time>2026-05-22T15:33:39.000Z</time>
      </trkpt>
      <trkpt lat="42.93808" lon="-1.25102">
        <ele>730.13988</ele>
        <time>2026-05-22T15:33:40.000Z</time>
      </trkpt>
      <trkpt lat="42.93806" lon="-1.25099">
        <ele>730.24035</ele>
        <time>2026-05-22T15:33:41.000Z</time>
      </trkpt>
      <trkpt lat="42.93803" lon="-1.25097">
        <ele>730.341208</ele>
        <time>2026-05-22T15:33:42.000Z</time>
      </trkpt>
      <trkpt lat="42.93801" lon="-1.25094">
        <ele>730.436681</ele>
        <time>2026-05-22T15:33:43.000Z</time>
      </trkpt>
      <trkpt lat="42.93798" lon="-1.25092">
        <ele>730.534763</ele>
        <time>2026-05-22T15:33:44.000Z</time>
      </trkpt>
      <trkpt lat="42.93796" lon="-1.2509">
        <ele>730.628968</ele>
        <time>2026-05-22T15:33:45.000Z</time>
      </trkpt>
      <trkpt lat="42.93793" lon="-1.25088">
        <ele>730.715118</ele>
        <time>2026-05-22T15:33:46.000Z</time>
      </trkpt>
      <trkpt lat="42.93791" lon="-1.25086">
        <ele>730.794696</ele>
        <time>2026-05-22T15:33:47.000Z</time>
      </trkpt>
      <trkpt lat="42.93789" lon="-1.25084">
        <ele>730.874275</ele>
        <time>2026-05-22T15:33:48.000Z</time>
      </trkpt>
      <trkpt lat="42.93787" lon="-1.25082">
        <ele>730.953836</ele>
        <time>2026-05-22T15:33:49.000Z</time>
      </trkpt>
      <trkpt lat="42.93785" lon="-1.2508">
        <ele>731.036261</ele>
        <time>2026-05-22T15:33:50.000Z</time>
      </trkpt>
      <trkpt lat="42.93783" lon="-1.25078">
        <ele>731.121209</ele>
        <time>2026-05-22T15:33:51.000Z</time>
      </trkpt>
      <trkpt lat="42.93781" lon="-1.25075">
        <ele>731.215557</ele>
        <time>2026-05-22T15:33:52.000Z</time>
      </trkpt>
      <trkpt lat="42.93779" lon="-1.25072">
        <ele>731.313693</ele>
        <time>2026-05-22T15:33:53.000Z</time>
      </trkpt>
      <trkpt lat="42.93777" lon="-1.25069">
        <ele>731.40904</ele>
        <time>2026-05-22T15:33:54.000Z</time>
      </trkpt>
      <trkpt lat="42.93775" lon="-1.25066">
        <ele>731.503861</ele>
        <time>2026-05-22T15:33:55.000Z</time>
      </trkpt>
      <trkpt lat="42.93773" lon="-1.25063">
        <ele>731.606304</ele>
        <time>2026-05-22T15:33:56.000Z</time>
      </trkpt>
      <trkpt lat="42.93772" lon="-1.25059">
        <ele>731.713415</ele>
        <time>2026-05-22T15:33:57.000Z</time>
      </trkpt>
      <trkpt lat="42.9377" lon="-1.25054">
        <ele>731.831439</ele>
        <time>2026-05-22T15:33:58.000Z</time>
      </trkpt>
      <trkpt lat="42.93768" lon="-1.2505">
        <ele>731.93445</ele>
        <time>2026-05-22T15:33:59.000Z</time>
      </trkpt>
      <trkpt lat="42.93767" lon="-1.25047">
        <ele>732.036521</ele>
        <time>2026-05-22T15:34:00.000Z</time>
      </trkpt>
      <trkpt lat="42.93765" lon="-1.25043">
        <ele>732.14213</ele>
        <time>2026-05-22T15:34:01.000Z</time>
      </trkpt>
      <trkpt lat="42.93764" lon="-1.25038">
        <ele>732.248152</ele>
        <time>2026-05-22T15:34:02.000Z</time>
      </trkpt>
      <trkpt lat="42.93763" lon="-1.25034">
        <ele>732.346717</ele>
        <time>2026-05-22T15:34:03.000Z</time>
      </trkpt>
      <trkpt lat="42.93762" lon="-1.25031">
        <ele>732.443157</ele>
        <time>2026-05-22T15:34:04.000Z</time>
      </trkpt>
      <trkpt lat="42.9376" lon="-1.25027">
        <ele>732.548151</ele>
        <time>2026-05-22T15:34:05.000Z</time>
      </trkpt>
      <trkpt lat="42.93759" lon="-1.25022">
        <ele>732.657965</ele>
        <time>2026-05-22T15:34:06.000Z</time>
      </trkpt>
      <trkpt lat="42.93758" lon="-1.25018">
        <ele>732.762787</ele>
        <time>2026-05-22T15:34:07.000Z</time>
      </trkpt>
      <trkpt lat="42.93757" lon="-1.25014">
        <ele>732.869824</ele>
        <time>2026-05-22T15:34:08.000Z</time>
      </trkpt>
      <trkpt lat="42.93755" lon="-1.2501">
        <ele>732.980161</ele>
        <time>2026-05-22T15:34:09.000Z</time>
      </trkpt>
      <trkpt lat="42.93754" lon="-1.25005">
        <ele>733.083945</ele>
        <time>2026-05-22T15:34:10.000Z</time>
      </trkpt>
      <trkpt lat="42.93753" lon="-1.25001">
        <ele>733.189891</ele>
        <time>2026-05-22T15:34:11.000Z</time>
      </trkpt>
      <trkpt lat="42.93752" lon="-1.24997">
        <ele>733.293651</ele>
        <time>2026-05-22T15:34:12.000Z</time>
      </trkpt>
      <trkpt lat="42.93751" lon="-1.24993">
        <ele>733.396263</ele>
        <time>2026-05-22T15:34:13.000Z</time>
      </trkpt>
      <trkpt lat="42.9375" lon="-1.24989">
        <ele>733.491359</ele>
        <time>2026-05-22T15:34:14.000Z</time>
      </trkpt>
      <trkpt lat="42.93748" lon="-1.24985">
        <ele>733.59343</ele>
        <time>2026-05-22T15:34:15.000Z</time>
      </trkpt>
      <trkpt lat="42.93747" lon="-1.24981">
        <ele>733.700585</ele>
        <time>2026-05-22T15:34:16.000Z</time>
      </trkpt>
      <trkpt lat="42.93746" lon="-1.24977">
        <ele>733.809908</ele>
        <time>2026-05-22T15:34:17.000Z</time>
      </trkpt>
      <trkpt lat="42.93744" lon="-1.24973">
        <ele>733.919721</ele>
        <time>2026-05-22T15:34:18.000Z</time>
      </trkpt>
      <trkpt lat="42.93743" lon="-1.24969">
        <ele>734.026032</ele>
        <time>2026-05-22T15:34:19.000Z</time>
      </trkpt>
      <trkpt lat="42.93741" lon="-1.24964">
        <ele>734.134477</ele>
        <time>2026-05-22T15:34:20.000Z</time>
      </trkpt>
      <trkpt lat="42.9374" lon="-1.2496">
        <ele>734.238238</ele>
        <time>2026-05-22T15:34:21.000Z</time>
      </trkpt>
      <trkpt lat="42.93739" lon="-1.24956">
        <ele>734.34085</ele>
        <time>2026-05-22T15:34:22.000Z</time>
      </trkpt>
      <trkpt lat="42.93738" lon="-1.24952">
        <ele>734.448004</ele>
        <time>2026-05-22T15:34:23.000Z</time>
      </trkpt>
      <trkpt lat="42.93737" lon="-1.24948">
        <ele>734.545254</ele>
        <time>2026-05-22T15:34:24.000Z</time>
      </trkpt>
      <trkpt lat="42.93735" lon="-1.24944">
        <ele>734.674011</ele>
        <time>2026-05-22T15:34:25.000Z</time>
      </trkpt>
      <trkpt lat="42.93734" lon="-1.2494">
        <ele>734.803814</ele>
        <time>2026-05-22T15:34:26.000Z</time>
      </trkpt>
      <trkpt lat="42.93733" lon="-1.24936">
        <ele>734.928081</ele>
        <time>2026-05-22T15:34:27.000Z</time>
      </trkpt>
      <trkpt lat="42.93732" lon="-1.24932">
        <ele>735.060698</ele>
        <time>2026-05-22T15:34:28.000Z</time>
      </trkpt>
      <trkpt lat="42.9373" lon="-1.24928">
        <ele>735.20102</ele>
        <time>2026-05-22T15:34:29.000Z</time>
      </trkpt>
      <trkpt lat="42.93729" lon="-1.24924">
        <ele>735.33597</ele>
        <time>2026-05-22T15:34:30.000Z</time>
      </trkpt>
      <trkpt lat="42.93727" lon="-1.2492">
        <ele>735.4691</ele>
        <time>2026-05-22T15:34:31.000Z</time>
      </trkpt>
      <trkpt lat="42.93726" lon="-1.24916">
        <ele>735.593367</ele>
        <time>2026-05-22T15:34:32.000Z</time>
      </trkpt>
      <trkpt lat="42.93725" lon="-1.24913">
        <ele>735.71044</ele>
        <time>2026-05-22T15:34:33.000Z</time>
      </trkpt>
      <trkpt lat="42.93724" lon="-1.24909">
        <ele>735.834707</ele>
        <time>2026-05-22T15:34:34.000Z</time>
      </trkpt>
      <trkpt lat="42.93723" lon="-1.24905">
        <ele>735.960655</ele>
        <time>2026-05-22T15:34:35.000Z</time>
      </trkpt>
      <trkpt lat="42.93721" lon="-1.24901">
        <ele>736.082171</ele>
        <time>2026-05-22T15:34:36.000Z</time>
      </trkpt>
      <trkpt lat="42.9372" lon="-1.24897">
        <ele>736.214456</ele>
        <time>2026-05-22T15:34:37.000Z</time>
      </trkpt>
      <trkpt lat="42.93718" lon="-1.24893">
        <ele>736.348697</ele>
        <time>2026-05-22T15:34:38.000Z</time>
      </trkpt>
      <trkpt lat="42.93717" lon="-1.2489">
        <ele>736.47376</ele>
        <time>2026-05-22T15:34:39.000Z</time>
      </trkpt>
      <trkpt lat="42.93715" lon="-1.24886">
        <ele>736.60539</ele>
        <time>2026-05-22T15:34:40.000Z</time>
      </trkpt>
      <trkpt lat="42.93714" lon="-1.24882">
        <ele>736.730454</ele>
        <time>2026-05-22T15:34:41.000Z</time>
      </trkpt>
      <trkpt lat="42.93713" lon="-1.24879">
        <ele>736.852858</ele>
        <time>2026-05-22T15:34:42.000Z</time>
      </trkpt>
      <trkpt lat="42.93711" lon="-1.24875">
        <ele>736.975262</ele>
        <time>2026-05-22T15:34:43.000Z</time>
      </trkpt>
      <trkpt lat="42.9371" lon="-1.24871">
        <ele>737.100325</ele>
        <time>2026-05-22T15:34:44.000Z</time>
      </trkpt>
      <trkpt lat="42.93708" lon="-1.24868">
        <ele>737.228961</ele>
        <time>2026-05-22T15:34:45.000Z</time>
      </trkpt>
      <trkpt lat="42.93707" lon="-1.24864">
        <ele>737.34681</ele>
        <time>2026-05-22T15:34:46.000Z</time>
      </trkpt>
      <trkpt lat="42.93706" lon="-1.24861">
        <ele>737.468326</ele>
        <time>2026-05-22T15:34:47.000Z</time>
      </trkpt>
      <trkpt lat="42.93704" lon="-1.24857">
        <ele>737.59073</ele>
        <time>2026-05-22T15:34:48.000Z</time>
      </trkpt>
      <trkpt lat="42.93703" lon="-1.24853">
        <ele>737.71049</ele>
        <time>2026-05-22T15:34:49.000Z</time>
      </trkpt>
      <trkpt lat="42.93701" lon="-1.2485">
        <ele>737.828339</ele>
        <time>2026-05-22T15:34:50.000Z</time>
      </trkpt>
      <trkpt lat="42.937" lon="-1.24847">
        <ele>737.943518</ele>
        <time>2026-05-22T15:34:51.000Z</time>
      </trkpt>
      <trkpt lat="42.93699" lon="-1.24843">
        <ele>738.058044</ele>
        <time>2026-05-22T15:34:52.000Z</time>
      </trkpt>
      <trkpt lat="42.93697" lon="-1.2484">
        <ele>738.177805</ele>
        <time>2026-05-22T15:34:53.000Z</time>
      </trkpt>
      <trkpt lat="42.93696" lon="-1.24836">
        <ele>738.300209</ele>
        <time>2026-05-22T15:34:54.000Z</time>
      </trkpt>
      <trkpt lat="42.93695" lon="-1.24833">
        <ele>738.420743</ele>
        <time>2026-05-22T15:34:55.000Z</time>
      </trkpt>
      <trkpt lat="42.93693" lon="-1.24829">
        <ele>738.542523</ele>
        <time>2026-05-22T15:34:56.000Z</time>
      </trkpt>
      <trkpt lat="42.93692" lon="-1.24825">
        <ele>738.668983</ele>
        <time>2026-05-22T15:34:57.000Z</time>
      </trkpt>
      <trkpt lat="42.9369" lon="-1.24822">
        <ele>738.788182</ele>
        <time>2026-05-22T15:34:58.000Z</time>
      </trkpt>
      <trkpt lat="42.93689" lon="-1.24819">
        <ele>738.906031</ele>
        <time>2026-05-22T15:34:59.000Z</time>
      </trkpt>
      <trkpt lat="42.93688" lon="-1.24815">
        <ele>739.013991</ele>
        <time>2026-05-22T15:35:00.000Z</time>
      </trkpt>
      <trkpt lat="42.93686" lon="-1.24812">
        <ele>739.13184</ele>
        <time>2026-05-22T15:35:01.000Z</time>
      </trkpt>
      <trkpt lat="42.93685" lon="-1.24808">
        <ele>739.24969</ele>
        <time>2026-05-22T15:35:02.000Z</time>
      </trkpt>
      <trkpt lat="42.93684" lon="-1.24805">
        <ele>739.372094</ele>
        <time>2026-05-22T15:35:03.000Z</time>
      </trkpt>
      <trkpt lat="42.93682" lon="-1.24801">
        <ele>739.495328</ele>
        <time>2026-05-22T15:35:04.000Z</time>
      </trkpt>
      <trkpt lat="42.93681" lon="-1.24798">
        <ele>739.615089</ele>
        <time>2026-05-22T15:35:05.000Z</time>
      </trkpt>
      <trkpt lat="42.93679" lon="-1.24794">
        <ele>739.741549</ele>
        <time>2026-05-22T15:35:06.000Z</time>
      </trkpt>
      <trkpt lat="42.93677" lon="-1.2479">
        <ele>739.872387</ele>
        <time>2026-05-22T15:35:07.000Z</time>
      </trkpt>
      <trkpt lat="42.93676" lon="-1.24787">
        <ele>739.99629</ele>
        <time>2026-05-22T15:35:08.000Z</time>
      </trkpt>
      <trkpt lat="42.93674" lon="-1.24784">
        <ele>740.117455</ele>
        <time>2026-05-22T15:35:09.000Z</time>
      </trkpt>
      <trkpt lat="42.93672" lon="-1.2478">
        <ele>740.238821</ele>
        <time>2026-05-22T15:35:10.000Z</time>
      </trkpt>
      <trkpt lat="42.93671" lon="-1.24777">
        <ele>740.353348</ele>
        <time>2026-05-22T15:35:11.000Z</time>
      </trkpt>
      <trkpt lat="42.93669" lon="-1.24774">
        <ele>740.479339</ele>
        <time>2026-05-22T15:35:12.000Z</time>
      </trkpt>
      <trkpt lat="42.93668" lon="-1.2477">
        <ele>740.595644</ele>
        <time>2026-05-22T15:35:13.000Z</time>
      </trkpt>
      <trkpt lat="42.93666" lon="-1.24767">
        <ele>740.711949</ele>
        <time>2026-05-22T15:35:14.000Z</time>
      </trkpt>
      <trkpt lat="42.93664" lon="-1.24764">
        <ele>740.821321</ele>
        <time>2026-05-22T15:35:15.000Z</time>
      </trkpt>
      <trkpt lat="42.93663" lon="-1.24761">
        <ele>740.930693</ele>
        <time>2026-05-22T15:35:16.000Z</time>
      </trkpt>
      <trkpt lat="42.93662" lon="-1.24758">
        <ele>741.040065</ele>
        <time>2026-05-22T15:35:17.000Z</time>
      </trkpt>
      <trkpt lat="42.9366" lon="-1.24755">
        <ele>741.156426</ele>
        <time>2026-05-22T15:35:18.000Z</time>
      </trkpt>
      <trkpt lat="42.93658" lon="-1.24751">
        <ele>741.277793</ele>
        <time>2026-05-22T15:35:19.000Z</time>
      </trkpt>
      <trkpt lat="42.93657" lon="-1.24749">
        <ele>741.389349</ele>
        <time>2026-05-22T15:35:20.000Z</time>
      </trkpt>
      <trkpt lat="42.93655" lon="-1.24746">
        <ele>741.493655</ele>
        <time>2026-05-22T15:35:21.000Z</time>
      </trkpt>
      <trkpt lat="42.93654" lon="-1.24743">
        <ele>741.595431</ele>
        <time>2026-05-22T15:35:22.000Z</time>
      </trkpt>
      <trkpt lat="42.93652" lon="-1.2474">
        <ele>741.704471</ele>
        <time>2026-05-22T15:35:23.000Z</time>
      </trkpt>
      <trkpt lat="42.9365" lon="-1.24738">
        <ele>741.811405</ele>
        <time>2026-05-22T15:35:24.000Z</time>
      </trkpt>
      <trkpt lat="42.93649" lon="-1.24735">
        <ele>741.91322</ele>
        <time>2026-05-22T15:35:25.000Z</time>
      </trkpt>
      <trkpt lat="42.93647" lon="-1.24732">
        <ele>742.016285</ele>
        <time>2026-05-22T15:35:26.000Z</time>
      </trkpt>
      <trkpt lat="42.93646" lon="-1.24729">
        <ele>742.115622</ele>
        <time>2026-05-22T15:35:27.000Z</time>
      </trkpt>
      <trkpt lat="42.93644" lon="-1.24726">
        <ele>742.21512</ele>
        <time>2026-05-22T15:35:28.000Z</time>
      </trkpt>
      <trkpt lat="42.93643" lon="-1.24723">
        <ele>742.312268</ele>
        <time>2026-05-22T15:35:29.000Z</time>
      </trkpt>
      <trkpt lat="42.93641" lon="-1.2472">
        <ele>742.416169</ele>
        <time>2026-05-22T15:35:30.000Z</time>
      </trkpt>
      <trkpt lat="42.9364" lon="-1.24717">
        <ele>742.517771</ele>
        <time>2026-05-22T15:35:31.000Z</time>
      </trkpt>
      <trkpt lat="42.93638" lon="-1.24715">
        <ele>742.619504</ele>
        <time>2026-05-22T15:35:32.000Z</time>
      </trkpt>
      <trkpt lat="42.93636" lon="-1.24712">
        <ele>742.721061</ele>
        <time>2026-05-22T15:35:33.000Z</time>
      </trkpt>
      <trkpt lat="42.93635" lon="-1.24709">
        <ele>742.829385</ele>
        <time>2026-05-22T15:35:34.000Z</time>
      </trkpt>
      <trkpt lat="42.93633" lon="-1.24705">
        <ele>742.944613</ele>
        <time>2026-05-22T15:35:35.000Z</time>
      </trkpt>
      <trkpt lat="42.93631" lon="-1.24702">
        <ele>743.060172</ele>
        <time>2026-05-22T15:35:36.000Z</time>
      </trkpt>
      <trkpt lat="42.93629" lon="-1.24699">
        <ele>743.177585</ele>
        <time>2026-05-22T15:35:37.000Z</time>
      </trkpt>
      <trkpt lat="42.93627" lon="-1.24696">
        <ele>743.294998</ele>
        <time>2026-05-22T15:35:38.000Z</time>
      </trkpt>
      <trkpt lat="42.93625" lon="-1.24692">
        <ele>743.412412</ele>
        <time>2026-05-22T15:35:39.000Z</time>
      </trkpt>
      <trkpt lat="42.93623" lon="-1.24689">
        <ele>743.532224</ele>
        <time>2026-05-22T15:35:40.000Z</time>
      </trkpt>
      <trkpt lat="42.93621" lon="-1.24686">
        <ele>743.636438</ele>
        <time>2026-05-22T15:35:41.000Z</time>
      </trkpt>
      <trkpt lat="42.93619" lon="-1.24683">
        <ele>743.744917</ele>
        <time>2026-05-22T15:35:42.000Z</time>
      </trkpt>
      <trkpt lat="42.93617" lon="-1.2468">
        <ele>743.85634</ele>
        <time>2026-05-22T15:35:43.000Z</time>
      </trkpt>
      <trkpt lat="42.93615" lon="-1.24677">
        <ele>743.96728</ele>
        <time>2026-05-22T15:35:44.000Z</time>
      </trkpt>
      <trkpt lat="42.93614" lon="-1.24674">
        <ele>744.075759</ele>
        <time>2026-05-22T15:35:45.000Z</time>
      </trkpt>
      <trkpt lat="42.93612" lon="-1.24671">
        <ele>744.184083</ele>
        <time>2026-05-22T15:35:46.000Z</time>
      </trkpt>
      <trkpt lat="42.9361" lon="-1.24668">
        <ele>744.296934</ele>
        <time>2026-05-22T15:35:47.000Z</time>
      </trkpt>
      <trkpt lat="42.93609" lon="-1.24665">
        <ele>744.40531</ele>
        <time>2026-05-22T15:35:48.000Z</time>
      </trkpt>
      <trkpt lat="42.93607" lon="-1.24662">
        <ele>744.516006</ele>
        <time>2026-05-22T15:35:49.000Z</time>
      </trkpt>
      <trkpt lat="42.93605" lon="-1.24658">
        <ele>744.626581</ele>
        <time>2026-05-22T15:35:50.000Z</time>
      </trkpt>
      <trkpt lat="42.93604" lon="-1.24655">
        <ele>744.732659</ele>
        <time>2026-05-22T15:35:51.000Z</time>
      </trkpt>
      <trkpt lat="42.93602" lon="-1.24652">
        <ele>744.84551</ele>
        <time>2026-05-22T15:35:52.000Z</time>
      </trkpt>
      <trkpt lat="42.936" lon="-1.24648">
        <ele>744.965133</ele>
        <time>2026-05-22T15:35:53.000Z</time>
      </trkpt>
      <trkpt lat="42.93598" lon="-1.24645">
        <ele>745.080225</ele>
        <time>2026-05-22T15:35:54.000Z</time>
      </trkpt>
      <trkpt lat="42.93597" lon="-1.24642">
        <ele>745.196072</ele>
        <time>2026-05-22T15:35:55.000Z</time>
      </trkpt>
      <trkpt lat="42.93595" lon="-1.24638">
        <ele>745.307091</ele>
        <time>2026-05-22T15:35:56.000Z</time>
      </trkpt>
      <trkpt lat="42.93594" lon="-1.24635">
        <ele>745.415467</ele>
        <time>2026-05-22T15:35:57.000Z</time>
      </trkpt>
      <trkpt lat="42.93592" lon="-1.24632">
        <ele>745.526124</ele>
        <time>2026-05-22T15:35:58.000Z</time>
      </trkpt>
      <trkpt lat="42.9359" lon="-1.24629">
        <ele>745.634964</ele>
        <time>2026-05-22T15:35:59.000Z</time>
      </trkpt>
      <trkpt lat="42.93588" lon="-1.24626">
        <ele>745.741063</ele>
        <time>2026-05-22T15:36:00.000Z</time>
      </trkpt>
      <trkpt lat="42.93587" lon="-1.24623">
        <ele>745.842931</ele>
        <time>2026-05-22T15:36:01.000Z</time>
      </trkpt>
      <trkpt lat="42.93585" lon="-1.2462">
        <ele>745.94903</ele>
        <time>2026-05-22T15:36:02.000Z</time>
      </trkpt>
      <trkpt lat="42.93584" lon="-1.24617">
        <ele>746.046179</ele>
        <time>2026-05-22T15:36:03.000Z</time>
      </trkpt>
      <trkpt lat="42.93582" lon="-1.24615">
        <ele>746.143672</ele>
        <time>2026-05-22T15:36:04.000Z</time>
      </trkpt>
      <trkpt lat="42.9358" lon="-1.24611">
        <ele>746.256742</ele>
        <time>2026-05-22T15:36:05.000Z</time>
      </trkpt>
      <trkpt lat="42.93579" lon="-1.24608">
        <ele>746.358345</ele>
        <time>2026-05-22T15:36:06.000Z</time>
      </trkpt>
      <trkpt lat="42.93577" lon="-1.24605">
        <ele>746.455843</ele>
        <time>2026-05-22T15:36:07.000Z</time>
      </trkpt>
      <trkpt lat="42.93576" lon="-1.24602">
        <ele>746.561921</ele>
        <time>2026-05-22T15:36:08.000Z</time>
      </trkpt>
      <trkpt lat="42.93574" lon="-1.24599">
        <ele>746.674772</ele>
        <time>2026-05-22T15:36:09.000Z</time>
      </trkpt>
      <trkpt lat="42.93572" lon="-1.24595">
        <ele>746.794582</ele>
        <time>2026-05-22T15:36:10.000Z</time>
      </trkpt>
      <trkpt lat="42.93571" lon="-1.24592">
        <ele>746.907621</ele>
        <time>2026-05-22T15:36:11.000Z</time>
      </trkpt>
      <trkpt lat="42.93569" lon="-1.24589">
        <ele>747.020661</ele>
        <time>2026-05-22T15:36:12.000Z</time>
      </trkpt>
      <trkpt lat="42.93568" lon="-1.24585">
        <ele>747.13544</ele>
        <time>2026-05-22T15:36:13.000Z</time>
      </trkpt>
      <trkpt lat="42.93567" lon="-1.24582">
        <ele>747.240246</ele>
        <time>2026-05-22T15:36:14.000Z</time>
      </trkpt>
      <trkpt lat="42.93565" lon="-1.24578">
        <ele>747.350943</ele>
        <time>2026-05-22T15:36:15.000Z</time>
      </trkpt>
      <trkpt lat="42.93563" lon="-1.24575">
        <ele>747.473542</ele>
        <time>2026-05-22T15:36:16.000Z</time>
      </trkpt>
      <trkpt lat="42.93562" lon="-1.24571">
        <ele>747.597785</ele>
        <time>2026-05-22T15:36:17.000Z</time>
      </trkpt>
      <trkpt lat="42.9356" lon="-1.24567">
        <ele>747.721903</ele>
        <time>2026-05-22T15:36:18.000Z</time>
      </trkpt>
      <trkpt lat="42.93558" lon="-1.24564">
        <ele>747.841713</ele>
        <time>2026-05-22T15:36:19.000Z</time>
      </trkpt>
      <trkpt lat="42.93556" lon="-1.2456">
        <ele>747.955138</ele>
        <time>2026-05-22T15:36:20.000Z</time>
      </trkpt>
      <trkpt lat="42.93555" lon="-1.24557">
        <ele>748.072608</ele>
        <time>2026-05-22T15:36:21.000Z</time>
      </trkpt>
      <trkpt lat="42.93553" lon="-1.24553">
        <ele>748.190078</ele>
        <time>2026-05-22T15:36:22.000Z</time>
      </trkpt>
      <trkpt lat="42.93551" lon="-1.2455">
        <ele>748.30548</ele>
        <time>2026-05-22T15:36:23.000Z</time>
      </trkpt>
      <trkpt lat="42.9355" lon="-1.24546">
        <ele>748.421327</ele>
        <time>2026-05-22T15:36:24.000Z</time>
      </trkpt>
      <trkpt lat="42.93548" lon="-1.24542">
        <ele>748.539613</ele>
        <time>2026-05-22T15:36:25.000Z</time>
      </trkpt>
      <trkpt lat="42.93547" lon="-1.24539">
        <ele>748.659238</ele>
        <time>2026-05-22T15:36:26.000Z</time>
      </trkpt>
      <trkpt lat="42.93545" lon="-1.24535">
        <ele>748.779048</ele>
        <time>2026-05-22T15:36:27.000Z</time>
      </trkpt>
      <trkpt lat="42.93543" lon="-1.24532">
        <ele>748.888258</ele>
        <time>2026-05-22T15:36:28.000Z</time>
      </trkpt>
      <trkpt lat="42.93541" lon="-1.24528">
        <ele>748.999812</ele>
        <time>2026-05-22T15:36:29.000Z</time>
      </trkpt>
      <trkpt lat="42.9354" lon="-1.24525">
        <ele>749.103004</ele>
        <time>2026-05-22T15:36:30.000Z</time>
      </trkpt>
      <trkpt lat="42.93538" lon="-1.24522">
        <ele>749.210767</ele>
        <time>2026-05-22T15:36:31.000Z</time>
      </trkpt>
      <trkpt lat="42.93535" lon="-1.24519">
        <ele>749.322273</ele>
        <time>2026-05-22T15:36:32.000Z</time>
      </trkpt>
      <trkpt lat="42.93533" lon="-1.24517">
        <ele>749.425011</ele>
        <time>2026-05-22T15:36:33.000Z</time>
      </trkpt>
      <trkpt lat="42.93531" lon="-1.24514">
        <ele>749.528647</ele>
        <time>2026-05-22T15:36:34.000Z</time>
      </trkpt>
      <trkpt lat="42.93528" lon="-1.24512">
        <ele>749.631856</ele>
        <time>2026-05-22T15:36:35.000Z</time>
      </trkpt>
      <trkpt lat="42.93526" lon="-1.2451">
        <ele>749.737767</ele>
        <time>2026-05-22T15:36:36.000Z</time>
      </trkpt>
      <trkpt lat="42.93523" lon="-1.24509">
        <ele>749.846923</ele>
        <time>2026-05-22T15:36:37.000Z</time>
      </trkpt>
      <trkpt lat="42.9352" lon="-1.24507">
        <ele>749.951966</ele>
        <time>2026-05-22T15:36:38.000Z</time>
      </trkpt>
      <trkpt lat="42.93518" lon="-1.24505">
        <ele>750.051451</ele>
        <time>2026-05-22T15:36:39.000Z</time>
      </trkpt>
      <trkpt lat="42.93515" lon="-1.24503">
        <ele>750.149802</ele>
        <time>2026-05-22T15:36:40.000Z</time>
      </trkpt>
      <trkpt lat="42.93512" lon="-1.24502">
        <ele>750.265322</ele>
        <time>2026-05-22T15:36:41.000Z</time>
      </trkpt>
      <trkpt lat="42.93509" lon="-1.24501">
        <ele>750.375789</ele>
        <time>2026-05-22T15:36:42.000Z</time>
      </trkpt>
      <trkpt lat="42.93506" lon="-1.24499">
        <ele>750.48536</ele>
        <time>2026-05-22T15:36:43.000Z</time>
      </trkpt>
      <trkpt lat="42.93503" lon="-1.24498">
        <ele>750.599458</ele>
        <time>2026-05-22T15:36:44.000Z</time>
      </trkpt>
      <trkpt lat="42.935" lon="-1.24497">
        <ele>750.71424</ele>
        <time>2026-05-22T15:36:45.000Z</time>
      </trkpt>
      <trkpt lat="42.93497" lon="-1.24496">
        <ele>750.830627</ele>
        <time>2026-05-22T15:36:46.000Z</time>
      </trkpt>
      <trkpt lat="42.93494" lon="-1.24496">
        <ele>750.941551</ele>
        <time>2026-05-22T15:36:47.000Z</time>
      </trkpt>
      <trkpt lat="42.93491" lon="-1.24495">
        <ele>751.052107</ele>
        <time>2026-05-22T15:36:48.000Z</time>
      </trkpt>
      <trkpt lat="42.93488" lon="-1.24496">
        <ele>751.16978</ele>
        <time>2026-05-22T15:36:49.000Z</time>
      </trkpt>
      <trkpt lat="42.93485" lon="-1.24497">
        <ele>751.279198</ele>
        <time>2026-05-22T15:36:50.000Z</time>
      </trkpt>
      <trkpt lat="42.93482" lon="-1.24498">
        <ele>751.383738</ele>
        <time>2026-05-22T15:36:51.000Z</time>
      </trkpt>
      <trkpt lat="42.93479" lon="-1.24499">
        <ele>751.492894</ele>
        <time>2026-05-22T15:36:52.000Z</time>
      </trkpt>
      <trkpt lat="42.93477" lon="-1.24501">
        <ele>751.590023</ele>
        <time>2026-05-22T15:36:53.000Z</time>
      </trkpt>
      <trkpt lat="42.93474" lon="-1.24504">
        <ele>751.693131</ele>
        <time>2026-05-22T15:36:54.000Z</time>
      </trkpt>
      <trkpt lat="42.93472" lon="-1.24506">
        <ele>751.799486</ele>
        <time>2026-05-22T15:36:55.000Z</time>
      </trkpt>
      <trkpt lat="42.9347" lon="-1.24509">
        <ele>751.901032</ele>
        <time>2026-05-22T15:36:56.000Z</time>
      </trkpt>
      <trkpt lat="42.93467" lon="-1.24511">
        <ele>751.999586</ele>
        <time>2026-05-22T15:36:57.000Z</time>
      </trkpt>
      <trkpt lat="42.93465" lon="-1.24513">
        <ele>752.102694</ele>
        <time>2026-05-22T15:36:58.000Z</time>
      </trkpt>
      <trkpt lat="42.93463" lon="-1.24516">
        <ele>752.208655</ele>
        <time>2026-05-22T15:36:59.000Z</time>
      </trkpt>
      <trkpt lat="42.9346" lon="-1.24518">
        <ele>752.310201</ele>
        <time>2026-05-22T15:37:00.000Z</time>
      </trkpt>
      <trkpt lat="42.93458" lon="-1.24521">
        <ele>752.413837</ele>
        <time>2026-05-22T15:37:01.000Z</time>
      </trkpt>
      <trkpt lat="42.93456" lon="-1.24523">
        <ele>752.513864</ele>
        <time>2026-05-22T15:37:02.000Z</time>
      </trkpt>
      <trkpt lat="42.93454" lon="-1.24525">
        <ele>752.615399</ele>
        <time>2026-05-22T15:37:03.000Z</time>
      </trkpt>
      <trkpt lat="42.93451" lon="-1.24527">
        <ele>752.716934</ele>
        <time>2026-05-22T15:37:04.000Z</time>
      </trkpt>
      <trkpt lat="42.93449" lon="-1.24529">
        <ele>752.8199</ele>
        <time>2026-05-22T15:37:05.000Z</time>
      </trkpt>
      <trkpt lat="42.93446" lon="-1.24531">
        <ele>752.920052</ele>
        <time>2026-05-22T15:37:06.000Z</time>
      </trkpt>
      <trkpt lat="42.93444" lon="-1.24533">
        <ele>753.016362</ele>
        <time>2026-05-22T15:37:07.000Z</time>
      </trkpt>
      <trkpt lat="42.93442" lon="-1.24535">
        <ele>753.113899</ele>
        <time>2026-05-22T15:37:08.000Z</time>
      </trkpt>
      <trkpt lat="42.93439" lon="-1.24537">
        <ele>753.212718</ele>
        <time>2026-05-22T15:37:09.000Z</time>
      </trkpt>
      <trkpt lat="42.93436" lon="-1.24538">
        <ele>753.319747</ele>
        <time>2026-05-22T15:37:10.000Z</time>
      </trkpt>
      <trkpt lat="42.93434" lon="-1.2454">
        <ele>753.421334</ele>
        <time>2026-05-22T15:37:11.000Z</time>
      </trkpt>
      <trkpt lat="42.93431" lon="-1.24541">
        <ele>753.523805</ele>
        <time>2026-05-22T15:37:12.000Z</time>
      </trkpt>
      <trkpt lat="42.93428" lon="-1.24541">
        <ele>753.624771</ele>
        <time>2026-05-22T15:37:13.000Z</time>
      </trkpt>
      <trkpt lat="42.93425" lon="-1.24542">
        <ele>753.728604</ele>
        <time>2026-05-22T15:37:14.000Z</time>
      </trkpt>
      <trkpt lat="42.93422" lon="-1.24542">
        <ele>753.835602</ele>
        <time>2026-05-22T15:37:15.000Z</time>
      </trkpt>
      <trkpt lat="42.93419" lon="-1.24542">
        <ele>753.946311</ele>
        <time>2026-05-22T15:37:16.000Z</time>
      </trkpt>
      <trkpt lat="42.93416" lon="-1.24541">
        <ele>754.05122</ele>
        <time>2026-05-22T15:37:17.000Z</time>
      </trkpt>
      <trkpt lat="42.93414" lon="-1.2454">
        <ele>754.154319</ele>
        <time>2026-05-22T15:37:18.000Z</time>
      </trkpt>
      <trkpt lat="42.93411" lon="-1.24539">
        <ele>754.262264</ele>
        <time>2026-05-22T15:37:19.000Z</time>
      </trkpt>
      <trkpt lat="42.93408" lon="-1.24538">
        <ele>754.370209</ele>
        <time>2026-05-22T15:37:20.000Z</time>
      </trkpt>
      <trkpt lat="42.93405" lon="-1.24536">
        <ele>754.482328</ele>
        <time>2026-05-22T15:37:21.000Z</time>
      </trkpt>
      <trkpt lat="42.93402" lon="-1.24535">
        <ele>754.591899</ele>
        <time>2026-05-22T15:37:22.000Z</time>
      </trkpt>
      <trkpt lat="42.93399" lon="-1.24534">
        <ele>754.70147</ele>
        <time>2026-05-22T15:37:23.000Z</time>
      </trkpt>
      <trkpt lat="42.93396" lon="-1.24532">
        <ele>754.806011</ele>
        <time>2026-05-22T15:37:24.000Z</time>
      </trkpt>
      <trkpt lat="42.93393" lon="-1.24531">
        <ele>754.909801</ele>
        <time>2026-05-22T15:37:25.000Z</time>
      </trkpt>
      <trkpt lat="42.93391" lon="-1.2453">
        <ele>755.009457</ele>
        <time>2026-05-22T15:37:26.000Z</time>
      </trkpt>
      <trkpt lat="42.93388" lon="-1.2453">
        <ele>755.113944</ele>
        <time>2026-05-22T15:37:27.000Z</time>
      </trkpt>
      <trkpt lat="42.93385" lon="-1.24529">
        <ele>755.218004</ele>
        <time>2026-05-22T15:37:28.000Z</time>
      </trkpt>
      <trkpt lat="42.93382" lon="-1.24528">
        <ele>755.310151</ele>
        <time>2026-05-22T15:37:29.000Z</time>
      </trkpt>
      <trkpt lat="42.93379" lon="-1.24528">
        <ele>755.408411</ele>
        <time>2026-05-22T15:37:30.000Z</time>
      </trkpt>
      <trkpt lat="42.93376" lon="-1.24528">
        <ele>755.503176</ele>
        <time>2026-05-22T15:37:31.000Z</time>
      </trkpt>
      <trkpt lat="42.93373" lon="-1.24527">
        <ele>755.591762</ele>
        <time>2026-05-22T15:37:32.000Z</time>
      </trkpt>
      <trkpt lat="42.93371" lon="-1.24526">
        <ele>755.684308</ele>
        <time>2026-05-22T15:37:33.000Z</time>
      </trkpt>
      <trkpt lat="42.93368" lon="-1.24525">
        <ele>755.779033</ele>
        <time>2026-05-22T15:37:34.000Z</time>
      </trkpt>
      <trkpt lat="42.93365" lon="-1.24524">
        <ele>755.87755</ele>
        <time>2026-05-22T15:37:35.000Z</time>
      </trkpt>
      <trkpt lat="42.93362" lon="-1.24523">
        <ele>755.972316</ele>
        <time>2026-05-22T15:37:36.000Z</time>
      </trkpt>
      <trkpt lat="42.93359" lon="-1.24521">
        <ele>756.075389</ele>
        <time>2026-05-22T15:37:37.000Z</time>
      </trkpt>
      <trkpt lat="42.93356" lon="-1.2452">
        <ele>756.178461</ele>
        <time>2026-05-22T15:37:38.000Z</time>
      </trkpt>
      <trkpt lat="42.93353" lon="-1.24518">
        <ele>756.281063</ele>
        <time>2026-05-22T15:37:39.000Z</time>
      </trkpt>
      <trkpt lat="42.9335" lon="-1.24516">
        <ele>756.38778</ele>
        <time>2026-05-22T15:37:40.000Z</time>
      </trkpt>
      <trkpt lat="42.93348" lon="-1.24514">
        <ele>756.492351</ele>
        <time>2026-05-22T15:37:41.000Z</time>
      </trkpt>
      <trkpt lat="42.93344" lon="-1.24512">
        <ele>756.601868</ele>
        <time>2026-05-22T15:37:42.000Z</time>
      </trkpt>
      <trkpt lat="42.93341" lon="-1.24511">
        <ele>756.713499</ele>
        <time>2026-05-22T15:37:43.000Z</time>
      </trkpt>
      <trkpt lat="42.93338" lon="-1.24509">
        <ele>756.818208</ele>
        <time>2026-05-22T15:37:44.000Z</time>
      </trkpt>
      <trkpt lat="42.93335" lon="-1.24507">
        <ele>756.919895</ele>
        <time>2026-05-22T15:37:45.000Z</time>
      </trkpt>
      <trkpt lat="42.93332" lon="-1.24506">
        <ele>757.019128</ele>
        <time>2026-05-22T15:37:46.000Z</time>
      </trkpt>
      <trkpt lat="42.9333" lon="-1.24505">
        <ele>757.113223</ele>
        <time>2026-05-22T15:37:47.000Z</time>
      </trkpt>
      <trkpt lat="42.93327" lon="-1.24504">
        <ele>757.209911</ele>
        <time>2026-05-22T15:37:48.000Z</time>
      </trkpt>
      <trkpt lat="42.93324" lon="-1.24503">
        <ele>757.312951</ele>
        <time>2026-05-22T15:37:49.000Z</time>
      </trkpt>
      <trkpt lat="42.93321" lon="-1.24502">
        <ele>757.415522</ele>
        <time>2026-05-22T15:37:50.000Z</time>
      </trkpt>
      <trkpt lat="42.93318" lon="-1.24502">
        <ele>757.510882</ele>
        <time>2026-05-22T15:37:51.000Z</time>
      </trkpt>
      <trkpt lat="42.93315" lon="-1.24501">
        <ele>757.609832</ele>
        <time>2026-05-22T15:37:52.000Z</time>
      </trkpt>
      <trkpt lat="42.93312" lon="-1.24501">
        <ele>757.704597</ele>
        <time>2026-05-22T15:37:53.000Z</time>
      </trkpt>
      <trkpt lat="42.93309" lon="-1.24501">
        <ele>757.802249</ele>
        <time>2026-05-22T15:37:54.000Z</time>
      </trkpt>
      <trkpt lat="42.93306" lon="-1.245">
        <ele>757.893563</ele>
        <time>2026-05-22T15:37:55.000Z</time>
      </trkpt>
      <trkpt lat="42.93303" lon="-1.245">
        <ele>757.98571</ele>
        <time>2026-05-22T15:37:56.000Z</time>
      </trkpt>
      <trkpt lat="42.933" lon="-1.24499">
        <ele>758.074296</ele>
        <time>2026-05-22T15:37:57.000Z</time>
      </trkpt>
      <trkpt lat="42.93298" lon="-1.24499">
        <ele>758.160026</ele>
        <time>2026-05-22T15:37:58.000Z</time>
      </trkpt>
      <trkpt lat="42.93295" lon="-1.24498">
        <ele>758.24985</ele>
        <time>2026-05-22T15:37:59.000Z</time>
      </trkpt>
      <trkpt lat="42.93292" lon="-1.24497">
        <ele>758.343945</ele>
        <time>2026-05-22T15:38:00.000Z</time>
      </trkpt>
      <trkpt lat="42.9329" lon="-1.24496">
        <ele>758.436949</ele>
        <time>2026-05-22T15:38:01.000Z</time>
      </trkpt>
      <trkpt lat="42.93287" lon="-1.24495">
        <ele>758.533138</ele>
        <time>2026-05-22T15:38:02.000Z</time>
      </trkpt>
      <trkpt lat="42.93284" lon="-1.24494">
        <ele>758.627863</ele>
        <time>2026-05-22T15:38:03.000Z</time>
      </trkpt>
      <trkpt lat="42.93281" lon="-1.24493">
        <ele>758.722588</ele>
        <time>2026-05-22T15:38:04.000Z</time>
      </trkpt>
      <trkpt lat="42.93278" lon="-1.24492">
        <ele>758.82245</ele>
        <time>2026-05-22T15:38:05.000Z</time>
      </trkpt>
      <trkpt lat="42.93275" lon="-1.24491">
        <ele>758.919693</ele>
        <time>2026-05-22T15:38:06.000Z</time>
      </trkpt>
      <trkpt lat="42.93272" lon="-1.2449">
        <ele>759.010646</ele>
        <time>2026-05-22T15:38:07.000Z</time>
      </trkpt>
      <trkpt lat="42.9327" lon="-1.24489">
        <ele>759.10789</ele>
        <time>2026-05-22T15:38:08.000Z</time>
      </trkpt>
      <trkpt lat="42.93267" lon="-1.24488">
        <ele>759.202615</ele>
        <time>2026-05-22T15:38:09.000Z</time>
      </trkpt>
      <trkpt lat="42.93264" lon="-1.24487">
        <ele>759.302616</ele>
        <time>2026-05-22T15:38:10.000Z</time>
      </trkpt>
      <trkpt lat="42.93261" lon="-1.24485">
        <ele>759.41036</ele>
        <time>2026-05-22T15:38:11.000Z</time>
      </trkpt>
      <trkpt lat="42.93258" lon="-1.24484">
        <ele>759.512688</ele>
        <time>2026-05-22T15:38:12.000Z</time>
      </trkpt>
      <trkpt lat="42.93255" lon="-1.24483">
        <ele>759.610541</ele>
        <time>2026-05-22T15:38:13.000Z</time>
      </trkpt>
      <trkpt lat="42.93252" lon="-1.24482">
        <ele>759.714102</ele>
        <time>2026-05-22T15:38:14.000Z</time>
      </trkpt>
      <trkpt lat="42.93249" lon="-1.2448">
        <ele>759.812619</ele>
        <time>2026-05-22T15:38:15.000Z</time>
      </trkpt>
      <trkpt lat="42.93246" lon="-1.24479">
        <ele>759.907344</ele>
        <time>2026-05-22T15:38:16.000Z</time>
      </trkpt>
      <trkpt lat="42.93243" lon="-1.24478">
        <ele>760.000421</ele>
        <time>2026-05-22T15:38:17.000Z</time>
      </trkpt>
      <trkpt lat="42.9324" lon="-1.24477">
        <ele>760.099655</ele>
        <time>2026-05-22T15:38:18.000Z</time>
      </trkpt>
      <trkpt lat="42.93238" lon="-1.24475">
        <ele>760.199656</ele>
        <time>2026-05-22T15:38:19.000Z</time>
      </trkpt>
      <trkpt lat="42.93235" lon="-1.24474">
        <ele>760.29889</ele>
        <time>2026-05-22T15:38:20.000Z</time>
      </trkpt>
      <trkpt lat="42.93232" lon="-1.24473">
        <ele>760.39504</ele>
        <time>2026-05-22T15:38:21.000Z</time>
      </trkpt>
      <trkpt lat="42.93229" lon="-1.24471">
        <ele>760.493557</ele>
        <time>2026-05-22T15:38:22.000Z</time>
      </trkpt>
      <trkpt lat="42.93226" lon="-1.2447">
        <ele>760.594547</ele>
        <time>2026-05-22T15:38:23.000Z</time>
      </trkpt>
      <trkpt lat="42.93223" lon="-1.24469">
        <ele>760.691791</ele>
        <time>2026-05-22T15:38:24.000Z</time>
      </trkpt>
      <trkpt lat="42.9322" lon="-1.24468">
        <ele>760.786515</ele>
        <time>2026-05-22T15:38:25.000Z</time>
      </trkpt>
      <trkpt lat="42.93217" lon="-1.24467">
        <ele>760.884369</ele>
        <time>2026-05-22T15:38:26.000Z</time>
      </trkpt>
      <trkpt lat="42.93214" lon="-1.24466">
        <ele>760.982886</ele>
        <time>2026-05-22T15:38:27.000Z</time>
      </trkpt>
      <trkpt lat="42.93212" lon="-1.24465">
        <ele>761.073934</ele>
        <time>2026-05-22T15:38:28.000Z</time>
      </trkpt>
      <trkpt lat="42.93209" lon="-1.24464">
        <ele>761.157187</ele>
        <time>2026-05-22T15:38:29.000Z</time>
      </trkpt>
      <trkpt lat="42.93206" lon="-1.24463">
        <ele>761.245565</ele>
        <time>2026-05-22T15:38:30.000Z</time>
      </trkpt>
      <trkpt lat="42.93203" lon="-1.24462">
        <ele>761.337348</ele>
        <time>2026-05-22T15:38:31.000Z</time>
      </trkpt>
      <trkpt lat="42.932" lon="-1.24461">
        <ele>761.428105</ele>
        <time>2026-05-22T15:38:32.000Z</time>
      </trkpt>
      <trkpt lat="42.93197" lon="-1.2446">
        <ele>761.520947</ele>
        <time>2026-05-22T15:38:33.000Z</time>
      </trkpt>
      <trkpt lat="42.93194" lon="-1.2446">
        <ele>761.615723</ele>
        <time>2026-05-22T15:38:34.000Z</time>
      </trkpt>
      <trkpt lat="42.93191" lon="-1.24459">
        <ele>761.705024</ele>
        <time>2026-05-22T15:38:35.000Z</time>
      </trkpt>
      <trkpt lat="42.93188" lon="-1.24459">
        <ele>761.790959</ele>
        <time>2026-05-22T15:38:36.000Z</time>
      </trkpt>
      <trkpt lat="42.93185" lon="-1.24459">
        <ele>761.873693</ele>
        <time>2026-05-22T15:38:37.000Z</time>
      </trkpt>
      <trkpt lat="42.93182" lon="-1.24459">
        <ele>761.959492</ele>
        <time>2026-05-22T15:38:38.000Z</time>
      </trkpt>
      <trkpt lat="42.93179" lon="-1.24459">
        <ele>762.042339</ele>
        <time>2026-05-22T15:38:39.000Z</time>
      </trkpt>
      <trkpt lat="42.93177" lon="-1.2446">
        <ele>762.128274</ele>
        <time>2026-05-22T15:38:40.000Z</time>
      </trkpt>
      <trkpt lat="42.93174" lon="-1.2446">
        <ele>762.214072</ele>
        <time>2026-05-22T15:38:41.000Z</time>
      </trkpt>
      <trkpt lat="42.93171" lon="-1.2446">
        <ele>762.297258</ele>
        <time>2026-05-22T15:38:42.000Z</time>
      </trkpt>
      <trkpt lat="42.93168" lon="-1.24461">
        <ele>762.380696</ele>
        <time>2026-05-22T15:38:43.000Z</time>
      </trkpt>
      <trkpt lat="42.93165" lon="-1.24461">
        <ele>762.467363</ele>
        <time>2026-05-22T15:38:44.000Z</time>
      </trkpt>
      <trkpt lat="42.93162" lon="-1.24462">
        <ele>762.553488</ele>
        <time>2026-05-22T15:38:45.000Z</time>
      </trkpt>
      <trkpt lat="42.93159" lon="-1.24462">
        <ele>762.636926</ele>
        <time>2026-05-22T15:38:46.000Z</time>
      </trkpt>
      <trkpt lat="42.93157" lon="-1.24463">
        <ele>762.723296</ele>
        <time>2026-05-22T15:38:47.000Z</time>
      </trkpt>
      <trkpt lat="42.93154" lon="-1.24463">
        <ele>762.807404</ele>
        <time>2026-05-22T15:38:48.000Z</time>
      </trkpt>
      <trkpt lat="42.93151" lon="-1.24464">
        <ele>762.891513</ele>
        <time>2026-05-22T15:38:49.000Z</time>
      </trkpt>
      <trkpt lat="42.93148" lon="-1.24465">
        <ele>762.978933</ele>
        <time>2026-05-22T15:38:50.000Z</time>
      </trkpt>
      <trkpt lat="42.93145" lon="-1.24466">
        <ele>763.068468</ele>
        <time>2026-05-22T15:38:51.000Z</time>
      </trkpt>
      <trkpt lat="42.93142" lon="-1.24467">
        <ele>763.154557</ele>
        <time>2026-05-22T15:38:52.000Z</time>
      </trkpt>
      <trkpt lat="42.93139" lon="-1.24468">
        <ele>763.241574</ele>
        <time>2026-05-22T15:38:53.000Z</time>
      </trkpt>
      <trkpt lat="42.93137" lon="-1.24468">
        <ele>763.328241</ele>
        <time>2026-05-22T15:38:54.000Z</time>
      </trkpt>
      <trkpt lat="42.93134" lon="-1.24469">
        <ele>763.415258</ele>
        <time>2026-05-22T15:38:55.000Z</time>
      </trkpt>
      <trkpt lat="42.93131" lon="-1.2447">
        <ele>763.5081</ele>
        <time>2026-05-22T15:38:56.000Z</time>
      </trkpt>
      <trkpt lat="42.93128" lon="-1.24471">
        <ele>763.598857</ele>
        <time>2026-05-22T15:38:57.000Z</time>
      </trkpt>
      <trkpt lat="42.93125" lon="-1.24472">
        <ele>763.689614</ele>
        <time>2026-05-22T15:38:58.000Z</time>
      </trkpt>
      <trkpt lat="42.93121" lon="-1.24472">
        <ele>763.782834</ele>
        <time>2026-05-22T15:38:59.000Z</time>
      </trkpt>
      <trkpt lat="42.93119" lon="-1.24473">
        <ele>763.870707</ele>
        <time>2026-05-22T15:39:00.000Z</time>
      </trkpt>
      <trkpt lat="42.93116" lon="-1.24474">
        <ele>763.959085</ele>
        <time>2026-05-22T15:39:01.000Z</time>
      </trkpt>
      <trkpt lat="42.93113" lon="-1.24475">
        <ele>764.046505</ele>
        <time>2026-05-22T15:39:02.000Z</time>
      </trkpt>
      <trkpt lat="42.9311" lon="-1.24476">
        <ele>764.136433</ele>
        <time>2026-05-22T15:39:03.000Z</time>
      </trkpt>
      <trkpt lat="42.93107" lon="-1.24477">
        <ele>764.226361</ele>
        <time>2026-05-22T15:39:04.000Z</time>
      </trkpt>
      <trkpt lat="42.93104" lon="-1.24477">
        <ele>764.322486</ele>
        <time>2026-05-22T15:39:05.000Z</time>
      </trkpt>
      <trkpt lat="42.93101" lon="-1.24478">
        <ele>764.413243</ele>
        <time>2026-05-22T15:39:06.000Z</time>
      </trkpt>
      <trkpt lat="42.93097" lon="-1.24479">
        <ele>764.506888</ele>
        <time>2026-05-22T15:39:07.000Z</time>
      </trkpt>
      <trkpt lat="42.93095" lon="-1.2448">
        <ele>764.594308</ele>
        <time>2026-05-22T15:39:08.000Z</time>
      </trkpt>
      <trkpt lat="42.93092" lon="-1.24481">
        <ele>764.683897</ele>
        <time>2026-05-22T15:39:09.000Z</time>
      </trkpt>
      <trkpt lat="42.93089" lon="-1.24481">
        <ele>764.773825</ele>
        <time>2026-05-22T15:39:10.000Z</time>
      </trkpt>
      <trkpt lat="42.93086" lon="-1.24482">
        <ele>764.861245</ele>
        <time>2026-05-22T15:39:11.000Z</time>
      </trkpt>
      <trkpt lat="42.93083" lon="-1.24483">
        <ele>764.951173</ele>
        <time>2026-05-22T15:39:12.000Z</time>
      </trkpt>
      <trkpt lat="42.9308" lon="-1.24483">
        <ele>765.044015</ele>
        <time>2026-05-22T15:39:13.000Z</time>
      </trkpt>
      <trkpt lat="42.93077" lon="-1.24484">
        <ele>765.135261</ele>
        <time>2026-05-22T15:39:14.000Z</time>
      </trkpt>
      <trkpt lat="42.93074" lon="-1.24486">
        <ele>765.224194</ele>
        <time>2026-05-22T15:39:15.000Z</time>
      </trkpt>
      <trkpt lat="42.9307" lon="-1.24487">
        <ele>765.321191</ele>
        <time>2026-05-22T15:39:16.000Z</time>
      </trkpt>
      <trkpt lat="42.93067" lon="-1.24487">
        <ele>765.420624</ele>
        <time>2026-05-22T15:39:17.000Z</time>
      </trkpt>
      <trkpt lat="42.93064" lon="-1.24489">
        <ele>765.519272</ele>
        <time>2026-05-22T15:39:18.000Z</time>
      </trkpt>
      <trkpt lat="42.93061" lon="-1.2449">
        <ele>765.622038</ele>
        <time>2026-05-22T15:39:19.000Z</time>
      </trkpt>
      <trkpt lat="42.93058" lon="-1.24492">
        <ele>765.718515</ele>
        <time>2026-05-22T15:39:20.000Z</time>
      </trkpt>
      <trkpt lat="42.93054" lon="-1.24493">
        <ele>765.814991</ele>
        <time>2026-05-22T15:39:21.000Z</time>
      </trkpt>
      <trkpt lat="42.93051" lon="-1.24494">
        <ele>765.910198</ele>
        <time>2026-05-22T15:39:22.000Z</time>
      </trkpt>
      <trkpt lat="42.93048" lon="-1.24495">
        <ele>766.002565</ele>
        <time>2026-05-22T15:39:23.000Z</time>
      </trkpt>
      <trkpt lat="42.93045" lon="-1.24497">
        <ele>766.092752</ele>
        <time>2026-05-22T15:39:24.000Z</time>
      </trkpt>
      <trkpt lat="42.93043" lon="-1.24498">
        <ele>766.181623</ele>
        <time>2026-05-22T15:39:25.000Z</time>
      </trkpt>
      <trkpt lat="42.9304" lon="-1.245">
        <ele>766.271307</ele>
        <time>2026-05-22T15:39:26.000Z</time>
      </trkpt>
      <trkpt lat="42.93037" lon="-1.24502">
        <ele>766.364556</ele>
        <time>2026-05-22T15:39:27.000Z</time>
      </trkpt>
      <trkpt lat="42.93034" lon="-1.24503">
        <ele>766.437968</ele>
        <time>2026-05-22T15:39:28.000Z</time>
      </trkpt>
      <trkpt lat="42.93031" lon="-1.24505">
        <ele>766.511431</ele>
        <time>2026-05-22T15:39:29.000Z</time>
      </trkpt>
      <trkpt lat="42.93028" lon="-1.24507">
        <ele>766.582809</ele>
        <time>2026-05-22T15:39:30.000Z</time>
      </trkpt>
      <trkpt lat="42.93026" lon="-1.24509">
        <ele>766.65113</ele>
        <time>2026-05-22T15:39:31.000Z</time>
      </trkpt>
      <trkpt lat="42.93023" lon="-1.24511">
        <ele>766.724909</ele>
        <time>2026-05-22T15:39:32.000Z</time>
      </trkpt>
      <trkpt lat="42.9302" lon="-1.24514">
        <ele>766.795981</ele>
        <time>2026-05-22T15:39:33.000Z</time>
      </trkpt>
      <trkpt lat="42.93018" lon="-1.24516">
        <ele>766.86326</ele>
        <time>2026-05-22T15:39:34.000Z</time>
      </trkpt>
      <trkpt lat="42.93016" lon="-1.24519">
        <ele>766.930788</ele>
        <time>2026-05-22T15:39:35.000Z</time>
      </trkpt>
      <trkpt lat="42.93014" lon="-1.24522">
        <ele>766.995234</ele>
        <time>2026-05-22T15:39:36.000Z</time>
      </trkpt>
      <trkpt lat="42.93012" lon="-1.24524">
        <ele>767.038299</ele>
        <time>2026-05-22T15:39:37.000Z</time>
      </trkpt>
      <trkpt lat="42.93012" lon="-1.24524">
        <ele>767.048621</ele>
        <time>2026-05-22T15:39:38.000Z</time>
      </trkpt>
      <trkpt lat="42.93012" lon="-1.24524">
        <ele>767.048621</ele>
        <time>2026-05-22T15:39:39.000Z</time>
      </trkpt>
      <trkpt lat="42.9301" lon="-1.2452">
        <ele>767.128835</ele>
        <time>2026-05-22T15:46:50.000Z</time>
      </trkpt>
      <trkpt lat="42.9301" lon="-1.24519">
        <ele>767.148836</ele>
        <time>2026-05-22T15:46:51.000Z</time>
      </trkpt>
      <trkpt lat="42.9301" lon="-1.24517">
        <ele>767.169835</ele>
        <time>2026-05-22T15:46:52.000Z</time>
      </trkpt>
      <trkpt lat="42.93011" lon="-1.24516">
        <ele>767.191482</ele>
        <time>2026-05-22T15:46:53.000Z</time>
      </trkpt>
      <trkpt lat="42.93011" lon="-1.24515">
        <ele>767.212481</ele>
        <time>2026-05-22T15:46:54.000Z</time>
      </trkpt>
      <trkpt lat="42.93011" lon="-1.24514">
        <ele>767.228057</ele>
        <time>2026-05-22T15:46:55.000Z</time>
      </trkpt>
      <trkpt lat="42.93011" lon="-1.24514">
        <ele>767.235057</ele>
        <time>2026-05-22T15:46:56.000Z</time>
      </trkpt>
      <trkpt lat="42.93013" lon="-1.24514">
        <ele>767.276964</ele>
        <time>2026-05-22T15:49:15.000Z</time>
      </trkpt>
      <trkpt lat="42.93013" lon="-1.24516">
        <ele>767.306859</ele>
        <time>2026-05-22T15:49:16.000Z</time>
      </trkpt>
      <trkpt lat="42.93013" lon="-1.24518">
        <ele>767.340057</ele>
        <time>2026-05-22T15:49:17.000Z</time>
      </trkpt>
      <trkpt lat="42.93013" lon="-1.2452">
        <ele>767.365306</ele>
        <time>2026-05-22T15:49:18.000Z</time>
      </trkpt>
      <trkpt lat="42.93013" lon="-1.24521">
        <ele>767.385307</ele>
        <time>2026-05-22T15:49:19.000Z</time>
      </trkpt>
      <trkpt lat="42.93013" lon="-1.24522">
        <ele>767.412031</ele>
        <time>2026-05-22T15:49:20.000Z</time>
      </trkpt>
      <trkpt lat="42.93012" lon="-1.24523">
        <ele>767.433775</ele>
        <time>2026-05-22T15:49:21.000Z</time>
      </trkpt>
      <trkpt lat="42.93011" lon="-1.24524">
        <ele>767.452484</ele>
        <time>2026-05-22T15:49:22.000Z</time>
      </trkpt>
      <trkpt lat="42.93011" lon="-1.24524">
        <ele>767.462675</ele>
        <time>2026-05-22T15:49:23.000Z</time>
      </trkpt>
      <trkpt lat="42.93011" lon="-1.24526">
        <ele>767.489399</ele>
        <time>2026-05-22T15:49:28.000Z</time>
      </trkpt>
      <trkpt lat="42.9301" lon="-1.24527">
        <ele>767.515611</ele>
        <time>2026-05-22T15:49:29.000Z</time>
      </trkpt>
      <trkpt lat="42.93008" lon="-1.24528">
        <ele>767.548512</ele>
        <time>2026-05-22T15:49:30.000Z</time>
      </trkpt>
      <trkpt lat="42.93007" lon="-1.24529">
        <ele>767.588758</ele>
        <time>2026-05-22T15:49:31.000Z</time>
      </trkpt>
      <trkpt lat="42.93006" lon="-1.24532">
        <ele>767.635577</ele>
        <time>2026-05-22T15:49:32.000Z</time>
      </trkpt>
      <trkpt lat="42.93004" lon="-1.24534">
        <ele>767.689103</ele>
        <time>2026-05-22T15:49:33.000Z</time>
      </trkpt>
      <trkpt lat="42.93003" lon="-1.24537">
        <ele>767.745606</ele>
        <time>2026-05-22T15:49:34.000Z</time>
      </trkpt>
      <trkpt lat="42.93001" lon="-1.24539">
        <ele>767.803333</ele>
        <time>2026-05-22T15:49:35.000Z</time>
      </trkpt>
      <trkpt lat="42.93" lon="-1.24542">
        <ele>767.863937</ele>
        <time>2026-05-22T15:49:36.000Z</time>
      </trkpt>
      <trkpt lat="42.92998" lon="-1.24545">
        <ele>767.919102</ele>
        <time>2026-05-22T15:49:37.000Z</time>
      </trkpt>
      <trkpt lat="42.92997" lon="-1.24548">
        <ele>767.975201</ele>
        <time>2026-05-22T15:49:38.000Z</time>
      </trkpt>
      <trkpt lat="42.92996" lon="-1.24552">
        <ele>768.033519</ele>
        <time>2026-05-22T15:49:39.000Z</time>
      </trkpt>
      <trkpt lat="42.92995" lon="-1.24555">
        <ele>768.095077</ele>
        <time>2026-05-22T15:49:40.000Z</time>
      </trkpt>
      <trkpt lat="42.92994" lon="-1.24558">
        <ele>768.156095</ele>
        <time>2026-05-22T15:49:41.000Z</time>
      </trkpt>
      <trkpt lat="42.92993" lon="-1.24562">
        <ele>768.214639</ele>
        <time>2026-05-22T15:49:42.000Z</time>
      </trkpt>
      <trkpt lat="42.92992" lon="-1.24565">
        <ele>768.276373</ele>
        <time>2026-05-22T15:49:43.000Z</time>
      </trkpt>
      <trkpt lat="42.9299" lon="-1.24568">
        <ele>768.338106</ele>
        <time>2026-05-22T15:49:44.000Z</time>
      </trkpt>
      <trkpt lat="42.92989" lon="-1.24571">
        <ele>768.395837</ele>
        <time>2026-05-22T15:49:45.000Z</time>
      </trkpt>
      <trkpt lat="42.92987" lon="-1.24574">
        <ele>768.454638</ele>
        <time>2026-05-22T15:49:46.000Z</time>
      </trkpt>
      <trkpt lat="42.92986" lon="-1.24577">
        <ele>768.51361</ele>
        <time>2026-05-22T15:49:47.000Z</time>
      </trkpt>
      <trkpt lat="42.92984" lon="-1.24579">
        <ele>768.57657</ele>
        <time>2026-05-22T15:49:48.000Z</time>
      </trkpt>
      <trkpt lat="42.92982" lon="-1.24582">
        <ele>768.640175</ele>
        <time>2026-05-22T15:49:49.000Z</time>
      </trkpt>
      <trkpt lat="42.9298" lon="-1.24585">
        <ele>768.70378</ele>
        <time>2026-05-22T15:49:50.000Z</time>
      </trkpt>
      <trkpt lat="42.92978" lon="-1.24587">
        <ele>768.767889</ele>
        <time>2026-05-22T15:49:51.000Z</time>
      </trkpt>
      <trkpt lat="42.92976" lon="-1.2459">
        <ele>768.831999</ele>
        <time>2026-05-22T15:49:52.000Z</time>
      </trkpt>
      <trkpt lat="42.92974" lon="-1.24593">
        <ele>768.89247</ele>
        <time>2026-05-22T15:49:53.000Z</time>
      </trkpt>
      <trkpt lat="42.92972" lon="-1.24596">
        <ele>768.952604</ele>
        <time>2026-05-22T15:49:54.000Z</time>
      </trkpt>
      <trkpt lat="42.9297" lon="-1.24599">
        <ele>769.019795</ele>
        <time>2026-05-22T15:49:55.000Z</time>
      </trkpt>
      <trkpt lat="42.92968" lon="-1.24602">
        <ele>769.088529</ele>
        <time>2026-05-22T15:49:56.000Z</time>
      </trkpt>
      <trkpt lat="42.92966" lon="-1.24605">
        <ele>769.161007</ele>
        <time>2026-05-22T15:49:57.000Z</time>
      </trkpt>
      <trkpt lat="42.92964" lon="-1.24608">
        <ele>769.233701</ele>
        <time>2026-05-22T15:49:58.000Z</time>
      </trkpt>
      <trkpt lat="42.92961" lon="-1.24611">
        <ele>769.309152</ele>
        <time>2026-05-22T15:49:59.000Z</time>
      </trkpt>
      <trkpt lat="42.92959" lon="-1.24614">
        <ele>769.383062</ele>
        <time>2026-05-22T15:50:00.000Z</time>
      </trkpt>
      <trkpt lat="42.92957" lon="-1.24618">
        <ele>769.456587</ele>
        <time>2026-05-22T15:50:01.000Z</time>
      </trkpt>
      <trkpt lat="42.92956" lon="-1.24622">
        <ele>769.52272</ele>
        <time>2026-05-22T15:50:02.000Z</time>
      </trkpt>
      <trkpt lat="42.92955" lon="-1.24626">
        <ele>769.590339</ele>
        <time>2026-05-22T15:50:03.000Z</time>
      </trkpt>
      <trkpt lat="42.92955" lon="-1.2463">
        <ele>769.660479</ele>
        <time>2026-05-22T15:50:04.000Z</time>
      </trkpt>
      <trkpt lat="42.92955" lon="-1.24634">
        <ele>769.733487</ele>
        <time>2026-05-22T15:50:05.000Z</time>
      </trkpt>
      <trkpt lat="42.92955" lon="-1.24638">
        <ele>769.804841</ele>
        <time>2026-05-22T15:50:06.000Z</time>
      </trkpt>
      <trkpt lat="42.92955" lon="-1.24643">
        <ele>769.874726</ele>
        <time>2026-05-22T15:50:07.000Z</time>
      </trkpt>
      <trkpt lat="42.92956" lon="-1.24647">
        <ele>769.945195</ele>
        <time>2026-05-22T15:50:08.000Z</time>
      </trkpt>
      <trkpt lat="42.92956" lon="-1.24651">
        <ele>770.013244</ele>
        <time>2026-05-22T15:50:09.000Z</time>
      </trkpt>
      <trkpt lat="42.92956" lon="-1.24655">
        <ele>770.079525</ele>
        <time>2026-05-22T15:50:10.000Z</time>
      </trkpt>
      <trkpt lat="42.92957" lon="-1.24659">
        <ele>770.148024</ele>
        <time>2026-05-22T15:50:11.000Z</time>
      </trkpt>
      <trkpt lat="42.92957" lon="-1.24663">
        <ele>770.213593</ele>
        <time>2026-05-22T15:50:12.000Z</time>
      </trkpt>
      <trkpt lat="42.92958" lon="-1.24667">
        <ele>770.282428</ele>
        <time>2026-05-22T15:50:13.000Z</time>
      </trkpt>
      <trkpt lat="42.92958" lon="-1.24671">
        <ele>770.352568</ele>
        <time>2026-05-22T15:50:14.000Z</time>
      </trkpt>
      <trkpt lat="42.92958" lon="-1.24676">
        <ele>770.424102</ele>
        <time>2026-05-22T15:50:15.000Z</time>
      </trkpt>
      <trkpt lat="42.92959" lon="-1.2468">
        <ele>770.432861</ele>
        <time>2026-05-22T15:50:16.000Z</time>
      </trkpt>
      <trkpt lat="42.92959" lon="-1.24684">
        <ele>770.41709</ele>
        <time>2026-05-22T15:50:17.000Z</time>
      </trkpt>
      <trkpt lat="42.92959" lon="-1.24689">
        <ele>770.400948</ele>
        <time>2026-05-22T15:50:18.000Z</time>
      </trkpt>
      <trkpt lat="42.92959" lon="-1.24694">
        <ele>770.384072</ele>
        <time>2026-05-22T15:50:19.000Z</time>
      </trkpt>
      <trkpt lat="42.92959" lon="-1.24699">
        <ele>770.367545</ele>
        <time>2026-05-22T15:50:20.000Z</time>
      </trkpt>
      <trkpt lat="42.9296" lon="-1.24703">
        <ele>770.351403</ele>
        <time>2026-05-22T15:50:21.000Z</time>
      </trkpt>
      <trkpt lat="42.9296" lon="-1.24708">
        <ele>770.334178</ele>
        <time>2026-05-22T15:50:22.000Z</time>
      </trkpt>
      <trkpt lat="42.9296" lon="-1.24714">
        <ele>770.314906</ele>
        <time>2026-05-22T15:50:23.000Z</time>
      </trkpt>
      <trkpt lat="42.9296" lon="-1.24719">
        <ele>770.295236</ele>
        <time>2026-05-22T15:50:24.000Z</time>
      </trkpt>
      <trkpt lat="42.92961" lon="-1.24725">
        <ele>770.275526</ele>
        <time>2026-05-22T15:50:25.000Z</time>
      </trkpt>
      <trkpt lat="42.92961" lon="-1.24731">
        <ele>770.254502</ele>
        <time>2026-05-22T15:50:26.000Z</time>
      </trkpt>
      <trkpt lat="42.9296" lon="-1.24737">
        <ele>770.233746</ele>
        <time>2026-05-22T15:50:27.000Z</time>
      </trkpt>
      <trkpt lat="42.92959" lon="-1.24743">
        <ele>770.21162</ele>
        <time>2026-05-22T15:50:28.000Z</time>
      </trkpt>
      <trkpt lat="42.92957" lon="-1.24748">
        <ele>770.190278</ele>
        <time>2026-05-22T15:50:29.000Z</time>
      </trkpt>
      <trkpt lat="42.92954" lon="-1.24752">
        <ele>770.168934</ele>
        <time>2026-05-22T15:50:30.000Z</time>
      </trkpt>
      <trkpt lat="42.92949" lon="-1.24755">
        <ele>770.147014</ele>
        <time>2026-05-22T15:50:31.000Z</time>
      </trkpt>
      <trkpt lat="42.92945" lon="-1.24756">
        <ele>770.125202</ele>
        <time>2026-05-22T15:50:32.000Z</time>
      </trkpt>
      <trkpt lat="42.9294" lon="-1.24755">
        <ele>770.103661</ele>
        <time>2026-05-22T15:50:33.000Z</time>
      </trkpt>
      <trkpt lat="42.92936" lon="-1.24755">
        <ele>770.08195</ele>
        <time>2026-05-22T15:50:34.000Z</time>
      </trkpt>
      <trkpt lat="42.92931" lon="-1.24754">
        <ele>770.060191</ele>
        <time>2026-05-22T15:50:35.000Z</time>
      </trkpt>
      <trkpt lat="42.92927" lon="-1.24753">
        <ele>770.038047</ele>
        <time>2026-05-22T15:50:36.000Z</time>
      </trkpt>
      <trkpt lat="42.92922" lon="-1.24752">
        <ele>770.015704</ele>
        <time>2026-05-22T15:50:37.000Z</time>
      </trkpt>
      <trkpt lat="42.92918" lon="-1.2475">
        <ele>769.992905</ele>
        <time>2026-05-22T15:50:38.000Z</time>
      </trkpt>
      <trkpt lat="42.92913" lon="-1.24748">
        <ele>769.970811</ele>
        <time>2026-05-22T15:50:39.000Z</time>
      </trkpt>
      <trkpt lat="42.92909" lon="-1.24745">
        <ele>769.949144</ele>
        <time>2026-05-22T15:50:40.000Z</time>
      </trkpt>
      <trkpt lat="42.92905" lon="-1.24742">
        <ele>769.92741</ele>
        <time>2026-05-22T15:50:41.000Z</time>
      </trkpt>
      <trkpt lat="42.92902" lon="-1.24738">
        <ele>769.905083</ele>
        <time>2026-05-22T15:50:42.000Z</time>
      </trkpt>
      <trkpt lat="42.92898" lon="-1.24734">
        <ele>769.882287</ele>
        <time>2026-05-22T15:50:43.000Z</time>
      </trkpt>
      <trkpt lat="42.92894" lon="-1.2473">
        <ele>769.859492</ele>
        <time>2026-05-22T15:50:44.000Z</time>
      </trkpt>
      <trkpt lat="42.9289" lon="-1.24726">
        <ele>769.835385</ele>
        <time>2026-05-22T15:50:45.000Z</time>
      </trkpt>
      <trkpt lat="42.92886" lon="-1.24722">
        <ele>769.812142</ele>
        <time>2026-05-22T15:50:46.000Z</time>
      </trkpt>
      <trkpt lat="42.92883" lon="-1.24717">
        <ele>769.788613</ele>
        <time>2026-05-22T15:50:47.000Z</time>
      </trkpt>
      <trkpt lat="42.9288" lon="-1.24711">
        <ele>769.765125</ele>
        <time>2026-05-22T15:50:48.000Z</time>
      </trkpt>
      <trkpt lat="42.92878" lon="-1.24705">
        <ele>769.742632</ele>
        <time>2026-05-22T15:50:49.000Z</time>
      </trkpt>
      <trkpt lat="42.92876" lon="-1.247">
        <ele>769.719526</ele>
        <time>2026-05-22T15:50:50.000Z</time>
      </trkpt>
      <trkpt lat="42.92873" lon="-1.24694">
        <ele>769.696188</ele>
        <time>2026-05-22T15:50:51.000Z</time>
      </trkpt>
      <trkpt lat="42.92871" lon="-1.24688">
        <ele>769.672406</ele>
        <time>2026-05-22T15:50:52.000Z</time>
      </trkpt>
      <trkpt lat="42.92868" lon="-1.24682">
        <ele>769.647983</ele>
        <time>2026-05-22T15:50:53.000Z</time>
      </trkpt>
      <trkpt lat="42.92865" lon="-1.24676">
        <ele>769.623013</ele>
        <time>2026-05-22T15:50:54.000Z</time>
      </trkpt>
      <trkpt lat="42.92863" lon="-1.2467">
        <ele>769.596944</ele>
        <time>2026-05-22T15:50:55.000Z</time>
      </trkpt>
      <trkpt lat="42.9286" lon="-1.24663">
        <ele>769.500013</ele>
        <time>2026-05-22T15:50:56.000Z</time>
      </trkpt>
      <trkpt lat="42.92856" lon="-1.24657">
        <ele>769.32685</ele>
        <time>2026-05-22T15:50:57.000Z</time>
      </trkpt>
      <trkpt lat="42.92853" lon="-1.24651">
        <ele>769.157379</ele>
        <time>2026-05-22T15:50:58.000Z</time>
      </trkpt>
      <trkpt lat="42.9285" lon="-1.24645">
        <ele>768.982439</ele>
        <time>2026-05-22T15:50:59.000Z</time>
      </trkpt>
      <trkpt lat="42.92846" lon="-1.24638">
        <ele>768.802031</ele>
        <time>2026-05-22T15:51:00.000Z</time>
      </trkpt>
      <trkpt lat="42.92843" lon="-1.24632">
        <ele>768.619637</ele>
        <time>2026-05-22T15:51:01.000Z</time>
      </trkpt>
      <trkpt lat="42.92839" lon="-1.24625">
        <ele>768.426334</ele>
        <time>2026-05-22T15:51:02.000Z</time>
      </trkpt>
      <trkpt lat="42.92835" lon="-1.24618">
        <ele>768.229475</ele>
        <time>2026-05-22T15:51:03.000Z</time>
      </trkpt>
      <trkpt lat="42.92831" lon="-1.24611">
        <ele>768.030517</ele>
        <time>2026-05-22T15:51:04.000Z</time>
      </trkpt>
      <trkpt lat="42.92828" lon="-1.24603">
        <ele>767.82662</ele>
        <time>2026-05-22T15:51:05.000Z</time>
      </trkpt>
      <trkpt lat="42.92825" lon="-1.24595">
        <ele>767.624326</ele>
        <time>2026-05-22T15:51:06.000Z</time>
      </trkpt>
      <trkpt lat="42.92823" lon="-1.24586">
        <ele>767.413828</ele>
        <time>2026-05-22T15:51:07.000Z</time>
      </trkpt>
      <trkpt lat="42.9282" lon="-1.24578">
        <ele>767.201609</ele>
        <time>2026-05-22T15:51:08.000Z</time>
      </trkpt>
      <trkpt lat="42.92818" lon="-1.24569">
        <ele>766.987323</ele>
        <time>2026-05-22T15:51:09.000Z</time>
      </trkpt>
      <trkpt lat="42.92816" lon="-1.2456">
        <ele>766.773614</ele>
        <time>2026-05-22T15:51:10.000Z</time>
      </trkpt>
      <trkpt lat="42.92814" lon="-1.2455">
        <ele>766.551203</ele>
        <time>2026-05-22T15:51:11.000Z</time>
      </trkpt>
      <trkpt lat="42.92812" lon="-1.24541">
        <ele>766.328793</ele>
        <time>2026-05-22T15:51:12.000Z</time>
      </trkpt>
      <trkpt lat="42.9281" lon="-1.24531">
        <ele>766.1028</ele>
        <time>2026-05-22T15:51:13.000Z</time>
      </trkpt>
      <trkpt lat="42.92808" lon="-1.24521">
        <ele>765.873463</ele>
        <time>2026-05-22T15:51:14.000Z</time>
      </trkpt>
      <trkpt lat="42.92805" lon="-1.24512">
        <ele>765.640178</ele>
        <time>2026-05-22T15:51:15.000Z</time>
      </trkpt>
      <trkpt lat="42.92802" lon="-1.24502">
        <ele>765.403221</ele>
        <time>2026-05-22T15:51:16.000Z</time>
      </trkpt>
      <trkpt lat="42.92799" lon="-1.24492">
        <ele>765.164411</ele>
        <time>2026-05-22T15:51:17.000Z</time>
      </trkpt>
      <trkpt lat="42.92795" lon="-1.24483">
        <ele>764.917639</ele>
        <time>2026-05-22T15:51:18.000Z</time>
      </trkpt>
      <trkpt lat="42.9279" lon="-1.24474">
        <ele>764.669758</ele>
        <time>2026-05-22T15:51:19.000Z</time>
      </trkpt>
      <trkpt lat="42.92785" lon="-1.24465">
        <ele>764.421932</ele>
        <time>2026-05-22T15:51:20.000Z</time>
      </trkpt>
      <trkpt lat="42.92781" lon="-1.24456">
        <ele>764.16864</ele>
        <time>2026-05-22T15:51:21.000Z</time>
      </trkpt>
      <trkpt lat="42.92776" lon="-1.24447">
        <ele>763.884406</ele>
        <time>2026-05-22T15:51:22.000Z</time>
      </trkpt>
      <trkpt lat="42.92771" lon="-1.24438">
        <ele>763.556232</ele>
        <time>2026-05-22T15:51:23.000Z</time>
      </trkpt>
      <trkpt lat="42.92766" lon="-1.24429">
        <ele>763.222965</ele>
        <time>2026-05-22T15:51:24.000Z</time>
      </trkpt>
      <trkpt lat="42.92762" lon="-1.24419">
        <ele>762.88866</ele>
        <time>2026-05-22T15:51:25.000Z</time>
      </trkpt>
      <trkpt lat="42.92758" lon="-1.24409">
        <ele>762.551327</ele>
        <time>2026-05-22T15:51:26.000Z</time>
      </trkpt>
      <trkpt lat="42.92753" lon="-1.24399">
        <ele>762.208905</ele>
        <time>2026-05-22T15:51:27.000Z</time>
      </trkpt>
      <trkpt lat="42.92749" lon="-1.24388">
        <ele>761.856871</ele>
        <time>2026-05-22T15:51:28.000Z</time>
      </trkpt>
      <trkpt lat="42.92745" lon="-1.24378">
        <ele>761.508825</ele>
        <time>2026-05-22T15:51:29.000Z</time>
      </trkpt>
      <trkpt lat="42.92739" lon="-1.24369">
        <ele>761.154684</ele>
        <time>2026-05-22T15:51:30.000Z</time>
      </trkpt>
      <trkpt lat="42.92734" lon="-1.24359">
        <ele>760.79346</ele>
        <time>2026-05-22T15:51:31.000Z</time>
      </trkpt>
      <trkpt lat="42.92729" lon="-1.24349">
        <ele>760.432228</ele>
        <time>2026-05-22T15:51:32.000Z</time>
      </trkpt>
      <trkpt lat="42.92723" lon="-1.24339">
        <ele>760.061405</ele>
        <time>2026-05-22T15:51:33.000Z</time>
      </trkpt>
      <trkpt lat="42.92717" lon="-1.24329">
        <ele>759.690694</ele>
        <time>2026-05-22T15:51:34.000Z</time>
      </trkpt>
      <trkpt lat="42.92712" lon="-1.24318">
        <ele>759.3153</ele>
        <time>2026-05-22T15:51:35.000Z</time>
      </trkpt>
      <trkpt lat="42.92706" lon="-1.24308">
        <ele>758.939842</ele>
        <time>2026-05-22T15:51:36.000Z</time>
      </trkpt>
      <trkpt lat="42.92701" lon="-1.24297">
        <ele>758.561334</ele>
        <time>2026-05-22T15:51:37.000Z</time>
      </trkpt>
      <trkpt lat="42.92696" lon="-1.24286">
        <ele>758.187069</ele>
        <time>2026-05-22T15:51:38.000Z</time>
      </trkpt>
      <trkpt lat="42.92692" lon="-1.24275">
        <ele>757.815805</ele>
        <time>2026-05-22T15:51:39.000Z</time>
      </trkpt>
      <trkpt lat="42.92688" lon="-1.24263">
        <ele>757.445901</ele>
        <time>2026-05-22T15:51:40.000Z</time>
      </trkpt>
      <trkpt lat="42.92684" lon="-1.24252">
        <ele>757.072974</ele>
        <time>2026-05-22T15:51:41.000Z</time>
      </trkpt>
      <trkpt lat="42.92681" lon="-1.2424">
        <ele>756.693015</ele>
        <time>2026-05-22T15:51:42.000Z</time>
      </trkpt>
      <trkpt lat="42.92678" lon="-1.24228">
        <ele>756.292137</ele>
        <time>2026-05-22T15:51:43.000Z</time>
      </trkpt>
      <trkpt lat="42.92676" lon="-1.24215">
        <ele>755.893016</ele>
        <time>2026-05-22T15:51:44.000Z</time>
      </trkpt>
      <trkpt lat="42.92674" lon="-1.24203">
        <ele>755.498864</ele>
        <time>2026-05-22T15:51:45.000Z</time>
      </trkpt>
      <trkpt lat="42.92672" lon="-1.24191">
        <ele>755.107162</ele>
        <time>2026-05-22T15:51:46.000Z</time>
      </trkpt>
      <trkpt lat="42.92671" lon="-1.24179">
        <ele>754.723707</ele>
        <time>2026-05-22T15:51:47.000Z</time>
      </trkpt>
      <trkpt lat="42.92669" lon="-1.24167">
        <ele>754.345097</ele>
        <time>2026-05-22T15:51:48.000Z</time>
      </trkpt>
      <trkpt lat="42.92668" lon="-1.24155">
        <ele>753.971093</ele>
        <time>2026-05-22T15:51:49.000Z</time>
      </trkpt>
      <trkpt lat="42.92666" lon="-1.24144">
        <ele>753.603532</ele>
        <time>2026-05-22T15:51:50.000Z</time>
      </trkpt>
      <trkpt lat="42.92664" lon="-1.24132">
        <ele>753.237989</ele>
        <time>2026-05-22T15:51:51.000Z</time>
      </trkpt>
      <trkpt lat="42.92662" lon="-1.24121">
        <ele>752.871402</ele>
        <time>2026-05-22T15:51:52.000Z</time>
      </trkpt>
      <trkpt lat="42.9266" lon="-1.2411">
        <ele>752.499778</ele>
        <time>2026-05-22T15:51:53.000Z</time>
      </trkpt>
      <trkpt lat="42.92657" lon="-1.24098">
        <ele>752.114946</ele>
        <time>2026-05-22T15:51:54.000Z</time>
      </trkpt>
      <trkpt lat="42.92655" lon="-1.24085">
        <ele>751.714655</ele>
        <time>2026-05-22T15:51:55.000Z</time>
      </trkpt>
      <trkpt lat="42.92655" lon="-1.24072">
        <ele>751.302481</ele>
        <time>2026-05-22T15:51:56.000Z</time>
      </trkpt>
      <trkpt lat="42.92656" lon="-1.24059">
        <ele>750.885925</ele>
        <time>2026-05-22T15:51:57.000Z</time>
      </trkpt>
      <trkpt lat="42.92658" lon="-1.24046">
        <ele>750.462232</ele>
        <time>2026-05-22T15:51:58.000Z</time>
      </trkpt>
      <trkpt lat="42.92662" lon="-1.24033">
        <ele>750.021986</ele>
        <time>2026-05-22T15:51:59.000Z</time>
      </trkpt>
      <trkpt lat="42.92667" lon="-1.2402">
        <ele>749.569105</ele>
        <time>2026-05-22T15:52:00.000Z</time>
      </trkpt>
      <trkpt lat="42.92673" lon="-1.24008">
        <ele>749.110185</ele>
        <time>2026-05-22T15:52:01.000Z</time>
      </trkpt>
      <trkpt lat="42.92679" lon="-1.23996">
        <ele>748.69929</ele>
        <time>2026-05-22T15:52:02.000Z</time>
      </trkpt>
      <trkpt lat="42.92686" lon="-1.23984">
        <ele>748.28325</ele>
        <time>2026-05-22T15:52:03.000Z</time>
      </trkpt>
      <trkpt lat="42.92694" lon="-1.23973">
        <ele>747.861419</ele>
        <time>2026-05-22T15:52:04.000Z</time>
      </trkpt>
      <trkpt lat="42.92702" lon="-1.23963">
        <ele>747.43751</ele>
        <time>2026-05-22T15:52:05.000Z</time>
      </trkpt>
      <trkpt lat="42.92711" lon="-1.23953">
        <ele>747.01163</ele>
        <time>2026-05-22T15:52:06.000Z</time>
      </trkpt>
      <trkpt lat="42.9272" lon="-1.23943">
        <ele>746.585031</ele>
        <time>2026-05-22T15:52:07.000Z</time>
      </trkpt>
      <trkpt lat="42.9273" lon="-1.23935">
        <ele>746.155555</ele>
        <time>2026-05-22T15:52:08.000Z</time>
      </trkpt>
      <trkpt lat="42.92739" lon="-1.23927">
        <ele>745.730939</ele>
        <time>2026-05-22T15:52:09.000Z</time>
      </trkpt>
      <trkpt lat="42.92748" lon="-1.23917">
        <ele>745.301736</ele>
        <time>2026-05-22T15:52:10.000Z</time>
      </trkpt>
      <trkpt lat="42.92755" lon="-1.23905">
        <ele>744.873831</ele>
        <time>2026-05-22T15:52:11.000Z</time>
      </trkpt>
      <trkpt lat="42.9276" lon="-1.23892">
        <ele>744.452307</ele>
        <time>2026-05-22T15:52:12.000Z</time>
      </trkpt>
      <trkpt lat="42.92764" lon="-1.23878">
        <ele>744.0364</ele>
        <time>2026-05-22T15:52:13.000Z</time>
      </trkpt>
      <trkpt lat="42.92767" lon="-1.23863">
        <ele>743.631048</ele>
        <time>2026-05-22T15:52:14.000Z</time>
      </trkpt>
      <trkpt lat="42.9277" lon="-1.2385">
        <ele>743.243578</ele>
        <time>2026-05-22T15:52:15.000Z</time>
      </trkpt>
      <trkpt lat="42.92773" lon="-1.23838">
        <ele>742.880928</ele>
        <time>2026-05-22T15:52:16.000Z</time>
      </trkpt>
      <trkpt lat="42.92777" lon="-1.23826">
        <ele>742.538795</ele>
        <time>2026-05-22T15:52:17.000Z</time>
      </trkpt>
      <trkpt lat="42.92781" lon="-1.23817">
        <ele>742.439884</ele>
        <time>2026-05-22T15:52:18.000Z</time>
      </trkpt>
      <trkpt lat="42.92786" lon="-1.23808">
        <ele>742.66598</ele>
        <time>2026-05-22T15:52:19.000Z</time>
      </trkpt>
      <trkpt lat="42.9279" lon="-1.238">
        <ele>742.876672</ele>
        <time>2026-05-22T15:52:20.000Z</time>
      </trkpt>
      <trkpt lat="42.92794" lon="-1.23793">
        <ele>743.07902</ele>
        <time>2026-05-22T15:52:21.000Z</time>
      </trkpt>
      <trkpt lat="42.92798" lon="-1.23786">
        <ele>743.260598</ele>
        <time>2026-05-22T15:52:22.000Z</time>
      </trkpt>
      <trkpt lat="42.92802" lon="-1.23779">
        <ele>743.435295</ele>
        <time>2026-05-22T15:52:23.000Z</time>
      </trkpt>
      <trkpt lat="42.92805" lon="-1.23773">
        <ele>743.598182</ele>
        <time>2026-05-22T15:52:24.000Z</time>
      </trkpt>
      <trkpt lat="42.92808" lon="-1.23767">
        <ele>743.756437</ele>
        <time>2026-05-22T15:52:25.000Z</time>
      </trkpt>
      <trkpt lat="42.9281" lon="-1.2376">
        <ele>743.910368</ele>
        <time>2026-05-22T15:52:26.000Z</time>
      </trkpt>
      <trkpt lat="42.92812" lon="-1.23753">
        <ele>744.058931</ele>
        <time>2026-05-22T15:52:27.000Z</time>
      </trkpt>
      <trkpt lat="42.92813" lon="-1.23747">
        <ele>744.199918</ele>
        <time>2026-05-22T15:52:28.000Z</time>
      </trkpt>
      <trkpt lat="42.92813" lon="-1.23741">
        <ele>744.3358</ele>
        <time>2026-05-22T15:52:29.000Z</time>
      </trkpt>
      <trkpt lat="42.92812" lon="-1.23735">
        <ele>744.464343</ele>
        <time>2026-05-22T15:52:30.000Z</time>
      </trkpt>
      <trkpt lat="42.92811" lon="-1.23729">
        <ele>744.583943</ele>
        <time>2026-05-22T15:52:31.000Z</time>
      </trkpt>
      <trkpt lat="42.92809" lon="-1.23725">
        <ele>744.69605</ele>
        <time>2026-05-22T15:52:32.000Z</time>
      </trkpt>
      <trkpt lat="42.92806" lon="-1.2372">
        <ele>744.810945</ele>
        <time>2026-05-22T15:52:33.000Z</time>
      </trkpt>
      <trkpt lat="42.92804" lon="-1.23717">
        <ele>744.92314</ele>
        <time>2026-05-22T15:52:34.000Z</time>
      </trkpt>
      <trkpt lat="42.928" lon="-1.23713">
        <ele>745.039742</ele>
        <time>2026-05-22T15:52:35.000Z</time>
      </trkpt>
      <trkpt lat="42.92798" lon="-1.2371">
        <ele>745.149132</ele>
        <time>2026-05-22T15:52:36.000Z</time>
      </trkpt>
      <trkpt lat="42.92795" lon="-1.23707">
        <ele>745.247806</ele>
        <time>2026-05-22T15:52:37.000Z</time>
      </trkpt>
      <trkpt lat="42.92792" lon="-1.23704">
        <ele>745.353272</ele>
        <time>2026-05-22T15:52:38.000Z</time>
      </trkpt>
      <trkpt lat="42.92789" lon="-1.23701">
        <ele>745.467034</ele>
        <time>2026-05-22T15:52:39.000Z</time>
      </trkpt>
      <trkpt lat="42.92786" lon="-1.23698">
        <ele>745.583243</ele>
        <time>2026-05-22T15:52:40.000Z</time>
      </trkpt>
      <trkpt lat="42.92782" lon="-1.23695">
        <ele>745.704179</ele>
        <time>2026-05-22T15:52:41.000Z</time>
      </trkpt>
      <trkpt lat="42.92778" lon="-1.23692">
        <ele>745.825345</ele>
        <time>2026-05-22T15:52:42.000Z</time>
      </trkpt>
      <trkpt lat="42.92775" lon="-1.23689">
        <ele>745.944024</ele>
        <time>2026-05-22T15:52:43.000Z</time>
      </trkpt>
      <trkpt lat="42.92772" lon="-1.23686">
        <ele>746.062537</ele>
        <time>2026-05-22T15:52:44.000Z</time>
      </trkpt>
      <trkpt lat="42.92768" lon="-1.23683">
        <ele>746.18105</ele>
        <time>2026-05-22T15:52:45.000Z</time>
      </trkpt>
      <trkpt lat="42.92765" lon="-1.2368">
        <ele>746.303309</ele>
        <time>2026-05-22T15:52:46.000Z</time>
      </trkpt>
      <trkpt lat="42.92761" lon="-1.23677">
        <ele>746.418409</ele>
        <time>2026-05-22T15:52:47.000Z</time>
      </trkpt>
      <trkpt lat="42.92758" lon="-1.23674">
        <ele>746.534522</ele>
        <time>2026-05-22T15:52:48.000Z</time>
      </trkpt>
      <trkpt lat="42.92755" lon="-1.23671">
        <ele>746.650636</ele>
        <time>2026-05-22T15:52:49.000Z</time>
      </trkpt>
      <trkpt lat="42.92751" lon="-1.23668">
        <ele>746.764397</ele>
        <time>2026-05-22T15:52:50.000Z</time>
      </trkpt>
      <trkpt lat="42.92748" lon="-1.23665">
        <ele>746.876919</ele>
        <time>2026-05-22T15:52:51.000Z</time>
      </trkpt>
      <trkpt lat="42.92745" lon="-1.23662">
        <ele>746.995771</ele>
        <time>2026-05-22T15:52:52.000Z</time>
      </trkpt>
      <trkpt lat="42.92741" lon="-1.23658">
        <ele>747.12049</ele>
        <time>2026-05-22T15:52:53.000Z</time>
      </trkpt>
      <trkpt lat="42.92738" lon="-1.23654">
        <ele>747.24068</ele>
        <time>2026-05-22T15:52:54.000Z</time>
      </trkpt>
      <trkpt lat="42.92735" lon="-1.23651">
        <ele>747.359299</ele>
        <time>2026-05-22T15:52:55.000Z</time>
      </trkpt>
      <trkpt lat="42.92732" lon="-1.23647">
        <ele>747.485058</ele>
        <time>2026-05-22T15:52:56.000Z</time>
      </trkpt>
      <trkpt lat="42.92729" lon="-1.23643">
        <ele>747.559184</ele>
        <time>2026-05-22T15:52:57.000Z</time>
      </trkpt>
      <trkpt lat="42.92726" lon="-1.23639">
        <ele>747.553269</ele>
        <time>2026-05-22T15:52:58.000Z</time>
      </trkpt>
      <trkpt lat="42.92723" lon="-1.23635">
        <ele>747.546899</ele>
        <time>2026-05-22T15:52:59.000Z</time>
      </trkpt>
      <trkpt lat="42.92719" lon="-1.2363">
        <ele>747.540457</ele>
        <time>2026-05-22T15:53:00.000Z</time>
      </trkpt>
      <trkpt lat="42.92716" lon="-1.23626">
        <ele>747.534267</ele>
        <time>2026-05-22T15:53:01.000Z</time>
      </trkpt>
      <trkpt lat="42.92714" lon="-1.23621">
        <ele>747.528092</ele>
        <time>2026-05-22T15:53:02.000Z</time>
      </trkpt>
      <trkpt lat="42.92711" lon="-1.23617">
        <ele>747.521573</ele>
        <time>2026-05-22T15:53:03.000Z</time>
      </trkpt>
      <trkpt lat="42.92708" lon="-1.23612">
        <ele>747.514992</ele>
        <time>2026-05-22T15:53:04.000Z</time>
      </trkpt>
      <trkpt lat="42.92705" lon="-1.23606">
        <ele>747.508241</ele>
        <time>2026-05-22T15:53:05.000Z</time>
      </trkpt>
      <trkpt lat="42.92703" lon="-1.23601">
        <ele>747.501404</ele>
        <time>2026-05-22T15:53:06.000Z</time>
      </trkpt>
      <trkpt lat="42.927" lon="-1.23596">
        <ele>747.494485</ele>
        <time>2026-05-22T15:53:07.000Z</time>
      </trkpt>
      <trkpt lat="42.92697" lon="-1.2359">
        <ele>747.48765</ele>
        <time>2026-05-22T15:53:08.000Z</time>
      </trkpt>
      <trkpt lat="42.92694" lon="-1.23585">
        <ele>747.48098</ele>
        <time>2026-05-22T15:53:09.000Z</time>
      </trkpt>
      <trkpt lat="42.92691" lon="-1.2358">
        <ele>747.473978</ele>
        <time>2026-05-22T15:53:10.000Z</time>
      </trkpt>
      <trkpt lat="42.92688" lon="-1.23575">
        <ele>747.466885</ele>
        <time>2026-05-22T15:53:11.000Z</time>
      </trkpt>
      <trkpt lat="42.92685" lon="-1.23569">
        <ele>747.459702</ele>
        <time>2026-05-22T15:53:12.000Z</time>
      </trkpt>
      <trkpt lat="42.92681" lon="-1.23564">
        <ele>747.452428</ele>
        <time>2026-05-22T15:53:13.000Z</time>
      </trkpt>
      <trkpt lat="42.92678" lon="-1.23559">
        <ele>747.444993</ele>
        <time>2026-05-22T15:53:14.000Z</time>
      </trkpt>
      <trkpt lat="42.92675" lon="-1.23553">
        <ele>747.437312</ele>
        <time>2026-05-22T15:53:15.000Z</time>
      </trkpt>
      <trkpt lat="42.92671" lon="-1.23547">
        <ele>747.429534</ele>
        <time>2026-05-22T15:53:16.000Z</time>
      </trkpt>
      <trkpt lat="42.92668" lon="-1.23541">
        <ele>747.42149</ele>
        <time>2026-05-22T15:53:17.000Z</time>
      </trkpt>
      <trkpt lat="42.92664" lon="-1.23536">
        <ele>747.41343</ele>
        <time>2026-05-22T15:53:18.000Z</time>
      </trkpt>
      <trkpt lat="42.9266" lon="-1.2353">
        <ele>747.40475</ele>
        <time>2026-05-22T15:53:19.000Z</time>
      </trkpt>
      <trkpt lat="42.92655" lon="-1.23523">
        <ele>747.395797</ele>
        <time>2026-05-22T15:53:20.000Z</time>
      </trkpt>
      <trkpt lat="42.92651" lon="-1.23517">
        <ele>747.386769</ele>
        <time>2026-05-22T15:53:21.000Z</time>
      </trkpt>
      <trkpt lat="42.92646" lon="-1.23511">
        <ele>747.377589</ele>
        <time>2026-05-22T15:53:22.000Z</time>
      </trkpt>
      <trkpt lat="42.92642" lon="-1.23504">
        <ele>747.368111</ele>
        <time>2026-05-22T15:53:23.000Z</time>
      </trkpt>
      <trkpt lat="42.92637" lon="-1.23498">
        <ele>747.358734</ele>
        <time>2026-05-22T15:53:24.000Z</time>
      </trkpt>
      <trkpt lat="42.92632" lon="-1.23492">
        <ele>747.349329</ele>
        <time>2026-05-22T15:53:25.000Z</time>
      </trkpt>
      <trkpt lat="42.92628" lon="-1.23486">
        <ele>747.34007</ele>
        <time>2026-05-22T15:53:26.000Z</time>
      </trkpt>
      <trkpt lat="42.92623" lon="-1.23479">
        <ele>747.330636</ele>
        <time>2026-05-22T15:53:27.000Z</time>
      </trkpt>
      <trkpt lat="42.92618" lon="-1.23473">
        <ele>747.321343</ele>
        <time>2026-05-22T15:53:28.000Z</time>
      </trkpt>
      <trkpt lat="42.92614" lon="-1.23467">
        <ele>747.31226</ele>
        <time>2026-05-22T15:53:29.000Z</time>
      </trkpt>
      <trkpt lat="42.92609" lon="-1.23462">
        <ele>747.301576</ele>
        <time>2026-05-22T15:53:30.000Z</time>
      </trkpt>
      <trkpt lat="42.92604" lon="-1.23456">
        <ele>747.28436</ele>
        <time>2026-05-22T15:53:31.000Z</time>
      </trkpt>
      <trkpt lat="42.92599" lon="-1.2345">
        <ele>747.267472</ele>
        <time>2026-05-22T15:53:32.000Z</time>
      </trkpt>
      <trkpt lat="42.92594" lon="-1.23444">
        <ele>747.250584</ele>
        <time>2026-05-22T15:53:33.000Z</time>
      </trkpt>
      <trkpt lat="42.92589" lon="-1.23439">
        <ele>747.233823</ele>
        <time>2026-05-22T15:53:34.000Z</time>
      </trkpt>
      <trkpt lat="42.92585" lon="-1.23433">
        <ele>747.216807</ele>
        <time>2026-05-22T15:53:35.000Z</time>
      </trkpt>
      <trkpt lat="42.9258" lon="-1.23427">
        <ele>747.199843</ele>
        <time>2026-05-22T15:53:36.000Z</time>
      </trkpt>
      <trkpt lat="42.92575" lon="-1.23422">
        <ele>747.182754</ele>
        <time>2026-05-22T15:53:37.000Z</time>
      </trkpt>
      <trkpt lat="42.9257" lon="-1.23416">
        <ele>747.165665</ele>
        <time>2026-05-22T15:53:38.000Z</time>
      </trkpt>
      <trkpt lat="42.92565" lon="-1.2341">
        <ele>747.148846</ele>
        <time>2026-05-22T15:53:39.000Z</time>
      </trkpt>
      <trkpt lat="42.92561" lon="-1.23404">
        <ele>747.132149</ele>
        <time>2026-05-22T15:53:40.000Z</time>
      </trkpt>
      <trkpt lat="42.92556" lon="-1.23398">
        <ele>747.114899</ele>
        <time>2026-05-22T15:53:41.000Z</time>
      </trkpt>
      <trkpt lat="42.92552" lon="-1.23391">
        <ele>747.097869</ele>
        <time>2026-05-22T15:53:42.000Z</time>
      </trkpt>
      <trkpt lat="42.92548" lon="-1.23385">
        <ele>747.080695</ele>
        <time>2026-05-22T15:53:43.000Z</time>
      </trkpt>
      <trkpt lat="42.92543" lon="-1.23378">
        <ele>747.0634</ele>
        <time>2026-05-22T15:53:44.000Z</time>
      </trkpt>
      <trkpt lat="42.92539" lon="-1.23371">
        <ele>747.046105</ele>
        <time>2026-05-22T15:53:45.000Z</time>
      </trkpt>
      <trkpt lat="42.92535" lon="-1.23364">
        <ele>747.02913</ele>
        <time>2026-05-22T15:53:46.000Z</time>
      </trkpt>
      <trkpt lat="42.92531" lon="-1.23358">
        <ele>747.012021</ele>
        <time>2026-05-22T15:53:47.000Z</time>
      </trkpt>
      <trkpt lat="42.92527" lon="-1.2335">
        <ele>746.99492</ele>
        <time>2026-05-22T15:53:48.000Z</time>
      </trkpt>
      <trkpt lat="42.92524" lon="-1.23343">
        <ele>746.97781</ele>
        <time>2026-05-22T15:53:49.000Z</time>
      </trkpt>
      <trkpt lat="42.92521" lon="-1.23336">
        <ele>746.961269</ele>
        <time>2026-05-22T15:53:50.000Z</time>
      </trkpt>
      <trkpt lat="42.92518" lon="-1.23328">
        <ele>746.944995</ele>
        <time>2026-05-22T15:53:51.000Z</time>
      </trkpt>
      <trkpt lat="42.92515" lon="-1.23321">
        <ele>746.928334</ele>
        <time>2026-05-22T15:53:52.000Z</time>
      </trkpt>
      <trkpt lat="42.92512" lon="-1.23313">
        <ele>746.911987</ele>
        <time>2026-05-22T15:53:53.000Z</time>
      </trkpt>
      <trkpt lat="42.9251" lon="-1.23305">
        <ele>746.895552</ele>
        <time>2026-05-22T15:53:54.000Z</time>
      </trkpt>
      <trkpt lat="42.92509" lon="-1.23297">
        <ele>746.879653</ele>
        <time>2026-05-22T15:53:55.000Z</time>
      </trkpt>
      <trkpt lat="42.92507" lon="-1.23289">
        <ele>746.863459</ele>
        <time>2026-05-22T15:53:56.000Z</time>
      </trkpt>
      <trkpt lat="42.92505" lon="-1.23281">
        <ele>746.847293</ele>
        <time>2026-05-22T15:53:57.000Z</time>
      </trkpt>
      <trkpt lat="42.92503" lon="-1.23273">
        <ele>746.831042</ele>
        <time>2026-05-22T15:53:58.000Z</time>
      </trkpt>
      <trkpt lat="42.92501" lon="-1.23266">
        <ele>746.946006</ele>
        <time>2026-05-22T15:53:59.000Z</time>
      </trkpt>
      <trkpt lat="42.92499" lon="-1.23258">
        <ele>747.103933</ele>
        <time>2026-05-22T15:54:00.000Z</time>
      </trkpt>
      <trkpt lat="42.92497" lon="-1.2325">
        <ele>747.265436</ele>
        <time>2026-05-22T15:54:01.000Z</time>
      </trkpt>
      <trkpt lat="42.92495" lon="-1.23242">
        <ele>747.427782</ele>
        <time>2026-05-22T15:54:02.000Z</time>
      </trkpt>
      <trkpt lat="42.92493" lon="-1.23234">
        <ele>747.586571</ele>
        <time>2026-05-22T15:54:03.000Z</time>
      </trkpt>
      <trkpt lat="42.92491" lon="-1.23226">
        <ele>747.74536</ele>
        <time>2026-05-22T15:54:04.000Z</time>
      </trkpt>
      <trkpt lat="42.92489" lon="-1.23218">
        <ele>747.898878</ele>
        <time>2026-05-22T15:54:05.000Z</time>
      </trkpt>
      <trkpt lat="42.92487" lon="-1.23211">
        <ele>748.047036</ele>
        <time>2026-05-22T15:54:06.000Z</time>
      </trkpt>
      <trkpt lat="42.92485" lon="-1.23203">
        <ele>748.194296</ele>
        <time>2026-05-22T15:54:07.000Z</time>
      </trkpt>
      <trkpt lat="42.92483" lon="-1.23196">
        <ele>748.338893</ele>
        <time>2026-05-22T15:54:08.000Z</time>
      </trkpt>
      <trkpt lat="42.92481" lon="-1.23189">
        <ele>748.482636</ele>
        <time>2026-05-22T15:54:09.000Z</time>
      </trkpt>
      <trkpt lat="42.92479" lon="-1.23182">
        <ele>748.616607</ele>
        <time>2026-05-22T15:54:10.000Z</time>
      </trkpt>
      <trkpt lat="42.92478" lon="-1.23176">
        <ele>748.741689</ele>
        <time>2026-05-22T15:54:11.000Z</time>
      </trkpt>
      <trkpt lat="42.92476" lon="-1.2317">
        <ele>748.864111</ele>
        <time>2026-05-22T15:54:12.000Z</time>
      </trkpt>
      <trkpt lat="42.92474" lon="-1.23164">
        <ele>748.982146</ele>
        <time>2026-05-22T15:54:13.000Z</time>
      </trkpt>
      <trkpt lat="42.92473" lon="-1.23158">
        <ele>749.098429</ele>
        <time>2026-05-22T15:54:14.000Z</time>
      </trkpt>
      <trkpt lat="42.92471" lon="-1.23153">
        <ele>749.211089</ele>
        <time>2026-05-22T15:54:15.000Z</time>
      </trkpt>
      <trkpt lat="42.9247" lon="-1.23147">
        <ele>749.32375</ele>
        <time>2026-05-22T15:54:16.000Z</time>
      </trkpt>
      <trkpt lat="42.92468" lon="-1.23142">
        <ele>749.431105</ele>
        <time>2026-05-22T15:54:17.000Z</time>
      </trkpt>
      <trkpt lat="42.92466" lon="-1.23137">
        <ele>749.537535</ele>
        <time>2026-05-22T15:54:18.000Z</time>
      </trkpt>
      <trkpt lat="42.92464" lon="-1.23132">
        <ele>749.641561</ele>
        <time>2026-05-22T15:54:19.000Z</time>
      </trkpt>
      <trkpt lat="42.92462" lon="-1.23128">
        <ele>749.744266</ele>
        <time>2026-05-22T15:54:20.000Z</time>
      </trkpt>
      <trkpt lat="42.9246" lon="-1.23123">
        <ele>749.843723</ele>
        <time>2026-05-22T15:54:21.000Z</time>
      </trkpt>
      <trkpt lat="42.92458" lon="-1.23119">
        <ele>749.945986</ele>
        <time>2026-05-22T15:54:22.000Z</time>
      </trkpt>
      <trkpt lat="42.92455" lon="-1.23115">
        <ele>750.04369</ele>
        <time>2026-05-22T15:54:23.000Z</time>
      </trkpt>
      <trkpt lat="42.92453" lon="-1.23111">
        <ele>750.145954</ele>
        <time>2026-05-22T15:54:24.000Z</time>
      </trkpt>
      <trkpt lat="42.9245" lon="-1.23107">
        <ele>750.237653</ele>
        <time>2026-05-22T15:54:25.000Z</time>
      </trkpt>
      <trkpt lat="42.92448" lon="-1.23103">
        <ele>750.326099</ele>
        <time>2026-05-22T15:54:26.000Z</time>
      </trkpt>
      <trkpt lat="42.92446" lon="-1.231">
        <ele>750.412989</ele>
        <time>2026-05-22T15:54:27.000Z</time>
      </trkpt>
      <trkpt lat="42.92444" lon="-1.23096">
        <ele>750.50304</ele>
        <time>2026-05-22T15:54:28.000Z</time>
      </trkpt>
      <trkpt lat="42.92442" lon="-1.23092">
        <ele>750.59019</ele>
        <time>2026-05-22T15:54:29.000Z</time>
      </trkpt>
      <trkpt lat="42.9244" lon="-1.23089">
        <ele>750.683579</ele>
        <time>2026-05-22T15:54:30.000Z</time>
      </trkpt>
      <trkpt lat="42.92437" lon="-1.23085">
        <ele>750.775104</ele>
        <time>2026-05-22T15:54:31.000Z</time>
      </trkpt>
      <trkpt lat="42.92435" lon="-1.23081">
        <ele>750.868096</ele>
        <time>2026-05-22T15:54:32.000Z</time>
      </trkpt>
      <trkpt lat="42.92433" lon="-1.23077">
        <ele>750.959608</ele>
        <time>2026-05-22T15:54:33.000Z</time>
      </trkpt>
      <trkpt lat="42.92431" lon="-1.23073">
        <ele>751.048055</ele>
        <time>2026-05-22T15:54:34.000Z</time>
      </trkpt>
      <trkpt lat="42.92429" lon="-1.23069">
        <ele>751.136502</ele>
        <time>2026-05-22T15:54:35.000Z</time>
      </trkpt>
      <trkpt lat="42.92427" lon="-1.23066">
        <ele>751.224949</ele>
        <time>2026-05-22T15:54:36.000Z</time>
      </trkpt>
      <trkpt lat="42.92425" lon="-1.23062">
        <ele>751.313801</ele>
        <time>2026-05-22T15:54:37.000Z</time>
      </trkpt>
      <trkpt lat="42.92422" lon="-1.23059">
        <ele>751.404068</ele>
        <time>2026-05-22T15:54:38.000Z</time>
      </trkpt>
      <trkpt lat="42.9242" lon="-1.23055">
        <ele>751.511101</ele>
        <time>2026-05-22T15:54:39.000Z</time>
      </trkpt>
      <trkpt lat="42.92417" lon="-1.23052">
        <ele>751.653803</ele>
        <time>2026-05-22T15:54:40.000Z</time>
      </trkpt>
      <trkpt lat="42.92415" lon="-1.23048">
        <ele>751.794511</ele>
        <time>2026-05-22T15:54:41.000Z</time>
      </trkpt>
      <trkpt lat="42.92412" lon="-1.23045">
        <ele>751.928444</ele>
        <time>2026-05-22T15:54:42.000Z</time>
      </trkpt>
      <trkpt lat="42.9241" lon="-1.23042">
        <ele>752.063355</ele>
        <time>2026-05-22T15:54:43.000Z</time>
      </trkpt>
      <trkpt lat="42.92407" lon="-1.23039">
        <ele>752.18794</ele>
        <time>2026-05-22T15:54:44.000Z</time>
      </trkpt>
      <trkpt lat="42.92405" lon="-1.23037">
        <ele>752.30419</ele>
        <time>2026-05-22T15:54:45.000Z</time>
      </trkpt>
      <trkpt lat="42.92402" lon="-1.23035">
        <ele>752.418915</ele>
        <time>2026-05-22T15:54:46.000Z</time>
      </trkpt>
      <trkpt lat="42.924" lon="-1.23033">
        <ele>752.525495</ele>
        <time>2026-05-22T15:54:47.000Z</time>
      </trkpt>
      <trkpt lat="42.92397" lon="-1.23031">
        <ele>752.637328</ele>
        <time>2026-05-22T15:54:48.000Z</time>
      </trkpt>
      <trkpt lat="42.92395" lon="-1.23029">
        <ele>752.7554</ele>
        <time>2026-05-22T15:54:49.000Z</time>
      </trkpt>
      <trkpt lat="42.92392" lon="-1.23027">
        <ele>752.865297</ele>
        <time>2026-05-22T15:54:50.000Z</time>
      </trkpt>
      <trkpt lat="42.9239" lon="-1.23025">
        <ele>752.967522</ele>
        <time>2026-05-22T15:54:51.000Z</time>
      </trkpt>
      <trkpt lat="42.92388" lon="-1.23024">
        <ele>753.060156</ele>
        <time>2026-05-22T15:54:52.000Z</time>
      </trkpt>
      <trkpt lat="42.92386" lon="-1.23022">
        <ele>753.157454</ele>
        <time>2026-05-22T15:54:53.000Z</time>
      </trkpt>
      <trkpt lat="42.92383" lon="-1.23021">
        <ele>753.258348</ele>
        <time>2026-05-22T15:54:54.000Z</time>
      </trkpt>
      <trkpt lat="42.92381" lon="-1.23019">
        <ele>753.371024</ele>
        <time>2026-05-22T15:54:55.000Z</time>
      </trkpt>
      <trkpt lat="42.92378" lon="-1.23017">
        <ele>753.484009</ele>
        <time>2026-05-22T15:54:56.000Z</time>
      </trkpt>
      <trkpt lat="42.92376" lon="-1.23015">
        <ele>753.590592</ele>
        <time>2026-05-22T15:54:57.000Z</time>
      </trkpt>
      <trkpt lat="42.92374" lon="-1.23013">
        <ele>753.697172</ele>
        <time>2026-05-22T15:54:58.000Z</time>
      </trkpt>
      <trkpt lat="42.92371" lon="-1.2301">
        <ele>753.813444</ele>
        <time>2026-05-22T15:54:59.000Z</time>
      </trkpt>
      <trkpt lat="42.92369" lon="-1.23008">
        <ele>753.929717</ele>
        <time>2026-05-22T15:55:00.000Z</time>
      </trkpt>
      <trkpt lat="42.92367" lon="-1.23006">
        <ele>754.039779</ele>
        <time>2026-05-22T15:55:01.000Z</time>
      </trkpt>
      <trkpt lat="42.92365" lon="-1.23003">
        <ele>754.14696</ele>
        <time>2026-05-22T15:55:02.000Z</time>
      </trkpt>
      <trkpt lat="42.92363" lon="-1.23">
        <ele>754.258917</ele>
        <time>2026-05-22T15:55:03.000Z</time>
      </trkpt>
      <trkpt lat="42.92361" lon="-1.22997">
        <ele>754.372445</ele>
        <time>2026-05-22T15:55:04.000Z</time>
      </trkpt>
      <trkpt lat="42.92359" lon="-1.22994">
        <ele>754.481001</ele>
        <time>2026-05-22T15:55:05.000Z</time>
      </trkpt>
      <trkpt lat="42.92358" lon="-1.22991">
        <ele>754.592173</ele>
        <time>2026-05-22T15:55:06.000Z</time>
      </trkpt>
      <trkpt lat="42.92357" lon="-1.22987">
        <ele>754.705387</ele>
        <time>2026-05-22T15:55:07.000Z</time>
      </trkpt>
      <trkpt lat="42.92355" lon="-1.22984">
        <ele>754.815172</ele>
        <time>2026-05-22T15:55:08.000Z</time>
      </trkpt>
      <trkpt lat="42.92354" lon="-1.2298">
        <ele>754.923202</ele>
        <time>2026-05-22T15:55:09.000Z</time>
      </trkpt>
      <trkpt lat="42.92353" lon="-1.22977">
        <ele>755.035532</ele>
        <time>2026-05-22T15:55:10.000Z</time>
      </trkpt>
      <trkpt lat="42.92352" lon="-1.22973">
        <ele>755.148746</ele>
        <time>2026-05-22T15:55:11.000Z</time>
      </trkpt>
      <trkpt lat="42.92351" lon="-1.22969">
        <ele>755.265702</ele>
        <time>2026-05-22T15:55:12.000Z</time>
      </trkpt>
      <trkpt lat="42.92349" lon="-1.22966">
        <ele>755.380001</ele>
        <time>2026-05-22T15:55:13.000Z</time>
      </trkpt>
      <trkpt lat="42.92348" lon="-1.22962">
        <ele>755.4943</ele>
        <time>2026-05-22T15:55:14.000Z</time>
      </trkpt>
      <trkpt lat="42.92347" lon="-1.22959">
        <ele>755.600692</ele>
        <time>2026-05-22T15:55:15.000Z</time>
      </trkpt>
      <trkpt lat="42.92346" lon="-1.22955">
        <ele>755.707083</ele>
        <time>2026-05-22T15:55:16.000Z</time>
      </trkpt>
      <trkpt lat="42.92345" lon="-1.22952">
        <ele>755.817699</ele>
        <time>2026-05-22T15:55:17.000Z</time>
      </trkpt>
      <trkpt lat="42.92344" lon="-1.22948">
        <ele>755.92573</ele>
        <time>2026-05-22T15:55:18.000Z</time>
      </trkpt>
      <trkpt lat="42.92343" lon="-1.22945">
        <ele>756.034746</ele>
        <time>2026-05-22T15:55:19.000Z</time>
      </trkpt>
      <trkpt lat="42.92342" lon="-1.22941">
        <ele>756.144952</ele>
        <time>2026-05-22T15:55:20.000Z</time>
      </trkpt>
      <trkpt lat="42.9234" lon="-1.22938">
        <ele>756.259842</ele>
        <time>2026-05-22T15:55:21.000Z</time>
      </trkpt>
      <trkpt lat="42.92339" lon="-1.22934">
        <ele>756.371014</ele>
        <time>2026-05-22T15:55:22.000Z</time>
      </trkpt>
      <trkpt lat="42.92337" lon="-1.22931">
        <ele>756.480176</ele>
        <time>2026-05-22T15:55:23.000Z</time>
      </trkpt>
      <trkpt lat="42.92336" lon="-1.22928">
        <ele>756.584424</ele>
        <time>2026-05-22T15:55:24.000Z</time>
      </trkpt>
      <trkpt lat="42.92334" lon="-1.22925">
        <ele>756.690652</ele>
        <time>2026-05-22T15:55:25.000Z</time>
      </trkpt>
      <trkpt lat="42.92333" lon="-1.22922">
        <ele>756.796979</ele>
        <time>2026-05-22T15:55:26.000Z</time>
      </trkpt>
      <trkpt lat="42.92331" lon="-1.22919">
        <ele>756.905555</ele>
        <time>2026-05-22T15:55:27.000Z</time>
      </trkpt>
      <trkpt lat="42.9233" lon="-1.22916">
        <ele>757.011907</ele>
        <time>2026-05-22T15:55:28.000Z</time>
      </trkpt>
      <trkpt lat="42.92328" lon="-1.22913">
        <ele>757.120483</ele>
        <time>2026-05-22T15:55:29.000Z</time>
      </trkpt>
      <trkpt lat="42.92326" lon="-1.2291">
        <ele>757.227665</ele>
        <time>2026-05-22T15:55:30.000Z</time>
      </trkpt>
      <trkpt lat="42.92324" lon="-1.22908">
        <ele>757.330078</ele>
        <time>2026-05-22T15:55:31.000Z</time>
      </trkpt>
      <trkpt lat="42.92322" lon="-1.22905">
        <ele>757.431999</ele>
        <time>2026-05-22T15:55:32.000Z</time>
      </trkpt>
      <trkpt lat="42.92321" lon="-1.22902">
        <ele>757.529651</ele>
        <time>2026-05-22T15:55:33.000Z</time>
      </trkpt>
      <trkpt lat="42.92319" lon="-1.229">
        <ele>757.626005</ele>
        <time>2026-05-22T15:55:34.000Z</time>
      </trkpt>
      <trkpt lat="42.92317" lon="-1.22897">
        <ele>757.730516</ele>
        <time>2026-05-22T15:55:35.000Z</time>
      </trkpt>
      <trkpt lat="42.92315" lon="-1.22895">
        <ele>757.832437</ele>
        <time>2026-05-22T15:55:36.000Z</time>
      </trkpt>
      <trkpt lat="42.92314" lon="-1.22892">
        <ele>757.929645</ele>
        <time>2026-05-22T15:55:37.000Z</time>
      </trkpt>
      <trkpt lat="42.92312" lon="-1.22889">
        <ele>758.024386</ele>
        <time>2026-05-22T15:55:38.000Z</time>
      </trkpt>
      <trkpt lat="42.92311" lon="-1.22887">
        <ele>758.121595</ele>
        <time>2026-05-22T15:55:39.000Z</time>
      </trkpt>
      <trkpt lat="42.92309" lon="-1.22884">
        <ele>758.218639</ele>
        <time>2026-05-22T15:55:40.000Z</time>
      </trkpt>
      <trkpt lat="42.92308" lon="-1.22881">
        <ele>758.324868</ele>
        <time>2026-05-22T15:55:41.000Z</time>
      </trkpt>
      <trkpt lat="42.92306" lon="-1.22878">
        <ele>758.426493</ele>
        <time>2026-05-22T15:55:42.000Z</time>
      </trkpt>
      <trkpt lat="42.92305" lon="-1.22875">
        <ele>758.53302</ele>
        <time>2026-05-22T15:55:43.000Z</time>
      </trkpt>
      <trkpt lat="42.92304" lon="-1.22872">
        <ele>758.646675</ele>
        <time>2026-05-22T15:55:44.000Z</time>
      </trkpt>
      <trkpt lat="42.92303" lon="-1.22869">
        <ele>758.757332</ele>
        <time>2026-05-22T15:55:45.000Z</time>
      </trkpt>
      <trkpt lat="42.92302" lon="-1.22866">
        <ele>758.86931</ele>
        <time>2026-05-22T15:55:46.000Z</time>
      </trkpt>
      <trkpt lat="42.92301" lon="-1.22862">
        <ele>758.981289</ele>
        <time>2026-05-22T15:55:47.000Z</time>
      </trkpt>
      <trkpt lat="42.923" lon="-1.22859">
        <ele>759.093267</ele>
        <time>2026-05-22T15:55:48.000Z</time>
      </trkpt>
      <trkpt lat="42.92299" lon="-1.22856">
        <ele>759.209927</ele>
        <time>2026-05-22T15:55:49.000Z</time>
      </trkpt>
      <trkpt lat="42.92299" lon="-1.22852">
        <ele>759.326587</ele>
        <time>2026-05-22T15:55:50.000Z</time>
      </trkpt>
      <trkpt lat="42.92298" lon="-1.22849">
        <ele>759.44636</ele>
        <time>2026-05-22T15:55:51.000Z</time>
      </trkpt>
      <trkpt lat="42.92297" lon="-1.22845">
        <ele>759.569256</ele>
        <time>2026-05-22T15:55:52.000Z</time>
      </trkpt>
      <trkpt lat="42.92296" lon="-1.22842">
        <ele>759.690932</ele>
        <time>2026-05-22T15:55:53.000Z</time>
      </trkpt>
      <trkpt lat="42.92296" lon="-1.22838">
        <ele>759.813828</ele>
        <time>2026-05-22T15:55:54.000Z</time>
      </trkpt>
      <trkpt lat="42.92295" lon="-1.22835">
        <ele>759.933602</ele>
        <time>2026-05-22T15:55:55.000Z</time>
      </trkpt>
      <trkpt lat="42.92294" lon="-1.22831">
        <ele>760.057867</ele>
        <time>2026-05-22T15:55:56.000Z</time>
      </trkpt>
      <trkpt lat="42.92293" lon="-1.22827">
        <ele>760.179045</ele>
        <time>2026-05-22T15:55:57.000Z</time>
      </trkpt>
      <trkpt lat="42.92292" lon="-1.22824">
        <ele>760.301941</ele>
        <time>2026-05-22T15:55:58.000Z</time>
      </trkpt>
      <trkpt lat="42.92291" lon="-1.2282">
        <ele>760.424669</ele>
        <time>2026-05-22T15:55:59.000Z</time>
      </trkpt>
      <trkpt lat="42.9229" lon="-1.22817">
        <ele>760.549089</ele>
        <time>2026-05-22T15:56:00.000Z</time>
      </trkpt>
      <trkpt lat="42.92289" lon="-1.22813">
        <ele>760.670513</ele>
        <time>2026-05-22T15:56:01.000Z</time>
      </trkpt>
      <trkpt lat="42.92288" lon="-1.2281">
        <ele>760.796758</ele>
        <time>2026-05-22T15:56:02.000Z</time>
      </trkpt>
      <trkpt lat="42.92286" lon="-1.22807">
        <ele>760.916301</ele>
        <time>2026-05-22T15:56:03.000Z</time>
      </trkpt>
      <trkpt lat="42.92285" lon="-1.22804">
        <ele>761.032998</ele>
        <time>2026-05-22T15:56:04.000Z</time>
      </trkpt>
      <trkpt lat="42.92284" lon="-1.22801">
        <ele>761.144073</ele>
        <time>2026-05-22T15:56:05.000Z</time>
      </trkpt>
      <trkpt lat="42.92282" lon="-1.22798">
        <ele>761.252147</ele>
        <time>2026-05-22T15:56:06.000Z</time>
      </trkpt>
      <trkpt lat="42.92281" lon="-1.22795">
        <ele>761.357571</ele>
        <time>2026-05-22T15:56:07.000Z</time>
      </trkpt>
      <trkpt lat="42.9228" lon="-1.22793">
        <ele>761.465644</ele>
        <time>2026-05-22T15:56:08.000Z</time>
      </trkpt>
      <trkpt lat="42.92278" lon="-1.2279">
        <ele>761.576355</ele>
        <time>2026-05-22T15:56:09.000Z</time>
      </trkpt>
      <trkpt lat="42.92277" lon="-1.22788">
        <ele>761.671267</ele>
        <time>2026-05-22T15:56:10.000Z</time>
      </trkpt>
      <trkpt lat="42.92276" lon="-1.22785">
        <ele>761.761006</ele>
        <time>2026-05-22T15:56:11.000Z</time>
      </trkpt>
      <trkpt lat="42.92275" lon="-1.22783">
        <ele>761.861402</ele>
        <time>2026-05-22T15:56:12.000Z</time>
      </trkpt>
      <trkpt lat="42.92273" lon="-1.2278">
        <ele>761.959493</ele>
        <time>2026-05-22T15:56:13.000Z</time>
      </trkpt>
      <trkpt lat="42.92272" lon="-1.22778">
        <ele>762.062667</ele>
        <time>2026-05-22T15:56:14.000Z</time>
      </trkpt>
      <trkpt lat="42.92271" lon="-1.22775">
        <ele>762.165742</ele>
        <time>2026-05-22T15:56:15.000Z</time>
      </trkpt>
      <trkpt lat="42.92269" lon="-1.22773">
        <ele>762.265977</ele>
        <time>2026-05-22T15:56:16.000Z</time>
      </trkpt>
      <trkpt lat="42.92268" lon="-1.2277">
        <ele>762.366141</ele>
        <time>2026-05-22T15:56:17.000Z</time>
      </trkpt>
      <trkpt lat="42.92267" lon="-1.22768">
        <ele>762.467073</ele>
        <time>2026-05-22T15:56:18.000Z</time>
      </trkpt>
      <trkpt lat="42.92266" lon="-1.22765">
        <ele>762.565913</ele>
        <time>2026-05-22T15:56:19.000Z</time>
      </trkpt>
      <trkpt lat="42.92265" lon="-1.22762">
        <ele>762.668804</ele>
        <time>2026-05-22T15:56:20.000Z</time>
      </trkpt>
      <trkpt lat="42.92264" lon="-1.22759">
        <ele>762.77648</ele>
        <time>2026-05-22T15:56:21.000Z</time>
      </trkpt>
      <trkpt lat="42.92263" lon="-1.22756">
        <ele>762.881192</ele>
        <time>2026-05-22T15:56:22.000Z</time>
      </trkpt>
      <trkpt lat="42.92262" lon="-1.22753">
        <ele>762.988869</ele>
        <time>2026-05-22T15:56:23.000Z</time>
      </trkpt>
      <trkpt lat="42.92261" lon="-1.2275">
        <ele>763.096545</ele>
        <time>2026-05-22T15:56:24.000Z</time>
      </trkpt>
      <trkpt lat="42.9226" lon="-1.22747">
        <ele>763.202451</ele>
        <time>2026-05-22T15:56:25.000Z</time>
      </trkpt>
      <trkpt lat="42.92259" lon="-1.22744">
        <ele>763.30914</ele>
        <time>2026-05-22T15:56:26.000Z</time>
      </trkpt>
      <trkpt lat="42.92258" lon="-1.22741">
        <ele>763.419798</ele>
        <time>2026-05-22T15:56:27.000Z</time>
      </trkpt>
      <trkpt lat="42.92257" lon="-1.22738">
        <ele>763.528734</ele>
        <time>2026-05-22T15:56:28.000Z</time>
      </trkpt>
      <trkpt lat="42.92256" lon="-1.22735">
        <ele>763.639392</ele>
        <time>2026-05-22T15:56:29.000Z</time>
      </trkpt>
      <trkpt lat="42.92255" lon="-1.22732">
        <ele>763.751371</ele>
        <time>2026-05-22T15:56:30.000Z</time>
      </trkpt>
      <trkpt lat="42.92254" lon="-1.22728">
        <ele>763.861829</ele>
        <time>2026-05-22T15:56:31.000Z</time>
      </trkpt>
      <trkpt lat="42.92254" lon="-1.22725">
        <ele>763.972287</ele>
        <time>2026-05-22T15:56:32.000Z</time>
      </trkpt>
      <trkpt lat="42.92253" lon="-1.22722">
        <ele>764.082945</ele>
        <time>2026-05-22T15:56:33.000Z</time>
      </trkpt>
      <trkpt lat="42.92252" lon="-1.22719">
        <ele>764.192545</ele>
        <time>2026-05-22T15:56:34.000Z</time>
      </trkpt>
      <trkpt lat="42.92251" lon="-1.22716">
        <ele>764.292437</ele>
        <time>2026-05-22T15:56:35.000Z</time>
      </trkpt>
      <trkpt lat="42.9225" lon="-1.22714">
        <ele>764.394203</ele>
        <time>2026-05-22T15:56:36.000Z</time>
      </trkpt>
      <trkpt lat="42.92249" lon="-1.22711">
        <ele>764.498915</ele>
        <time>2026-05-22T15:56:37.000Z</time>
      </trkpt>
      <trkpt lat="42.92247" lon="-1.22708">
        <ele>764.607728</ele>
        <time>2026-05-22T15:56:38.000Z</time>
      </trkpt>
      <trkpt lat="42.92246" lon="-1.22705">
        <ele>764.714417</ele>
        <time>2026-05-22T15:56:39.000Z</time>
      </trkpt>
      <trkpt lat="42.92245" lon="-1.22702">
        <ele>764.826086</ele>
        <time>2026-05-22T15:56:40.000Z</time>
      </trkpt>
      <trkpt lat="42.92244" lon="-1.22699">
        <ele>764.922995</ele>
        <time>2026-05-22T15:56:41.000Z</time>
      </trkpt>
      <trkpt lat="42.92243" lon="-1.22696">
        <ele>765.030671</ele>
        <time>2026-05-22T15:56:42.000Z</time>
      </trkpt>
      <trkpt lat="42.92242" lon="-1.22693">
        <ele>765.141747</ele>
        <time>2026-05-22T15:56:43.000Z</time>
      </trkpt>
      <trkpt lat="42.92241" lon="-1.2269">
        <ele>765.25005</ele>
        <time>2026-05-22T15:56:44.000Z</time>
      </trkpt>
      <trkpt lat="42.92239" lon="-1.22688">
        <ele>765.358124</ele>
        <time>2026-05-22T15:56:45.000Z</time>
      </trkpt>
      <trkpt lat="42.92238" lon="-1.22685">
        <ele>765.466251</ele>
        <time>2026-05-22T15:56:46.000Z</time>
      </trkpt>
      <trkpt lat="42.92236" lon="-1.22683">
        <ele>765.571831</ele>
        <time>2026-05-22T15:56:47.000Z</time>
      </trkpt>
      <trkpt lat="42.92235" lon="-1.2268">
        <ele>765.677856</ele>
        <time>2026-05-22T15:56:48.000Z</time>
      </trkpt>
      <trkpt lat="42.92233" lon="-1.22678">
        <ele>765.783437</ele>
        <time>2026-05-22T15:56:49.000Z</time>
      </trkpt>
      <trkpt lat="42.92232" lon="-1.22675">
        <ele>765.883601</ele>
        <time>2026-05-22T15:56:50.000Z</time>
      </trkpt>
      <trkpt lat="42.9223" lon="-1.22673">
        <ele>765.983837</ele>
        <time>2026-05-22T15:56:51.000Z</time>
      </trkpt>
      <trkpt lat="42.92229" lon="-1.22671">
        <ele>766.084449</ele>
        <time>2026-05-22T15:56:52.000Z</time>
      </trkpt>
      <trkpt lat="42.92227" lon="-1.22668">
        <ele>766.185061</ele>
        <time>2026-05-22T15:56:53.000Z</time>
      </trkpt>
      <trkpt lat="42.92226" lon="-1.22666">
        <ele>766.282763</ele>
        <time>2026-05-22T15:56:54.000Z</time>
      </trkpt>
      <trkpt lat="42.92225" lon="-1.22664">
        <ele>766.374032</ele>
        <time>2026-05-22T15:56:55.000Z</time>
      </trkpt>
      <trkpt lat="42.92223" lon="-1.22662">
        <ele>766.475321</ele>
        <time>2026-05-22T15:56:56.000Z</time>
      </trkpt>
      <trkpt lat="42.92222" lon="-1.22659">
        <ele>766.584449</ele>
        <time>2026-05-22T15:56:57.000Z</time>
      </trkpt>
      <trkpt lat="42.9222" lon="-1.22657">
        <ele>766.695937</ele>
        <time>2026-05-22T15:56:58.000Z</time>
      </trkpt>
      <trkpt lat="42.92219" lon="-1.22654">
        <ele>766.81343</ele>
        <time>2026-05-22T15:56:59.000Z</time>
      </trkpt>
      <trkpt lat="42.92218" lon="-1.22651">
        <ele>766.925773</ele>
        <time>2026-05-22T15:57:00.000Z</time>
      </trkpt>
      <trkpt lat="42.92217" lon="-1.22649">
        <ele>767.043266</ele>
        <time>2026-05-22T15:57:01.000Z</time>
      </trkpt>
      <trkpt lat="42.92215" lon="-1.22646">
        <ele>767.164381</ele>
        <time>2026-05-22T15:57:02.000Z</time>
      </trkpt>
      <trkpt lat="42.92214" lon="-1.22643">
        <ele>767.287658</ele>
        <time>2026-05-22T15:57:03.000Z</time>
      </trkpt>
      <trkpt lat="42.92213" lon="-1.22641">
        <ele>767.402092</ele>
        <time>2026-05-22T15:57:04.000Z</time>
      </trkpt>
      <trkpt lat="42.92211" lon="-1.22638">
        <ele>767.522444</ele>
        <time>2026-05-22T15:57:05.000Z</time>
      </trkpt>
      <trkpt lat="42.9221" lon="-1.22635">
        <ele>767.648588</ele>
        <time>2026-05-22T15:57:06.000Z</time>
      </trkpt>
      <trkpt lat="42.92208" lon="-1.22632">
        <ele>767.769135</ele>
        <time>2026-05-22T15:57:07.000Z</time>
      </trkpt>
      <trkpt lat="42.92207" lon="-1.22629">
        <ele>767.89025</ele>
        <time>2026-05-22T15:57:08.000Z</time>
      </trkpt>
      <trkpt lat="42.92206" lon="-1.22626">
        <ele>768.016755</ele>
        <time>2026-05-22T15:57:09.000Z</time>
      </trkpt>
      <trkpt lat="42.92205" lon="-1.22623">
        <ele>768.14326</ele>
        <time>2026-05-22T15:57:10.000Z</time>
      </trkpt>
      <trkpt lat="42.92204" lon="-1.2262">
        <ele>768.276319</ele>
        <time>2026-05-22T15:57:11.000Z</time>
      </trkpt>
      <trkpt lat="42.92202" lon="-1.22617">
        <ele>768.405667</ele>
        <time>2026-05-22T15:57:12.000Z</time>
      </trkpt>
      <trkpt lat="42.92201" lon="-1.22614">
        <ele>768.535558</ele>
        <time>2026-05-22T15:57:13.000Z</time>
      </trkpt>
      <trkpt lat="42.922" lon="-1.22611">
        <ele>768.667987</ele>
        <time>2026-05-22T15:57:14.000Z</time>
      </trkpt>
      <trkpt lat="42.92198" lon="-1.22608">
        <ele>768.797878</ele>
        <time>2026-05-22T15:57:15.000Z</time>
      </trkpt>
      <trkpt lat="42.92197" lon="-1.22605">
        <ele>768.922172</ele>
        <time>2026-05-22T15:57:16.000Z</time>
      </trkpt>
      <trkpt lat="42.92196" lon="-1.22601">
        <ele>769.052894</ele>
        <time>2026-05-22T15:57:17.000Z</time>
      </trkpt>
      <trkpt lat="42.92195" lon="-1.22598">
        <ele>769.182786</ele>
        <time>2026-05-22T15:57:18.000Z</time>
      </trkpt>
      <trkpt lat="42.92194" lon="-1.22595">
        <ele>769.311321</ele>
        <time>2026-05-22T15:57:19.000Z</time>
      </trkpt>
      <trkpt lat="42.92192" lon="-1.22592">
        <ele>769.44438</ele>
        <time>2026-05-22T15:57:20.000Z</time>
      </trkpt>
      <trkpt lat="42.92191" lon="-1.22589">
        <ele>769.568673</ele>
        <time>2026-05-22T15:57:21.000Z</time>
      </trkpt>
      <trkpt lat="42.9219" lon="-1.22586">
        <ele>769.699396</ele>
        <time>2026-05-22T15:57:22.000Z</time>
      </trkpt>
      <trkpt lat="42.92189" lon="-1.22582">
        <ele>769.830118</ele>
        <time>2026-05-22T15:57:23.000Z</time>
      </trkpt>
      <trkpt lat="42.92187" lon="-1.22579">
        <ele>769.954412</ele>
        <time>2026-05-22T15:57:24.000Z</time>
      </trkpt>
      <trkpt lat="42.92186" lon="-1.22577">
        <ele>770.078046</ele>
        <time>2026-05-22T15:57:25.000Z</time>
      </trkpt>
      <trkpt lat="42.92185" lon="-1.22574">
        <ele>770.189793</ele>
        <time>2026-05-22T15:57:26.000Z</time>
      </trkpt>
      <trkpt lat="42.92184" lon="-1.22571">
        <ele>770.304633</ele>
        <time>2026-05-22T15:57:27.000Z</time>
      </trkpt>
      <trkpt lat="42.92183" lon="-1.22568">
        <ele>770.422597</ele>
        <time>2026-05-22T15:57:28.000Z</time>
      </trkpt>
      <trkpt lat="42.92182" lon="-1.22565">
        <ele>770.542447</ele>
        <time>2026-05-22T15:57:29.000Z</time>
      </trkpt>
      <trkpt lat="42.9218" lon="-1.22562">
        <ele>770.667701</ele>
        <time>2026-05-22T15:57:30.000Z</time>
      </trkpt>
      <trkpt lat="42.92179" lon="-1.22559">
        <ele>770.789692</ele>
        <time>2026-05-22T15:57:31.000Z</time>
      </trkpt>
      <trkpt lat="42.92178" lon="-1.22556">
        <ele>770.910808</ele>
        <time>2026-05-22T15:57:32.000Z</time>
      </trkpt>
      <trkpt lat="42.92177" lon="-1.22553">
        <ele>771.037557</ele>
        <time>2026-05-22T15:57:33.000Z</time>
      </trkpt>
      <trkpt lat="42.92176" lon="-1.2255">
        <ele>771.167449</ele>
        <time>2026-05-22T15:57:34.000Z</time>
      </trkpt>
      <trkpt lat="42.92174" lon="-1.22547">
        <ele>771.298171</ele>
        <time>2026-05-22T15:57:35.000Z</time>
      </trkpt>
      <trkpt lat="42.92173" lon="-1.22544">
        <ele>771.422811</ele>
        <time>2026-05-22T15:57:36.000Z</time>
      </trkpt>
      <trkpt lat="42.92172" lon="-1.22541">
        <ele>771.550308</ele>
        <time>2026-05-22T15:57:37.000Z</time>
      </trkpt>
      <trkpt lat="42.92171" lon="-1.22538">
        <ele>771.668272</ele>
        <time>2026-05-22T15:57:38.000Z</time>
      </trkpt>
      <trkpt lat="42.9217" lon="-1.22535">
        <ele>771.78882</ele>
        <time>2026-05-22T15:57:39.000Z</time>
      </trkpt>
      <trkpt lat="42.92169" lon="-1.22532">
        <ele>771.908671</ele>
        <time>2026-05-22T15:57:40.000Z</time>
      </trkpt>
      <trkpt lat="42.92168" lon="-1.22529">
        <ele>772.028183</ele>
        <time>2026-05-22T15:57:41.000Z</time>
      </trkpt>
      <trkpt lat="42.92167" lon="-1.22526">
        <ele>772.146935</ele>
        <time>2026-05-22T15:57:42.000Z</time>
      </trkpt>
      <trkpt lat="42.92166" lon="-1.22523">
        <ele>772.263486</ele>
        <time>2026-05-22T15:57:43.000Z</time>
      </trkpt>
      <trkpt lat="42.92165" lon="-1.2252">
        <ele>772.38988</ele>
        <time>2026-05-22T15:57:44.000Z</time>
      </trkpt>
      <trkpt lat="42.92164" lon="-1.22517">
        <ele>772.512827</ele>
        <time>2026-05-22T15:57:45.000Z</time>
      </trkpt>
      <trkpt lat="42.92163" lon="-1.22514">
        <ele>772.635997</ele>
        <time>2026-05-22T15:57:46.000Z</time>
      </trkpt>
      <trkpt lat="42.92162" lon="-1.22511">
        <ele>772.759166</ele>
        <time>2026-05-22T15:57:47.000Z</time>
      </trkpt>
      <trkpt lat="42.92161" lon="-1.22508">
        <ele>772.881158</ele>
        <time>2026-05-22T15:57:48.000Z</time>
      </trkpt>
      <trkpt lat="42.9216" lon="-1.22505">
        <ele>772.994431</ele>
        <time>2026-05-22T15:57:49.000Z</time>
      </trkpt>
      <trkpt lat="42.92159" lon="-1.22502">
        <ele>773.108955</ele>
        <time>2026-05-22T15:57:50.000Z</time>
      </trkpt>
      <trkpt lat="42.92158" lon="-1.22499">
        <ele>773.232124</ele>
        <time>2026-05-22T15:57:51.000Z</time>
      </trkpt>
      <trkpt lat="42.92157" lon="-1.22496">
        <ele>773.351975</ele>
        <time>2026-05-22T15:57:52.000Z</time>
      </trkpt>
      <trkpt lat="42.92156" lon="-1.22493">
        <ele>773.478481</ele>
        <time>2026-05-22T15:57:53.000Z</time>
      </trkpt>
      <trkpt lat="42.92155" lon="-1.22489">
        <ele>773.604987</ele>
        <time>2026-05-22T15:57:54.000Z</time>
      </trkpt>
      <trkpt lat="42.92154" lon="-1.22486">
        <ele>773.721076</ele>
        <time>2026-05-22T15:57:55.000Z</time>
      </trkpt>
      <trkpt lat="42.92154" lon="-1.22483">
        <ele>773.837165</ele>
        <time>2026-05-22T15:57:56.000Z</time>
      </trkpt>
      <trkpt lat="42.92153" lon="-1.22481">
        <ele>773.948351</ele>
        <time>2026-05-22T15:57:57.000Z</time>
      </trkpt>
      <trkpt lat="42.92152" lon="-1.22478">
        <ele>774.057532</ele>
        <time>2026-05-22T15:57:58.000Z</time>
      </trkpt>
      <trkpt lat="42.9215" lon="-1.22475">
        <ele>774.172005</ele>
        <time>2026-05-22T15:57:59.000Z</time>
      </trkpt>
      <trkpt lat="42.92149" lon="-1.22473">
        <ele>774.274954</ele>
        <time>2026-05-22T15:58:00.000Z</time>
      </trkpt>
      <trkpt lat="42.92148" lon="-1.2247">
        <ele>774.381738</ele>
        <time>2026-05-22T15:58:01.000Z</time>
      </trkpt>
      <trkpt lat="42.92147" lon="-1.22468">
        <ele>774.50049</ele>
        <time>2026-05-22T15:58:02.000Z</time>
      </trkpt>
      <trkpt lat="42.92146" lon="-1.22465">
        <ele>774.609671</ele>
        <time>2026-05-22T15:58:03.000Z</time>
      </trkpt>
      <trkpt lat="42.92145" lon="-1.22462">
        <ele>774.722015</ele>
        <time>2026-05-22T15:58:04.000Z</time>
      </trkpt>
      <trkpt lat="42.92144" lon="-1.2246">
        <ele>774.8288</ele>
        <time>2026-05-22T15:58:05.000Z</time>
      </trkpt>
      <trkpt lat="42.92143" lon="-1.22457">
        <ele>774.930092</ele>
        <time>2026-05-22T15:58:06.000Z</time>
      </trkpt>
      <trkpt lat="42.92142" lon="-1.22455">
        <ele>775.027351</ele>
        <time>2026-05-22T15:58:07.000Z</time>
      </trkpt>
      <trkpt lat="42.92141" lon="-1.22453">
        <ele>775.119935</ele>
        <time>2026-05-22T15:58:08.000Z</time>
      </trkpt>
      <trkpt lat="42.9214" lon="-1.2245">
        <ele>775.214755</ele>
        <time>2026-05-22T15:58:09.000Z</time>
      </trkpt>
      <trkpt lat="42.92139" lon="-1.22448">
        <ele>775.32154</ele>
        <time>2026-05-22T15:58:10.000Z</time>
      </trkpt>
      <trkpt lat="42.92138" lon="-1.22445">
        <ele>775.428324</ele>
        <time>2026-05-22T15:58:11.000Z</time>
      </trkpt>
      <trkpt lat="42.92138" lon="-1.22443">
        <ele>775.531343</ele>
        <time>2026-05-22T15:58:12.000Z</time>
      </trkpt>
      <trkpt lat="42.92137" lon="-1.2244">
        <ele>775.634712</ele>
        <time>2026-05-22T15:58:13.000Z</time>
      </trkpt>
      <trkpt lat="42.92136" lon="-1.22437">
        <ele>775.755293</ele>
        <time>2026-05-22T15:58:14.000Z</time>
      </trkpt>
      <trkpt lat="42.92136" lon="-1.22434">
        <ele>775.879729</ele>
        <time>2026-05-22T15:58:15.000Z</time>
      </trkpt>
      <trkpt lat="42.92135" lon="-1.22431">
        <ele>776.00748</ele>
        <time>2026-05-22T15:58:16.000Z</time>
      </trkpt>
      <trkpt lat="42.92134" lon="-1.22428">
        <ele>776.131479</ele>
        <time>2026-05-22T15:58:17.000Z</time>
      </trkpt>
      <trkpt lat="42.92133" lon="-1.22426">
        <ele>776.248215</ele>
        <time>2026-05-22T15:58:18.000Z</time>
      </trkpt>
      <trkpt lat="42.92133" lon="-1.22423">
        <ele>776.363535</ele>
        <time>2026-05-22T15:58:19.000Z</time>
      </trkpt>
      <trkpt lat="42.92133" lon="-1.2242">
        <ele>776.477684</ele>
        <time>2026-05-22T15:58:20.000Z</time>
      </trkpt>
      <trkpt lat="42.92132" lon="-1.22417">
        <ele>776.585246</ele>
        <time>2026-05-22T15:58:21.000Z</time>
      </trkpt>
      <trkpt lat="42.92132" lon="-1.22415">
        <ele>776.688943</ele>
        <time>2026-05-22T15:58:22.000Z</time>
      </trkpt>
      <trkpt lat="42.92131" lon="-1.22412">
        <ele>776.79753</ele>
        <time>2026-05-22T15:58:23.000Z</time>
      </trkpt>
      <trkpt lat="42.92131" lon="-1.22409">
        <ele>776.913569</ele>
        <time>2026-05-22T15:58:24.000Z</time>
      </trkpt>
      <trkpt lat="42.92131" lon="-1.22406">
        <ele>777.03773</ele>
        <time>2026-05-22T15:58:25.000Z</time>
      </trkpt>
      <trkpt lat="42.92132" lon="-1.22403">
        <ele>777.162252</ele>
        <time>2026-05-22T15:58:26.000Z</time>
      </trkpt>
      <trkpt lat="42.92132" lon="-1.224">
        <ele>777.277572</ele>
        <time>2026-05-22T15:58:27.000Z</time>
      </trkpt>
      <trkpt lat="42.92133" lon="-1.22398">
        <ele>777.389009</ele>
        <time>2026-05-22T15:58:28.000Z</time>
      </trkpt>
      <trkpt lat="42.92133" lon="-1.22395">
        <ele>777.489637</ele>
        <time>2026-05-22T15:58:29.000Z</time>
      </trkpt>
      <trkpt lat="42.92133" lon="-1.22392">
        <ele>777.602206</ele>
        <time>2026-05-22T15:58:30.000Z</time>
      </trkpt>
      <trkpt lat="42.92133" lon="-1.2239">
        <ele>777.716355</ele>
        <time>2026-05-22T15:58:31.000Z</time>
      </trkpt>
      <trkpt lat="42.92134" lon="-1.22387">
        <ele>777.834741</ele>
        <time>2026-05-22T15:58:32.000Z</time>
      </trkpt>
      <trkpt lat="42.92135" lon="-1.22384">
        <ele>777.957096</ele>
        <time>2026-05-22T15:58:33.000Z</time>
      </trkpt>
      <trkpt lat="42.92136" lon="-1.22381">
        <ele>778.079451</ele>
        <time>2026-05-22T15:58:34.000Z</time>
      </trkpt>
      <trkpt lat="42.92136" lon="-1.22378">
        <ele>778.192681</ele>
        <time>2026-05-22T15:58:35.000Z</time>
      </trkpt>
      <trkpt lat="42.92136" lon="-1.22376">
        <ele>778.296715</ele>
        <time>2026-05-22T15:58:36.000Z</time>
      </trkpt>
      <trkpt lat="42.92136" lon="-1.22373">
        <ele>778.408753</ele>
        <time>2026-05-22T15:58:37.000Z</time>
      </trkpt>
      <trkpt lat="42.92137" lon="-1.2237">
        <ele>778.529906</ele>
        <time>2026-05-22T15:58:38.000Z</time>
      </trkpt>
      <trkpt lat="42.92137" lon="-1.22367">
        <ele>778.654343</ele>
        <time>2026-05-22T15:58:39.000Z</time>
      </trkpt>
      <trkpt lat="42.92138" lon="-1.22364">
        <ele>778.776522</ele>
        <time>2026-05-22T15:58:40.000Z</time>
      </trkpt>
      <trkpt lat="42.92139" lon="-1.22361">
        <ele>778.898702</ele>
        <time>2026-05-22T15:58:41.000Z</time>
      </trkpt>
      <trkpt lat="42.92139" lon="-1.22358">
        <ele>779.011932</ele>
        <time>2026-05-22T15:58:42.000Z</time>
      </trkpt>
      <trkpt lat="42.92139" lon="-1.22356">
        <ele>779.113299</ele>
        <time>2026-05-22T15:58:43.000Z</time>
      </trkpt>
      <trkpt lat="42.92139" lon="-1.22354">
        <ele>779.205976</ele>
        <time>2026-05-22T15:58:44.000Z</time>
      </trkpt>
      <trkpt lat="42.9214" lon="-1.22351">
        <ele>779.306604</ele>
        <time>2026-05-22T15:58:45.000Z</time>
      </trkpt>
      <trkpt lat="42.9214" lon="-1.22349">
        <ele>779.398635</ele>
        <time>2026-05-22T15:58:46.000Z</time>
      </trkpt>
      <trkpt lat="42.9214" lon="-1.22347">
        <ele>779.486664</ele>
        <time>2026-05-22T15:58:47.000Z</time>
      </trkpt>
      <trkpt lat="42.9214" lon="-1.22344">
        <ele>779.582696</ele>
        <time>2026-05-22T15:58:48.000Z</time>
      </trkpt>
      <trkpt lat="42.92139" lon="-1.22342">
        <ele>779.686874</ele>
        <time>2026-05-22T15:58:49.000Z</time>
      </trkpt>
      <trkpt lat="42.9214" lon="-1.22339">
        <ele>779.79148</ele>
        <time>2026-05-22T15:58:50.000Z</time>
      </trkpt>
      <trkpt lat="42.9214" lon="-1.22336">
        <ele>779.895658</ele>
        <time>2026-05-22T15:58:51.000Z</time>
      </trkpt>
      <trkpt lat="42.92139" lon="-1.22334">
        <ele>780.00493</ele>
        <time>2026-05-22T15:58:52.000Z</time>
      </trkpt>
      <trkpt lat="42.92139" lon="-1.22331">
        <ele>780.111236</ele>
        <time>2026-05-22T15:58:53.000Z</time>
      </trkpt>
      <trkpt lat="42.92138" lon="-1.22328">
        <ele>780.229622</ele>
        <time>2026-05-22T15:58:54.000Z</time>
      </trkpt>
      <trkpt lat="42.92138" lon="-1.22325">
        <ele>780.351802</ele>
        <time>2026-05-22T15:58:55.000Z</time>
      </trkpt>
      <trkpt lat="42.92137" lon="-1.22322">
        <ele>780.479553</ele>
        <time>2026-05-22T15:58:56.000Z</time>
      </trkpt>
      <trkpt lat="42.92136" lon="-1.2232">
        <ele>780.594625</ele>
        <time>2026-05-22T15:58:57.000Z</time>
      </trkpt>
      <trkpt lat="42.92135" lon="-1.22317">
        <ele>780.714233</ele>
        <time>2026-05-22T15:58:58.000Z</time>
      </trkpt>
      <trkpt lat="42.92134" lon="-1.22315">
        <ele>780.828216</ele>
        <time>2026-05-22T15:58:59.000Z</time>
      </trkpt>
      <trkpt lat="42.92133" lon="-1.22312">
        <ele>780.941507</ele>
        <time>2026-05-22T15:59:00.000Z</time>
      </trkpt>
      <trkpt lat="42.92131" lon="-1.2231">
        <ele>781.060955</ele>
        <time>2026-05-22T15:59:01.000Z</time>
      </trkpt>
      <trkpt lat="42.9213" lon="-1.22307">
        <ele>781.180563</ele>
        <time>2026-05-22T15:59:02.000Z</time>
      </trkpt>
      <trkpt lat="42.92129" lon="-1.22305">
        <ele>781.300236</ele>
        <time>2026-05-22T15:59:03.000Z</time>
      </trkpt>
      <trkpt lat="42.92127" lon="-1.22303">
        <ele>781.417618</ele>
        <time>2026-05-22T15:59:04.000Z</time>
      </trkpt>
      <trkpt lat="42.92126" lon="-1.22301">
        <ele>781.527537</ele>
        <time>2026-05-22T15:59:05.000Z</time>
      </trkpt>
      <trkpt lat="42.92125" lon="-1.22298">
        <ele>781.643819</ele>
        <time>2026-05-22T15:59:06.000Z</time>
      </trkpt>
      <trkpt lat="42.92124" lon="-1.22296">
        <ele>781.753585</ele>
        <time>2026-05-22T15:59:07.000Z</time>
      </trkpt>
      <trkpt lat="42.92123" lon="-1.22294">
        <ele>781.869867</ele>
        <time>2026-05-22T15:59:08.000Z</time>
      </trkpt>
      <trkpt lat="42.92121" lon="-1.22292">
        <ele>781.990145</ele>
        <time>2026-05-22T15:59:09.000Z</time>
      </trkpt>
      <trkpt lat="42.92119" lon="-1.22289">
        <ele>782.111406</ele>
        <time>2026-05-22T15:59:10.000Z</time>
      </trkpt>
      <trkpt lat="42.92118" lon="-1.22287">
        <ele>782.228029</ele>
        <time>2026-05-22T15:59:11.000Z</time>
      </trkpt>
      <trkpt lat="42.92117" lon="-1.22285">
        <ele>782.344731</ele>
        <time>2026-05-22T15:59:12.000Z</time>
      </trkpt>
      <trkpt lat="42.92116" lon="-1.22282">
        <ele>782.464881</ele>
        <time>2026-05-22T15:59:13.000Z</time>
      </trkpt>
      <trkpt lat="42.92115" lon="-1.22279">
        <ele>782.585949</ele>
        <time>2026-05-22T15:59:14.000Z</time>
      </trkpt>
      <trkpt lat="42.92114" lon="-1.22277">
        <ele>782.709579</ele>
        <time>2026-05-22T15:59:15.000Z</time>
      </trkpt>
      <trkpt lat="42.92113" lon="-1.22274">
        <ele>782.83176</ele>
        <time>2026-05-22T15:59:16.000Z</time>
      </trkpt>
      <trkpt lat="42.92113" lon="-1.22271">
        <ele>782.95487</ele>
        <time>2026-05-22T15:59:17.000Z</time>
      </trkpt>
      <trkpt lat="42.92112" lon="-1.22268">
        <ele>783.06704</ele>
        <time>2026-05-22T15:59:18.000Z</time>
      </trkpt>
      <trkpt lat="42.92113" lon="-1.22265">
        <ele>783.183208</ele>
        <time>2026-05-22T15:59:19.000Z</time>
      </trkpt>
      <trkpt lat="42.92113" lon="-1.22262">
        <ele>783.303248</ele>
        <time>2026-05-22T15:59:20.000Z</time>
      </trkpt>
      <trkpt lat="42.92112" lon="-1.22259">
        <ele>783.4198</ele>
        <time>2026-05-22T15:59:21.000Z</time>
      </trkpt>
      <trkpt lat="42.92112" lon="-1.22256">
        <ele>783.532369</ele>
        <time>2026-05-22T15:59:22.000Z</time>
      </trkpt>
      <trkpt lat="42.92112" lon="-1.22254">
        <ele>783.64769</ele>
        <time>2026-05-22T15:59:23.000Z</time>
      </trkpt>
      <trkpt lat="42.92111" lon="-1.22251">
        <ele>783.755252</ele>
        <time>2026-05-22T15:59:24.000Z</time>
      </trkpt>
      <trkpt lat="42.92111" lon="-1.22248">
        <ele>783.87142</ele>
        <time>2026-05-22T15:59:25.000Z</time>
      </trkpt>
      <trkpt lat="42.92112" lon="-1.22245">
        <ele>783.988611</ele>
        <time>2026-05-22T15:59:26.000Z</time>
      </trkpt>
      <trkpt lat="42.92112" lon="-1.22243">
        <ele>784.101512</ele>
        <time>2026-05-22T15:59:27.000Z</time>
      </trkpt>
      <trkpt lat="42.92113" lon="-1.2224">
        <ele>784.215661</ele>
        <time>2026-05-22T15:59:28.000Z</time>
      </trkpt>
      <trkpt lat="42.92113" lon="-1.22237">
        <ele>784.324934</ele>
        <time>2026-05-22T15:59:29.000Z</time>
      </trkpt>
      <trkpt lat="42.92113" lon="-1.22234">
        <ele>784.441102</ele>
        <time>2026-05-22T15:59:30.000Z</time>
      </trkpt>
      <trkpt lat="42.92113" lon="-1.22231">
        <ele>784.561266</ele>
        <time>2026-05-22T15:59:31.000Z</time>
      </trkpt>
      <trkpt lat="42.92113" lon="-1.22228">
        <ele>784.68242</ele>
        <time>2026-05-22T15:59:32.000Z</time>
      </trkpt>
      <trkpt lat="42.92113" lon="-1.22225">
        <ele>784.794458</ele>
        <time>2026-05-22T15:59:33.000Z</time>
      </trkpt>
      <trkpt lat="42.92113" lon="-1.22222">
        <ele>784.914622</ele>
        <time>2026-05-22T15:59:34.000Z</time>
      </trkpt>
      <trkpt lat="42.92113" lon="-1.22219">
        <ele>785.03079</ele>
        <time>2026-05-22T15:59:35.000Z</time>
      </trkpt>
      <trkpt lat="42.92113" lon="-1.22216">
        <ele>785.154952</ele>
        <time>2026-05-22T15:59:36.000Z</time>
      </trkpt>
      <trkpt lat="42.92114" lon="-1.22213">
        <ele>785.276106</ele>
        <time>2026-05-22T15:59:37.000Z</time>
      </trkpt>
      <trkpt lat="42.92114" lon="-1.2221">
        <ele>785.378385</ele>
        <time>2026-05-22T15:59:38.000Z</time>
      </trkpt>
      <trkpt lat="42.92114" lon="-1.22207">
        <ele>785.487468</ele>
        <time>2026-05-22T15:59:39.000Z</time>
      </trkpt>
      <trkpt lat="42.92114" lon="-1.22204">
        <ele>785.589119</ele>
        <time>2026-05-22T15:59:40.000Z</time>
      </trkpt>
      <trkpt lat="42.92114" lon="-1.22202">
        <ele>785.690883</ele>
        <time>2026-05-22T15:59:41.000Z</time>
      </trkpt>
      <trkpt lat="42.92114" lon="-1.22199">
        <ele>785.789495</ele>
        <time>2026-05-22T15:59:42.000Z</time>
      </trkpt>
      <trkpt lat="42.92114" lon="-1.22196">
        <ele>785.891146</ele>
        <time>2026-05-22T15:59:43.000Z</time>
      </trkpt>
      <trkpt lat="42.92114" lon="-1.22193">
        <ele>785.992798</ele>
        <time>2026-05-22T15:59:44.000Z</time>
      </trkpt>
      <trkpt lat="42.92114" lon="-1.2219">
        <ele>786.101459</ele>
        <time>2026-05-22T15:59:45.000Z</time>
      </trkpt>
      <trkpt lat="42.92114" lon="-1.22187">
        <ele>786.211066</ele>
        <time>2026-05-22T15:59:46.000Z</time>
      </trkpt>
      <trkpt lat="42.92114" lon="-1.22184">
        <ele>786.317198</ele>
        <time>2026-05-22T15:59:47.000Z</time>
      </trkpt>
      <trkpt lat="42.92114" lon="-1.2218">
        <ele>786.432871</ele>
        <time>2026-05-22T15:59:48.000Z</time>
      </trkpt>
      <trkpt lat="42.92113" lon="-1.22177">
        <ele>786.548938</ele>
        <time>2026-05-22T15:59:49.000Z</time>
      </trkpt>
      <trkpt lat="42.92113" lon="-1.22174">
        <ele>786.666185</ele>
        <time>2026-05-22T15:59:50.000Z</time>
      </trkpt>
      <trkpt lat="42.92112" lon="-1.22171">
        <ele>786.786612</ele>
        <time>2026-05-22T15:59:51.000Z</time>
      </trkpt>
      <trkpt lat="42.92111" lon="-1.22167">
        <ele>786.906767</ele>
        <time>2026-05-22T15:59:52.000Z</time>
      </trkpt>
      <trkpt lat="42.9211" lon="-1.22164">
        <ele>787.037058</ele>
        <time>2026-05-22T15:59:53.000Z</time>
      </trkpt>
      <trkpt lat="42.92109" lon="-1.22161">
        <ele>787.175633</ele>
        <time>2026-05-22T15:59:54.000Z</time>
      </trkpt>
      <trkpt lat="42.92106" lon="-1.22158">
        <ele>787.32695</ele>
        <time>2026-05-22T15:59:55.000Z</time>
      </trkpt>
      <trkpt lat="42.92104" lon="-1.22155">
        <ele>787.487081</ele>
        <time>2026-05-22T15:59:56.000Z</time>
      </trkpt>
      <trkpt lat="42.92101" lon="-1.22153">
        <ele>787.638335</ele>
        <time>2026-05-22T15:59:57.000Z</time>
      </trkpt>
      <trkpt lat="42.92098" lon="-1.22152">
        <ele>787.785358</ele>
        <time>2026-05-22T15:59:58.000Z</time>
      </trkpt>
      <trkpt lat="42.92095" lon="-1.22152">
        <ele>787.93049</ele>
        <time>2026-05-22T15:59:59.000Z</time>
      </trkpt>
      <trkpt lat="42.92092" lon="-1.22152">
        <ele>788.074089</ele>
        <time>2026-05-22T16:00:00.000Z</time>
      </trkpt>
      <trkpt lat="42.92089" lon="-1.22152">
        <ele>788.232087</ele>
        <time>2026-05-22T16:00:01.000Z</time>
      </trkpt>
      <trkpt lat="42.92086" lon="-1.22152">
        <ele>788.367753</ele>
        <time>2026-05-22T16:00:02.000Z</time>
      </trkpt>
      <trkpt lat="42.92083" lon="-1.22153">
        <ele>788.492447</ele>
        <time>2026-05-22T16:00:03.000Z</time>
      </trkpt>
      <trkpt lat="42.92082" lon="-1.22155">
        <ele>788.602174</ele>
        <time>2026-05-22T16:00:04.000Z</time>
      </trkpt>
      <trkpt lat="42.9208" lon="-1.22158">
        <ele>788.71594</ele>
        <time>2026-05-22T16:00:05.000Z</time>
      </trkpt>
      <trkpt lat="42.92079" lon="-1.22161">
        <ele>788.829205</ele>
        <time>2026-05-22T16:00:06.000Z</time>
      </trkpt>
      <trkpt lat="42.92077" lon="-1.22163">
        <ele>788.948</ele>
        <time>2026-05-22T16:00:07.000Z</time>
      </trkpt>
      <trkpt lat="42.92076" lon="-1.22166">
        <ele>789.066843</ele>
        <time>2026-05-22T16:00:08.000Z</time>
      </trkpt>
      <trkpt lat="42.92075" lon="-1.22169">
        <ele>789.183601</ele>
        <time>2026-05-22T16:00:09.000Z</time>
      </trkpt>
      <trkpt lat="42.92073" lon="-1.22172">
        <ele>789.300359</ele>
        <time>2026-05-22T16:00:10.000Z</time>
      </trkpt>
      <trkpt lat="42.92072" lon="-1.22175">
        <ele>789.416569</ele>
        <time>2026-05-22T16:00:11.000Z</time>
      </trkpt>
      <trkpt lat="42.92071" lon="-1.22178">
        <ele>789.533328</ele>
        <time>2026-05-22T16:00:12.000Z</time>
      </trkpt>
      <trkpt lat="42.9207" lon="-1.22181">
        <ele>789.6616</ele>
        <time>2026-05-22T16:00:13.000Z</time>
      </trkpt>
      <trkpt lat="42.92068" lon="-1.22184">
        <ele>789.783206</ele>
        <time>2026-05-22T16:00:14.000Z</time>
      </trkpt>
      <trkpt lat="42.92066" lon="-1.22186">
        <ele>789.896971</ele>
        <time>2026-05-22T16:00:15.000Z</time>
      </trkpt>
      <trkpt lat="42.92065" lon="-1.22188">
        <ele>790.007571</ele>
        <time>2026-05-22T16:00:16.000Z</time>
      </trkpt>
      <trkpt lat="42.92063" lon="-1.22191">
        <ele>790.132385</ele>
        <time>2026-05-22T16:00:17.000Z</time>
      </trkpt>
      <trkpt lat="42.92062" lon="-1.22194">
        <ele>790.256878</ele>
        <time>2026-05-22T16:00:18.000Z</time>
      </trkpt>
      <trkpt lat="42.9206" lon="-1.22196">
        <ele>790.372899</ele>
        <time>2026-05-22T16:00:19.000Z</time>
      </trkpt>
      <trkpt lat="42.92059" lon="-1.22199">
        <ele>790.483253</ele>
        <time>2026-05-22T16:00:20.000Z</time>
      </trkpt>
      <trkpt lat="42.92057" lon="-1.22202">
        <ele>790.593571</ele>
        <time>2026-05-22T16:00:21.000Z</time>
      </trkpt>
      <trkpt lat="42.92056" lon="-1.22204">
        <ele>790.69835</ele>
        <time>2026-05-22T16:00:22.000Z</time>
      </trkpt>
      <trkpt lat="42.92055" lon="-1.22206">
        <ele>790.805904</ele>
        <time>2026-05-22T16:00:23.000Z</time>
      </trkpt>
      <trkpt lat="42.92054" lon="-1.22209">
        <ele>790.916258</ele>
        <time>2026-05-22T16:00:24.000Z</time>
      </trkpt>
      <trkpt lat="42.92052" lon="-1.22212">
        <ele>791.033016</ele>
        <time>2026-05-22T16:00:25.000Z</time>
      </trkpt>
      <trkpt lat="42.92051" lon="-1.22215">
        <ele>791.149227</ele>
        <time>2026-05-22T16:00:26.000Z</time>
      </trkpt>
      <trkpt lat="42.9205" lon="-1.22218">
        <ele>791.273922</ele>
        <time>2026-05-22T16:00:27.000Z</time>
      </trkpt>
      <trkpt lat="42.92048" lon="-1.22221">
        <ele>791.398617</ele>
        <time>2026-05-22T16:00:28.000Z</time>
      </trkpt>
      <trkpt lat="42.92047" lon="-1.22224">
        <ele>791.520371</ele>
        <time>2026-05-22T16:00:29.000Z</time>
      </trkpt>
      <trkpt lat="42.92045" lon="-1.22226">
        <ele>791.639214</ele>
        <time>2026-05-22T16:00:30.000Z</time>
      </trkpt>
      <trkpt lat="42.92044" lon="-1.22229">
        <ele>791.763706</ele>
        <time>2026-05-22T16:00:31.000Z</time>
      </trkpt>
      <trkpt lat="42.92042" lon="-1.22232">
        <ele>791.888521</ele>
        <time>2026-05-22T16:00:32.000Z</time>
      </trkpt>
      <trkpt lat="42.92041" lon="-1.22235">
        <ele>792.013013</ele>
        <time>2026-05-22T16:00:33.000Z</time>
      </trkpt>
      <trkpt lat="42.92039" lon="-1.22238">
        <ele>792.137506</ele>
        <time>2026-05-22T16:00:34.000Z</time>
      </trkpt>
      <trkpt lat="42.92038" lon="-1.2224">
        <ele>792.248214</ele>
        <time>2026-05-22T16:00:35.000Z</time>
      </trkpt>
      <trkpt lat="42.92037" lon="-1.22243">
        <ele>792.348067</ele>
        <time>2026-05-22T16:00:36.000Z</time>
      </trkpt>
      <trkpt lat="42.92036" lon="-1.22245">
        <ele>792.452846</ele>
        <time>2026-05-22T16:00:37.000Z</time>
      </trkpt>
      <trkpt lat="42.92034" lon="-1.22247">
        <ele>792.551936</ele>
        <time>2026-05-22T16:00:38.000Z</time>
      </trkpt>
      <trkpt lat="42.92033" lon="-1.2225">
        <ele>792.648093</ele>
        <time>2026-05-22T16:00:39.000Z</time>
      </trkpt>
      <trkpt lat="42.92031" lon="-1.22251">
        <ele>792.747322</ele>
        <time>2026-05-22T16:00:40.000Z</time>
      </trkpt>
      <trkpt lat="42.9203" lon="-1.22253">
        <ele>792.844304</ele>
        <time>2026-05-22T16:00:41.000Z</time>
      </trkpt>
      <trkpt lat="42.92028" lon="-1.22256">
        <ele>792.95053</ele>
        <time>2026-05-22T16:00:42.000Z</time>
      </trkpt>
      <trkpt lat="42.92027" lon="-1.22258">
        <ele>793.055897</ele>
        <time>2026-05-22T16:00:43.000Z</time>
      </trkpt>
      <trkpt lat="42.92025" lon="-1.2226">
        <ele>793.165624</ele>
        <time>2026-05-22T16:00:44.000Z</time>
      </trkpt>
      <trkpt lat="42.92023" lon="-1.22262">
        <ele>793.276314</ele>
        <time>2026-05-22T16:00:45.000Z</time>
      </trkpt>
      <trkpt lat="42.92021" lon="-1.22263">
        <ele>793.388172</ele>
        <time>2026-05-22T16:00:46.000Z</time>
      </trkpt>
      <trkpt lat="42.92019" lon="-1.22265">
        <ele>793.50328</ele>
        <time>2026-05-22T16:00:47.000Z</time>
      </trkpt>
      <trkpt lat="42.92017" lon="-1.22266">
        <ele>793.607846</ele>
        <time>2026-05-22T16:00:48.000Z</time>
      </trkpt>
      <trkpt lat="42.92015" lon="-1.22267">
        <ele>793.722369</ele>
        <time>2026-05-22T16:00:49.000Z</time>
      </trkpt>
      <trkpt lat="42.92012" lon="-1.22267">
        <ele>793.842854</ele>
        <time>2026-05-22T16:00:50.000Z</time>
      </trkpt>
      <trkpt lat="42.9201" lon="-1.22267">
        <ele>793.98035</ele>
        <time>2026-05-22T16:00:51.000Z</time>
      </trkpt>
      <trkpt lat="42.92007" lon="-1.22268">
        <ele>794.109426</ele>
        <time>2026-05-22T16:00:52.000Z</time>
      </trkpt>
      <trkpt lat="42.92005" lon="-1.22268">
        <ele>794.244063</ele>
        <time>2026-05-22T16:00:53.000Z</time>
      </trkpt>
      <trkpt lat="42.92003" lon="-1.22268">
        <ele>794.367239</ele>
        <time>2026-05-22T16:00:54.000Z</time>
      </trkpt>
      <trkpt lat="42.92001" lon="-1.22267">
        <ele>794.490754</ele>
        <time>2026-05-22T16:00:55.000Z</time>
      </trkpt>
      <trkpt lat="42.91998" lon="-1.22267">
        <ele>794.613727</ele>
        <time>2026-05-22T16:00:56.000Z</time>
      </trkpt>
      <trkpt lat="42.91996" lon="-1.22267">
        <ele>794.726129</ele>
        <time>2026-05-22T16:00:57.000Z</time>
      </trkpt>
      <trkpt lat="42.91994" lon="-1.22267">
        <ele>794.838532</ele>
        <time>2026-05-22T16:00:58.000Z</time>
      </trkpt>
      <trkpt lat="42.91992" lon="-1.22266">
        <ele>794.951455</ele>
        <time>2026-05-22T16:00:59.000Z</time>
      </trkpt>
      <trkpt lat="42.9199" lon="-1.22266">
        <ele>795.067881</ele>
        <time>2026-05-22T16:01:00.000Z</time>
      </trkpt>
      <trkpt lat="42.91988" lon="-1.22265">
        <ele>795.187739</ele>
        <time>2026-05-22T16:01:01.000Z</time>
      </trkpt>
      <trkpt lat="42.91986" lon="-1.22264">
        <ele>795.307597</ele>
        <time>2026-05-22T16:01:02.000Z</time>
      </trkpt>
      <trkpt lat="42.91984" lon="-1.22264">
        <ele>795.430773</ele>
        <time>2026-05-22T16:01:03.000Z</time>
      </trkpt>
      <trkpt lat="42.91982" lon="-1.22264">
        <ele>795.543696</ele>
        <time>2026-05-22T16:01:04.000Z</time>
      </trkpt>
      <trkpt lat="42.9198" lon="-1.22264">
        <ele>795.672251</ele>
        <time>2026-05-22T16:01:05.000Z</time>
      </trkpt>
      <trkpt lat="42.91978" lon="-1.22264">
        <ele>795.789854</ele>
        <time>2026-05-22T16:01:06.000Z</time>
      </trkpt>
      <trkpt lat="42.91976" lon="-1.22264">
        <ele>795.908941</ele>
        <time>2026-05-22T16:01:07.000Z</time>
      </trkpt>
      <trkpt lat="42.91973" lon="-1.22263">
        <ele>796.039049</ele>
        <time>2026-05-22T16:01:08.000Z</time>
      </trkpt>
      <trkpt lat="42.91971" lon="-1.22262">
        <ele>796.165246</ele>
        <time>2026-05-22T16:01:09.000Z</time>
      </trkpt>
      <trkpt lat="42.91969" lon="-1.22262">
        <ele>796.293801</ele>
        <time>2026-05-22T16:01:10.000Z</time>
      </trkpt>
      <trkpt lat="42.91966" lon="-1.22262">
        <ele>796.428128</ele>
        <time>2026-05-22T16:01:11.000Z</time>
      </trkpt>
      <trkpt lat="42.91964" lon="-1.22262">
        <ele>796.547215</ele>
        <time>2026-05-22T16:01:12.000Z</time>
      </trkpt>
      <trkpt lat="42.91962" lon="-1.22262">
        <ele>796.671204</ele>
        <time>2026-05-22T16:01:13.000Z</time>
      </trkpt>
      <trkpt lat="42.9196" lon="-1.22261">
        <ele>796.779301</ele>
        <time>2026-05-22T16:01:14.000Z</time>
      </trkpt>
      <trkpt lat="42.91958" lon="-1.2226">
        <ele>796.898286</ele>
        <time>2026-05-22T16:01:15.000Z</time>
      </trkpt>
      <trkpt lat="42.91956" lon="-1.22259">
        <ele>797.025473</ele>
        <time>2026-05-22T16:01:16.000Z</time>
      </trkpt>
      <trkpt lat="42.91954" lon="-1.22258">
        <ele>797.143115</ele>
        <time>2026-05-22T16:01:17.000Z</time>
      </trkpt>
      <trkpt lat="42.91952" lon="-1.22258">
        <ele>797.25751</ele>
        <time>2026-05-22T16:01:18.000Z</time>
      </trkpt>
      <trkpt lat="42.9195" lon="-1.22258">
        <ele>797.374899</ele>
        <time>2026-05-22T16:01:19.000Z</time>
      </trkpt>
      <trkpt lat="42.91948" lon="-1.22258">
        <ele>797.492216</ele>
        <time>2026-05-22T16:01:20.000Z</time>
      </trkpt>
      <trkpt lat="42.91946" lon="-1.22258">
        <ele>797.609819</ele>
        <time>2026-05-22T16:01:21.000Z</time>
      </trkpt>
      <trkpt lat="42.91944" lon="-1.22257">
        <ele>797.727776</ele>
        <time>2026-05-22T16:01:22.000Z</time>
      </trkpt>
      <trkpt lat="42.91941" lon="-1.22257">
        <ele>797.845165</ele>
        <time>2026-05-22T16:01:23.000Z</time>
      </trkpt>
      <trkpt lat="42.91939" lon="-1.22257">
        <ele>797.958088</ele>
        <time>2026-05-22T16:01:24.000Z</time>
      </trkpt>
      <trkpt lat="42.91938" lon="-1.22256">
        <ele>798.066185</ele>
        <time>2026-05-22T16:01:25.000Z</time>
      </trkpt>
      <trkpt lat="42.91935" lon="-1.22256">
        <ele>798.186948</ele>
        <time>2026-05-22T16:01:26.000Z</time>
      </trkpt>
      <trkpt lat="42.91933" lon="-1.22255">
        <ele>798.299871</ele>
        <time>2026-05-22T16:01:27.000Z</time>
      </trkpt>
      <trkpt lat="42.91931" lon="-1.22255">
        <ele>798.411901</ele>
        <time>2026-05-22T16:01:28.000Z</time>
      </trkpt>
      <trkpt lat="42.91929" lon="-1.22255">
        <ele>798.535889</ele>
        <time>2026-05-22T16:01:29.000Z</time>
      </trkpt>
      <trkpt lat="42.91927" lon="-1.22254">
        <ele>798.655747</ele>
        <time>2026-05-22T16:01:30.000Z</time>
      </trkpt>
      <trkpt lat="42.91925" lon="-1.22254">
        <ele>798.769335</ele>
        <time>2026-05-22T16:01:31.000Z</time>
      </trkpt>
      <trkpt lat="42.91923" lon="-1.22253">
        <ele>798.887788</ele>
        <time>2026-05-22T16:01:32.000Z</time>
      </trkpt>
      <trkpt lat="42.91921" lon="-1.22253">
        <ele>798.995886</ele>
        <time>2026-05-22T16:01:33.000Z</time>
      </trkpt>
      <trkpt lat="42.91919" lon="-1.22252">
        <ele>799.098503</ele>
        <time>2026-05-22T16:01:34.000Z</time>
      </trkpt>
      <trkpt lat="42.91918" lon="-1.22251">
        <ele>799.203059</ele>
        <time>2026-05-22T16:01:35.000Z</time>
      </trkpt>
      <trkpt lat="42.91916" lon="-1.22251">
        <ele>799.308809</ele>
        <time>2026-05-22T16:01:36.000Z</time>
      </trkpt>
      <trkpt lat="42.91914" lon="-1.2225">
        <ele>799.423205</ele>
        <time>2026-05-22T16:01:37.000Z</time>
      </trkpt>
      <trkpt lat="42.91912" lon="-1.2225">
        <ele>799.546381</ele>
        <time>2026-05-22T16:01:38.000Z</time>
      </trkpt>
      <trkpt lat="42.91909" lon="-1.2225">
        <ele>799.669557</ele>
        <time>2026-05-22T16:01:39.000Z</time>
      </trkpt>
      <trkpt lat="42.91907" lon="-1.22249">
        <ele>799.787514</ele>
        <time>2026-05-22T16:01:40.000Z</time>
      </trkpt>
      <trkpt lat="42.91905" lon="-1.22249">
        <ele>799.90191</ele>
        <time>2026-05-22T16:01:41.000Z</time>
      </trkpt>
      <trkpt lat="42.91903" lon="-1.22248">
        <ele>800.017252</ele>
        <time>2026-05-22T16:01:42.000Z</time>
      </trkpt>
      <trkpt lat="42.91901" lon="-1.22247">
        <ele>800.131648</ele>
        <time>2026-05-22T16:01:43.000Z</time>
      </trkpt>
      <trkpt lat="42.91899" lon="-1.22247">
        <ele>800.246043</ele>
        <time>2026-05-22T16:01:44.000Z</time>
      </trkpt>
      <trkpt lat="42.91897" lon="-1.22246">
        <ele>800.358393</ele>
        <time>2026-05-22T16:01:45.000Z</time>
      </trkpt>
      <trkpt lat="42.91895" lon="-1.22245">
        <ele>800.473735</ele>
        <time>2026-05-22T16:01:46.000Z</time>
      </trkpt>
      <trkpt lat="42.91893" lon="-1.22245">
        <ele>800.581833</ele>
        <time>2026-05-22T16:01:47.000Z</time>
      </trkpt>
      <trkpt lat="42.91891" lon="-1.22244">
        <ele>800.698258</ele>
        <time>2026-05-22T16:01:48.000Z</time>
      </trkpt>
      <trkpt lat="42.91889" lon="-1.22243">
        <ele>800.823911</ele>
        <time>2026-05-22T16:01:49.000Z</time>
      </trkpt>
      <trkpt lat="42.91887" lon="-1.22242">
        <ele>800.952212</ele>
        <time>2026-05-22T16:01:50.000Z</time>
      </trkpt>
      <trkpt lat="42.91885" lon="-1.22241">
        <ele>801.071197</ele>
        <time>2026-05-22T16:01:51.000Z</time>
      </trkpt>
      <trkpt lat="42.91883" lon="-1.2224">
        <ele>801.198373</ele>
        <time>2026-05-22T16:01:52.000Z</time>
      </trkpt>
      <trkpt lat="42.91881" lon="-1.22239">
        <ele>801.314798</ele>
        <time>2026-05-22T16:01:53.000Z</time>
      </trkpt>
      <trkpt lat="42.91879" lon="-1.22238">
        <ele>801.433784</ele>
        <time>2026-05-22T16:01:54.000Z</time>
      </trkpt>
      <trkpt lat="42.91877" lon="-1.22237">
        <ele>801.550732</ele>
        <time>2026-05-22T16:01:55.000Z</time>
      </trkpt>
      <trkpt lat="42.91875" lon="-1.22235">
        <ele>801.68313</ele>
        <time>2026-05-22T16:01:56.000Z</time>
      </trkpt>
      <trkpt lat="42.91873" lon="-1.22234">
        <ele>801.814739</ele>
        <time>2026-05-22T16:01:57.000Z</time>
      </trkpt>
      <trkpt lat="42.91871" lon="-1.22232">
        <ele>801.937346</ele>
        <time>2026-05-22T16:01:58.000Z</time>
      </trkpt>
      <trkpt lat="42.91869" lon="-1.22231">
        <ele>802.061089</ele>
        <time>2026-05-22T16:01:59.000Z</time>
      </trkpt>
      <trkpt lat="42.91867" lon="-1.22229">
        <ele>802.184833</ele>
        <time>2026-05-22T16:02:00.000Z</time>
      </trkpt>
      <trkpt lat="42.91865" lon="-1.22228">
        <ele>802.312008</ele>
        <time>2026-05-22T16:02:01.000Z</time>
      </trkpt>
      <trkpt lat="42.91863" lon="-1.22227">
        <ele>802.428956</ele>
        <time>2026-05-22T16:02:02.000Z</time>
      </trkpt>
      <trkpt lat="42.91861" lon="-1.22226">
        <ele>802.542712</ele>
        <time>2026-05-22T16:02:03.000Z</time>
      </trkpt>
      <trkpt lat="42.9186" lon="-1.22224">
        <ele>802.662889</ele>
        <time>2026-05-22T16:02:04.000Z</time>
      </trkpt>
      <trkpt lat="42.91858" lon="-1.22222">
        <ele>802.787528</ele>
        <time>2026-05-22T16:02:05.000Z</time>
      </trkpt>
      <trkpt lat="42.91856" lon="-1.22221">
        <ele>802.90814</ele>
        <time>2026-05-22T16:02:06.000Z</time>
      </trkpt>
      <trkpt lat="42.91854" lon="-1.22219">
        <ele>803.023952</ele>
        <time>2026-05-22T16:02:07.000Z</time>
      </trkpt>
      <trkpt lat="42.91853" lon="-1.22217">
        <ele>803.137025</ele>
        <time>2026-05-22T16:02:08.000Z</time>
      </trkpt>
      <trkpt lat="42.91851" lon="-1.22216">
        <ele>803.259292</ele>
        <time>2026-05-22T16:02:09.000Z</time>
      </trkpt>
      <trkpt lat="42.91849" lon="-1.22214">
        <ele>803.379468</ele>
        <time>2026-05-22T16:02:10.000Z</time>
      </trkpt>
      <trkpt lat="42.91847" lon="-1.22212">
        <ele>803.497183</ele>
        <time>2026-05-22T16:02:11.000Z</time>
      </trkpt>
      <trkpt lat="42.91846" lon="-1.22211">
        <ele>803.61979</ele>
        <time>2026-05-22T16:02:12.000Z</time>
      </trkpt>
      <trkpt lat="42.91844" lon="-1.22209">
        <ele>803.735516</ele>
        <time>2026-05-22T16:02:13.000Z</time>
      </trkpt>
      <trkpt lat="42.91842" lon="-1.22207">
        <ele>803.871626</ele>
        <time>2026-05-22T16:02:14.000Z</time>
      </trkpt>
      <trkpt lat="42.9184" lon="-1.22205">
        <ele>803.999454</ele>
        <time>2026-05-22T16:02:15.000Z</time>
      </trkpt>
      <trkpt lat="42.91838" lon="-1.22204">
        <ele>804.134129</ele>
        <time>2026-05-22T16:02:16.000Z</time>
      </trkpt>
      <trkpt lat="42.91836" lon="-1.22202">
        <ele>804.264131</ele>
        <time>2026-05-22T16:02:17.000Z</time>
      </trkpt>
      <trkpt lat="42.91834" lon="-1.222">
        <ele>804.394064</ele>
        <time>2026-05-22T16:02:18.000Z</time>
      </trkpt>
      <trkpt lat="42.91833" lon="-1.22198">
        <ele>804.519345</ele>
        <time>2026-05-22T16:02:19.000Z</time>
      </trkpt>
      <trkpt lat="42.91831" lon="-1.22197">
        <ele>804.652234</ele>
        <time>2026-05-22T16:02:20.000Z</time>
      </trkpt>
      <trkpt lat="42.91829" lon="-1.22196">
        <ele>804.765407</ele>
        <time>2026-05-22T16:02:21.000Z</time>
      </trkpt>
      <trkpt lat="42.91827" lon="-1.22195">
        <ele>804.889173</ele>
        <time>2026-05-22T16:02:22.000Z</time>
      </trkpt>
      <trkpt lat="42.91825" lon="-1.22193">
        <ele>805.011981</ele>
        <time>2026-05-22T16:02:23.000Z</time>
      </trkpt>
      <trkpt lat="42.91824" lon="-1.22192">
        <ele>805.127476</ele>
        <time>2026-05-22T16:02:24.000Z</time>
      </trkpt>
      <trkpt lat="42.91822" lon="-1.2219">
        <ele>805.242972</ele>
        <time>2026-05-22T16:02:25.000Z</time>
      </trkpt>
      <trkpt lat="42.9182" lon="-1.22188">
        <ele>805.365687</ele>
        <time>2026-05-22T16:02:26.000Z</time>
      </trkpt>
      <trkpt lat="42.91819" lon="-1.22186">
        <ele>805.490968</ele>
        <time>2026-05-22T16:02:27.000Z</time>
      </trkpt>
      <trkpt lat="42.91817" lon="-1.22185">
        <ele>805.623259</ele>
        <time>2026-05-22T16:02:28.000Z</time>
      </trkpt>
      <trkpt lat="42.91815" lon="-1.22183">
        <ele>805.748341</ele>
        <time>2026-05-22T16:02:29.000Z</time>
      </trkpt>
      <trkpt lat="42.91813" lon="-1.22182">
        <ele>805.866217</ele>
        <time>2026-05-22T16:02:30.000Z</time>
      </trkpt>
      <trkpt lat="42.91812" lon="-1.2218">
        <ele>805.984092</ele>
        <time>2026-05-22T16:02:31.000Z</time>
      </trkpt>
      <trkpt lat="42.9181" lon="-1.22179">
        <ele>806.099588</ele>
        <time>2026-05-22T16:02:32.000Z</time>
      </trkpt>
      <trkpt lat="42.91808" lon="-1.22177">
        <ele>806.217464</ele>
        <time>2026-05-22T16:02:33.000Z</time>
      </trkpt>
      <trkpt lat="42.91806" lon="-1.22176">
        <ele>806.338105</ele>
        <time>2026-05-22T16:02:34.000Z</time>
      </trkpt>
      <trkpt lat="42.91805" lon="-1.22174">
        <ele>806.458349</ele>
        <time>2026-05-22T16:02:35.000Z</time>
      </trkpt>
      <trkpt lat="42.91803" lon="-1.22172">
        <ele>806.581063</ele>
        <time>2026-05-22T16:02:36.000Z</time>
      </trkpt>
      <trkpt lat="42.91801" lon="-1.22171">
        <ele>806.703778</ele>
        <time>2026-05-22T16:02:37.000Z</time>
      </trkpt>
      <trkpt lat="42.918" lon="-1.22169">
        <ele>806.829059</ele>
        <time>2026-05-22T16:02:38.000Z</time>
      </trkpt>
      <trkpt lat="42.91798" lon="-1.22167">
        <ele>806.946935</ele>
        <time>2026-05-22T16:02:39.000Z</time>
      </trkpt>
      <trkpt lat="42.91796" lon="-1.22166">
        <ele>807.072018</ele>
        <time>2026-05-22T16:02:40.000Z</time>
      </trkpt>
      <trkpt lat="42.91794" lon="-1.22164">
        <ele>807.194826</ele>
        <time>2026-05-22T16:02:41.000Z</time>
      </trkpt>
      <trkpt lat="42.91793" lon="-1.22163">
        <ele>807.317633</ele>
        <time>2026-05-22T16:02:42.000Z</time>
      </trkpt>
      <trkpt lat="42.91791" lon="-1.22161">
        <ele>807.442716</ele>
        <time>2026-05-22T16:02:43.000Z</time>
      </trkpt>
      <trkpt lat="42.91789" lon="-1.2216">
        <ele>807.567799</ele>
        <time>2026-05-22T16:02:44.000Z</time>
      </trkpt>
      <trkpt lat="42.91787" lon="-1.22158">
        <ele>807.693534</ele>
        <time>2026-05-22T16:02:45.000Z</time>
      </trkpt>
      <trkpt lat="42.91785" lon="-1.22157">
        <ele>807.818616</ele>
        <time>2026-05-22T16:02:46.000Z</time>
      </trkpt>
      <trkpt lat="42.91783" lon="-1.22155">
        <ele>807.948549</ele>
        <time>2026-05-22T16:02:47.000Z</time>
      </trkpt>
      <trkpt lat="42.91782" lon="-1.22153">
        <ele>808.081047</ele>
        <time>2026-05-22T16:02:48.000Z</time>
      </trkpt>
      <trkpt lat="42.9178" lon="-1.22151">
        <ele>808.201291</ele>
        <time>2026-05-22T16:02:49.000Z</time>
      </trkpt>
      <trkpt lat="42.91778" lon="-1.22149">
        <ele>808.338442</ele>
        <time>2026-05-22T16:02:50.000Z</time>
      </trkpt>
      <trkpt lat="42.91776" lon="-1.22148">
        <ele>808.468376</ele>
        <time>2026-05-22T16:02:51.000Z</time>
      </trkpt>
      <trkpt lat="42.91774" lon="-1.22146">
        <ele>808.600873</ele>
        <time>2026-05-22T16:02:52.000Z</time>
      </trkpt>
      <trkpt lat="42.91773" lon="-1.22144">
        <ele>808.728813</ele>
        <time>2026-05-22T16:02:53.000Z</time>
      </trkpt>
      <trkpt lat="42.91771" lon="-1.22142">
        <ele>808.859496</ele>
        <time>2026-05-22T16:02:54.000Z</time>
      </trkpt>
      <trkpt lat="42.91769" lon="-1.2214">
        <ele>808.984778</ele>
        <time>2026-05-22T16:02:55.000Z</time>
      </trkpt>
      <trkpt lat="42.91767" lon="-1.22139">
        <ele>809.110512</ele>
        <time>2026-05-22T16:02:56.000Z</time>
      </trkpt>
      <trkpt lat="42.91766" lon="-1.22137">
        <ele>809.229101</ele>
        <time>2026-05-22T16:02:57.000Z</time>
      </trkpt>
      <trkpt lat="42.91764" lon="-1.22136">
        <ele>809.342129</ele>
        <time>2026-05-22T16:02:58.000Z</time>
      </trkpt>
      <trkpt lat="42.91762" lon="-1.22134">
        <ele>809.464937</ele>
        <time>2026-05-22T16:02:59.000Z</time>
      </trkpt>
      <trkpt lat="42.91761" lon="-1.22133">
        <ele>809.580434</ele>
        <time>2026-05-22T16:03:00.000Z</time>
      </trkpt>
      <trkpt lat="42.91759" lon="-1.22131">
        <ele>809.69396</ele>
        <time>2026-05-22T16:03:01.000Z</time>
      </trkpt>
      <trkpt lat="42.91758" lon="-1.2213">
        <ele>809.799774</ele>
        <time>2026-05-22T16:03:02.000Z</time>
      </trkpt>
      <trkpt lat="42.91756" lon="-1.22128">
        <ele>809.910625</ele>
        <time>2026-05-22T16:03:03.000Z</time>
      </trkpt>
      <trkpt lat="42.91755" lon="-1.22126">
        <ele>810.02978</ele>
        <time>2026-05-22T16:03:04.000Z</time>
      </trkpt>
      <trkpt lat="42.91753" lon="-1.22124">
        <ele>810.145276</ele>
        <time>2026-05-22T16:03:05.000Z</time>
      </trkpt>
      <trkpt lat="42.91752" lon="-1.22123">
        <ele>810.264431</ele>
        <time>2026-05-22T16:03:06.000Z</time>
      </trkpt>
      <trkpt lat="42.9175" lon="-1.2212">
        <ele>810.388736</ele>
        <time>2026-05-22T16:03:07.000Z</time>
      </trkpt>
      <trkpt lat="42.91749" lon="-1.22118">
        <ele>810.515064</ele>
        <time>2026-05-22T16:03:08.000Z</time>
      </trkpt>
      <trkpt lat="42.91747" lon="-1.22117">
        <ele>810.635796</ele>
        <time>2026-05-22T16:03:09.000Z</time>
      </trkpt>
      <trkpt lat="42.91746" lon="-1.22115">
        <ele>810.744905</ele>
        <time>2026-05-22T16:03:10.000Z</time>
      </trkpt>
      <trkpt lat="42.91744" lon="-1.22113">
        <ele>810.862904</ele>
        <time>2026-05-22T16:03:11.000Z</time>
      </trkpt>
      <trkpt lat="42.91743" lon="-1.22111">
        <ele>810.984999</ele>
        <time>2026-05-22T16:03:12.000Z</time>
      </trkpt>
      <trkpt lat="42.91741" lon="-1.22109">
        <ele>811.098526</ele>
        <time>2026-05-22T16:03:13.000Z</time>
      </trkpt>
      <trkpt lat="42.9174" lon="-1.22107">
        <ele>811.212052</ele>
        <time>2026-05-22T16:03:14.000Z</time>
      </trkpt>
      <trkpt lat="42.91738" lon="-1.22106">
        <ele>811.334767</ele>
        <time>2026-05-22T16:03:15.000Z</time>
      </trkpt>
      <trkpt lat="42.91736" lon="-1.22104">
        <ele>811.452834</ele>
        <time>2026-05-22T16:03:16.000Z</time>
      </trkpt>
      <trkpt lat="42.91735" lon="-1.22102">
        <ele>811.573078</ele>
        <time>2026-05-22T16:03:17.000Z</time>
      </trkpt>
      <trkpt lat="42.91733" lon="-1.22101">
        <ele>811.705576</ele>
        <time>2026-05-22T16:03:18.000Z</time>
      </trkpt>
      <trkpt lat="42.91731" lon="-1.22099">
        <ele>811.824731</ele>
        <time>2026-05-22T16:03:19.000Z</time>
      </trkpt>
      <trkpt lat="42.9173" lon="-1.22097">
        <ele>811.941028</ele>
        <time>2026-05-22T16:03:20.000Z</time>
      </trkpt>
      <trkpt lat="42.91728" lon="-1.22095">
        <ele>812.070274</ele>
        <time>2026-05-22T16:03:21.000Z</time>
      </trkpt>
      <trkpt lat="42.91727" lon="-1.22093">
        <ele>812.18727</ele>
        <time>2026-05-22T16:03:22.000Z</time>
      </trkpt>
      <trkpt lat="42.91726" lon="-1.22091">
        <ele>812.300797</ele>
        <time>2026-05-22T16:03:23.000Z</time>
      </trkpt>
      <trkpt lat="42.91724" lon="-1.22089">
        <ele>812.418864</ele>
        <time>2026-05-22T16:03:24.000Z</time>
      </trkpt>
      <trkpt lat="42.91722" lon="-1.22087">
        <ele>812.53239</ele>
        <time>2026-05-22T16:03:25.000Z</time>
      </trkpt>
      <trkpt lat="42.91721" lon="-1.22086">
        <ele>812.648687</ele>
        <time>2026-05-22T16:03:26.000Z</time>
      </trkpt>
      <trkpt lat="42.91719" lon="-1.22084">
        <ele>812.766754</ele>
        <time>2026-05-22T16:03:27.000Z</time>
      </trkpt>
      <trkpt lat="42.91717" lon="-1.22083">
        <ele>812.892489</ele>
        <time>2026-05-22T16:03:28.000Z</time>
      </trkpt>
      <trkpt lat="42.91716" lon="-1.22081">
        <ele>813.018224</ele>
        <time>2026-05-22T16:03:29.000Z</time>
      </trkpt>
      <trkpt lat="42.91714" lon="-1.2208">
        <ele>813.14199</ele>
        <time>2026-05-22T16:03:30.000Z</time>
      </trkpt>
      <trkpt lat="42.91712" lon="-1.22079">
        <ele>813.260579</ele>
        <time>2026-05-22T16:03:31.000Z</time>
      </trkpt>
      <trkpt lat="42.9171" lon="-1.22077">
        <ele>813.379167</ele>
        <time>2026-05-22T16:03:32.000Z</time>
      </trkpt>
      <trkpt lat="42.91708" lon="-1.22076">
        <ele>813.485479</ele>
        <time>2026-05-22T16:03:33.000Z</time>
      </trkpt>
      <trkpt lat="42.91707" lon="-1.22075">
        <ele>813.579546</ele>
        <time>2026-05-22T16:03:34.000Z</time>
      </trkpt>
      <trkpt lat="42.91706" lon="-1.22073">
        <ele>813.670082</ele>
        <time>2026-05-22T16:03:35.000Z</time>
      </trkpt>
      <trkpt lat="42.91705" lon="-1.22072">
        <ele>813.766505</ele>
        <time>2026-05-22T16:03:36.000Z</time>
      </trkpt>
      <trkpt lat="42.91703" lon="-1.22071">
        <ele>813.862927</ele>
        <time>2026-05-22T16:03:37.000Z</time>
      </trkpt>
      <trkpt lat="42.91702" lon="-1.22069">
        <ele>813.964173</ele>
        <time>2026-05-22T16:03:38.000Z</time>
      </trkpt>
      <trkpt lat="42.917" lon="-1.22069">
        <ele>814.064951</ele>
        <time>2026-05-22T16:03:39.000Z</time>
      </trkpt>
      <trkpt lat="42.91699" lon="-1.22068">
        <ele>814.167429</ele>
        <time>2026-05-22T16:03:40.000Z</time>
      </trkpt>
      <trkpt lat="42.91697" lon="-1.22067">
        <ele>814.276426</ele>
        <time>2026-05-22T16:03:41.000Z</time>
      </trkpt>
      <trkpt lat="42.91695" lon="-1.22066">
        <ele>814.388061</ele>
        <time>2026-05-22T16:03:42.000Z</time>
      </trkpt>
      <trkpt lat="42.91694" lon="-1.22065">
        <ele>814.496744</ele>
        <time>2026-05-22T16:03:43.000Z</time>
      </trkpt>
      <trkpt lat="42.91692" lon="-1.22064">
        <ele>814.601157</ele>
        <time>2026-05-22T16:03:44.000Z</time>
      </trkpt>
      <trkpt lat="42.9169" lon="-1.22064">
        <ele>814.713851</ele>
        <time>2026-05-22T16:03:45.000Z</time>
      </trkpt>
      <trkpt lat="42.91689" lon="-1.22063">
        <ele>814.818264</ele>
        <time>2026-05-22T16:03:46.000Z</time>
      </trkpt>
      <trkpt lat="42.91687" lon="-1.22062">
        <ele>814.92348</ele>
        <time>2026-05-22T16:03:47.000Z</time>
      </trkpt>
      <trkpt lat="42.91685" lon="-1.22061">
        <ele>815.038515</ele>
        <time>2026-05-22T16:03:48.000Z</time>
      </trkpt>
      <trkpt lat="42.91684" lon="-1.2206">
        <ele>815.135651</ele>
        <time>2026-05-22T16:03:49.000Z</time>
      </trkpt>
      <trkpt lat="42.91682" lon="-1.22059">
        <ele>815.238767</ele>
        <time>2026-05-22T16:03:50.000Z</time>
      </trkpt>
      <trkpt lat="42.91681" lon="-1.22059">
        <ele>815.344657</ele>
        <time>2026-05-22T16:03:51.000Z</time>
      </trkpt>
      <trkpt lat="42.91679" lon="-1.22058">
        <ele>815.459692</ele>
        <time>2026-05-22T16:03:52.000Z</time>
      </trkpt>
      <trkpt lat="42.91677" lon="-1.22057">
        <ele>815.571018</ele>
        <time>2026-05-22T16:03:53.000Z</time>
      </trkpt>
      <trkpt lat="42.91676" lon="-1.22055">
        <ele>815.699271</ele>
        <time>2026-05-22T16:03:54.000Z</time>
      </trkpt>
      <trkpt lat="42.91674" lon="-1.22054">
        <ele>815.814305</ele>
        <time>2026-05-22T16:03:55.000Z</time>
      </trkpt>
      <trkpt lat="42.91672" lon="-1.22054">
        <ele>815.920196</ele>
        <time>2026-05-22T16:03:56.000Z</time>
      </trkpt>
      <trkpt lat="42.91671" lon="-1.22053">
        <ele>816.031942</ele>
        <time>2026-05-22T16:03:57.000Z</time>
      </trkpt>
      <trkpt lat="42.91669" lon="-1.22052">
        <ele>816.135058</ele>
        <time>2026-05-22T16:03:58.000Z</time>
      </trkpt>
      <trkpt lat="42.91667" lon="-1.22052">
        <ele>816.239471</ele>
        <time>2026-05-22T16:03:59.000Z</time>
      </trkpt>
      <trkpt lat="42.91666" lon="-1.22051">
        <ele>816.334451</ele>
        <time>2026-05-22T16:04:00.000Z</time>
      </trkpt>
      <trkpt lat="42.91664" lon="-1.22051">
        <ele>816.427782</ele>
        <time>2026-05-22T16:04:01.000Z</time>
      </trkpt>
      <trkpt lat="42.91663" lon="-1.22051">
        <ele>816.529786</ele>
        <time>2026-05-22T16:04:02.000Z</time>
      </trkpt>
      <trkpt lat="42.91661" lon="-1.2205">
        <ele>816.650037</ele>
        <time>2026-05-22T16:04:03.000Z</time>
      </trkpt>
      <trkpt lat="42.91659" lon="-1.2205">
        <ele>816.76227</ele>
        <time>2026-05-22T16:04:04.000Z</time>
      </trkpt>
      <trkpt lat="42.91657" lon="-1.2205">
        <ele>816.86831</ele>
        <time>2026-05-22T16:04:05.000Z</time>
      </trkpt>
      <trkpt lat="42.91656" lon="-1.22049">
        <ele>816.96816</ele>
        <time>2026-05-22T16:04:06.000Z</time>
      </trkpt>
      <trkpt lat="42.91654" lon="-1.22049">
        <ele>817.069246</ele>
        <time>2026-05-22T16:04:07.000Z</time>
      </trkpt>
      <trkpt lat="42.91652" lon="-1.22049">
        <ele>817.18194</ele>
        <time>2026-05-22T16:04:08.000Z</time>
      </trkpt>
      <trkpt lat="42.91651" lon="-1.22049">
        <ele>817.281789</ele>
        <time>2026-05-22T16:04:09.000Z</time>
      </trkpt>
      <trkpt lat="42.91649" lon="-1.22048">
        <ele>817.381639</ele>
        <time>2026-05-22T16:04:10.000Z</time>
      </trkpt>
      <trkpt lat="42.91647" lon="-1.22048">
        <ele>817.497951</ele>
        <time>2026-05-22T16:04:11.000Z</time>
      </trkpt>
      <trkpt lat="42.91646" lon="-1.22047">
        <ele>817.609697</ele>
        <time>2026-05-22T16:04:12.000Z</time>
      </trkpt>
      <trkpt lat="42.91644" lon="-1.22046">
        <ele>817.716903</ele>
        <time>2026-05-22T16:04:13.000Z</time>
      </trkpt>
      <trkpt lat="42.91642" lon="-1.22046">
        <ele>817.822649</ele>
        <time>2026-05-22T16:04:14.000Z</time>
      </trkpt>
      <trkpt lat="42.91641" lon="-1.22046">
        <ele>817.922499</ele>
        <time>2026-05-22T16:04:15.000Z</time>
      </trkpt>
      <trkpt lat="42.91639" lon="-1.22046">
        <ele>818.028539</ele>
        <time>2026-05-22T16:04:16.000Z</time>
      </trkpt>
      <trkpt lat="42.91637" lon="-1.22046">
        <ele>818.128077</ele>
        <time>2026-05-22T16:04:17.000Z</time>
      </trkpt>
      <trkpt lat="42.91636" lon="-1.22046">
        <ele>818.234604</ele>
        <time>2026-05-22T16:04:18.000Z</time>
      </trkpt>
      <trkpt lat="42.91634" lon="-1.22045">
        <ele>818.348759</ele>
        <time>2026-05-22T16:04:19.000Z</time>
      </trkpt>
      <trkpt lat="42.91632" lon="-1.22045">
        <ele>818.461452</ele>
        <time>2026-05-22T16:04:20.000Z</time>
      </trkpt>
      <trkpt lat="42.9163" lon="-1.22045">
        <ele>818.561302</ele>
        <time>2026-05-22T16:04:21.000Z</time>
      </trkpt>
      <trkpt lat="42.91629" lon="-1.22044">
        <ele>818.673535</ele>
        <time>2026-05-22T16:04:22.000Z</time>
      </trkpt>
      <trkpt lat="42.91627" lon="-1.22044">
        <ele>818.793008</ele>
        <time>2026-05-22T16:04:23.000Z</time>
      </trkpt>
      <trkpt lat="42.91625" lon="-1.22044">
        <ele>818.893375</ele>
        <time>2026-05-22T16:04:24.000Z</time>
      </trkpt>
      <trkpt lat="42.91624" lon="-1.22043">
        <ele>818.991888</ele>
        <time>2026-05-22T16:04:25.000Z</time>
      </trkpt>
      <trkpt lat="42.91622" lon="-1.22043">
        <ele>819.097928</ele>
        <time>2026-05-22T16:04:26.000Z</time>
      </trkpt>
      <trkpt lat="42.9162" lon="-1.22042">
        <ele>819.199933</ele>
        <time>2026-05-22T16:04:27.000Z</time>
      </trkpt>
      <trkpt lat="42.91618" lon="-1.22041">
        <ele>819.323497</ele>
        <time>2026-05-22T16:04:28.000Z</time>
      </trkpt>
      <trkpt lat="42.91617" lon="-1.22041">
        <ele>819.425501</ele>
        <time>2026-05-22T16:04:29.000Z</time>
      </trkpt>
      <trkpt lat="42.91615" lon="-1.2204">
        <ele>819.529915</ele>
        <time>2026-05-22T16:04:30.000Z</time>
      </trkpt>
      <trkpt lat="42.91613" lon="-1.22039">
        <ele>819.647554</ele>
        <time>2026-05-22T16:04:31.000Z</time>
      </trkpt>
      <trkpt lat="42.91611" lon="-1.22039">
        <ele>819.778422</ele>
        <time>2026-05-22T16:04:32.000Z</time>
      </trkpt>
      <trkpt lat="42.9161" lon="-1.22038">
        <ele>819.89357</ele>
        <time>2026-05-22T16:04:33.000Z</time>
      </trkpt>
      <trkpt lat="42.91608" lon="-1.22037">
        <ele>820.005317</ele>
        <time>2026-05-22T16:04:34.000Z</time>
      </trkpt>
      <trkpt lat="42.91606" lon="-1.22036">
        <ele>820.118628</ele>
        <time>2026-05-22T16:04:35.000Z</time>
      </trkpt>
      <trkpt lat="42.91605" lon="-1.22036">
        <ele>820.223042</ele>
        <time>2026-05-22T16:04:36.000Z</time>
      </trkpt>
      <trkpt lat="42.91603" lon="-1.22035">
        <ele>820.326157</ele>
        <time>2026-05-22T16:04:37.000Z</time>
      </trkpt>
      <trkpt lat="42.91601" lon="-1.22034">
        <ele>820.434229</ele>
        <time>2026-05-22T16:04:38.000Z</time>
      </trkpt>
      <trkpt lat="42.916" lon="-1.22034">
        <ele>820.528545</ele>
        <time>2026-05-22T16:04:39.000Z</time>
      </trkpt>
      <trkpt lat="42.91598" lon="-1.22033">
        <ele>820.631661</ele>
        <time>2026-05-22T16:04:40.000Z</time>
      </trkpt>
      <trkpt lat="42.91597" lon="-1.22032">
        <ele>820.731738</ele>
        <time>2026-05-22T16:04:41.000Z</time>
      </trkpt>
      <trkpt lat="42.91595" lon="-1.22032">
        <ele>820.84805</ele>
        <time>2026-05-22T16:04:42.000Z</time>
      </trkpt>
      <trkpt lat="42.91594" lon="-1.22031">
        <ele>820.942366</ele>
        <time>2026-05-22T16:04:43.000Z</time>
      </trkpt>
      <trkpt lat="42.91592" lon="-1.2203">
        <ele>821.036682</ele>
        <time>2026-05-22T16:04:44.000Z</time>
      </trkpt>
      <trkpt lat="42.91591" lon="-1.22029">
        <ele>821.13676</ele>
        <time>2026-05-22T16:04:45.000Z</time>
      </trkpt>
      <trkpt lat="42.91589" lon="-1.22028">
        <ele>821.240496</ele>
        <time>2026-05-22T16:04:46.000Z</time>
      </trkpt>
      <trkpt lat="42.91588" lon="-1.22027">
        <ele>821.348037</ele>
        <time>2026-05-22T16:04:47.000Z</time>
      </trkpt>
      <trkpt lat="42.91586" lon="-1.22026">
        <ele>821.465677</ele>
        <time>2026-05-22T16:04:48.000Z</time>
      </trkpt>
      <trkpt lat="42.91584" lon="-1.22026">
        <ele>821.565754</ele>
        <time>2026-05-22T16:04:49.000Z</time>
      </trkpt>
      <trkpt lat="42.91583" lon="-1.22025">
        <ele>821.658409</ele>
        <time>2026-05-22T16:04:50.000Z</time>
      </trkpt>
      <trkpt lat="42.91581" lon="-1.22024">
        <ele>821.758487</ele>
        <time>2026-05-22T16:04:51.000Z</time>
      </trkpt>
      <trkpt lat="42.9158" lon="-1.22024">
        <ele>821.855623</ele>
        <time>2026-05-22T16:04:52.000Z</time>
      </trkpt>
      <trkpt lat="42.91578" lon="-1.22023">
        <ele>821.963695</ele>
        <time>2026-05-22T16:04:53.000Z</time>
      </trkpt>
      <trkpt lat="42.91577" lon="-1.22022">
        <ele>822.07873</ele>
        <time>2026-05-22T16:04:54.000Z</time>
      </trkpt>
      <trkpt lat="42.91575" lon="-1.2202">
        <ele>822.207044</ele>
        <time>2026-05-22T16:04:55.000Z</time>
      </trkpt>
      <trkpt lat="42.91573" lon="-1.22019">
        <ele>822.328132</ele>
        <time>2026-05-22T16:04:56.000Z</time>
      </trkpt>
      <trkpt lat="42.91571" lon="-1.22018">
        <ele>822.447063</ele>
        <time>2026-05-22T16:04:57.000Z</time>
      </trkpt>
      <trkpt lat="42.9157" lon="-1.22017">
        <ele>822.571547</ele>
        <time>2026-05-22T16:04:58.000Z</time>
      </trkpt>
      <trkpt lat="42.91568" lon="-1.22016">
        <ele>822.696031</ele>
        <time>2026-05-22T16:04:59.000Z</time>
      </trkpt>
      <trkpt lat="42.91566" lon="-1.22014">
        <ele>822.814962</ele>
        <time>2026-05-22T16:05:00.000Z</time>
      </trkpt>
      <trkpt lat="42.91565" lon="-1.22013">
        <ele>822.930668</ele>
        <time>2026-05-22T16:05:01.000Z</time>
      </trkpt>
      <trkpt lat="42.91563" lon="-1.22012">
        <ele>823.041994</ele>
        <time>2026-05-22T16:05:02.000Z</time>
      </trkpt>
      <trkpt lat="42.91561" lon="-1.22011">
        <ele>823.163082</ele>
        <time>2026-05-22T16:05:03.000Z</time>
      </trkpt>
      <trkpt lat="42.9156" lon="-1.2201">
        <ele>823.272438</ele>
        <time>2026-05-22T16:05:04.000Z</time>
      </trkpt>
      <trkpt lat="42.91558" lon="-1.22009">
        <ele>823.394993</ele>
        <time>2026-05-22T16:05:05.000Z</time>
      </trkpt>
      <trkpt lat="42.91556" lon="-1.22007">
        <ele>823.508439</ele>
        <time>2026-05-22T16:05:06.000Z</time>
      </trkpt>
      <trkpt lat="42.91555" lon="-1.22006">
        <ele>823.616281</ele>
        <time>2026-05-22T16:05:07.000Z</time>
      </trkpt>
      <trkpt lat="42.91553" lon="-1.22004">
        <ele>823.731826</ele>
        <time>2026-05-22T16:05:08.000Z</time>
      </trkpt>
      <trkpt lat="42.91552" lon="-1.22003">
        <ele>823.851331</ele>
        <time>2026-05-22T16:05:09.000Z</time>
      </trkpt>
      <trkpt lat="42.91551" lon="-1.22001">
        <ele>823.961923</ele>
        <time>2026-05-22T16:05:10.000Z</time>
      </trkpt>
      <trkpt lat="42.91549" lon="-1.22">
        <ele>824.069963</ele>
        <time>2026-05-22T16:05:11.000Z</time>
      </trkpt>
      <trkpt lat="42.91547" lon="-1.21999">
        <ele>824.183409</ele>
        <time>2026-05-22T16:05:12.000Z</time>
      </trkpt>
      <trkpt lat="42.91546" lon="-1.21997">
        <ele>824.299115</ele>
        <time>2026-05-22T16:05:13.000Z</time>
      </trkpt>
      <trkpt lat="42.91545" lon="-1.21996">
        <ele>824.403348</ele>
        <time>2026-05-22T16:05:14.000Z</time>
      </trkpt>
      <trkpt lat="42.91543" lon="-1.21994">
        <ele>824.509121</ele>
        <time>2026-05-22T16:05:15.000Z</time>
      </trkpt>
      <trkpt lat="42.91542" lon="-1.21993">
        <ele>824.604165</ele>
        <time>2026-05-22T16:05:16.000Z</time>
      </trkpt>
      <trkpt lat="42.91541" lon="-1.21992">
        <ele>824.697617</ele>
        <time>2026-05-22T16:05:17.000Z</time>
      </trkpt>
      <trkpt lat="42.9154" lon="-1.2199">
        <ele>824.800863</ele>
        <time>2026-05-22T16:05:18.000Z</time>
      </trkpt>
      <trkpt lat="42.91539" lon="-1.21989">
        <ele>824.909629</ele>
        <time>2026-05-22T16:05:19.000Z</time>
      </trkpt>
      <trkpt lat="42.91537" lon="-1.21987">
        <ele>825.025335</ele>
        <time>2026-05-22T16:05:20.000Z</time>
      </trkpt>
      <trkpt lat="42.91536" lon="-1.21986">
        <ele>825.135927</ele>
        <time>2026-05-22T16:05:21.000Z</time>
      </trkpt>
      <trkpt lat="42.91534" lon="-1.21984">
        <ele>825.244693</ele>
        <time>2026-05-22T16:05:22.000Z</time>
      </trkpt>
      <trkpt lat="42.91533" lon="-1.21983">
        <ele>825.358152</ele>
        <time>2026-05-22T16:05:23.000Z</time>
      </trkpt>
      <trkpt lat="42.91532" lon="-1.21981">
        <ele>825.461045</ele>
        <time>2026-05-22T16:05:24.000Z</time>
      </trkpt>
      <trkpt lat="42.9153" lon="-1.2198">
        <ele>825.574504</ele>
        <time>2026-05-22T16:05:25.000Z</time>
      </trkpt>
      <trkpt lat="42.91529" lon="-1.21978">
        <ele>825.680826</ele>
        <time>2026-05-22T16:05:26.000Z</time>
      </trkpt>
      <trkpt lat="42.91527" lon="-1.21976">
        <ele>825.784601</ele>
        <time>2026-05-22T16:05:27.000Z</time>
      </trkpt>
      <trkpt lat="42.91526" lon="-1.21975">
        <ele>825.8796</ele>
        <time>2026-05-22T16:05:28.000Z</time>
      </trkpt>
      <trkpt lat="42.91525" lon="-1.21973">
        <ele>825.972329</ele>
        <time>2026-05-22T16:05:29.000Z</time>
      </trkpt>
      <trkpt lat="42.91524" lon="-1.21971">
        <ele>826.08164</ele>
        <time>2026-05-22T16:05:30.000Z</time>
      </trkpt>
      <trkpt lat="42.91522" lon="-1.2197">
        <ele>826.185415</ele>
        <time>2026-05-22T16:05:31.000Z</time>
      </trkpt>
      <trkpt lat="42.91521" lon="-1.21968">
        <ele>826.287316</ele>
        <time>2026-05-22T16:05:32.000Z</time>
      </trkpt>
      <trkpt lat="42.91519" lon="-1.21966">
        <ele>826.386815</ele>
        <time>2026-05-22T16:05:33.000Z</time>
      </trkpt>
      <trkpt lat="42.91518" lon="-1.21965">
        <ele>826.491387</ele>
        <time>2026-05-22T16:05:34.000Z</time>
      </trkpt>
      <trkpt lat="42.91517" lon="-1.21963">
        <ele>826.590714</ele>
        <time>2026-05-22T16:05:35.000Z</time>
      </trkpt>
      <trkpt lat="42.91515" lon="-1.21962">
        <ele>826.680652</ele>
        <time>2026-05-22T16:05:36.000Z</time>
      </trkpt>
      <trkpt lat="42.91514" lon="-1.2196">
        <ele>826.782553</ele>
        <time>2026-05-22T16:05:37.000Z</time>
      </trkpt>
      <trkpt lat="42.91513" lon="-1.21958">
        <ele>826.888842</ele>
        <time>2026-05-22T16:05:38.000Z</time>
      </trkpt>
      <trkpt lat="42.91511" lon="-1.21957">
        <ele>826.989311</ele>
        <time>2026-05-22T16:05:39.000Z</time>
      </trkpt>
      <trkpt lat="42.9151" lon="-1.21955">
        <ele>827.079018</ele>
        <time>2026-05-22T16:05:40.000Z</time>
      </trkpt>
      <trkpt lat="42.91509" lon="-1.21953">
        <ele>827.174661</ele>
        <time>2026-05-22T16:05:41.000Z</time>
      </trkpt>
      <trkpt lat="42.91508" lon="-1.21951">
        <ele>827.273652</ele>
        <time>2026-05-22T16:05:42.000Z</time>
      </trkpt>
      <trkpt lat="42.91507" lon="-1.21949">
        <ele>827.376211</ele>
        <time>2026-05-22T16:05:43.000Z</time>
      </trkpt>
      <trkpt lat="42.91506" lon="-1.21948">
        <ele>827.473898</ele>
        <time>2026-05-22T16:05:44.000Z</time>
      </trkpt>
      <trkpt lat="42.91505" lon="-1.21946">
        <ele>827.564704</ele>
        <time>2026-05-22T16:05:45.000Z</time>
      </trkpt>
      <trkpt lat="42.91503" lon="-1.21944">
        <ele>827.65832</ele>
        <time>2026-05-22T16:05:46.000Z</time>
      </trkpt>
      <trkpt lat="42.91502" lon="-1.21943">
        <ele>827.761659</ele>
        <time>2026-05-22T16:05:47.000Z</time>
      </trkpt>
      <trkpt lat="42.91501" lon="-1.21941">
        <ele>827.858174</ele>
        <time>2026-05-22T16:05:48.000Z</time>
      </trkpt>
      <trkpt lat="42.915" lon="-1.21939">
        <ele>827.95469</ele>
        <time>2026-05-22T16:05:49.000Z</time>
      </trkpt>
      <trkpt lat="42.91499" lon="-1.21937">
        <ele>828.053694</ele>
        <time>2026-05-22T16:05:50.000Z</time>
      </trkpt>
      <trkpt lat="42.91498" lon="-1.21935">
        <ele>828.156088</ele>
        <time>2026-05-22T16:05:51.000Z</time>
      </trkpt>
      <trkpt lat="42.91496" lon="-1.21933">
        <ele>828.261627</ele>
        <time>2026-05-22T16:05:52.000Z</time>
      </trkpt>
      <trkpt lat="42.91495" lon="-1.21931">
        <ele>828.36387</ele>
        <time>2026-05-22T16:05:53.000Z</time>
      </trkpt>
      <trkpt lat="42.91494" lon="-1.21929">
        <ele>828.466429</ele>
        <time>2026-05-22T16:05:54.000Z</time>
      </trkpt>
      <trkpt lat="42.91493" lon="-1.21927">
        <ele>828.572717</ele>
        <time>2026-05-22T16:05:55.000Z</time>
      </trkpt>
      <trkpt lat="42.91492" lon="-1.21925">
        <ele>828.671709</ele>
        <time>2026-05-22T16:05:56.000Z</time>
      </trkpt>
      <trkpt lat="42.91491" lon="-1.21923">
        <ele>828.767664</ele>
        <time>2026-05-22T16:05:57.000Z</time>
      </trkpt>
      <trkpt lat="42.9149" lon="-1.21921">
        <ele>828.866655</ele>
        <time>2026-05-22T16:05:58.000Z</time>
      </trkpt>
      <trkpt lat="42.91489" lon="-1.21919">
        <ele>828.965646</ele>
        <time>2026-05-22T16:05:59.000Z</time>
      </trkpt>
      <trkpt lat="42.91488" lon="-1.21917">
        <ele>829.058801</ele>
        <time>2026-05-22T16:06:00.000Z</time>
      </trkpt>
      <trkpt lat="42.91487" lon="-1.21915">
        <ele>829.158262</ele>
        <time>2026-05-22T16:06:01.000Z</time>
      </trkpt>
      <trkpt lat="42.91487" lon="-1.21913">
        <ele>829.252578</ele>
        <time>2026-05-22T16:06:02.000Z</time>
      </trkpt>
      <trkpt lat="42.91486" lon="-1.21911">
        <ele>829.352984</ele>
        <time>2026-05-22T16:06:03.000Z</time>
      </trkpt>
      <trkpt lat="42.91485" lon="-1.21909">
        <ele>829.448939</ele>
        <time>2026-05-22T16:06:04.000Z</time>
      </trkpt>
      <trkpt lat="42.91484" lon="-1.21907">
        <ele>829.542094</ele>
        <time>2026-05-22T16:06:05.000Z</time>
      </trkpt>
      <trkpt lat="42.91483" lon="-1.21905">
        <ele>829.635248</ele>
        <time>2026-05-22T16:06:06.000Z</time>
      </trkpt>
      <trkpt lat="42.91482" lon="-1.21903">
        <ele>829.727745</ele>
        <time>2026-05-22T16:06:07.000Z</time>
      </trkpt>
      <trkpt lat="42.91481" lon="-1.21901">
        <ele>829.829988</ele>
        <time>2026-05-22T16:06:08.000Z</time>
      </trkpt>
      <trkpt lat="42.9148" lon="-1.21899">
        <ele>829.939299</ele>
        <time>2026-05-22T16:06:09.000Z</time>
      </trkpt>
      <trkpt lat="42.91479" lon="-1.21897">
        <ele>830.041542</ele>
        <time>2026-05-22T16:06:10.000Z</time>
      </trkpt>
      <trkpt lat="42.91478" lon="-1.21895">
        <ele>830.137497</ele>
        <time>2026-05-22T16:06:11.000Z</time>
      </trkpt>
      <trkpt lat="42.91477" lon="-1.21893">
        <ele>830.230651</ele>
        <time>2026-05-22T16:06:12.000Z</time>
      </trkpt>
      <trkpt lat="42.91476" lon="-1.21891">
        <ele>830.321263</ele>
        <time>2026-05-22T16:06:13.000Z</time>
      </trkpt>
      <trkpt lat="42.91476" lon="-1.21889">
        <ele>830.418025</ele>
        <time>2026-05-22T16:06:14.000Z</time>
      </trkpt>
      <trkpt lat="42.91475" lon="-1.21887">
        <ele>830.517486</ele>
        <time>2026-05-22T16:06:15.000Z</time>
      </trkpt>
      <trkpt lat="42.91474" lon="-1.21885">
        <ele>830.61345</ele>
        <time>2026-05-22T16:06:16.000Z</time>
      </trkpt>
      <trkpt lat="42.91474" lon="-1.21882">
        <ele>830.708129</ele>
        <time>2026-05-22T16:06:17.000Z</time>
      </trkpt>
      <trkpt lat="42.91473" lon="-1.2188">
        <ele>830.804093</ele>
        <time>2026-05-22T16:06:18.000Z</time>
      </trkpt>
      <trkpt lat="42.91473" lon="-1.21878">
        <ele>830.900855</ele>
        <time>2026-05-22T16:06:19.000Z</time>
      </trkpt>
      <trkpt lat="42.91472" lon="-1.21876">
        <ele>831.001261</ele>
        <time>2026-05-22T16:06:20.000Z</time>
      </trkpt>
      <trkpt lat="42.91471" lon="-1.21874">
        <ele>831.099313</ele>
        <time>2026-05-22T16:06:21.000Z</time>
      </trkpt>
      <trkpt lat="42.91471" lon="-1.21871">
        <ele>831.197386</ele>
        <time>2026-05-22T16:06:22.000Z</time>
      </trkpt>
      <trkpt lat="42.9147" lon="-1.21869">
        <ele>831.291548</ele>
        <time>2026-05-22T16:06:23.000Z</time>
      </trkpt>
      <trkpt lat="42.9147" lon="-1.21867">
        <ele>831.385709</ele>
        <time>2026-05-22T16:06:24.000Z</time>
      </trkpt>
      <trkpt lat="42.91469" lon="-1.21865">
        <ele>831.481208</ele>
        <time>2026-05-22T16:06:25.000Z</time>
      </trkpt>
      <trkpt lat="42.91469" lon="-1.21862">
        <ele>831.579281</ele>
        <time>2026-05-22T16:06:26.000Z</time>
      </trkpt>
      <trkpt lat="42.91468" lon="-1.2186">
        <ele>831.681674</ele>
        <time>2026-05-22T16:06:27.000Z</time>
      </trkpt>
      <trkpt lat="42.91467" lon="-1.21858">
        <ele>831.781136</ele>
        <time>2026-05-22T16:06:28.000Z</time>
      </trkpt>
      <trkpt lat="42.91466" lon="-1.21856">
        <ele>831.890474</ele>
        <time>2026-05-22T16:06:29.000Z</time>
      </trkpt>
      <trkpt lat="42.91465" lon="-1.21853">
        <ele>832.000694</ele>
        <time>2026-05-22T16:06:30.000Z</time>
      </trkpt>
      <trkpt lat="42.91464" lon="-1.21851">
        <ele>832.107291</ele>
        <time>2026-05-22T16:06:31.000Z</time>
      </trkpt>
      <trkpt lat="42.91463" lon="-1.21849">
        <ele>832.204053</ele>
        <time>2026-05-22T16:06:32.000Z</time>
      </trkpt>
      <trkpt lat="42.91462" lon="-1.21847">
        <ele>832.300009</ele>
        <time>2026-05-22T16:06:33.000Z</time>
      </trkpt>
      <trkpt lat="42.91461" lon="-1.21845">
        <ele>832.392363</ele>
        <time>2026-05-22T16:06:34.000Z</time>
      </trkpt>
      <trkpt lat="42.91461" lon="-1.21844">
        <ele>832.451758</ele>
        <time>2026-05-22T16:06:35.000Z</time>
      </trkpt>
      <trkpt lat="42.9146" lon="-1.21844">
        <ele>832.470392</ele>
        <time>2026-05-22T16:06:36.000Z</time>
      </trkpt>
      <trkpt lat="42.9146" lon="-1.21838">
        <ele>832.70912</ele>
        <time>2026-05-22T16:08:59.000Z</time>
      </trkpt>
      <trkpt lat="42.9146" lon="-1.21836">
        <ele>832.782912</ele>
        <time>2026-05-22T16:09:00.000Z</time>
      </trkpt>
      <trkpt lat="42.9146" lon="-1.21834">
        <ele>832.873533</ele>
        <time>2026-05-22T16:09:01.000Z</time>
      </trkpt>
      <trkpt lat="42.91461" lon="-1.21832">
        <ele>832.960474</ele>
        <time>2026-05-22T16:09:02.000Z</time>
      </trkpt>
      <trkpt lat="42.91461" lon="-1.2183">
        <ele>833.049173</ele>
        <time>2026-05-22T16:09:03.000Z</time>
      </trkpt>
      <trkpt lat="42.91462" lon="-1.21828">
        <ele>833.138266</ele>
        <time>2026-05-22T16:09:04.000Z</time>
      </trkpt>
      <trkpt lat="42.91463" lon="-1.21826">
        <ele>833.224653</ele>
        <time>2026-05-22T16:09:05.000Z</time>
      </trkpt>
      <trkpt lat="42.91463" lon="-1.21824">
        <ele>833.322919</ele>
        <time>2026-05-22T16:09:06.000Z</time>
      </trkpt>
      <trkpt lat="42.91463" lon="-1.21821">
        <ele>833.426476</ele>
        <time>2026-05-22T16:09:07.000Z</time>
      </trkpt>
      <trkpt lat="42.91463" lon="-1.21819">
        <ele>833.529278</ele>
        <time>2026-05-22T16:09:08.000Z</time>
      </trkpt>
      <trkpt lat="42.91462" lon="-1.21816">
        <ele>833.641883</ele>
        <time>2026-05-22T16:09:09.000Z</time>
      </trkpt>
      <trkpt lat="42.91462" lon="-1.21814">
        <ele>833.749476</ele>
        <time>2026-05-22T16:09:10.000Z</time>
      </trkpt>
      <trkpt lat="42.91462" lon="-1.21811">
        <ele>833.862082</ele>
        <time>2026-05-22T16:09:11.000Z</time>
      </trkpt>
      <trkpt lat="42.91461" lon="-1.21808">
        <ele>833.973515</ele>
        <time>2026-05-22T16:09:12.000Z</time>
      </trkpt>
      <trkpt lat="42.91461" lon="-1.21806">
        <ele>834.076318</ele>
        <time>2026-05-22T16:09:13.000Z</time>
      </trkpt>
      <trkpt lat="42.91461" lon="-1.21803">
        <ele>834.174583</ele>
        <time>2026-05-22T16:09:14.000Z</time>
      </trkpt>
      <trkpt lat="42.91461" lon="-1.21801">
        <ele>834.276777</ele>
        <time>2026-05-22T16:09:15.000Z</time>
      </trkpt>
      <trkpt lat="42.91461" lon="-1.21798">
        <ele>834.379579</ele>
        <time>2026-05-22T16:09:16.000Z</time>
      </trkpt>
      <trkpt lat="42.9146" lon="-1.21796">
        <ele>834.483136</ele>
        <time>2026-05-22T16:09:17.000Z</time>
      </trkpt>
      <trkpt lat="42.9146" lon="-1.21793">
        <ele>834.586802</ele>
        <time>2026-05-22T16:09:18.000Z</time>
      </trkpt>
      <trkpt lat="42.9146" lon="-1.21791">
        <ele>834.684908</ele>
        <time>2026-05-22T16:09:19.000Z</time>
      </trkpt>
      <trkpt lat="42.9146" lon="-1.21789">
        <ele>834.778927</ele>
        <time>2026-05-22T16:09:20.000Z</time>
      </trkpt>
      <trkpt lat="42.9146" lon="-1.21786">
        <ele>834.881274</ele>
        <time>2026-05-22T16:09:21.000Z</time>
      </trkpt>
      <trkpt lat="42.9146" lon="-1.21784">
        <ele>834.984076</ele>
        <time>2026-05-22T16:09:22.000Z</time>
      </trkpt>
      <trkpt lat="42.91459" lon="-1.21781">
        <ele>835.096681</ele>
        <time>2026-05-22T16:09:23.000Z</time>
      </trkpt>
      <trkpt lat="42.91458" lon="-1.21778">
        <ele>835.217946</ele>
        <time>2026-05-22T16:09:24.000Z</time>
      </trkpt>
      <trkpt lat="42.91458" lon="-1.21776">
        <ele>835.321611</ele>
        <time>2026-05-22T16:09:25.000Z</time>
      </trkpt>
      <trkpt lat="42.91457" lon="-1.21773">
        <ele>835.428477</ele>
        <time>2026-05-22T16:09:26.000Z</time>
      </trkpt>
      <trkpt lat="42.91457" lon="-1.21771">
        <ele>835.53476</ele>
        <time>2026-05-22T16:09:27.000Z</time>
      </trkpt>
      <trkpt lat="42.91458" lon="-1.21769">
        <ele>835.624864</ele>
        <time>2026-05-22T16:09:28.000Z</time>
      </trkpt>
      <trkpt lat="42.91457" lon="-1.21766">
        <ele>835.729705</ele>
        <time>2026-05-22T16:09:29.000Z</time>
      </trkpt>
      <trkpt lat="42.91457" lon="-1.21764">
        <ele>835.830778</ele>
        <time>2026-05-22T16:09:30.000Z</time>
      </trkpt>
      <trkpt lat="42.91457" lon="-1.21761">
        <ele>835.919723</ele>
        <time>2026-05-22T16:09:31.000Z</time>
      </trkpt>
      <trkpt lat="42.91457" lon="-1.21759">
        <ele>836.022144</ele>
        <time>2026-05-22T16:09:32.000Z</time>
      </trkpt>
      <trkpt lat="42.91457" lon="-1.21756">
        <ele>836.123368</ele>
        <time>2026-05-22T16:09:33.000Z</time>
      </trkpt>
      <trkpt lat="42.91457" lon="-1.21754">
        <ele>836.217008</ele>
        <time>2026-05-22T16:09:34.000Z</time>
      </trkpt>
      <trkpt lat="42.91457" lon="-1.21752">
        <ele>836.302089</ele>
        <time>2026-05-22T16:09:35.000Z</time>
      </trkpt>
      <trkpt lat="42.91457" lon="-1.2175">
        <ele>836.39524</ele>
        <time>2026-05-22T16:09:36.000Z</time>
      </trkpt>
      <trkpt lat="42.91457" lon="-1.21748">
        <ele>836.480142</ele>
        <time>2026-05-22T16:09:37.000Z</time>
      </trkpt>
      <trkpt lat="42.91457" lon="-1.21746">
        <ele>836.561189</ele>
        <time>2026-05-22T16:09:38.000Z</time>
      </trkpt>
      <trkpt lat="42.91456" lon="-1.21743">
        <ele>836.654829</ele>
        <time>2026-05-22T16:09:39.000Z</time>
      </trkpt>
      <trkpt lat="42.91456" lon="-1.21741">
        <ele>836.761242</ele>
        <time>2026-05-22T16:09:40.000Z</time>
      </trkpt>
      <trkpt lat="42.91456" lon="-1.21739">
        <ele>836.847744</ele>
        <time>2026-05-22T16:09:41.000Z</time>
      </trkpt>
      <trkpt lat="42.91455" lon="-1.21736">
        <ele>836.938877</ele>
        <time>2026-05-22T16:09:42.000Z</time>
      </trkpt>
      <trkpt lat="42.91454" lon="-1.21734">
        <ele>837.050512</ele>
        <time>2026-05-22T16:09:43.000Z</time>
      </trkpt>
      <trkpt lat="42.91453" lon="-1.21732">
        <ele>837.154894</ele>
        <time>2026-05-22T16:09:44.000Z</time>
      </trkpt>
      <trkpt lat="42.91452" lon="-1.21729">
        <ele>837.271161</ele>
        <time>2026-05-22T16:09:45.000Z</time>
      </trkpt>
      <trkpt lat="42.91451" lon="-1.21727">
        <ele>837.381461</ele>
        <time>2026-05-22T16:09:46.000Z</time>
      </trkpt>
      <trkpt lat="42.91451" lon="-1.21724">
        <ele>837.491761</ele>
        <time>2026-05-22T16:09:47.000Z</time>
      </trkpt>
      <trkpt lat="42.9145" lon="-1.21722">
        <ele>837.588738</ele>
        <time>2026-05-22T16:09:48.000Z</time>
      </trkpt>
      <trkpt lat="42.91449" lon="-1.2172">
        <ele>837.691679</ele>
        <time>2026-05-22T16:09:49.000Z</time>
      </trkpt>
      <trkpt lat="42.91448" lon="-1.21718">
        <ele>837.79039</ele>
        <time>2026-05-22T16:09:50.000Z</time>
      </trkpt>
      <trkpt lat="42.91448" lon="-1.21715">
        <ele>837.883519</ele>
        <time>2026-05-22T16:09:51.000Z</time>
      </trkpt>
      <trkpt lat="42.91447" lon="-1.21713">
        <ele>838.010796</ele>
        <time>2026-05-22T16:09:52.000Z</time>
      </trkpt>
      <trkpt lat="42.91446" lon="-1.21711">
        <ele>838.105391</ele>
        <time>2026-05-22T16:09:53.000Z</time>
      </trkpt>
      <trkpt lat="42.91445" lon="-1.21709">
        <ele>838.200294</ele>
        <time>2026-05-22T16:09:54.000Z</time>
      </trkpt>
      <trkpt lat="42.91444" lon="-1.21707">
        <ele>838.303236</ele>
        <time>2026-05-22T16:09:55.000Z</time>
      </trkpt>
      <trkpt lat="42.91443" lon="-1.21704">
        <ele>838.409844</ele>
        <time>2026-05-22T16:09:56.000Z</time>
      </trkpt>
      <trkpt lat="42.91442" lon="-1.21702">
        <ele>838.503126</ele>
        <time>2026-05-22T16:09:57.000Z</time>
      </trkpt>
      <trkpt lat="42.91442" lon="-1.217">
        <ele>838.605006</ele>
        <time>2026-05-22T16:09:58.000Z</time>
      </trkpt>
      <trkpt lat="42.91441" lon="-1.21698">
        <ele>838.698135</ele>
        <time>2026-05-22T16:09:59.000Z</time>
      </trkpt>
      <trkpt lat="42.9144" lon="-1.21695">
        <ele>838.806343</ele>
        <time>2026-05-22T16:10:00.000Z</time>
      </trkpt>
      <trkpt lat="42.9144" lon="-1.21693">
        <ele>838.905649</ele>
        <time>2026-05-22T16:10:01.000Z</time>
      </trkpt>
      <trkpt lat="42.91439" lon="-1.21691">
        <ele>839.001349</ele>
        <time>2026-05-22T16:10:02.000Z</time>
      </trkpt>
      <trkpt lat="42.91438" lon="-1.21689">
        <ele>839.098326</ele>
        <time>2026-05-22T16:10:03.000Z</time>
      </trkpt>
      <trkpt lat="42.91437" lon="-1.21686">
        <ele>839.202768</ele>
        <time>2026-05-22T16:10:04.000Z</time>
      </trkpt>
      <trkpt lat="42.91437" lon="-1.21684">
        <ele>839.30571</ele>
        <time>2026-05-22T16:10:05.000Z</time>
      </trkpt>
      <trkpt lat="42.91436" lon="-1.21682">
        <ele>839.400622</ele>
        <time>2026-05-22T16:10:06.000Z</time>
      </trkpt>
      <trkpt lat="42.91435" lon="-1.21679">
        <ele>839.499332</ele>
        <time>2026-05-22T16:10:07.000Z</time>
      </trkpt>
      <trkpt lat="42.91435" lon="-1.21677">
        <ele>839.604107</ele>
        <time>2026-05-22T16:10:08.000Z</time>
      </trkpt>
      <trkpt lat="42.91434" lon="-1.21675">
        <ele>839.708549</ele>
        <time>2026-05-22T16:10:09.000Z</time>
      </trkpt>
      <trkpt lat="42.91433" lon="-1.21672">
        <ele>839.807855</ele>
        <time>2026-05-22T16:10:10.000Z</time>
      </trkpt>
      <trkpt lat="42.91433" lon="-1.2167">
        <ele>839.889479</ele>
        <time>2026-05-22T16:10:11.000Z</time>
      </trkpt>
      <trkpt lat="42.91432" lon="-1.21668">
        <ele>839.992421</ele>
        <time>2026-05-22T16:10:12.000Z</time>
      </trkpt>
      <trkpt lat="42.91431" lon="-1.21666">
        <ele>840.093692</ele>
        <time>2026-05-22T16:10:13.000Z</time>
      </trkpt>
      <trkpt lat="42.9143" lon="-1.21664">
        <ele>840.201388</ele>
        <time>2026-05-22T16:10:14.000Z</time>
      </trkpt>
      <trkpt lat="42.91429" lon="-1.21661">
        <ele>840.310399</ele>
        <time>2026-05-22T16:10:15.000Z</time>
      </trkpt>
      <trkpt lat="42.91428" lon="-1.21659">
        <ele>840.41941</ele>
        <time>2026-05-22T16:10:16.000Z</time>
      </trkpt>
      <trkpt lat="42.91428" lon="-1.21657">
        <ele>840.518121</ele>
        <time>2026-05-22T16:10:17.000Z</time>
      </trkpt>
      <trkpt lat="42.91427" lon="-1.21654">
        <ele>840.616832</ele>
        <time>2026-05-22T16:10:18.000Z</time>
      </trkpt>
      <trkpt lat="42.91426" lon="-1.21652">
        <ele>840.707966</ele>
        <time>2026-05-22T16:10:19.000Z</time>
      </trkpt>
      <trkpt lat="42.91426" lon="-1.2165">
        <ele>840.804942</ele>
        <time>2026-05-22T16:10:20.000Z</time>
      </trkpt>
      <trkpt lat="42.91425" lon="-1.21648">
        <ele>840.897076</ele>
        <time>2026-05-22T16:10:21.000Z</time>
      </trkpt>
      <trkpt lat="42.91424" lon="-1.21646">
        <ele>840.984802</ele>
        <time>2026-05-22T16:10:22.000Z</time>
      </trkpt>
      <trkpt lat="42.91424" lon="-1.21644">
        <ele>841.080503</ele>
        <time>2026-05-22T16:10:23.000Z</time>
      </trkpt>
      <trkpt lat="42.91423" lon="-1.21642">
        <ele>841.166491</ele>
        <time>2026-05-22T16:10:24.000Z</time>
      </trkpt>
      <trkpt lat="42.91422" lon="-1.2164">
        <ele>841.2747</ele>
        <time>2026-05-22T16:10:25.000Z</time>
      </trkpt>
      <trkpt lat="42.91422" lon="-1.21637">
        <ele>841.367982</ele>
        <time>2026-05-22T16:10:26.000Z</time>
      </trkpt>
      <trkpt lat="42.91421" lon="-1.21635">
        <ele>841.469253</ele>
        <time>2026-05-22T16:10:27.000Z</time>
      </trkpt>
      <trkpt lat="42.9142" lon="-1.21633">
        <ele>841.575862</ele>
        <time>2026-05-22T16:10:28.000Z</time>
      </trkpt>
      <trkpt lat="42.91419" lon="-1.21631">
        <ele>841.671563</ele>
        <time>2026-05-22T16:10:29.000Z</time>
      </trkpt>
      <trkpt lat="42.91418" lon="-1.21629">
        <ele>841.767264</ele>
        <time>2026-05-22T16:10:30.000Z</time>
      </trkpt>
      <trkpt lat="42.91417" lon="-1.21627">
        <ele>841.869144</ele>
        <time>2026-05-22T16:10:31.000Z</time>
      </trkpt>
      <trkpt lat="42.91416" lon="-1.21624">
        <ele>841.967515</ele>
        <time>2026-05-22T16:10:32.000Z</time>
      </trkpt>
      <trkpt lat="42.91416" lon="-1.21622">
        <ele>842.070457</ele>
        <time>2026-05-22T16:10:33.000Z</time>
      </trkpt>
      <trkpt lat="42.91415" lon="-1.2162">
        <ele>842.172986</ele>
        <time>2026-05-22T16:10:34.000Z</time>
      </trkpt>
      <trkpt lat="42.91415" lon="-1.21617">
        <ele>842.284357</ele>
        <time>2026-05-22T16:10:35.000Z</time>
      </trkpt>
      <trkpt lat="42.91414" lon="-1.21615">
        <ele>842.383868</ele>
        <time>2026-05-22T16:10:36.000Z</time>
      </trkpt>
      <trkpt lat="42.91414" lon="-1.21612">
        <ele>842.488643</ele>
        <time>2026-05-22T16:10:37.000Z</time>
      </trkpt>
      <trkpt lat="42.91413" lon="-1.21609">
        <ele>842.604441</ele>
        <time>2026-05-22T16:10:38.000Z</time>
      </trkpt>
      <trkpt lat="42.91412" lon="-1.21607">
        <ele>842.710804</ele>
        <time>2026-05-22T16:10:39.000Z</time>
      </trkpt>
      <trkpt lat="42.91412" lon="-1.21604">
        <ele>842.819013</ele>
        <time>2026-05-22T16:10:40.000Z</time>
      </trkpt>
      <trkpt lat="42.91411" lon="-1.21602">
        <ele>842.913925</ele>
        <time>2026-05-22T16:10:41.000Z</time>
      </trkpt>
      <trkpt lat="42.91411" lon="-1.216">
        <ele>842.999365</ele>
        <time>2026-05-22T16:10:42.000Z</time>
      </trkpt>
      <trkpt lat="42.9141" lon="-1.21598">
        <ele>843.095067</ele>
        <time>2026-05-22T16:10:43.000Z</time>
      </trkpt>
      <trkpt lat="42.91409" lon="-1.21596">
        <ele>843.18997</ele>
        <time>2026-05-22T16:10:44.000Z</time>
      </trkpt>
      <trkpt lat="42.91408" lon="-1.21594">
        <ele>843.300873</ele>
        <time>2026-05-22T16:10:45.000Z</time>
      </trkpt>
      <trkpt lat="42.91407" lon="-1.21592">
        <ele>843.396574</ele>
        <time>2026-05-22T16:10:46.000Z</time>
      </trkpt>
      <trkpt lat="42.91406" lon="-1.21589">
        <ele>843.499103</ele>
        <time>2026-05-22T16:10:47.000Z</time>
      </trkpt>
      <trkpt lat="42.91406" lon="-1.21587">
        <ele>843.613178</ele>
        <time>2026-05-22T16:10:48.000Z</time>
      </trkpt>
      <trkpt lat="42.91405" lon="-1.21584">
        <ele>843.713875</ele>
        <time>2026-05-22T16:10:49.000Z</time>
      </trkpt>
      <trkpt lat="42.91404" lon="-1.21582">
        <ele>843.807158</ele>
        <time>2026-05-22T16:10:50.000Z</time>
      </trkpt>
      <trkpt lat="42.91404" lon="-1.2158">
        <ele>843.908038</ele>
        <time>2026-05-22T16:10:51.000Z</time>
      </trkpt>
      <trkpt lat="42.91403" lon="-1.21578">
        <ele>844.00675</ele>
        <time>2026-05-22T16:10:52.000Z</time>
      </trkpt>
      <trkpt lat="42.91402" lon="-1.21575">
        <ele>844.103726</ele>
        <time>2026-05-22T16:10:53.000Z</time>
      </trkpt>
      <trkpt lat="42.91402" lon="-1.21573">
        <ele>844.202097</ele>
        <time>2026-05-22T16:10:54.000Z</time>
      </trkpt>
      <trkpt lat="42.91401" lon="-1.21571">
        <ele>844.308706</ele>
        <time>2026-05-22T16:10:55.000Z</time>
      </trkpt>
      <trkpt lat="42.914" lon="-1.21568">
        <ele>844.413481</ele>
        <time>2026-05-22T16:10:56.000Z</time>
      </trkpt>
      <trkpt lat="42.914" lon="-1.21566">
        <ele>844.522162</ele>
        <time>2026-05-22T16:10:57.000Z</time>
      </trkpt>
      <trkpt lat="42.91399" lon="-1.21563">
        <ele>844.62562</ele>
        <time>2026-05-22T16:10:58.000Z</time>
      </trkpt>
      <trkpt lat="42.91399" lon="-1.21561">
        <ele>844.722597</ele>
        <time>2026-05-22T16:10:59.000Z</time>
      </trkpt>
      <trkpt lat="42.91398" lon="-1.21559">
        <ele>844.821308</ele>
        <time>2026-05-22T16:11:00.000Z</time>
      </trkpt>
      <trkpt lat="42.91397" lon="-1.21556">
        <ele>844.923836</ele>
        <time>2026-05-22T16:11:01.000Z</time>
      </trkpt>
      <trkpt lat="42.91397" lon="-1.21554">
        <ele>845.028279</ele>
        <time>2026-05-22T16:11:02.000Z</time>
      </trkpt>
      <trkpt lat="42.91396" lon="-1.21552">
        <ele>845.131222</ele>
        <time>2026-05-22T16:11:03.000Z</time>
      </trkpt>
      <trkpt lat="42.91395" lon="-1.21549">
        <ele>845.234164</ele>
        <time>2026-05-22T16:11:04.000Z</time>
      </trkpt>
      <trkpt lat="42.91395" lon="-1.21547">
        <ele>845.344377</ele>
        <time>2026-05-22T16:11:05.000Z</time>
      </trkpt>
      <trkpt lat="42.91394" lon="-1.21544">
        <ele>845.456372</ele>
        <time>2026-05-22T16:11:06.000Z</time>
      </trkpt>
      <trkpt lat="42.91393" lon="-1.21542">
        <ele>845.564373</ele>
        <time>2026-05-22T16:11:07.000Z</time>
      </trkpt>
      <trkpt lat="42.91393" lon="-1.21539">
        <ele>845.668042</ele>
        <time>2026-05-22T16:11:08.000Z</time>
      </trkpt>
      <trkpt lat="42.91392" lon="-1.21537">
        <ele>845.774871</ele>
        <time>2026-05-22T16:11:09.000Z</time>
      </trkpt>
      <trkpt lat="42.91391" lon="-1.21534">
        <ele>845.86903</ele>
        <time>2026-05-22T16:11:10.000Z</time>
      </trkpt>
      <trkpt lat="42.91391" lon="-1.21532">
        <ele>845.974159</ele>
        <time>2026-05-22T16:11:11.000Z</time>
      </trkpt>
      <trkpt lat="42.9139" lon="-1.21529">
        <ele>846.075666</ele>
        <time>2026-05-22T16:11:12.000Z</time>
      </trkpt>
      <trkpt lat="42.9139" lon="-1.21526">
        <ele>846.178123</ele>
        <time>2026-05-22T16:11:13.000Z</time>
      </trkpt>
      <trkpt lat="42.9139" lon="-1.21524">
        <ele>846.27963</ele>
        <time>2026-05-22T16:11:14.000Z</time>
      </trkpt>
      <trkpt lat="42.91389" lon="-1.21521">
        <ele>846.379573</ele>
        <time>2026-05-22T16:11:15.000Z</time>
      </trkpt>
      <trkpt lat="42.91388" lon="-1.21519">
        <ele>846.484787</ele>
        <time>2026-05-22T16:11:16.000Z</time>
      </trkpt>
      <trkpt lat="42.91388" lon="-1.21516">
        <ele>846.588006</ele>
        <time>2026-05-22T16:11:17.000Z</time>
      </trkpt>
      <trkpt lat="42.91387" lon="-1.21514">
        <ele>846.696765</ele>
        <time>2026-05-22T16:11:18.000Z</time>
      </trkpt>
      <trkpt lat="42.91386" lon="-1.21511">
        <ele>846.803595</ele>
        <time>2026-05-22T16:11:19.000Z</time>
      </trkpt>
      <trkpt lat="42.91386" lon="-1.21509">
        <ele>846.910425</ele>
        <time>2026-05-22T16:11:20.000Z</time>
      </trkpt>
      <trkpt lat="42.91385" lon="-1.21506">
        <ele>847.015639</ele>
        <time>2026-05-22T16:11:21.000Z</time>
      </trkpt>
      <trkpt lat="42.91384" lon="-1.21504">
        <ele>847.108144</ele>
        <time>2026-05-22T16:11:22.000Z</time>
      </trkpt>
      <trkpt lat="42.91383" lon="-1.21501">
        <ele>847.213273</ele>
        <time>2026-05-22T16:11:23.000Z</time>
      </trkpt>
      <trkpt lat="42.91383" lon="-1.21498">
        <ele>847.324419</ele>
        <time>2026-05-22T16:11:24.000Z</time>
      </trkpt>
      <trkpt lat="42.91382" lon="-1.21496">
        <ele>847.427638</ele>
        <time>2026-05-22T16:11:25.000Z</time>
      </trkpt>
      <trkpt lat="42.91382" lon="-1.21493">
        <ele>847.532767</ele>
        <time>2026-05-22T16:11:26.000Z</time>
      </trkpt>
      <trkpt lat="42.91381" lon="-1.21491">
        <ele>847.636436</ele>
        <time>2026-05-22T16:11:27.000Z</time>
      </trkpt>
      <trkpt lat="42.91381" lon="-1.21488">
        <ele>847.740104</ele>
        <time>2026-05-22T16:11:28.000Z</time>
      </trkpt>
      <trkpt lat="42.9138" lon="-1.21485">
        <ele>847.844762</ele>
        <time>2026-05-22T16:11:29.000Z</time>
      </trkpt>
      <trkpt lat="42.9138" lon="-1.21483">
        <ele>847.94843</ele>
        <time>2026-05-22T16:11:30.000Z</time>
      </trkpt>
      <trkpt lat="42.9138" lon="-1.2148">
        <ele>848.050888</ele>
        <time>2026-05-22T16:11:31.000Z</time>
      </trkpt>
      <trkpt lat="42.91379" lon="-1.21478">
        <ele>848.155545</ele>
        <time>2026-05-22T16:11:32.000Z</time>
      </trkpt>
      <trkpt lat="42.91379" lon="-1.21475">
        <ele>848.256367</ele>
        <time>2026-05-22T16:11:33.000Z</time>
      </trkpt>
      <trkpt lat="42.91379" lon="-1.21472">
        <ele>848.366384</ele>
        <time>2026-05-22T16:11:34.000Z</time>
      </trkpt>
      <trkpt lat="42.91378" lon="-1.21469">
        <ele>848.476402</ele>
        <time>2026-05-22T16:11:35.000Z</time>
      </trkpt>
      <trkpt lat="42.91378" lon="-1.21467">
        <ele>848.58642</ele>
        <time>2026-05-22T16:11:36.000Z</time>
      </trkpt>
      <trkpt lat="42.91378" lon="-1.21464">
        <ele>848.700225</ele>
        <time>2026-05-22T16:11:37.000Z</time>
      </trkpt>
      <trkpt lat="42.91377" lon="-1.21461">
        <ele>848.804882</ele>
        <time>2026-05-22T16:11:38.000Z</time>
      </trkpt>
      <trkpt lat="42.91377" lon="-1.21458">
        <ele>848.912993</ele>
        <time>2026-05-22T16:11:39.000Z</time>
      </trkpt>
      <trkpt lat="42.91377" lon="-1.21456">
        <ele>849.00955</ele>
        <time>2026-05-22T16:11:40.000Z</time>
      </trkpt>
      <trkpt lat="42.91377" lon="-1.21453">
        <ele>849.112008</ele>
        <time>2026-05-22T16:11:41.000Z</time>
      </trkpt>
      <trkpt lat="42.91377" lon="-1.21451">
        <ele>849.208565</ele>
        <time>2026-05-22T16:11:42.000Z</time>
      </trkpt>
      <trkpt lat="42.91377" lon="-1.21448">
        <ele>849.305121</ele>
        <time>2026-05-22T16:11:43.000Z</time>
      </trkpt>
      <trkpt lat="42.91377" lon="-1.21445">
        <ele>849.409248</ele>
        <time>2026-05-22T16:11:44.000Z</time>
      </trkpt>
      <trkpt lat="42.91377" lon="-1.21443">
        <ele>849.509655</ele>
        <time>2026-05-22T16:11:45.000Z</time>
      </trkpt>
      <trkpt lat="42.91377" lon="-1.2144">
        <ele>849.606068</ele>
        <time>2026-05-22T16:11:46.000Z</time>
      </trkpt>
      <trkpt lat="42.91377" lon="-1.21438">
        <ele>849.706476</ele>
        <time>2026-05-22T16:11:47.000Z</time>
      </trkpt>
      <trkpt lat="42.91377" lon="-1.21435">
        <ele>849.803033</ele>
        <time>2026-05-22T16:11:48.000Z</time>
      </trkpt>
      <trkpt lat="42.91377" lon="-1.21432">
        <ele>849.907159</ele>
        <time>2026-05-22T16:11:49.000Z</time>
      </trkpt>
      <trkpt lat="42.91377" lon="-1.2143">
        <ele>850.016291</ele>
        <time>2026-05-22T16:11:50.000Z</time>
      </trkpt>
      <trkpt lat="42.91377" lon="-1.21427">
        <ele>850.12055</ele>
        <time>2026-05-22T16:11:51.000Z</time>
      </trkpt>
      <trkpt lat="42.91377" lon="-1.21424">
        <ele>850.217537</ele>
        <time>2026-05-22T16:11:52.000Z</time>
      </trkpt>
      <trkpt lat="42.91377" lon="-1.21422">
        <ele>850.317944</ele>
        <time>2026-05-22T16:11:53.000Z</time>
      </trkpt>
      <trkpt lat="42.91377" lon="-1.21419">
        <ele>850.418352</ele>
        <time>2026-05-22T16:11:54.000Z</time>
      </trkpt>
      <trkpt lat="42.91377" lon="-1.21417">
        <ele>850.514909</ele>
        <time>2026-05-22T16:11:55.000Z</time>
      </trkpt>
      <trkpt lat="42.91377" lon="-1.21414">
        <ele>850.616415</ele>
        <time>2026-05-22T16:11:56.000Z</time>
      </trkpt>
      <trkpt lat="42.91377" lon="-1.21412">
        <ele>850.709122</ele>
        <time>2026-05-22T16:11:57.000Z</time>
      </trkpt>
      <trkpt lat="42.91377" lon="-1.21409">
        <ele>850.805535</ele>
        <time>2026-05-22T16:11:58.000Z</time>
      </trkpt>
      <trkpt lat="42.91378" lon="-1.21407">
        <ele>850.906356</ele>
        <time>2026-05-22T16:11:59.000Z</time>
      </trkpt>
      <trkpt lat="42.91378" lon="-1.21404">
        <ele>851.015488</ele>
        <time>2026-05-22T16:12:00.000Z</time>
      </trkpt>
      <trkpt lat="42.91378" lon="-1.21401">
        <ele>851.120805</ele>
        <time>2026-05-22T16:12:01.000Z</time>
      </trkpt>
      <trkpt lat="42.91378" lon="-1.21399">
        <ele>851.218504</ele>
        <time>2026-05-22T16:12:02.000Z</time>
      </trkpt>
      <trkpt lat="42.91379" lon="-1.21396">
        <ele>851.320962</ele>
        <time>2026-05-22T16:12:03.000Z</time>
      </trkpt>
      <trkpt lat="42.9138" lon="-1.21393">
        <ele>851.427792</ele>
        <time>2026-05-22T16:12:04.000Z</time>
      </trkpt>
      <trkpt lat="42.9138" lon="-1.21391">
        <ele>851.531461</ele>
        <time>2026-05-22T16:12:05.000Z</time>
      </trkpt>
      <trkpt lat="42.91381" lon="-1.21388">
        <ele>851.629261</ele>
        <time>2026-05-22T16:12:06.000Z</time>
      </trkpt>
      <trkpt lat="42.91381" lon="-1.21386">
        <ele>851.737372</ele>
        <time>2026-05-22T16:12:07.000Z</time>
      </trkpt>
      <trkpt lat="42.91381" lon="-1.21383">
        <ele>851.842029</ele>
        <time>2026-05-22T16:12:08.000Z</time>
      </trkpt>
      <trkpt lat="42.91381" lon="-1.2138">
        <ele>851.953175</ele>
        <time>2026-05-22T16:12:09.000Z</time>
      </trkpt>
      <trkpt lat="42.91382" lon="-1.21378">
        <ele>852.054681</ele>
        <time>2026-05-22T16:12:10.000Z</time>
      </trkpt>
      <trkpt lat="42.91382" lon="-1.21375">
        <ele>852.155089</ele>
        <time>2026-05-22T16:12:11.000Z</time>
      </trkpt>
      <trkpt lat="42.91382" lon="-1.21372">
        <ele>852.251502</ele>
        <time>2026-05-22T16:12:12.000Z</time>
      </trkpt>
      <trkpt lat="42.91382" lon="-1.2137">
        <ele>852.35191</ele>
        <time>2026-05-22T16:12:13.000Z</time>
      </trkpt>
      <trkpt lat="42.91382" lon="-1.21367">
        <ele>852.448466</ele>
        <time>2026-05-22T16:12:14.000Z</time>
      </trkpt>
      <trkpt lat="42.91382" lon="-1.21365">
        <ele>852.552726</ele>
        <time>2026-05-22T16:12:15.000Z</time>
      </trkpt>
      <trkpt lat="42.91382" lon="-1.21362">
        <ele>852.660836</ele>
        <time>2026-05-22T16:12:16.000Z</time>
      </trkpt>
      <trkpt lat="42.91382" lon="-1.21359">
        <ele>852.765096</ele>
        <time>2026-05-22T16:12:17.000Z</time>
      </trkpt>
      <trkpt lat="42.91382" lon="-1.21357">
        <ele>852.861652</ele>
        <time>2026-05-22T16:12:18.000Z</time>
      </trkpt>
      <trkpt lat="42.91382" lon="-1.21354">
        <ele>852.955547</ele>
        <time>2026-05-22T16:12:19.000Z</time>
      </trkpt>
      <trkpt lat="42.91382" lon="-1.21351">
        <ele>853.06353</ele>
        <time>2026-05-22T16:12:20.000Z</time>
      </trkpt>
      <trkpt lat="42.91383" lon="-1.21349">
        <ele>853.169765</ele>
        <time>2026-05-22T16:12:21.000Z</time>
      </trkpt>
      <trkpt lat="42.91383" lon="-1.21346">
        <ele>853.269708</ele>
        <time>2026-05-22T16:12:22.000Z</time>
      </trkpt>
      <trkpt lat="42.91383" lon="-1.21344">
        <ele>853.368395</ele>
        <time>2026-05-22T16:12:23.000Z</time>
      </trkpt>
      <trkpt lat="42.91384" lon="-1.21342">
        <ele>853.453554</ele>
        <time>2026-05-22T16:12:24.000Z</time>
      </trkpt>
      <trkpt lat="42.91384" lon="-1.21339">
        <ele>853.54365</ele>
        <time>2026-05-22T16:12:25.000Z</time>
      </trkpt>
      <trkpt lat="42.91384" lon="-1.21337">
        <ele>853.644471</ele>
        <time>2026-05-22T16:12:26.000Z</time>
      </trkpt>
      <trkpt lat="42.91385" lon="-1.21334">
        <ele>853.740699</ele>
        <time>2026-05-22T16:12:27.000Z</time>
      </trkpt>
      <trkpt lat="42.91385" lon="-1.21332">
        <ele>853.829534</ele>
        <time>2026-05-22T16:12:28.000Z</time>
      </trkpt>
      <trkpt lat="42.91386" lon="-1.2133">
        <ele>853.922059</ele>
        <time>2026-05-22T16:12:29.000Z</time>
      </trkpt>
      <trkpt lat="42.91387" lon="-1.21327">
        <ele>854.027188</ele>
        <time>2026-05-22T16:12:30.000Z</time>
      </trkpt>
      <trkpt lat="42.91387" lon="-1.21325">
        <ele>854.130407</ele>
        <time>2026-05-22T16:12:31.000Z</time>
      </trkpt>
      <trkpt lat="42.91388" lon="-1.21322">
        <ele>854.231864</ele>
        <time>2026-05-22T16:12:32.000Z</time>
      </trkpt>
      <trkpt lat="42.91388" lon="-1.2132">
        <ele>854.336522</ele>
        <time>2026-05-22T16:12:33.000Z</time>
      </trkpt>
      <trkpt lat="42.91388" lon="-1.21317">
        <ele>854.441179</ele>
        <time>2026-05-22T16:12:34.000Z</time>
      </trkpt>
      <trkpt lat="42.91389" lon="-1.21314">
        <ele>854.547414</ele>
        <time>2026-05-22T16:12:35.000Z</time>
      </trkpt>
      <trkpt lat="42.91389" lon="-1.21311">
        <ele>854.657871</ele>
        <time>2026-05-22T16:12:36.000Z</time>
      </trkpt>
      <trkpt lat="42.9139" lon="-1.21309">
        <ele>854.77378</ele>
        <time>2026-05-22T16:12:37.000Z</time>
      </trkpt>
      <trkpt lat="42.91391" lon="-1.21306">
        <ele>854.888183</ele>
        <time>2026-05-22T16:12:38.000Z</time>
      </trkpt>
      <trkpt lat="42.91392" lon="-1.21303">
        <ele>854.998641</ele>
        <time>2026-05-22T16:12:39.000Z</time>
      </trkpt>
      <trkpt lat="42.91392" lon="-1.213">
        <ele>855.090229</ele>
        <time>2026-05-22T16:12:40.000Z</time>
      </trkpt>
      <trkpt lat="42.91393" lon="-1.21297">
        <ele>855.177028</ele>
        <time>2026-05-22T16:12:41.000Z</time>
      </trkpt>
      <trkpt lat="42.91394" lon="-1.21295">
        <ele>855.264284</ele>
        <time>2026-05-22T16:12:42.000Z</time>
      </trkpt>
      <trkpt lat="42.91395" lon="-1.21292">
        <ele>855.355089</ele>
        <time>2026-05-22T16:12:43.000Z</time>
      </trkpt>
      <trkpt lat="42.91396" lon="-1.21289">
        <ele>855.440615</ele>
        <time>2026-05-22T16:12:44.000Z</time>
      </trkpt>
      <trkpt lat="42.91396" lon="-1.21286">
        <ele>855.523271</ele>
        <time>2026-05-22T16:12:45.000Z</time>
      </trkpt>
      <trkpt lat="42.91396" lon="-1.21283">
        <ele>855.610185</ele>
        <time>2026-05-22T16:12:46.000Z</time>
      </trkpt>
      <trkpt lat="42.91397" lon="-1.2128">
        <ele>855.69091</ele>
        <time>2026-05-22T16:12:47.000Z</time>
      </trkpt>
      <trkpt lat="42.91397" lon="-1.21277">
        <ele>855.77146</ele>
        <time>2026-05-22T16:12:48.000Z</time>
      </trkpt>
      <trkpt lat="42.91398" lon="-1.21275">
        <ele>855.852009</ele>
        <time>2026-05-22T16:12:49.000Z</time>
      </trkpt>
      <trkpt lat="42.91399" lon="-1.21272">
        <ele>855.932559</ele>
        <time>2026-05-22T16:12:50.000Z</time>
      </trkpt>
      <trkpt lat="42.914" lon="-1.21269">
        <ele>856.016743</ele>
        <time>2026-05-22T16:12:51.000Z</time>
      </trkpt>
      <trkpt lat="42.91401" lon="-1.21266">
        <ele>856.100191</ele>
        <time>2026-05-22T16:12:52.000Z</time>
      </trkpt>
      <trkpt lat="42.91401" lon="-1.21263">
        <ele>856.192713</ele>
        <time>2026-05-22T16:12:53.000Z</time>
      </trkpt>
      <trkpt lat="42.91402" lon="-1.2126">
        <ele>856.278123</ele>
        <time>2026-05-22T16:12:54.000Z</time>
      </trkpt>
      <trkpt lat="42.91402" lon="-1.21257">
        <ele>856.370871</ele>
        <time>2026-05-22T16:12:55.000Z</time>
      </trkpt>
      <trkpt lat="42.91402" lon="-1.21254">
        <ele>856.461734</ele>
        <time>2026-05-22T16:12:56.000Z</time>
      </trkpt>
      <trkpt lat="42.91404" lon="-1.21251">
        <ele>856.563289</ele>
        <time>2026-05-22T16:12:57.000Z</time>
      </trkpt>
      <trkpt lat="42.91404" lon="-1.21247">
        <ele>856.657678</ele>
        <time>2026-05-22T16:12:58.000Z</time>
      </trkpt>
      <trkpt lat="42.91404" lon="-1.21244">
        <ele>856.748605</ele>
        <time>2026-05-22T16:12:59.000Z</time>
      </trkpt>
      <trkpt lat="42.91405" lon="-1.2124">
        <ele>856.85009</ele>
        <time>2026-05-22T16:13:00.000Z</time>
      </trkpt>
      <trkpt lat="42.91405" lon="-1.21237">
        <ele>856.959328</ele>
        <time>2026-05-22T16:13:01.000Z</time>
      </trkpt>
      <trkpt lat="42.91405" lon="-1.21233">
        <ele>857.068833</ele>
        <time>2026-05-22T16:13:02.000Z</time>
      </trkpt>
      <trkpt lat="42.91404" lon="-1.21229">
        <ele>857.184572</ele>
        <time>2026-05-22T16:13:03.000Z</time>
      </trkpt>
      <trkpt lat="42.91402" lon="-1.21226">
        <ele>857.302404</ele>
        <time>2026-05-22T16:13:04.000Z</time>
      </trkpt>
      <trkpt lat="42.91399" lon="-1.21223">
        <ele>857.417694</ele>
        <time>2026-05-22T16:13:05.000Z</time>
      </trkpt>
      <trkpt lat="42.91397" lon="-1.21222">
        <ele>857.516574</ele>
        <time>2026-05-22T16:13:06.000Z</time>
      </trkpt>
      <trkpt lat="42.91394" lon="-1.21223">
        <ele>857.631854</ele>
        <time>2026-05-22T16:13:07.000Z</time>
      </trkpt>
      <trkpt lat="42.91391" lon="-1.21224">
        <ele>857.745593</ele>
        <time>2026-05-22T16:13:08.000Z</time>
      </trkpt>
      <trkpt lat="42.91388" lon="-1.21225">
        <ele>857.859985</ele>
        <time>2026-05-22T16:13:09.000Z</time>
      </trkpt>
      <trkpt lat="42.91385" lon="-1.21226">
        <ele>857.965879</ele>
        <time>2026-05-22T16:13:10.000Z</time>
      </trkpt>
      <trkpt lat="42.91383" lon="-1.21227">
        <ele>858.065693</ele>
        <time>2026-05-22T16:13:11.000Z</time>
      </trkpt>
      <trkpt lat="42.91381" lon="-1.21229">
        <ele>858.159181</ele>
        <time>2026-05-22T16:13:12.000Z</time>
      </trkpt>
      <trkpt lat="42.91379" lon="-1.21232">
        <ele>858.252701</ele>
        <time>2026-05-22T16:13:13.000Z</time>
      </trkpt>
      <trkpt lat="42.91377" lon="-1.21234">
        <ele>858.346985</ele>
        <time>2026-05-22T16:13:14.000Z</time>
      </trkpt>
      <trkpt lat="42.91375" lon="-1.21236">
        <ele>858.445208</ele>
        <time>2026-05-22T16:13:15.000Z</time>
      </trkpt>
      <trkpt lat="42.91373" lon="-1.21238">
        <ele>858.547869</ele>
        <time>2026-05-22T16:13:16.000Z</time>
      </trkpt>
      <trkpt lat="42.91371" lon="-1.21241">
        <ele>858.6497</ele>
        <time>2026-05-22T16:13:17.000Z</time>
      </trkpt>
      <trkpt lat="42.91369" lon="-1.21243">
        <ele>858.74925</ele>
        <time>2026-05-22T16:13:18.000Z</time>
      </trkpt>
      <trkpt lat="42.91367" lon="-1.21245">
        <ele>858.83932</ele>
        <time>2026-05-22T16:13:19.000Z</time>
      </trkpt>
      <trkpt lat="42.91365" lon="-1.21247">
        <ele>858.934595</ele>
        <time>2026-05-22T16:13:20.000Z</time>
      </trkpt>
      <trkpt lat="42.91364" lon="-1.2125">
        <ele>859.030149</ele>
        <time>2026-05-22T16:13:21.000Z</time>
      </trkpt>
      <trkpt lat="42.91362" lon="-1.21252">
        <ele>859.126368</ele>
        <time>2026-05-22T16:13:22.000Z</time>
      </trkpt>
      <trkpt lat="42.9136" lon="-1.21254">
        <ele>859.230659</ele>
        <time>2026-05-22T16:13:23.000Z</time>
      </trkpt>
      <trkpt lat="42.91357" lon="-1.21256">
        <ele>859.32858</ele>
        <time>2026-05-22T16:13:24.000Z</time>
      </trkpt>
      <trkpt lat="42.91356" lon="-1.21258">
        <ele>859.425691</ele>
        <time>2026-05-22T16:13:25.000Z</time>
      </trkpt>
      <trkpt lat="42.91354" lon="-1.21261">
        <ele>859.522802</ele>
        <time>2026-05-22T16:13:26.000Z</time>
      </trkpt>
      <trkpt lat="42.91352" lon="-1.21263">
        <ele>859.619293</ele>
        <time>2026-05-22T16:13:27.000Z</time>
      </trkpt>
      <trkpt lat="42.9135" lon="-1.21265">
        <ele>859.718843</ele>
        <time>2026-05-22T16:13:28.000Z</time>
      </trkpt>
      <trkpt lat="42.91348" lon="-1.21267">
        <ele>859.820675</ele>
        <time>2026-05-22T16:13:29.000Z</time>
      </trkpt>
      <trkpt lat="42.91346" lon="-1.21269">
        <ele>859.914163</ele>
        <time>2026-05-22T16:13:30.000Z</time>
      </trkpt>
      <trkpt lat="42.91344" lon="-1.21272">
        <ele>860.004711</ele>
        <time>2026-05-22T16:13:31.000Z</time>
      </trkpt>
      <trkpt lat="42.91342" lon="-1.21274">
        <ele>860.099521</ele>
        <time>2026-05-22T16:13:32.000Z</time>
      </trkpt>
      <trkpt lat="42.9134" lon="-1.21276">
        <ele>860.194331</ele>
        <time>2026-05-22T16:13:33.000Z</time>
      </trkpt>
      <trkpt lat="42.91338" lon="-1.21278">
        <ele>860.275965</ele>
        <time>2026-05-22T16:13:34.000Z</time>
      </trkpt>
      <trkpt lat="42.91336" lon="-1.21279">
        <ele>860.369334</ele>
        <time>2026-05-22T16:13:35.000Z</time>
      </trkpt>
      <trkpt lat="42.91334" lon="-1.21281">
        <ele>860.460945</ele>
        <time>2026-05-22T16:13:36.000Z</time>
      </trkpt>
      <trkpt lat="42.91332" lon="-1.21283">
        <ele>860.552917</ele>
        <time>2026-05-22T16:13:37.000Z</time>
      </trkpt>
      <trkpt lat="42.9133" lon="-1.21285">
        <ele>860.656321</ele>
        <time>2026-05-22T16:13:38.000Z</time>
      </trkpt>
      <trkpt lat="42.91327" lon="-1.21286">
        <ele>860.757267</ele>
        <time>2026-05-22T16:13:39.000Z</time>
      </trkpt>
      <trkpt lat="42.91325" lon="-1.21287">
        <ele>860.87166</ele>
        <time>2026-05-22T16:13:40.000Z</time>
      </trkpt>
      <trkpt lat="42.91322" lon="-1.21288">
        <ele>860.973011</ele>
        <time>2026-05-22T16:13:41.000Z</time>
      </trkpt>
      <trkpt lat="42.91319" lon="-1.21288">
        <ele>861.073429</ele>
        <time>2026-05-22T16:13:42.000Z</time>
      </trkpt>
      <trkpt lat="42.91317" lon="-1.21288">
        <ele>861.169082</ele>
        <time>2026-05-22T16:13:43.000Z</time>
      </trkpt>
      <trkpt lat="42.91315" lon="-1.21288">
        <ele>861.253639</ele>
        <time>2026-05-22T16:13:44.000Z</time>
      </trkpt>
      <trkpt lat="42.91312" lon="-1.21287">
        <ele>861.343194</ele>
        <time>2026-05-22T16:13:45.000Z</time>
      </trkpt>
      <trkpt lat="42.9131" lon="-1.21286">
        <ele>861.431872</ele>
        <time>2026-05-22T16:13:46.000Z</time>
      </trkpt>
      <trkpt lat="42.91308" lon="-1.21285">
        <ele>861.516931</ele>
        <time>2026-05-22T16:13:47.000Z</time>
      </trkpt>
      <trkpt lat="42.91306" lon="-1.21284">
        <ele>861.601645</ele>
        <time>2026-05-22T16:13:48.000Z</time>
      </trkpt>
      <trkpt lat="42.91304" lon="-1.21283">
        <ele>861.681708</ele>
        <time>2026-05-22T16:13:49.000Z</time>
      </trkpt>
      <trkpt lat="42.91302" lon="-1.21282">
        <ele>861.758316</ele>
        <time>2026-05-22T16:13:50.000Z</time>
      </trkpt>
      <trkpt lat="42.91301" lon="-1.21281">
        <ele>861.824497</ele>
        <time>2026-05-22T16:13:51.000Z</time>
      </trkpt>
      <trkpt lat="42.91299" lon="-1.21279">
        <ele>861.897688</ele>
        <time>2026-05-22T16:13:52.000Z</time>
      </trkpt>
      <trkpt lat="42.91297" lon="-1.21278">
        <ele>861.99895</ele>
        <time>2026-05-22T16:13:53.000Z</time>
      </trkpt>
      <trkpt lat="42.91296" lon="-1.21276">
        <ele>862.112948</ele>
        <time>2026-05-22T16:13:54.000Z</time>
      </trkpt>
      <trkpt lat="42.91294" lon="-1.21274">
        <ele>862.23634</ele>
        <time>2026-05-22T16:13:55.000Z</time>
      </trkpt>
      <trkpt lat="42.91292" lon="-1.21273">
        <ele>862.35025</ele>
        <time>2026-05-22T16:13:56.000Z</time>
      </trkpt>
      <trkpt lat="42.91291" lon="-1.21272">
        <ele>862.453695</ele>
        <time>2026-05-22T16:13:57.000Z</time>
      </trkpt>
      <trkpt lat="42.91289" lon="-1.21271">
        <ele>862.545483</ele>
        <time>2026-05-22T16:13:58.000Z</time>
      </trkpt>
      <trkpt lat="42.91288" lon="-1.21269">
        <ele>862.634089</ele>
        <time>2026-05-22T16:13:59.000Z</time>
      </trkpt>
      <trkpt lat="42.91287" lon="-1.21267">
        <ele>862.731626</ele>
        <time>2026-05-22T16:14:00.000Z</time>
      </trkpt>
      <trkpt lat="42.91286" lon="-1.21265">
        <ele>862.832354</ele>
        <time>2026-05-22T16:14:01.000Z</time>
      </trkpt>
      <trkpt lat="42.91284" lon="-1.21264">
        <ele>862.937068</ele>
        <time>2026-05-22T16:14:02.000Z</time>
      </trkpt>
      <trkpt lat="42.91283" lon="-1.21261">
        <ele>863.050909</ele>
        <time>2026-05-22T16:14:03.000Z</time>
      </trkpt>
      <trkpt lat="42.91282" lon="-1.21259">
        <ele>863.162326</ele>
        <time>2026-05-22T16:14:04.000Z</time>
      </trkpt>
      <trkpt lat="42.9128" lon="-1.21258">
        <ele>863.271379</ele>
        <time>2026-05-22T16:14:05.000Z</time>
      </trkpt>
      <trkpt lat="42.91278" lon="-1.21256">
        <ele>863.380432</ele>
        <time>2026-05-22T16:14:06.000Z</time>
      </trkpt>
      <trkpt lat="42.91277" lon="-1.21254">
        <ele>863.498725</ele>
        <time>2026-05-22T16:14:07.000Z</time>
      </trkpt>
      <trkpt lat="42.91275" lon="-1.21253">
        <ele>863.603392</ele>
        <time>2026-05-22T16:14:08.000Z</time>
      </trkpt>
      <trkpt lat="42.91274" lon="-1.21251">
        <ele>863.714872</ele>
        <time>2026-05-22T16:14:09.000Z</time>
      </trkpt>
      <trkpt lat="42.91272" lon="-1.2125">
        <ele>863.814783</ele>
        <time>2026-05-22T16:14:10.000Z</time>
      </trkpt>
      <trkpt lat="42.91271" lon="-1.21248">
        <ele>863.904244</ele>
        <time>2026-05-22T16:14:11.000Z</time>
      </trkpt>
      <trkpt lat="42.9127" lon="-1.21247">
        <ele>863.992621</ele>
        <time>2026-05-22T16:14:12.000Z</time>
      </trkpt>
      <trkpt lat="42.91269" lon="-1.21245">
        <ele>864.087033</ele>
        <time>2026-05-22T16:14:13.000Z</time>
      </trkpt>
      <trkpt lat="42.91268" lon="-1.21243">
        <ele>864.197504</ele>
        <time>2026-05-22T16:14:14.000Z</time>
      </trkpt>
      <trkpt lat="42.91266" lon="-1.2124">
        <ele>864.315639</ele>
        <time>2026-05-22T16:14:15.000Z</time>
      </trkpt>
      <trkpt lat="42.91265" lon="-1.21239">
        <ele>864.425448</ele>
        <time>2026-05-22T16:14:16.000Z</time>
      </trkpt>
      <trkpt lat="42.91263" lon="-1.21237">
        <ele>864.534501</ele>
        <time>2026-05-22T16:14:17.000Z</time>
      </trkpt>
      <trkpt lat="42.91262" lon="-1.21235">
        <ele>864.63074</ele>
        <time>2026-05-22T16:14:18.000Z</time>
      </trkpt>
      <trkpt lat="42.91261" lon="-1.21234">
        <ele>864.722096</ele>
        <time>2026-05-22T16:14:19.000Z</time>
      </trkpt>
      <trkpt lat="42.9126" lon="-1.21232">
        <ele>864.813083</ele>
        <time>2026-05-22T16:14:20.000Z</time>
      </trkpt>
      <trkpt lat="42.91259" lon="-1.2123">
        <ele>864.907309</ele>
        <time>2026-05-22T16:14:21.000Z</time>
      </trkpt>
      <trkpt lat="42.91257" lon="-1.21228">
        <ele>865.002395</ele>
        <time>2026-05-22T16:14:22.000Z</time>
      </trkpt>
      <trkpt lat="42.91256" lon="-1.21227">
        <ele>865.090773</ele>
        <time>2026-05-22T16:14:23.000Z</time>
      </trkpt>
      <trkpt lat="42.91255" lon="-1.21225">
        <ele>865.185184</ele>
        <time>2026-05-22T16:14:24.000Z</time>
      </trkpt>
      <trkpt lat="42.91254" lon="-1.21223">
        <ele>865.28027</ele>
        <time>2026-05-22T16:14:25.000Z</time>
      </trkpt>
      <trkpt lat="42.91253" lon="-1.21221">
        <ele>865.374682</ele>
        <time>2026-05-22T16:14:26.000Z</time>
      </trkpt>
      <trkpt lat="42.91252" lon="-1.2122">
        <ele>865.469767</ele>
        <time>2026-05-22T16:14:27.000Z</time>
      </trkpt>
      <trkpt lat="42.9125" lon="-1.21218">
        <ele>865.563358</ele>
        <time>2026-05-22T16:14:28.000Z</time>
      </trkpt>
      <trkpt lat="42.91249" lon="-1.21217">
        <ele>865.650151</ele>
        <time>2026-05-22T16:14:29.000Z</time>
      </trkpt>
      <trkpt lat="42.91248" lon="-1.21216">
        <ele>865.747845</ele>
        <time>2026-05-22T16:14:30.000Z</time>
      </trkpt>
      <trkpt lat="42.91246" lon="-1.21214">
        <ele>865.840944</ele>
        <time>2026-05-22T16:14:31.000Z</time>
      </trkpt>
      <trkpt lat="42.91245" lon="-1.21213">
        <ele>865.943181</ele>
        <time>2026-05-22T16:14:32.000Z</time>
      </trkpt>
      <trkpt lat="42.91244" lon="-1.21211">
        <ele>866.037593</ele>
        <time>2026-05-22T16:14:33.000Z</time>
      </trkpt>
      <trkpt lat="42.91242" lon="-1.21209">
        <ele>866.139401</ele>
        <time>2026-05-22T16:14:34.000Z</time>
      </trkpt>
      <trkpt lat="42.91241" lon="-1.21207">
        <ele>866.243524</ele>
        <time>2026-05-22T16:14:35.000Z</time>
      </trkpt>
      <trkpt lat="42.9124" lon="-1.21205">
        <ele>866.350802</ele>
        <time>2026-05-22T16:14:36.000Z</time>
      </trkpt>
      <trkpt lat="42.91239" lon="-1.21203">
        <ele>866.461274</ele>
        <time>2026-05-22T16:14:37.000Z</time>
      </trkpt>
      <trkpt lat="42.91238" lon="-1.212">
        <ele>866.569862</ele>
        <time>2026-05-22T16:14:38.000Z</time>
      </trkpt>
      <trkpt lat="42.91237" lon="-1.21198">
        <ele>866.668781</ele>
        <time>2026-05-22T16:14:39.000Z</time>
      </trkpt>
      <trkpt lat="42.91236" lon="-1.21196">
        <ele>866.766319</ele>
        <time>2026-05-22T16:14:40.000Z</time>
      </trkpt>
      <trkpt lat="42.91235" lon="-1.21194">
        <ele>866.874011</ele>
        <time>2026-05-22T16:14:41.000Z</time>
      </trkpt>
      <trkpt lat="42.91234" lon="-1.21192">
        <ele>866.977988</ele>
        <time>2026-05-22T16:14:42.000Z</time>
      </trkpt>
      <trkpt lat="42.91233" lon="-1.2119">
        <ele>867.085708</ele>
        <time>2026-05-22T16:14:43.000Z</time>
      </trkpt>
      <trkpt lat="42.91232" lon="-1.21188">
        <ele>867.184627</ele>
        <time>2026-05-22T16:14:44.000Z</time>
      </trkpt>
      <trkpt lat="42.91231" lon="-1.21185">
        <ele>867.28717</ele>
        <time>2026-05-22T16:14:45.000Z</time>
      </trkpt>
      <trkpt lat="42.9123" lon="-1.21183">
        <ele>867.388655</ele>
        <time>2026-05-22T16:14:46.000Z</time>
      </trkpt>
      <trkpt lat="42.91229" lon="-1.21181">
        <ele>867.496374</ele>
        <time>2026-05-22T16:14:47.000Z</time>
      </trkpt>
      <trkpt lat="42.91228" lon="-1.21179">
        <ele>867.603653</ele>
        <time>2026-05-22T16:14:48.000Z</time>
      </trkpt>
      <trkpt lat="42.91227" lon="-1.21177">
        <ele>867.710922</ele>
        <time>2026-05-22T16:14:49.000Z</time>
      </trkpt>
      <trkpt lat="42.91225" lon="-1.21174">
        <ele>867.834487</ele>
        <time>2026-05-22T16:14:50.000Z</time>
      </trkpt>
      <trkpt lat="42.91224" lon="-1.21172">
        <ele>867.932013</ele>
        <time>2026-05-22T16:14:51.000Z</time>
      </trkpt>
      <trkpt lat="42.91223" lon="-1.2117">
        <ele>868.02624</ele>
        <time>2026-05-22T16:14:52.000Z</time>
      </trkpt>
      <trkpt lat="42.91222" lon="-1.21168">
        <ele>868.136712</ele>
        <time>2026-05-22T16:14:53.000Z</time>
      </trkpt>
      <trkpt lat="42.91221" lon="-1.21166">
        <ele>868.237441</ele>
        <time>2026-05-22T16:14:54.000Z</time>
      </trkpt>
      <trkpt lat="42.9122" lon="-1.21164">
        <ele>868.348642</ele>
        <time>2026-05-22T16:14:55.000Z</time>
      </trkpt>
      <trkpt lat="42.91219" lon="-1.21161">
        <ele>868.47307</ele>
        <time>2026-05-22T16:14:56.000Z</time>
      </trkpt>
      <trkpt lat="42.91218" lon="-1.21158">
        <ele>868.599854</ele>
        <time>2026-05-22T16:14:57.000Z</time>
      </trkpt>
      <trkpt lat="42.91217" lon="-1.21156">
        <ele>868.714573</ele>
        <time>2026-05-22T16:14:58.000Z</time>
      </trkpt>
      <trkpt lat="42.91216" lon="-1.21153">
        <ele>868.829293</ele>
        <time>2026-05-22T16:14:59.000Z</time>
      </trkpt>
      <trkpt lat="42.91214" lon="-1.21151">
        <ele>868.956076</ele>
        <time>2026-05-22T16:15:00.000Z</time>
      </trkpt>
      <trkpt lat="42.91213" lon="-1.21149">
        <ele>869.060053</ele>
        <time>2026-05-22T16:15:01.000Z</time>
      </trkpt>
      <trkpt lat="42.91213" lon="-1.21147">
        <ele>869.145708</ele>
        <time>2026-05-22T16:15:02.000Z</time>
      </trkpt>
      <trkpt lat="42.91212" lon="-1.21144">
        <ele>869.259729</ele>
        <time>2026-05-22T16:15:03.000Z</time>
      </trkpt>
      <trkpt lat="42.91211" lon="-1.21142">
        <ele>869.373304</ele>
        <time>2026-05-22T16:15:04.000Z</time>
      </trkpt>
      <trkpt lat="42.9121" lon="-1.21139">
        <ele>869.486879</ele>
        <time>2026-05-22T16:15:05.000Z</time>
      </trkpt>
      <trkpt lat="42.91209" lon="-1.21137">
        <ele>869.604333</ele>
        <time>2026-05-22T16:15:06.000Z</time>
      </trkpt>
      <trkpt lat="42.91208" lon="-1.21134">
        <ele>869.719053</ele>
        <time>2026-05-22T16:15:07.000Z</time>
      </trkpt>
      <trkpt lat="42.91207" lon="-1.21132">
        <ele>869.833074</ele>
        <time>2026-05-22T16:15:08.000Z</time>
      </trkpt>
      <trkpt lat="42.91205" lon="-1.21129">
        <ele>869.956553</ele>
        <time>2026-05-22T16:15:09.000Z</time>
      </trkpt>
      <trkpt lat="42.91204" lon="-1.21127">
        <ele>870.076931</ele>
        <time>2026-05-22T16:15:10.000Z</time>
      </trkpt>
      <trkpt lat="42.91203" lon="-1.21124">
        <ele>870.187559</ele>
        <time>2026-05-22T16:15:11.000Z</time>
      </trkpt>
      <trkpt lat="42.91202" lon="-1.21122">
        <ele>870.28048</ele>
        <time>2026-05-22T16:15:12.000Z</time>
      </trkpt>
      <trkpt lat="42.91201" lon="-1.2112">
        <ele>870.394207</ele>
        <time>2026-05-22T16:15:13.000Z</time>
      </trkpt>
      <trkpt lat="42.912" lon="-1.21118">
        <ele>870.507935</ele>
        <time>2026-05-22T16:15:14.000Z</time>
      </trkpt>
      <trkpt lat="42.91199" lon="-1.21115">
        <ele>870.621663</ele>
        <time>2026-05-22T16:15:15.000Z</time>
      </trkpt>
      <trkpt lat="42.91198" lon="-1.21113">
        <ele>870.732291</ele>
        <time>2026-05-22T16:15:16.000Z</time>
      </trkpt>
      <trkpt lat="42.91197" lon="-1.21111">
        <ele>870.842919</ele>
        <time>2026-05-22T16:15:17.000Z</time>
      </trkpt>
      <trkpt lat="42.91195" lon="-1.21109">
        <ele>870.954337</ele>
        <time>2026-05-22T16:15:18.000Z</time>
      </trkpt>
      <trkpt lat="42.91194" lon="-1.21107">
        <ele>871.061531</ele>
        <time>2026-05-22T16:15:19.000Z</time>
      </trkpt>
      <trkpt lat="42.91192" lon="-1.21106">
        <ele>871.173503</ele>
        <time>2026-05-22T16:15:20.000Z</time>
      </trkpt>
      <trkpt lat="42.9119" lon="-1.21105">
        <ele>871.289297</ele>
        <time>2026-05-22T16:15:21.000Z</time>
      </trkpt>
      <trkpt lat="42.91188" lon="-1.21104">
        <ele>871.414487</ele>
        <time>2026-05-22T16:15:22.000Z</time>
      </trkpt>
      <trkpt lat="42.91186" lon="-1.21104">
        <ele>871.536528</ele>
        <time>2026-05-22T16:15:23.000Z</time>
      </trkpt>
      <trkpt lat="42.91183" lon="-1.21104">
        <ele>871.657568</ele>
        <time>2026-05-22T16:15:24.000Z</time>
      </trkpt>
      <trkpt lat="42.91181" lon="-1.21104">
        <ele>871.768717</ele>
        <time>2026-05-22T16:15:25.000Z</time>
      </trkpt>
      <trkpt lat="42.9118" lon="-1.21105">
        <ele>871.872945</ele>
        <time>2026-05-22T16:15:26.000Z</time>
      </trkpt>
      <trkpt lat="42.91178" lon="-1.21106">
        <ele>871.972768</ele>
        <time>2026-05-22T16:15:27.000Z</time>
      </trkpt>
      <trkpt lat="42.91176" lon="-1.21108">
        <ele>872.082689</ele>
        <time>2026-05-22T16:15:28.000Z</time>
      </trkpt>
      <trkpt lat="42.91174" lon="-1.21109">
        <ele>872.19261</ele>
        <time>2026-05-22T16:15:29.000Z</time>
      </trkpt>
      <trkpt lat="42.91173" lon="-1.21111">
        <ele>872.295596</ele>
        <time>2026-05-22T16:15:30.000Z</time>
      </trkpt>
      <trkpt lat="42.91171" lon="-1.21112">
        <ele>872.405602</ele>
        <time>2026-05-22T16:15:31.000Z</time>
      </trkpt>
      <trkpt lat="42.9117" lon="-1.21115">
        <ele>872.515631</ele>
        <time>2026-05-22T16:15:32.000Z</time>
      </trkpt>
      <trkpt lat="42.91169" lon="-1.21117">
        <ele>872.612833</ele>
        <time>2026-05-22T16:15:33.000Z</time>
      </trkpt>
      <trkpt lat="42.91168" lon="-1.21119">
        <ele>872.7025</ele>
        <time>2026-05-22T16:15:34.000Z</time>
      </trkpt>
      <trkpt lat="42.91167" lon="-1.21121">
        <ele>872.808525</ele>
        <time>2026-05-22T16:15:35.000Z</time>
      </trkpt>
      <trkpt lat="42.91167" lon="-1.21124">
        <ele>872.916757</ele>
        <time>2026-05-22T16:15:36.000Z</time>
      </trkpt>
      <trkpt lat="42.91166" lon="-1.21127">
        <ele>873.024412</ele>
        <time>2026-05-22T16:15:37.000Z</time>
      </trkpt>
      <trkpt lat="42.91166" lon="-1.21129">
        <ele>873.122967</ele>
        <time>2026-05-22T16:15:38.000Z</time>
      </trkpt>
      <trkpt lat="42.91165" lon="-1.21131">
        <ele>873.217852</ele>
        <time>2026-05-22T16:15:39.000Z</time>
      </trkpt>
      <trkpt lat="42.91165" lon="-1.21134">
        <ele>873.3173</ele>
        <time>2026-05-22T16:15:40.000Z</time>
      </trkpt>
      <trkpt lat="42.91164" lon="-1.21136">
        <ele>873.411173</ele>
        <time>2026-05-22T16:15:41.000Z</time>
      </trkpt>
      <trkpt lat="42.91164" lon="-1.21139">
        <ele>873.506829</ele>
        <time>2026-05-22T16:15:42.000Z</time>
      </trkpt>
      <trkpt lat="42.91163" lon="-1.21141">
        <ele>873.6038</ele>
        <time>2026-05-22T16:15:43.000Z</time>
      </trkpt>
      <trkpt lat="42.91163" lon="-1.21143">
        <ele>873.689944</ele>
        <time>2026-05-22T16:15:44.000Z</time>
      </trkpt>
      <trkpt lat="42.91162" lon="-1.21145">
        <ele>873.773938</ele>
        <time>2026-05-22T16:15:45.000Z</time>
      </trkpt>
      <trkpt lat="42.91162" lon="-1.21147">
        <ele>873.865808</ele>
        <time>2026-05-22T16:15:46.000Z</time>
      </trkpt>
      <trkpt lat="42.91161" lon="-1.2115">
        <ele>873.959047</ele>
        <time>2026-05-22T16:15:47.000Z</time>
      </trkpt>
      <trkpt lat="42.91161" lon="-1.21152">
        <ele>874.050281</ele>
        <time>2026-05-22T16:15:48.000Z</time>
      </trkpt>
      <trkpt lat="42.9116" lon="-1.21154">
        <ele>874.141515</ele>
        <time>2026-05-22T16:15:49.000Z</time>
      </trkpt>
      <trkpt lat="42.91159" lon="-1.21156">
        <ele>874.220717</ele>
        <time>2026-05-22T16:15:50.000Z</time>
      </trkpt>
      <trkpt lat="42.91159" lon="-1.21158">
        <ele>874.297575</ele>
        <time>2026-05-22T16:15:51.000Z</time>
      </trkpt>
      <trkpt lat="42.91158" lon="-1.2116">
        <ele>874.393032</ele>
        <time>2026-05-22T16:15:52.000Z</time>
      </trkpt>
      <trkpt lat="42.91157" lon="-1.21162">
        <ele>874.491984</ele>
        <time>2026-05-22T16:15:53.000Z</time>
      </trkpt>
      <trkpt lat="42.91156" lon="-1.21165">
        <ele>874.590937</ele>
        <time>2026-05-22T16:15:54.000Z</time>
      </trkpt>
      <trkpt lat="42.91155" lon="-1.21167">
        <ele>874.685494</ele>
        <time>2026-05-22T16:15:55.000Z</time>
      </trkpt>
      <trkpt lat="42.91155" lon="-1.21169">
        <ele>874.78038</ele>
        <time>2026-05-22T16:15:56.000Z</time>
      </trkpt>
      <trkpt lat="42.91154" lon="-1.21171">
        <ele>874.878312</ele>
        <time>2026-05-22T16:15:57.000Z</time>
      </trkpt>
      <trkpt lat="42.91153" lon="-1.21173">
        <ele>874.976555</ele>
        <time>2026-05-22T16:15:58.000Z</time>
      </trkpt>
      <trkpt lat="42.91152" lon="-1.21174">
        <ele>875.059048</ele>
        <time>2026-05-22T16:15:59.000Z</time>
      </trkpt>
      <trkpt lat="42.9115" lon="-1.21176">
        <ele>875.149362</ele>
        <time>2026-05-22T16:16:00.000Z</time>
      </trkpt>
      <trkpt lat="42.91149" lon="-1.21178">
        <ele>875.246864</ele>
        <time>2026-05-22T16:16:01.000Z</time>
      </trkpt>
      <trkpt lat="42.91148" lon="-1.21179">
        <ele>875.339734</ele>
        <time>2026-05-22T16:16:02.000Z</time>
      </trkpt>
      <trkpt lat="42.91146" lon="-1.21181">
        <ele>875.446023</ele>
        <time>2026-05-22T16:16:03.000Z</time>
      </trkpt>
      <trkpt lat="42.91144" lon="-1.21182">
        <ele>875.561942</ele>
        <time>2026-05-22T16:16:04.000Z</time>
      </trkpt>
      <trkpt lat="42.91142" lon="-1.21183">
        <ele>875.668231</ele>
        <time>2026-05-22T16:16:05.000Z</time>
      </trkpt>
      <trkpt lat="42.9114" lon="-1.21184">
        <ele>875.77452</ele>
        <time>2026-05-22T16:16:06.000Z</time>
      </trkpt>
      <trkpt lat="42.91138" lon="-1.21186">
        <ele>875.892057</ele>
        <time>2026-05-22T16:16:07.000Z</time>
      </trkpt>
      <trkpt lat="42.91136" lon="-1.21187">
        <ele>876.011406</ele>
        <time>2026-05-22T16:16:08.000Z</time>
      </trkpt>
      <trkpt lat="42.91134" lon="-1.21188">
        <ele>876.128197</ele>
        <time>2026-05-22T16:16:09.000Z</time>
      </trkpt>
      <trkpt lat="42.91132" lon="-1.21188">
        <ele>876.238781</ele>
        <time>2026-05-22T16:16:10.000Z</time>
      </trkpt>
      <trkpt lat="42.9113" lon="-1.21189">
        <ele>876.343205</ele>
        <time>2026-05-22T16:16:11.000Z</time>
      </trkpt>
      <trkpt lat="42.91128" lon="-1.2119">
        <ele>876.45379</ele>
        <time>2026-05-22T16:16:12.000Z</time>
      </trkpt>
      <trkpt lat="42.91126" lon="-1.21191">
        <ele>876.568201</ele>
        <time>2026-05-22T16:16:13.000Z</time>
      </trkpt>
      <trkpt lat="42.91124" lon="-1.21192">
        <ele>876.67994</ele>
        <time>2026-05-22T16:16:14.000Z</time>
      </trkpt>
      <trkpt lat="42.91122" lon="-1.21193">
        <ele>876.792956</ele>
        <time>2026-05-22T16:16:15.000Z</time>
      </trkpt>
      <trkpt lat="42.9112" lon="-1.21194">
        <ele>876.902878</ele>
        <time>2026-05-22T16:16:16.000Z</time>
      </trkpt>
      <trkpt lat="42.91118" lon="-1.21196">
        <ele>877.030078</ele>
        <time>2026-05-22T16:16:17.000Z</time>
      </trkpt>
      <trkpt lat="42.91116" lon="-1.21196">
        <ele>877.149943</ele>
        <time>2026-05-22T16:16:18.000Z</time>
      </trkpt>
      <trkpt lat="42.91114" lon="-1.21197">
        <ele>877.24826</ele>
        <time>2026-05-22T16:16:19.000Z</time>
      </trkpt>
      <trkpt lat="42.91113" lon="-1.21198">
        <ele>877.336834</ele>
        <time>2026-05-22T16:16:20.000Z</time>
      </trkpt>
      <trkpt lat="42.91111" lon="-1.21199">
        <ele>877.438549</ele>
        <time>2026-05-22T16:16:21.000Z</time>
      </trkpt>
      <trkpt lat="42.91109" lon="-1.212">
        <ele>877.533962</ele>
        <time>2026-05-22T16:16:22.000Z</time>
      </trkpt>
      <trkpt lat="42.91108" lon="-1.21201">
        <ele>877.622536</ele>
        <time>2026-05-22T16:16:23.000Z</time>
      </trkpt>
      <trkpt lat="42.91106" lon="-1.21201">
        <ele>877.716754</ele>
        <time>2026-05-22T16:16:24.000Z</time>
      </trkpt>
      <trkpt lat="42.91104" lon="-1.21202">
        <ele>877.814223</ele>
        <time>2026-05-22T16:16:25.000Z</time>
      </trkpt>
      <trkpt lat="42.91102" lon="-1.21203">
        <ele>877.915937</ele>
        <time>2026-05-22T16:16:26.000Z</time>
      </trkpt>
      <trkpt lat="42.91101" lon="-1.21204">
        <ele>878.019053</ele>
        <time>2026-05-22T16:16:27.000Z</time>
      </trkpt>
      <trkpt lat="42.91099" lon="-1.21205">
        <ele>878.125766</ele>
        <time>2026-05-22T16:16:28.000Z</time>
      </trkpt>
      <trkpt lat="42.91097" lon="-1.21205">
        <ele>878.228439</ele>
        <time>2026-05-22T16:16:29.000Z</time>
      </trkpt>
      <trkpt lat="42.91095" lon="-1.21206">
        <ele>878.336328</ele>
        <time>2026-05-22T16:16:30.000Z</time>
      </trkpt>
      <trkpt lat="42.91093" lon="-1.21206">
        <ele>878.422024</ele>
        <time>2026-05-22T16:16:31.000Z</time>
      </trkpt>
      <trkpt lat="42.91092" lon="-1.21207">
        <ele>878.501199</ele>
        <time>2026-05-22T16:16:32.000Z</time>
      </trkpt>
      <trkpt lat="42.9109" lon="-1.21208">
        <ele>878.588138</ele>
        <time>2026-05-22T16:16:33.000Z</time>
      </trkpt>
      <trkpt lat="42.91089" lon="-1.21209">
        <ele>878.678486</ele>
        <time>2026-05-22T16:16:34.000Z</time>
      </trkpt>
      <trkpt lat="42.91087" lon="-1.2121">
        <ele>878.77893</ele>
        <time>2026-05-22T16:16:35.000Z</time>
      </trkpt>
      <trkpt lat="42.91086" lon="-1.2121">
        <ele>878.863044</ele>
        <time>2026-05-22T16:16:36.000Z</time>
      </trkpt>
      <trkpt lat="42.91084" lon="-1.21211">
        <ele>878.950139</ele>
        <time>2026-05-22T16:16:37.000Z</time>
      </trkpt>
      <trkpt lat="42.91082" lon="-1.21212">
        <ele>879.045552</ele>
        <time>2026-05-22T16:16:38.000Z</time>
      </trkpt>
      <trkpt lat="42.91081" lon="-1.21213">
        <ele>879.142417</ele>
        <time>2026-05-22T16:16:39.000Z</time>
      </trkpt>
      <trkpt lat="42.91079" lon="-1.21214">
        <ele>879.244132</ele>
        <time>2026-05-22T16:16:40.000Z</time>
      </trkpt>
      <trkpt lat="42.91077" lon="-1.21215">
        <ele>879.350844</ele>
        <time>2026-05-22T16:16:41.000Z</time>
      </trkpt>
      <trkpt lat="42.91075" lon="-1.21215">
        <ele>879.461429</ele>
        <time>2026-05-22T16:16:42.000Z</time>
      </trkpt>
      <trkpt lat="42.91073" lon="-1.21216">
        <ele>879.564908</ele>
        <time>2026-05-22T16:16:43.000Z</time>
      </trkpt>
      <trkpt lat="42.91071" lon="-1.21217">
        <ele>879.665353</ele>
        <time>2026-05-22T16:16:44.000Z</time>
      </trkpt>
      <trkpt lat="42.91069" lon="-1.21218">
        <ele>879.782144</ele>
        <time>2026-05-22T16:16:45.000Z</time>
      </trkpt>
      <trkpt lat="42.91067" lon="-1.21218">
        <ele>879.895988</ele>
        <time>2026-05-22T16:16:46.000Z</time>
      </trkpt>
      <trkpt lat="42.91065" lon="-1.21219">
        <ele>880.0091</ele>
        <time>2026-05-22T16:16:47.000Z</time>
      </trkpt>
      <trkpt lat="42.91063" lon="-1.21219">
        <ele>880.107417</ele>
        <time>2026-05-22T16:16:48.000Z</time>
      </trkpt>
      <trkpt lat="42.91061" lon="-1.2122">
        <ele>880.211841</ele>
        <time>2026-05-22T16:16:49.000Z</time>
      </trkpt>
      <trkpt lat="42.91059" lon="-1.21221">
        <ele>880.31532</ele>
        <time>2026-05-22T16:16:50.000Z</time>
      </trkpt>
      <trkpt lat="42.91058" lon="-1.21221">
        <ele>880.41681</ele>
        <time>2026-05-22T16:16:51.000Z</time>
      </trkpt>
      <trkpt lat="42.91056" lon="-1.21221">
        <ele>880.513031</ele>
        <time>2026-05-22T16:16:52.000Z</time>
      </trkpt>
      <trkpt lat="42.91054" lon="-1.21222">
        <ele>880.609799</ele>
        <time>2026-05-22T16:16:53.000Z</time>
      </trkpt>
      <trkpt lat="42.91052" lon="-1.21222">
        <ele>880.714223</ele>
        <time>2026-05-22T16:16:54.000Z</time>
      </trkpt>
      <trkpt lat="42.9105" lon="-1.21224">
        <ele>880.826992</ele>
        <time>2026-05-22T16:16:55.000Z</time>
      </trkpt>
      <trkpt lat="42.91048" lon="-1.21225">
        <ele>880.931634</ele>
        <time>2026-05-22T16:16:56.000Z</time>
      </trkpt>
      <trkpt lat="42.91047" lon="-1.21226">
        <ele>881.025853</ele>
        <time>2026-05-22T16:16:57.000Z</time>
      </trkpt>
      <trkpt lat="42.91045" lon="-1.21227">
        <ele>881.128969</ele>
        <time>2026-05-22T16:16:58.000Z</time>
      </trkpt>
      <trkpt lat="42.91043" lon="-1.21228">
        <ele>881.235258</ele>
        <time>2026-05-22T16:16:59.000Z</time>
      </trkpt>
      <trkpt lat="42.91041" lon="-1.21229">
        <ele>881.333479</ele>
        <time>2026-05-22T16:17:00.000Z</time>
      </trkpt>
      <trkpt lat="42.9104" lon="-1.2123">
        <ele>881.438365</ele>
        <time>2026-05-22T16:17:01.000Z</time>
      </trkpt>
      <trkpt lat="42.91038" lon="-1.21231">
        <ele>881.545895</ele>
        <time>2026-05-22T16:17:02.000Z</time>
      </trkpt>
      <trkpt lat="42.91036" lon="-1.21231">
        <ele>881.644503</ele>
        <time>2026-05-22T16:17:03.000Z</time>
      </trkpt>
      <trkpt lat="42.91034" lon="-1.21233">
        <ele>881.741384</ele>
        <time>2026-05-22T16:17:04.000Z</time>
      </trkpt>
      <trkpt lat="42.91033" lon="-1.21233">
        <ele>881.839992</ele>
        <time>2026-05-22T16:17:05.000Z</time>
      </trkpt>
      <trkpt lat="42.91031" lon="-1.21235">
        <ele>881.942767</ele>
        <time>2026-05-22T16:17:06.000Z</time>
      </trkpt>
      <trkpt lat="42.9103" lon="-1.21236">
        <ele>882.038853</ele>
        <time>2026-05-22T16:17:07.000Z</time>
      </trkpt>
      <trkpt lat="42.91028" lon="-1.21237">
        <ele>882.14395</ele>
        <time>2026-05-22T16:17:08.000Z</time>
      </trkpt>
      <trkpt lat="42.91026" lon="-1.21238">
        <ele>882.260559</ele>
        <time>2026-05-22T16:17:09.000Z</time>
      </trkpt>
      <trkpt lat="42.91024" lon="-1.21239">
        <ele>882.362299</ele>
        <time>2026-05-22T16:17:10.000Z</time>
      </trkpt>
      <trkpt lat="42.91022" lon="-1.2124">
        <ele>882.457465</ele>
        <time>2026-05-22T16:17:11.000Z</time>
      </trkpt>
      <trkpt lat="42.91021" lon="-1.21242">
        <ele>882.56243</ele>
        <time>2026-05-22T16:17:12.000Z</time>
      </trkpt>
      <trkpt lat="42.91019" lon="-1.21243">
        <ele>882.669798</ele>
        <time>2026-05-22T16:17:13.000Z</time>
      </trkpt>
      <trkpt lat="42.91018" lon="-1.21245">
        <ele>882.777055</ele>
        <time>2026-05-22T16:17:14.000Z</time>
      </trkpt>
      <trkpt lat="42.91016" lon="-1.21247">
        <ele>882.891736</ele>
        <time>2026-05-22T16:17:15.000Z</time>
      </trkpt>
      <trkpt lat="42.91015" lon="-1.21249">
        <ele>883.007176</ele>
        <time>2026-05-22T16:17:16.000Z</time>
      </trkpt>
      <trkpt lat="42.91013" lon="-1.21251">
        <ele>883.122281</ele>
        <time>2026-05-22T16:17:17.000Z</time>
      </trkpt>
      <trkpt lat="42.91012" lon="-1.21253">
        <ele>883.227784</ele>
        <time>2026-05-22T16:17:18.000Z</time>
      </trkpt>
      <trkpt lat="42.91011" lon="-1.21256">
        <ele>883.339752</ele>
        <time>2026-05-22T16:17:19.000Z</time>
      </trkpt>
      <trkpt lat="42.9101" lon="-1.21258">
        <ele>883.45483</ele>
        <time>2026-05-22T16:17:20.000Z</time>
      </trkpt>
      <trkpt lat="42.91009" lon="-1.21261">
        <ele>883.571154</ele>
        <time>2026-05-22T16:17:21.000Z</time>
      </trkpt>
      <trkpt lat="42.91008" lon="-1.21263">
        <ele>883.677955</ele>
        <time>2026-05-22T16:17:22.000Z</time>
      </trkpt>
      <trkpt lat="42.91007" lon="-1.21265">
        <ele>883.783902</ele>
        <time>2026-05-22T16:17:23.000Z</time>
      </trkpt>
      <trkpt lat="42.91006" lon="-1.21268">
        <ele>883.886228</ele>
        <time>2026-05-22T16:17:24.000Z</time>
      </trkpt>
      <trkpt lat="42.91005" lon="-1.2127">
        <ele>883.98126</ele>
        <time>2026-05-22T16:17:25.000Z</time>
      </trkpt>
      <trkpt lat="42.91005" lon="-1.21272">
        <ele>884.078756</ele>
        <time>2026-05-22T16:17:26.000Z</time>
      </trkpt>
      <trkpt lat="42.91005" lon="-1.21275">
        <ele>884.181407</ele>
        <time>2026-05-22T16:17:27.000Z</time>
      </trkpt>
      <trkpt lat="42.91004" lon="-1.21277">
        <ele>884.284059</ele>
        <time>2026-05-22T16:17:28.000Z</time>
      </trkpt>
      <trkpt lat="42.91003" lon="-1.2128">
        <ele>884.381352</ele>
        <time>2026-05-22T16:17:29.000Z</time>
      </trkpt>
      <trkpt lat="42.91002" lon="-1.21282">
        <ele>884.481167</ele>
        <time>2026-05-22T16:17:30.000Z</time>
      </trkpt>
      <trkpt lat="42.91001" lon="-1.21284">
        <ele>884.583728</ele>
        <time>2026-05-22T16:17:31.000Z</time>
      </trkpt>
      <trkpt lat="42.91001" lon="-1.21287">
        <ele>884.693453</ele>
        <time>2026-05-22T16:17:32.000Z</time>
      </trkpt>
      <trkpt lat="42.91" lon="-1.21289">
        <ele>884.7979</ele>
        <time>2026-05-22T16:17:33.000Z</time>
      </trkpt>
      <trkpt lat="42.90999" lon="-1.21291">
        <ele>884.901191</ele>
        <time>2026-05-22T16:17:34.000Z</time>
      </trkpt>
      <trkpt lat="42.90998" lon="-1.21293">
        <ele>885.003752</ele>
        <time>2026-05-22T16:17:35.000Z</time>
      </trkpt>
      <trkpt lat="42.90997" lon="-1.21295">
        <ele>885.106162</ele>
        <time>2026-05-22T16:17:36.000Z</time>
      </trkpt>
      <trkpt lat="42.90995" lon="-1.21298">
        <ele>885.221603</ele>
        <time>2026-05-22T16:17:37.000Z</time>
      </trkpt>
      <trkpt lat="42.90994" lon="-1.213">
        <ele>885.333571</ele>
        <time>2026-05-22T16:17:38.000Z</time>
      </trkpt>
      <trkpt lat="42.90993" lon="-1.21302">
        <ele>885.449761</ele>
        <time>2026-05-22T16:17:39.000Z</time>
      </trkpt>
      <trkpt lat="42.90992" lon="-1.21304">
        <ele>885.555708</ele>
        <time>2026-05-22T16:17:40.000Z</time>
      </trkpt>
      <trkpt lat="42.9099" lon="-1.21306">
        <ele>885.664622</ele>
        <time>2026-05-22T16:17:41.000Z</time>
      </trkpt>
      <trkpt lat="42.90989" lon="-1.21308">
        <ele>885.772623</ele>
        <time>2026-05-22T16:17:42.000Z</time>
      </trkpt>
      <trkpt lat="42.90987" lon="-1.2131">
        <ele>885.884744</ele>
        <time>2026-05-22T16:17:43.000Z</time>
      </trkpt>
      <trkpt lat="42.90985" lon="-1.21312">
        <ele>885.99641</ele>
        <time>2026-05-22T16:17:44.000Z</time>
      </trkpt>
      <trkpt lat="42.90984" lon="-1.21313">
        <ele>886.106055</ele>
        <time>2026-05-22T16:17:45.000Z</time>
      </trkpt>
      <trkpt lat="42.90982" lon="-1.21315">
        <ele>886.224751</ele>
        <time>2026-05-22T16:17:46.000Z</time>
      </trkpt>
      <trkpt lat="42.9098" lon="-1.21316">
        <ele>886.339687</ele>
        <time>2026-05-22T16:17:47.000Z</time>
      </trkpt>
      <trkpt lat="42.90978" lon="-1.21317">
        <ele>886.456451</ele>
        <time>2026-05-22T16:17:48.000Z</time>
      </trkpt>
      <trkpt lat="42.90976" lon="-1.21319">
        <ele>886.568117</ele>
        <time>2026-05-22T16:17:49.000Z</time>
      </trkpt>
      <trkpt lat="42.90975" lon="-1.2132">
        <ele>886.680151</ele>
        <time>2026-05-22T16:17:50.000Z</time>
      </trkpt>
      <trkpt lat="42.90973" lon="-1.21321">
        <ele>886.788914</ele>
        <time>2026-05-22T16:17:51.000Z</time>
      </trkpt>
      <trkpt lat="42.90971" lon="-1.21322">
        <ele>886.890132</ele>
        <time>2026-05-22T16:17:52.000Z</time>
      </trkpt>
      <trkpt lat="42.90969" lon="-1.21323">
        <ele>886.997662</ele>
        <time>2026-05-22T16:17:53.000Z</time>
      </trkpt>
      <trkpt lat="42.90967" lon="-1.21324">
        <ele>887.105193</ele>
        <time>2026-05-22T16:17:54.000Z</time>
      </trkpt>
      <trkpt lat="42.90965" lon="-1.21324">
        <ele>887.21066</ele>
        <time>2026-05-22T16:17:55.000Z</time>
      </trkpt>
      <trkpt lat="42.90963" lon="-1.21325">
        <ele>887.309288</ele>
        <time>2026-05-22T16:17:56.000Z</time>
      </trkpt>
      <trkpt lat="42.90961" lon="-1.21325">
        <ele>887.41774</ele>
        <time>2026-05-22T16:17:57.000Z</time>
      </trkpt>
      <trkpt lat="42.90959" lon="-1.21325">
        <ele>887.527058</ele>
        <time>2026-05-22T16:17:58.000Z</time>
      </trkpt>
      <trkpt lat="42.90958" lon="-1.21326">
        <ele>887.631027</ele>
        <time>2026-05-22T16:17:59.000Z</time>
      </trkpt>
      <trkpt lat="42.90956" lon="-1.21326">
        <ele>887.734996</ele>
        <time>2026-05-22T16:18:00.000Z</time>
      </trkpt>
      <trkpt lat="42.90954" lon="-1.21326">
        <ele>887.848843</ele>
        <time>2026-05-22T16:18:01.000Z</time>
      </trkpt>
      <trkpt lat="42.90952" lon="-1.21327">
        <ele>887.95816</ele>
        <time>2026-05-22T16:18:02.000Z</time>
      </trkpt>
      <trkpt lat="42.9095" lon="-1.21327">
        <ele>888.066323</ele>
        <time>2026-05-22T16:18:03.000Z</time>
      </trkpt>
      <trkpt lat="42.90948" lon="-1.21327">
        <ele>888.174558</ele>
        <time>2026-05-22T16:18:04.000Z</time>
      </trkpt>
      <trkpt lat="42.90946" lon="-1.21327">
        <ele>888.277313</ele>
        <time>2026-05-22T16:18:05.000Z</time>
      </trkpt>
      <trkpt lat="42.90944" lon="-1.21327">
        <ele>888.385476</ele>
        <time>2026-05-22T16:18:06.000Z</time>
      </trkpt>
      <trkpt lat="42.90942" lon="-1.21327">
        <ele>888.493639</ele>
        <time>2026-05-22T16:18:07.000Z</time>
      </trkpt>
      <trkpt lat="42.9094" lon="-1.21326">
        <ele>888.60783</ele>
        <time>2026-05-22T16:18:08.000Z</time>
      </trkpt>
      <trkpt lat="42.90938" lon="-1.21326">
        <ele>888.71127</ele>
        <time>2026-05-22T16:18:09.000Z</time>
      </trkpt>
      <trkpt lat="42.90936" lon="-1.21325">
        <ele>888.810611</ele>
        <time>2026-05-22T16:18:10.000Z</time>
      </trkpt>
      <trkpt lat="42.90934" lon="-1.21325">
        <ele>888.915257</ele>
        <time>2026-05-22T16:18:11.000Z</time>
      </trkpt>
      <trkpt lat="42.90932" lon="-1.21324">
        <ele>889.026</ele>
        <time>2026-05-22T16:18:12.000Z</time>
      </trkpt>
      <trkpt lat="42.9093" lon="-1.21324">
        <ele>889.141285</ele>
        <time>2026-05-22T16:18:13.000Z</time>
      </trkpt>
      <trkpt lat="42.90928" lon="-1.21323">
        <ele>889.250602</ele>
        <time>2026-05-22T16:18:14.000Z</time>
      </trkpt>
      <trkpt lat="42.90926" lon="-1.21323">
        <ele>889.353433</ele>
        <time>2026-05-22T16:18:15.000Z</time>
      </trkpt>
      <trkpt lat="42.90924" lon="-1.21324">
        <ele>889.451102</ele>
        <time>2026-05-22T16:18:16.000Z</time>
      </trkpt>
      <trkpt lat="42.90922" lon="-1.21324">
        <ele>889.549729</ele>
        <time>2026-05-22T16:18:17.000Z</time>
      </trkpt>
      <trkpt lat="42.9092" lon="-1.21324">
        <ele>889.6633</ele>
        <time>2026-05-22T16:18:18.000Z</time>
      </trkpt>
      <trkpt lat="42.90918" lon="-1.21324">
        <ele>889.771536</ele>
        <time>2026-05-22T16:18:19.000Z</time>
      </trkpt>
      <trkpt lat="42.90916" lon="-1.21324">
        <ele>889.879988</ele>
        <time>2026-05-22T16:18:20.000Z</time>
      </trkpt>
      <trkpt lat="42.90914" lon="-1.21324">
        <ele>889.988151</ele>
        <time>2026-05-22T16:18:21.000Z</time>
      </trkpt>
      <trkpt lat="42.90912" lon="-1.21324">
        <ele>890.096387</ele>
        <time>2026-05-22T16:18:22.000Z</time>
      </trkpt>
      <trkpt lat="42.9091" lon="-1.21323">
        <ele>890.204622</ele>
        <time>2026-05-22T16:18:23.000Z</time>
      </trkpt>
      <trkpt lat="42.90908" lon="-1.21323">
        <ele>890.312858</ele>
        <time>2026-05-22T16:18:24.000Z</time>
      </trkpt>
      <trkpt lat="42.90906" lon="-1.21323">
        <ele>890.415689</ele>
        <time>2026-05-22T16:18:25.000Z</time>
      </trkpt>
      <trkpt lat="42.90904" lon="-1.21323">
        <ele>890.518748</ele>
        <time>2026-05-22T16:18:26.000Z</time>
      </trkpt>
      <trkpt lat="42.90902" lon="-1.21323">
        <ele>890.626984</ele>
        <time>2026-05-22T16:18:27.000Z</time>
      </trkpt>
      <trkpt lat="42.909" lon="-1.21323">
        <ele>890.740831</ele>
        <time>2026-05-22T16:18:28.000Z</time>
      </trkpt>
      <trkpt lat="42.90898" lon="-1.21323">
        <ele>890.849284</ele>
        <time>2026-05-22T16:18:29.000Z</time>
      </trkpt>
      <trkpt lat="42.90897" lon="-1.21322">
        <ele>890.947353</ele>
        <time>2026-05-22T16:18:30.000Z</time>
      </trkpt>
      <trkpt lat="42.90895" lon="-1.21322">
        <ele>891.045021</ele>
        <time>2026-05-22T16:18:31.000Z</time>
      </trkpt>
      <trkpt lat="42.90893" lon="-1.21322">
        <ele>891.151811</ele>
        <time>2026-05-22T16:18:32.000Z</time>
      </trkpt>
      <trkpt lat="42.90891" lon="-1.21322">
        <ele>891.259909</ele>
        <time>2026-05-22T16:18:33.000Z</time>
      </trkpt>
      <trkpt lat="42.90889" lon="-1.21322">
        <ele>891.384705</ele>
        <time>2026-05-22T16:18:34.000Z</time>
      </trkpt>
      <trkpt lat="42.90887" lon="-1.21322">
        <ele>891.492564</ele>
        <time>2026-05-22T16:18:35.000Z</time>
      </trkpt>
      <trkpt lat="42.90885" lon="-1.21321">
        <ele>891.595007</ele>
        <time>2026-05-22T16:18:36.000Z</time>
      </trkpt>
      <trkpt lat="42.90883" lon="-1.21321">
        <ele>891.708762</ele>
        <time>2026-05-22T16:18:37.000Z</time>
      </trkpt>
      <trkpt lat="42.90881" lon="-1.21321">
        <ele>891.828175</ele>
        <time>2026-05-22T16:18:38.000Z</time>
      </trkpt>
      <trkpt lat="42.90879" lon="-1.21321">
        <ele>891.94193</ele>
        <time>2026-05-22T16:18:39.000Z</time>
      </trkpt>
      <trkpt lat="42.90877" lon="-1.2132">
        <ele>892.050982</ele>
        <time>2026-05-22T16:18:40.000Z</time>
      </trkpt>
      <trkpt lat="42.90875" lon="-1.2132">
        <ele>892.153173</ele>
        <time>2026-05-22T16:18:41.000Z</time>
      </trkpt>
      <trkpt lat="42.90873" lon="-1.2132">
        <ele>892.2667</ele>
        <time>2026-05-22T16:18:42.000Z</time>
      </trkpt>
      <trkpt lat="42.90871" lon="-1.2132">
        <ele>892.374558</ele>
        <time>2026-05-22T16:18:43.000Z</time>
      </trkpt>
      <trkpt lat="42.90869" lon="-1.2132">
        <ele>892.493971</ele>
        <time>2026-05-22T16:18:44.000Z</time>
      </trkpt>
      <trkpt lat="42.90867" lon="-1.2132">
        <ele>892.619388</ele>
        <time>2026-05-22T16:18:45.000Z</time>
      </trkpt>
      <trkpt lat="42.90865" lon="-1.2132">
        <ele>892.732915</ele>
        <time>2026-05-22T16:18:46.000Z</time>
      </trkpt>
      <trkpt lat="42.90863" lon="-1.2132">
        <ele>892.857988</ele>
        <time>2026-05-22T16:18:47.000Z</time>
      </trkpt>
      <trkpt lat="42.90861" lon="-1.2132">
        <ele>892.971515</ele>
        <time>2026-05-22T16:18:48.000Z</time>
      </trkpt>
      <trkpt lat="42.90859" lon="-1.2132">
        <ele>893.07362</ele>
        <time>2026-05-22T16:18:49.000Z</time>
      </trkpt>
      <trkpt lat="42.90857" lon="-1.2132">
        <ele>893.164381</ele>
        <time>2026-05-22T16:18:50.000Z</time>
      </trkpt>
      <trkpt lat="42.90856" lon="-1.21319">
        <ele>893.260904</ele>
        <time>2026-05-22T16:18:51.000Z</time>
      </trkpt>
      <trkpt lat="42.90854" lon="-1.21319">
        <ele>893.358759</ele>
        <time>2026-05-22T16:18:52.000Z</time>
      </trkpt>
      <trkpt lat="42.90853" lon="-1.21319">
        <ele>893.444755</ele>
        <time>2026-05-22T16:18:53.000Z</time>
      </trkpt>
      <trkpt lat="42.90851" lon="-1.21318">
        <ele>893.541991</ele>
        <time>2026-05-22T16:18:54.000Z</time>
      </trkpt>
      <trkpt lat="42.90849" lon="-1.21318">
        <ele>893.644434</ele>
        <time>2026-05-22T16:18:55.000Z</time>
      </trkpt>
      <trkpt lat="42.90847" lon="-1.21318">
        <ele>893.760592</ele>
        <time>2026-05-22T16:18:56.000Z</time>
      </trkpt>
      <trkpt lat="42.90845" lon="-1.21317">
        <ele>893.863456</ele>
        <time>2026-05-22T16:18:57.000Z</time>
      </trkpt>
      <trkpt lat="42.90843" lon="-1.21317">
        <ele>893.971554</ele>
        <time>2026-05-22T16:18:58.000Z</time>
      </trkpt>
      <trkpt lat="42.90842" lon="-1.21317">
        <ele>894.070199</ele>
        <time>2026-05-22T16:18:59.000Z</time>
      </trkpt>
      <trkpt lat="42.9084" lon="-1.21316">
        <ele>894.186357</ele>
        <time>2026-05-22T16:19:00.000Z</time>
      </trkpt>
      <trkpt lat="42.90838" lon="-1.21315">
        <ele>894.296981</ele>
        <time>2026-05-22T16:19:01.000Z</time>
      </trkpt>
      <trkpt lat="42.90836" lon="-1.21315">
        <ele>894.403148</ele>
        <time>2026-05-22T16:19:02.000Z</time>
      </trkpt>
      <trkpt lat="42.90834" lon="-1.21314">
        <ele>894.513384</ele>
        <time>2026-05-22T16:19:03.000Z</time>
      </trkpt>
      <trkpt lat="42.90832" lon="-1.21313">
        <ele>894.619551</ele>
        <time>2026-05-22T16:19:04.000Z</time>
      </trkpt>
      <trkpt lat="42.90831" lon="-1.21312">
        <ele>894.720274</ele>
        <time>2026-05-22T16:19:05.000Z</time>
      </trkpt>
      <trkpt lat="42.90829" lon="-1.21312">
        <ele>894.81693</ele>
        <time>2026-05-22T16:19:06.000Z</time>
      </trkpt>
      <trkpt lat="42.90827" lon="-1.2131">
        <ele>894.920484</ele>
        <time>2026-05-22T16:19:07.000Z</time>
      </trkpt>
      <trkpt lat="42.90826" lon="-1.2131">
        <ele>895.031108</ele>
        <time>2026-05-22T16:19:08.000Z</time>
      </trkpt>
      <trkpt lat="42.90824" lon="-1.21309">
        <ele>895.136213</ele>
        <time>2026-05-22T16:19:09.000Z</time>
      </trkpt>
      <trkpt lat="42.90822" lon="-1.21308">
        <ele>895.236936</ele>
        <time>2026-05-22T16:19:10.000Z</time>
      </trkpt>
      <trkpt lat="42.9082" lon="-1.21308">
        <ele>895.335098</ele>
        <time>2026-05-22T16:19:11.000Z</time>
      </trkpt>
      <trkpt lat="42.90819" lon="-1.21307">
        <ele>895.418335</ele>
        <time>2026-05-22T16:19:12.000Z</time>
      </trkpt>
      <trkpt lat="42.90817" lon="-1.21306">
        <ele>895.517938</ele>
        <time>2026-05-22T16:19:13.000Z</time>
      </trkpt>
      <trkpt lat="42.90816" lon="-1.21305">
        <ele>895.626676</ele>
        <time>2026-05-22T16:19:14.000Z</time>
      </trkpt>
      <trkpt lat="42.90814" lon="-1.21304">
        <ele>895.731679</ele>
        <time>2026-05-22T16:19:15.000Z</time>
      </trkpt>
      <trkpt lat="42.90812" lon="-1.21303">
        <ele>895.839657</ele>
        <time>2026-05-22T16:19:16.000Z</time>
      </trkpt>
      <trkpt lat="42.9081" lon="-1.21302">
        <ele>895.977899</ele>
        <time>2026-05-22T16:19:17.000Z</time>
      </trkpt>
      <trkpt lat="42.90808" lon="-1.213">
        <ele>896.109392</ele>
        <time>2026-05-22T16:19:18.000Z</time>
      </trkpt>
      <trkpt lat="42.90806" lon="-1.21299">
        <ele>896.223473</ele>
        <time>2026-05-22T16:19:19.000Z</time>
      </trkpt>
      <trkpt lat="42.90804" lon="-1.21298">
        <ele>896.342927</ele>
        <time>2026-05-22T16:19:20.000Z</time>
      </trkpt>
      <trkpt lat="42.90802" lon="-1.21297">
        <ele>896.49325</ele>
        <time>2026-05-22T16:19:21.000Z</time>
      </trkpt>
      <trkpt lat="42.908" lon="-1.21296">
        <ele>896.607331</ele>
        <time>2026-05-22T16:19:22.000Z</time>
      </trkpt>
      <trkpt lat="42.90798" lon="-1.21296">
        <ele>896.698944</ele>
        <time>2026-05-22T16:19:23.000Z</time>
      </trkpt>
      <trkpt lat="42.90796" lon="-1.21295">
        <ele>896.810812</ele>
        <time>2026-05-22T16:19:24.000Z</time>
      </trkpt>
      <trkpt lat="42.90794" lon="-1.21294">
        <ele>896.929564</ele>
        <time>2026-05-22T16:19:25.000Z</time>
      </trkpt>
      <trkpt lat="42.90793" lon="-1.21293">
        <ele>897.038616</ele>
        <time>2026-05-22T16:19:26.000Z</time>
      </trkpt>
      <trkpt lat="42.90791" lon="-1.21293">
        <ele>897.133923</ele>
        <time>2026-05-22T16:19:27.000Z</time>
      </trkpt>
      <trkpt lat="42.90789" lon="-1.21292">
        <ele>897.230713</ele>
        <time>2026-05-22T16:19:28.000Z</time>
      </trkpt>
      <trkpt lat="42.90787" lon="-1.21292">
        <ele>897.34424</ele>
        <time>2026-05-22T16:19:29.000Z</time>
      </trkpt>
      <trkpt lat="42.90785" lon="-1.21292">
        <ele>897.457995</ele>
        <time>2026-05-22T16:19:30.000Z</time>
      </trkpt>
      <trkpt lat="42.90783" lon="-1.21292">
        <ele>897.57175</ele>
        <time>2026-05-22T16:19:31.000Z</time>
      </trkpt>
      <trkpt lat="42.90781" lon="-1.21292">
        <ele>897.690946</ele>
        <time>2026-05-22T16:19:32.000Z</time>
      </trkpt>
      <trkpt lat="42.90779" lon="-1.21293">
        <ele>897.803734</ele>
        <time>2026-05-22T16:19:33.000Z</time>
      </trkpt>
      <trkpt lat="42.90777" lon="-1.21293">
        <ele>897.907183</ele>
        <time>2026-05-22T16:19:34.000Z</time>
      </trkpt>
      <trkpt lat="42.90775" lon="-1.21294">
        <ele>898.022521</ele>
        <time>2026-05-22T16:19:35.000Z</time>
      </trkpt>
      <trkpt lat="42.90773" lon="-1.21294">
        <ele>898.141934</ele>
        <time>2026-05-22T16:19:36.000Z</time>
      </trkpt>
      <trkpt lat="42.90771" lon="-1.21294">
        <ele>898.267351</ele>
        <time>2026-05-22T16:19:37.000Z</time>
      </trkpt>
      <trkpt lat="42.90769" lon="-1.21295">
        <ele>898.393864</ele>
        <time>2026-05-22T16:19:38.000Z</time>
      </trkpt>
      <trkpt lat="42.90767" lon="-1.21295">
        <ele>898.510984</ele>
        <time>2026-05-22T16:19:39.000Z</time>
      </trkpt>
      <trkpt lat="42.90765" lon="-1.21296">
        <ele>898.614413</ele>
        <time>2026-05-22T16:19:40.000Z</time>
      </trkpt>
      <trkpt lat="42.90763" lon="-1.21297">
        <ele>898.723151</ele>
        <time>2026-05-22T16:19:41.000Z</time>
      </trkpt>
      <trkpt lat="42.90762" lon="-1.21298">
        <ele>898.83678</ele>
        <time>2026-05-22T16:19:42.000Z</time>
      </trkpt>
      <trkpt lat="42.9076" lon="-1.21299">
        <ele>898.947015</ele>
        <time>2026-05-22T16:19:43.000Z</time>
      </trkpt>
      <trkpt lat="42.90758" lon="-1.213">
        <ele>899.069638</ele>
        <time>2026-05-22T16:19:44.000Z</time>
      </trkpt>
      <trkpt lat="42.90756" lon="-1.21301">
        <ele>899.192261</ele>
        <time>2026-05-22T16:19:45.000Z</time>
      </trkpt>
      <trkpt lat="42.90754" lon="-1.21302">
        <ele>899.316184</ele>
        <time>2026-05-22T16:19:46.000Z</time>
      </trkpt>
      <trkpt lat="42.90752" lon="-1.21303">
        <ele>899.414346</ele>
        <time>2026-05-22T16:19:47.000Z</time>
      </trkpt>
      <trkpt lat="42.9075" lon="-1.21304">
        <ele>899.51507</ele>
        <time>2026-05-22T16:19:48.000Z</time>
      </trkpt>
      <trkpt lat="42.90749" lon="-1.21305">
        <ele>899.616688</ele>
        <time>2026-05-22T16:19:49.000Z</time>
      </trkpt>
      <trkpt lat="42.90747" lon="-1.21306">
        <ele>899.706316</ele>
        <time>2026-05-22T16:19:50.000Z</time>
      </trkpt>
      <trkpt lat="42.90746" lon="-1.21307">
        <ele>899.816552</ele>
        <time>2026-05-22T16:19:51.000Z</time>
      </trkpt>
      <trkpt lat="42.90744" lon="-1.21308">
        <ele>899.913138</ele>
        <time>2026-05-22T16:19:52.000Z</time>
      </trkpt>
      <trkpt lat="42.90742" lon="-1.21309">
        <ele>900.016692</ele>
        <time>2026-05-22T16:19:53.000Z</time>
      </trkpt>
      <trkpt lat="42.90741" lon="-1.2131">
        <ele>900.104471</ele>
        <time>2026-05-22T16:19:54.000Z</time>
      </trkpt>
      <trkpt lat="42.9074" lon="-1.21311">
        <ele>900.191228</ele>
        <time>2026-05-22T16:19:55.000Z</time>
      </trkpt>
      <trkpt lat="42.90738" lon="-1.21313">
        <ele>900.299207</ele>
        <time>2026-05-22T16:19:56.000Z</time>
      </trkpt>
      <trkpt lat="42.90737" lon="-1.21314">
        <ele>900.411826</ele>
        <time>2026-05-22T16:19:57.000Z</time>
      </trkpt>
      <trkpt lat="42.90735" lon="-1.21315">
        <ele>900.516829</ele>
        <time>2026-05-22T16:19:58.000Z</time>
      </trkpt>
      <trkpt lat="42.90733" lon="-1.21316">
        <ele>900.631649</ele>
        <time>2026-05-22T16:19:59.000Z</time>
      </trkpt>
      <trkpt lat="42.90732" lon="-1.21317">
        <ele>900.721277</ele>
        <time>2026-05-22T16:20:00.000Z</time>
      </trkpt>
      <trkpt lat="42.9073" lon="-1.21318">
        <ele>900.824706</ele>
        <time>2026-05-22T16:20:01.000Z</time>
      </trkpt>
      <trkpt lat="42.90728" lon="-1.21319">
        <ele>900.940216</ele>
        <time>2026-05-22T16:20:02.000Z</time>
      </trkpt>
      <trkpt lat="42.90726" lon="-1.2132">
        <ele>901.043646</ele>
        <time>2026-05-22T16:20:03.000Z</time>
      </trkpt>
      <trkpt lat="42.90725" lon="-1.21321">
        <ele>901.148751</ele>
        <time>2026-05-22T16:20:04.000Z</time>
      </trkpt>
      <trkpt lat="42.90723" lon="-1.21322">
        <ele>901.260385</ele>
        <time>2026-05-22T16:20:05.000Z</time>
      </trkpt>
      <trkpt lat="42.90721" lon="-1.21322">
        <ele>901.364714</ele>
        <time>2026-05-22T16:20:06.000Z</time>
      </trkpt>
      <trkpt lat="42.90719" lon="-1.21323">
        <ele>901.475057</ele>
        <time>2026-05-22T16:20:07.000Z</time>
      </trkpt>
      <trkpt lat="42.90717" lon="-1.21324">
        <ele>901.590597</ele>
        <time>2026-05-22T16:20:08.000Z</time>
      </trkpt>
      <trkpt lat="42.90715" lon="-1.21325">
        <ele>901.702322</ele>
        <time>2026-05-22T16:20:09.000Z</time>
      </trkpt>
      <trkpt lat="42.90713" lon="-1.21326">
        <ele>901.80923</ele>
        <time>2026-05-22T16:20:10.000Z</time>
      </trkpt>
      <trkpt lat="42.90712" lon="-1.21327">
        <ele>901.910793</ele>
        <time>2026-05-22T16:20:11.000Z</time>
      </trkpt>
      <trkpt lat="42.9071" lon="-1.21329">
        <ele>902.003689</ele>
        <time>2026-05-22T16:20:12.000Z</time>
      </trkpt>
      <trkpt lat="42.90709" lon="-1.2133">
        <ele>902.099077</ele>
        <time>2026-05-22T16:20:13.000Z</time>
      </trkpt>
      <trkpt lat="42.90707" lon="-1.21331">
        <ele>902.187434</ele>
        <time>2026-05-22T16:20:14.000Z</time>
      </trkpt>
      <trkpt lat="42.90706" lon="-1.21332">
        <ele>902.283982</ele>
        <time>2026-05-22T16:20:15.000Z</time>
      </trkpt>
      <trkpt lat="42.90704" lon="-1.21333">
        <ele>902.385545</ele>
        <time>2026-05-22T16:20:16.000Z</time>
      </trkpt>
      <trkpt lat="42.90702" lon="-1.21334">
        <ele>902.479033</ele>
        <time>2026-05-22T16:20:17.000Z</time>
      </trkpt>
      <trkpt lat="42.90701" lon="-1.21334">
        <ele>902.587009</ele>
        <time>2026-05-22T16:20:18.000Z</time>
      </trkpt>
      <trkpt lat="42.90699" lon="-1.21334">
        <ele>902.686096</ele>
        <time>2026-05-22T16:20:19.000Z</time>
      </trkpt>
      <trkpt lat="42.90697" lon="-1.21335">
        <ele>902.77828</ele>
        <time>2026-05-22T16:20:20.000Z</time>
      </trkpt>
      <trkpt lat="42.90696" lon="-1.21336">
        <ele>902.876568</ele>
        <time>2026-05-22T16:20:21.000Z</time>
      </trkpt>
      <trkpt lat="42.90694" lon="-1.21337">
        <ele>902.983192</ele>
        <time>2026-05-22T16:20:22.000Z</time>
      </trkpt>
      <trkpt lat="42.90692" lon="-1.21338">
        <ele>903.086411</ele>
        <time>2026-05-22T16:20:23.000Z</time>
      </trkpt>
      <trkpt lat="42.9069" lon="-1.2134">
        <ele>903.196316</ele>
        <time>2026-05-22T16:20:24.000Z</time>
      </trkpt>
      <trkpt lat="42.90688" lon="-1.21341">
        <ele>903.30294</ele>
        <time>2026-05-22T16:20:25.000Z</time>
      </trkpt>
      <trkpt lat="42.90686" lon="-1.21341">
        <ele>903.419899</ele>
        <time>2026-05-22T16:20:26.000Z</time>
      </trkpt>
      <trkpt lat="42.90684" lon="-1.21341">
        <ele>903.530803</ele>
        <time>2026-05-22T16:20:27.000Z</time>
      </trkpt>
      <trkpt lat="42.90682" lon="-1.21342">
        <ele>903.642361</ele>
        <time>2026-05-22T16:20:28.000Z</time>
      </trkpt>
      <trkpt lat="42.9068" lon="-1.21343">
        <ele>903.760077</ele>
        <time>2026-05-22T16:20:29.000Z</time>
      </trkpt>
      <trkpt lat="42.90678" lon="-1.21343">
        <ele>903.876413</ele>
        <time>2026-05-22T16:20:30.000Z</time>
      </trkpt>
      <trkpt lat="42.90676" lon="-1.21343">
        <ele>903.993372</ele>
        <time>2026-05-22T16:20:31.000Z</time>
      </trkpt>
      <trkpt lat="42.90674" lon="-1.21344">
        <ele>904.103766</ele>
        <time>2026-05-22T16:20:32.000Z</time>
      </trkpt>
      <trkpt lat="42.90672" lon="-1.21344">
        <ele>904.221482</ele>
        <time>2026-05-22T16:20:33.000Z</time>
      </trkpt>
      <trkpt lat="42.9067" lon="-1.21345">
        <ele>904.326657</ele>
        <time>2026-05-22T16:20:34.000Z</time>
      </trkpt>
      <trkpt lat="42.90668" lon="-1.21346">
        <ele>904.441003</ele>
        <time>2026-05-22T16:20:35.000Z</time>
      </trkpt>
      <trkpt lat="42.90666" lon="-1.21347">
        <ele>904.559608</ele>
        <time>2026-05-22T16:20:36.000Z</time>
      </trkpt>
      <trkpt lat="42.90664" lon="-1.21347">
        <ele>904.670512</ele>
        <time>2026-05-22T16:20:37.000Z</time>
      </trkpt>
      <trkpt lat="42.90662" lon="-1.21348">
        <ele>904.78207</ele>
        <time>2026-05-22T16:20:38.000Z</time>
      </trkpt>
      <trkpt lat="42.9066" lon="-1.21348">
        <ele>904.88213</ele>
        <time>2026-05-22T16:20:39.000Z</time>
      </trkpt>
      <trkpt lat="42.90658" lon="-1.21349">
        <ele>904.989129</ele>
        <time>2026-05-22T16:20:40.000Z</time>
      </trkpt>
      <trkpt lat="42.90656" lon="-1.21349">
        <ele>905.096128</ele>
        <time>2026-05-22T16:20:41.000Z</time>
      </trkpt>
      <trkpt lat="42.90654" lon="-1.2135">
        <ele>905.206522</ele>
        <time>2026-05-22T16:20:42.000Z</time>
      </trkpt>
      <trkpt lat="42.90652" lon="-1.2135">
        <ele>905.327295</ele>
        <time>2026-05-22T16:20:43.000Z</time>
      </trkpt>
      <trkpt lat="42.9065" lon="-1.2135">
        <ele>905.448069</ele>
        <time>2026-05-22T16:20:44.000Z</time>
      </trkpt>
      <trkpt lat="42.90648" lon="-1.2135">
        <ele>905.569043</ele>
        <time>2026-05-22T16:20:45.000Z</time>
      </trkpt>
      <trkpt lat="42.90646" lon="-1.2135">
        <ele>905.67907</ele>
        <time>2026-05-22T16:20:46.000Z</time>
      </trkpt>
      <trkpt lat="42.90644" lon="-1.21351">
        <ele>905.77913</ele>
        <time>2026-05-22T16:20:47.000Z</time>
      </trkpt>
      <trkpt lat="42.90642" lon="-1.21351">
        <ele>905.884071</ele>
        <time>2026-05-22T16:20:48.000Z</time>
      </trkpt>
      <trkpt lat="42.9064" lon="-1.21351">
        <ele>905.999291</ele>
        <time>2026-05-22T16:20:49.000Z</time>
      </trkpt>
      <trkpt lat="42.90638" lon="-1.21351">
        <ele>906.110196</ele>
        <time>2026-05-22T16:20:50.000Z</time>
      </trkpt>
      <trkpt lat="42.90636" lon="-1.21352">
        <ele>906.215675</ele>
        <time>2026-05-22T16:20:51.000Z</time>
      </trkpt>
      <trkpt lat="42.90634" lon="-1.21352">
        <ele>906.32365</ele>
        <time>2026-05-22T16:20:52.000Z</time>
      </trkpt>
      <trkpt lat="42.90632" lon="-1.21353">
        <ele>906.433678</ele>
        <time>2026-05-22T16:20:53.000Z</time>
      </trkpt>
      <trkpt lat="42.9063" lon="-1.21353">
        <ele>906.533171</ele>
        <time>2026-05-22T16:20:54.000Z</time>
      </trkpt>
      <trkpt lat="42.90628" lon="-1.21353">
        <ele>906.642978</ele>
        <time>2026-05-22T16:20:55.000Z</time>
      </trkpt>
      <trkpt lat="42.90626" lon="-1.21353">
        <ele>906.753371</ele>
        <time>2026-05-22T16:20:56.000Z</time>
      </trkpt>
      <trkpt lat="42.90624" lon="-1.21354">
        <ele>906.864276</ele>
        <time>2026-05-22T16:20:57.000Z</time>
      </trkpt>
      <trkpt lat="42.90622" lon="-1.21354">
        <ele>906.981235</ele>
        <time>2026-05-22T16:20:58.000Z</time>
      </trkpt>
      <trkpt lat="42.9062" lon="-1.21354">
        <ele>907.096455</ele>
        <time>2026-05-22T16:20:59.000Z</time>
      </trkpt>
      <trkpt lat="42.90618" lon="-1.21354">
        <ele>907.211745</ele>
        <time>2026-05-22T16:21:00.000Z</time>
      </trkpt>
      <trkpt lat="42.90616" lon="-1.21354">
        <ele>907.327035</ele>
        <time>2026-05-22T16:21:01.000Z</time>
      </trkpt>
      <trkpt lat="42.90614" lon="-1.21354">
        <ele>907.437063</ele>
        <time>2026-05-22T16:21:02.000Z</time>
      </trkpt>
      <trkpt lat="42.90612" lon="-1.21353">
        <ele>907.552912</ele>
        <time>2026-05-22T16:21:03.000Z</time>
      </trkpt>
      <trkpt lat="42.9061" lon="-1.21353">
        <ele>907.651753</ele>
        <time>2026-05-22T16:21:04.000Z</time>
      </trkpt>
      <trkpt lat="42.90608" lon="-1.21354">
        <ele>907.757232</ele>
        <time>2026-05-22T16:21:05.000Z</time>
      </trkpt>
      <trkpt lat="42.90606" lon="-1.21354">
        <ele>907.868137</ele>
        <time>2026-05-22T16:21:06.000Z</time>
      </trkpt>
      <trkpt lat="42.90604" lon="-1.21354">
        <ele>907.972693</ele>
        <time>2026-05-22T16:21:07.000Z</time>
      </trkpt>
      <trkpt lat="42.90602" lon="-1.21354">
        <ele>908.077017</ele>
        <time>2026-05-22T16:21:08.000Z</time>
      </trkpt>
      <trkpt lat="42.90601" lon="-1.21354">
        <ele>908.181341</ele>
        <time>2026-05-22T16:21:09.000Z</time>
      </trkpt>
      <trkpt lat="42.90599" lon="-1.21354">
        <ele>908.291368</ele>
        <time>2026-05-22T16:21:10.000Z</time>
      </trkpt>
      <trkpt lat="42.90597" lon="-1.21354">
        <ele>908.395615</ele>
        <time>2026-05-22T16:21:11.000Z</time>
      </trkpt>
      <trkpt lat="42.90595" lon="-1.21354">
        <ele>908.495108</ele>
        <time>2026-05-22T16:21:12.000Z</time>
      </trkpt>
      <trkpt lat="42.90593" lon="-1.21355">
        <ele>908.59395</ele>
        <time>2026-05-22T16:21:13.000Z</time>
      </trkpt>
      <trkpt lat="42.90591" lon="-1.21355">
        <ele>908.698197</ele>
        <time>2026-05-22T16:21:14.000Z</time>
      </trkpt>
      <trkpt lat="42.90589" lon="-1.21355">
        <ele>908.796957</ele>
        <time>2026-05-22T16:21:15.000Z</time>
      </trkpt>
      <trkpt lat="42.90587" lon="-1.21355">
        <ele>908.901203</ele>
        <time>2026-05-22T16:21:16.000Z</time>
      </trkpt>
      <trkpt lat="42.90585" lon="-1.21355">
        <ele>909.016423</ele>
        <time>2026-05-22T16:21:17.000Z</time>
      </trkpt>
      <trkpt lat="42.90583" lon="-1.21355">
        <ele>909.131713</ele>
        <time>2026-05-22T16:21:18.000Z</time>
      </trkpt>
      <trkpt lat="42.90581" lon="-1.21355">
        <ele>909.24152</ele>
        <time>2026-05-22T16:21:19.000Z</time>
      </trkpt>
      <trkpt lat="42.90579" lon="-1.21355">
        <ele>909.351548</ele>
        <time>2026-05-22T16:21:20.000Z</time>
      </trkpt>
      <trkpt lat="42.90577" lon="-1.21354">
        <ele>909.450634</ele>
        <time>2026-05-22T16:21:21.000Z</time>
      </trkpt>
      <trkpt lat="42.90575" lon="-1.21354">
        <ele>909.560367</ele>
        <time>2026-05-22T16:21:22.000Z</time>
      </trkpt>
      <trkpt lat="42.90574" lon="-1.21354">
        <ele>909.659209</ele>
        <time>2026-05-22T16:21:23.000Z</time>
      </trkpt>
      <trkpt lat="42.90572" lon="-1.21354">
        <ele>909.763533</ele>
        <time>2026-05-22T16:21:24.000Z</time>
      </trkpt>
      <trkpt lat="42.9057" lon="-1.21355">
        <ele>909.879382</ele>
        <time>2026-05-22T16:21:25.000Z</time>
      </trkpt>
      <trkpt lat="42.90568" lon="-1.21355">
        <ele>909.994673</ele>
        <time>2026-05-22T16:21:26.000Z</time>
      </trkpt>
      <trkpt lat="42.90565" lon="-1.21354">
        <ele>910.110173</ele>
        <time>2026-05-22T16:21:27.000Z</time>
      </trkpt>
      <trkpt lat="42.90564" lon="-1.21355">
        <ele>910.209259</ele>
        <time>2026-05-22T16:21:28.000Z</time>
      </trkpt>
      <trkpt lat="42.90562" lon="-1.21355">
        <ele>910.313583</ele>
        <time>2026-05-22T16:21:29.000Z</time>
      </trkpt>
      <trkpt lat="42.9056" lon="-1.21355">
        <ele>910.428803</ele>
        <time>2026-05-22T16:21:30.000Z</time>
      </trkpt>
      <trkpt lat="42.90558" lon="-1.21355">
        <ele>910.53861</ele>
        <time>2026-05-22T16:21:31.000Z</time>
      </trkpt>
      <trkpt lat="42.90555" lon="-1.21355">
        <ele>910.659317</ele>
        <time>2026-05-22T16:21:32.000Z</time>
      </trkpt>
      <trkpt lat="42.90553" lon="-1.21355">
        <ele>910.774537</ele>
        <time>2026-05-22T16:21:33.000Z</time>
      </trkpt>
      <trkpt lat="42.90551" lon="-1.21354">
        <ele>910.879478</ele>
        <time>2026-05-22T16:21:34.000Z</time>
      </trkpt>
      <trkpt lat="42.9055" lon="-1.21354">
        <ele>910.978565</ele>
        <time>2026-05-22T16:21:35.000Z</time>
      </trkpt>
      <trkpt lat="42.90548" lon="-1.21354">
        <ele>911.084731</ele>
        <time>2026-05-22T16:21:36.000Z</time>
      </trkpt>
      <trkpt lat="42.90546" lon="-1.21353">
        <ele>911.178991</ele>
        <time>2026-05-22T16:21:37.000Z</time>
      </trkpt>
      <trkpt lat="42.90544" lon="-1.21353">
        <ele>911.278421</ele>
        <time>2026-05-22T16:21:38.000Z</time>
      </trkpt>
      <trkpt lat="42.90542" lon="-1.21353">
        <ele>911.383599</ele>
        <time>2026-05-22T16:21:39.000Z</time>
      </trkpt>
      <trkpt lat="42.90541" lon="-1.21354">
        <ele>911.484983</ele>
        <time>2026-05-22T16:21:40.000Z</time>
      </trkpt>
      <trkpt lat="42.90539" lon="-1.21354">
        <ele>911.595443</ele>
        <time>2026-05-22T16:21:41.000Z</time>
      </trkpt>
      <trkpt lat="42.90537" lon="-1.21354">
        <ele>911.700388</ele>
        <time>2026-05-22T16:21:42.000Z</time>
      </trkpt>
      <trkpt lat="42.90535" lon="-1.21354">
        <ele>911.805333</ele>
        <time>2026-05-22T16:21:43.000Z</time>
      </trkpt>
      <trkpt lat="42.90533" lon="-1.21354">
        <ele>911.910898</ele>
        <time>2026-05-22T16:21:44.000Z</time>
      </trkpt>
      <trkpt lat="42.90531" lon="-1.21354">
        <ele>912.015843</ele>
        <time>2026-05-22T16:21:45.000Z</time>
      </trkpt>
      <trkpt lat="42.90529" lon="-1.21354">
        <ele>912.115191</ele>
        <time>2026-05-22T16:21:46.000Z</time>
      </trkpt>
      <trkpt lat="42.90527" lon="-1.21354">
        <ele>912.215276</ele>
        <time>2026-05-22T16:21:47.000Z</time>
      </trkpt>
      <trkpt lat="42.90526" lon="-1.21354">
        <ele>912.309191</ele>
        <time>2026-05-22T16:21:48.000Z</time>
      </trkpt>
      <trkpt lat="42.90524" lon="-1.21354">
        <ele>912.42622</ele>
        <time>2026-05-22T16:21:49.000Z</time>
      </trkpt>
      <trkpt lat="42.90522" lon="-1.21353">
        <ele>912.537784</ele>
        <time>2026-05-22T16:21:50.000Z</time>
      </trkpt>
      <trkpt lat="42.9052" lon="-1.21353">
        <ele>912.64542</ele>
        <time>2026-05-22T16:21:51.000Z</time>
      </trkpt>
      <trkpt lat="42.90518" lon="-1.21352">
        <ele>912.763075</ele>
        <time>2026-05-22T16:21:52.000Z</time>
      </trkpt>
      <trkpt lat="42.90515" lon="-1.21351">
        <ele>912.888733</ele>
        <time>2026-05-22T16:21:53.000Z</time>
      </trkpt>
      <trkpt lat="42.90513" lon="-1.21351">
        <ele>912.99484</ele>
        <time>2026-05-22T16:21:54.000Z</time>
      </trkpt>
      <trkpt lat="42.90511" lon="-1.2135">
        <ele>913.112495</ele>
        <time>2026-05-22T16:21:55.000Z</time>
      </trkpt>
      <trkpt lat="42.90509" lon="-1.2135">
        <ele>913.230911</ele>
        <time>2026-05-22T16:21:56.000Z</time>
      </trkpt>
      <trkpt lat="42.90507" lon="-1.21349">
        <ele>913.33953</ele>
        <time>2026-05-22T16:21:57.000Z</time>
      </trkpt>
      <trkpt lat="42.90505" lon="-1.21348">
        <ele>913.45884</ele>
        <time>2026-05-22T16:21:58.000Z</time>
      </trkpt>
      <trkpt lat="42.90503" lon="-1.21348">
        <ele>913.576495</ele>
        <time>2026-05-22T16:21:59.000Z</time>
      </trkpt>
      <trkpt lat="42.90501" lon="-1.21348">
        <ele>913.682061</ele>
        <time>2026-05-22T16:22:00.000Z</time>
      </trkpt>
      <trkpt lat="42.90499" lon="-1.21347">
        <ele>913.803544</ele>
        <time>2026-05-22T16:22:01.000Z</time>
      </trkpt>
      <trkpt lat="42.90497" lon="-1.21346">
        <ele>913.911179</ele>
        <time>2026-05-22T16:22:02.000Z</time>
      </trkpt>
      <trkpt lat="42.90495" lon="-1.21346">
        <ele>914.028208</ele>
        <time>2026-05-22T16:22:03.000Z</time>
      </trkpt>
      <trkpt lat="42.90493" lon="-1.21346">
        <ele>914.144184</ele>
        <time>2026-05-22T16:22:04.000Z</time>
      </trkpt>
      <trkpt lat="42.90491" lon="-1.21346">
        <ele>914.249128</ele>
        <time>2026-05-22T16:22:05.000Z</time>
      </trkpt>
      <trkpt lat="42.90489" lon="-1.21346">
        <ele>914.359589</ele>
        <time>2026-05-22T16:22:06.000Z</time>
      </trkpt>
      <trkpt lat="42.90487" lon="-1.21346">
        <ele>914.464456</ele>
        <time>2026-05-22T16:22:07.000Z</time>
      </trkpt>
      <trkpt lat="42.90485" lon="-1.21346">
        <ele>914.5914</ele>
        <time>2026-05-22T16:22:08.000Z</time>
      </trkpt>
      <trkpt lat="42.90483" lon="-1.21346">
        <ele>914.702082</ele>
        <time>2026-05-22T16:22:09.000Z</time>
      </trkpt>
      <trkpt lat="42.90481" lon="-1.21347">
        <ele>914.817109</ele>
        <time>2026-05-22T16:22:10.000Z</time>
      </trkpt>
      <trkpt lat="42.90479" lon="-1.21347">
        <ele>914.932135</ele>
        <time>2026-05-22T16:22:11.000Z</time>
      </trkpt>
      <trkpt lat="42.90477" lon="-1.21348">
        <ele>915.060114</ele>
        <time>2026-05-22T16:22:12.000Z</time>
      </trkpt>
      <trkpt lat="42.90475" lon="-1.21349">
        <ele>915.171113</ele>
        <time>2026-05-22T16:22:13.000Z</time>
      </trkpt>
      <trkpt lat="42.90473" lon="-1.2135">
        <ele>915.278372</ele>
        <time>2026-05-22T16:22:14.000Z</time>
      </trkpt>
      <trkpt lat="42.90471" lon="-1.21351">
        <ele>915.373883</ele>
        <time>2026-05-22T16:22:15.000Z</time>
      </trkpt>
      <trkpt lat="42.9047" lon="-1.21352">
        <ele>915.476051</ele>
        <time>2026-05-22T16:22:16.000Z</time>
      </trkpt>
      <trkpt lat="42.90468" lon="-1.21353">
        <ele>915.574925</ele>
        <time>2026-05-22T16:22:17.000Z</time>
      </trkpt>
      <trkpt lat="42.90466" lon="-1.21354">
        <ele>915.677093</ele>
        <time>2026-05-22T16:22:18.000Z</time>
      </trkpt>
      <trkpt lat="42.90465" lon="-1.21356">
        <ele>915.775156</ele>
        <time>2026-05-22T16:22:19.000Z</time>
      </trkpt>
      <trkpt lat="42.90463" lon="-1.21357">
        <ele>915.878989</ele>
        <time>2026-05-22T16:22:20.000Z</time>
      </trkpt>
      <trkpt lat="42.90461" lon="-1.21358">
        <ele>915.98479</ele>
        <time>2026-05-22T16:22:21.000Z</time>
      </trkpt>
      <trkpt lat="42.9046" lon="-1.21358">
        <ele>916.090591</ele>
        <time>2026-05-22T16:22:22.000Z</time>
      </trkpt>
      <trkpt lat="42.90458" lon="-1.2136">
        <ele>916.199438</ele>
        <time>2026-05-22T16:22:23.000Z</time>
      </trkpt>
      <trkpt lat="42.90456" lon="-1.21361">
        <ele>916.308285</ele>
        <time>2026-05-22T16:22:24.000Z</time>
      </trkpt>
      <trkpt lat="42.90454" lon="-1.21362">
        <ele>916.420675</ele>
        <time>2026-05-22T16:22:25.000Z</time>
      </trkpt>
      <trkpt lat="42.90452" lon="-1.21363">
        <ele>916.537975</ele>
        <time>2026-05-22T16:22:26.000Z</time>
      </trkpt>
      <trkpt lat="42.9045" lon="-1.21364">
        <ele>916.651882</ele>
        <time>2026-05-22T16:22:27.000Z</time>
      </trkpt>
      <trkpt lat="42.90448" lon="-1.21365">
        <ele>916.761623</ele>
        <time>2026-05-22T16:22:28.000Z</time>
      </trkpt>
      <trkpt lat="42.90446" lon="-1.21366">
        <ele>916.885767</ele>
        <time>2026-05-22T16:22:29.000Z</time>
      </trkpt>
      <trkpt lat="42.90445" lon="-1.21367">
        <ele>916.984642</ele>
        <time>2026-05-22T16:22:30.000Z</time>
      </trkpt>
      <trkpt lat="42.90443" lon="-1.21368">
        <ele>917.098981</ele>
        <time>2026-05-22T16:22:31.000Z</time>
      </trkpt>
      <trkpt lat="42.90441" lon="-1.2137">
        <ele>917.203872</ele>
        <time>2026-05-22T16:22:32.000Z</time>
      </trkpt>
      <trkpt lat="42.9044" lon="-1.21371">
        <ele>917.312718</ele>
        <time>2026-05-22T16:22:33.000Z</time>
      </trkpt>
      <trkpt lat="42.90438" lon="-1.21372">
        <ele>917.418347</ele>
        <time>2026-05-22T16:22:34.000Z</time>
      </trkpt>
      <trkpt lat="42.90436" lon="-1.21373">
        <ele>917.519105</ele>
        <time>2026-05-22T16:22:35.000Z</time>
      </trkpt>
      <trkpt lat="42.90435" lon="-1.21375">
        <ele>917.615709</ele>
        <time>2026-05-22T16:22:36.000Z</time>
      </trkpt>
      <trkpt lat="42.90434" lon="-1.21377">
        <ele>917.719122</ele>
        <time>2026-05-22T16:22:37.000Z</time>
      </trkpt>
      <trkpt lat="42.90432" lon="-1.21378">
        <ele>917.826249</ele>
        <time>2026-05-22T16:22:38.000Z</time>
      </trkpt>
      <trkpt lat="42.90431" lon="-1.2138">
        <ele>917.922031</ele>
        <time>2026-05-22T16:22:39.000Z</time>
      </trkpt>
      <trkpt lat="42.90429" lon="-1.21381">
        <ele>918.020094</ele>
        <time>2026-05-22T16:22:40.000Z</time>
      </trkpt>
      <trkpt lat="42.90428" lon="-1.21382">
        <ele>918.112228</ele>
        <time>2026-05-22T16:22:41.000Z</time>
      </trkpt>
      <trkpt lat="42.90426" lon="-1.21383">
        <ele>918.222788</ele>
        <time>2026-05-22T16:22:42.000Z</time>
      </trkpt>
      <trkpt lat="42.90424" lon="-1.21384">
        <ele>918.328416</ele>
        <time>2026-05-22T16:22:43.000Z</time>
      </trkpt>
      <trkpt lat="42.90423" lon="-1.21386">
        <ele>918.429188</ele>
        <time>2026-05-22T16:22:44.000Z</time>
      </trkpt>
      <trkpt lat="42.90421" lon="-1.21387">
        <ele>918.520576</ele>
        <time>2026-05-22T16:22:45.000Z</time>
      </trkpt>
      <trkpt lat="42.9042" lon="-1.21388">
        <ele>918.621334</ele>
        <time>2026-05-22T16:22:46.000Z</time>
      </trkpt>
      <trkpt lat="42.90418" lon="-1.2139">
        <ele>918.726962</ele>
        <time>2026-05-22T16:22:47.000Z</time>
      </trkpt>
      <trkpt lat="42.90416" lon="-1.21391">
        <ele>918.841302</ele>
        <time>2026-05-22T16:22:48.000Z</time>
      </trkpt>
      <trkpt lat="42.90415" lon="-1.21392">
        <ele>918.94693</ele>
        <time>2026-05-22T16:22:49.000Z</time>
      </trkpt>
      <trkpt lat="42.90413" lon="-1.21393">
        <ele>919.060837</ele>
        <time>2026-05-22T16:22:50.000Z</time>
      </trkpt>
      <trkpt lat="42.90411" lon="-1.21394">
        <ele>919.174744</ele>
        <time>2026-05-22T16:22:51.000Z</time>
      </trkpt>
      <trkpt lat="42.90409" lon="-1.21396">
        <ele>919.292044</ele>
        <time>2026-05-22T16:22:52.000Z</time>
      </trkpt>
      <trkpt lat="42.90407" lon="-1.21397">
        <ele>919.404438</ele>
        <time>2026-05-22T16:22:53.000Z</time>
      </trkpt>
      <trkpt lat="42.90405" lon="-1.21398">
        <ele>919.506605</ele>
        <time>2026-05-22T16:22:54.000Z</time>
      </trkpt>
      <trkpt lat="42.90403" lon="-1.21399">
        <ele>919.620512</ele>
        <time>2026-05-22T16:22:55.000Z</time>
      </trkpt>
      <trkpt lat="42.90402" lon="-1.214">
        <ele>919.731073</ele>
        <time>2026-05-22T16:22:56.000Z</time>
      </trkpt>
      <trkpt lat="42.904" lon="-1.21401">
        <ele>919.835552</ele>
        <time>2026-05-22T16:22:57.000Z</time>
      </trkpt>
      <trkpt lat="42.90398" lon="-1.21402">
        <ele>919.924706</ele>
        <time>2026-05-22T16:22:58.000Z</time>
      </trkpt>
      <trkpt lat="42.90397" lon="-1.21403">
        <ele>920.033553</ele>
        <time>2026-05-22T16:22:59.000Z</time>
      </trkpt>
      <trkpt lat="42.90395" lon="-1.21404">
        <ele>920.132428</ele>
        <time>2026-05-22T16:23:00.000Z</time>
      </trkpt>
      <trkpt lat="42.90393" lon="-1.21405">
        <ele>920.234596</ele>
        <time>2026-05-22T16:23:01.000Z</time>
      </trkpt>
      <trkpt lat="42.90391" lon="-1.21406">
        <ele>920.350824</ele>
        <time>2026-05-22T16:23:02.000Z</time>
      </trkpt>
      <trkpt lat="42.90389" lon="-1.21407">
        <ele>920.460565</ele>
        <time>2026-05-22T16:23:03.000Z</time>
      </trkpt>
      <trkpt lat="42.90388" lon="-1.21408">
        <ele>920.569412</ele>
        <time>2026-05-22T16:23:04.000Z</time>
      </trkpt>
      <trkpt lat="42.90386" lon="-1.21409">
        <ele>920.666536</ele>
        <time>2026-05-22T16:23:05.000Z</time>
      </trkpt>
      <trkpt lat="42.90385" lon="-1.21411">
        <ele>920.764599</ele>
        <time>2026-05-22T16:23:06.000Z</time>
      </trkpt>
      <trkpt lat="42.90383" lon="-1.21412">
        <ele>920.858577</ele>
        <time>2026-05-22T16:23:07.000Z</time>
      </trkpt>
      <trkpt lat="42.90382" lon="-1.21413">
        <ele>920.945785</ele>
        <time>2026-05-22T16:23:08.000Z</time>
      </trkpt>
      <trkpt lat="42.9038" lon="-1.21413">
        <ele>921.050265</ele>
        <time>2026-05-22T16:23:09.000Z</time>
      </trkpt>
      <trkpt lat="42.90378" lon="-1.21414">
        <ele>921.183539</ele>
        <time>2026-05-22T16:23:10.000Z</time>
      </trkpt>
      <trkpt lat="42.90376" lon="-1.21415">
        <ele>921.309588</ele>
        <time>2026-05-22T16:23:11.000Z</time>
      </trkpt>
      <trkpt lat="42.90374" lon="-1.21416">
        <ele>921.419137</ele>
        <time>2026-05-22T16:23:12.000Z</time>
      </trkpt>
      <trkpt lat="42.90372" lon="-1.21418">
        <ele>921.538928</ele>
        <time>2026-05-22T16:23:13.000Z</time>
      </trkpt>
      <trkpt lat="42.90371" lon="-1.21419">
        <ele>921.644946</ele>
        <time>2026-05-22T16:23:14.000Z</time>
      </trkpt>
      <trkpt lat="42.90369" lon="-1.2142">
        <ele>921.763965</ele>
        <time>2026-05-22T16:23:15.000Z</time>
      </trkpt>
      <trkpt lat="42.90367" lon="-1.21421">
        <ele>921.884478</ele>
        <time>2026-05-22T16:23:16.000Z</time>
      </trkpt>
      <trkpt lat="42.90365" lon="-1.21422">
        <ele>921.989625</ele>
        <time>2026-05-22T16:23:17.000Z</time>
      </trkpt>
      <trkpt lat="42.90364" lon="-1.21423">
        <ele>922.080139</ele>
        <time>2026-05-22T16:23:18.000Z</time>
      </trkpt>
      <trkpt lat="42.90362" lon="-1.21425">
        <ele>922.191474</ele>
        <time>2026-05-22T16:23:19.000Z</time>
      </trkpt>
      <trkpt lat="42.90361" lon="-1.21426">
        <ele>922.311984</ele>
        <time>2026-05-22T16:23:20.000Z</time>
      </trkpt>
      <trkpt lat="42.90359" lon="-1.21427">
        <ele>922.421533</ele>
        <time>2026-05-22T16:23:21.000Z</time>
      </trkpt>
      <trkpt lat="42.90357" lon="-1.21428">
        <ele>922.543669</ele>
        <time>2026-05-22T16:23:22.000Z</time>
      </trkpt>
      <trkpt lat="42.90355" lon="-1.21429">
        <ele>922.658676</ele>
        <time>2026-05-22T16:23:23.000Z</time>
      </trkpt>
      <trkpt lat="42.90353" lon="-1.2143">
        <ele>922.780812</ele>
        <time>2026-05-22T16:23:24.000Z</time>
      </trkpt>
      <trkpt lat="42.90351" lon="-1.21431">
        <ele>922.904705</ele>
        <time>2026-05-22T16:23:25.000Z</time>
      </trkpt>
      <trkpt lat="42.9035" lon="-1.21432">
        <ele>923.017965</ele>
        <time>2026-05-22T16:23:26.000Z</time>
      </trkpt>
      <trkpt lat="42.90348" lon="-1.21433">
        <ele>923.120854</ele>
        <time>2026-05-22T16:23:27.000Z</time>
      </trkpt>
      <trkpt lat="42.90347" lon="-1.21435">
        <ele>923.223744</ele>
        <time>2026-05-22T16:23:28.000Z</time>
      </trkpt>
      <trkpt lat="42.90345" lon="-1.21436">
        <ele>923.336213</ele>
        <time>2026-05-22T16:23:29.000Z</time>
      </trkpt>
      <trkpt lat="42.90343" lon="-1.21437">
        <ele>923.469226</ele>
        <time>2026-05-22T16:23:30.000Z</time>
      </trkpt>
      <trkpt lat="42.90341" lon="-1.21439">
        <ele>923.582486</ele>
        <time>2026-05-22T16:23:31.000Z</time>
      </trkpt>
      <trkpt lat="42.9034" lon="-1.21439">
        <ele>923.69593</ele>
        <time>2026-05-22T16:23:32.000Z</time>
      </trkpt>
      <trkpt lat="42.90338" lon="-1.2144">
        <ele>923.819267</ele>
        <time>2026-05-22T16:23:33.000Z</time>
      </trkpt>
      <trkpt lat="42.90336" lon="-1.21441">
        <ele>923.932527</ele>
        <time>2026-05-22T16:23:34.000Z</time>
      </trkpt>
      <trkpt lat="42.90334" lon="-1.21442">
        <ele>924.036667</ele>
        <time>2026-05-22T16:23:35.000Z</time>
      </trkpt>
      <trkpt lat="42.90332" lon="-1.21443">
        <ele>924.150111</ele>
        <time>2026-05-22T16:23:36.000Z</time>
      </trkpt>
      <trkpt lat="42.90331" lon="-1.21444">
        <ele>924.254252</ele>
        <time>2026-05-22T16:23:37.000Z</time>
      </trkpt>
      <trkpt lat="42.90329" lon="-1.21446">
        <ele>924.372799</ele>
        <time>2026-05-22T16:23:38.000Z</time>
      </trkpt>
      <trkpt lat="42.90327" lon="-1.21447">
        <ele>924.484135</ele>
        <time>2026-05-22T16:23:39.000Z</time>
      </trkpt>
      <trkpt lat="42.90326" lon="-1.21448">
        <ele>924.592172</ele>
        <time>2026-05-22T16:23:40.000Z</time>
      </trkpt>
      <trkpt lat="42.90324" lon="-1.21449">
        <ele>924.69819</ele>
        <time>2026-05-22T16:23:41.000Z</time>
      </trkpt>
      <trkpt lat="42.90323" lon="-1.2145">
        <ele>924.800601</ele>
        <time>2026-05-22T16:23:42.000Z</time>
      </trkpt>
      <trkpt lat="42.90321" lon="-1.21451">
        <ele>924.908508</ele>
        <time>2026-05-22T16:23:43.000Z</time>
      </trkpt>
      <trkpt lat="42.90319" lon="-1.21451">
        <ele>925.023021</ele>
        <time>2026-05-22T16:23:44.000Z</time>
      </trkpt>
      <trkpt lat="42.90317" lon="-1.21452">
        <ele>925.136213</ele>
        <time>2026-05-22T16:23:45.000Z</time>
      </trkpt>
      <trkpt lat="42.90315" lon="-1.21452">
        <ele>925.249985</ele>
        <time>2026-05-22T16:23:46.000Z</time>
      </trkpt>
      <trkpt lat="42.90313" lon="-1.21453">
        <ele>925.363245</ele>
        <time>2026-05-22T16:23:47.000Z</time>
      </trkpt>
      <trkpt lat="42.90312" lon="-1.21454">
        <ele>925.473435</ele>
        <time>2026-05-22T16:23:48.000Z</time>
      </trkpt>
      <trkpt lat="42.9031" lon="-1.21456">
        <ele>925.585904</ele>
        <time>2026-05-22T16:23:49.000Z</time>
      </trkpt>
      <trkpt lat="42.90308" lon="-1.21457">
        <ele>925.704452</ele>
        <time>2026-05-22T16:23:50.000Z</time>
      </trkpt>
      <trkpt lat="42.90306" lon="-1.21458">
        <ele>925.830501</ele>
        <time>2026-05-22T16:23:51.000Z</time>
      </trkpt>
      <trkpt lat="42.90305" lon="-1.21459">
        <ele>925.933391</ele>
        <time>2026-05-22T16:23:52.000Z</time>
      </trkpt>
      <trkpt lat="42.90303" lon="-1.21461">
        <ele>926.043581</ele>
        <time>2026-05-22T16:23:53.000Z</time>
      </trkpt>
      <trkpt lat="42.90301" lon="-1.21462">
        <ele>926.167474</ele>
        <time>2026-05-22T16:23:54.000Z</time>
      </trkpt>
      <trkpt lat="42.903" lon="-1.21463">
        <ele>926.27881</ele>
        <time>2026-05-22T16:23:55.000Z</time>
      </trkpt>
      <trkpt lat="42.90298" lon="-1.21464">
        <ele>926.397357</ele>
        <time>2026-05-22T16:23:56.000Z</time>
      </trkpt>
      <trkpt lat="42.90296" lon="-1.21465">
        <ele>926.519494</ele>
        <time>2026-05-22T16:23:57.000Z</time>
      </trkpt>
      <trkpt lat="42.90294" lon="-1.21466">
        <ele>926.625512</ele>
        <time>2026-05-22T16:23:58.000Z</time>
      </trkpt>
      <trkpt lat="42.90293" lon="-1.21467">
        <ele>926.729652</ele>
        <time>2026-05-22T16:23:59.000Z</time>
      </trkpt>
      <trkpt lat="42.90291" lon="-1.21469">
        <ele>926.857428</ele>
        <time>2026-05-22T16:24:00.000Z</time>
      </trkpt>
      <trkpt lat="42.90289" lon="-1.2147">
        <ele>926.965335</ele>
        <time>2026-05-22T16:24:01.000Z</time>
      </trkpt>
      <trkpt lat="42.90288" lon="-1.21471">
        <ele>927.078595</ele>
        <time>2026-05-22T16:24:02.000Z</time>
      </trkpt>
      <trkpt lat="42.90286" lon="-1.21472">
        <ele>927.191855</ele>
        <time>2026-05-22T16:24:03.000Z</time>
      </trkpt>
      <trkpt lat="42.90284" lon="-1.21473">
        <ele>927.305299</ele>
        <time>2026-05-22T16:24:04.000Z</time>
      </trkpt>
      <trkpt lat="42.90282" lon="-1.21474">
        <ele>927.427436</ele>
        <time>2026-05-22T16:24:05.000Z</time>
      </trkpt>
      <trkpt lat="42.90281" lon="-1.21476">
        <ele>927.535488</ele>
        <time>2026-05-22T16:24:06.000Z</time>
      </trkpt>
      <trkpt lat="42.90279" lon="-1.21477">
        <ele>927.645068</ele>
        <time>2026-05-22T16:24:07.000Z</time>
      </trkpt>
      <trkpt lat="42.90278" lon="-1.21479">
        <ele>927.762443</ele>
        <time>2026-05-22T16:24:08.000Z</time>
      </trkpt>
      <trkpt lat="42.90276" lon="-1.2148">
        <ele>927.874911</ele>
        <time>2026-05-22T16:24:09.000Z</time>
      </trkpt>
      <trkpt lat="42.90275" lon="-1.21481">
        <ele>927.986247</ele>
        <time>2026-05-22T16:24:10.000Z</time>
      </trkpt>
      <trkpt lat="42.90273" lon="-1.21482">
        <ele>928.095796</ele>
        <time>2026-05-22T16:24:11.000Z</time>
      </trkpt>
      <trkpt lat="42.90271" lon="-1.21484">
        <ele>928.208265</ele>
        <time>2026-05-22T16:24:12.000Z</time>
      </trkpt>
      <trkpt lat="42.9027" lon="-1.21485">
        <ele>928.32092</ele>
        <time>2026-05-22T16:24:13.000Z</time>
      </trkpt>
      <trkpt lat="42.90268" lon="-1.21487">
        <ele>928.430958</ele>
        <time>2026-05-22T16:24:14.000Z</time>
      </trkpt>
      <trkpt lat="42.90266" lon="-1.21488">
        <ele>928.545966</ele>
        <time>2026-05-22T16:24:15.000Z</time>
      </trkpt>
      <trkpt lat="42.90265" lon="-1.21489">
        <ele>928.670769</ele>
        <time>2026-05-22T16:24:16.000Z</time>
      </trkpt>
      <trkpt lat="42.90263" lon="-1.2149">
        <ele>928.796819</ele>
        <time>2026-05-22T16:24:17.000Z</time>
      </trkpt>
      <trkpt lat="42.90261" lon="-1.21491">
        <ele>928.919008</ele>
        <time>2026-05-22T16:24:18.000Z</time>
      </trkpt>
      <trkpt lat="42.90258" lon="-1.21491">
        <ele>929.049205</ele>
        <time>2026-05-22T16:24:19.000Z</time>
      </trkpt>
      <trkpt lat="42.90256" lon="-1.21492">
        <ele>929.18642</ele>
        <time>2026-05-22T16:24:20.000Z</time>
      </trkpt>
      <trkpt lat="42.90254" lon="-1.21492">
        <ele>929.318409</ele>
        <time>2026-05-22T16:24:21.000Z</time>
      </trkpt>
      <trkpt lat="42.90252" lon="-1.21492">
        <ele>929.436849</ele>
        <time>2026-05-22T16:24:22.000Z</time>
      </trkpt>
      <trkpt lat="42.9025" lon="-1.21492">
        <ele>929.55521</ele>
        <time>2026-05-22T16:24:23.000Z</time>
      </trkpt>
      <trkpt lat="42.90248" lon="-1.21492">
        <ele>929.679791</ele>
        <time>2026-05-22T16:24:24.000Z</time>
      </trkpt>
      <trkpt lat="42.90246" lon="-1.21492">
        <ele>929.804748</ele>
        <time>2026-05-22T16:24:25.000Z</time>
      </trkpt>
      <trkpt lat="42.90244" lon="-1.21491">
        <ele>929.923426</ele>
        <time>2026-05-22T16:24:26.000Z</time>
      </trkpt>
      <trkpt lat="42.90242" lon="-1.21491">
        <ele>930.042104</ele>
        <time>2026-05-22T16:24:27.000Z</time>
      </trkpt>
      <trkpt lat="42.9024" lon="-1.21491">
        <ele>930.150812</ele>
        <time>2026-05-22T16:24:28.000Z</time>
      </trkpt>
      <trkpt lat="42.90238" lon="-1.2149">
        <ele>930.259519</ele>
        <time>2026-05-22T16:24:29.000Z</time>
      </trkpt>
      <trkpt lat="42.90236" lon="-1.2149">
        <ele>930.368227</ele>
        <time>2026-05-22T16:24:30.000Z</time>
      </trkpt>
      <trkpt lat="42.90235" lon="-1.2149">
        <ele>930.463312</ele>
        <time>2026-05-22T16:24:31.000Z</time>
      </trkpt>
      <trkpt lat="42.90233" lon="-1.21489">
        <ele>930.572019</ele>
        <time>2026-05-22T16:24:32.000Z</time>
      </trkpt>
      <trkpt lat="42.90231" lon="-1.21488">
        <ele>930.681568</ele>
        <time>2026-05-22T16:24:33.000Z</time>
      </trkpt>
      <trkpt lat="42.9023" lon="-1.21487">
        <ele>930.781001</ele>
        <time>2026-05-22T16:24:34.000Z</time>
      </trkpt>
      <trkpt lat="42.90228" lon="-1.21487">
        <ele>930.872379</ele>
        <time>2026-05-22T16:24:35.000Z</time>
      </trkpt>
      <trkpt lat="42.90227" lon="-1.21487">
        <ele>930.943528</ele>
        <time>2026-05-22T16:24:36.000Z</time>
      </trkpt>
      <trkpt lat="42.90225" lon="-1.21486">
        <ele>931.059994</ele>
        <time>2026-05-22T16:24:37.000Z</time>
      </trkpt>
      <trkpt lat="42.90223" lon="-1.21485">
        <ele>931.164134</ele>
        <time>2026-05-22T16:24:38.000Z</time>
      </trkpt>
      <trkpt lat="42.90222" lon="-1.21484">
        <ele>931.273683</ele>
        <time>2026-05-22T16:24:39.000Z</time>
      </trkpt>
      <trkpt lat="42.9022" lon="-1.21483">
        <ele>931.376095</ele>
        <time>2026-05-22T16:24:40.000Z</time>
      </trkpt>
      <trkpt lat="42.90219" lon="-1.21482">
        <ele>931.458798</ele>
        <time>2026-05-22T16:24:41.000Z</time>
      </trkpt>
      <trkpt lat="42.90218" lon="-1.21482">
        <ele>931.535854</ele>
        <time>2026-05-22T16:24:42.000Z</time>
      </trkpt>
      <trkpt lat="42.90216" lon="-1.21482">
        <ele>931.619721</ele>
        <time>2026-05-22T16:24:43.000Z</time>
      </trkpt>
      <trkpt lat="42.90215" lon="-1.21481">
        <ele>931.702424</ele>
        <time>2026-05-22T16:24:44.000Z</time>
      </trkpt>
      <trkpt lat="42.90213" lon="-1.2148">
        <ele>931.788028</ele>
        <time>2026-05-22T16:24:45.000Z</time>
      </trkpt>
      <trkpt lat="42.90212" lon="-1.2148">
        <ele>931.871946</ele>
        <time>2026-05-22T16:24:46.000Z</time>
      </trkpt>
      <trkpt lat="42.9021" lon="-1.21479">
        <ele>931.974949</ele>
        <time>2026-05-22T16:24:47.000Z</time>
      </trkpt>
      <trkpt lat="42.90208" lon="-1.21478">
        <ele>932.071902</ele>
        <time>2026-05-22T16:24:48.000Z</time>
      </trkpt>
      <trkpt lat="42.90206" lon="-1.21477">
        <ele>932.166709</ele>
        <time>2026-05-22T16:24:49.000Z</time>
      </trkpt>
      <trkpt lat="42.90205" lon="-1.21476">
        <ele>932.245791</ele>
        <time>2026-05-22T16:24:50.000Z</time>
      </trkpt>
      <trkpt lat="42.90204" lon="-1.21476">
        <ele>932.314043</ele>
        <time>2026-05-22T16:24:51.000Z</time>
      </trkpt>
      <trkpt lat="42.90202" lon="-1.21476">
        <ele>932.3873</ele>
        <time>2026-05-22T16:24:52.000Z</time>
      </trkpt>
      <trkpt lat="42.90201" lon="-1.21475">
        <ele>932.455552</ele>
        <time>2026-05-22T16:24:53.000Z</time>
      </trkpt>
      <trkpt lat="42.90199" lon="-1.21474">
        <ele>932.559845</ele>
        <time>2026-05-22T16:24:54.000Z</time>
      </trkpt>
      <trkpt lat="42.90198" lon="-1.21474">
        <ele>932.621306</ele>
        <time>2026-05-22T16:24:55.000Z</time>
      </trkpt>
      <trkpt lat="42.90196" lon="-1.21475">
        <ele>932.699583</ele>
        <time>2026-05-22T16:24:56.000Z</time>
      </trkpt>
      <trkpt lat="42.90195" lon="-1.21475">
        <ele>932.782299</ele>
        <time>2026-05-22T16:24:57.000Z</time>
      </trkpt>
      <trkpt lat="42.90193" lon="-1.21475">
        <ele>932.864331</ele>
        <time>2026-05-22T16:24:58.000Z</time>
      </trkpt>
      <trkpt lat="42.90191" lon="-1.21475">
        <ele>932.956826</ele>
        <time>2026-05-22T16:24:59.000Z</time>
      </trkpt>
      <trkpt lat="42.9019" lon="-1.21476">
        <ele>933.042322</ele>
        <time>2026-05-22T16:25:00.000Z</time>
      </trkpt>
      <trkpt lat="42.90188" lon="-1.21477">
        <ele>933.126988</ele>
        <time>2026-05-22T16:25:01.000Z</time>
      </trkpt>
      <trkpt lat="42.90187" lon="-1.21478">
        <ele>933.231281</ele>
        <time>2026-05-22T16:25:02.000Z</time>
      </trkpt>
      <trkpt lat="42.90185" lon="-1.2148">
        <ele>933.324345</ele>
        <time>2026-05-22T16:25:03.000Z</time>
      </trkpt>
      <trkpt lat="42.90184" lon="-1.21481">
        <ele>933.424195</ele>
        <time>2026-05-22T16:25:04.000Z</time>
      </trkpt>
      <trkpt lat="42.90182" lon="-1.21483">
        <ele>933.515345</ele>
        <time>2026-05-22T16:25:05.000Z</time>
      </trkpt>
      <trkpt lat="42.90181" lon="-1.21484">
        <ele>933.595719</ele>
        <time>2026-05-22T16:25:06.000Z</time>
      </trkpt>
      <trkpt lat="42.9018" lon="-1.21486">
        <ele>933.680818</ele>
        <time>2026-05-22T16:25:07.000Z</time>
      </trkpt>
      <trkpt lat="42.90179" lon="-1.21488">
        <ele>933.780741</ele>
        <time>2026-05-22T16:25:08.000Z</time>
      </trkpt>
      <trkpt lat="42.90177" lon="-1.2149">
        <ele>933.889732</ele>
        <time>2026-05-22T16:25:09.000Z</time>
      </trkpt>
      <trkpt lat="42.90176" lon="-1.21493">
        <ele>933.99875</ele>
        <time>2026-05-22T16:25:10.000Z</time>
      </trkpt>
      <trkpt lat="42.90175" lon="-1.21496">
        <ele>934.111807</ele>
        <time>2026-05-22T16:25:11.000Z</time>
      </trkpt>
      <trkpt lat="42.90175" lon="-1.21498">
        <ele>934.21629</ele>
        <time>2026-05-22T16:25:12.000Z</time>
      </trkpt>
      <trkpt lat="42.90174" lon="-1.21501">
        <ele>934.320215</ele>
        <time>2026-05-22T16:25:13.000Z</time>
      </trkpt>
      <trkpt lat="42.90174" lon="-1.21503">
        <ele>934.404783</ele>
        <time>2026-05-22T16:25:14.000Z</time>
      </trkpt>
      <trkpt lat="42.90173" lon="-1.21505">
        <ele>934.494792</ele>
        <time>2026-05-22T16:25:15.000Z</time>
      </trkpt>
      <trkpt lat="42.90173" lon="-1.21508">
        <ele>934.588405</ele>
        <time>2026-05-22T16:25:16.000Z</time>
      </trkpt>
      <trkpt lat="42.90173" lon="-1.2151">
        <ele>934.686084</ele>
        <time>2026-05-22T16:25:17.000Z</time>
      </trkpt>
      <trkpt lat="42.90173" lon="-1.21513">
        <ele>934.772526</ele>
        <time>2026-05-22T16:25:18.000Z</time>
      </trkpt>
      <trkpt lat="42.90173" lon="-1.21515">
        <ele>934.859422</ele>
        <time>2026-05-22T16:25:19.000Z</time>
      </trkpt>
      <trkpt lat="42.90173" lon="-1.21517">
        <ele>934.942593</ele>
        <time>2026-05-22T16:25:20.000Z</time>
      </trkpt>
      <trkpt lat="42.90173" lon="-1.21519">
        <ele>935.033216</ele>
        <time>2026-05-22T16:25:21.000Z</time>
      </trkpt>
      <trkpt lat="42.90173" lon="-1.21522">
        <ele>935.119658</ele>
        <time>2026-05-22T16:25:22.000Z</time>
      </trkpt>
      <trkpt lat="42.90173" lon="-1.21524">
        <ele>935.211001</ele>
        <time>2026-05-22T16:25:23.000Z</time>
      </trkpt>
      <trkpt lat="42.90173" lon="-1.21527">
        <ele>935.309083</ele>
        <time>2026-05-22T16:25:24.000Z</time>
      </trkpt>
      <trkpt lat="42.90173" lon="-1.21529">
        <ele>935.40783</ele>
        <time>2026-05-22T16:25:25.000Z</time>
      </trkpt>
      <trkpt lat="42.90173" lon="-1.21532">
        <ele>935.517112</ele>
        <time>2026-05-22T16:25:26.000Z</time>
      </trkpt>
      <trkpt lat="42.90174" lon="-1.21535">
        <ele>935.62046</ele>
        <time>2026-05-22T16:25:27.000Z</time>
      </trkpt>
      <trkpt lat="42.90174" lon="-1.21537">
        <ele>935.704416</ele>
        <time>2026-05-22T16:25:28.000Z</time>
      </trkpt>
      <trkpt lat="42.90174" lon="-1.21539">
        <ele>935.790858</ele>
        <time>2026-05-22T16:25:29.000Z</time>
      </trkpt>
      <trkpt lat="42.90174" lon="-1.21542">
        <ele>935.884651</ele>
        <time>2026-05-22T16:25:30.000Z</time>
      </trkpt>
      <trkpt lat="42.90174" lon="-1.21545">
        <ele>935.990818</ele>
        <time>2026-05-22T16:25:31.000Z</time>
      </trkpt>
      <trkpt lat="42.90175" lon="-1.21548">
        <ele>936.106246</ele>
        <time>2026-05-22T16:25:32.000Z</time>
      </trkpt>
      <trkpt lat="42.90175" lon="-1.21551">
        <ele>936.223561</ele>
        <time>2026-05-22T16:25:33.000Z</time>
      </trkpt>
      <trkpt lat="42.90175" lon="-1.21554">
        <ele>936.332842</ele>
        <time>2026-05-22T16:25:34.000Z</time>
      </trkpt>
      <trkpt lat="42.90175" lon="-1.21556">
        <ele>936.434139</ele>
        <time>2026-05-22T16:25:35.000Z</time>
      </trkpt>
      <trkpt lat="42.90175" lon="-1.21559">
        <ele>936.546808</ele>
        <time>2026-05-22T16:25:36.000Z</time>
      </trkpt>
      <trkpt lat="42.90175" lon="-1.21563">
        <ele>936.663111</ele>
        <time>2026-05-22T16:25:37.000Z</time>
      </trkpt>
      <trkpt lat="42.90175" lon="-1.21566">
        <ele>936.776129</ele>
        <time>2026-05-22T16:25:38.000Z</time>
      </trkpt>
      <trkpt lat="42.90175" lon="-1.21568">
        <ele>936.881302</ele>
        <time>2026-05-22T16:25:39.000Z</time>
      </trkpt>
      <trkpt lat="42.90175" lon="-1.21571">
        <ele>936.98005</ele>
        <time>2026-05-22T16:25:40.000Z</time>
      </trkpt>
      <trkpt lat="42.90175" lon="-1.21574">
        <ele>937.0809</ele>
        <time>2026-05-22T16:25:41.000Z</time>
      </trkpt>
      <trkpt lat="42.90174" lon="-1.21577">
        <ele>937.193918</ele>
        <time>2026-05-22T16:25:42.000Z</time>
      </trkpt>
      <trkpt lat="42.90174" lon="-1.21579">
        <ele>937.299091</ele>
        <time>2026-05-22T16:25:43.000Z</time>
      </trkpt>
      <trkpt lat="42.90174" lon="-1.21582">
        <ele>937.391434</ele>
        <time>2026-05-22T16:25:44.000Z</time>
      </trkpt>
      <trkpt lat="42.90174" lon="-1.21584">
        <ele>937.487439</ele>
        <time>2026-05-22T16:25:45.000Z</time>
      </trkpt>
      <trkpt lat="42.90173" lon="-1.21587">
        <ele>937.590787</ele>
        <time>2026-05-22T16:25:46.000Z</time>
      </trkpt>
      <trkpt lat="42.90173" lon="-1.2159">
        <ele>937.689534</ele>
        <time>2026-05-22T16:25:47.000Z</time>
      </trkpt>
      <trkpt lat="42.90172" lon="-1.21592">
        <ele>937.794018</ele>
        <time>2026-05-22T16:25:48.000Z</time>
      </trkpt>
      <trkpt lat="42.90172" lon="-1.21595">
        <ele>937.891698</ele>
        <time>2026-05-22T16:25:49.000Z</time>
      </trkpt>
      <trkpt lat="42.90172" lon="-1.21598">
        <ele>937.997864</ele>
        <time>2026-05-22T16:25:50.000Z</time>
      </trkpt>
      <trkpt lat="42.90171" lon="-1.21601">
        <ele>938.109638</ele>
        <time>2026-05-22T16:25:51.000Z</time>
      </trkpt>
      <trkpt lat="42.90171" lon="-1.21603">
        <ele>938.215493</ele>
        <time>2026-05-22T16:25:52.000Z</time>
      </trkpt>
      <trkpt lat="42.9017" lon="-1.21606">
        <ele>938.322948</ele>
        <time>2026-05-22T16:25:53.000Z</time>
      </trkpt>
      <trkpt lat="42.9017" lon="-1.21609">
        <ele>938.442037</ele>
        <time>2026-05-22T16:25:54.000Z</time>
      </trkpt>
      <trkpt lat="42.90169" lon="-1.21612">
        <ele>938.560162</ele>
        <time>2026-05-22T16:25:55.000Z</time>
      </trkpt>
      <trkpt lat="42.90168" lon="-1.21615">
        <ele>938.681787</ele>
        <time>2026-05-22T16:25:56.000Z</time>
      </trkpt>
      <trkpt lat="42.90167" lon="-1.21618">
        <ele>938.810388</ele>
        <time>2026-05-22T16:25:57.000Z</time>
      </trkpt>
      <trkpt lat="42.90166" lon="-1.21621">
        <ele>938.935493</ele>
        <time>2026-05-22T16:25:58.000Z</time>
      </trkpt>
      <trkpt lat="42.90165" lon="-1.21625">
        <ele>939.064094</ele>
        <time>2026-05-22T16:25:59.000Z</time>
      </trkpt>
      <trkpt lat="42.90165" lon="-1.21628">
        <ele>939.198953</ele>
        <time>2026-05-22T16:26:00.000Z</time>
      </trkpt>
      <trkpt lat="42.90164" lon="-1.21632">
        <ele>939.340109</ele>
        <time>2026-05-22T16:26:01.000Z</time>
      </trkpt>
      <trkpt lat="42.90164" lon="-1.21635">
        <ele>939.476717</ele>
        <time>2026-05-22T16:26:02.000Z</time>
      </trkpt>
      <trkpt lat="42.90164" lon="-1.21639">
        <ele>939.604687</ele>
        <time>2026-05-22T16:26:03.000Z</time>
      </trkpt>
      <trkpt lat="42.90164" lon="-1.21642">
        <ele>939.7286</ele>
        <time>2026-05-22T16:26:04.000Z</time>
      </trkpt>
      <trkpt lat="42.90164" lon="-1.21645">
        <ele>939.849092</ele>
        <time>2026-05-22T16:26:05.000Z</time>
      </trkpt>
      <trkpt lat="42.90164" lon="-1.21649">
        <ele>939.973323</ele>
        <time>2026-05-22T16:26:06.000Z</time>
      </trkpt>
      <trkpt lat="42.90164" lon="-1.21652">
        <ele>940.093815</ele>
        <time>2026-05-22T16:26:07.000Z</time>
      </trkpt>
      <trkpt lat="42.90165" lon="-1.21655">
        <ele>940.217741</ele>
        <time>2026-05-22T16:26:08.000Z</time>
      </trkpt>
      <trkpt lat="42.90166" lon="-1.21658">
        <ele>940.328739</ele>
        <time>2026-05-22T16:26:09.000Z</time>
      </trkpt>
      <trkpt lat="42.90166" lon="-1.2166">
        <ele>940.431092</ele>
        <time>2026-05-22T16:26:10.000Z</time>
      </trkpt>
      <trkpt lat="42.90167" lon="-1.21663">
        <ele>940.531437</ele>
        <time>2026-05-22T16:26:11.000Z</time>
      </trkpt>
      <trkpt lat="42.90169" lon="-1.21665">
        <ele>940.649921</ele>
        <time>2026-05-22T16:26:12.000Z</time>
      </trkpt>
      <trkpt lat="42.9017" lon="-1.21668">
        <ele>940.762567</ele>
        <time>2026-05-22T16:26:13.000Z</time>
      </trkpt>
      <trkpt lat="42.90171" lon="-1.2167">
        <ele>940.871558</ele>
        <time>2026-05-22T16:26:14.000Z</time>
      </trkpt>
      <trkpt lat="42.90173" lon="-1.21672">
        <ele>940.986226</ele>
        <time>2026-05-22T16:26:15.000Z</time>
      </trkpt>
      <trkpt lat="42.90174" lon="-1.21674">
        <ele>941.089535</ele>
        <time>2026-05-22T16:26:16.000Z</time>
      </trkpt>
      <trkpt lat="42.90176" lon="-1.21676">
        <ele>941.199994</ele>
        <time>2026-05-22T16:26:17.000Z</time>
      </trkpt>
      <trkpt lat="42.90178" lon="-1.21678">
        <ele>941.314435</ele>
        <time>2026-05-22T16:26:18.000Z</time>
      </trkpt>
      <trkpt lat="42.90179" lon="-1.21679">
        <ele>941.420043</ele>
        <time>2026-05-22T16:26:19.000Z</time>
      </trkpt>
      <trkpt lat="42.90181" lon="-1.21681">
        <ele>941.536265</ele>
        <time>2026-05-22T16:26:20.000Z</time>
      </trkpt>
      <trkpt lat="42.90183" lon="-1.21683">
        <ele>941.661044</ele>
        <time>2026-05-22T16:26:21.000Z</time>
      </trkpt>
      <trkpt lat="42.90185" lon="-1.21684">
        <ele>941.764458</ele>
        <time>2026-05-22T16:26:22.000Z</time>
      </trkpt>
      <trkpt lat="42.90186" lon="-1.21686">
        <ele>941.878467</ele>
        <time>2026-05-22T16:26:23.000Z</time>
      </trkpt>
      <trkpt lat="42.90188" lon="-1.21688">
        <ele>941.986021</ele>
        <time>2026-05-22T16:26:24.000Z</time>
      </trkpt>
      <trkpt lat="42.9019" lon="-1.21689">
        <ele>942.087569</ele>
        <time>2026-05-22T16:26:25.000Z</time>
      </trkpt>
      <trkpt lat="42.90191" lon="-1.21691">
        <ele>942.198029</ele>
        <time>2026-05-22T16:26:26.000Z</time>
      </trkpt>
      <trkpt lat="42.90193" lon="-1.21693">
        <ele>942.303637</ele>
        <time>2026-05-22T16:26:27.000Z</time>
      </trkpt>
      <trkpt lat="42.90195" lon="-1.21695">
        <ele>942.415519</ele>
        <time>2026-05-22T16:26:28.000Z</time>
      </trkpt>
      <trkpt lat="42.90196" lon="-1.21696">
        <ele>942.527401</ele>
        <time>2026-05-22T16:26:29.000Z</time>
      </trkpt>
      <trkpt lat="42.90198" lon="-1.21698">
        <ele>942.64829</ele>
        <time>2026-05-22T16:26:30.000Z</time>
      </trkpt>
      <trkpt lat="42.902" lon="-1.217">
        <ele>942.769178</ele>
        <time>2026-05-22T16:26:31.000Z</time>
      </trkpt>
      <trkpt lat="42.90202" lon="-1.21702">
        <ele>942.896515</ele>
        <time>2026-05-22T16:26:32.000Z</time>
      </trkpt>
      <trkpt lat="42.90204" lon="-1.21704">
        <ele>943.027942</ele>
        <time>2026-05-22T16:26:33.000Z</time>
      </trkpt>
      <trkpt lat="42.90206" lon="-1.21706">
        <ele>943.14883</ele>
        <time>2026-05-22T16:26:34.000Z</time>
      </trkpt>
      <trkpt lat="42.90208" lon="-1.21708">
        <ele>943.275748</ele>
        <time>2026-05-22T16:26:35.000Z</time>
      </trkpt>
      <trkpt lat="42.9021" lon="-1.2171">
        <ele>943.394078</ele>
        <time>2026-05-22T16:26:36.000Z</time>
      </trkpt>
      <trkpt lat="42.90212" lon="-1.21711">
        <ele>943.50946</ele>
        <time>2026-05-22T16:26:37.000Z</time>
      </trkpt>
      <trkpt lat="42.90213" lon="-1.21713">
        <ele>943.621342</ele>
        <time>2026-05-22T16:26:38.000Z</time>
      </trkpt>
      <trkpt lat="42.90215" lon="-1.21714">
        <ele>943.737624</ele>
        <time>2026-05-22T16:26:39.000Z</time>
      </trkpt>
      <trkpt lat="42.90217" lon="-1.21716">
        <ele>943.855953</ele>
        <time>2026-05-22T16:26:40.000Z</time>
      </trkpt>
      <trkpt lat="42.90219" lon="-1.21718">
        <ele>943.972175</ele>
        <time>2026-05-22T16:26:41.000Z</time>
      </trkpt>
      <trkpt lat="42.90221" lon="-1.2172">
        <ele>944.090692</ele>
        <time>2026-05-22T16:26:42.000Z</time>
      </trkpt>
      <trkpt lat="42.90223" lon="-1.21722">
        <ele>944.204701</ele>
        <time>2026-05-22T16:26:43.000Z</time>
      </trkpt>
      <trkpt lat="42.90224" lon="-1.21723">
        <ele>944.320922</ele>
        <time>2026-05-22T16:26:44.000Z</time>
      </trkpt>
      <trkpt lat="42.90226" lon="-1.21725">
        <ele>944.443601</ele>
        <time>2026-05-22T16:26:45.000Z</time>
      </trkpt>
      <trkpt lat="42.90228" lon="-1.21727">
        <ele>944.564489</ele>
        <time>2026-05-22T16:26:46.000Z</time>
      </trkpt>
      <trkpt lat="42.9023" lon="-1.21729">
        <ele>944.676371</ele>
        <time>2026-05-22T16:26:47.000Z</time>
      </trkpt>
      <trkpt lat="42.90232" lon="-1.21731">
        <ele>944.781979</ele>
        <time>2026-05-22T16:26:48.000Z</time>
      </trkpt>
      <trkpt lat="42.90233" lon="-1.21732">
        <ele>944.883527</ele>
        <time>2026-05-22T16:26:49.000Z</time>
      </trkpt>
      <trkpt lat="42.90235" lon="-1.21734">
        <ele>944.99599</ele>
        <time>2026-05-22T16:26:50.000Z</time>
      </trkpt>
      <trkpt lat="42.90237" lon="-1.21735">
        <ele>945.106692</ele>
        <time>2026-05-22T16:26:51.000Z</time>
      </trkpt>
      <trkpt lat="42.90239" lon="-1.21736">
        <ele>945.219155</ele>
        <time>2026-05-22T16:26:52.000Z</time>
      </trkpt>
      <trkpt lat="42.90241" lon="-1.21738">
        <ele>945.333479</ele>
        <time>2026-05-22T16:26:53.000Z</time>
      </trkpt>
      <trkpt lat="42.90242" lon="-1.2174">
        <ele>945.447488</ele>
        <time>2026-05-22T16:26:54.000Z</time>
      </trkpt>
      <trkpt lat="42.90244" lon="-1.21741">
        <ele>945.557334</ele>
        <time>2026-05-22T16:26:55.000Z</time>
      </trkpt>
      <trkpt lat="42.90246" lon="-1.21743">
        <ele>945.677798</ele>
        <time>2026-05-22T16:26:56.000Z</time>
      </trkpt>
      <trkpt lat="42.90248" lon="-1.21745">
        <ele>945.802769</ele>
        <time>2026-05-22T16:26:57.000Z</time>
      </trkpt>
      <trkpt lat="42.9025" lon="-1.21747">
        <ele>945.923232</ele>
        <time>2026-05-22T16:26:58.000Z</time>
      </trkpt>
      <trkpt lat="42.90252" lon="-1.21748">
        <ele>946.050402</ele>
        <time>2026-05-22T16:26:59.000Z</time>
      </trkpt>
      <trkpt lat="42.90254" lon="-1.2175">
        <ele>946.170865</ele>
        <time>2026-05-22T16:27:00.000Z</time>
      </trkpt>
      <trkpt lat="42.90256" lon="-1.21752">
        <ele>946.278859</ele>
        <time>2026-05-22T16:27:01.000Z</time>
      </trkpt>
      <trkpt lat="42.90257" lon="-1.21754">
        <ele>946.393299</ele>
        <time>2026-05-22T16:27:02.000Z</time>
      </trkpt>
      <trkpt lat="42.90259" lon="-1.21756">
        <ele>946.503064</ele>
        <time>2026-05-22T16:27:03.000Z</time>
      </trkpt>
      <trkpt lat="42.90261" lon="-1.21757">
        <ele>946.614945</ele>
        <time>2026-05-22T16:27:04.000Z</time>
      </trkpt>
      <trkpt lat="42.90262" lon="-1.21759">
        <ele>946.72471</ele>
        <time>2026-05-22T16:27:05.000Z</time>
      </trkpt>
      <trkpt lat="42.90264" lon="-1.2176">
        <ele>946.832618</ele>
        <time>2026-05-22T16:27:06.000Z</time>
      </trkpt>
      <trkpt lat="42.90266" lon="-1.21762">
        <ele>946.9445</ele>
        <time>2026-05-22T16:27:07.000Z</time>
      </trkpt>
      <trkpt lat="42.90268" lon="-1.21764">
        <ele>947.054264</ele>
        <time>2026-05-22T16:27:08.000Z</time>
      </trkpt>
      <trkpt lat="42.90269" lon="-1.21765">
        <ele>947.158291</ele>
        <time>2026-05-22T16:27:09.000Z</time>
      </trkpt>
      <trkpt lat="42.90271" lon="-1.21767">
        <ele>947.266284</ele>
        <time>2026-05-22T16:27:10.000Z</time>
      </trkpt>
      <trkpt lat="42.90272" lon="-1.21769">
        <ele>947.379283</ele>
        <time>2026-05-22T16:27:11.000Z</time>
      </trkpt>
      <trkpt lat="42.90274" lon="-1.21771">
        <ele>947.484891</ele>
        <time>2026-05-22T16:27:12.000Z</time>
      </trkpt>
      <trkpt lat="42.90276" lon="-1.21773">
        <ele>947.60322</ele>
        <time>2026-05-22T16:27:13.000Z</time>
      </trkpt>
      <trkpt lat="42.90278" lon="-1.21774">
        <ele>947.719442</ele>
        <time>2026-05-22T16:27:14.000Z</time>
      </trkpt>
      <trkpt lat="42.90279" lon="-1.21776">
        <ele>947.818432</ele>
        <time>2026-05-22T16:27:15.000Z</time>
      </trkpt>
      <trkpt lat="42.90281" lon="-1.21777">
        <ele>947.919532</ele>
        <time>2026-05-22T16:27:16.000Z</time>
      </trkpt>
      <trkpt lat="42.90283" lon="-1.21779">
        <ele>948.027525</ele>
        <time>2026-05-22T16:27:17.000Z</time>
      </trkpt>
      <trkpt lat="42.90284" lon="-1.21781">
        <ele>948.146041</ele>
        <time>2026-05-22T16:27:18.000Z</time>
      </trkpt>
      <trkpt lat="42.90286" lon="-1.21783">
        <ele>948.260481</ele>
        <time>2026-05-22T16:27:19.000Z</time>
      </trkpt>
      <trkpt lat="42.90288" lon="-1.21785">
        <ele>948.370246</ele>
        <time>2026-05-22T16:27:20.000Z</time>
      </trkpt>
      <trkpt lat="42.90289" lon="-1.21786">
        <ele>948.4778</ele>
        <time>2026-05-22T16:27:21.000Z</time>
      </trkpt>
      <trkpt lat="42.90291" lon="-1.21788">
        <ele>948.586142</ele>
        <time>2026-05-22T16:27:22.000Z</time>
      </trkpt>
      <trkpt lat="42.90292" lon="-1.2179">
        <ele>948.690798</ele>
        <time>2026-05-22T16:27:23.000Z</time>
      </trkpt>
      <trkpt lat="42.90293" lon="-1.21792">
        <ele>948.786224</ele>
        <time>2026-05-22T16:27:24.000Z</time>
      </trkpt>
      <trkpt lat="42.90294" lon="-1.21794">
        <ele>948.875665</ele>
        <time>2026-05-22T16:27:25.000Z</time>
      </trkpt>
      <trkpt lat="42.90295" lon="-1.21796">
        <ele>948.961862</ele>
        <time>2026-05-22T16:27:26.000Z</time>
      </trkpt>
      <trkpt lat="42.90296" lon="-1.21798">
        <ele>949.048194</ele>
        <time>2026-05-22T16:27:27.000Z</time>
      </trkpt>
      <trkpt lat="42.90297" lon="-1.218">
        <ele>949.146982</ele>
        <time>2026-05-22T16:27:28.000Z</time>
      </trkpt>
      <trkpt lat="42.90298" lon="-1.21802">
        <ele>949.239375</ele>
        <time>2026-05-22T16:27:29.000Z</time>
      </trkpt>
      <trkpt lat="42.90299" lon="-1.21804">
        <ele>949.341006</ele>
        <time>2026-05-22T16:27:30.000Z</time>
      </trkpt>
      <trkpt lat="42.903" lon="-1.21807">
        <ele>949.43715</ele>
        <time>2026-05-22T16:27:31.000Z</time>
      </trkpt>
      <trkpt lat="42.90301" lon="-1.21809">
        <ele>949.536643</ele>
        <time>2026-05-22T16:27:32.000Z</time>
      </trkpt>
      <trkpt lat="42.90302" lon="-1.21811">
        <ele>949.63379</ele>
        <time>2026-05-22T16:27:33.000Z</time>
      </trkpt>
      <trkpt lat="42.90303" lon="-1.21814">
        <ele>949.732354</ele>
        <time>2026-05-22T16:27:34.000Z</time>
      </trkpt>
      <trkpt lat="42.90303" lon="-1.21816">
        <ele>949.841634</ele>
        <time>2026-05-22T16:27:35.000Z</time>
      </trkpt>
      <trkpt lat="42.90304" lon="-1.21819">
        <ele>949.954228</ele>
        <time>2026-05-22T16:27:36.000Z</time>
      </trkpt>
      <trkpt lat="42.90304" lon="-1.21822">
        <ele>950.062198</ele>
        <time>2026-05-22T16:27:37.000Z</time>
      </trkpt>
      <trkpt lat="42.90304" lon="-1.21824">
        <ele>950.15611</ele>
        <time>2026-05-22T16:27:38.000Z</time>
      </trkpt>
      <trkpt lat="42.90305" lon="-1.21827">
        <ele>950.261214</ele>
        <time>2026-05-22T16:27:39.000Z</time>
      </trkpt>
      <trkpt lat="42.90305" lon="-1.2183">
        <ele>950.381659</ele>
        <time>2026-05-22T16:27:40.000Z</time>
      </trkpt>
      <trkpt lat="42.90306" lon="-1.21833">
        <ele>950.51552</ele>
        <time>2026-05-22T16:27:41.000Z</time>
      </trkpt>
      <trkpt lat="42.90306" lon="-1.21836">
        <ele>950.649381</ele>
        <time>2026-05-22T16:27:42.000Z</time>
      </trkpt>
      <trkpt lat="42.90306" lon="-1.21838">
        <ele>950.781103</ele>
        <time>2026-05-22T16:27:43.000Z</time>
      </trkpt>
      <trkpt lat="42.90307" lon="-1.21841">
        <ele>950.912826</ele>
        <time>2026-05-22T16:27:44.000Z</time>
      </trkpt>
      <trkpt lat="42.90307" lon="-1.21844">
        <ele>951.037642</ele>
        <time>2026-05-22T16:27:45.000Z</time>
      </trkpt>
      <trkpt lat="42.90308" lon="-1.21847">
        <ele>951.164929</ele>
        <time>2026-05-22T16:27:46.000Z</time>
      </trkpt>
      <trkpt lat="42.90308" lon="-1.21849">
        <ele>951.281887</ele>
        <time>2026-05-22T16:27:47.000Z</time>
      </trkpt>
      <trkpt lat="42.90308" lon="-1.21851">
        <ele>951.384166</ele>
        <time>2026-05-22T16:27:48.000Z</time>
      </trkpt>
      <trkpt lat="42.90309" lon="-1.21853">
        <ele>951.478922</ele>
        <time>2026-05-22T16:27:49.000Z</time>
      </trkpt>
      <trkpt lat="42.90309" lon="-1.21855">
        <ele>951.584203</ele>
        <time>2026-05-22T16:27:50.000Z</time>
      </trkpt>
      <trkpt lat="42.9031" lon="-1.21858">
        <ele>951.70116</ele>
        <time>2026-05-22T16:27:51.000Z</time>
      </trkpt>
      <trkpt lat="42.9031" lon="-1.21861">
        <ele>951.830118</ele>
        <time>2026-05-22T16:27:52.000Z</time>
      </trkpt>
      <trkpt lat="42.90311" lon="-1.21863">
        <ele>951.952979</ele>
        <time>2026-05-22T16:27:53.000Z</time>
      </trkpt>
      <trkpt lat="42.90311" lon="-1.21866">
        <ele>952.080266</ele>
        <time>2026-05-22T16:27:54.000Z</time>
      </trkpt>
      <trkpt lat="42.90312" lon="-1.21868">
        <ele>952.204957</ele>
        <time>2026-05-22T16:27:55.000Z</time>
      </trkpt>
      <trkpt lat="42.90313" lon="-1.21871">
        <ele>952.320862</ele>
        <time>2026-05-22T16:27:56.000Z</time>
      </trkpt>
      <trkpt lat="42.90313" lon="-1.21873">
        <ele>952.439308</ele>
        <time>2026-05-22T16:27:57.000Z</time>
      </trkpt>
      <trkpt lat="42.90313" lon="-1.21876">
        <ele>952.553741</ele>
        <time>2026-05-22T16:27:58.000Z</time>
      </trkpt>
      <trkpt lat="42.90313" lon="-1.21878">
        <ele>952.668175</ele>
        <time>2026-05-22T16:27:59.000Z</time>
      </trkpt>
      <trkpt lat="42.90314" lon="-1.21881">
        <ele>952.785132</ele>
        <time>2026-05-22T16:28:00.000Z</time>
      </trkpt>
      <trkpt lat="42.90314" lon="-1.21883">
        <ele>952.901037</ele>
        <time>2026-05-22T16:28:01.000Z</time>
      </trkpt>
      <trkpt lat="42.90315" lon="-1.21885">
        <ele>953.006318</ele>
        <time>2026-05-22T16:28:02.000Z</time>
      </trkpt>
      <trkpt lat="42.90315" lon="-1.21888">
        <ele>953.109921</ele>
        <time>2026-05-22T16:28:03.000Z</time>
      </trkpt>
      <trkpt lat="42.90316" lon="-1.2189">
        <ele>953.217216</ele>
        <time>2026-05-22T16:28:04.000Z</time>
      </trkpt>
      <trkpt lat="42.90316" lon="-1.21892">
        <ele>953.334173</ele>
        <time>2026-05-22T16:28:05.000Z</time>
      </trkpt>
      <trkpt lat="42.90317" lon="-1.21895">
        <ele>953.455599</ele>
        <time>2026-05-22T16:28:06.000Z</time>
      </trkpt>
      <trkpt lat="42.90317" lon="-1.21897">
        <ele>953.574045</ele>
        <time>2026-05-22T16:28:07.000Z</time>
      </trkpt>
      <trkpt lat="42.90318" lon="-1.219">
        <ele>953.679325</ele>
        <time>2026-05-22T16:28:08.000Z</time>
      </trkpt>
      <trkpt lat="42.90318" lon="-1.21902">
        <ele>953.795111</ele>
        <time>2026-05-22T16:28:09.000Z</time>
      </trkpt>
      <trkpt lat="42.90318" lon="-1.21905">
        <ele>953.905512</ele>
        <time>2026-05-22T16:28:10.000Z</time>
      </trkpt>
      <trkpt lat="42.90318" lon="-1.21907">
        <ele>954.011372</ele>
        <time>2026-05-22T16:28:11.000Z</time>
      </trkpt>
      <trkpt lat="42.90319" lon="-1.21909">
        <ele>954.116652</ele>
        <time>2026-05-22T16:28:12.000Z</time>
      </trkpt>
      <trkpt lat="42.90319" lon="-1.21911">
        <ele>954.226306</ele>
        <time>2026-05-22T16:28:13.000Z</time>
      </trkpt>
      <trkpt lat="42.9032" lon="-1.21914">
        <ele>954.329909</ele>
        <time>2026-05-22T16:28:14.000Z</time>
      </trkpt>
      <trkpt lat="42.9032" lon="-1.21916">
        <ele>954.432188</ele>
        <time>2026-05-22T16:28:15.000Z</time>
      </trkpt>
      <trkpt lat="42.9032" lon="-1.21918">
        <ele>954.538048</ele>
        <time>2026-05-22T16:28:16.000Z</time>
      </trkpt>
      <trkpt lat="42.90321" lon="-1.2192">
        <ele>954.650544</ele>
        <time>2026-05-22T16:28:17.000Z</time>
      </trkpt>
      <trkpt lat="42.90321" lon="-1.21923">
        <ele>954.760198</ele>
        <time>2026-05-22T16:28:18.000Z</time>
      </trkpt>
      <trkpt lat="42.90322" lon="-1.21925">
        <ele>954.872694</ele>
        <time>2026-05-22T16:28:19.000Z</time>
      </trkpt>
      <trkpt lat="42.90322" lon="-1.21928">
        <ele>954.989651</ele>
        <time>2026-05-22T16:28:20.000Z</time>
      </trkpt>
      <trkpt lat="42.90322" lon="-1.2193">
        <ele>955.106608</ele>
        <time>2026-05-22T16:28:21.000Z</time>
      </trkpt>
      <trkpt lat="42.90323" lon="-1.21933">
        <ele>955.223565</ele>
        <time>2026-05-22T16:28:22.000Z</time>
      </trkpt>
      <trkpt lat="42.90323" lon="-1.21935">
        <ele>955.340522</ele>
        <time>2026-05-22T16:28:23.000Z</time>
      </trkpt>
      <trkpt lat="42.90324" lon="-1.21938">
        <ele>955.454565</ele>
        <time>2026-05-22T16:28:24.000Z</time>
      </trkpt>
      <trkpt lat="42.90324" lon="-1.2194">
        <ele>955.567061</ele>
        <time>2026-05-22T16:28:25.000Z</time>
      </trkpt>
      <trkpt lat="42.90324" lon="-1.21942">
        <ele>955.677461</ele>
        <time>2026-05-22T16:28:26.000Z</time>
      </trkpt>
      <trkpt lat="42.90325" lon="-1.21945">
        <ele>955.803364</ele>
        <time>2026-05-22T16:28:27.000Z</time>
      </trkpt>
      <trkpt lat="42.90325" lon="-1.21948">
        <ele>955.922851</ele>
        <time>2026-05-22T16:28:28.000Z</time>
      </trkpt>
      <trkpt lat="42.90325" lon="-1.2195">
        <ele>956.041685</ele>
        <time>2026-05-22T16:28:29.000Z</time>
      </trkpt>
      <trkpt lat="42.90325" lon="-1.21953">
        <ele>956.152963</ele>
        <time>2026-05-22T16:28:30.000Z</time>
      </trkpt>
      <trkpt lat="42.90324" lon="-1.21955">
        <ele>956.255987</ele>
        <time>2026-05-22T16:28:31.000Z</time>
      </trkpt>
      <trkpt lat="42.90324" lon="-1.21957">
        <ele>956.364031</ele>
        <time>2026-05-22T16:28:32.000Z</time>
      </trkpt>
      <trkpt lat="42.90323" lon="-1.21959">
        <ele>956.474431</ele>
        <time>2026-05-22T16:28:33.000Z</time>
      </trkpt>
      <trkpt lat="42.90323" lon="-1.21962">
        <ele>956.592876</ele>
        <time>2026-05-22T16:28:34.000Z</time>
      </trkpt>
      <trkpt lat="42.90322" lon="-1.21964">
        <ele>956.713116</ele>
        <time>2026-05-22T16:28:35.000Z</time>
      </trkpt>
      <trkpt lat="42.90322" lon="-1.21967">
        <ele>956.826951</ele>
        <time>2026-05-22T16:28:36.000Z</time>
      </trkpt>
      <trkpt lat="42.90321" lon="-1.21969">
        <ele>956.942121</ele>
        <time>2026-05-22T16:28:37.000Z</time>
      </trkpt>
      <trkpt lat="42.9032" lon="-1.21971">
        <ele>957.045793</ele>
        <time>2026-05-22T16:28:38.000Z</time>
      </trkpt>
      <trkpt lat="42.90318" lon="-1.21972">
        <ele>957.147314</ele>
        <time>2026-05-22T16:28:39.000Z</time>
      </trkpt>
      <trkpt lat="42.90317" lon="-1.21974">
        <ele>957.250629</ele>
        <time>2026-05-22T16:28:40.000Z</time>
      </trkpt>
      <trkpt lat="42.90316" lon="-1.21975">
        <ele>957.354301</ele>
        <time>2026-05-22T16:28:41.000Z</time>
      </trkpt>
      <trkpt lat="42.90315" lon="-1.21977">
        <ele>957.447002</ele>
        <time>2026-05-22T16:28:42.000Z</time>
      </trkpt>
      <trkpt lat="42.90314" lon="-1.21978">
        <ele>957.539204</ele>
        <time>2026-05-22T16:28:43.000Z</time>
      </trkpt>
      <trkpt lat="42.90313" lon="-1.2198">
        <ele>957.624339</ele>
        <time>2026-05-22T16:28:44.000Z</time>
      </trkpt>
      <trkpt lat="42.90312" lon="-1.21981">
        <ele>957.701684</ele>
        <time>2026-05-22T16:28:45.000Z</time>
      </trkpt>
      <trkpt lat="42.90311" lon="-1.21981">
        <ele>957.764247</ele>
        <time>2026-05-22T16:28:46.000Z</time>
      </trkpt>
      <trkpt lat="42.9031" lon="-1.21981">
        <ele>957.845875</ele>
        <time>2026-05-22T16:28:47.000Z</time>
      </trkpt>
      <trkpt lat="42.90308" lon="-1.21981">
        <ele>957.93958</ele>
        <time>2026-05-22T16:28:48.000Z</time>
      </trkpt>
      <trkpt lat="42.90307" lon="-1.21981">
        <ele>958.039518</ele>
        <time>2026-05-22T16:28:49.000Z</time>
      </trkpt>
      <trkpt lat="42.90305" lon="-1.21981">
        <ele>958.139769</ele>
        <time>2026-05-22T16:28:50.000Z</time>
      </trkpt>
      <trkpt lat="42.90304" lon="-1.21981">
        <ele>958.227123</ele>
        <time>2026-05-22T16:28:51.000Z</time>
      </trkpt>
      <trkpt lat="42.90302" lon="-1.21981">
        <ele>958.314597</ele>
        <time>2026-05-22T16:28:52.000Z</time>
      </trkpt>
      <trkpt lat="42.90301" lon="-1.2198">
        <ele>958.40302</ele>
        <time>2026-05-22T16:28:53.000Z</time>
      </trkpt>
      <trkpt lat="42.903" lon="-1.2198">
        <ele>958.490851</ele>
        <time>2026-05-22T16:28:54.000Z</time>
      </trkpt>
      <trkpt lat="42.90298" lon="-1.2198">
        <ele>958.587195</ele>
        <time>2026-05-22T16:28:55.000Z</time>
      </trkpt>
      <trkpt lat="42.90297" lon="-1.21979">
        <ele>958.683538</ele>
        <time>2026-05-22T16:28:56.000Z</time>
      </trkpt>
      <trkpt lat="42.90295" lon="-1.21979">
        <ele>958.781067</ele>
        <time>2026-05-22T16:28:57.000Z</time>
      </trkpt>
      <trkpt lat="42.90294" lon="-1.21978">
        <ele>958.872624</ele>
        <time>2026-05-22T16:28:58.000Z</time>
      </trkpt>
      <trkpt lat="42.90292" lon="-1.21978">
        <ele>958.962918</ele>
        <time>2026-05-22T16:28:59.000Z</time>
      </trkpt>
      <trkpt lat="42.90291" lon="-1.21977">
        <ele>959.045183</ele>
        <time>2026-05-22T16:29:00.000Z</time>
      </trkpt>
      <trkpt lat="42.90289" lon="-1.21977">
        <ele>959.142712</ele>
        <time>2026-05-22T16:29:01.000Z</time>
      </trkpt>
      <trkpt lat="42.90288" lon="-1.21976">
        <ele>959.243195</ele>
        <time>2026-05-22T16:29:02.000Z</time>
      </trkpt>
      <trkpt lat="42.90287" lon="-1.21975">
        <ele>959.341783</ele>
        <time>2026-05-22T16:29:03.000Z</time>
      </trkpt>
      <trkpt lat="42.90285" lon="-1.21974">
        <ele>959.440372</ele>
        <time>2026-05-22T16:29:04.000Z</time>
      </trkpt>
      <trkpt lat="42.90284" lon="-1.21973">
        <ele>959.538289</ele>
        <time>2026-05-22T16:29:05.000Z</time>
      </trkpt>
      <trkpt lat="42.90282" lon="-1.21972">
        <ele>959.642447</ele>
        <time>2026-05-22T16:29:06.000Z</time>
      </trkpt>
      <trkpt lat="42.90281" lon="-1.21971">
        <ele>959.742929</ele>
        <time>2026-05-22T16:29:07.000Z</time>
      </trkpt>
      <trkpt lat="42.90279" lon="-1.2197">
        <ele>959.847764</ele>
        <time>2026-05-22T16:29:08.000Z</time>
      </trkpt>
      <trkpt lat="42.90278" lon="-1.21969">
        <ele>959.946675</ele>
        <time>2026-05-22T16:29:09.000Z</time>
      </trkpt>
      <trkpt lat="42.90276" lon="-1.21969">
        <ele>960.041373</ele>
        <time>2026-05-22T16:29:10.000Z</time>
      </trkpt>
      <trkpt lat="42.90275" lon="-1.21968">
        <ele>960.131561</ele>
        <time>2026-05-22T16:29:11.000Z</time>
      </trkpt>
      <trkpt lat="42.90274" lon="-1.21966">
        <ele>960.23235</ele>
        <time>2026-05-22T16:29:12.000Z</time>
      </trkpt>
      <trkpt lat="42.90272" lon="-1.21965">
        <ele>960.333139</ele>
        <time>2026-05-22T16:29:13.000Z</time>
      </trkpt>
      <trkpt lat="42.90271" lon="-1.21964">
        <ele>960.436284</ele>
        <time>2026-05-22T16:29:14.000Z</time>
      </trkpt>
      <trkpt lat="42.9027" lon="-1.21963">
        <ele>960.536833</ele>
        <time>2026-05-22T16:29:15.000Z</time>
      </trkpt>
      <trkpt lat="42.90268" lon="-1.21962">
        <ele>960.642479</ele>
        <time>2026-05-22T16:29:16.000Z</time>
      </trkpt>
      <trkpt lat="42.90267" lon="-1.2196">
        <ele>960.745794</ele>
        <time>2026-05-22T16:29:17.000Z</time>
      </trkpt>
      <trkpt lat="42.90265" lon="-1.21959">
        <ele>960.854275</ele>
        <time>2026-05-22T16:29:18.000Z</time>
      </trkpt>
      <trkpt lat="42.90264" lon="-1.21958">
        <ele>960.952863</ele>
        <time>2026-05-22T16:29:19.000Z</time>
      </trkpt>
      <trkpt lat="42.90263" lon="-1.21957">
        <ele>961.061344</ele>
        <time>2026-05-22T16:29:20.000Z</time>
      </trkpt>
      <trkpt lat="42.90261" lon="-1.21955">
        <ele>961.16699</ele>
        <time>2026-05-22T16:29:21.000Z</time>
      </trkpt>
      <trkpt lat="42.9026" lon="-1.21954">
        <ele>961.278035</ele>
        <time>2026-05-22T16:29:22.000Z</time>
      </trkpt>
      <trkpt lat="42.90259" lon="-1.21953">
        <ele>961.370849</ele>
        <time>2026-05-22T16:29:23.000Z</time>
      </trkpt>
      <trkpt lat="42.90257" lon="-1.21951">
        <ele>961.474165</ele>
        <time>2026-05-22T16:29:24.000Z</time>
      </trkpt>
      <trkpt lat="42.90256" lon="-1.2195">
        <ele>961.578091</ele>
        <time>2026-05-22T16:29:25.000Z</time>
      </trkpt>
      <trkpt lat="42.90255" lon="-1.21948">
        <ele>961.675381</ele>
        <time>2026-05-22T16:29:26.000Z</time>
      </trkpt>
      <trkpt lat="42.90254" lon="-1.21947">
        <ele>961.772102</ele>
        <time>2026-05-22T16:29:27.000Z</time>
      </trkpt>
      <trkpt lat="42.90252" lon="-1.21946">
        <ele>961.884635</ele>
        <time>2026-05-22T16:29:28.000Z</time>
      </trkpt>
      <trkpt lat="42.90251" lon="-1.21944">
        <ele>961.995589</ele>
        <time>2026-05-22T16:29:29.000Z</time>
      </trkpt>
      <trkpt lat="42.90249" lon="-1.21942">
        <ele>962.111072</ele>
        <time>2026-05-22T16:29:30.000Z</time>
      </trkpt>
      <trkpt lat="42.90248" lon="-1.2194">
        <ele>962.224335</ele>
        <time>2026-05-22T16:29:31.000Z</time>
      </trkpt>
      <trkpt lat="42.90247" lon="-1.21938">
        <ele>962.337598</ele>
        <time>2026-05-22T16:29:32.000Z</time>
      </trkpt>
      <trkpt lat="42.90246" lon="-1.21936">
        <ele>962.446936</ele>
        <time>2026-05-22T16:29:33.000Z</time>
      </trkpt>
      <trkpt lat="42.90245" lon="-1.21934">
        <ele>962.556262</ele>
        <time>2026-05-22T16:29:34.000Z</time>
      </trkpt>
      <trkpt lat="42.90244" lon="-1.21933">
        <ele>962.659646</ele>
        <time>2026-05-22T16:29:35.000Z</time>
      </trkpt>
      <trkpt lat="42.90243" lon="-1.21931">
        <ele>962.762053</ele>
        <time>2026-05-22T16:29:36.000Z</time>
      </trkpt>
      <trkpt lat="42.90242" lon="-1.21929">
        <ele>962.867887</ele>
        <time>2026-05-22T16:29:37.000Z</time>
      </trkpt>
      <trkpt lat="42.90241" lon="-1.21927">
        <ele>962.977212</ele>
        <time>2026-05-22T16:29:38.000Z</time>
      </trkpt>
      <trkpt lat="42.90239" lon="-1.21925">
        <ele>963.08655</ele>
        <time>2026-05-22T16:29:39.000Z</time>
      </trkpt>
      <trkpt lat="42.90238" lon="-1.21924">
        <ele>963.195889</ele>
        <time>2026-05-22T16:29:40.000Z</time>
      </trkpt>
      <trkpt lat="42.90237" lon="-1.21922">
        <ele>963.308804</ele>
        <time>2026-05-22T16:29:41.000Z</time>
      </trkpt>
      <trkpt lat="42.90236" lon="-1.2192">
        <ele>963.422927</ele>
        <time>2026-05-22T16:29:42.000Z</time>
      </trkpt>
      <trkpt lat="42.90235" lon="-1.21918">
        <ele>963.539647</ele>
        <time>2026-05-22T16:29:43.000Z</time>
      </trkpt>
      <trkpt lat="42.90234" lon="-1.21916">
        <ele>963.659893</ele>
        <time>2026-05-22T16:29:44.000Z</time>
      </trkpt>
      <trkpt lat="42.90232" lon="-1.21914">
        <ele>963.777274</ele>
        <time>2026-05-22T16:29:45.000Z</time>
      </trkpt>
      <trkpt lat="42.90231" lon="-1.21912">
        <ele>963.890538</ele>
        <time>2026-05-22T16:29:46.000Z</time>
      </trkpt>
      <trkpt lat="42.9023" lon="-1.2191">
        <ele>964.018152</ele>
        <time>2026-05-22T16:29:47.000Z</time>
      </trkpt>
      <trkpt lat="42.90229" lon="-1.21908">
        <ele>964.134709</ele>
        <time>2026-05-22T16:29:48.000Z</time>
      </trkpt>
      <trkpt lat="42.90228" lon="-1.21905">
        <ele>964.251603</ele>
        <time>2026-05-22T16:29:49.000Z</time>
      </trkpt>
      <trkpt lat="42.90227" lon="-1.21903">
        <ele>964.372358</ele>
        <time>2026-05-22T16:29:50.000Z</time>
      </trkpt>
      <trkpt lat="42.90226" lon="-1.21901">
        <ele>964.492616</ele>
        <time>2026-05-22T16:29:51.000Z</time>
      </trkpt>
      <trkpt lat="42.90225" lon="-1.21899">
        <ele>964.606381</ele>
        <time>2026-05-22T16:29:52.000Z</time>
      </trkpt>
      <trkpt lat="42.90224" lon="-1.21896">
        <ele>964.726639</ele>
        <time>2026-05-22T16:29:53.000Z</time>
      </trkpt>
      <trkpt lat="42.90222" lon="-1.21894">
        <ele>964.843197</ele>
        <time>2026-05-22T16:29:54.000Z</time>
      </trkpt>
      <trkpt lat="42.90221" lon="-1.21892">
        <ele>964.959754</ele>
        <time>2026-05-22T16:29:55.000Z</time>
      </trkpt>
      <trkpt lat="42.9022" lon="-1.2189">
        <ele>965.076648</ele>
        <time>2026-05-22T16:29:56.000Z</time>
      </trkpt>
      <trkpt lat="42.90219" lon="-1.21888">
        <ele>965.186494</ele>
        <time>2026-05-22T16:29:57.000Z</time>
      </trkpt>
      <trkpt lat="42.90218" lon="-1.21886">
        <ele>965.299577</ele>
        <time>2026-05-22T16:29:58.000Z</time>
      </trkpt>
      <trkpt lat="42.90218" lon="-1.21884">
        <ele>965.402459</ele>
        <time>2026-05-22T16:29:59.000Z</time>
      </trkpt>
      <trkpt lat="42.90217" lon="-1.21882">
        <ele>965.512304</ele>
        <time>2026-05-22T16:30:00.000Z</time>
      </trkpt>
      <trkpt lat="42.90216" lon="-1.2188">
        <ele>965.615186</ele>
        <time>2026-05-22T16:30:01.000Z</time>
      </trkpt>
      <trkpt lat="42.90215" lon="-1.21878">
        <ele>965.717339</ele>
        <time>2026-05-22T16:30:02.000Z</time>
      </trkpt>
      <trkpt lat="42.90214" lon="-1.21876">
        <ele>965.819493</ele>
        <time>2026-05-22T16:30:03.000Z</time>
      </trkpt>
      <trkpt lat="42.90213" lon="-1.21874">
        <ele>965.925327</ele>
        <time>2026-05-22T16:30:04.000Z</time>
      </trkpt>
      <trkpt lat="42.90212" lon="-1.21872">
        <ele>966.030954</ele>
        <time>2026-05-22T16:30:05.000Z</time>
      </trkpt>
      <trkpt lat="42.90211" lon="-1.21871">
        <ele>966.133362</ele>
        <time>2026-05-22T16:30:06.000Z</time>
      </trkpt>
      <trkpt lat="42.9021" lon="-1.21869">
        <ele>966.232431</ele>
        <time>2026-05-22T16:30:07.000Z</time>
      </trkpt>
      <trkpt lat="42.90209" lon="-1.21867">
        <ele>966.334839</ele>
        <time>2026-05-22T16:30:08.000Z</time>
      </trkpt>
      <trkpt lat="42.90208" lon="-1.21865">
        <ele>966.448102</ele>
        <time>2026-05-22T16:30:09.000Z</time>
      </trkpt>
      <trkpt lat="42.90206" lon="-1.21863">
        <ele>966.561366</ele>
        <time>2026-05-22T16:30:10.000Z</time>
      </trkpt>
      <trkpt lat="42.90205" lon="-1.21862">
        <ele>966.676849</ele>
        <time>2026-05-22T16:30:11.000Z</time>
      </trkpt>
      <trkpt lat="42.90203" lon="-1.2186">
        <ele>966.797008</ele>
        <time>2026-05-22T16:30:12.000Z</time>
      </trkpt>
      <trkpt lat="42.90202" lon="-1.21858">
        <ele>966.917166</ele>
        <time>2026-05-22T16:30:13.000Z</time>
      </trkpt>
      <trkpt lat="42.902" lon="-1.21857">
        <ele>967.026674</ele>
        <time>2026-05-22T16:30:14.000Z</time>
      </trkpt>
      <trkpt lat="42.90199" lon="-1.21856">
        <ele>967.13383</ele>
        <time>2026-05-22T16:30:15.000Z</time>
      </trkpt>
      <trkpt lat="42.90197" lon="-1.21855">
        <ele>967.246211</ele>
        <time>2026-05-22T16:30:16.000Z</time>
      </trkpt>
      <trkpt lat="42.90196" lon="-1.21854">
        <ele>967.364167</ele>
        <time>2026-05-22T16:30:17.000Z</time>
      </trkpt>
      <trkpt lat="42.90194" lon="-1.21853">
        <ele>967.474996</ele>
        <time>2026-05-22T16:30:18.000Z</time>
      </trkpt>
      <trkpt lat="42.90192" lon="-1.21852">
        <ele>967.590351</ele>
        <time>2026-05-22T16:30:19.000Z</time>
      </trkpt>
      <trkpt lat="42.9019" lon="-1.21852">
        <ele>967.699791</ele>
        <time>2026-05-22T16:30:20.000Z</time>
      </trkpt>
      <trkpt lat="42.90188" lon="-1.21851">
        <ele>967.819052</ele>
        <time>2026-05-22T16:30:21.000Z</time>
      </trkpt>
      <trkpt lat="42.90187" lon="-1.21851">
        <ele>967.931453</ele>
        <time>2026-05-22T16:30:22.000Z</time>
      </trkpt>
      <trkpt lat="42.90185" lon="-1.2185">
        <ele>968.045654</ele>
        <time>2026-05-22T16:30:23.000Z</time>
      </trkpt>
      <trkpt lat="42.90183" lon="-1.2185">
        <ele>968.151977</ele>
        <time>2026-05-22T16:30:24.000Z</time>
      </trkpt>
      <trkpt lat="42.90181" lon="-1.2185">
        <ele>968.269169</ele>
        <time>2026-05-22T16:30:25.000Z</time>
      </trkpt>
      <trkpt lat="42.9018" lon="-1.2185">
        <ele>968.374335</ele>
        <time>2026-05-22T16:30:26.000Z</time>
      </trkpt>
      <trkpt lat="42.90178" lon="-1.2185">
        <ele>968.48755</ele>
        <time>2026-05-22T16:30:27.000Z</time>
      </trkpt>
      <trkpt lat="42.90176" lon="-1.21851">
        <ele>968.60175</ele>
        <time>2026-05-22T16:30:28.000Z</time>
      </trkpt>
      <trkpt lat="42.90174" lon="-1.21851">
        <ele>968.714965</ele>
        <time>2026-05-22T16:30:29.000Z</time>
      </trkpt>
      <trkpt lat="42.90172" lon="-1.21852">
        <ele>968.82818</ele>
        <time>2026-05-22T16:30:30.000Z</time>
      </trkpt>
      <trkpt lat="42.90171" lon="-1.21852">
        <ele>968.936403</ele>
        <time>2026-05-22T16:30:31.000Z</time>
      </trkpt>
      <trkpt lat="42.90169" lon="-1.21853">
        <ele>969.043585</ele>
        <time>2026-05-22T16:30:32.000Z</time>
      </trkpt>
      <trkpt lat="42.90167" lon="-1.21854">
        <ele>969.153025</ele>
        <time>2026-05-22T16:30:33.000Z</time>
      </trkpt>
      <trkpt lat="42.90166" lon="-1.21854">
        <ele>969.25658</ele>
        <time>2026-05-22T16:30:34.000Z</time>
      </trkpt>
      <trkpt lat="42.90164" lon="-1.21855">
        <ele>969.351956</ele>
        <time>2026-05-22T16:30:35.000Z</time>
      </trkpt>
      <trkpt lat="42.90163" lon="-1.21856">
        <ele>969.426758</ele>
        <time>2026-05-22T16:30:36.000Z</time>
      </trkpt>
      <trkpt lat="42.90162" lon="-1.21857">
        <ele>969.477701</ele>
        <time>2026-05-22T16:30:37.000Z</time>
      </trkpt>
      <trkpt lat="42.90162" lon="-1.21857">
        <ele>969.496015</ele>
        <time>2026-05-22T16:30:38.000Z</time>
      </trkpt>
      <trkpt lat="42.90159" lon="-1.21857">
        <ele>969.718632</ele>
        <time>2026-05-22T16:34:12.000Z</time>
      </trkpt>
      <trkpt lat="42.90157" lon="-1.21857">
        <ele>969.79273</ele>
        <time>2026-05-22T16:34:13.000Z</time>
      </trkpt>
      <trkpt lat="42.90156" lon="-1.21857">
        <ele>969.879136</ele>
        <time>2026-05-22T16:34:14.000Z</time>
      </trkpt>
      <trkpt lat="42.90155" lon="-1.21857">
        <ele>969.965424</ele>
        <time>2026-05-22T16:34:15.000Z</time>
      </trkpt>
      <trkpt lat="42.90153" lon="-1.21857">
        <ele>970.057985</ele>
        <time>2026-05-22T16:34:16.000Z</time>
      </trkpt>
      <trkpt lat="42.90152" lon="-1.21858">
        <ele>970.157525</ele>
        <time>2026-05-22T16:34:17.000Z</time>
      </trkpt>
      <trkpt lat="42.9015" lon="-1.21859">
        <ele>970.262436</ele>
        <time>2026-05-22T16:34:18.000Z</time>
      </trkpt>
      <trkpt lat="42.90149" lon="-1.2186">
        <ele>970.374817</ele>
        <time>2026-05-22T16:34:19.000Z</time>
      </trkpt>
      <trkpt lat="42.90147" lon="-1.21861">
        <ele>970.485646</ele>
        <time>2026-05-22T16:34:20.000Z</time>
      </trkpt>
      <trkpt lat="42.90145" lon="-1.21862">
        <ele>970.595086</ele>
        <time>2026-05-22T16:34:21.000Z</time>
      </trkpt>
      <trkpt lat="42.90144" lon="-1.21862">
        <ele>970.696073</ele>
        <time>2026-05-22T16:34:22.000Z</time>
      </trkpt>
      <trkpt lat="42.90142" lon="-1.21863">
        <ele>970.801094</ele>
        <time>2026-05-22T16:34:23.000Z</time>
      </trkpt>
      <trkpt lat="42.9014" lon="-1.21864">
        <ele>970.922388</ele>
        <time>2026-05-22T16:34:24.000Z</time>
      </trkpt>
      <trkpt lat="42.90138" lon="-1.21864">
        <ele>971.028711</ele>
        <time>2026-05-22T16:34:25.000Z</time>
      </trkpt>
      <trkpt lat="42.90136" lon="-1.21864">
        <ele>971.152062</ele>
        <time>2026-05-22T16:34:26.000Z</time>
      </trkpt>
      <trkpt lat="42.90135" lon="-1.21865">
        <ele>971.269254</ele>
        <time>2026-05-22T16:34:27.000Z</time>
      </trkpt>
      <trkpt lat="42.90133" lon="-1.21865">
        <ele>971.387139</ele>
        <time>2026-05-22T16:34:28.000Z</time>
      </trkpt>
      <trkpt lat="42.90131" lon="-1.21865">
        <ele>971.500354</ele>
        <time>2026-05-22T16:34:29.000Z</time>
      </trkpt>
      <trkpt lat="42.90129" lon="-1.21866">
        <ele>971.613568</ele>
        <time>2026-05-22T16:34:30.000Z</time>
      </trkpt>
      <trkpt lat="42.90127" lon="-1.21866">
        <ele>971.726783</ele>
        <time>2026-05-22T16:34:31.000Z</time>
      </trkpt>
      <trkpt lat="42.90126" lon="-1.21867">
        <ele>971.832433</ele>
        <time>2026-05-22T16:34:32.000Z</time>
      </trkpt>
      <trkpt lat="42.90124" lon="-1.21867">
        <ele>971.943741</ele>
        <time>2026-05-22T16:34:33.000Z</time>
      </trkpt>
      <trkpt lat="42.90122" lon="-1.21867">
        <ele>972.056956</ele>
        <time>2026-05-22T16:34:34.000Z</time>
      </trkpt>
      <trkpt lat="42.9012" lon="-1.21868">
        <ele>972.165179</ele>
        <time>2026-05-22T16:34:35.000Z</time>
      </trkpt>
      <trkpt lat="42.90118" lon="-1.21868">
        <ele>972.282631</ele>
        <time>2026-05-22T16:34:36.000Z</time>
      </trkpt>
      <trkpt lat="42.90116" lon="-1.21868">
        <ele>972.414017</ele>
        <time>2026-05-22T16:34:37.000Z</time>
      </trkpt>
      <trkpt lat="42.90114" lon="-1.21867">
        <ele>972.544155</ele>
        <time>2026-05-22T16:34:38.000Z</time>
      </trkpt>
      <trkpt lat="42.90113" lon="-1.21867">
        <ele>972.63581</ele>
        <time>2026-05-22T16:34:39.000Z</time>
      </trkpt>
      <trkpt lat="42.90111" lon="-1.21867">
        <ele>972.737654</ele>
        <time>2026-05-22T16:34:40.000Z</time>
      </trkpt>
      <trkpt lat="42.90109" lon="-1.21867">
        <ele>972.85224</ele>
        <time>2026-05-22T16:34:41.000Z</time>
      </trkpt>
      <trkpt lat="42.90107" lon="-1.21867">
        <ele>972.954084</ele>
        <time>2026-05-22T16:34:42.000Z</time>
      </trkpt>
      <trkpt lat="42.90106" lon="-1.21867">
        <ele>973.055929</ele>
        <time>2026-05-22T16:34:43.000Z</time>
      </trkpt>
      <trkpt lat="42.90104" lon="-1.21867">
        <ele>973.151883</ele>
        <time>2026-05-22T16:34:44.000Z</time>
      </trkpt>
      <trkpt lat="42.90102" lon="-1.21867">
        <ele>973.261138</ele>
        <time>2026-05-22T16:34:45.000Z</time>
      </trkpt>
      <trkpt lat="42.901" lon="-1.21866">
        <ele>973.388165</ele>
        <time>2026-05-22T16:34:46.000Z</time>
      </trkpt>
      <trkpt lat="42.90098" lon="-1.21866">
        <ele>973.490104</ele>
        <time>2026-05-22T16:34:47.000Z</time>
      </trkpt>
      <trkpt lat="42.90097" lon="-1.21866">
        <ele>973.586058</ele>
        <time>2026-05-22T16:34:48.000Z</time>
      </trkpt>
      <trkpt lat="42.90095" lon="-1.21866">
        <ele>973.695313</ele>
        <time>2026-05-22T16:34:49.000Z</time>
      </trkpt>
      <trkpt lat="42.90093" lon="-1.21866">
        <ele>973.803238</ele>
        <time>2026-05-22T16:34:50.000Z</time>
      </trkpt>
      <trkpt lat="42.90092" lon="-1.21866">
        <ele>973.899992</ele>
        <time>2026-05-22T16:34:51.000Z</time>
      </trkpt>
      <trkpt lat="42.9009" lon="-1.21866">
        <ele>974.014577</ele>
        <time>2026-05-22T16:34:52.000Z</time>
      </trkpt>
      <trkpt lat="42.90088" lon="-1.21865">
        <ele>974.117269</ele>
        <time>2026-05-22T16:34:53.000Z</time>
      </trkpt>
      <trkpt lat="42.90086" lon="-1.21865">
        <ele>974.226524</ele>
        <time>2026-05-22T16:34:54.000Z</time>
      </trkpt>
      <trkpt lat="42.90084" lon="-1.21865">
        <ele>974.340351</ele>
        <time>2026-05-22T16:34:55.000Z</time>
      </trkpt>
      <trkpt lat="42.90083" lon="-1.21865">
        <ele>974.448543</ele>
        <time>2026-05-22T16:34:56.000Z</time>
      </trkpt>
      <trkpt lat="42.90081" lon="-1.21864">
        <ele>974.571219</ele>
        <time>2026-05-22T16:34:57.000Z</time>
      </trkpt>
      <trkpt lat="42.90079" lon="-1.21863">
        <ele>974.682223</ele>
        <time>2026-05-22T16:34:58.000Z</time>
      </trkpt>
      <trkpt lat="42.90077" lon="-1.21863">
        <ele>974.792268</ele>
        <time>2026-05-22T16:34:59.000Z</time>
      </trkpt>
      <trkpt lat="42.90075" lon="-1.21863">
        <ele>974.895615</ele>
        <time>2026-05-22T16:35:00.000Z</time>
      </trkpt>
      <trkpt lat="42.90073" lon="-1.21862">
        <ele>975.019307</ele>
        <time>2026-05-22T16:35:01.000Z</time>
      </trkpt>
      <trkpt lat="42.90072" lon="-1.21861">
        <ele>975.128543</ele>
        <time>2026-05-22T16:35:02.000Z</time>
      </trkpt>
      <trkpt lat="42.9007" lon="-1.2186">
        <ele>975.233965</ele>
        <time>2026-05-22T16:35:03.000Z</time>
      </trkpt>
      <trkpt lat="42.90068" lon="-1.21859">
        <ele>975.348619</ele>
        <time>2026-05-22T16:35:04.000Z</time>
      </trkpt>
      <trkpt lat="42.90067" lon="-1.21858">
        <ele>975.463274</ele>
        <time>2026-05-22T16:35:05.000Z</time>
      </trkpt>
      <trkpt lat="42.90065" lon="-1.21856">
        <ele>975.565282</ele>
        <time>2026-05-22T16:35:06.000Z</time>
      </trkpt>
      <trkpt lat="42.90064" lon="-1.21855">
        <ele>975.66448</ele>
        <time>2026-05-22T16:35:07.000Z</time>
      </trkpt>
      <trkpt lat="42.90063" lon="-1.21853">
        <ele>975.771289</ele>
        <time>2026-05-22T16:35:08.000Z</time>
      </trkpt>
      <trkpt lat="42.90061" lon="-1.21851">
        <ele>975.878098</ele>
        <time>2026-05-22T16:35:09.000Z</time>
      </trkpt>
      <trkpt lat="42.9006" lon="-1.2185">
        <ele>975.988193</ele>
        <time>2026-05-22T16:35:10.000Z</time>
      </trkpt>
      <trkpt lat="42.90059" lon="-1.21847">
        <ele>976.108736</ele>
        <time>2026-05-22T16:35:11.000Z</time>
      </trkpt>
      <trkpt lat="42.90058" lon="-1.21845">
        <ele>976.218656</ele>
        <time>2026-05-22T16:35:12.000Z</time>
      </trkpt>
      <trkpt lat="42.90057" lon="-1.21843">
        <ele>976.336923</ele>
        <time>2026-05-22T16:35:13.000Z</time>
      </trkpt>
      <trkpt lat="42.90056" lon="-1.21841">
        <ele>976.453817</ele>
        <time>2026-05-22T16:35:14.000Z</time>
      </trkpt>
      <trkpt lat="42.90055" lon="-1.21839">
        <ele>976.565554</ele>
        <time>2026-05-22T16:35:15.000Z</time>
      </trkpt>
      <trkpt lat="42.90054" lon="-1.21837">
        <ele>976.668575</ele>
        <time>2026-05-22T16:35:16.000Z</time>
      </trkpt>
      <trkpt lat="42.90053" lon="-1.21834">
        <ele>976.773837</ele>
        <time>2026-05-22T16:35:17.000Z</time>
      </trkpt>
      <trkpt lat="42.90053" lon="-1.21832">
        <ele>976.869061</ele>
        <time>2026-05-22T16:35:18.000Z</time>
      </trkpt>
      <trkpt lat="42.90052" lon="-1.2183">
        <ele>976.980798</ele>
        <time>2026-05-22T16:35:19.000Z</time>
      </trkpt>
      <trkpt lat="42.90052" lon="-1.21828">
        <ele>977.069397</ele>
        <time>2026-05-22T16:35:20.000Z</time>
      </trkpt>
      <trkpt lat="42.90051" lon="-1.21826">
        <ele>977.157996</ele>
        <time>2026-05-22T16:35:21.000Z</time>
      </trkpt>
      <trkpt lat="42.90051" lon="-1.21824">
        <ele>977.25133</ele>
        <time>2026-05-22T16:35:22.000Z</time>
      </trkpt>
      <trkpt lat="42.9005" lon="-1.21822">
        <ele>977.343683</ele>
        <time>2026-05-22T16:35:23.000Z</time>
      </trkpt>
      <trkpt lat="42.9005" lon="-1.2182">
        <ele>977.449178</ele>
        <time>2026-05-22T16:35:24.000Z</time>
      </trkpt>
      <trkpt lat="42.9005" lon="-1.21817">
        <ele>977.559544</ele>
        <time>2026-05-22T16:35:25.000Z</time>
      </trkpt>
      <trkpt lat="42.9005" lon="-1.21815">
        <ele>977.664869</ele>
        <time>2026-05-22T16:35:26.000Z</time>
      </trkpt>
      <trkpt lat="42.9005" lon="-1.21812">
        <ele>977.771716</ele>
        <time>2026-05-22T16:35:27.000Z</time>
      </trkpt>
      <trkpt lat="42.90051" lon="-1.2181">
        <ele>977.87772</ele>
        <time>2026-05-22T16:35:28.000Z</time>
      </trkpt>
      <trkpt lat="42.90051" lon="-1.21808">
        <ele>977.983044</ele>
        <time>2026-05-22T16:35:29.000Z</time>
      </trkpt>
      <trkpt lat="42.90051" lon="-1.21806">
        <ele>978.075398</ele>
        <time>2026-05-22T16:35:30.000Z</time>
      </trkpt>
      <trkpt lat="42.9005" lon="-1.21803">
        <ele>978.169293</ele>
        <time>2026-05-22T16:35:31.000Z</time>
      </trkpt>
      <trkpt lat="42.9005" lon="-1.21801">
        <ele>978.275297</ele>
        <time>2026-05-22T16:35:32.000Z</time>
      </trkpt>
      <trkpt lat="42.9005" lon="-1.21799">
        <ele>978.371845</ele>
        <time>2026-05-22T16:35:33.000Z</time>
      </trkpt>
      <trkpt lat="42.90051" lon="-1.21796">
        <ele>978.479861</ele>
        <time>2026-05-22T16:35:34.000Z</time>
      </trkpt>
      <trkpt lat="42.90051" lon="-1.21794">
        <ele>978.585865</ele>
        <time>2026-05-22T16:35:35.000Z</time>
      </trkpt>
      <trkpt lat="42.90051" lon="-1.21792">
        <ele>978.686979</ele>
        <time>2026-05-22T16:35:36.000Z</time>
      </trkpt>
      <trkpt lat="42.90051" lon="-1.2179">
        <ele>978.782203</ele>
        <time>2026-05-22T16:35:37.000Z</time>
      </trkpt>
      <trkpt lat="42.90051" lon="-1.21788">
        <ele>978.8675</ele>
        <time>2026-05-22T16:35:38.000Z</time>
      </trkpt>
      <trkpt lat="42.90052" lon="-1.21786">
        <ele>978.959853</ele>
        <time>2026-05-22T16:35:39.000Z</time>
      </trkpt>
      <trkpt lat="42.90052" lon="-1.21783">
        <ele>979.056401</ele>
        <time>2026-05-22T16:35:40.000Z</time>
      </trkpt>
      <trkpt lat="42.90052" lon="-1.21781">
        <ele>979.155878</ele>
        <time>2026-05-22T16:35:41.000Z</time>
      </trkpt>
      <trkpt lat="42.90052" lon="-1.21779">
        <ele>979.253166</ele>
        <time>2026-05-22T16:35:42.000Z</time>
      </trkpt>
      <trkpt lat="42.90052" lon="-1.21777">
        <ele>979.358661</ele>
        <time>2026-05-22T16:35:43.000Z</time>
      </trkpt>
      <trkpt lat="42.90053" lon="-1.21775">
        <ele>979.453885</ele>
        <time>2026-05-22T16:35:44.000Z</time>
      </trkpt>
      <trkpt lat="42.90053" lon="-1.21772">
        <ele>979.559379</ele>
        <time>2026-05-22T16:35:45.000Z</time>
      </trkpt>
      <trkpt lat="42.90053" lon="-1.2177">
        <ele>979.660316</ele>
        <time>2026-05-22T16:35:46.000Z</time>
      </trkpt>
      <trkpt lat="42.90053" lon="-1.21767">
        <ele>979.76581</ele>
        <time>2026-05-22T16:35:47.000Z</time>
      </trkpt>
      <trkpt lat="42.90052" lon="-1.21765">
        <ele>979.868334</ele>
        <time>2026-05-22T16:35:48.000Z</time>
      </trkpt>
      <trkpt lat="42.90052" lon="-1.21763">
        <ele>979.97951</ele>
        <time>2026-05-22T16:35:49.000Z</time>
      </trkpt>
      <trkpt lat="42.90052" lon="-1.2176">
        <ele>980.085514</ele>
        <time>2026-05-22T16:35:50.000Z</time>
      </trkpt>
      <trkpt lat="42.90052" lon="-1.21758">
        <ele>980.187158</ele>
        <time>2026-05-22T16:35:51.000Z</time>
      </trkpt>
      <trkpt lat="42.90053" lon="-1.21756">
        <ele>980.282382</ele>
        <time>2026-05-22T16:35:52.000Z</time>
      </trkpt>
      <trkpt lat="42.90053" lon="-1.21754">
        <ele>980.373365</ele>
        <time>2026-05-22T16:35:53.000Z</time>
      </trkpt>
      <trkpt lat="42.90054" lon="-1.21752">
        <ele>980.46726</ele>
        <time>2026-05-22T16:35:54.000Z</time>
      </trkpt>
      <trkpt lat="42.90054" lon="-1.21749">
        <ele>980.568374</ele>
        <time>2026-05-22T16:35:55.000Z</time>
      </trkpt>
      <trkpt lat="42.90054" lon="-1.21747">
        <ele>980.674378</ele>
        <time>2026-05-22T16:35:56.000Z</time>
      </trkpt>
      <trkpt lat="42.90054" lon="-1.21745">
        <ele>980.780382</ele>
        <time>2026-05-22T16:35:57.000Z</time>
      </trkpt>
      <trkpt lat="42.90054" lon="-1.21742">
        <ele>980.89589</ele>
        <time>2026-05-22T16:35:58.000Z</time>
      </trkpt>
      <trkpt lat="42.90054" lon="-1.21739">
        <ele>981.011399</ele>
        <time>2026-05-22T16:35:59.000Z</time>
      </trkpt>
      <trkpt lat="42.90054" lon="-1.21737">
        <ele>981.13004</ele>
        <time>2026-05-22T16:36:00.000Z</time>
      </trkpt>
      <trkpt lat="42.90054" lon="-1.21734">
        <ele>981.239917</ele>
        <time>2026-05-22T16:36:01.000Z</time>
      </trkpt>
      <trkpt lat="42.90055" lon="-1.21732">
        <ele>981.355425</ele>
        <time>2026-05-22T16:36:02.000Z</time>
      </trkpt>
      <trkpt lat="42.90055" lon="-1.21729">
        <ele>981.46075</ele>
        <time>2026-05-22T16:36:03.000Z</time>
      </trkpt>
      <trkpt lat="42.90055" lon="-1.21727">
        <ele>981.566754</ele>
        <time>2026-05-22T16:36:04.000Z</time>
      </trkpt>
      <trkpt lat="42.90055" lon="-1.21724">
        <ele>981.672249</ele>
        <time>2026-05-22T16:36:05.000Z</time>
      </trkpt>
      <trkpt lat="42.90055" lon="-1.21722">
        <ele>981.786508</ele>
        <time>2026-05-22T16:36:06.000Z</time>
      </trkpt>
      <trkpt lat="42.90055" lon="-1.21719">
        <ele>981.893355</ele>
        <time>2026-05-22T16:36:07.000Z</time>
      </trkpt>
      <trkpt lat="42.90055" lon="-1.21717">
        <ele>981.994468</ele>
        <time>2026-05-22T16:36:08.000Z</time>
      </trkpt>
      <trkpt lat="42.90056" lon="-1.21715">
        <ele>982.102485</ele>
        <time>2026-05-22T16:36:09.000Z</time>
      </trkpt>
      <trkpt lat="42.90056" lon="-1.21712">
        <ele>982.205008</ele>
        <time>2026-05-22T16:36:10.000Z</time>
      </trkpt>
      <trkpt lat="42.90056" lon="-1.2171">
        <ele>982.304485</ele>
        <time>2026-05-22T16:36:11.000Z</time>
      </trkpt>
      <trkpt lat="42.90057" lon="-1.21708">
        <ele>982.408227</ele>
        <time>2026-05-22T16:36:12.000Z</time>
      </trkpt>
      <trkpt lat="42.90057" lon="-1.21706">
        <ele>982.509163</ele>
        <time>2026-05-22T16:36:13.000Z</time>
      </trkpt>
      <trkpt lat="42.90057" lon="-1.21703">
        <ele>982.617179</ele>
        <time>2026-05-22T16:36:14.000Z</time>
      </trkpt>
      <trkpt lat="42.90057" lon="-1.21701">
        <ele>982.724026</ele>
        <time>2026-05-22T16:36:15.000Z</time>
      </trkpt>
      <trkpt lat="42.90057" lon="-1.21699">
        <ele>982.82514</ele>
        <time>2026-05-22T16:36:16.000Z</time>
      </trkpt>
      <trkpt lat="42.90057" lon="-1.21696">
        <ele>982.931987</ele>
        <time>2026-05-22T16:36:17.000Z</time>
      </trkpt>
      <trkpt lat="42.90057" lon="-1.21694">
        <ele>983.0417</ele>
        <time>2026-05-22T16:36:18.000Z</time>
      </trkpt>
      <trkpt lat="42.90057" lon="-1.21691">
        <ele>983.143345</ele>
        <time>2026-05-22T16:36:19.000Z</time>
      </trkpt>
      <trkpt lat="42.90058" lon="-1.21689">
        <ele>983.231929</ele>
        <time>2026-05-22T16:36:20.000Z</time>
      </trkpt>
      <trkpt lat="42.90058" lon="-1.21687">
        <ele>983.342295</ele>
        <time>2026-05-22T16:36:21.000Z</time>
      </trkpt>
      <trkpt lat="42.90058" lon="-1.21684">
        <ele>983.44929</ele>
        <time>2026-05-22T16:36:22.000Z</time>
      </trkpt>
      <trkpt lat="42.90058" lon="-1.21682">
        <ele>983.547707</ele>
        <time>2026-05-22T16:36:23.000Z</time>
      </trkpt>
      <trkpt lat="42.90059" lon="-1.2168">
        <ele>983.657443</ele>
        <time>2026-05-22T16:36:24.000Z</time>
      </trkpt>
      <trkpt lat="42.90059" lon="-1.21678">
        <ele>983.758774</ele>
        <time>2026-05-22T16:36:25.000Z</time>
      </trkpt>
      <trkpt lat="42.90059" lon="-1.21675">
        <ele>983.870187</ele>
        <time>2026-05-22T16:36:26.000Z</time>
      </trkpt>
      <trkpt lat="42.90059" lon="-1.21673">
        <ele>983.971518</ele>
        <time>2026-05-22T16:36:27.000Z</time>
      </trkpt>
      <trkpt lat="42.90059" lon="-1.2167">
        <ele>984.08163</ele>
        <time>2026-05-22T16:36:28.000Z</time>
      </trkpt>
      <trkpt lat="42.90059" lon="-1.21668">
        <ele>984.192232</ele>
        <time>2026-05-22T16:36:29.000Z</time>
      </trkpt>
      <trkpt lat="42.90059" lon="-1.21665">
        <ele>984.315958</ele>
        <time>2026-05-22T16:36:30.000Z</time>
      </trkpt>
      <trkpt lat="42.90059" lon="-1.21663">
        <ele>984.418701</ele>
        <time>2026-05-22T16:36:31.000Z</time>
      </trkpt>
      <trkpt lat="42.90059" lon="-1.2166">
        <ele>984.534458</ele>
        <time>2026-05-22T16:36:32.000Z</time>
      </trkpt>
      <trkpt lat="42.90059" lon="-1.21658">
        <ele>984.64457</ele>
        <time>2026-05-22T16:36:33.000Z</time>
      </trkpt>
      <trkpt lat="42.90059" lon="-1.21655">
        <ele>984.759073</ele>
        <time>2026-05-22T16:36:34.000Z</time>
      </trkpt>
      <trkpt lat="42.9006" lon="-1.21652">
        <ele>984.873046</ele>
        <time>2026-05-22T16:36:35.000Z</time>
      </trkpt>
      <trkpt lat="42.9006" lon="-1.2165">
        <ele>984.974376</ele>
        <time>2026-05-22T16:36:36.000Z</time>
      </trkpt>
      <trkpt lat="42.9006" lon="-1.21648">
        <ele>985.080607</ele>
        <time>2026-05-22T16:36:37.000Z</time>
      </trkpt>
      <trkpt lat="42.9006" lon="-1.21645">
        <ele>985.181938</ele>
        <time>2026-05-22T16:36:38.000Z</time>
      </trkpt>
      <trkpt lat="42.90061" lon="-1.21643">
        <ele>985.29254</ele>
        <time>2026-05-22T16:36:39.000Z</time>
      </trkpt>
      <trkpt lat="42.9006" lon="-1.21641">
        <ele>985.399915</ele>
        <time>2026-05-22T16:36:40.000Z</time>
      </trkpt>
      <trkpt lat="42.9006" lon="-1.21638">
        <ele>985.505465</ele>
        <time>2026-05-22T16:36:41.000Z</time>
      </trkpt>
      <trkpt lat="42.9006" lon="-1.21636">
        <ele>985.615414</ele>
        <time>2026-05-22T16:36:42.000Z</time>
      </trkpt>
      <trkpt lat="42.9006" lon="-1.21633">
        <ele>985.727954</ele>
        <time>2026-05-22T16:36:43.000Z</time>
      </trkpt>
      <trkpt lat="42.9006" lon="-1.21631">
        <ele>985.838066</ele>
        <time>2026-05-22T16:36:44.000Z</time>
      </trkpt>
      <trkpt lat="42.90061" lon="-1.21628">
        <ele>985.939396</ele>
        <time>2026-05-22T16:36:45.000Z</time>
      </trkpt>
      <trkpt lat="42.90061" lon="-1.21626">
        <ele>986.044947</ele>
        <time>2026-05-22T16:36:46.000Z</time>
      </trkpt>
      <trkpt lat="42.9006" lon="-1.21623">
        <ele>986.15945</ele>
        <time>2026-05-22T16:36:47.000Z</time>
      </trkpt>
      <trkpt lat="42.90061" lon="-1.21621">
        <ele>986.265682</ele>
        <time>2026-05-22T16:36:48.000Z</time>
      </trkpt>
      <trkpt lat="42.9006" lon="-1.21619">
        <ele>986.367544</ele>
        <time>2026-05-22T16:36:49.000Z</time>
      </trkpt>
      <trkpt lat="42.90061" lon="-1.21617">
        <ele>986.464485</ele>
        <time>2026-05-22T16:36:50.000Z</time>
      </trkpt>
      <trkpt lat="42.90061" lon="-1.21614">
        <ele>986.570035</ele>
        <time>2026-05-22T16:36:51.000Z</time>
      </trkpt>
      <trkpt lat="42.9006" lon="-1.21612">
        <ele>986.671365</ele>
        <time>2026-05-22T16:36:52.000Z</time>
      </trkpt>
      <trkpt lat="42.9006" lon="-1.2161">
        <ele>986.768862</ele>
        <time>2026-05-22T16:36:53.000Z</time>
      </trkpt>
      <trkpt lat="42.9006" lon="-1.21607">
        <ele>986.865803</ele>
        <time>2026-05-22T16:36:54.000Z</time>
      </trkpt>
      <trkpt lat="42.9006" lon="-1.21605">
        <ele>986.969767</ele>
        <time>2026-05-22T16:36:55.000Z</time>
      </trkpt>
      <trkpt lat="42.9006" lon="-1.21603">
        <ele>987.075998</ele>
        <time>2026-05-22T16:36:56.000Z</time>
      </trkpt>
      <trkpt lat="42.9006" lon="-1.216">
        <ele>987.183074</ele>
        <time>2026-05-22T16:36:57.000Z</time>
      </trkpt>
      <trkpt lat="42.9006" lon="-1.21598">
        <ele>987.271033</ele>
        <time>2026-05-22T16:36:58.000Z</time>
      </trkpt>
      <trkpt lat="42.9006" lon="-1.21596">
        <ele>987.363584</ele>
        <time>2026-05-22T16:36:59.000Z</time>
      </trkpt>
      <trkpt lat="42.9006" lon="-1.21594">
        <ele>987.471832</ele>
        <time>2026-05-22T16:37:00.000Z</time>
      </trkpt>
      <trkpt lat="42.9006" lon="-1.21591">
        <ele>987.577382</ele>
        <time>2026-05-22T16:37:01.000Z</time>
      </trkpt>
      <trkpt lat="42.90059" lon="-1.21589">
        <ele>987.693081</ele>
        <time>2026-05-22T16:37:02.000Z</time>
      </trkpt>
      <trkpt lat="42.90059" lon="-1.21586">
        <ele>987.803683</ele>
        <time>2026-05-22T16:37:03.000Z</time>
      </trkpt>
      <trkpt lat="42.90059" lon="-1.21584">
        <ele>987.900624</ele>
        <time>2026-05-22T16:37:04.000Z</time>
      </trkpt>
      <trkpt lat="42.90059" lon="-1.21582">
        <ele>987.989398</ele>
        <time>2026-05-22T16:37:05.000Z</time>
      </trkpt>
      <trkpt lat="42.90059" lon="-1.2158">
        <ele>988.082532</ele>
        <time>2026-05-22T16:37:06.000Z</time>
      </trkpt>
      <trkpt lat="42.90059" lon="-1.21578">
        <ele>988.185275</ele>
        <time>2026-05-22T16:37:07.000Z</time>
      </trkpt>
      <trkpt lat="42.90059" lon="-1.21575">
        <ele>988.299622</ele>
        <time>2026-05-22T16:37:08.000Z</time>
      </trkpt>
      <trkpt lat="42.90058" lon="-1.21572">
        <ele>988.442195</ele>
        <time>2026-05-22T16:37:09.000Z</time>
      </trkpt>
      <trkpt lat="42.90057" lon="-1.21569">
        <ele>988.574725</ele>
        <time>2026-05-22T16:37:10.000Z</time>
      </trkpt>
      <trkpt lat="42.90057" lon="-1.21567">
        <ele>988.694074</ele>
        <time>2026-05-22T16:37:11.000Z</time>
      </trkpt>
      <trkpt lat="42.90057" lon="-1.21564">
        <ele>988.809831</ele>
        <time>2026-05-22T16:37:12.000Z</time>
      </trkpt>
      <trkpt lat="42.90057" lon="-1.21561">
        <ele>988.932973</ele>
        <time>2026-05-22T16:37:13.000Z</time>
      </trkpt>
      <trkpt lat="42.90057" lon="-1.21559">
        <ele>989.042921</ele>
        <time>2026-05-22T16:37:14.000Z</time>
      </trkpt>
      <trkpt lat="42.90057" lon="-1.21556">
        <ele>989.153033</ele>
        <time>2026-05-22T16:37:15.000Z</time>
      </trkpt>
      <trkpt lat="42.90057" lon="-1.21554">
        <ele>989.258584</ele>
        <time>2026-05-22T16:37:16.000Z</time>
      </trkpt>
      <trkpt lat="42.90056" lon="-1.21551">
        <ele>989.36832</ele>
        <time>2026-05-22T16:37:17.000Z</time>
      </trkpt>
      <trkpt lat="42.90056" lon="-1.21549">
        <ele>989.46965</ele>
        <time>2026-05-22T16:37:18.000Z</time>
      </trkpt>
      <trkpt lat="42.90056" lon="-1.21547">
        <ele>989.567147</ele>
        <time>2026-05-22T16:37:19.000Z</time>
      </trkpt>
      <trkpt lat="42.90056" lon="-1.21545">
        <ele>989.66901</ele>
        <time>2026-05-22T16:37:20.000Z</time>
      </trkpt>
      <trkpt lat="42.90056" lon="-1.21542">
        <ele>989.767426</ele>
        <time>2026-05-22T16:37:21.000Z</time>
      </trkpt>
      <trkpt lat="42.90056" lon="-1.2154">
        <ele>989.869289</ele>
        <time>2026-05-22T16:37:22.000Z</time>
      </trkpt>
      <trkpt lat="42.90056" lon="-1.21538">
        <ele>989.979401</ele>
        <time>2026-05-22T16:37:23.000Z</time>
      </trkpt>
      <trkpt lat="42.90056" lon="-1.21535">
        <ele>990.082144</ele>
        <time>2026-05-22T16:37:24.000Z</time>
      </trkpt>
      <trkpt lat="42.90056" lon="-1.21533">
        <ele>990.20104</ele>
        <time>2026-05-22T16:37:25.000Z</time>
      </trkpt>
      <trkpt lat="42.90056" lon="-1.2153">
        <ele>990.315387</ele>
        <time>2026-05-22T16:37:26.000Z</time>
      </trkpt>
      <trkpt lat="42.90056" lon="-1.21527">
        <ele>990.429733</ele>
        <time>2026-05-22T16:37:27.000Z</time>
      </trkpt>
      <trkpt lat="42.90056" lon="-1.21525">
        <ele>990.535454</ele>
        <time>2026-05-22T16:37:28.000Z</time>
      </trkpt>
      <trkpt lat="42.90056" lon="-1.21522">
        <ele>990.649958</ele>
        <time>2026-05-22T16:37:29.000Z</time>
      </trkpt>
      <trkpt lat="42.90055" lon="-1.2152">
        <ele>990.776706</ele>
        <time>2026-05-22T16:37:30.000Z</time>
      </trkpt>
      <trkpt lat="42.90055" lon="-1.21517">
        <ele>990.887308</ele>
        <time>2026-05-22T16:37:31.000Z</time>
      </trkpt>
      <trkpt lat="42.90055" lon="-1.21515">
        <ele>990.99742</ele>
        <time>2026-05-22T16:37:32.000Z</time>
      </trkpt>
      <trkpt lat="42.90054" lon="-1.21512">
        <ele>991.12788</ele>
        <time>2026-05-22T16:37:33.000Z</time>
      </trkpt>
      <trkpt lat="42.90054" lon="-1.2151">
        <ele>991.233601</ele>
        <time>2026-05-22T16:37:34.000Z</time>
      </trkpt>
      <trkpt lat="42.90054" lon="-1.21507">
        <ele>991.334932</ele>
        <time>2026-05-22T16:37:35.000Z</time>
      </trkpt>
      <trkpt lat="42.90054" lon="-1.21505">
        <ele>991.445044</ele>
        <time>2026-05-22T16:37:36.000Z</time>
      </trkpt>
      <trkpt lat="42.90054" lon="-1.21502">
        <ele>991.56394</ele>
        <time>2026-05-22T16:37:37.000Z</time>
      </trkpt>
      <trkpt lat="42.90054" lon="-1.215">
        <ele>991.669661</ele>
        <time>2026-05-22T16:37:38.000Z</time>
      </trkpt>
      <trkpt lat="42.90054" lon="-1.21497">
        <ele>991.776737</ele>
        <time>2026-05-22T16:37:39.000Z</time>
      </trkpt>
      <trkpt lat="42.90053" lon="-1.21495">
        <ele>991.869289</ele>
        <time>2026-05-22T16:37:40.000Z</time>
      </trkpt>
      <trkpt lat="42.90053" lon="-1.21493">
        <ele>991.979237</ele>
        <time>2026-05-22T16:37:41.000Z</time>
      </trkpt>
      <trkpt lat="42.90053" lon="-1.2149">
        <ele>992.090651</ele>
        <time>2026-05-22T16:37:42.000Z</time>
      </trkpt>
      <trkpt lat="42.90053" lon="-1.21488">
        <ele>992.192514</ele>
        <time>2026-05-22T16:37:43.000Z</time>
      </trkpt>
      <trkpt lat="42.90053" lon="-1.21485">
        <ele>992.311258</ele>
        <time>2026-05-22T16:37:44.000Z</time>
      </trkpt>
      <trkpt lat="42.90053" lon="-1.21483">
        <ele>992.42137</ele>
        <time>2026-05-22T16:37:45.000Z</time>
      </trkpt>
      <trkpt lat="42.90053" lon="-1.2148">
        <ele>992.531972</ele>
        <time>2026-05-22T16:37:46.000Z</time>
      </trkpt>
      <trkpt lat="42.90053" lon="-1.21478">
        <ele>992.624329</ele>
        <time>2026-05-22T16:37:47.000Z</time>
      </trkpt>
      <trkpt lat="42.90053" lon="-1.21476">
        <ele>992.721826</ele>
        <time>2026-05-22T16:37:48.000Z</time>
      </trkpt>
      <trkpt lat="42.90053" lon="-1.21474">
        <ele>992.819322</ele>
        <time>2026-05-22T16:37:49.000Z</time>
      </trkpt>
      <trkpt lat="42.90053" lon="-1.21471">
        <ele>992.917739</ele>
        <time>2026-05-22T16:37:50.000Z</time>
      </trkpt>
      <trkpt lat="42.90053" lon="-1.21469">
        <ele>993.010873</ele>
        <time>2026-05-22T16:37:51.000Z</time>
      </trkpt>
      <trkpt lat="42.90054" lon="-1.21467">
        <ele>993.096353</ele>
        <time>2026-05-22T16:37:52.000Z</time>
      </trkpt>
      <trkpt lat="42.90054" lon="-1.21465">
        <ele>993.188905</ele>
        <time>2026-05-22T16:37:53.000Z</time>
      </trkpt>
      <trkpt lat="42.90054" lon="-1.21464">
        <ele>993.268973</ele>
        <time>2026-05-22T16:37:54.000Z</time>
      </trkpt>
      <trkpt lat="42.90054" lon="-1.21462">
        <ele>993.357747</ele>
        <time>2026-05-22T16:37:55.000Z</time>
      </trkpt>
      <trkpt lat="42.90055" lon="-1.21459">
        <ele>993.46099</ele>
        <time>2026-05-22T16:37:56.000Z</time>
      </trkpt>
      <trkpt lat="42.90055" lon="-1.21457">
        <ele>993.570525</ele>
        <time>2026-05-22T16:37:57.000Z</time>
      </trkpt>
      <trkpt lat="42.90056" lon="-1.21455">
        <ele>993.682053</ele>
        <time>2026-05-22T16:37:58.000Z</time>
      </trkpt>
      <trkpt lat="42.90056" lon="-1.21452">
        <ele>993.790301</ele>
        <time>2026-05-22T16:37:59.000Z</time>
      </trkpt>
      <trkpt lat="42.90057" lon="-1.2145">
        <ele>993.906266</ele>
        <time>2026-05-22T16:38:00.000Z</time>
      </trkpt>
      <trkpt lat="42.90058" lon="-1.21447">
        <ele>994.018806</ele>
        <time>2026-05-22T16:38:01.000Z</time>
      </trkpt>
      <trkpt lat="42.90058" lon="-1.21445">
        <ele>994.129408</ele>
        <time>2026-05-22T16:38:02.000Z</time>
      </trkpt>
      <trkpt lat="42.90058" lon="-1.21443">
        <ele>994.178294</ele>
        <time>2026-05-22T16:38:03.000Z</time>
      </trkpt>
      <trkpt lat="42.90058" lon="-1.2144">
        <ele>994.178294</ele>
        <time>2026-05-22T16:38:04.000Z</time>
      </trkpt>
      <trkpt lat="42.90059" lon="-1.21438">
        <ele>994.178294</ele>
        <time>2026-05-22T16:38:05.000Z</time>
      </trkpt>
      <trkpt lat="42.9006" lon="-1.21435">
        <ele>994.178294</ele>
        <time>2026-05-22T16:38:06.000Z</time>
      </trkpt>
      <trkpt lat="42.9006" lon="-1.21433">
        <ele>994.178294</ele>
        <time>2026-05-22T16:38:07.000Z</time>
      </trkpt>
      <trkpt lat="42.90061" lon="-1.21431">
        <ele>994.178294</ele>
        <time>2026-05-22T16:38:08.000Z</time>
      </trkpt>
      <trkpt lat="42.90062" lon="-1.21428">
        <ele>994.178294</ele>
        <time>2026-05-22T16:38:09.000Z</time>
      </trkpt>
      <trkpt lat="42.90063" lon="-1.21426">
        <ele>994.178294</ele>
        <time>2026-05-22T16:38:10.000Z</time>
      </trkpt>
      <trkpt lat="42.90063" lon="-1.21423">
        <ele>994.178294</ele>
        <time>2026-05-22T16:38:11.000Z</time>
      </trkpt>
      <trkpt lat="42.90064" lon="-1.21421">
        <ele>994.178294</ele>
        <time>2026-05-22T16:38:12.000Z</time>
      </trkpt>
      <trkpt lat="42.90064" lon="-1.21419">
        <ele>994.178294</ele>
        <time>2026-05-22T16:38:13.000Z</time>
      </trkpt>
      <trkpt lat="42.90065" lon="-1.21417">
        <ele>994.178294</ele>
        <time>2026-05-22T16:38:14.000Z</time>
      </trkpt>
      <trkpt lat="42.90066" lon="-1.21414">
        <ele>994.178294</ele>
        <time>2026-05-22T16:38:15.000Z</time>
      </trkpt>
      <trkpt lat="42.90067" lon="-1.21412">
        <ele>994.178294</ele>
        <time>2026-05-22T16:38:16.000Z</time>
      </trkpt>
      <trkpt lat="42.90068" lon="-1.2141">
        <ele>994.178294</ele>
        <time>2026-05-22T16:38:17.000Z</time>
      </trkpt>
      <trkpt lat="42.90069" lon="-1.21407">
        <ele>994.178294</ele>
        <time>2026-05-22T16:38:18.000Z</time>
      </trkpt>
      <trkpt lat="42.90069" lon="-1.21405">
        <ele>994.178294</ele>
        <time>2026-05-22T16:38:19.000Z</time>
      </trkpt>
      <trkpt lat="42.9007" lon="-1.21403">
        <ele>994.178294</ele>
        <time>2026-05-22T16:38:20.000Z</time>
      </trkpt>
      <trkpt lat="42.9007" lon="-1.214">
        <ele>994.178294</ele>
        <time>2026-05-22T16:38:21.000Z</time>
      </trkpt>
      <trkpt lat="42.90071" lon="-1.21398">
        <ele>994.178294</ele>
        <time>2026-05-22T16:38:22.000Z</time>
      </trkpt>
      <trkpt lat="42.90071" lon="-1.21395">
        <ele>994.178294</ele>
        <time>2026-05-22T16:38:23.000Z</time>
      </trkpt>
      <trkpt lat="42.90071" lon="-1.21393">
        <ele>994.178294</ele>
        <time>2026-05-22T16:38:24.000Z</time>
      </trkpt>
      <trkpt lat="42.90071" lon="-1.21391">
        <ele>994.178294</ele>
        <time>2026-05-22T16:38:25.000Z</time>
      </trkpt>
      <trkpt lat="42.90071" lon="-1.21389">
        <ele>994.178294</ele>
        <time>2026-05-22T16:38:26.000Z</time>
      </trkpt>
      <trkpt lat="42.90071" lon="-1.21386">
        <ele>994.178294</ele>
        <time>2026-05-22T16:38:27.000Z</time>
      </trkpt>
      <trkpt lat="42.90071" lon="-1.21384">
        <ele>994.178294</ele>
        <time>2026-05-22T16:38:28.000Z</time>
      </trkpt>
      <trkpt lat="42.90071" lon="-1.21382">
        <ele>994.178294</ele>
        <time>2026-05-22T16:38:29.000Z</time>
      </trkpt>
      <trkpt lat="42.90071" lon="-1.21379">
        <ele>994.178294</ele>
        <time>2026-05-22T16:38:30.000Z</time>
      </trkpt>
      <trkpt lat="42.90071" lon="-1.21376">
        <ele>994.178294</ele>
        <time>2026-05-22T16:38:31.000Z</time>
      </trkpt>
      <trkpt lat="42.90071" lon="-1.21374">
        <ele>994.178294</ele>
        <time>2026-05-22T16:38:32.000Z</time>
      </trkpt>
      <trkpt lat="42.90072" lon="-1.21371">
        <ele>994.178294</ele>
        <time>2026-05-22T16:38:33.000Z</time>
      </trkpt>
      <trkpt lat="42.90072" lon="-1.21368">
        <ele>994.178294</ele>
        <time>2026-05-22T16:38:34.000Z</time>
      </trkpt>
      <trkpt lat="42.90071" lon="-1.21366">
        <ele>994.178294</ele>
        <time>2026-05-22T16:38:35.000Z</time>
      </trkpt>
      <trkpt lat="42.90071" lon="-1.21364">
        <ele>994.178294</ele>
        <time>2026-05-22T16:38:36.000Z</time>
      </trkpt>
      <trkpt lat="42.90071" lon="-1.21361">
        <ele>994.178294</ele>
        <time>2026-05-22T16:38:37.000Z</time>
      </trkpt>
      <trkpt lat="42.9007" lon="-1.21359">
        <ele>994.178294</ele>
        <time>2026-05-22T16:38:38.000Z</time>
      </trkpt>
      <trkpt lat="42.90069" lon="-1.21357">
        <ele>994.178294</ele>
        <time>2026-05-22T16:38:39.000Z</time>
      </trkpt>
      <trkpt lat="42.90069" lon="-1.21354">
        <ele>994.178294</ele>
        <time>2026-05-22T16:38:40.000Z</time>
      </trkpt>
      <trkpt lat="42.90068" lon="-1.21352">
        <ele>994.178294</ele>
        <time>2026-05-22T16:38:41.000Z</time>
      </trkpt>
      <trkpt lat="42.90067" lon="-1.2135">
        <ele>994.178294</ele>
        <time>2026-05-22T16:38:42.000Z</time>
      </trkpt>
      <trkpt lat="42.90066" lon="-1.21348">
        <ele>994.178294</ele>
        <time>2026-05-22T16:38:43.000Z</time>
      </trkpt>
      <trkpt lat="42.90065" lon="-1.21346">
        <ele>994.178294</ele>
        <time>2026-05-22T16:38:44.000Z</time>
      </trkpt>
      <trkpt lat="42.90065" lon="-1.21344">
        <ele>994.178294</ele>
        <time>2026-05-22T16:38:45.000Z</time>
      </trkpt>
      <trkpt lat="42.90065" lon="-1.21342">
        <ele>994.178294</ele>
        <time>2026-05-22T16:38:46.000Z</time>
      </trkpt>
      <trkpt lat="42.90064" lon="-1.21339">
        <ele>994.178294</ele>
        <time>2026-05-22T16:38:47.000Z</time>
      </trkpt>
      <trkpt lat="42.90064" lon="-1.21337">
        <ele>994.178294</ele>
        <time>2026-05-22T16:38:48.000Z</time>
      </trkpt>
      <trkpt lat="42.90064" lon="-1.21335">
        <ele>994.178294</ele>
        <time>2026-05-22T16:38:49.000Z</time>
      </trkpt>
      <trkpt lat="42.90063" lon="-1.21333">
        <ele>994.178294</ele>
        <time>2026-05-22T16:38:50.000Z</time>
      </trkpt>
      <trkpt lat="42.90063" lon="-1.21331">
        <ele>994.178294</ele>
        <time>2026-05-22T16:38:51.000Z</time>
      </trkpt>
      <trkpt lat="42.90062" lon="-1.21328">
        <ele>994.178294</ele>
        <time>2026-05-22T16:38:52.000Z</time>
      </trkpt>
      <trkpt lat="42.90062" lon="-1.21326">
        <ele>994.178294</ele>
        <time>2026-05-22T16:38:53.000Z</time>
      </trkpt>
      <trkpt lat="42.90062" lon="-1.21324">
        <ele>994.178294</ele>
        <time>2026-05-22T16:38:54.000Z</time>
      </trkpt>
      <trkpt lat="42.90063" lon="-1.21321">
        <ele>994.178294</ele>
        <time>2026-05-22T16:38:55.000Z</time>
      </trkpt>
      <trkpt lat="42.90063" lon="-1.21319">
        <ele>994.178294</ele>
        <time>2026-05-22T16:38:56.000Z</time>
      </trkpt>
      <trkpt lat="42.90064" lon="-1.21316">
        <ele>994.178294</ele>
        <time>2026-05-22T16:38:57.000Z</time>
      </trkpt>
      <trkpt lat="42.90064" lon="-1.21313">
        <ele>994.178294</ele>
        <time>2026-05-22T16:38:58.000Z</time>
      </trkpt>
      <trkpt lat="42.90064" lon="-1.21311">
        <ele>994.178294</ele>
        <time>2026-05-22T16:38:59.000Z</time>
      </trkpt>
      <trkpt lat="42.90064" lon="-1.21308">
        <ele>994.178294</ele>
        <time>2026-05-22T16:39:00.000Z</time>
      </trkpt>
      <trkpt lat="42.90064" lon="-1.21305">
        <ele>994.178294</ele>
        <time>2026-05-22T16:39:01.000Z</time>
      </trkpt>
      <trkpt lat="42.90064" lon="-1.21302">
        <ele>994.178294</ele>
        <time>2026-05-22T16:39:02.000Z</time>
      </trkpt>
      <trkpt lat="42.90064" lon="-1.213">
        <ele>994.178294</ele>
        <time>2026-05-22T16:39:03.000Z</time>
      </trkpt>
      <trkpt lat="42.90063" lon="-1.21297">
        <ele>994.178294</ele>
        <time>2026-05-22T16:39:04.000Z</time>
      </trkpt>
      <trkpt lat="42.90063" lon="-1.21295">
        <ele>994.178294</ele>
        <time>2026-05-22T16:39:05.000Z</time>
      </trkpt>
      <trkpt lat="42.90063" lon="-1.21292">
        <ele>994.178294</ele>
        <time>2026-05-22T16:39:06.000Z</time>
      </trkpt>
      <trkpt lat="42.90063" lon="-1.21289">
        <ele>994.178294</ele>
        <time>2026-05-22T16:39:07.000Z</time>
      </trkpt>
      <trkpt lat="42.90062" lon="-1.21287">
        <ele>994.178294</ele>
        <time>2026-05-22T16:39:08.000Z</time>
      </trkpt>
      <trkpt lat="42.90062" lon="-1.21284">
        <ele>994.178294</ele>
        <time>2026-05-22T16:39:09.000Z</time>
      </trkpt>
      <trkpt lat="42.90062" lon="-1.21282">
        <ele>994.178294</ele>
        <time>2026-05-22T16:39:10.000Z</time>
      </trkpt>
      <trkpt lat="42.90062" lon="-1.21279">
        <ele>994.178294</ele>
        <time>2026-05-22T16:39:11.000Z</time>
      </trkpt>
      <trkpt lat="42.90062" lon="-1.21277">
        <ele>994.178294</ele>
        <time>2026-05-22T16:39:12.000Z</time>
      </trkpt>
      <trkpt lat="42.90063" lon="-1.21274">
        <ele>994.178294</ele>
        <time>2026-05-22T16:39:13.000Z</time>
      </trkpt>
      <trkpt lat="42.90063" lon="-1.21272">
        <ele>994.178294</ele>
        <time>2026-05-22T16:39:14.000Z</time>
      </trkpt>
      <trkpt lat="42.90063" lon="-1.2127">
        <ele>994.178294</ele>
        <time>2026-05-22T16:39:15.000Z</time>
      </trkpt>
      <trkpt lat="42.90062" lon="-1.21268">
        <ele>994.178294</ele>
        <time>2026-05-22T16:39:16.000Z</time>
      </trkpt>
      <trkpt lat="42.90062" lon="-1.21265">
        <ele>994.178294</ele>
        <time>2026-05-22T16:39:17.000Z</time>
      </trkpt>
      <trkpt lat="42.90062" lon="-1.21263">
        <ele>994.178294</ele>
        <time>2026-05-22T16:39:18.000Z</time>
      </trkpt>
      <trkpt lat="42.90062" lon="-1.21261">
        <ele>994.178294</ele>
        <time>2026-05-22T16:39:19.000Z</time>
      </trkpt>
      <trkpt lat="42.90062" lon="-1.21258">
        <ele>994.178294</ele>
        <time>2026-05-22T16:39:20.000Z</time>
      </trkpt>
      <trkpt lat="42.90062" lon="-1.21256">
        <ele>994.178294</ele>
        <time>2026-05-22T16:39:21.000Z</time>
      </trkpt>
      <trkpt lat="42.90062" lon="-1.21254">
        <ele>994.178294</ele>
        <time>2026-05-22T16:39:22.000Z</time>
      </trkpt>
      <trkpt lat="42.90062" lon="-1.21251">
        <ele>994.178294</ele>
        <time>2026-05-22T16:39:23.000Z</time>
      </trkpt>
      <trkpt lat="42.90063" lon="-1.2125">
        <ele>994.178294</ele>
        <time>2026-05-22T16:39:24.000Z</time>
      </trkpt>
      <trkpt lat="42.90063" lon="-1.21249">
        <ele>994.178294</ele>
        <time>2026-05-22T16:39:25.000Z</time>
      </trkpt>
      <trkpt lat="42.90064" lon="-1.21249">
        <ele>994.178294</ele>
        <time>2026-05-22T16:39:26.000Z</time>
      </trkpt>
      <trkpt lat="42.90065" lon="-1.21249">
        <ele>994.178294</ele>
        <time>2026-05-22T16:39:27.000Z</time>
      </trkpt>
      <trkpt lat="42.90065" lon="-1.21249">
        <ele>994.178294</ele>
        <time>2026-05-22T16:39:28.000Z</time>
      </trkpt>
      <trkpt lat="42.90068" lon="-1.21251">
        <ele>994.178294</ele>
        <time>2026-05-22T16:39:47.000Z</time>
      </trkpt>
      <trkpt lat="42.90069" lon="-1.21253">
        <ele>994.178294</ele>
        <time>2026-05-22T16:39:48.000Z</time>
      </trkpt>
      <trkpt lat="42.9007" lon="-1.21254">
        <ele>994.178294</ele>
        <time>2026-05-22T16:39:49.000Z</time>
      </trkpt>
      <trkpt lat="42.90071" lon="-1.21254">
        <ele>994.178294</ele>
        <time>2026-05-22T16:39:50.000Z</time>
      </trkpt>
      <trkpt lat="42.90071" lon="-1.21255">
        <ele>994.178294</ele>
        <time>2026-05-22T16:39:51.000Z</time>
      </trkpt>
      <trkpt lat="42.90072" lon="-1.21256">
        <ele>994.178294</ele>
        <time>2026-05-22T16:39:52.000Z</time>
      </trkpt>
      <trkpt lat="42.90073" lon="-1.21257">
        <ele>994.178294</ele>
        <time>2026-05-22T16:39:53.000Z</time>
      </trkpt>
      <trkpt lat="42.90073" lon="-1.21258">
        <ele>994.178294</ele>
        <time>2026-05-22T16:39:54.000Z</time>
      </trkpt>
      <trkpt lat="42.90073" lon="-1.21259">
        <ele>994.178294</ele>
        <time>2026-05-22T16:39:55.000Z</time>
      </trkpt>
      <trkpt lat="42.90074" lon="-1.2126">
        <ele>994.178294</ele>
        <time>2026-05-22T16:39:56.000Z</time>
      </trkpt>
      <trkpt lat="42.90074" lon="-1.21261">
        <ele>994.178294</ele>
        <time>2026-05-22T16:39:57.000Z</time>
      </trkpt>
      <trkpt lat="42.90074" lon="-1.21262">
        <ele>994.178294</ele>
        <time>2026-05-22T16:39:58.000Z</time>
      </trkpt>
      <trkpt lat="42.90074" lon="-1.21263">
        <ele>994.178294</ele>
        <time>2026-05-22T16:39:59.000Z</time>
      </trkpt>
      <trkpt lat="42.90074" lon="-1.21264">
        <ele>994.178294</ele>
        <time>2026-05-22T16:40:00.000Z</time>
      </trkpt>
      <trkpt lat="42.90074" lon="-1.21264">
        <ele>994.178294</ele>
        <time>2026-05-22T16:40:01.000Z</time>
      </trkpt>
    </trkseg>
  </trk>
</gpx>